<?xml version="1.0" encoding="UTF-8" standalone="no" ?>
<gpx xmlns="http://www.topografix.com/GPX/1/1" xmlns:xsi="http://www.w3.org/2001/XMLSchema-instance" xsi:schemaLocation="http://www.topografix.com/GPX/1/1 http://www.topografix.com/GPX/1/1/gpx.xsd" version="1.1" creator="VisuGPX - https://www.visugpx.com">
  <metadata>
    <name>Milliacoise-compil-Trois-Pignons</name>
    <desc><![CDATA[Rando inspirée de la Milliacoise dans la forêt des 3 Pignons.]]></desc>
  </metadata>
  <trk>
    <name><![CDATA[2020-06-06 10:16]]></name>
    <trkseg>
      <trkpt lat="48.40545" lon="2.50821">
        <ele>71.6</ele>
        <time>2020-06-06T08:18:33Z</time>
      </trkpt>
      <trkpt lat="48.4055" lon="2.50819">
        <ele>71.8</ele>
        <time>2020-06-06T08:19:51Z</time>
      </trkpt>
      <trkpt lat="48.40553" lon="2.50814">
        <ele>71.9</ele>
        <time>2020-06-06T08:21:13Z</time>
      </trkpt>
      <trkpt lat="48.40547" lon="2.50818">
        <ele>71.7</ele>
        <time>2020-06-06T08:21:51Z</time>
      </trkpt>
      <trkpt lat="48.40543" lon="2.50822">
        <ele>71.5</ele>
        <time>2020-06-06T08:21:57Z</time>
      </trkpt>
      <trkpt lat="48.40547" lon="2.50817">
        <ele>71.7</ele>
        <time>2020-06-06T08:22:15Z</time>
      </trkpt>
      <trkpt lat="48.40554" lon="2.50813">
        <ele>71.9</ele>
        <time>2020-06-06T08:22:19Z</time>
      </trkpt>
      <trkpt lat="48.40561" lon="2.50807">
        <ele>72</ele>
        <time>2020-06-06T08:22:23Z</time>
      </trkpt>
      <trkpt lat="48.40565" lon="2.50803">
        <ele>72</ele>
        <time>2020-06-06T08:22:25Z</time>
      </trkpt>
      <trkpt lat="48.4057" lon="2.508">
        <ele>72</ele>
        <time>2020-06-06T08:22:27Z</time>
      </trkpt>
      <trkpt lat="48.40574" lon="2.50793">
        <ele>72</ele>
        <time>2020-06-06T08:22:29Z</time>
      </trkpt>
      <trkpt lat="48.40579" lon="2.50787">
        <ele>72</ele>
        <time>2020-06-06T08:22:31Z</time>
      </trkpt>
      <trkpt lat="48.40583" lon="2.50781">
        <ele>72</ele>
        <time>2020-06-06T08:22:33Z</time>
      </trkpt>
      <trkpt lat="48.40588" lon="2.50776">
        <ele>72</ele>
        <time>2020-06-06T08:22:35Z</time>
      </trkpt>
      <trkpt lat="48.40593" lon="2.50771">
        <ele>72</ele>
        <time>2020-06-06T08:22:37Z</time>
      </trkpt>
      <trkpt lat="48.40597" lon="2.50766">
        <ele>72</ele>
        <time>2020-06-06T08:22:39Z</time>
      </trkpt>
      <trkpt lat="48.40601" lon="2.50762">
        <ele>72</ele>
        <time>2020-06-06T08:22:43Z</time>
      </trkpt>
      <trkpt lat="48.40603" lon="2.50754">
        <ele>72</ele>
        <time>2020-06-06T08:22:57Z</time>
      </trkpt>
      <trkpt lat="48.40609" lon="2.50747">
        <ele>72</ele>
        <time>2020-06-06T08:23:01Z</time>
      </trkpt>
      <trkpt lat="48.40613" lon="2.50744">
        <ele>72</ele>
        <time>2020-06-06T08:23:03Z</time>
      </trkpt>
      <trkpt lat="48.40617" lon="2.50737">
        <ele>72</ele>
        <time>2020-06-06T08:23:05Z</time>
      </trkpt>
      <trkpt lat="48.40622" lon="2.50731">
        <ele>72</ele>
        <time>2020-06-06T08:23:07Z</time>
      </trkpt>
      <trkpt lat="48.40626" lon="2.50727">
        <ele>72</ele>
        <time>2020-06-06T08:23:09Z</time>
      </trkpt>
      <trkpt lat="48.40632" lon="2.50723">
        <ele>72</ele>
        <time>2020-06-06T08:23:11Z</time>
      </trkpt>
      <trkpt lat="48.40637" lon="2.50717">
        <ele>72</ele>
        <time>2020-06-06T08:23:13Z</time>
      </trkpt>
      <trkpt lat="48.40642" lon="2.50708">
        <ele>72</ele>
        <time>2020-06-06T08:23:15Z</time>
      </trkpt>
      <trkpt lat="48.40649" lon="2.50701">
        <ele>72</ele>
        <time>2020-06-06T08:23:17Z</time>
      </trkpt>
      <trkpt lat="48.40655" lon="2.50693">
        <ele>72.1</ele>
        <time>2020-06-06T08:23:19Z</time>
      </trkpt>
      <trkpt lat="48.4066" lon="2.50684">
        <ele>72.4</ele>
        <time>2020-06-06T08:23:21Z</time>
      </trkpt>
      <trkpt lat="48.40666" lon="2.50676">
        <ele>72.7</ele>
        <time>2020-06-06T08:23:23Z</time>
      </trkpt>
      <trkpt lat="48.40672" lon="2.5067">
        <ele>72.9</ele>
        <time>2020-06-06T08:23:25Z</time>
      </trkpt>
      <trkpt lat="48.40679" lon="2.50662">
        <ele>73</ele>
        <time>2020-06-06T08:23:27Z</time>
      </trkpt>
      <trkpt lat="48.40685" lon="2.50655">
        <ele>73</ele>
        <time>2020-06-06T08:23:29Z</time>
      </trkpt>
      <trkpt lat="48.40691" lon="2.5065">
        <ele>73</ele>
        <time>2020-06-06T08:23:31Z</time>
      </trkpt>
      <trkpt lat="48.40698" lon="2.50642">
        <ele>73</ele>
        <time>2020-06-06T08:23:33Z</time>
      </trkpt>
      <trkpt lat="48.40703" lon="2.50634">
        <ele>73.1</ele>
        <time>2020-06-06T08:23:35Z</time>
      </trkpt>
      <trkpt lat="48.40709" lon="2.50626">
        <ele>73.2</ele>
        <time>2020-06-06T08:23:37Z</time>
      </trkpt>
      <trkpt lat="48.40715" lon="2.50618">
        <ele>73.6</ele>
        <time>2020-06-06T08:23:39Z</time>
      </trkpt>
      <trkpt lat="48.40721" lon="2.50609">
        <ele>74</ele>
        <time>2020-06-06T08:23:41Z</time>
      </trkpt>
      <trkpt lat="48.40727" lon="2.50602">
        <ele>74</ele>
        <time>2020-06-06T08:23:43Z</time>
      </trkpt>
      <trkpt lat="48.40733" lon="2.50596">
        <ele>74</ele>
        <time>2020-06-06T08:23:45Z</time>
      </trkpt>
      <trkpt lat="48.40738" lon="2.5059">
        <ele>74</ele>
        <time>2020-06-06T08:23:47Z</time>
      </trkpt>
      <trkpt lat="48.40743" lon="2.50585">
        <ele>74</ele>
        <time>2020-06-06T08:23:49Z</time>
      </trkpt>
      <trkpt lat="48.40748" lon="2.50579">
        <ele>74</ele>
        <time>2020-06-06T08:23:51Z</time>
      </trkpt>
      <trkpt lat="48.40753" lon="2.50572">
        <ele>74</ele>
        <time>2020-06-06T08:23:53Z</time>
      </trkpt>
      <trkpt lat="48.40758" lon="2.50565">
        <ele>74</ele>
        <time>2020-06-06T08:23:55Z</time>
      </trkpt>
      <trkpt lat="48.40763" lon="2.50558">
        <ele>74</ele>
        <time>2020-06-06T08:23:57Z</time>
      </trkpt>
      <trkpt lat="48.40768" lon="2.50551">
        <ele>74.2</ele>
        <time>2020-06-06T08:23:59Z</time>
      </trkpt>
      <trkpt lat="48.40773" lon="2.50545">
        <ele>74.4</ele>
        <time>2020-06-06T08:24:01Z</time>
      </trkpt>
      <trkpt lat="48.40778" lon="2.50539">
        <ele>74.6</ele>
        <time>2020-06-06T08:24:03Z</time>
      </trkpt>
      <trkpt lat="48.40785" lon="2.50533">
        <ele>74.6</ele>
        <time>2020-06-06T08:24:05Z</time>
      </trkpt>
      <trkpt lat="48.4079" lon="2.50526">
        <ele>74.6</ele>
        <time>2020-06-06T08:24:07Z</time>
      </trkpt>
      <trkpt lat="48.40795" lon="2.50519">
        <ele>74.6</ele>
        <time>2020-06-06T08:24:09Z</time>
      </trkpt>
      <trkpt lat="48.408" lon="2.50515">
        <ele>74.6</ele>
        <time>2020-06-06T08:24:11Z</time>
      </trkpt>
      <trkpt lat="48.40805" lon="2.5051">
        <ele>74.6</ele>
        <time>2020-06-06T08:24:13Z</time>
      </trkpt>
      <trkpt lat="48.40809" lon="2.50504">
        <ele>74.9</ele>
        <time>2020-06-06T08:24:15Z</time>
      </trkpt>
      <trkpt lat="48.40814" lon="2.50499">
        <ele>75</ele>
        <time>2020-06-06T08:24:17Z</time>
      </trkpt>
      <trkpt lat="48.40819" lon="2.50492">
        <ele>75</ele>
        <time>2020-06-06T08:24:19Z</time>
      </trkpt>
      <trkpt lat="48.40824" lon="2.50486">
        <ele>75</ele>
        <time>2020-06-06T08:24:21Z</time>
      </trkpt>
      <trkpt lat="48.4083" lon="2.50479">
        <ele>75</ele>
        <time>2020-06-06T08:24:23Z</time>
      </trkpt>
      <trkpt lat="48.40836" lon="2.50472">
        <ele>75</ele>
        <time>2020-06-06T08:24:25Z</time>
      </trkpt>
      <trkpt lat="48.40842" lon="2.50466">
        <ele>75.2</ele>
        <time>2020-06-06T08:24:27Z</time>
      </trkpt>
      <trkpt lat="48.40848" lon="2.5046">
        <ele>75.2</ele>
        <time>2020-06-06T08:24:29Z</time>
      </trkpt>
      <trkpt lat="48.40854" lon="2.50453">
        <ele>75.2</ele>
        <time>2020-06-06T08:24:31Z</time>
      </trkpt>
      <trkpt lat="48.40858" lon="2.50447">
        <ele>75.1</ele>
        <time>2020-06-06T08:24:33Z</time>
      </trkpt>
      <trkpt lat="48.40864" lon="2.5044">
        <ele>75.2</ele>
        <time>2020-06-06T08:24:35Z</time>
      </trkpt>
      <trkpt lat="48.40871" lon="2.50435">
        <ele>75.6</ele>
        <time>2020-06-06T08:24:37Z</time>
      </trkpt>
      <trkpt lat="48.40878" lon="2.50428">
        <ele>75.8</ele>
        <time>2020-06-06T08:24:39Z</time>
      </trkpt>
      <trkpt lat="48.40884" lon="2.50423">
        <ele>76</ele>
        <time>2020-06-06T08:24:41Z</time>
      </trkpt>
      <trkpt lat="48.40891" lon="2.50418">
        <ele>76.1</ele>
        <time>2020-06-06T08:24:43Z</time>
      </trkpt>
      <trkpt lat="48.40897" lon="2.50412">
        <ele>76.3</ele>
        <time>2020-06-06T08:24:45Z</time>
      </trkpt>
      <trkpt lat="48.40904" lon="2.50406">
        <ele>76.5</ele>
        <time>2020-06-06T08:24:47Z</time>
      </trkpt>
      <trkpt lat="48.40911" lon="2.50401">
        <ele>76.8</ele>
        <time>2020-06-06T08:24:49Z</time>
      </trkpt>
      <trkpt lat="48.40916" lon="2.50395">
        <ele>77</ele>
        <time>2020-06-06T08:24:51Z</time>
      </trkpt>
      <trkpt lat="48.40922" lon="2.50389">
        <ele>77.2</ele>
        <time>2020-06-06T08:24:53Z</time>
      </trkpt>
      <trkpt lat="48.40928" lon="2.50386">
        <ele>77.4</ele>
        <time>2020-06-06T08:24:55Z</time>
      </trkpt>
      <trkpt lat="48.40934" lon="2.50382">
        <ele>77.6</ele>
        <time>2020-06-06T08:24:57Z</time>
      </trkpt>
      <trkpt lat="48.40939" lon="2.5038">
        <ele>77.8</ele>
        <time>2020-06-06T08:24:59Z</time>
      </trkpt>
      <trkpt lat="48.40945" lon="2.50375">
        <ele>78</ele>
        <time>2020-06-06T08:25:03Z</time>
      </trkpt>
      <trkpt lat="48.40948" lon="2.5037">
        <ele>78.2</ele>
        <time>2020-06-06T08:25:15Z</time>
      </trkpt>
      <trkpt lat="48.40952" lon="2.50362">
        <ele>78.3</ele>
        <time>2020-06-06T08:25:31Z</time>
      </trkpt>
      <trkpt lat="48.40953" lon="2.50355">
        <ele>78.3</ele>
        <time>2020-06-06T08:25:33Z</time>
      </trkpt>
      <trkpt lat="48.40954" lon="2.50346">
        <ele>78.3</ele>
        <time>2020-06-06T08:25:35Z</time>
      </trkpt>
      <trkpt lat="48.40956" lon="2.50333">
        <ele>78.4</ele>
        <time>2020-06-06T08:25:37Z</time>
      </trkpt>
      <trkpt lat="48.40957" lon="2.50321">
        <ele>78.5</ele>
        <time>2020-06-06T08:25:39Z</time>
      </trkpt>
      <trkpt lat="48.40955" lon="2.50308">
        <ele>78.4</ele>
        <time>2020-06-06T08:25:41Z</time>
      </trkpt>
      <trkpt lat="48.40958" lon="2.50295">
        <ele>78.5</ele>
        <time>2020-06-06T08:25:43Z</time>
      </trkpt>
      <trkpt lat="48.40958" lon="2.50284">
        <ele>78.5</ele>
        <time>2020-06-06T08:25:45Z</time>
      </trkpt>
      <trkpt lat="48.4096" lon="2.50271">
        <ele>78.6</ele>
        <time>2020-06-06T08:25:47Z</time>
      </trkpt>
      <trkpt lat="48.40961" lon="2.50259">
        <ele>78.6</ele>
        <time>2020-06-06T08:25:49Z</time>
      </trkpt>
      <trkpt lat="48.40963" lon="2.50247">
        <ele>78.7</ele>
        <time>2020-06-06T08:25:51Z</time>
      </trkpt>
      <trkpt lat="48.40966" lon="2.50237">
        <ele>79.1</ele>
        <time>2020-06-06T08:25:53Z</time>
      </trkpt>
      <trkpt lat="48.40969" lon="2.50226">
        <ele>79.6</ele>
        <time>2020-06-06T08:25:55Z</time>
      </trkpt>
      <trkpt lat="48.40971" lon="2.50215">
        <ele>79.7</ele>
        <time>2020-06-06T08:25:57Z</time>
      </trkpt>
      <trkpt lat="48.40972" lon="2.50203">
        <ele>79.3</ele>
        <time>2020-06-06T08:25:59Z</time>
      </trkpt>
      <trkpt lat="48.40974" lon="2.50191">
        <ele>79.2</ele>
        <time>2020-06-06T08:26:01Z</time>
      </trkpt>
      <trkpt lat="48.40975" lon="2.5018">
        <ele>79.2</ele>
        <time>2020-06-06T08:26:03Z</time>
      </trkpt>
      <trkpt lat="48.40977" lon="2.50169">
        <ele>79.4</ele>
        <time>2020-06-06T08:26:05Z</time>
      </trkpt>
      <trkpt lat="48.40979" lon="2.50158">
        <ele>79.4</ele>
        <time>2020-06-06T08:26:07Z</time>
      </trkpt>
      <trkpt lat="48.40981" lon="2.50147">
        <ele>79.4</ele>
        <time>2020-06-06T08:26:09Z</time>
      </trkpt>
      <trkpt lat="48.40982" lon="2.50136">
        <ele>79.4</ele>
        <time>2020-06-06T08:26:11Z</time>
      </trkpt>
      <trkpt lat="48.40981" lon="2.50124">
        <ele>79.3</ele>
        <time>2020-06-06T08:26:13Z</time>
      </trkpt>
      <trkpt lat="48.40983" lon="2.50114">
        <ele>79.4</ele>
        <time>2020-06-06T08:26:15Z</time>
      </trkpt>
      <trkpt lat="48.40983" lon="2.50103">
        <ele>79.6</ele>
        <time>2020-06-06T08:26:17Z</time>
      </trkpt>
      <trkpt lat="48.40982" lon="2.50093">
        <ele>79.8</ele>
        <time>2020-06-06T08:26:19Z</time>
      </trkpt>
      <trkpt lat="48.40983" lon="2.50083">
        <ele>80</ele>
        <time>2020-06-06T08:26:21Z</time>
      </trkpt>
      <trkpt lat="48.40982" lon="2.5007">
        <ele>80.5</ele>
        <time>2020-06-06T08:26:23Z</time>
      </trkpt>
      <trkpt lat="48.40982" lon="2.50058">
        <ele>80.9</ele>
        <time>2020-06-06T08:26:25Z</time>
      </trkpt>
      <trkpt lat="48.40984" lon="2.50047">
        <ele>81.3</ele>
        <time>2020-06-06T08:26:27Z</time>
      </trkpt>
      <trkpt lat="48.40987" lon="2.50038">
        <ele>81.6</ele>
        <time>2020-06-06T08:26:29Z</time>
      </trkpt>
      <trkpt lat="48.4099" lon="2.50029">
        <ele>82</ele>
        <time>2020-06-06T08:26:31Z</time>
      </trkpt>
      <trkpt lat="48.40992" lon="2.50019">
        <ele>82.3</ele>
        <time>2020-06-06T08:26:33Z</time>
      </trkpt>
      <trkpt lat="48.40996" lon="2.50011">
        <ele>82.6</ele>
        <time>2020-06-06T08:26:35Z</time>
      </trkpt>
      <trkpt lat="48.40997" lon="2.50001">
        <ele>83</ele>
        <time>2020-06-06T08:26:37Z</time>
      </trkpt>
      <trkpt lat="48.41001" lon="2.49995">
        <ele>83.2</ele>
        <time>2020-06-06T08:26:39Z</time>
      </trkpt>
      <trkpt lat="48.41004" lon="2.49986">
        <ele>83.5</ele>
        <time>2020-06-06T08:26:41Z</time>
      </trkpt>
      <trkpt lat="48.41007" lon="2.49979">
        <ele>83.8</ele>
        <time>2020-06-06T08:26:43Z</time>
      </trkpt>
      <trkpt lat="48.41007" lon="2.49971">
        <ele>84</ele>
        <time>2020-06-06T08:26:45Z</time>
      </trkpt>
      <trkpt lat="48.41007" lon="2.49964">
        <ele>84.3</ele>
        <time>2020-06-06T08:26:47Z</time>
      </trkpt>
      <trkpt lat="48.41007" lon="2.49956">
        <ele>84.6</ele>
        <time>2020-06-06T08:26:49Z</time>
      </trkpt>
      <trkpt lat="48.41008" lon="2.49942">
        <ele>85.1</ele>
        <time>2020-06-06T08:26:53Z</time>
      </trkpt>
      <trkpt lat="48.41009" lon="2.49932">
        <ele>85.3</ele>
        <time>2020-06-06T08:26:55Z</time>
      </trkpt>
      <trkpt lat="48.4101" lon="2.49922">
        <ele>85.5</ele>
        <time>2020-06-06T08:26:57Z</time>
      </trkpt>
      <trkpt lat="48.41011" lon="2.49912">
        <ele>85.7</ele>
        <time>2020-06-06T08:26:59Z</time>
      </trkpt>
      <trkpt lat="48.41012" lon="2.49902">
        <ele>85.8</ele>
        <time>2020-06-06T08:27:01Z</time>
      </trkpt>
      <trkpt lat="48.41013" lon="2.49891">
        <ele>86</ele>
        <time>2020-06-06T08:27:03Z</time>
      </trkpt>
      <trkpt lat="48.41014" lon="2.49881">
        <ele>86.1</ele>
        <time>2020-06-06T08:27:05Z</time>
      </trkpt>
      <trkpt lat="48.41015" lon="2.4987">
        <ele>86.3</ele>
        <time>2020-06-06T08:27:07Z</time>
      </trkpt>
      <trkpt lat="48.41017" lon="2.49858">
        <ele>86.4</ele>
        <time>2020-06-06T08:27:09Z</time>
      </trkpt>
      <trkpt lat="48.41017" lon="2.49846">
        <ele>86.4</ele>
        <time>2020-06-06T08:27:11Z</time>
      </trkpt>
      <trkpt lat="48.41017" lon="2.49833">
        <ele>86.4</ele>
        <time>2020-06-06T08:27:13Z</time>
      </trkpt>
      <trkpt lat="48.41018" lon="2.49822">
        <ele>86.8</ele>
        <time>2020-06-06T08:27:15Z</time>
      </trkpt>
      <trkpt lat="48.41018" lon="2.49811">
        <ele>87.2</ele>
        <time>2020-06-06T08:27:17Z</time>
      </trkpt>
      <trkpt lat="48.41018" lon="2.498">
        <ele>87.4</ele>
        <time>2020-06-06T08:27:19Z</time>
      </trkpt>
      <trkpt lat="48.41019" lon="2.49788">
        <ele>87.3</ele>
        <time>2020-06-06T08:27:21Z</time>
      </trkpt>
      <trkpt lat="48.41019" lon="2.49777">
        <ele>87.3</ele>
        <time>2020-06-06T08:27:23Z</time>
      </trkpt>
      <trkpt lat="48.4102" lon="2.49765">
        <ele>87.7</ele>
        <time>2020-06-06T08:27:25Z</time>
      </trkpt>
      <trkpt lat="48.41022" lon="2.49755">
        <ele>88</ele>
        <time>2020-06-06T08:27:27Z</time>
      </trkpt>
      <trkpt lat="48.41024" lon="2.49744">
        <ele>88.2</ele>
        <time>2020-06-06T08:27:29Z</time>
      </trkpt>
      <trkpt lat="48.41026" lon="2.49734">
        <ele>88.1</ele>
        <time>2020-06-06T08:27:31Z</time>
      </trkpt>
      <trkpt lat="48.41029" lon="2.49725">
        <ele>88</ele>
        <time>2020-06-06T08:27:33Z</time>
      </trkpt>
      <trkpt lat="48.41031" lon="2.49713">
        <ele>88.2</ele>
        <time>2020-06-06T08:27:35Z</time>
      </trkpt>
      <trkpt lat="48.41032" lon="2.49703">
        <ele>88.5</ele>
        <time>2020-06-06T08:27:37Z</time>
      </trkpt>
      <trkpt lat="48.41034" lon="2.49694">
        <ele>88.8</ele>
        <time>2020-06-06T08:27:39Z</time>
      </trkpt>
      <trkpt lat="48.41035" lon="2.49684">
        <ele>89.1</ele>
        <time>2020-06-06T08:27:41Z</time>
      </trkpt>
      <trkpt lat="48.41036" lon="2.49676">
        <ele>89.4</ele>
        <time>2020-06-06T08:27:43Z</time>
      </trkpt>
      <trkpt lat="48.41037" lon="2.49667">
        <ele>89.7</ele>
        <time>2020-06-06T08:27:45Z</time>
      </trkpt>
      <trkpt lat="48.41037" lon="2.49659">
        <ele>89.9</ele>
        <time>2020-06-06T08:27:47Z</time>
      </trkpt>
      <trkpt lat="48.41038" lon="2.4965">
        <ele>90</ele>
        <time>2020-06-06T08:27:49Z</time>
      </trkpt>
      <trkpt lat="48.41039" lon="2.49641">
        <ele>90.1</ele>
        <time>2020-06-06T08:27:51Z</time>
      </trkpt>
      <trkpt lat="48.41039" lon="2.49632">
        <ele>90.4</ele>
        <time>2020-06-06T08:27:53Z</time>
      </trkpt>
      <trkpt lat="48.4104" lon="2.49624">
        <ele>90.7</ele>
        <time>2020-06-06T08:27:55Z</time>
      </trkpt>
      <trkpt lat="48.41041" lon="2.49616">
        <ele>90.9</ele>
        <time>2020-06-06T08:27:57Z</time>
      </trkpt>
      <trkpt lat="48.41042" lon="2.49608">
        <ele>91.1</ele>
        <time>2020-06-06T08:27:59Z</time>
      </trkpt>
      <trkpt lat="48.41043" lon="2.496">
        <ele>91.3</ele>
        <time>2020-06-06T08:28:01Z</time>
      </trkpt>
      <trkpt lat="48.41044" lon="2.49591">
        <ele>91.6</ele>
        <time>2020-06-06T08:28:03Z</time>
      </trkpt>
      <trkpt lat="48.41044" lon="2.49583">
        <ele>91.9</ele>
        <time>2020-06-06T08:28:05Z</time>
      </trkpt>
      <trkpt lat="48.41044" lon="2.49576">
        <ele>92.3</ele>
        <time>2020-06-06T08:28:07Z</time>
      </trkpt>
      <trkpt lat="48.41045" lon="2.49568">
        <ele>92.7</ele>
        <time>2020-06-06T08:28:09Z</time>
      </trkpt>
      <trkpt lat="48.41045" lon="2.4956">
        <ele>93.1</ele>
        <time>2020-06-06T08:28:11Z</time>
      </trkpt>
      <trkpt lat="48.41046" lon="2.49553">
        <ele>93.4</ele>
        <time>2020-06-06T08:28:13Z</time>
      </trkpt>
      <trkpt lat="48.41046" lon="2.49545">
        <ele>93.7</ele>
        <time>2020-06-06T08:28:15Z</time>
      </trkpt>
      <trkpt lat="48.41046" lon="2.49538">
        <ele>94</ele>
        <time>2020-06-06T08:28:17Z</time>
      </trkpt>
      <trkpt lat="48.41047" lon="2.49531">
        <ele>94.2</ele>
        <time>2020-06-06T08:28:19Z</time>
      </trkpt>
      <trkpt lat="48.41048" lon="2.49523">
        <ele>94.5</ele>
        <time>2020-06-06T08:28:21Z</time>
      </trkpt>
      <trkpt lat="48.41049" lon="2.49516">
        <ele>94.8</ele>
        <time>2020-06-06T08:28:23Z</time>
      </trkpt>
      <trkpt lat="48.41049" lon="2.49509">
        <ele>95.1</ele>
        <time>2020-06-06T08:28:25Z</time>
      </trkpt>
      <trkpt lat="48.41051" lon="2.49496">
        <ele>95.6</ele>
        <time>2020-06-06T08:28:29Z</time>
      </trkpt>
      <trkpt lat="48.41053" lon="2.49488">
        <ele>96</ele>
        <time>2020-06-06T08:28:31Z</time>
      </trkpt>
      <trkpt lat="48.41053" lon="2.49481">
        <ele>96.5</ele>
        <time>2020-06-06T08:28:33Z</time>
      </trkpt>
      <trkpt lat="48.41053" lon="2.49468">
        <ele>97.4</ele>
        <time>2020-06-06T08:28:37Z</time>
      </trkpt>
      <trkpt lat="48.41055" lon="2.49461">
        <ele>97.8</ele>
        <time>2020-06-06T08:28:39Z</time>
      </trkpt>
      <trkpt lat="48.41057" lon="2.4945">
        <ele>98.7</ele>
        <time>2020-06-06T08:28:43Z</time>
      </trkpt>
      <trkpt lat="48.41059" lon="2.49444">
        <ele>99.3</ele>
        <time>2020-06-06T08:28:45Z</time>
      </trkpt>
      <trkpt lat="48.41062" lon="2.49431">
        <ele>100.1</ele>
        <time>2020-06-06T08:28:49Z</time>
      </trkpt>
      <trkpt lat="48.41065" lon="2.49419">
        <ele>100.9</ele>
        <time>2020-06-06T08:28:53Z</time>
      </trkpt>
      <trkpt lat="48.41067" lon="2.49414">
        <ele>101.4</ele>
        <time>2020-06-06T08:28:55Z</time>
      </trkpt>
      <trkpt lat="48.41069" lon="2.49407">
        <ele>102.2</ele>
        <time>2020-06-06T08:28:57Z</time>
      </trkpt>
      <trkpt lat="48.41071" lon="2.49399">
        <ele>102.9</ele>
        <time>2020-06-06T08:28:59Z</time>
      </trkpt>
      <trkpt lat="48.41073" lon="2.49392">
        <ele>103.4</ele>
        <time>2020-06-06T08:29:01Z</time>
      </trkpt>
      <trkpt lat="48.41075" lon="2.49384">
        <ele>103.9</ele>
        <time>2020-06-06T08:29:03Z</time>
      </trkpt>
      <trkpt lat="48.41077" lon="2.49374">
        <ele>104.1</ele>
        <time>2020-06-06T08:29:05Z</time>
      </trkpt>
      <trkpt lat="48.4108" lon="2.49364">
        <ele>104.2</ele>
        <time>2020-06-06T08:29:07Z</time>
      </trkpt>
      <trkpt lat="48.41083" lon="2.49352">
        <ele>104.4</ele>
        <time>2020-06-06T08:29:09Z</time>
      </trkpt>
      <trkpt lat="48.41086" lon="2.49339">
        <ele>105.2</ele>
        <time>2020-06-06T08:29:11Z</time>
      </trkpt>
      <trkpt lat="48.41089" lon="2.49327">
        <ele>105.7</ele>
        <time>2020-06-06T08:29:13Z</time>
      </trkpt>
      <trkpt lat="48.41092" lon="2.49314">
        <ele>105.6</ele>
        <time>2020-06-06T08:29:15Z</time>
      </trkpt>
      <trkpt lat="48.41095" lon="2.49301">
        <ele>105.2</ele>
        <time>2020-06-06T08:29:17Z</time>
      </trkpt>
      <trkpt lat="48.41098" lon="2.49287">
        <ele>104.5</ele>
        <time>2020-06-06T08:29:19Z</time>
      </trkpt>
      <trkpt lat="48.41101" lon="2.49272">
        <ele>103.4</ele>
        <time>2020-06-06T08:29:21Z</time>
      </trkpt>
      <trkpt lat="48.41104" lon="2.49257">
        <ele>102.2</ele>
        <time>2020-06-06T08:29:23Z</time>
      </trkpt>
      <trkpt lat="48.41107" lon="2.49241">
        <ele>101.1</ele>
        <time>2020-06-06T08:29:25Z</time>
      </trkpt>
      <trkpt lat="48.41108" lon="2.49221">
        <ele>100.2</ele>
        <time>2020-06-06T08:29:27Z</time>
      </trkpt>
      <trkpt lat="48.4111" lon="2.49202">
        <ele>98.7</ele>
        <time>2020-06-06T08:29:29Z</time>
      </trkpt>
      <trkpt lat="48.41112" lon="2.49188">
        <ele>97.6</ele>
        <time>2020-06-06T08:29:31Z</time>
      </trkpt>
      <trkpt lat="48.41114" lon="2.49175">
        <ele>96.8</ele>
        <time>2020-06-06T08:29:33Z</time>
      </trkpt>
      <trkpt lat="48.41116" lon="2.49161">
        <ele>95.9</ele>
        <time>2020-06-06T08:29:35Z</time>
      </trkpt>
      <trkpt lat="48.41119" lon="2.49146">
        <ele>95.1</ele>
        <time>2020-06-06T08:29:37Z</time>
      </trkpt>
      <trkpt lat="48.41122" lon="2.49131">
        <ele>94.5</ele>
        <time>2020-06-06T08:29:39Z</time>
      </trkpt>
      <trkpt lat="48.41126" lon="2.49117">
        <ele>94.3</ele>
        <time>2020-06-06T08:29:41Z</time>
      </trkpt>
      <trkpt lat="48.4113" lon="2.49101">
        <ele>94.1</ele>
        <time>2020-06-06T08:29:43Z</time>
      </trkpt>
      <trkpt lat="48.41134" lon="2.49087">
        <ele>93.9</ele>
        <time>2020-06-06T08:29:45Z</time>
      </trkpt>
      <trkpt lat="48.41139" lon="2.49072">
        <ele>93.6</ele>
        <time>2020-06-06T08:29:47Z</time>
      </trkpt>
      <trkpt lat="48.41144" lon="2.49056">
        <ele>93.4</ele>
        <time>2020-06-06T08:29:49Z</time>
      </trkpt>
      <trkpt lat="48.41149" lon="2.49038">
        <ele>93.1</ele>
        <time>2020-06-06T08:29:51Z</time>
      </trkpt>
      <trkpt lat="48.41153" lon="2.49023">
        <ele>92.8</ele>
        <time>2020-06-06T08:29:53Z</time>
      </trkpt>
      <trkpt lat="48.41158" lon="2.49008">
        <ele>92.7</ele>
        <time>2020-06-06T08:29:55Z</time>
      </trkpt>
      <trkpt lat="48.41163" lon="2.48994">
        <ele>92.5</ele>
        <time>2020-06-06T08:29:57Z</time>
      </trkpt>
      <trkpt lat="48.41166" lon="2.48983">
        <ele>92.3</ele>
        <time>2020-06-06T08:29:59Z</time>
      </trkpt>
      <trkpt lat="48.41169" lon="2.48971">
        <ele>92.2</ele>
        <time>2020-06-06T08:30:01Z</time>
      </trkpt>
      <trkpt lat="48.41173" lon="2.48962">
        <ele>92.3</ele>
        <time>2020-06-06T08:30:03Z</time>
      </trkpt>
      <trkpt lat="48.41175" lon="2.4895">
        <ele>92.1</ele>
        <time>2020-06-06T08:30:05Z</time>
      </trkpt>
      <trkpt lat="48.41177" lon="2.48937">
        <ele>91.7</ele>
        <time>2020-06-06T08:30:07Z</time>
      </trkpt>
      <trkpt lat="48.4118" lon="2.48922">
        <ele>91.2</ele>
        <time>2020-06-06T08:30:09Z</time>
      </trkpt>
      <trkpt lat="48.41184" lon="2.48909">
        <ele>90.9</ele>
        <time>2020-06-06T08:30:11Z</time>
      </trkpt>
      <trkpt lat="48.41186" lon="2.48895">
        <ele>90.4</ele>
        <time>2020-06-06T08:30:13Z</time>
      </trkpt>
      <trkpt lat="48.41188" lon="2.48882">
        <ele>90.1</ele>
        <time>2020-06-06T08:30:15Z</time>
      </trkpt>
      <trkpt lat="48.4119" lon="2.48868">
        <ele>89.8</ele>
        <time>2020-06-06T08:30:17Z</time>
      </trkpt>
      <trkpt lat="48.41192" lon="2.48855">
        <ele>89.5</ele>
        <time>2020-06-06T08:30:19Z</time>
      </trkpt>
      <trkpt lat="48.41194" lon="2.4884">
        <ele>89.2</ele>
        <time>2020-06-06T08:30:21Z</time>
      </trkpt>
      <trkpt lat="48.41196" lon="2.48825">
        <ele>89.3</ele>
        <time>2020-06-06T08:30:23Z</time>
      </trkpt>
      <trkpt lat="48.41198" lon="2.4881">
        <ele>89.8</ele>
        <time>2020-06-06T08:30:25Z</time>
      </trkpt>
      <trkpt lat="48.41199" lon="2.48794">
        <ele>89.6</ele>
        <time>2020-06-06T08:30:27Z</time>
      </trkpt>
      <trkpt lat="48.412" lon="2.4878">
        <ele>89.3</ele>
        <time>2020-06-06T08:30:29Z</time>
      </trkpt>
      <trkpt lat="48.41202" lon="2.48766">
        <ele>89.6</ele>
        <time>2020-06-06T08:30:31Z</time>
      </trkpt>
      <trkpt lat="48.41205" lon="2.48753">
        <ele>90.3</ele>
        <time>2020-06-06T08:30:33Z</time>
      </trkpt>
      <trkpt lat="48.41207" lon="2.4874">
        <ele>90.4</ele>
        <time>2020-06-06T08:30:35Z</time>
      </trkpt>
      <trkpt lat="48.41209" lon="2.48728">
        <ele>90.4</ele>
        <time>2020-06-06T08:30:37Z</time>
      </trkpt>
      <trkpt lat="48.4121" lon="2.48716">
        <ele>90.2</ele>
        <time>2020-06-06T08:30:39Z</time>
      </trkpt>
      <trkpt lat="48.41213" lon="2.48705">
        <ele>90.6</ele>
        <time>2020-06-06T08:30:41Z</time>
      </trkpt>
      <trkpt lat="48.41214" lon="2.48695">
        <ele>90.5</ele>
        <time>2020-06-06T08:30:43Z</time>
      </trkpt>
      <trkpt lat="48.41216" lon="2.48686">
        <ele>90.6</ele>
        <time>2020-06-06T08:30:45Z</time>
      </trkpt>
      <trkpt lat="48.41218" lon="2.48677">
        <ele>90.7</ele>
        <time>2020-06-06T08:30:47Z</time>
      </trkpt>
      <trkpt lat="48.4122" lon="2.48667">
        <ele>90.7</ele>
        <time>2020-06-06T08:30:49Z</time>
      </trkpt>
      <trkpt lat="48.41223" lon="2.48656">
        <ele>90.4</ele>
        <time>2020-06-06T08:30:51Z</time>
      </trkpt>
      <trkpt lat="48.41226" lon="2.48644">
        <ele>90.2</ele>
        <time>2020-06-06T08:30:53Z</time>
      </trkpt>
      <trkpt lat="48.41229" lon="2.48632">
        <ele>90.1</ele>
        <time>2020-06-06T08:30:55Z</time>
      </trkpt>
      <trkpt lat="48.41232" lon="2.48621">
        <ele>90</ele>
        <time>2020-06-06T08:30:57Z</time>
      </trkpt>
      <trkpt lat="48.41235" lon="2.4861">
        <ele>89.8</ele>
        <time>2020-06-06T08:30:59Z</time>
      </trkpt>
      <trkpt lat="48.41237" lon="2.48601">
        <ele>89.6</ele>
        <time>2020-06-06T08:31:01Z</time>
      </trkpt>
      <trkpt lat="48.41241" lon="2.48593">
        <ele>89.6</ele>
        <time>2020-06-06T08:31:03Z</time>
      </trkpt>
      <trkpt lat="48.41245" lon="2.48583">
        <ele>89.5</ele>
        <time>2020-06-06T08:31:05Z</time>
      </trkpt>
      <trkpt lat="48.41249" lon="2.48573">
        <ele>89.5</ele>
        <time>2020-06-06T08:31:07Z</time>
      </trkpt>
      <trkpt lat="48.41252" lon="2.48564">
        <ele>89.6</ele>
        <time>2020-06-06T08:31:09Z</time>
      </trkpt>
      <trkpt lat="48.41257" lon="2.48556">
        <ele>90</ele>
        <time>2020-06-06T08:31:11Z</time>
      </trkpt>
      <trkpt lat="48.4126" lon="2.48545">
        <ele>89.9</ele>
        <time>2020-06-06T08:31:13Z</time>
      </trkpt>
      <trkpt lat="48.41263" lon="2.48533">
        <ele>89.7</ele>
        <time>2020-06-06T08:31:15Z</time>
      </trkpt>
      <trkpt lat="48.41265" lon="2.48521">
        <ele>89.4</ele>
        <time>2020-06-06T08:31:17Z</time>
      </trkpt>
      <trkpt lat="48.41269" lon="2.48509">
        <ele>89.4</ele>
        <time>2020-06-06T08:31:19Z</time>
      </trkpt>
      <trkpt lat="48.41273" lon="2.485">
        <ele>89.5</ele>
        <time>2020-06-06T08:31:21Z</time>
      </trkpt>
      <trkpt lat="48.41275" lon="2.48487">
        <ele>88.9</ele>
        <time>2020-06-06T08:31:23Z</time>
      </trkpt>
      <trkpt lat="48.41277" lon="2.48474">
        <ele>88.1</ele>
        <time>2020-06-06T08:31:25Z</time>
      </trkpt>
      <trkpt lat="48.41281" lon="2.48458">
        <ele>88</ele>
        <time>2020-06-06T08:31:27Z</time>
      </trkpt>
      <trkpt lat="48.41284" lon="2.48442">
        <ele>87.9</ele>
        <time>2020-06-06T08:31:29Z</time>
      </trkpt>
      <trkpt lat="48.41285" lon="2.48428">
        <ele>87.9</ele>
        <time>2020-06-06T08:31:31Z</time>
      </trkpt>
      <trkpt lat="48.41285" lon="2.48412">
        <ele>87.6</ele>
        <time>2020-06-06T08:31:33Z</time>
      </trkpt>
      <trkpt lat="48.41285" lon="2.48398">
        <ele>87.1</ele>
        <time>2020-06-06T08:31:35Z</time>
      </trkpt>
      <trkpt lat="48.41285" lon="2.48385">
        <ele>86.6</ele>
        <time>2020-06-06T08:31:37Z</time>
      </trkpt>
      <trkpt lat="48.41285" lon="2.48371">
        <ele>86</ele>
        <time>2020-06-06T08:31:39Z</time>
      </trkpt>
      <trkpt lat="48.41282" lon="2.48357">
        <ele>85.1</ele>
        <time>2020-06-06T08:31:41Z</time>
      </trkpt>
      <trkpt lat="48.41281" lon="2.48342">
        <ele>84.5</ele>
        <time>2020-06-06T08:31:43Z</time>
      </trkpt>
      <trkpt lat="48.41279" lon="2.48325">
        <ele>83.7</ele>
        <time>2020-06-06T08:31:45Z</time>
      </trkpt>
      <trkpt lat="48.41278" lon="2.48307">
        <ele>83.1</ele>
        <time>2020-06-06T08:31:47Z</time>
      </trkpt>
      <trkpt lat="48.41278" lon="2.48288">
        <ele>82.4</ele>
        <time>2020-06-06T08:31:49Z</time>
      </trkpt>
      <trkpt lat="48.41277" lon="2.4827">
        <ele>82</ele>
        <time>2020-06-06T08:31:51Z</time>
      </trkpt>
      <trkpt lat="48.41277" lon="2.48253">
        <ele>82</ele>
        <time>2020-06-06T08:31:53Z</time>
      </trkpt>
      <trkpt lat="48.41276" lon="2.48236">
        <ele>82.1</ele>
        <time>2020-06-06T08:31:55Z</time>
      </trkpt>
      <trkpt lat="48.41276" lon="2.48217">
        <ele>81.9</ele>
        <time>2020-06-06T08:31:57Z</time>
      </trkpt>
      <trkpt lat="48.41276" lon="2.48199">
        <ele>81.3</ele>
        <time>2020-06-06T08:31:59Z</time>
      </trkpt>
      <trkpt lat="48.41276" lon="2.48181">
        <ele>81.1</ele>
        <time>2020-06-06T08:32:01Z</time>
      </trkpt>
      <trkpt lat="48.41277" lon="2.48163">
        <ele>81.1</ele>
        <time>2020-06-06T08:32:03Z</time>
      </trkpt>
      <trkpt lat="48.41278" lon="2.48146">
        <ele>81</ele>
        <time>2020-06-06T08:32:05Z</time>
      </trkpt>
      <trkpt lat="48.41281" lon="2.48128">
        <ele>80.7</ele>
        <time>2020-06-06T08:32:07Z</time>
      </trkpt>
      <trkpt lat="48.41283" lon="2.48111">
        <ele>80.4</ele>
        <time>2020-06-06T08:32:09Z</time>
      </trkpt>
      <trkpt lat="48.41284" lon="2.48094">
        <ele>79.8</ele>
        <time>2020-06-06T08:32:11Z</time>
      </trkpt>
      <trkpt lat="48.41286" lon="2.48077">
        <ele>79.4</ele>
        <time>2020-06-06T08:32:13Z</time>
      </trkpt>
      <trkpt lat="48.41286" lon="2.4806">
        <ele>79.4</ele>
        <time>2020-06-06T08:32:15Z</time>
      </trkpt>
      <trkpt lat="48.41286" lon="2.48044">
        <ele>79.4</ele>
        <time>2020-06-06T08:32:17Z</time>
      </trkpt>
      <trkpt lat="48.41286" lon="2.48028">
        <ele>79.4</ele>
        <time>2020-06-06T08:32:19Z</time>
      </trkpt>
      <trkpt lat="48.41287" lon="2.48012">
        <ele>79</ele>
        <time>2020-06-06T08:32:21Z</time>
      </trkpt>
      <trkpt lat="48.41286" lon="2.47995">
        <ele>78.7</ele>
        <time>2020-06-06T08:32:23Z</time>
      </trkpt>
      <trkpt lat="48.41285" lon="2.47978">
        <ele>78.5</ele>
        <time>2020-06-06T08:32:25Z</time>
      </trkpt>
      <trkpt lat="48.41283" lon="2.4796">
        <ele>78.3</ele>
        <time>2020-06-06T08:32:27Z</time>
      </trkpt>
      <trkpt lat="48.41281" lon="2.47943">
        <ele>77.9</ele>
        <time>2020-06-06T08:32:29Z</time>
      </trkpt>
      <trkpt lat="48.41279" lon="2.47926">
        <ele>78</ele>
        <time>2020-06-06T08:32:31Z</time>
      </trkpt>
      <trkpt lat="48.41277" lon="2.47909">
        <ele>77.8</ele>
        <time>2020-06-06T08:32:33Z</time>
      </trkpt>
      <trkpt lat="48.41274" lon="2.47892">
        <ele>77.4</ele>
        <time>2020-06-06T08:32:35Z</time>
      </trkpt>
      <trkpt lat="48.41272" lon="2.47875">
        <ele>77.4</ele>
        <time>2020-06-06T08:32:37Z</time>
      </trkpt>
      <trkpt lat="48.4127" lon="2.47858">
        <ele>77.5</ele>
        <time>2020-06-06T08:32:39Z</time>
      </trkpt>
      <trkpt lat="48.41267" lon="2.47843">
        <ele>77.5</ele>
        <time>2020-06-06T08:32:41Z</time>
      </trkpt>
      <trkpt lat="48.41264" lon="2.47827">
        <ele>77.3</ele>
        <time>2020-06-06T08:32:43Z</time>
      </trkpt>
      <trkpt lat="48.41261" lon="2.47813">
        <ele>76.9</ele>
        <time>2020-06-06T08:32:45Z</time>
      </trkpt>
      <trkpt lat="48.41257" lon="2.47799">
        <ele>76.7</ele>
        <time>2020-06-06T08:32:47Z</time>
      </trkpt>
      <trkpt lat="48.41253" lon="2.47785">
        <ele>76.9</ele>
        <time>2020-06-06T08:32:49Z</time>
      </trkpt>
      <trkpt lat="48.4125" lon="2.47772">
        <ele>76.8</ele>
        <time>2020-06-06T08:32:51Z</time>
      </trkpt>
      <trkpt lat="48.41247" lon="2.47759">
        <ele>76.5</ele>
        <time>2020-06-06T08:32:53Z</time>
      </trkpt>
      <trkpt lat="48.41243" lon="2.47747">
        <ele>76.5</ele>
        <time>2020-06-06T08:32:55Z</time>
      </trkpt>
      <trkpt lat="48.4124" lon="2.47736">
        <ele>76.5</ele>
        <time>2020-06-06T08:32:57Z</time>
      </trkpt>
      <trkpt lat="48.41238" lon="2.47726">
        <ele>76.5</ele>
        <time>2020-06-06T08:32:59Z</time>
      </trkpt>
      <trkpt lat="48.41235" lon="2.47717">
        <ele>76.4</ele>
        <time>2020-06-06T08:33:01Z</time>
      </trkpt>
      <trkpt lat="48.41241" lon="2.47711">
        <ele>75.9</ele>
        <time>2020-06-06T08:33:05Z</time>
      </trkpt>
      <trkpt lat="48.41248" lon="2.47716">
        <ele>75.8</ele>
        <time>2020-06-06T08:33:07Z</time>
      </trkpt>
      <trkpt lat="48.41255" lon="2.47722">
        <ele>75.6</ele>
        <time>2020-06-06T08:33:09Z</time>
      </trkpt>
      <trkpt lat="48.41263" lon="2.47729">
        <ele>75.2</ele>
        <time>2020-06-06T08:33:11Z</time>
      </trkpt>
      <trkpt lat="48.4127" lon="2.47738">
        <ele>75</ele>
        <time>2020-06-06T08:33:13Z</time>
      </trkpt>
      <trkpt lat="48.41278" lon="2.47745">
        <ele>74.8</ele>
        <time>2020-06-06T08:33:15Z</time>
      </trkpt>
      <trkpt lat="48.41286" lon="2.47753">
        <ele>74.8</ele>
        <time>2020-06-06T08:33:17Z</time>
      </trkpt>
      <trkpt lat="48.41294" lon="2.4776">
        <ele>74.8</ele>
        <time>2020-06-06T08:33:19Z</time>
      </trkpt>
      <trkpt lat="48.41302" lon="2.47768">
        <ele>74.8</ele>
        <time>2020-06-06T08:33:21Z</time>
      </trkpt>
      <trkpt lat="48.4131" lon="2.47776">
        <ele>74.8</ele>
        <time>2020-06-06T08:33:23Z</time>
      </trkpt>
      <trkpt lat="48.41317" lon="2.47785">
        <ele>74.8</ele>
        <time>2020-06-06T08:33:25Z</time>
      </trkpt>
      <trkpt lat="48.41325" lon="2.47793">
        <ele>74.8</ele>
        <time>2020-06-06T08:33:27Z</time>
      </trkpt>
      <trkpt lat="48.41334" lon="2.47802">
        <ele>74.9</ele>
        <time>2020-06-06T08:33:29Z</time>
      </trkpt>
      <trkpt lat="48.41342" lon="2.47812">
        <ele>74.7</ele>
        <time>2020-06-06T08:33:31Z</time>
      </trkpt>
      <trkpt lat="48.41352" lon="2.47822">
        <ele>74.3</ele>
        <time>2020-06-06T08:33:33Z</time>
      </trkpt>
      <trkpt lat="48.41361" lon="2.47834">
        <ele>74</ele>
        <time>2020-06-06T08:33:35Z</time>
      </trkpt>
      <trkpt lat="48.4137" lon="2.47846">
        <ele>74.1</ele>
        <time>2020-06-06T08:33:37Z</time>
      </trkpt>
      <trkpt lat="48.4138" lon="2.47857">
        <ele>74.2</ele>
        <time>2020-06-06T08:33:39Z</time>
      </trkpt>
      <trkpt lat="48.41389" lon="2.47869">
        <ele>74</ele>
        <time>2020-06-06T08:33:41Z</time>
      </trkpt>
      <trkpt lat="48.41399" lon="2.47881">
        <ele>73.6</ele>
        <time>2020-06-06T08:33:43Z</time>
      </trkpt>
      <trkpt lat="48.41408" lon="2.47893">
        <ele>73.4</ele>
        <time>2020-06-06T08:33:45Z</time>
      </trkpt>
      <trkpt lat="48.41416" lon="2.47904">
        <ele>73.6</ele>
        <time>2020-06-06T08:33:47Z</time>
      </trkpt>
      <trkpt lat="48.41425" lon="2.47914">
        <ele>73.6</ele>
        <time>2020-06-06T08:33:49Z</time>
      </trkpt>
      <trkpt lat="48.41432" lon="2.47927">
        <ele>73.7</ele>
        <time>2020-06-06T08:33:51Z</time>
      </trkpt>
      <trkpt lat="48.41441" lon="2.47937">
        <ele>73.8</ele>
        <time>2020-06-06T08:33:53Z</time>
      </trkpt>
      <trkpt lat="48.41449" lon="2.47947">
        <ele>73.9</ele>
        <time>2020-06-06T08:33:55Z</time>
      </trkpt>
      <trkpt lat="48.41458" lon="2.47954">
        <ele>73.7</ele>
        <time>2020-06-06T08:33:57Z</time>
      </trkpt>
      <trkpt lat="48.41466" lon="2.47961">
        <ele>73.7</ele>
        <time>2020-06-06T08:33:59Z</time>
      </trkpt>
      <trkpt lat="48.41474" lon="2.4797">
        <ele>73.9</ele>
        <time>2020-06-06T08:34:01Z</time>
      </trkpt>
      <trkpt lat="48.4148" lon="2.47981">
        <ele>74.3</ele>
        <time>2020-06-06T08:34:03Z</time>
      </trkpt>
      <trkpt lat="48.41487" lon="2.47993">
        <ele>74.7</ele>
        <time>2020-06-06T08:34:05Z</time>
      </trkpt>
      <trkpt lat="48.41492" lon="2.48007">
        <ele>75.3</ele>
        <time>2020-06-06T08:34:07Z</time>
      </trkpt>
      <trkpt lat="48.41497" lon="2.48021">
        <ele>75.8</ele>
        <time>2020-06-06T08:34:09Z</time>
      </trkpt>
      <trkpt lat="48.41506" lon="2.48034">
        <ele>76.4</ele>
        <time>2020-06-06T08:34:11Z</time>
      </trkpt>
      <trkpt lat="48.4151" lon="2.48044">
        <ele>76.9</ele>
        <time>2020-06-06T08:34:13Z</time>
      </trkpt>
      <trkpt lat="48.41514" lon="2.48056">
        <ele>77.5</ele>
        <time>2020-06-06T08:34:15Z</time>
      </trkpt>
      <trkpt lat="48.41521" lon="2.48069">
        <ele>77.9</ele>
        <time>2020-06-06T08:34:17Z</time>
      </trkpt>
      <trkpt lat="48.41523" lon="2.48081">
        <ele>78</ele>
        <time>2020-06-06T08:34:19Z</time>
      </trkpt>
      <trkpt lat="48.41525" lon="2.48094">
        <ele>78</ele>
        <time>2020-06-06T08:34:21Z</time>
      </trkpt>
      <trkpt lat="48.41529" lon="2.48107">
        <ele>78.1</ele>
        <time>2020-06-06T08:34:23Z</time>
      </trkpt>
      <trkpt lat="48.41536" lon="2.48118">
        <ele>79</ele>
        <time>2020-06-06T08:34:25Z</time>
      </trkpt>
      <trkpt lat="48.41543" lon="2.48125">
        <ele>79.6</ele>
        <time>2020-06-06T08:34:27Z</time>
      </trkpt>
      <trkpt lat="48.41551" lon="2.4813">
        <ele>80.1</ele>
        <time>2020-06-06T08:34:29Z</time>
      </trkpt>
      <trkpt lat="48.41557" lon="2.48138">
        <ele>80.1</ele>
        <time>2020-06-06T08:34:31Z</time>
      </trkpt>
      <trkpt lat="48.41563" lon="2.48145">
        <ele>80.7</ele>
        <time>2020-06-06T08:34:33Z</time>
      </trkpt>
      <trkpt lat="48.41568" lon="2.48153">
        <ele>81.2</ele>
        <time>2020-06-06T08:34:35Z</time>
      </trkpt>
      <trkpt lat="48.41573" lon="2.48158">
        <ele>81.5</ele>
        <time>2020-06-06T08:34:37Z</time>
      </trkpt>
      <trkpt lat="48.41581" lon="2.48162">
        <ele>81.9</ele>
        <time>2020-06-06T08:34:39Z</time>
      </trkpt>
      <trkpt lat="48.41584" lon="2.48169">
        <ele>82.1</ele>
        <time>2020-06-06T08:34:41Z</time>
      </trkpt>
      <trkpt lat="48.41587" lon="2.48175">
        <ele>82.3</ele>
        <time>2020-06-06T08:34:43Z</time>
      </trkpt>
      <trkpt lat="48.41593" lon="2.48179">
        <ele>81.9</ele>
        <time>2020-06-06T08:34:45Z</time>
      </trkpt>
      <trkpt lat="48.41599" lon="2.48182">
        <ele>81.4</ele>
        <time>2020-06-06T08:34:47Z</time>
      </trkpt>
      <trkpt lat="48.41606" lon="2.48187">
        <ele>80.6</ele>
        <time>2020-06-06T08:34:49Z</time>
      </trkpt>
      <trkpt lat="48.41611" lon="2.48194">
        <ele>80</ele>
        <time>2020-06-06T08:34:51Z</time>
      </trkpt>
      <trkpt lat="48.41617" lon="2.48204">
        <ele>79.6</ele>
        <time>2020-06-06T08:34:53Z</time>
      </trkpt>
      <trkpt lat="48.41624" lon="2.48216">
        <ele>79.1</ele>
        <time>2020-06-06T08:34:55Z</time>
      </trkpt>
      <trkpt lat="48.41627" lon="2.48222">
        <ele>78.9</ele>
        <time>2020-06-06T08:34:57Z</time>
      </trkpt>
      <trkpt lat="48.41619" lon="2.48231">
        <ele>79.3</ele>
        <time>2020-06-06T08:35:03Z</time>
      </trkpt>
      <trkpt lat="48.41618" lon="2.48239">
        <ele>79.4</ele>
        <time>2020-06-06T08:35:05Z</time>
      </trkpt>
      <trkpt lat="48.41618" lon="2.48246">
        <ele>79.3</ele>
        <time>2020-06-06T08:35:07Z</time>
      </trkpt>
      <trkpt lat="48.41617" lon="2.48256">
        <ele>79.2</ele>
        <time>2020-06-06T08:35:09Z</time>
      </trkpt>
      <trkpt lat="48.41615" lon="2.48268">
        <ele>79</ele>
        <time>2020-06-06T08:35:11Z</time>
      </trkpt>
      <trkpt lat="48.41612" lon="2.4828">
        <ele>78.9</ele>
        <time>2020-06-06T08:35:13Z</time>
      </trkpt>
      <trkpt lat="48.41612" lon="2.48292">
        <ele>78.9</ele>
        <time>2020-06-06T08:35:15Z</time>
      </trkpt>
      <trkpt lat="48.41608" lon="2.48302">
        <ele>79.4</ele>
        <time>2020-06-06T08:35:17Z</time>
      </trkpt>
      <trkpt lat="48.41604" lon="2.48314">
        <ele>80</ele>
        <time>2020-06-06T08:35:19Z</time>
      </trkpt>
      <trkpt lat="48.41601" lon="2.48324">
        <ele>80.5</ele>
        <time>2020-06-06T08:35:21Z</time>
      </trkpt>
      <trkpt lat="48.416" lon="2.48334">
        <ele>80.6</ele>
        <time>2020-06-06T08:35:23Z</time>
      </trkpt>
      <trkpt lat="48.41599" lon="2.48342">
        <ele>80.7</ele>
        <time>2020-06-06T08:35:25Z</time>
      </trkpt>
      <trkpt lat="48.41596" lon="2.4835">
        <ele>81.2</ele>
        <time>2020-06-06T08:35:27Z</time>
      </trkpt>
      <trkpt lat="48.41594" lon="2.4836">
        <ele>81.5</ele>
        <time>2020-06-06T08:35:29Z</time>
      </trkpt>
      <trkpt lat="48.41593" lon="2.48369">
        <ele>81.7</ele>
        <time>2020-06-06T08:35:31Z</time>
      </trkpt>
      <trkpt lat="48.41593" lon="2.48377">
        <ele>81.8</ele>
        <time>2020-06-06T08:35:33Z</time>
      </trkpt>
      <trkpt lat="48.41592" lon="2.48384">
        <ele>82</ele>
        <time>2020-06-06T08:35:35Z</time>
      </trkpt>
      <trkpt lat="48.41593" lon="2.48393">
        <ele>82</ele>
        <time>2020-06-06T08:35:37Z</time>
      </trkpt>
      <trkpt lat="48.41591" lon="2.48401">
        <ele>82.2</ele>
        <time>2020-06-06T08:35:39Z</time>
      </trkpt>
      <trkpt lat="48.4159" lon="2.4841">
        <ele>82.3</ele>
        <time>2020-06-06T08:35:41Z</time>
      </trkpt>
      <trkpt lat="48.41587" lon="2.4842">
        <ele>82.5</ele>
        <time>2020-06-06T08:35:43Z</time>
      </trkpt>
      <trkpt lat="48.41585" lon="2.48429">
        <ele>82.4</ele>
        <time>2020-06-06T08:35:45Z</time>
      </trkpt>
      <trkpt lat="48.41582" lon="2.48437">
        <ele>82.4</ele>
        <time>2020-06-06T08:35:47Z</time>
      </trkpt>
      <trkpt lat="48.41578" lon="2.48445">
        <ele>82.6</ele>
        <time>2020-06-06T08:35:49Z</time>
      </trkpt>
      <trkpt lat="48.41575" lon="2.48453">
        <ele>82.8</ele>
        <time>2020-06-06T08:35:51Z</time>
      </trkpt>
      <trkpt lat="48.41571" lon="2.48461">
        <ele>83.1</ele>
        <time>2020-06-06T08:35:53Z</time>
      </trkpt>
      <trkpt lat="48.41567" lon="2.48475">
        <ele>83.1</ele>
        <time>2020-06-06T08:35:57Z</time>
      </trkpt>
      <trkpt lat="48.41564" lon="2.48482">
        <ele>83</ele>
        <time>2020-06-06T08:35:59Z</time>
      </trkpt>
      <trkpt lat="48.41562" lon="2.48491">
        <ele>82.9</ele>
        <time>2020-06-06T08:36:01Z</time>
      </trkpt>
      <trkpt lat="48.41557" lon="2.48501">
        <ele>82.9</ele>
        <time>2020-06-06T08:36:03Z</time>
      </trkpt>
      <trkpt lat="48.41556" lon="2.4851">
        <ele>83</ele>
        <time>2020-06-06T08:36:05Z</time>
      </trkpt>
      <trkpt lat="48.41557" lon="2.4852">
        <ele>82.9</ele>
        <time>2020-06-06T08:36:07Z</time>
      </trkpt>
      <trkpt lat="48.41555" lon="2.48532">
        <ele>82.9</ele>
        <time>2020-06-06T08:36:09Z</time>
      </trkpt>
      <trkpt lat="48.41552" lon="2.48544">
        <ele>82.7</ele>
        <time>2020-06-06T08:36:11Z</time>
      </trkpt>
      <trkpt lat="48.41552" lon="2.48554">
        <ele>82.3</ele>
        <time>2020-06-06T08:36:13Z</time>
      </trkpt>
      <trkpt lat="48.4155" lon="2.48563">
        <ele>82.4</ele>
        <time>2020-06-06T08:36:15Z</time>
      </trkpt>
      <trkpt lat="48.41546" lon="2.48573">
        <ele>82.7</ele>
        <time>2020-06-06T08:36:17Z</time>
      </trkpt>
      <trkpt lat="48.41543" lon="2.48584">
        <ele>82.9</ele>
        <time>2020-06-06T08:36:19Z</time>
      </trkpt>
      <trkpt lat="48.41541" lon="2.48595">
        <ele>83.3</ele>
        <time>2020-06-06T08:36:21Z</time>
      </trkpt>
      <trkpt lat="48.41538" lon="2.48605">
        <ele>83.8</ele>
        <time>2020-06-06T08:36:23Z</time>
      </trkpt>
      <trkpt lat="48.41537" lon="2.48614">
        <ele>84</ele>
        <time>2020-06-06T08:36:25Z</time>
      </trkpt>
      <trkpt lat="48.41536" lon="2.48623">
        <ele>84.2</ele>
        <time>2020-06-06T08:36:27Z</time>
      </trkpt>
      <trkpt lat="48.41534" lon="2.48632">
        <ele>84.5</ele>
        <time>2020-06-06T08:36:29Z</time>
      </trkpt>
      <trkpt lat="48.41532" lon="2.48642">
        <ele>84.6</ele>
        <time>2020-06-06T08:36:31Z</time>
      </trkpt>
      <trkpt lat="48.41529" lon="2.48649">
        <ele>84.6</ele>
        <time>2020-06-06T08:36:33Z</time>
      </trkpt>
      <trkpt lat="48.41527" lon="2.48661">
        <ele>84.3</ele>
        <time>2020-06-06T08:36:35Z</time>
      </trkpt>
      <trkpt lat="48.41526" lon="2.4867">
        <ele>84.3</ele>
        <time>2020-06-06T08:36:37Z</time>
      </trkpt>
      <trkpt lat="48.41524" lon="2.4868">
        <ele>84.5</ele>
        <time>2020-06-06T08:36:39Z</time>
      </trkpt>
      <trkpt lat="48.41522" lon="2.48688">
        <ele>84.7</ele>
        <time>2020-06-06T08:36:41Z</time>
      </trkpt>
      <trkpt lat="48.4152" lon="2.48696">
        <ele>84.9</ele>
        <time>2020-06-06T08:36:43Z</time>
      </trkpt>
      <trkpt lat="48.41516" lon="2.48704">
        <ele>85.5</ele>
        <time>2020-06-06T08:36:45Z</time>
      </trkpt>
      <trkpt lat="48.41514" lon="2.48712">
        <ele>85.8</ele>
        <time>2020-06-06T08:36:47Z</time>
      </trkpt>
      <trkpt lat="48.41512" lon="2.4872">
        <ele>86.1</ele>
        <time>2020-06-06T08:36:49Z</time>
      </trkpt>
      <trkpt lat="48.41512" lon="2.48729">
        <ele>86.3</ele>
        <time>2020-06-06T08:36:51Z</time>
      </trkpt>
      <trkpt lat="48.41512" lon="2.48737">
        <ele>86.6</ele>
        <time>2020-06-06T08:36:53Z</time>
      </trkpt>
      <trkpt lat="48.4151" lon="2.48745">
        <ele>86.9</ele>
        <time>2020-06-06T08:36:55Z</time>
      </trkpt>
      <trkpt lat="48.41508" lon="2.48753">
        <ele>87.1</ele>
        <time>2020-06-06T08:36:57Z</time>
      </trkpt>
      <trkpt lat="48.41506" lon="2.48761">
        <ele>87.2</ele>
        <time>2020-06-06T08:36:59Z</time>
      </trkpt>
      <trkpt lat="48.41505" lon="2.48775">
        <ele>87.3</ele>
        <time>2020-06-06T08:37:03Z</time>
      </trkpt>
      <trkpt lat="48.41504" lon="2.48782">
        <ele>87.5</ele>
        <time>2020-06-06T08:37:05Z</time>
      </trkpt>
      <trkpt lat="48.41502" lon="2.48791">
        <ele>87.7</ele>
        <time>2020-06-06T08:37:07Z</time>
      </trkpt>
      <trkpt lat="48.41502" lon="2.488">
        <ele>88.1</ele>
        <time>2020-06-06T08:37:09Z</time>
      </trkpt>
      <trkpt lat="48.41501" lon="2.48809">
        <ele>88.3</ele>
        <time>2020-06-06T08:37:11Z</time>
      </trkpt>
      <trkpt lat="48.41502" lon="2.48817">
        <ele>88.7</ele>
        <time>2020-06-06T08:37:13Z</time>
      </trkpt>
      <trkpt lat="48.41502" lon="2.48824">
        <ele>89</ele>
        <time>2020-06-06T08:37:15Z</time>
      </trkpt>
      <trkpt lat="48.41503" lon="2.48833">
        <ele>89.5</ele>
        <time>2020-06-06T08:37:17Z</time>
      </trkpt>
      <trkpt lat="48.41502" lon="2.48848">
        <ele>89.9</ele>
        <time>2020-06-06T08:37:21Z</time>
      </trkpt>
      <trkpt lat="48.41501" lon="2.48856">
        <ele>90</ele>
        <time>2020-06-06T08:37:23Z</time>
      </trkpt>
      <trkpt lat="48.41501" lon="2.48865">
        <ele>90.4</ele>
        <time>2020-06-06T08:37:25Z</time>
      </trkpt>
      <trkpt lat="48.41502" lon="2.48874">
        <ele>91</ele>
        <time>2020-06-06T08:37:27Z</time>
      </trkpt>
      <trkpt lat="48.41501" lon="2.48882">
        <ele>91</ele>
        <time>2020-06-06T08:37:29Z</time>
      </trkpt>
      <trkpt lat="48.41499" lon="2.48891">
        <ele>91.2</ele>
        <time>2020-06-06T08:37:31Z</time>
      </trkpt>
      <trkpt lat="48.41498" lon="2.48901">
        <ele>91.9</ele>
        <time>2020-06-06T08:37:33Z</time>
      </trkpt>
      <trkpt lat="48.41495" lon="2.4891">
        <ele>92.4</ele>
        <time>2020-06-06T08:37:35Z</time>
      </trkpt>
      <trkpt lat="48.41496" lon="2.48917">
        <ele>92.9</ele>
        <time>2020-06-06T08:37:37Z</time>
      </trkpt>
      <trkpt lat="48.41493" lon="2.48926">
        <ele>93.3</ele>
        <time>2020-06-06T08:37:39Z</time>
      </trkpt>
      <trkpt lat="48.41492" lon="2.48936">
        <ele>93.7</ele>
        <time>2020-06-06T08:37:41Z</time>
      </trkpt>
      <trkpt lat="48.41491" lon="2.48946">
        <ele>94.1</ele>
        <time>2020-06-06T08:37:43Z</time>
      </trkpt>
      <trkpt lat="48.41488" lon="2.48956">
        <ele>94.4</ele>
        <time>2020-06-06T08:37:45Z</time>
      </trkpt>
      <trkpt lat="48.41486" lon="2.48965">
        <ele>94.6</ele>
        <time>2020-06-06T08:37:47Z</time>
      </trkpt>
      <trkpt lat="48.41485" lon="2.48972">
        <ele>94.8</ele>
        <time>2020-06-06T08:37:49Z</time>
      </trkpt>
      <trkpt lat="48.41484" lon="2.4898">
        <ele>95.1</ele>
        <time>2020-06-06T08:37:51Z</time>
      </trkpt>
      <trkpt lat="48.41483" lon="2.48988">
        <ele>95.3</ele>
        <time>2020-06-06T08:37:53Z</time>
      </trkpt>
      <trkpt lat="48.41479" lon="2.48995">
        <ele>95</ele>
        <time>2020-06-06T08:37:55Z</time>
      </trkpt>
      <trkpt lat="48.41478" lon="2.49003">
        <ele>95.1</ele>
        <time>2020-06-06T08:37:57Z</time>
      </trkpt>
      <trkpt lat="48.41475" lon="2.49011">
        <ele>94.5</ele>
        <time>2020-06-06T08:37:59Z</time>
      </trkpt>
      <trkpt lat="48.41472" lon="2.49017">
        <ele>94</ele>
        <time>2020-06-06T08:38:01Z</time>
      </trkpt>
      <trkpt lat="48.41469" lon="2.49031">
        <ele>94.3</ele>
        <time>2020-06-06T08:38:05Z</time>
      </trkpt>
      <trkpt lat="48.41468" lon="2.49039">
        <ele>94.4</ele>
        <time>2020-06-06T08:38:07Z</time>
      </trkpt>
      <trkpt lat="48.41466" lon="2.49047">
        <ele>94.5</ele>
        <time>2020-06-06T08:38:09Z</time>
      </trkpt>
      <trkpt lat="48.41466" lon="2.49055">
        <ele>94.5</ele>
        <time>2020-06-06T08:38:11Z</time>
      </trkpt>
      <trkpt lat="48.41466" lon="2.49062">
        <ele>94.6</ele>
        <time>2020-06-06T08:38:13Z</time>
      </trkpt>
      <trkpt lat="48.41467" lon="2.4907">
        <ele>94.7</ele>
        <time>2020-06-06T08:38:15Z</time>
      </trkpt>
      <trkpt lat="48.41466" lon="2.49077">
        <ele>94.9</ele>
        <time>2020-06-06T08:38:17Z</time>
      </trkpt>
      <trkpt lat="48.41462" lon="2.49093">
        <ele>95.4</ele>
        <time>2020-06-06T08:38:21Z</time>
      </trkpt>
      <trkpt lat="48.41461" lon="2.49101">
        <ele>95.8</ele>
        <time>2020-06-06T08:38:23Z</time>
      </trkpt>
      <trkpt lat="48.4146" lon="2.49114">
        <ele>96.2</ele>
        <time>2020-06-06T08:38:27Z</time>
      </trkpt>
      <trkpt lat="48.41459" lon="2.49121">
        <ele>96.2</ele>
        <time>2020-06-06T08:38:29Z</time>
      </trkpt>
      <trkpt lat="48.41458" lon="2.49129">
        <ele>96.3</ele>
        <time>2020-06-06T08:38:31Z</time>
      </trkpt>
      <trkpt lat="48.41457" lon="2.49139">
        <ele>96.4</ele>
        <time>2020-06-06T08:38:33Z</time>
      </trkpt>
      <trkpt lat="48.41456" lon="2.49147">
        <ele>96.4</ele>
        <time>2020-06-06T08:38:35Z</time>
      </trkpt>
      <trkpt lat="48.41455" lon="2.49156">
        <ele>96.4</ele>
        <time>2020-06-06T08:38:37Z</time>
      </trkpt>
      <trkpt lat="48.41452" lon="2.4917">
        <ele>96.1</ele>
        <time>2020-06-06T08:38:41Z</time>
      </trkpt>
      <trkpt lat="48.41452" lon="2.49179">
        <ele>96.2</ele>
        <time>2020-06-06T08:38:43Z</time>
      </trkpt>
      <trkpt lat="48.41451" lon="2.49187">
        <ele>96.1</ele>
        <time>2020-06-06T08:38:45Z</time>
      </trkpt>
      <trkpt lat="48.41449" lon="2.49196">
        <ele>95.9</ele>
        <time>2020-06-06T08:38:47Z</time>
      </trkpt>
      <trkpt lat="48.41448" lon="2.49204">
        <ele>96</ele>
        <time>2020-06-06T08:38:49Z</time>
      </trkpt>
      <trkpt lat="48.41448" lon="2.49211">
        <ele>96.2</ele>
        <time>2020-06-06T08:38:51Z</time>
      </trkpt>
      <trkpt lat="48.41447" lon="2.4922">
        <ele>96.4</ele>
        <time>2020-06-06T08:38:53Z</time>
      </trkpt>
      <trkpt lat="48.41447" lon="2.49228">
        <ele>96.7</ele>
        <time>2020-06-06T08:38:55Z</time>
      </trkpt>
      <trkpt lat="48.41446" lon="2.49236">
        <ele>96.8</ele>
        <time>2020-06-06T08:38:57Z</time>
      </trkpt>
      <trkpt lat="48.41444" lon="2.49242">
        <ele>96.7</ele>
        <time>2020-06-06T08:38:59Z</time>
      </trkpt>
      <trkpt lat="48.41442" lon="2.49252">
        <ele>97.2</ele>
        <time>2020-06-06T08:39:03Z</time>
      </trkpt>
      <trkpt lat="48.41442" lon="2.4926">
        <ele>97.2</ele>
        <time>2020-06-06T08:39:07Z</time>
      </trkpt>
      <trkpt lat="48.41441" lon="2.49267">
        <ele>97.2</ele>
        <time>2020-06-06T08:39:09Z</time>
      </trkpt>
      <trkpt lat="48.41439" lon="2.49281">
        <ele>97.6</ele>
        <time>2020-06-06T08:39:13Z</time>
      </trkpt>
      <trkpt lat="48.4144" lon="2.49288">
        <ele>98</ele>
        <time>2020-06-06T08:39:15Z</time>
      </trkpt>
      <trkpt lat="48.41439" lon="2.49296">
        <ele>98.6</ele>
        <time>2020-06-06T08:39:17Z</time>
      </trkpt>
      <trkpt lat="48.4144" lon="2.49308">
        <ele>99.2</ele>
        <time>2020-06-06T08:39:21Z</time>
      </trkpt>
      <trkpt lat="48.41438" lon="2.49319">
        <ele>99.6</ele>
        <time>2020-06-06T08:39:25Z</time>
      </trkpt>
      <trkpt lat="48.41436" lon="2.49326">
        <ele>99.8</ele>
        <time>2020-06-06T08:39:27Z</time>
      </trkpt>
      <trkpt lat="48.41434" lon="2.49334">
        <ele>100</ele>
        <time>2020-06-06T08:39:29Z</time>
      </trkpt>
      <trkpt lat="48.41432" lon="2.49342">
        <ele>100.3</ele>
        <time>2020-06-06T08:39:31Z</time>
      </trkpt>
      <trkpt lat="48.41431" lon="2.4935">
        <ele>100.6</ele>
        <time>2020-06-06T08:39:33Z</time>
      </trkpt>
      <trkpt lat="48.41429" lon="2.49358">
        <ele>100.9</ele>
        <time>2020-06-06T08:39:35Z</time>
      </trkpt>
      <trkpt lat="48.41427" lon="2.49372">
        <ele>101.5</ele>
        <time>2020-06-06T08:39:39Z</time>
      </trkpt>
      <trkpt lat="48.41426" lon="2.49379">
        <ele>101.9</ele>
        <time>2020-06-06T08:39:41Z</time>
      </trkpt>
      <trkpt lat="48.41424" lon="2.49385">
        <ele>102.1</ele>
        <time>2020-06-06T08:39:43Z</time>
      </trkpt>
      <trkpt lat="48.41422" lon="2.49397">
        <ele>102.3</ele>
        <time>2020-06-06T08:39:47Z</time>
      </trkpt>
      <trkpt lat="48.4142" lon="2.49404">
        <ele>102.3</ele>
        <time>2020-06-06T08:39:49Z</time>
      </trkpt>
      <trkpt lat="48.41418" lon="2.49413">
        <ele>102.1</ele>
        <time>2020-06-06T08:39:51Z</time>
      </trkpt>
      <trkpt lat="48.41417" lon="2.49421">
        <ele>102.2</ele>
        <time>2020-06-06T08:39:53Z</time>
      </trkpt>
      <trkpt lat="48.41416" lon="2.49429">
        <ele>102.6</ele>
        <time>2020-06-06T08:39:55Z</time>
      </trkpt>
      <trkpt lat="48.41415" lon="2.49439">
        <ele>103.1</ele>
        <time>2020-06-06T08:39:57Z</time>
      </trkpt>
      <trkpt lat="48.41414" lon="2.49448">
        <ele>103.5</ele>
        <time>2020-06-06T08:39:59Z</time>
      </trkpt>
      <trkpt lat="48.41412" lon="2.49457">
        <ele>104</ele>
        <time>2020-06-06T08:40:01Z</time>
      </trkpt>
      <trkpt lat="48.41412" lon="2.49465">
        <ele>104.3</ele>
        <time>2020-06-06T08:40:03Z</time>
      </trkpt>
      <trkpt lat="48.41409" lon="2.49472">
        <ele>104.8</ele>
        <time>2020-06-06T08:40:05Z</time>
      </trkpt>
      <trkpt lat="48.41407" lon="2.49479">
        <ele>105.4</ele>
        <time>2020-06-06T08:40:07Z</time>
      </trkpt>
      <trkpt lat="48.41407" lon="2.49486">
        <ele>105.7</ele>
        <time>2020-06-06T08:40:09Z</time>
      </trkpt>
      <trkpt lat="48.41407" lon="2.49493">
        <ele>106</ele>
        <time>2020-06-06T08:40:11Z</time>
      </trkpt>
      <trkpt lat="48.41408" lon="2.495">
        <ele>106.3</ele>
        <time>2020-06-06T08:40:13Z</time>
      </trkpt>
      <trkpt lat="48.41407" lon="2.49508">
        <ele>106.8</ele>
        <time>2020-06-06T08:40:15Z</time>
      </trkpt>
      <trkpt lat="48.41407" lon="2.49515">
        <ele>107.2</ele>
        <time>2020-06-06T08:40:17Z</time>
      </trkpt>
      <trkpt lat="48.41406" lon="2.49523">
        <ele>107.7</ele>
        <time>2020-06-06T08:40:19Z</time>
      </trkpt>
      <trkpt lat="48.41406" lon="2.4953">
        <ele>108.2</ele>
        <time>2020-06-06T08:40:21Z</time>
      </trkpt>
      <trkpt lat="48.41408" lon="2.49543">
        <ele>109.1</ele>
        <time>2020-06-06T08:40:25Z</time>
      </trkpt>
      <trkpt lat="48.41409" lon="2.49557">
        <ele>110.1</ele>
        <time>2020-06-06T08:40:29Z</time>
      </trkpt>
      <trkpt lat="48.41409" lon="2.49565">
        <ele>110.4</ele>
        <time>2020-06-06T08:40:31Z</time>
      </trkpt>
      <trkpt lat="48.41409" lon="2.49579">
        <ele>111.1</ele>
        <time>2020-06-06T08:40:35Z</time>
      </trkpt>
      <trkpt lat="48.4141" lon="2.49586">
        <ele>111.5</ele>
        <time>2020-06-06T08:40:37Z</time>
      </trkpt>
      <trkpt lat="48.41412" lon="2.49593">
        <ele>111.9</ele>
        <time>2020-06-06T08:40:39Z</time>
      </trkpt>
      <trkpt lat="48.41413" lon="2.496">
        <ele>112.4</ele>
        <time>2020-06-06T08:40:41Z</time>
      </trkpt>
      <trkpt lat="48.41413" lon="2.49613">
        <ele>113.3</ele>
        <time>2020-06-06T08:40:45Z</time>
      </trkpt>
      <trkpt lat="48.41415" lon="2.49627">
        <ele>113.8</ele>
        <time>2020-06-06T08:40:49Z</time>
      </trkpt>
      <trkpt lat="48.41415" lon="2.49639">
        <ele>114.2</ele>
        <time>2020-06-06T08:40:53Z</time>
      </trkpt>
      <trkpt lat="48.41415" lon="2.49651">
        <ele>114.7</ele>
        <time>2020-06-06T08:40:57Z</time>
      </trkpt>
      <trkpt lat="48.41416" lon="2.49662">
        <ele>114.9</ele>
        <time>2020-06-06T08:41:01Z</time>
      </trkpt>
      <trkpt lat="48.41417" lon="2.49671">
        <ele>115.5</ele>
        <time>2020-06-06T08:41:05Z</time>
      </trkpt>
      <trkpt lat="48.41418" lon="2.4968">
        <ele>116.6</ele>
        <time>2020-06-06T08:41:09Z</time>
      </trkpt>
      <trkpt lat="48.41417" lon="2.49686">
        <ele>117.1</ele>
        <time>2020-06-06T08:41:13Z</time>
      </trkpt>
      <trkpt lat="48.41419" lon="2.49695">
        <ele>118.3</ele>
        <time>2020-06-06T08:41:17Z</time>
      </trkpt>
      <trkpt lat="48.41421" lon="2.49702">
        <ele>119</ele>
        <time>2020-06-06T08:41:21Z</time>
      </trkpt>
      <trkpt lat="48.41423" lon="2.49712">
        <ele>119.9</ele>
        <time>2020-06-06T08:41:27Z</time>
      </trkpt>
      <trkpt lat="48.41425" lon="2.4972">
        <ele>120.7</ele>
        <time>2020-06-06T08:41:31Z</time>
      </trkpt>
      <trkpt lat="48.41425" lon="2.49728">
        <ele>121.3</ele>
        <time>2020-06-06T08:41:35Z</time>
      </trkpt>
      <trkpt lat="48.41425" lon="2.49737">
        <ele>121.8</ele>
        <time>2020-06-06T08:41:39Z</time>
      </trkpt>
      <trkpt lat="48.41425" lon="2.49747">
        <ele>122.4</ele>
        <time>2020-06-06T08:41:43Z</time>
      </trkpt>
      <trkpt lat="48.41425" lon="2.49756">
        <ele>122.7</ele>
        <time>2020-06-06T08:41:47Z</time>
      </trkpt>
      <trkpt lat="48.41426" lon="2.49765">
        <ele>122.9</ele>
        <time>2020-06-06T08:41:51Z</time>
      </trkpt>
      <trkpt lat="48.41428" lon="2.49773">
        <ele>123.2</ele>
        <time>2020-06-06T08:41:55Z</time>
      </trkpt>
      <trkpt lat="48.41429" lon="2.4978">
        <ele>123.1</ele>
        <time>2020-06-06T08:41:59Z</time>
      </trkpt>
      <trkpt lat="48.41431" lon="2.49787">
        <ele>122.7</ele>
        <time>2020-06-06T08:45:23Z</time>
      </trkpt>
      <trkpt lat="48.41436" lon="2.49792">
        <ele>123.1</ele>
        <time>2020-06-06T08:45:29Z</time>
      </trkpt>
      <trkpt lat="48.4144" lon="2.49795">
        <ele>123.6</ele>
        <time>2020-06-06T08:45:33Z</time>
      </trkpt>
      <trkpt lat="48.41445" lon="2.49798">
        <ele>124.3</ele>
        <time>2020-06-06T08:45:37Z</time>
      </trkpt>
      <trkpt lat="48.41449" lon="2.49802">
        <ele>124.6</ele>
        <time>2020-06-06T08:45:41Z</time>
      </trkpt>
      <trkpt lat="48.41455" lon="2.49809">
        <ele>124.9</ele>
        <time>2020-06-06T08:45:45Z</time>
      </trkpt>
      <trkpt lat="48.41459" lon="2.49815">
        <ele>125.1</ele>
        <time>2020-06-06T08:45:49Z</time>
      </trkpt>
      <trkpt lat="48.41466" lon="2.49821">
        <ele>125.6</ele>
        <time>2020-06-06T08:45:53Z</time>
      </trkpt>
      <trkpt lat="48.4147" lon="2.49825">
        <ele>126</ele>
        <time>2020-06-06T08:45:55Z</time>
      </trkpt>
      <trkpt lat="48.41477" lon="2.49832">
        <ele>126.2</ele>
        <time>2020-06-06T08:45:59Z</time>
      </trkpt>
      <trkpt lat="48.41484" lon="2.49836">
        <ele>126.3</ele>
        <time>2020-06-06T08:46:03Z</time>
      </trkpt>
      <trkpt lat="48.4149" lon="2.49836">
        <ele>126.5</ele>
        <time>2020-06-06T08:46:07Z</time>
      </trkpt>
      <trkpt lat="48.41497" lon="2.49836">
        <ele>126.8</ele>
        <time>2020-06-06T08:46:11Z</time>
      </trkpt>
      <trkpt lat="48.41504" lon="2.49835">
        <ele>126.8</ele>
        <time>2020-06-06T08:46:15Z</time>
      </trkpt>
      <trkpt lat="48.4151" lon="2.49835">
        <ele>126.6</ele>
        <time>2020-06-06T08:46:19Z</time>
      </trkpt>
      <trkpt lat="48.41516" lon="2.49837">
        <ele>126.4</ele>
        <time>2020-06-06T08:46:27Z</time>
      </trkpt>
      <trkpt lat="48.41525" lon="2.49839">
        <ele>126.1</ele>
        <time>2020-06-06T08:46:31Z</time>
      </trkpt>
      <trkpt lat="48.41531" lon="2.49842">
        <ele>125.8</ele>
        <time>2020-06-06T08:46:33Z</time>
      </trkpt>
      <trkpt lat="48.41539" lon="2.49843">
        <ele>125.3</ele>
        <time>2020-06-06T08:46:35Z</time>
      </trkpt>
      <trkpt lat="48.41546" lon="2.49843">
        <ele>124.9</ele>
        <time>2020-06-06T08:46:37Z</time>
      </trkpt>
      <trkpt lat="48.41554" lon="2.49845">
        <ele>124.3</ele>
        <time>2020-06-06T08:46:39Z</time>
      </trkpt>
      <trkpt lat="48.41562" lon="2.49847">
        <ele>123.9</ele>
        <time>2020-06-06T08:46:41Z</time>
      </trkpt>
      <trkpt lat="48.41568" lon="2.49845">
        <ele>124</ele>
        <time>2020-06-06T08:46:43Z</time>
      </trkpt>
      <trkpt lat="48.41576" lon="2.49846">
        <ele>123.8</ele>
        <time>2020-06-06T08:46:45Z</time>
      </trkpt>
      <trkpt lat="48.41581" lon="2.49847">
        <ele>123.6</ele>
        <time>2020-06-06T08:46:47Z</time>
      </trkpt>
      <trkpt lat="48.41588" lon="2.4985">
        <ele>123.3</ele>
        <time>2020-06-06T08:46:49Z</time>
      </trkpt>
      <trkpt lat="48.41598" lon="2.49853">
        <ele>123.2</ele>
        <time>2020-06-06T08:46:51Z</time>
      </trkpt>
      <trkpt lat="48.41606" lon="2.49859">
        <ele>123</ele>
        <time>2020-06-06T08:46:53Z</time>
      </trkpt>
      <trkpt lat="48.41615" lon="2.49863">
        <ele>122.8</ele>
        <time>2020-06-06T08:46:55Z</time>
      </trkpt>
      <trkpt lat="48.41621" lon="2.49867">
        <ele>122.4</ele>
        <time>2020-06-06T08:46:57Z</time>
      </trkpt>
      <trkpt lat="48.41626" lon="2.49872">
        <ele>122</ele>
        <time>2020-06-06T08:46:59Z</time>
      </trkpt>
      <trkpt lat="48.41634" lon="2.49877">
        <ele>121.9</ele>
        <time>2020-06-06T08:47:01Z</time>
      </trkpt>
      <trkpt lat="48.41643" lon="2.49883">
        <ele>121.9</ele>
        <time>2020-06-06T08:47:03Z</time>
      </trkpt>
      <trkpt lat="48.41651" lon="2.49891">
        <ele>121.6</ele>
        <time>2020-06-06T08:47:05Z</time>
      </trkpt>
      <trkpt lat="48.41658" lon="2.49896">
        <ele>121.6</ele>
        <time>2020-06-06T08:47:07Z</time>
      </trkpt>
      <trkpt lat="48.41666" lon="2.49904">
        <ele>121.8</ele>
        <time>2020-06-06T08:47:09Z</time>
      </trkpt>
      <trkpt lat="48.41672" lon="2.49912">
        <ele>121.7</ele>
        <time>2020-06-06T08:47:11Z</time>
      </trkpt>
      <trkpt lat="48.41679" lon="2.49922">
        <ele>121.4</ele>
        <time>2020-06-06T08:47:13Z</time>
      </trkpt>
      <trkpt lat="48.41684" lon="2.49933">
        <ele>121</ele>
        <time>2020-06-06T08:47:15Z</time>
      </trkpt>
      <trkpt lat="48.4169" lon="2.49944">
        <ele>121.2</ele>
        <time>2020-06-06T08:47:17Z</time>
      </trkpt>
      <trkpt lat="48.41695" lon="2.49954">
        <ele>121.7</ele>
        <time>2020-06-06T08:47:19Z</time>
      </trkpt>
      <trkpt lat="48.417" lon="2.49965">
        <ele>121.6</ele>
        <time>2020-06-06T08:47:21Z</time>
      </trkpt>
      <trkpt lat="48.41705" lon="2.49978">
        <ele>121.5</ele>
        <time>2020-06-06T08:47:23Z</time>
      </trkpt>
      <trkpt lat="48.4171" lon="2.49989">
        <ele>121.6</ele>
        <time>2020-06-06T08:47:25Z</time>
      </trkpt>
      <trkpt lat="48.41716" lon="2.49999">
        <ele>122.1</ele>
        <time>2020-06-06T08:47:27Z</time>
      </trkpt>
      <trkpt lat="48.41719" lon="2.5001">
        <ele>122.2</ele>
        <time>2020-06-06T08:47:29Z</time>
      </trkpt>
      <trkpt lat="48.41724" lon="2.50021">
        <ele>122.2</ele>
        <time>2020-06-06T08:47:31Z</time>
      </trkpt>
      <trkpt lat="48.41729" lon="2.5003">
        <ele>122</ele>
        <time>2020-06-06T08:47:33Z</time>
      </trkpt>
      <trkpt lat="48.41734" lon="2.5004">
        <ele>122</ele>
        <time>2020-06-06T08:47:35Z</time>
      </trkpt>
      <trkpt lat="48.41739" lon="2.50051">
        <ele>122</ele>
        <time>2020-06-06T08:47:37Z</time>
      </trkpt>
      <trkpt lat="48.41745" lon="2.5006">
        <ele>122</ele>
        <time>2020-06-06T08:47:39Z</time>
      </trkpt>
      <trkpt lat="48.41749" lon="2.50071">
        <ele>122</ele>
        <time>2020-06-06T08:47:41Z</time>
      </trkpt>
      <trkpt lat="48.41752" lon="2.50082">
        <ele>122</ele>
        <time>2020-06-06T08:47:43Z</time>
      </trkpt>
      <trkpt lat="48.41753" lon="2.50094">
        <ele>122</ele>
        <time>2020-06-06T08:47:45Z</time>
      </trkpt>
      <trkpt lat="48.41753" lon="2.50106">
        <ele>122</ele>
        <time>2020-06-06T08:47:47Z</time>
      </trkpt>
      <trkpt lat="48.4175" lon="2.50117">
        <ele>122</ele>
        <time>2020-06-06T08:47:49Z</time>
      </trkpt>
      <trkpt lat="48.41749" lon="2.50129">
        <ele>122</ele>
        <time>2020-06-06T08:47:51Z</time>
      </trkpt>
      <trkpt lat="48.41745" lon="2.5014">
        <ele>122.2</ele>
        <time>2020-06-06T08:47:53Z</time>
      </trkpt>
      <trkpt lat="48.41742" lon="2.50152">
        <ele>122.6</ele>
        <time>2020-06-06T08:47:55Z</time>
      </trkpt>
      <trkpt lat="48.41743" lon="2.50165">
        <ele>123</ele>
        <time>2020-06-06T08:47:57Z</time>
      </trkpt>
      <trkpt lat="48.41744" lon="2.50179">
        <ele>123</ele>
        <time>2020-06-06T08:47:59Z</time>
      </trkpt>
      <trkpt lat="48.41751" lon="2.50188">
        <ele>123</ele>
        <time>2020-06-06T08:48:01Z</time>
      </trkpt>
      <trkpt lat="48.41758" lon="2.50196">
        <ele>123</ele>
        <time>2020-06-06T08:48:03Z</time>
      </trkpt>
      <trkpt lat="48.41766" lon="2.50202">
        <ele>123</ele>
        <time>2020-06-06T08:48:05Z</time>
      </trkpt>
      <trkpt lat="48.41774" lon="2.50208">
        <ele>123</ele>
        <time>2020-06-06T08:48:07Z</time>
      </trkpt>
      <trkpt lat="48.41781" lon="2.50213">
        <ele>123</ele>
        <time>2020-06-06T08:48:09Z</time>
      </trkpt>
      <trkpt lat="48.41788" lon="2.50218">
        <ele>122.9</ele>
        <time>2020-06-06T08:48:11Z</time>
      </trkpt>
      <trkpt lat="48.41796" lon="2.50219">
        <ele>122.9</ele>
        <time>2020-06-06T08:48:13Z</time>
      </trkpt>
      <trkpt lat="48.41805" lon="2.50217">
        <ele>122.8</ele>
        <time>2020-06-06T08:48:15Z</time>
      </trkpt>
      <trkpt lat="48.41813" lon="2.50214">
        <ele>122.7</ele>
        <time>2020-06-06T08:48:17Z</time>
      </trkpt>
      <trkpt lat="48.41821" lon="2.5021">
        <ele>122.6</ele>
        <time>2020-06-06T08:48:19Z</time>
      </trkpt>
      <trkpt lat="48.41829" lon="2.50208">
        <ele>122.5</ele>
        <time>2020-06-06T08:48:21Z</time>
      </trkpt>
      <trkpt lat="48.41837" lon="2.50206">
        <ele>122.4</ele>
        <time>2020-06-06T08:48:23Z</time>
      </trkpt>
      <trkpt lat="48.41844" lon="2.50203">
        <ele>122.2</ele>
        <time>2020-06-06T08:48:25Z</time>
      </trkpt>
      <trkpt lat="48.41852" lon="2.50198">
        <ele>122</ele>
        <time>2020-06-06T08:48:27Z</time>
      </trkpt>
      <trkpt lat="48.4186" lon="2.5019">
        <ele>122</ele>
        <time>2020-06-06T08:48:29Z</time>
      </trkpt>
      <trkpt lat="48.41867" lon="2.50182">
        <ele>122</ele>
        <time>2020-06-06T08:48:31Z</time>
      </trkpt>
      <trkpt lat="48.41873" lon="2.50172">
        <ele>122</ele>
        <time>2020-06-06T08:48:33Z</time>
      </trkpt>
      <trkpt lat="48.41879" lon="2.50161">
        <ele>122</ele>
        <time>2020-06-06T08:48:35Z</time>
      </trkpt>
      <trkpt lat="48.41883" lon="2.50148">
        <ele>122</ele>
        <time>2020-06-06T08:48:37Z</time>
      </trkpt>
      <trkpt lat="48.41889" lon="2.50137">
        <ele>121.9</ele>
        <time>2020-06-06T08:48:39Z</time>
      </trkpt>
      <trkpt lat="48.41896" lon="2.50127">
        <ele>121.7</ele>
        <time>2020-06-06T08:48:41Z</time>
      </trkpt>
      <trkpt lat="48.41903" lon="2.50117">
        <ele>121.6</ele>
        <time>2020-06-06T08:48:43Z</time>
      </trkpt>
      <trkpt lat="48.41911" lon="2.5011">
        <ele>121.8</ele>
        <time>2020-06-06T08:48:45Z</time>
      </trkpt>
      <trkpt lat="48.41922" lon="2.50107">
        <ele>121.9</ele>
        <time>2020-06-06T08:48:47Z</time>
      </trkpt>
      <trkpt lat="48.41931" lon="2.50103">
        <ele>121.7</ele>
        <time>2020-06-06T08:48:49Z</time>
      </trkpt>
      <trkpt lat="48.41939" lon="2.50095">
        <ele>121.4</ele>
        <time>2020-06-06T08:48:51Z</time>
      </trkpt>
      <trkpt lat="48.41944" lon="2.50084">
        <ele>121</ele>
        <time>2020-06-06T08:48:53Z</time>
      </trkpt>
      <trkpt lat="48.41949" lon="2.50073">
        <ele>121</ele>
        <time>2020-06-06T08:48:55Z</time>
      </trkpt>
      <trkpt lat="48.41954" lon="2.50061">
        <ele>121</ele>
        <time>2020-06-06T08:48:57Z</time>
      </trkpt>
      <trkpt lat="48.41959" lon="2.5005">
        <ele>121</ele>
        <time>2020-06-06T08:48:59Z</time>
      </trkpt>
      <trkpt lat="48.41963" lon="2.50038">
        <ele>121</ele>
        <time>2020-06-06T08:49:01Z</time>
      </trkpt>
      <trkpt lat="48.41966" lon="2.50025">
        <ele>121</ele>
        <time>2020-06-06T08:49:03Z</time>
      </trkpt>
      <trkpt lat="48.41968" lon="2.50014">
        <ele>121</ele>
        <time>2020-06-06T08:49:05Z</time>
      </trkpt>
      <trkpt lat="48.4197" lon="2.50003">
        <ele>121</ele>
        <time>2020-06-06T08:49:07Z</time>
      </trkpt>
      <trkpt lat="48.41973" lon="2.49994">
        <ele>121</ele>
        <time>2020-06-06T08:49:09Z</time>
      </trkpt>
      <trkpt lat="48.41976" lon="2.49985">
        <ele>120.9</ele>
        <time>2020-06-06T08:49:11Z</time>
      </trkpt>
      <trkpt lat="48.41977" lon="2.49976">
        <ele>120.8</ele>
        <time>2020-06-06T08:49:13Z</time>
      </trkpt>
      <trkpt lat="48.4198" lon="2.49968">
        <ele>120.7</ele>
        <time>2020-06-06T08:49:15Z</time>
      </trkpt>
      <trkpt lat="48.41983" lon="2.4996">
        <ele>120.6</ele>
        <time>2020-06-06T08:49:17Z</time>
      </trkpt>
      <trkpt lat="48.41986" lon="2.4995">
        <ele>120.5</ele>
        <time>2020-06-06T08:49:19Z</time>
      </trkpt>
      <trkpt lat="48.41988" lon="2.4994">
        <ele>120.5</ele>
        <time>2020-06-06T08:49:21Z</time>
      </trkpt>
      <trkpt lat="48.41988" lon="2.49929">
        <ele>120.7</ele>
        <time>2020-06-06T08:49:23Z</time>
      </trkpt>
      <trkpt lat="48.41985" lon="2.49921">
        <ele>120.9</ele>
        <time>2020-06-06T08:49:25Z</time>
      </trkpt>
      <trkpt lat="48.41986" lon="2.49914">
        <ele>121</ele>
        <time>2020-06-06T08:49:27Z</time>
      </trkpt>
      <trkpt lat="48.41985" lon="2.49907">
        <ele>121</ele>
        <time>2020-06-06T08:49:29Z</time>
      </trkpt>
      <trkpt lat="48.41986" lon="2.499">
        <ele>121</ele>
        <time>2020-06-06T08:49:31Z</time>
      </trkpt>
      <trkpt lat="48.41989" lon="2.49892">
        <ele>121</ele>
        <time>2020-06-06T08:49:33Z</time>
      </trkpt>
      <trkpt lat="48.41991" lon="2.49882">
        <ele>121.1</ele>
        <time>2020-06-06T08:49:35Z</time>
      </trkpt>
      <trkpt lat="48.41992" lon="2.4987">
        <ele>121.2</ele>
        <time>2020-06-06T08:49:37Z</time>
      </trkpt>
      <trkpt lat="48.41994" lon="2.49858">
        <ele>121.2</ele>
        <time>2020-06-06T08:49:39Z</time>
      </trkpt>
      <trkpt lat="48.41995" lon="2.49846">
        <ele>121.1</ele>
        <time>2020-06-06T08:49:41Z</time>
      </trkpt>
      <trkpt lat="48.41998" lon="2.49834">
        <ele>121</ele>
        <time>2020-06-06T08:49:43Z</time>
      </trkpt>
      <trkpt lat="48.42" lon="2.49824">
        <ele>121</ele>
        <time>2020-06-06T08:49:45Z</time>
      </trkpt>
      <trkpt lat="48.42002" lon="2.49813">
        <ele>120.9</ele>
        <time>2020-06-06T08:49:47Z</time>
      </trkpt>
      <trkpt lat="48.42002" lon="2.49802">
        <ele>120.9</ele>
        <time>2020-06-06T08:49:49Z</time>
      </trkpt>
      <trkpt lat="48.42003" lon="2.4979">
        <ele>120.9</ele>
        <time>2020-06-06T08:49:51Z</time>
      </trkpt>
      <trkpt lat="48.42004" lon="2.49777">
        <ele>120.9</ele>
        <time>2020-06-06T08:49:53Z</time>
      </trkpt>
      <trkpt lat="48.42005" lon="2.49764">
        <ele>120.8</ele>
        <time>2020-06-06T08:49:55Z</time>
      </trkpt>
      <trkpt lat="48.42008" lon="2.49752">
        <ele>120.7</ele>
        <time>2020-06-06T08:49:57Z</time>
      </trkpt>
      <trkpt lat="48.42013" lon="2.49742">
        <ele>120.5</ele>
        <time>2020-06-06T08:49:59Z</time>
      </trkpt>
      <trkpt lat="48.42021" lon="2.49736">
        <ele>120.2</ele>
        <time>2020-06-06T08:50:01Z</time>
      </trkpt>
      <trkpt lat="48.4203" lon="2.49733">
        <ele>120</ele>
        <time>2020-06-06T08:50:03Z</time>
      </trkpt>
      <trkpt lat="48.42038" lon="2.49733">
        <ele>120</ele>
        <time>2020-06-06T08:50:05Z</time>
      </trkpt>
      <trkpt lat="48.42046" lon="2.49734">
        <ele>120</ele>
        <time>2020-06-06T08:50:07Z</time>
      </trkpt>
      <trkpt lat="48.42054" lon="2.49735">
        <ele>120</ele>
        <time>2020-06-06T08:50:09Z</time>
      </trkpt>
      <trkpt lat="48.42062" lon="2.49737">
        <ele>120</ele>
        <time>2020-06-06T08:50:11Z</time>
      </trkpt>
      <trkpt lat="48.42071" lon="2.49737">
        <ele>120</ele>
        <time>2020-06-06T08:50:13Z</time>
      </trkpt>
      <trkpt lat="48.4208" lon="2.49738">
        <ele>120</ele>
        <time>2020-06-06T08:50:15Z</time>
      </trkpt>
      <trkpt lat="48.4209" lon="2.49739">
        <ele>119.8</ele>
        <time>2020-06-06T08:50:17Z</time>
      </trkpt>
      <trkpt lat="48.42101" lon="2.49742">
        <ele>119.4</ele>
        <time>2020-06-06T08:50:19Z</time>
      </trkpt>
      <trkpt lat="48.42109" lon="2.49747">
        <ele>119.1</ele>
        <time>2020-06-06T08:50:21Z</time>
      </trkpt>
      <trkpt lat="48.42115" lon="2.49755">
        <ele>119</ele>
        <time>2020-06-06T08:50:23Z</time>
      </trkpt>
      <trkpt lat="48.4212" lon="2.4976">
        <ele>118.9</ele>
        <time>2020-06-06T08:50:25Z</time>
      </trkpt>
      <trkpt lat="48.42124" lon="2.49761">
        <ele>118.8</ele>
        <time>2020-06-06T08:50:27Z</time>
      </trkpt>
      <trkpt lat="48.42128" lon="2.49754">
        <ele>118.9</ele>
        <time>2020-06-06T08:50:29Z</time>
      </trkpt>
      <trkpt lat="48.4213" lon="2.49744">
        <ele>118.9</ele>
        <time>2020-06-06T08:50:31Z</time>
      </trkpt>
      <trkpt lat="48.42131" lon="2.49735">
        <ele>118.6</ele>
        <time>2020-06-06T08:50:33Z</time>
      </trkpt>
      <trkpt lat="48.42134" lon="2.49724">
        <ele>118.2</ele>
        <time>2020-06-06T08:50:35Z</time>
      </trkpt>
      <trkpt lat="48.42137" lon="2.49715">
        <ele>117.8</ele>
        <time>2020-06-06T08:50:37Z</time>
      </trkpt>
      <trkpt lat="48.4214" lon="2.49707">
        <ele>117.5</ele>
        <time>2020-06-06T08:50:39Z</time>
      </trkpt>
      <trkpt lat="48.42143" lon="2.49697">
        <ele>117.1</ele>
        <time>2020-06-06T08:50:41Z</time>
      </trkpt>
      <trkpt lat="48.42148" lon="2.49689">
        <ele>116.6</ele>
        <time>2020-06-06T08:50:43Z</time>
      </trkpt>
      <trkpt lat="48.42153" lon="2.49683">
        <ele>116</ele>
        <time>2020-06-06T08:50:45Z</time>
      </trkpt>
      <trkpt lat="48.42159" lon="2.49674">
        <ele>114.7</ele>
        <time>2020-06-06T08:50:47Z</time>
      </trkpt>
      <trkpt lat="48.42164" lon="2.4966">
        <ele>112.4</ele>
        <time>2020-06-06T08:50:49Z</time>
      </trkpt>
      <trkpt lat="48.42169" lon="2.49638">
        <ele>108.9</ele>
        <time>2020-06-06T08:50:51Z</time>
      </trkpt>
      <trkpt lat="48.42176" lon="2.49614">
        <ele>106.9</ele>
        <time>2020-06-06T08:50:53Z</time>
      </trkpt>
      <trkpt lat="48.42182" lon="2.4959">
        <ele>105.3</ele>
        <time>2020-06-06T08:50:55Z</time>
      </trkpt>
      <trkpt lat="48.42188" lon="2.49566">
        <ele>104.1</ele>
        <time>2020-06-06T08:50:57Z</time>
      </trkpt>
      <trkpt lat="48.42194" lon="2.49543">
        <ele>102.6</ele>
        <time>2020-06-06T08:50:59Z</time>
      </trkpt>
      <trkpt lat="48.422" lon="2.49523">
        <ele>102.8</ele>
        <time>2020-06-06T08:51:01Z</time>
      </trkpt>
      <trkpt lat="48.42205" lon="2.49503">
        <ele>103.5</ele>
        <time>2020-06-06T08:51:03Z</time>
      </trkpt>
      <trkpt lat="48.42205" lon="2.49484">
        <ele>103.1</ele>
        <time>2020-06-06T08:51:05Z</time>
      </trkpt>
      <trkpt lat="48.42205" lon="2.49465">
        <ele>102.2</ele>
        <time>2020-06-06T08:51:07Z</time>
      </trkpt>
      <trkpt lat="48.42206" lon="2.4945">
        <ele>101.2</ele>
        <time>2020-06-06T08:51:09Z</time>
      </trkpt>
      <trkpt lat="48.42209" lon="2.49443">
        <ele>100.9</ele>
        <time>2020-06-06T08:51:47Z</time>
      </trkpt>
      <trkpt lat="48.42211" lon="2.4943">
        <ele>99.8</ele>
        <time>2020-06-06T08:51:51Z</time>
      </trkpt>
      <trkpt lat="48.42212" lon="2.49421">
        <ele>99</ele>
        <time>2020-06-06T08:51:53Z</time>
      </trkpt>
      <trkpt lat="48.42213" lon="2.4941">
        <ele>97.6</ele>
        <time>2020-06-06T08:51:55Z</time>
      </trkpt>
      <trkpt lat="48.42213" lon="2.49399">
        <ele>95.9</ele>
        <time>2020-06-06T08:51:59Z</time>
      </trkpt>
      <trkpt lat="48.4221" lon="2.49393">
        <ele>94.8</ele>
        <time>2020-06-06T08:52:03Z</time>
      </trkpt>
      <trkpt lat="48.42211" lon="2.49386">
        <ele>93.8</ele>
        <time>2020-06-06T08:52:11Z</time>
      </trkpt>
      <trkpt lat="48.42211" lon="2.49378">
        <ele>92.8</ele>
        <time>2020-06-06T08:52:19Z</time>
      </trkpt>
      <trkpt lat="48.42214" lon="2.49363">
        <ele>91</ele>
        <time>2020-06-06T08:52:23Z</time>
      </trkpt>
      <trkpt lat="48.42217" lon="2.49354">
        <ele>90.3</ele>
        <time>2020-06-06T08:52:25Z</time>
      </trkpt>
      <trkpt lat="48.42219" lon="2.49345">
        <ele>89.7</ele>
        <time>2020-06-06T08:52:27Z</time>
      </trkpt>
      <trkpt lat="48.42219" lon="2.49336">
        <ele>89</ele>
        <time>2020-06-06T08:52:29Z</time>
      </trkpt>
      <trkpt lat="48.42218" lon="2.49326">
        <ele>88.2</ele>
        <time>2020-06-06T08:52:33Z</time>
      </trkpt>
      <trkpt lat="48.4222" lon="2.49311">
        <ele>87.3</ele>
        <time>2020-06-06T08:52:37Z</time>
      </trkpt>
      <trkpt lat="48.42221" lon="2.49303">
        <ele>86.8</ele>
        <time>2020-06-06T08:52:39Z</time>
      </trkpt>
      <trkpt lat="48.4222" lon="2.49294">
        <ele>86.1</ele>
        <time>2020-06-06T08:52:43Z</time>
      </trkpt>
      <trkpt lat="48.42221" lon="2.49287">
        <ele>85.6</ele>
        <time>2020-06-06T08:52:45Z</time>
      </trkpt>
      <trkpt lat="48.42217" lon="2.49274">
        <ele>84.9</ele>
        <time>2020-06-06T08:52:49Z</time>
      </trkpt>
      <trkpt lat="48.42214" lon="2.49263">
        <ele>84.6</ele>
        <time>2020-06-06T08:52:51Z</time>
      </trkpt>
      <trkpt lat="48.42215" lon="2.4925">
        <ele>84.3</ele>
        <time>2020-06-06T08:52:53Z</time>
      </trkpt>
      <trkpt lat="48.42218" lon="2.49238">
        <ele>83.9</ele>
        <time>2020-06-06T08:52:55Z</time>
      </trkpt>
      <trkpt lat="48.42225" lon="2.49228">
        <ele>83.1</ele>
        <time>2020-06-06T08:52:57Z</time>
      </trkpt>
      <trkpt lat="48.42231" lon="2.49217">
        <ele>82.6</ele>
        <time>2020-06-06T08:52:59Z</time>
      </trkpt>
      <trkpt lat="48.42236" lon="2.49205">
        <ele>82.2</ele>
        <time>2020-06-06T08:53:01Z</time>
      </trkpt>
      <trkpt lat="48.42242" lon="2.49194">
        <ele>81.6</ele>
        <time>2020-06-06T08:53:03Z</time>
      </trkpt>
      <trkpt lat="48.4225" lon="2.49185">
        <ele>81</ele>
        <time>2020-06-06T08:53:05Z</time>
      </trkpt>
      <trkpt lat="48.4226" lon="2.49177">
        <ele>80.4</ele>
        <time>2020-06-06T08:53:07Z</time>
      </trkpt>
      <trkpt lat="48.4227" lon="2.49171">
        <ele>79.7</ele>
        <time>2020-06-06T08:53:09Z</time>
      </trkpt>
      <trkpt lat="48.42281" lon="2.49165">
        <ele>79.1</ele>
        <time>2020-06-06T08:53:11Z</time>
      </trkpt>
      <trkpt lat="48.42293" lon="2.49162">
        <ele>79.2</ele>
        <time>2020-06-06T08:53:13Z</time>
      </trkpt>
      <trkpt lat="48.42304" lon="2.49162">
        <ele>79.2</ele>
        <time>2020-06-06T08:53:15Z</time>
      </trkpt>
      <trkpt lat="48.42314" lon="2.49162">
        <ele>79.2</ele>
        <time>2020-06-06T08:53:17Z</time>
      </trkpt>
      <trkpt lat="48.42325" lon="2.49159">
        <ele>79.3</ele>
        <time>2020-06-06T08:53:19Z</time>
      </trkpt>
      <trkpt lat="48.42335" lon="2.49153">
        <ele>79.4</ele>
        <time>2020-06-06T08:53:21Z</time>
      </trkpt>
      <trkpt lat="48.42346" lon="2.49147">
        <ele>79.3</ele>
        <time>2020-06-06T08:53:23Z</time>
      </trkpt>
      <trkpt lat="48.42356" lon="2.49143">
        <ele>79</ele>
        <time>2020-06-06T08:53:25Z</time>
      </trkpt>
      <trkpt lat="48.42367" lon="2.49136">
        <ele>78.7</ele>
        <time>2020-06-06T08:53:27Z</time>
      </trkpt>
      <trkpt lat="48.42374" lon="2.49125">
        <ele>78.3</ele>
        <time>2020-06-06T08:53:29Z</time>
      </trkpt>
      <trkpt lat="48.42381" lon="2.49115">
        <ele>77.8</ele>
        <time>2020-06-06T08:53:31Z</time>
      </trkpt>
      <trkpt lat="48.42385" lon="2.49107">
        <ele>77.6</ele>
        <time>2020-06-06T08:53:33Z</time>
      </trkpt>
      <trkpt lat="48.42391" lon="2.49099">
        <ele>77.3</ele>
        <time>2020-06-06T08:53:35Z</time>
      </trkpt>
      <trkpt lat="48.42397" lon="2.49092">
        <ele>77.2</ele>
        <time>2020-06-06T08:53:37Z</time>
      </trkpt>
      <trkpt lat="48.42404" lon="2.49084">
        <ele>76.9</ele>
        <time>2020-06-06T08:53:39Z</time>
      </trkpt>
      <trkpt lat="48.42411" lon="2.49076">
        <ele>76.5</ele>
        <time>2020-06-06T08:53:41Z</time>
      </trkpt>
      <trkpt lat="48.42416" lon="2.49068">
        <ele>76.1</ele>
        <time>2020-06-06T08:53:43Z</time>
      </trkpt>
      <trkpt lat="48.42424" lon="2.49061">
        <ele>75.7</ele>
        <time>2020-06-06T08:53:45Z</time>
      </trkpt>
      <trkpt lat="48.4243" lon="2.49054">
        <ele>75.6</ele>
        <time>2020-06-06T08:53:47Z</time>
      </trkpt>
      <trkpt lat="48.42438" lon="2.49049">
        <ele>75.3</ele>
        <time>2020-06-06T08:53:49Z</time>
      </trkpt>
      <trkpt lat="48.42444" lon="2.49047">
        <ele>75</ele>
        <time>2020-06-06T08:53:51Z</time>
      </trkpt>
      <trkpt lat="48.42451" lon="2.49043">
        <ele>74.8</ele>
        <time>2020-06-06T08:53:53Z</time>
      </trkpt>
      <trkpt lat="48.4246" lon="2.49038">
        <ele>74.4</ele>
        <time>2020-06-06T08:53:55Z</time>
      </trkpt>
      <trkpt lat="48.4247" lon="2.49033">
        <ele>74.1</ele>
        <time>2020-06-06T08:53:57Z</time>
      </trkpt>
      <trkpt lat="48.42478" lon="2.49029">
        <ele>73.8</ele>
        <time>2020-06-06T08:53:59Z</time>
      </trkpt>
      <trkpt lat="48.42488" lon="2.49026">
        <ele>73.4</ele>
        <time>2020-06-06T08:54:01Z</time>
      </trkpt>
      <trkpt lat="48.42495" lon="2.49029">
        <ele>73.2</ele>
        <time>2020-06-06T08:54:03Z</time>
      </trkpt>
      <trkpt lat="48.42503" lon="2.49032">
        <ele>73</ele>
        <time>2020-06-06T08:54:05Z</time>
      </trkpt>
      <trkpt lat="48.42511" lon="2.49035">
        <ele>73</ele>
        <time>2020-06-06T08:54:07Z</time>
      </trkpt>
      <trkpt lat="48.42521" lon="2.49038">
        <ele>73</ele>
        <time>2020-06-06T08:54:09Z</time>
      </trkpt>
      <trkpt lat="48.4253" lon="2.49041">
        <ele>73</ele>
        <time>2020-06-06T08:54:11Z</time>
      </trkpt>
      <trkpt lat="48.42541" lon="2.49047">
        <ele>72.7</ele>
        <time>2020-06-06T08:54:13Z</time>
      </trkpt>
      <trkpt lat="48.4255" lon="2.49052">
        <ele>72.3</ele>
        <time>2020-06-06T08:54:15Z</time>
      </trkpt>
      <trkpt lat="48.42557" lon="2.49062">
        <ele>72.1</ele>
        <time>2020-06-06T08:54:17Z</time>
      </trkpt>
      <trkpt lat="48.42564" lon="2.4907">
        <ele>72.3</ele>
        <time>2020-06-06T08:54:19Z</time>
      </trkpt>
      <trkpt lat="48.42569" lon="2.4908">
        <ele>72.5</ele>
        <time>2020-06-06T08:54:21Z</time>
      </trkpt>
      <trkpt lat="48.42572" lon="2.49091">
        <ele>72.6</ele>
        <time>2020-06-06T08:54:23Z</time>
      </trkpt>
      <trkpt lat="48.42573" lon="2.49102">
        <ele>72.6</ele>
        <time>2020-06-06T08:54:25Z</time>
      </trkpt>
      <trkpt lat="48.42569" lon="2.49114">
        <ele>72.5</ele>
        <time>2020-06-06T08:54:27Z</time>
      </trkpt>
      <trkpt lat="48.42566" lon="2.49128">
        <ele>72.4</ele>
        <time>2020-06-06T08:54:29Z</time>
      </trkpt>
      <trkpt lat="48.42565" lon="2.4914">
        <ele>72.3</ele>
        <time>2020-06-06T08:54:31Z</time>
      </trkpt>
      <trkpt lat="48.42562" lon="2.49156">
        <ele>72.1</ele>
        <time>2020-06-06T08:54:33Z</time>
      </trkpt>
      <trkpt lat="48.42559" lon="2.49169">
        <ele>72</ele>
        <time>2020-06-06T08:54:35Z</time>
      </trkpt>
      <trkpt lat="48.42558" lon="2.49182">
        <ele>72</ele>
        <time>2020-06-06T08:54:37Z</time>
      </trkpt>
      <trkpt lat="48.42557" lon="2.49194">
        <ele>72</ele>
        <time>2020-06-06T08:54:39Z</time>
      </trkpt>
      <trkpt lat="48.42556" lon="2.49206">
        <ele>72</ele>
        <time>2020-06-06T08:54:41Z</time>
      </trkpt>
      <trkpt lat="48.42554" lon="2.49218">
        <ele>72</ele>
        <time>2020-06-06T08:54:43Z</time>
      </trkpt>
      <trkpt lat="48.42551" lon="2.49228">
        <ele>72.2</ele>
        <time>2020-06-06T08:54:45Z</time>
      </trkpt>
      <trkpt lat="48.42549" lon="2.49239">
        <ele>72.2</ele>
        <time>2020-06-06T08:54:47Z</time>
      </trkpt>
      <trkpt lat="48.42548" lon="2.49253">
        <ele>72.4</ele>
        <time>2020-06-06T08:54:49Z</time>
      </trkpt>
      <trkpt lat="48.42546" lon="2.49265">
        <ele>72.7</ele>
        <time>2020-06-06T08:54:51Z</time>
      </trkpt>
      <trkpt lat="48.42545" lon="2.49277">
        <ele>73</ele>
        <time>2020-06-06T08:54:53Z</time>
      </trkpt>
      <trkpt lat="48.42543" lon="2.49289">
        <ele>73</ele>
        <time>2020-06-06T08:54:55Z</time>
      </trkpt>
      <trkpt lat="48.42544" lon="2.49299">
        <ele>73</ele>
        <time>2020-06-06T08:54:57Z</time>
      </trkpt>
      <trkpt lat="48.42542" lon="2.49312">
        <ele>73</ele>
        <time>2020-06-06T08:54:59Z</time>
      </trkpt>
      <trkpt lat="48.42539" lon="2.49325">
        <ele>73</ele>
        <time>2020-06-06T08:55:01Z</time>
      </trkpt>
      <trkpt lat="48.42537" lon="2.49336">
        <ele>73</ele>
        <time>2020-06-06T08:55:03Z</time>
      </trkpt>
      <trkpt lat="48.42531" lon="2.4935">
        <ele>73</ele>
        <time>2020-06-06T08:55:05Z</time>
      </trkpt>
      <trkpt lat="48.42528" lon="2.4936">
        <ele>73</ele>
        <time>2020-06-06T08:55:07Z</time>
      </trkpt>
      <trkpt lat="48.42526" lon="2.49373">
        <ele>73</ele>
        <time>2020-06-06T08:55:09Z</time>
      </trkpt>
      <trkpt lat="48.42524" lon="2.49383">
        <ele>73</ele>
        <time>2020-06-06T08:55:11Z</time>
      </trkpt>
      <trkpt lat="48.42522" lon="2.49392">
        <ele>73</ele>
        <time>2020-06-06T08:55:13Z</time>
      </trkpt>
      <trkpt lat="48.42521" lon="2.49403">
        <ele>73</ele>
        <time>2020-06-06T08:55:15Z</time>
      </trkpt>
      <trkpt lat="48.42519" lon="2.49412">
        <ele>73</ele>
        <time>2020-06-06T08:55:17Z</time>
      </trkpt>
      <trkpt lat="48.42515" lon="2.49421">
        <ele>73</ele>
        <time>2020-06-06T08:55:19Z</time>
      </trkpt>
      <trkpt lat="48.42513" lon="2.49428">
        <ele>73</ele>
        <time>2020-06-06T08:55:21Z</time>
      </trkpt>
      <trkpt lat="48.42511" lon="2.49438">
        <ele>73</ele>
        <time>2020-06-06T08:55:23Z</time>
      </trkpt>
      <trkpt lat="48.4251" lon="2.49447">
        <ele>72.9</ele>
        <time>2020-06-06T08:55:25Z</time>
      </trkpt>
      <trkpt lat="48.42507" lon="2.49457">
        <ele>72.7</ele>
        <time>2020-06-06T08:55:27Z</time>
      </trkpt>
      <trkpt lat="48.42508" lon="2.49465">
        <ele>72.5</ele>
        <time>2020-06-06T08:55:29Z</time>
      </trkpt>
      <trkpt lat="48.42506" lon="2.49473">
        <ele>72.2</ele>
        <time>2020-06-06T08:55:31Z</time>
      </trkpt>
      <trkpt lat="48.42504" lon="2.49483">
        <ele>72.5</ele>
        <time>2020-06-06T08:55:33Z</time>
      </trkpt>
      <trkpt lat="48.42502" lon="2.49493">
        <ele>72.8</ele>
        <time>2020-06-06T08:55:35Z</time>
      </trkpt>
      <trkpt lat="48.42501" lon="2.495">
        <ele>73</ele>
        <time>2020-06-06T08:55:37Z</time>
      </trkpt>
      <trkpt lat="48.42498" lon="2.49518">
        <ele>73</ele>
        <time>2020-06-06T08:55:41Z</time>
      </trkpt>
      <trkpt lat="48.42496" lon="2.49528">
        <ele>73</ele>
        <time>2020-06-06T08:55:43Z</time>
      </trkpt>
      <trkpt lat="48.42494" lon="2.49538">
        <ele>73.1</ele>
        <time>2020-06-06T08:55:45Z</time>
      </trkpt>
      <trkpt lat="48.42492" lon="2.49548">
        <ele>73.2</ele>
        <time>2020-06-06T08:55:47Z</time>
      </trkpt>
      <trkpt lat="48.42489" lon="2.49559">
        <ele>73.4</ele>
        <time>2020-06-06T08:55:49Z</time>
      </trkpt>
      <trkpt lat="48.4249" lon="2.49569">
        <ele>73.4</ele>
        <time>2020-06-06T08:55:51Z</time>
      </trkpt>
      <trkpt lat="48.42488" lon="2.49579">
        <ele>73.4</ele>
        <time>2020-06-06T08:55:53Z</time>
      </trkpt>
      <trkpt lat="48.42486" lon="2.49589">
        <ele>73.6</ele>
        <time>2020-06-06T08:55:55Z</time>
      </trkpt>
      <trkpt lat="48.42483" lon="2.49596">
        <ele>73.8</ele>
        <time>2020-06-06T08:55:57Z</time>
      </trkpt>
      <trkpt lat="48.42481" lon="2.49605">
        <ele>73.9</ele>
        <time>2020-06-06T08:55:59Z</time>
      </trkpt>
      <trkpt lat="48.42481" lon="2.49614">
        <ele>74</ele>
        <time>2020-06-06T08:56:01Z</time>
      </trkpt>
      <trkpt lat="48.4248" lon="2.49623">
        <ele>74</ele>
        <time>2020-06-06T08:56:03Z</time>
      </trkpt>
      <trkpt lat="48.42479" lon="2.49632">
        <ele>74</ele>
        <time>2020-06-06T08:56:05Z</time>
      </trkpt>
      <trkpt lat="48.42479" lon="2.49642">
        <ele>74.1</ele>
        <time>2020-06-06T08:56:07Z</time>
      </trkpt>
      <trkpt lat="48.42478" lon="2.49653">
        <ele>74.5</ele>
        <time>2020-06-06T08:56:09Z</time>
      </trkpt>
      <trkpt lat="48.42475" lon="2.49666">
        <ele>75</ele>
        <time>2020-06-06T08:56:11Z</time>
      </trkpt>
      <trkpt lat="48.42474" lon="2.49678">
        <ele>75</ele>
        <time>2020-06-06T08:56:13Z</time>
      </trkpt>
      <trkpt lat="48.42474" lon="2.49688">
        <ele>75</ele>
        <time>2020-06-06T08:56:15Z</time>
      </trkpt>
      <trkpt lat="48.42473" lon="2.497">
        <ele>75</ele>
        <time>2020-06-06T08:56:17Z</time>
      </trkpt>
      <trkpt lat="48.42469" lon="2.4971">
        <ele>75.1</ele>
        <time>2020-06-06T08:56:19Z</time>
      </trkpt>
      <trkpt lat="48.42466" lon="2.49722">
        <ele>75.2</ele>
        <time>2020-06-06T08:56:21Z</time>
      </trkpt>
      <trkpt lat="48.42464" lon="2.4973">
        <ele>75.3</ele>
        <time>2020-06-06T08:56:23Z</time>
      </trkpt>
      <trkpt lat="48.42462" lon="2.49742">
        <ele>75.4</ele>
        <time>2020-06-06T08:56:25Z</time>
      </trkpt>
      <trkpt lat="48.42461" lon="2.49752">
        <ele>75.4</ele>
        <time>2020-06-06T08:56:27Z</time>
      </trkpt>
      <trkpt lat="48.42459" lon="2.49763">
        <ele>75.2</ele>
        <time>2020-06-06T08:56:29Z</time>
      </trkpt>
      <trkpt lat="48.42458" lon="2.49774">
        <ele>75.1</ele>
        <time>2020-06-06T08:56:31Z</time>
      </trkpt>
      <trkpt lat="48.42456" lon="2.49784">
        <ele>75.2</ele>
        <time>2020-06-06T08:56:33Z</time>
      </trkpt>
      <trkpt lat="48.42454" lon="2.49795">
        <ele>75.3</ele>
        <time>2020-06-06T08:56:35Z</time>
      </trkpt>
      <trkpt lat="48.42452" lon="2.49807">
        <ele>75.5</ele>
        <time>2020-06-06T08:56:37Z</time>
      </trkpt>
      <trkpt lat="48.42451" lon="2.49816">
        <ele>75.6</ele>
        <time>2020-06-06T08:56:39Z</time>
      </trkpt>
      <trkpt lat="48.42449" lon="2.49826">
        <ele>75.8</ele>
        <time>2020-06-06T08:56:41Z</time>
      </trkpt>
      <trkpt lat="48.42447" lon="2.49834">
        <ele>75.9</ele>
        <time>2020-06-06T08:56:43Z</time>
      </trkpt>
      <trkpt lat="48.42442" lon="2.49844">
        <ele>76.7</ele>
        <time>2020-06-06T08:56:45Z</time>
      </trkpt>
      <trkpt lat="48.42439" lon="2.49854">
        <ele>77.2</ele>
        <time>2020-06-06T08:56:47Z</time>
      </trkpt>
      <trkpt lat="48.42434" lon="2.49863">
        <ele>77.7</ele>
        <time>2020-06-06T08:56:49Z</time>
      </trkpt>
      <trkpt lat="48.42431" lon="2.49873">
        <ele>77.8</ele>
        <time>2020-06-06T08:56:51Z</time>
      </trkpt>
      <trkpt lat="48.42427" lon="2.49883">
        <ele>77.8</ele>
        <time>2020-06-06T08:56:53Z</time>
      </trkpt>
      <trkpt lat="48.42423" lon="2.49892">
        <ele>77.8</ele>
        <time>2020-06-06T08:56:55Z</time>
      </trkpt>
      <trkpt lat="48.42419" lon="2.49901">
        <ele>77.9</ele>
        <time>2020-06-06T08:56:57Z</time>
      </trkpt>
      <trkpt lat="48.42418" lon="2.49911">
        <ele>78</ele>
        <time>2020-06-06T08:56:59Z</time>
      </trkpt>
      <trkpt lat="48.42415" lon="2.49922">
        <ele>78.2</ele>
        <time>2020-06-06T08:57:01Z</time>
      </trkpt>
      <trkpt lat="48.42414" lon="2.49933">
        <ele>78.2</ele>
        <time>2020-06-06T08:57:03Z</time>
      </trkpt>
      <trkpt lat="48.42413" lon="2.4994">
        <ele>78.3</ele>
        <time>2020-06-06T08:57:05Z</time>
      </trkpt>
      <trkpt lat="48.42411" lon="2.49948">
        <ele>78.4</ele>
        <time>2020-06-06T08:57:07Z</time>
      </trkpt>
      <trkpt lat="48.42408" lon="2.49956">
        <ele>78.5</ele>
        <time>2020-06-06T08:57:09Z</time>
      </trkpt>
      <trkpt lat="48.42405" lon="2.49966">
        <ele>78.5</ele>
        <time>2020-06-06T08:57:11Z</time>
      </trkpt>
      <trkpt lat="48.42403" lon="2.49975">
        <ele>78.5</ele>
        <time>2020-06-06T08:57:13Z</time>
      </trkpt>
      <trkpt lat="48.42403" lon="2.49984">
        <ele>78.7</ele>
        <time>2020-06-06T08:57:15Z</time>
      </trkpt>
      <trkpt lat="48.42404" lon="2.49992">
        <ele>78.8</ele>
        <time>2020-06-06T08:57:17Z</time>
      </trkpt>
      <trkpt lat="48.42404" lon="2.50001">
        <ele>79</ele>
        <time>2020-06-06T08:57:19Z</time>
      </trkpt>
      <trkpt lat="48.42403" lon="2.5001">
        <ele>79</ele>
        <time>2020-06-06T08:57:21Z</time>
      </trkpt>
      <trkpt lat="48.42401" lon="2.50018">
        <ele>79</ele>
        <time>2020-06-06T08:57:23Z</time>
      </trkpt>
      <trkpt lat="48.424" lon="2.50033">
        <ele>79.2</ele>
        <time>2020-06-06T08:57:27Z</time>
      </trkpt>
      <trkpt lat="48.42399" lon="2.50043">
        <ele>79.5</ele>
        <time>2020-06-06T08:57:29Z</time>
      </trkpt>
      <trkpt lat="48.42396" lon="2.50052">
        <ele>79.9</ele>
        <time>2020-06-06T08:57:31Z</time>
      </trkpt>
      <trkpt lat="48.42393" lon="2.50059">
        <ele>80</ele>
        <time>2020-06-06T08:57:33Z</time>
      </trkpt>
      <trkpt lat="48.42388" lon="2.50068">
        <ele>80.1</ele>
        <time>2020-06-06T08:57:35Z</time>
      </trkpt>
      <trkpt lat="48.42384" lon="2.50076">
        <ele>80.4</ele>
        <time>2020-06-06T08:57:37Z</time>
      </trkpt>
      <trkpt lat="48.4238" lon="2.50088">
        <ele>80.7</ele>
        <time>2020-06-06T08:57:39Z</time>
      </trkpt>
      <trkpt lat="48.42377" lon="2.50097">
        <ele>80.9</ele>
        <time>2020-06-06T08:57:41Z</time>
      </trkpt>
      <trkpt lat="48.42373" lon="2.50107">
        <ele>81</ele>
        <time>2020-06-06T08:57:43Z</time>
      </trkpt>
      <trkpt lat="48.4237" lon="2.50115">
        <ele>81</ele>
        <time>2020-06-06T08:57:45Z</time>
      </trkpt>
      <trkpt lat="48.42368" lon="2.50121">
        <ele>80.9</ele>
        <time>2020-06-06T08:57:47Z</time>
      </trkpt>
      <trkpt lat="48.42366" lon="2.5013">
        <ele>80.7</ele>
        <time>2020-06-06T08:57:49Z</time>
      </trkpt>
      <trkpt lat="48.42364" lon="2.5014">
        <ele>80.4</ele>
        <time>2020-06-06T08:57:51Z</time>
      </trkpt>
      <trkpt lat="48.42362" lon="2.50148">
        <ele>80.4</ele>
        <time>2020-06-06T08:57:53Z</time>
      </trkpt>
      <trkpt lat="48.42355" lon="2.50158">
        <ele>81.5</ele>
        <time>2020-06-06T08:57:55Z</time>
      </trkpt>
      <trkpt lat="48.42352" lon="2.50168">
        <ele>82</ele>
        <time>2020-06-06T08:57:57Z</time>
      </trkpt>
      <trkpt lat="48.42349" lon="2.50178">
        <ele>82.8</ele>
        <time>2020-06-06T08:57:59Z</time>
      </trkpt>
      <trkpt lat="48.42344" lon="2.50186">
        <ele>83.4</ele>
        <time>2020-06-06T08:58:01Z</time>
      </trkpt>
      <trkpt lat="48.4234" lon="2.50196">
        <ele>83.7</ele>
        <time>2020-06-06T08:58:03Z</time>
      </trkpt>
      <trkpt lat="48.42338" lon="2.50203">
        <ele>83.6</ele>
        <time>2020-06-06T08:58:05Z</time>
      </trkpt>
      <trkpt lat="48.42337" lon="2.50211">
        <ele>83.4</ele>
        <time>2020-06-06T08:58:07Z</time>
      </trkpt>
      <trkpt lat="48.42334" lon="2.50219">
        <ele>83.1</ele>
        <time>2020-06-06T08:58:09Z</time>
      </trkpt>
      <trkpt lat="48.4233" lon="2.50228">
        <ele>83.4</ele>
        <time>2020-06-06T08:58:11Z</time>
      </trkpt>
      <trkpt lat="48.42326" lon="2.50236">
        <ele>83.8</ele>
        <time>2020-06-06T08:58:13Z</time>
      </trkpt>
      <trkpt lat="48.42327" lon="2.50245">
        <ele>83.5</ele>
        <time>2020-06-06T08:58:15Z</time>
      </trkpt>
      <trkpt lat="48.42325" lon="2.50253">
        <ele>83.6</ele>
        <time>2020-06-06T08:58:17Z</time>
      </trkpt>
      <trkpt lat="48.42322" lon="2.50259">
        <ele>83.8</ele>
        <time>2020-06-06T08:58:19Z</time>
      </trkpt>
      <trkpt lat="48.42321" lon="2.50268">
        <ele>83.9</ele>
        <time>2020-06-06T08:58:21Z</time>
      </trkpt>
      <trkpt lat="48.4232" lon="2.50275">
        <ele>84</ele>
        <time>2020-06-06T08:58:23Z</time>
      </trkpt>
      <trkpt lat="48.42318" lon="2.50284">
        <ele>84.1</ele>
        <time>2020-06-06T08:58:25Z</time>
      </trkpt>
      <trkpt lat="48.42315" lon="2.50292">
        <ele>84.3</ele>
        <time>2020-06-06T08:58:27Z</time>
      </trkpt>
      <trkpt lat="48.42315" lon="2.50301">
        <ele>84.3</ele>
        <time>2020-06-06T08:58:29Z</time>
      </trkpt>
      <trkpt lat="48.42312" lon="2.50312">
        <ele>84.4</ele>
        <time>2020-06-06T08:58:31Z</time>
      </trkpt>
      <trkpt lat="48.4231" lon="2.50322">
        <ele>84.2</ele>
        <time>2020-06-06T08:58:33Z</time>
      </trkpt>
      <trkpt lat="48.42309" lon="2.50332">
        <ele>83.9</ele>
        <time>2020-06-06T08:58:35Z</time>
      </trkpt>
      <trkpt lat="48.42306" lon="2.50343">
        <ele>84</ele>
        <time>2020-06-06T08:58:37Z</time>
      </trkpt>
      <trkpt lat="48.42304" lon="2.50355">
        <ele>84.4</ele>
        <time>2020-06-06T08:58:39Z</time>
      </trkpt>
      <trkpt lat="48.42303" lon="2.50367">
        <ele>84.5</ele>
        <time>2020-06-06T08:58:41Z</time>
      </trkpt>
      <trkpt lat="48.42303" lon="2.50377">
        <ele>84.4</ele>
        <time>2020-06-06T08:58:43Z</time>
      </trkpt>
      <trkpt lat="48.42302" lon="2.50385">
        <ele>84.4</ele>
        <time>2020-06-06T08:58:45Z</time>
      </trkpt>
      <trkpt lat="48.42298" lon="2.50393">
        <ele>84.6</ele>
        <time>2020-06-06T08:58:47Z</time>
      </trkpt>
      <trkpt lat="48.42295" lon="2.50405">
        <ele>84.3</ele>
        <time>2020-06-06T08:58:49Z</time>
      </trkpt>
      <trkpt lat="48.42293" lon="2.50415">
        <ele>84</ele>
        <time>2020-06-06T08:58:51Z</time>
      </trkpt>
      <trkpt lat="48.42294" lon="2.50426">
        <ele>83.8</ele>
        <time>2020-06-06T08:58:53Z</time>
      </trkpt>
      <trkpt lat="48.42296" lon="2.50434">
        <ele>83.7</ele>
        <time>2020-06-06T08:58:55Z</time>
      </trkpt>
      <trkpt lat="48.42295" lon="2.50445">
        <ele>83.8</ele>
        <time>2020-06-06T08:58:57Z</time>
      </trkpt>
      <trkpt lat="48.42293" lon="2.50455">
        <ele>83.7</ele>
        <time>2020-06-06T08:58:59Z</time>
      </trkpt>
      <trkpt lat="48.42293" lon="2.50464">
        <ele>83.6</ele>
        <time>2020-06-06T08:59:01Z</time>
      </trkpt>
      <trkpt lat="48.42293" lon="2.50474">
        <ele>83.5</ele>
        <time>2020-06-06T08:59:03Z</time>
      </trkpt>
      <trkpt lat="48.42293" lon="2.50484">
        <ele>83.5</ele>
        <time>2020-06-06T08:59:05Z</time>
      </trkpt>
      <trkpt lat="48.42291" lon="2.50493">
        <ele>83.5</ele>
        <time>2020-06-06T08:59:07Z</time>
      </trkpt>
      <trkpt lat="48.42289" lon="2.50502">
        <ele>83.6</ele>
        <time>2020-06-06T08:59:09Z</time>
      </trkpt>
      <trkpt lat="48.42286" lon="2.5051">
        <ele>83.7</ele>
        <time>2020-06-06T08:59:11Z</time>
      </trkpt>
      <trkpt lat="48.42284" lon="2.50517">
        <ele>83.8</ele>
        <time>2020-06-06T08:59:13Z</time>
      </trkpt>
      <trkpt lat="48.42281" lon="2.50527">
        <ele>83.9</ele>
        <time>2020-06-06T08:59:17Z</time>
      </trkpt>
      <trkpt lat="48.42278" lon="2.50535">
        <ele>84</ele>
        <time>2020-06-06T08:59:21Z</time>
      </trkpt>
      <trkpt lat="48.42274" lon="2.50541">
        <ele>84.4</ele>
        <time>2020-06-06T08:59:25Z</time>
      </trkpt>
      <trkpt lat="48.42274" lon="2.5055">
        <ele>84.4</ele>
        <time>2020-06-06T08:59:51Z</time>
      </trkpt>
      <trkpt lat="48.42271" lon="2.50561">
        <ele>84.9</ele>
        <time>2020-06-06T08:59:55Z</time>
      </trkpt>
      <trkpt lat="48.42272" lon="2.50568">
        <ele>85.1</ele>
        <time>2020-06-06T08:59:59Z</time>
      </trkpt>
      <trkpt lat="48.42273" lon="2.50577">
        <ele>85.3</ele>
        <time>2020-06-06T09:00:03Z</time>
      </trkpt>
      <trkpt lat="48.4227" lon="2.50584">
        <ele>85.9</ele>
        <time>2020-06-06T09:00:09Z</time>
      </trkpt>
      <trkpt lat="48.42268" lon="2.5059">
        <ele>86.2</ele>
        <time>2020-06-06T09:00:35Z</time>
      </trkpt>
      <trkpt lat="48.42262" lon="2.50602">
        <ele>87</ele>
        <time>2020-06-06T09:00:39Z</time>
      </trkpt>
      <trkpt lat="48.42258" lon="2.50611">
        <ele>87.4</ele>
        <time>2020-06-06T09:00:41Z</time>
      </trkpt>
      <trkpt lat="48.42256" lon="2.5062">
        <ele>87.4</ele>
        <time>2020-06-06T09:00:43Z</time>
      </trkpt>
      <trkpt lat="48.42254" lon="2.50629">
        <ele>87.3</ele>
        <time>2020-06-06T09:00:45Z</time>
      </trkpt>
      <trkpt lat="48.42253" lon="2.50637">
        <ele>87.1</ele>
        <time>2020-06-06T09:00:47Z</time>
      </trkpt>
      <trkpt lat="48.42251" lon="2.50645">
        <ele>86.8</ele>
        <time>2020-06-06T09:00:49Z</time>
      </trkpt>
      <trkpt lat="48.42247" lon="2.50654">
        <ele>86.9</ele>
        <time>2020-06-06T09:00:51Z</time>
      </trkpt>
      <trkpt lat="48.42244" lon="2.50662">
        <ele>87</ele>
        <time>2020-06-06T09:00:53Z</time>
      </trkpt>
      <trkpt lat="48.42241" lon="2.50672">
        <ele>87.2</ele>
        <time>2020-06-06T09:00:55Z</time>
      </trkpt>
      <trkpt lat="48.42239" lon="2.50683">
        <ele>87.1</ele>
        <time>2020-06-06T09:00:57Z</time>
      </trkpt>
      <trkpt lat="48.42235" lon="2.50699">
        <ele>86.9</ele>
        <time>2020-06-06T09:00:59Z</time>
      </trkpt>
      <trkpt lat="48.42228" lon="2.5071">
        <ele>86.7</ele>
        <time>2020-06-06T09:01:01Z</time>
      </trkpt>
      <trkpt lat="48.42225" lon="2.50726">
        <ele>85.8</ele>
        <time>2020-06-06T09:01:03Z</time>
      </trkpt>
      <trkpt lat="48.42221" lon="2.50743">
        <ele>84.7</ele>
        <time>2020-06-06T09:01:05Z</time>
      </trkpt>
      <trkpt lat="48.42219" lon="2.50762">
        <ele>84.1</ele>
        <time>2020-06-06T09:01:07Z</time>
      </trkpt>
      <trkpt lat="48.42218" lon="2.5078">
        <ele>83.8</ele>
        <time>2020-06-06T09:01:09Z</time>
      </trkpt>
      <trkpt lat="48.42217" lon="2.50796">
        <ele>84.1</ele>
        <time>2020-06-06T09:01:11Z</time>
      </trkpt>
      <trkpt lat="48.42215" lon="2.50812">
        <ele>84.5</ele>
        <time>2020-06-06T09:01:13Z</time>
      </trkpt>
      <trkpt lat="48.42215" lon="2.50828">
        <ele>84.3</ele>
        <time>2020-06-06T09:01:15Z</time>
      </trkpt>
      <trkpt lat="48.42214" lon="2.50843">
        <ele>84.3</ele>
        <time>2020-06-06T09:01:17Z</time>
      </trkpt>
      <trkpt lat="48.42213" lon="2.5086">
        <ele>84</ele>
        <time>2020-06-06T09:01:19Z</time>
      </trkpt>
      <trkpt lat="48.42212" lon="2.50877">
        <ele>84.5</ele>
        <time>2020-06-06T09:01:21Z</time>
      </trkpt>
      <trkpt lat="48.4221" lon="2.50893">
        <ele>84.8</ele>
        <time>2020-06-06T09:01:23Z</time>
      </trkpt>
      <trkpt lat="48.42209" lon="2.50909">
        <ele>84.6</ele>
        <time>2020-06-06T09:01:25Z</time>
      </trkpt>
      <trkpt lat="48.42206" lon="2.50922">
        <ele>84.4</ele>
        <time>2020-06-06T09:01:27Z</time>
      </trkpt>
      <trkpt lat="48.422" lon="2.50938">
        <ele>84</ele>
        <time>2020-06-06T09:01:29Z</time>
      </trkpt>
      <trkpt lat="48.42199" lon="2.50955">
        <ele>83.2</ele>
        <time>2020-06-06T09:01:31Z</time>
      </trkpt>
      <trkpt lat="48.42199" lon="2.50974">
        <ele>82.1</ele>
        <time>2020-06-06T09:01:33Z</time>
      </trkpt>
      <trkpt lat="48.42197" lon="2.50993">
        <ele>81.3</ele>
        <time>2020-06-06T09:01:35Z</time>
      </trkpt>
      <trkpt lat="48.42195" lon="2.51009">
        <ele>81</ele>
        <time>2020-06-06T09:01:37Z</time>
      </trkpt>
      <trkpt lat="48.42191" lon="2.51025">
        <ele>81.7</ele>
        <time>2020-06-06T09:01:39Z</time>
      </trkpt>
      <trkpt lat="48.42187" lon="2.51039">
        <ele>81.7</ele>
        <time>2020-06-06T09:01:41Z</time>
      </trkpt>
      <trkpt lat="48.42184" lon="2.51053">
        <ele>81.3</ele>
        <time>2020-06-06T09:01:43Z</time>
      </trkpt>
      <trkpt lat="48.42178" lon="2.51067">
        <ele>80.9</ele>
        <time>2020-06-06T09:01:45Z</time>
      </trkpt>
      <trkpt lat="48.42172" lon="2.51079">
        <ele>80.2</ele>
        <time>2020-06-06T09:01:47Z</time>
      </trkpt>
      <trkpt lat="48.4217" lon="2.51091">
        <ele>79.9</ele>
        <time>2020-06-06T09:01:49Z</time>
      </trkpt>
      <trkpt lat="48.4217" lon="2.51104">
        <ele>79.9</ele>
        <time>2020-06-06T09:01:51Z</time>
      </trkpt>
      <trkpt lat="48.42174" lon="2.5112">
        <ele>79.5</ele>
        <time>2020-06-06T09:01:53Z</time>
      </trkpt>
      <trkpt lat="48.42177" lon="2.51134">
        <ele>79.1</ele>
        <time>2020-06-06T09:01:55Z</time>
      </trkpt>
      <trkpt lat="48.42177" lon="2.5115">
        <ele>79.1</ele>
        <time>2020-06-06T09:01:57Z</time>
      </trkpt>
      <trkpt lat="48.42175" lon="2.51167">
        <ele>79.3</ele>
        <time>2020-06-06T09:01:59Z</time>
      </trkpt>
      <trkpt lat="48.42171" lon="2.51183">
        <ele>79.2</ele>
        <time>2020-06-06T09:02:01Z</time>
      </trkpt>
      <trkpt lat="48.42163" lon="2.51192">
        <ele>79</ele>
        <time>2020-06-06T09:02:03Z</time>
      </trkpt>
      <trkpt lat="48.42156" lon="2.51202">
        <ele>79</ele>
        <time>2020-06-06T09:02:05Z</time>
      </trkpt>
      <trkpt lat="48.42151" lon="2.51213">
        <ele>79</ele>
        <time>2020-06-06T09:02:07Z</time>
      </trkpt>
      <trkpt lat="48.42144" lon="2.51227">
        <ele>78.9</ele>
        <time>2020-06-06T09:02:09Z</time>
      </trkpt>
      <trkpt lat="48.42138" lon="2.51241">
        <ele>78.4</ele>
        <time>2020-06-06T09:02:11Z</time>
      </trkpt>
      <trkpt lat="48.42136" lon="2.51257">
        <ele>78.1</ele>
        <time>2020-06-06T09:02:13Z</time>
      </trkpt>
      <trkpt lat="48.42133" lon="2.51275">
        <ele>77.7</ele>
        <time>2020-06-06T09:02:15Z</time>
      </trkpt>
      <trkpt lat="48.42131" lon="2.51292">
        <ele>77.3</ele>
        <time>2020-06-06T09:02:17Z</time>
      </trkpt>
      <trkpt lat="48.42132" lon="2.5131">
        <ele>76.6</ele>
        <time>2020-06-06T09:02:19Z</time>
      </trkpt>
      <trkpt lat="48.42132" lon="2.51326">
        <ele>76</ele>
        <time>2020-06-06T09:02:21Z</time>
      </trkpt>
      <trkpt lat="48.4213" lon="2.51343">
        <ele>75.8</ele>
        <time>2020-06-06T09:02:23Z</time>
      </trkpt>
      <trkpt lat="48.42128" lon="2.51359">
        <ele>75.8</ele>
        <time>2020-06-06T09:02:25Z</time>
      </trkpt>
      <trkpt lat="48.42129" lon="2.51375">
        <ele>75</ele>
        <time>2020-06-06T09:02:27Z</time>
      </trkpt>
      <trkpt lat="48.42127" lon="2.51391">
        <ele>74.4</ele>
        <time>2020-06-06T09:02:29Z</time>
      </trkpt>
      <trkpt lat="48.42128" lon="2.51405">
        <ele>74.4</ele>
        <time>2020-06-06T09:02:31Z</time>
      </trkpt>
      <trkpt lat="48.42126" lon="2.51418">
        <ele>74.5</ele>
        <time>2020-06-06T09:02:33Z</time>
      </trkpt>
      <trkpt lat="48.4212" lon="2.51433">
        <ele>74.9</ele>
        <time>2020-06-06T09:02:35Z</time>
      </trkpt>
      <trkpt lat="48.42116" lon="2.51442">
        <ele>75</ele>
        <time>2020-06-06T09:02:37Z</time>
      </trkpt>
      <trkpt lat="48.42109" lon="2.51451">
        <ele>74.9</ele>
        <time>2020-06-06T09:02:39Z</time>
      </trkpt>
      <trkpt lat="48.42101" lon="2.5146">
        <ele>75</ele>
        <time>2020-06-06T09:02:41Z</time>
      </trkpt>
      <trkpt lat="48.42098" lon="2.51474">
        <ele>74.5</ele>
        <time>2020-06-06T09:02:43Z</time>
      </trkpt>
      <trkpt lat="48.42095" lon="2.51488">
        <ele>74.6</ele>
        <time>2020-06-06T09:02:45Z</time>
      </trkpt>
      <trkpt lat="48.42094" lon="2.51502">
        <ele>74.6</ele>
        <time>2020-06-06T09:02:47Z</time>
      </trkpt>
      <trkpt lat="48.42095" lon="2.51516">
        <ele>74.3</ele>
        <time>2020-06-06T09:02:49Z</time>
      </trkpt>
      <trkpt lat="48.42097" lon="2.51528">
        <ele>74</ele>
        <time>2020-06-06T09:02:51Z</time>
      </trkpt>
      <trkpt lat="48.42104" lon="2.51539">
        <ele>73.6</ele>
        <time>2020-06-06T09:02:53Z</time>
      </trkpt>
      <trkpt lat="48.42107" lon="2.51551">
        <ele>73.4</ele>
        <time>2020-06-06T09:02:55Z</time>
      </trkpt>
      <trkpt lat="48.42107" lon="2.51563">
        <ele>73.5</ele>
        <time>2020-06-06T09:02:57Z</time>
      </trkpt>
      <trkpt lat="48.42105" lon="2.51578">
        <ele>73.8</ele>
        <time>2020-06-06T09:02:59Z</time>
      </trkpt>
      <trkpt lat="48.42104" lon="2.51591">
        <ele>74.2</ele>
        <time>2020-06-06T09:03:01Z</time>
      </trkpt>
      <trkpt lat="48.42104" lon="2.51605">
        <ele>74.6</ele>
        <time>2020-06-06T09:03:03Z</time>
      </trkpt>
      <trkpt lat="48.42101" lon="2.51615">
        <ele>75.1</ele>
        <time>2020-06-06T09:03:05Z</time>
      </trkpt>
      <trkpt lat="48.42099" lon="2.51625">
        <ele>75.3</ele>
        <time>2020-06-06T09:03:07Z</time>
      </trkpt>
      <trkpt lat="48.42096" lon="2.51636">
        <ele>75.6</ele>
        <time>2020-06-06T09:03:09Z</time>
      </trkpt>
      <trkpt lat="48.42093" lon="2.51649">
        <ele>75.7</ele>
        <time>2020-06-06T09:03:11Z</time>
      </trkpt>
      <trkpt lat="48.4209" lon="2.51662">
        <ele>75.6</ele>
        <time>2020-06-06T09:03:13Z</time>
      </trkpt>
      <trkpt lat="48.42088" lon="2.51675">
        <ele>75.4</ele>
        <time>2020-06-06T09:03:15Z</time>
      </trkpt>
      <trkpt lat="48.42086" lon="2.51685">
        <ele>75.2</ele>
        <time>2020-06-06T09:03:17Z</time>
      </trkpt>
      <trkpt lat="48.42083" lon="2.517">
        <ele>74.8</ele>
        <time>2020-06-06T09:03:19Z</time>
      </trkpt>
      <trkpt lat="48.42084" lon="2.51713">
        <ele>74.3</ele>
        <time>2020-06-06T09:03:21Z</time>
      </trkpt>
      <trkpt lat="48.42081" lon="2.51728">
        <ele>74.2</ele>
        <time>2020-06-06T09:03:23Z</time>
      </trkpt>
      <trkpt lat="48.42077" lon="2.51742">
        <ele>74.3</ele>
        <time>2020-06-06T09:03:25Z</time>
      </trkpt>
      <trkpt lat="48.42071" lon="2.51752">
        <ele>74.4</ele>
        <time>2020-06-06T09:03:27Z</time>
      </trkpt>
      <trkpt lat="48.42069" lon="2.51767">
        <ele>73.9</ele>
        <time>2020-06-06T09:03:29Z</time>
      </trkpt>
      <trkpt lat="48.42069" lon="2.51782">
        <ele>73.4</ele>
        <time>2020-06-06T09:03:31Z</time>
      </trkpt>
      <trkpt lat="48.42069" lon="2.51796">
        <ele>73.2</ele>
        <time>2020-06-06T09:03:33Z</time>
      </trkpt>
      <trkpt lat="48.42068" lon="2.5181">
        <ele>72.8</ele>
        <time>2020-06-06T09:03:35Z</time>
      </trkpt>
      <trkpt lat="48.4207" lon="2.5183">
        <ele>72.1</ele>
        <time>2020-06-06T09:03:37Z</time>
      </trkpt>
      <trkpt lat="48.42069" lon="2.51847">
        <ele>72</ele>
        <time>2020-06-06T09:03:39Z</time>
      </trkpt>
      <trkpt lat="48.42073" lon="2.51865">
        <ele>72</ele>
        <time>2020-06-06T09:03:41Z</time>
      </trkpt>
      <trkpt lat="48.42076" lon="2.51879">
        <ele>72</ele>
        <time>2020-06-06T09:03:43Z</time>
      </trkpt>
      <trkpt lat="48.42083" lon="2.51895">
        <ele>72</ele>
        <time>2020-06-06T09:03:45Z</time>
      </trkpt>
      <trkpt lat="48.4209" lon="2.5191">
        <ele>72.1</ele>
        <time>2020-06-06T09:03:47Z</time>
      </trkpt>
      <trkpt lat="48.42095" lon="2.51923">
        <ele>72</ele>
        <time>2020-06-06T09:03:49Z</time>
      </trkpt>
      <trkpt lat="48.42095" lon="2.51937">
        <ele>72</ele>
        <time>2020-06-06T09:03:51Z</time>
      </trkpt>
      <trkpt lat="48.42092" lon="2.51945">
        <ele>72</ele>
        <time>2020-06-06T09:03:53Z</time>
      </trkpt>
      <trkpt lat="48.42082" lon="2.5195">
        <ele>72</ele>
        <time>2020-06-06T09:03:55Z</time>
      </trkpt>
      <trkpt lat="48.42072" lon="2.51947">
        <ele>72.4</ele>
        <time>2020-06-06T09:03:57Z</time>
      </trkpt>
      <trkpt lat="48.42065" lon="2.51946">
        <ele>72.7</ele>
        <time>2020-06-06T09:03:59Z</time>
      </trkpt>
      <trkpt lat="48.4206" lon="2.51945">
        <ele>72.8</ele>
        <time>2020-06-06T09:04:01Z</time>
      </trkpt>
      <trkpt lat="48.42056" lon="2.5194">
        <ele>72.8</ele>
        <time>2020-06-06T09:04:03Z</time>
      </trkpt>
      <trkpt lat="48.42051" lon="2.51934">
        <ele>72.8</ele>
        <time>2020-06-06T09:04:05Z</time>
      </trkpt>
      <trkpt lat="48.42046" lon="2.51928">
        <ele>72.8</ele>
        <time>2020-06-06T09:04:07Z</time>
      </trkpt>
      <trkpt lat="48.42043" lon="2.5192">
        <ele>72.6</ele>
        <time>2020-06-06T09:04:09Z</time>
      </trkpt>
      <trkpt lat="48.42039" lon="2.51911">
        <ele>72.6</ele>
        <time>2020-06-06T09:04:11Z</time>
      </trkpt>
      <trkpt lat="48.4204" lon="2.51901">
        <ele>72.6</ele>
        <time>2020-06-06T09:04:13Z</time>
      </trkpt>
      <trkpt lat="48.42037" lon="2.51894">
        <ele>72.7</ele>
        <time>2020-06-06T09:04:15Z</time>
      </trkpt>
      <trkpt lat="48.42032" lon="2.51887">
        <ele>72.8</ele>
        <time>2020-06-06T09:04:17Z</time>
      </trkpt>
      <trkpt lat="48.42027" lon="2.51881">
        <ele>72.8</ele>
        <time>2020-06-06T09:04:19Z</time>
      </trkpt>
      <trkpt lat="48.42024" lon="2.5187">
        <ele>72.7</ele>
        <time>2020-06-06T09:04:21Z</time>
      </trkpt>
      <trkpt lat="48.42021" lon="2.51862">
        <ele>72.8</ele>
        <time>2020-06-06T09:04:23Z</time>
      </trkpt>
      <trkpt lat="48.42018" lon="2.51855">
        <ele>73.2</ele>
        <time>2020-06-06T09:04:25Z</time>
      </trkpt>
      <trkpt lat="48.42014" lon="2.51846">
        <ele>73.8</ele>
        <time>2020-06-06T09:04:27Z</time>
      </trkpt>
      <trkpt lat="48.4201" lon="2.51837">
        <ele>74.2</ele>
        <time>2020-06-06T09:04:29Z</time>
      </trkpt>
      <trkpt lat="48.42003" lon="2.51829">
        <ele>74.8</ele>
        <time>2020-06-06T09:04:31Z</time>
      </trkpt>
      <trkpt lat="48.41998" lon="2.51823">
        <ele>75.3</ele>
        <time>2020-06-06T09:04:33Z</time>
      </trkpt>
      <trkpt lat="48.41994" lon="2.51817">
        <ele>75.8</ele>
        <time>2020-06-06T09:04:35Z</time>
      </trkpt>
      <trkpt lat="48.41988" lon="2.51808">
        <ele>76.4</ele>
        <time>2020-06-06T09:04:39Z</time>
      </trkpt>
      <trkpt lat="48.41983" lon="2.51802">
        <ele>76.8</ele>
        <time>2020-06-06T09:04:41Z</time>
      </trkpt>
      <trkpt lat="48.41979" lon="2.51797">
        <ele>77.1</ele>
        <time>2020-06-06T09:04:43Z</time>
      </trkpt>
      <trkpt lat="48.41972" lon="2.51789">
        <ele>77.4</ele>
        <time>2020-06-06T09:04:47Z</time>
      </trkpt>
      <trkpt lat="48.41964" lon="2.51781">
        <ele>77.7</ele>
        <time>2020-06-06T09:04:51Z</time>
      </trkpt>
      <trkpt lat="48.41956" lon="2.51776">
        <ele>78.2</ele>
        <time>2020-06-06T09:04:55Z</time>
      </trkpt>
      <trkpt lat="48.41951" lon="2.51775">
        <ele>78.6</ele>
        <time>2020-06-06T09:04:57Z</time>
      </trkpt>
      <trkpt lat="48.41946" lon="2.51774">
        <ele>78.9</ele>
        <time>2020-06-06T09:04:59Z</time>
      </trkpt>
      <trkpt lat="48.41939" lon="2.51769">
        <ele>79.7</ele>
        <time>2020-06-06T09:05:03Z</time>
      </trkpt>
      <trkpt lat="48.4193" lon="2.51763">
        <ele>80.8</ele>
        <time>2020-06-06T09:05:07Z</time>
      </trkpt>
      <trkpt lat="48.41923" lon="2.51756">
        <ele>81.5</ele>
        <time>2020-06-06T09:05:11Z</time>
      </trkpt>
      <trkpt lat="48.4192" lon="2.51751">
        <ele>81.7</ele>
        <time>2020-06-06T09:05:13Z</time>
      </trkpt>
      <trkpt lat="48.41915" lon="2.51748">
        <ele>82.5</ele>
        <time>2020-06-06T09:05:15Z</time>
      </trkpt>
      <trkpt lat="48.4191" lon="2.51744">
        <ele>83.7</ele>
        <time>2020-06-06T09:05:17Z</time>
      </trkpt>
      <trkpt lat="48.41903" lon="2.51739">
        <ele>85</ele>
        <time>2020-06-06T09:05:21Z</time>
      </trkpt>
      <trkpt lat="48.41899" lon="2.51736">
        <ele>85.5</ele>
        <time>2020-06-06T09:05:23Z</time>
      </trkpt>
      <trkpt lat="48.41895" lon="2.51733">
        <ele>86</ele>
        <time>2020-06-06T09:05:25Z</time>
      </trkpt>
      <trkpt lat="48.41888" lon="2.5173">
        <ele>86.8</ele>
        <time>2020-06-06T09:05:29Z</time>
      </trkpt>
      <trkpt lat="48.41881" lon="2.51728">
        <ele>88.1</ele>
        <time>2020-06-06T09:05:33Z</time>
      </trkpt>
      <trkpt lat="48.41875" lon="2.51723">
        <ele>88.6</ele>
        <time>2020-06-06T09:05:37Z</time>
      </trkpt>
      <trkpt lat="48.41867" lon="2.51717">
        <ele>90.6</ele>
        <time>2020-06-06T09:05:41Z</time>
      </trkpt>
      <trkpt lat="48.41861" lon="2.51715">
        <ele>91.5</ele>
        <time>2020-06-06T09:05:45Z</time>
      </trkpt>
      <trkpt lat="48.41857" lon="2.51712">
        <ele>92.4</ele>
        <time>2020-06-06T09:05:49Z</time>
      </trkpt>
      <trkpt lat="48.4185" lon="2.51706">
        <ele>93.6</ele>
        <time>2020-06-06T09:05:53Z</time>
      </trkpt>
      <trkpt lat="48.41846" lon="2.51701">
        <ele>93.8</ele>
        <time>2020-06-06T09:05:57Z</time>
      </trkpt>
      <trkpt lat="48.41839" lon="2.51694">
        <ele>93.9</ele>
        <time>2020-06-06T09:06:01Z</time>
      </trkpt>
      <trkpt lat="48.41833" lon="2.51688">
        <ele>94.5</ele>
        <time>2020-06-06T09:06:05Z</time>
      </trkpt>
      <trkpt lat="48.41826" lon="2.51679">
        <ele>95.4</ele>
        <time>2020-06-06T09:06:09Z</time>
      </trkpt>
      <trkpt lat="48.41819" lon="2.51674">
        <ele>95.6</ele>
        <time>2020-06-06T09:06:13Z</time>
      </trkpt>
      <trkpt lat="48.41813" lon="2.5167">
        <ele>95.5</ele>
        <time>2020-06-06T09:06:17Z</time>
      </trkpt>
      <trkpt lat="48.41806" lon="2.51668">
        <ele>95.2</ele>
        <time>2020-06-06T09:06:21Z</time>
      </trkpt>
      <trkpt lat="48.41808" lon="2.51676">
        <ele>95.9</ele>
        <time>2020-06-06T09:06:27Z</time>
      </trkpt>
      <trkpt lat="48.4181" lon="2.51684">
        <ele>96.5</ele>
        <time>2020-06-06T09:06:31Z</time>
      </trkpt>
      <trkpt lat="48.41812" lon="2.5169">
        <ele>96.8</ele>
        <time>2020-06-06T09:06:35Z</time>
      </trkpt>
      <trkpt lat="48.41815" lon="2.51697">
        <ele>97.1</ele>
        <time>2020-06-06T09:06:39Z</time>
      </trkpt>
      <trkpt lat="48.41817" lon="2.51705">
        <ele>98.3</ele>
        <time>2020-06-06T09:06:43Z</time>
      </trkpt>
      <trkpt lat="48.41819" lon="2.51712">
        <ele>99.2</ele>
        <time>2020-06-06T09:06:47Z</time>
      </trkpt>
      <trkpt lat="48.41822" lon="2.51721">
        <ele>100.2</ele>
        <time>2020-06-06T09:06:51Z</time>
      </trkpt>
      <trkpt lat="48.41823" lon="2.51728">
        <ele>101.5</ele>
        <time>2020-06-06T09:06:55Z</time>
      </trkpt>
      <trkpt lat="48.41819" lon="2.51734">
        <ele>103.6</ele>
        <time>2020-06-06T09:06:59Z</time>
      </trkpt>
      <trkpt lat="48.41816" lon="2.51741">
        <ele>105.6</ele>
        <time>2020-06-06T09:07:03Z</time>
      </trkpt>
      <trkpt lat="48.41815" lon="2.51749">
        <ele>107.4</ele>
        <time>2020-06-06T09:07:07Z</time>
      </trkpt>
      <trkpt lat="48.41813" lon="2.51756">
        <ele>108.9</ele>
        <time>2020-06-06T09:07:11Z</time>
      </trkpt>
      <trkpt lat="48.41811" lon="2.51764">
        <ele>110.2</ele>
        <time>2020-06-06T09:07:15Z</time>
      </trkpt>
      <trkpt lat="48.41809" lon="2.51773">
        <ele>111.5</ele>
        <time>2020-06-06T09:07:21Z</time>
      </trkpt>
      <trkpt lat="48.41805" lon="2.5178">
        <ele>112.2</ele>
        <time>2020-06-06T09:07:25Z</time>
      </trkpt>
      <trkpt lat="48.41803" lon="2.51788">
        <ele>113</ele>
        <time>2020-06-06T09:07:31Z</time>
      </trkpt>
      <trkpt lat="48.41803" lon="2.51796">
        <ele>113.5</ele>
        <time>2020-06-06T09:07:35Z</time>
      </trkpt>
      <trkpt lat="48.41801" lon="2.51805">
        <ele>114.3</ele>
        <time>2020-06-06T09:07:41Z</time>
      </trkpt>
      <trkpt lat="48.41801" lon="2.51812">
        <ele>114.8</ele>
        <time>2020-06-06T09:07:45Z</time>
      </trkpt>
      <trkpt lat="48.41799" lon="2.5182">
        <ele>115.4</ele>
        <time>2020-06-06T09:07:49Z</time>
      </trkpt>
      <trkpt lat="48.41796" lon="2.51826">
        <ele>115.9</ele>
        <time>2020-06-06T09:07:53Z</time>
      </trkpt>
      <trkpt lat="48.41794" lon="2.51833">
        <ele>116.4</ele>
        <time>2020-06-06T09:07:57Z</time>
      </trkpt>
      <trkpt lat="48.4179" lon="2.51837">
        <ele>116.8</ele>
        <time>2020-06-06T09:08:01Z</time>
      </trkpt>
      <trkpt lat="48.41785" lon="2.5184">
        <ele>117.2</ele>
        <time>2020-06-06T09:08:05Z</time>
      </trkpt>
      <trkpt lat="48.4178" lon="2.51843">
        <ele>117.6</ele>
        <time>2020-06-06T09:08:11Z</time>
      </trkpt>
      <trkpt lat="48.41776" lon="2.51848">
        <ele>118.2</ele>
        <time>2020-06-06T09:08:15Z</time>
      </trkpt>
      <trkpt lat="48.41773" lon="2.51854">
        <ele>118.7</ele>
        <time>2020-06-06T09:08:19Z</time>
      </trkpt>
      <trkpt lat="48.41769" lon="2.51863">
        <ele>119.3</ele>
        <time>2020-06-06T09:08:25Z</time>
      </trkpt>
      <trkpt lat="48.41766" lon="2.51871">
        <ele>119.4</ele>
        <time>2020-06-06T09:08:29Z</time>
      </trkpt>
      <trkpt lat="48.41767" lon="2.5188">
        <ele>119.4</ele>
        <time>2020-06-06T09:08:33Z</time>
      </trkpt>
      <trkpt lat="48.41768" lon="2.51887">
        <ele>119.4</ele>
        <time>2020-06-06T09:08:37Z</time>
      </trkpt>
      <trkpt lat="48.4177" lon="2.51896">
        <ele>119.5</ele>
        <time>2020-06-06T09:08:43Z</time>
      </trkpt>
      <trkpt lat="48.41771" lon="2.51906">
        <ele>119.7</ele>
        <time>2020-06-06T09:08:49Z</time>
      </trkpt>
      <trkpt lat="48.4177" lon="2.51913">
        <ele>119.9</ele>
        <time>2020-06-06T09:08:53Z</time>
      </trkpt>
      <trkpt lat="48.41769" lon="2.5192">
        <ele>120</ele>
        <time>2020-06-06T09:08:57Z</time>
      </trkpt>
      <trkpt lat="48.41769" lon="2.5193">
        <ele>119.8</ele>
        <time>2020-06-06T09:09:01Z</time>
      </trkpt>
      <trkpt lat="48.41769" lon="2.5194">
        <ele>119.7</ele>
        <time>2020-06-06T09:09:05Z</time>
      </trkpt>
      <trkpt lat="48.41771" lon="2.51953">
        <ele>119.5</ele>
        <time>2020-06-06T09:09:09Z</time>
      </trkpt>
      <trkpt lat="48.41772" lon="2.51963">
        <ele>119.3</ele>
        <time>2020-06-06T09:09:13Z</time>
      </trkpt>
      <trkpt lat="48.41772" lon="2.5197">
        <ele>119.1</ele>
        <time>2020-06-06T09:09:17Z</time>
      </trkpt>
      <trkpt lat="48.41773" lon="2.51979">
        <ele>119</ele>
        <time>2020-06-06T09:09:23Z</time>
      </trkpt>
      <trkpt lat="48.41772" lon="2.51986">
        <ele>119</ele>
        <time>2020-06-06T09:09:27Z</time>
      </trkpt>
      <trkpt lat="48.41776" lon="2.51987">
        <ele>119</ele>
        <time>2020-06-06T09:09:35Z</time>
      </trkpt>
      <trkpt lat="48.41782" lon="2.51991">
        <ele>118.7</ele>
        <time>2020-06-06T09:09:39Z</time>
      </trkpt>
      <trkpt lat="48.41789" lon="2.51997">
        <ele>118.2</ele>
        <time>2020-06-06T09:09:43Z</time>
      </trkpt>
      <trkpt lat="48.41796" lon="2.51997">
        <ele>117.7</ele>
        <time>2020-06-06T09:09:47Z</time>
      </trkpt>
      <trkpt lat="48.41802" lon="2.51997">
        <ele>117.3</ele>
        <time>2020-06-06T09:09:51Z</time>
      </trkpt>
      <trkpt lat="48.41809" lon="2.51997">
        <ele>115.9</ele>
        <time>2020-06-06T09:09:55Z</time>
      </trkpt>
      <trkpt lat="48.41806" lon="2.51992">
        <ele>116.9</ele>
        <time>2020-06-06T09:12:53Z</time>
      </trkpt>
      <trkpt lat="48.41802" lon="2.51996">
        <ele>117.3</ele>
        <time>2020-06-06T09:13:13Z</time>
      </trkpt>
      <trkpt lat="48.41794" lon="2.51997">
        <ele>117.8</ele>
        <time>2020-06-06T09:13:17Z</time>
      </trkpt>
      <trkpt lat="48.4179" lon="2.51993">
        <ele>118.1</ele>
        <time>2020-06-06T09:13:21Z</time>
      </trkpt>
      <trkpt lat="48.41783" lon="2.5199">
        <ele>118.6</ele>
        <time>2020-06-06T09:13:25Z</time>
      </trkpt>
      <trkpt lat="48.41778" lon="2.51994">
        <ele>119</ele>
        <time>2020-06-06T09:13:29Z</time>
      </trkpt>
      <trkpt lat="48.41774" lon="2.52009">
        <ele>119</ele>
        <time>2020-06-06T09:13:33Z</time>
      </trkpt>
      <trkpt lat="48.41772" lon="2.5202">
        <ele>119</ele>
        <time>2020-06-06T09:13:35Z</time>
      </trkpt>
      <trkpt lat="48.41769" lon="2.52029">
        <ele>119</ele>
        <time>2020-06-06T09:13:37Z</time>
      </trkpt>
      <trkpt lat="48.41769" lon="2.52037">
        <ele>119</ele>
        <time>2020-06-06T09:13:39Z</time>
      </trkpt>
      <trkpt lat="48.41769" lon="2.52047">
        <ele>119</ele>
        <time>2020-06-06T09:13:41Z</time>
      </trkpt>
      <trkpt lat="48.41772" lon="2.52058">
        <ele>118.9</ele>
        <time>2020-06-06T09:13:43Z</time>
      </trkpt>
      <trkpt lat="48.41777" lon="2.52069">
        <ele>118.5</ele>
        <time>2020-06-06T09:13:45Z</time>
      </trkpt>
      <trkpt lat="48.41779" lon="2.52083">
        <ele>118</ele>
        <time>2020-06-06T09:13:47Z</time>
      </trkpt>
      <trkpt lat="48.4178" lon="2.52097">
        <ele>117.1</ele>
        <time>2020-06-06T09:13:49Z</time>
      </trkpt>
      <trkpt lat="48.41779" lon="2.52111">
        <ele>116.1</ele>
        <time>2020-06-06T09:13:51Z</time>
      </trkpt>
      <trkpt lat="48.41777" lon="2.52124">
        <ele>115.1</ele>
        <time>2020-06-06T09:13:53Z</time>
      </trkpt>
      <trkpt lat="48.41776" lon="2.52137">
        <ele>114.2</ele>
        <time>2020-06-06T09:13:55Z</time>
      </trkpt>
      <trkpt lat="48.41773" lon="2.52154">
        <ele>113.2</ele>
        <time>2020-06-06T09:13:57Z</time>
      </trkpt>
      <trkpt lat="48.41769" lon="2.52169">
        <ele>112.6</ele>
        <time>2020-06-06T09:13:59Z</time>
      </trkpt>
      <trkpt lat="48.41764" lon="2.52179">
        <ele>113</ele>
        <time>2020-06-06T09:14:01Z</time>
      </trkpt>
      <trkpt lat="48.41759" lon="2.52185">
        <ele>113.6</ele>
        <time>2020-06-06T09:14:03Z</time>
      </trkpt>
      <trkpt lat="48.41755" lon="2.5219">
        <ele>114.2</ele>
        <time>2020-06-06T09:14:05Z</time>
      </trkpt>
      <trkpt lat="48.4175" lon="2.52195">
        <ele>115</ele>
        <time>2020-06-06T09:14:07Z</time>
      </trkpt>
      <trkpt lat="48.41744" lon="2.522">
        <ele>115.8</ele>
        <time>2020-06-06T09:14:09Z</time>
      </trkpt>
      <trkpt lat="48.41738" lon="2.52201">
        <ele>116.3</ele>
        <time>2020-06-06T09:14:11Z</time>
      </trkpt>
      <trkpt lat="48.41731" lon="2.52201">
        <ele>116.8</ele>
        <time>2020-06-06T09:14:13Z</time>
      </trkpt>
      <trkpt lat="48.41722" lon="2.52201">
        <ele>117.5</ele>
        <time>2020-06-06T09:14:15Z</time>
      </trkpt>
      <trkpt lat="48.41714" lon="2.52202">
        <ele>117.8</ele>
        <time>2020-06-06T09:14:17Z</time>
      </trkpt>
      <trkpt lat="48.41707" lon="2.52203">
        <ele>118</ele>
        <time>2020-06-06T09:14:19Z</time>
      </trkpt>
      <trkpt lat="48.41698" lon="2.52208">
        <ele>118.4</ele>
        <time>2020-06-06T09:14:21Z</time>
      </trkpt>
      <trkpt lat="48.41693" lon="2.52216">
        <ele>118.8</ele>
        <time>2020-06-06T09:14:23Z</time>
      </trkpt>
      <trkpt lat="48.4169" lon="2.52226">
        <ele>119.3</ele>
        <time>2020-06-06T09:14:25Z</time>
      </trkpt>
      <trkpt lat="48.41688" lon="2.52234">
        <ele>119.5</ele>
        <time>2020-06-06T09:14:27Z</time>
      </trkpt>
      <trkpt lat="48.41685" lon="2.52243">
        <ele>119.6</ele>
        <time>2020-06-06T09:14:29Z</time>
      </trkpt>
      <trkpt lat="48.41682" lon="2.52252">
        <ele>119.6</ele>
        <time>2020-06-06T09:14:31Z</time>
      </trkpt>
      <trkpt lat="48.4168" lon="2.52261">
        <ele>119.9</ele>
        <time>2020-06-06T09:14:33Z</time>
      </trkpt>
      <trkpt lat="48.41677" lon="2.5227">
        <ele>120.1</ele>
        <time>2020-06-06T09:14:35Z</time>
      </trkpt>
      <trkpt lat="48.41673" lon="2.52279">
        <ele>120.3</ele>
        <time>2020-06-06T09:14:37Z</time>
      </trkpt>
      <trkpt lat="48.4167" lon="2.52288">
        <ele>120.4</ele>
        <time>2020-06-06T09:14:39Z</time>
      </trkpt>
      <trkpt lat="48.41666" lon="2.52296">
        <ele>120.7</ele>
        <time>2020-06-06T09:14:41Z</time>
      </trkpt>
      <trkpt lat="48.41663" lon="2.52305">
        <ele>121</ele>
        <time>2020-06-06T09:14:43Z</time>
      </trkpt>
      <trkpt lat="48.41661" lon="2.52314">
        <ele>121</ele>
        <time>2020-06-06T09:14:45Z</time>
      </trkpt>
      <trkpt lat="48.4166" lon="2.52323">
        <ele>121</ele>
        <time>2020-06-06T09:14:47Z</time>
      </trkpt>
      <trkpt lat="48.41657" lon="2.5233">
        <ele>121</ele>
        <time>2020-06-06T09:14:49Z</time>
      </trkpt>
      <trkpt lat="48.41654" lon="2.5234">
        <ele>120.9</ele>
        <time>2020-06-06T09:14:51Z</time>
      </trkpt>
      <trkpt lat="48.4165" lon="2.52352">
        <ele>120.6</ele>
        <time>2020-06-06T09:14:53Z</time>
      </trkpt>
      <trkpt lat="48.41646" lon="2.52364">
        <ele>120.3</ele>
        <time>2020-06-06T09:14:55Z</time>
      </trkpt>
      <trkpt lat="48.41641" lon="2.52378">
        <ele>120.1</ele>
        <time>2020-06-06T09:14:57Z</time>
      </trkpt>
      <trkpt lat="48.41637" lon="2.5239">
        <ele>120</ele>
        <time>2020-06-06T09:14:59Z</time>
      </trkpt>
      <trkpt lat="48.41633" lon="2.52404">
        <ele>120</ele>
        <time>2020-06-06T09:15:01Z</time>
      </trkpt>
      <trkpt lat="48.41629" lon="2.52416">
        <ele>120</ele>
        <time>2020-06-06T09:15:03Z</time>
      </trkpt>
      <trkpt lat="48.41625" lon="2.52429">
        <ele>119.8</ele>
        <time>2020-06-06T09:15:05Z</time>
      </trkpt>
      <trkpt lat="48.41617" lon="2.52438">
        <ele>119.4</ele>
        <time>2020-06-06T09:15:07Z</time>
      </trkpt>
      <trkpt lat="48.41611" lon="2.52448">
        <ele>119.1</ele>
        <time>2020-06-06T09:15:09Z</time>
      </trkpt>
      <trkpt lat="48.41607" lon="2.5246">
        <ele>119.8</ele>
        <time>2020-06-06T09:15:11Z</time>
      </trkpt>
      <trkpt lat="48.41608" lon="2.52472">
        <ele>120.1</ele>
        <time>2020-06-06T09:15:13Z</time>
      </trkpt>
      <trkpt lat="48.41614" lon="2.52482">
        <ele>120.4</ele>
        <time>2020-06-06T09:15:15Z</time>
      </trkpt>
      <trkpt lat="48.41618" lon="2.52491">
        <ele>120.8</ele>
        <time>2020-06-06T09:15:17Z</time>
      </trkpt>
      <trkpt lat="48.41619" lon="2.525">
        <ele>121</ele>
        <time>2020-06-06T09:15:19Z</time>
      </trkpt>
      <trkpt lat="48.41617" lon="2.52511">
        <ele>121</ele>
        <time>2020-06-06T09:15:21Z</time>
      </trkpt>
      <trkpt lat="48.41612" lon="2.5252">
        <ele>121</ele>
        <time>2020-06-06T09:15:23Z</time>
      </trkpt>
      <trkpt lat="48.41607" lon="2.52528">
        <ele>121.1</ele>
        <time>2020-06-06T09:15:25Z</time>
      </trkpt>
      <trkpt lat="48.41603" lon="2.52537">
        <ele>121.3</ele>
        <time>2020-06-06T09:15:27Z</time>
      </trkpt>
      <trkpt lat="48.41599" lon="2.52546">
        <ele>121.4</ele>
        <time>2020-06-06T09:15:29Z</time>
      </trkpt>
      <trkpt lat="48.41595" lon="2.52556">
        <ele>121.6</ele>
        <time>2020-06-06T09:15:31Z</time>
      </trkpt>
      <trkpt lat="48.41592" lon="2.52566">
        <ele>121.7</ele>
        <time>2020-06-06T09:15:33Z</time>
      </trkpt>
      <trkpt lat="48.41589" lon="2.52575">
        <ele>121.8</ele>
        <time>2020-06-06T09:15:35Z</time>
      </trkpt>
      <trkpt lat="48.41586" lon="2.52584">
        <ele>121.9</ele>
        <time>2020-06-06T09:15:37Z</time>
      </trkpt>
      <trkpt lat="48.41583" lon="2.52594">
        <ele>122</ele>
        <time>2020-06-06T09:15:39Z</time>
      </trkpt>
      <trkpt lat="48.4158" lon="2.52602">
        <ele>122.1</ele>
        <time>2020-06-06T09:15:41Z</time>
      </trkpt>
      <trkpt lat="48.41578" lon="2.5261">
        <ele>122.2</ele>
        <time>2020-06-06T09:15:43Z</time>
      </trkpt>
      <trkpt lat="48.41577" lon="2.52621">
        <ele>121.9</ele>
        <time>2020-06-06T09:15:47Z</time>
      </trkpt>
      <trkpt lat="48.41578" lon="2.52632">
        <ele>121.4</ele>
        <time>2020-06-06T09:15:51Z</time>
      </trkpt>
      <trkpt lat="48.41578" lon="2.52638">
        <ele>121.2</ele>
        <time>2020-06-06T09:15:53Z</time>
      </trkpt>
      <trkpt lat="48.41582" lon="2.52652">
        <ele>120.6</ele>
        <time>2020-06-06T09:15:57Z</time>
      </trkpt>
      <trkpt lat="48.41588" lon="2.52655">
        <ele>120.3</ele>
        <time>2020-06-06T09:15:59Z</time>
      </trkpt>
      <trkpt lat="48.41596" lon="2.52662">
        <ele>119.7</ele>
        <time>2020-06-06T09:16:01Z</time>
      </trkpt>
      <trkpt lat="48.41605" lon="2.52674">
        <ele>118.8</ele>
        <time>2020-06-06T09:16:03Z</time>
      </trkpt>
      <trkpt lat="48.4161" lon="2.52686">
        <ele>117.7</ele>
        <time>2020-06-06T09:16:05Z</time>
      </trkpt>
      <trkpt lat="48.41614" lon="2.52701">
        <ele>116.6</ele>
        <time>2020-06-06T09:16:07Z</time>
      </trkpt>
      <trkpt lat="48.41615" lon="2.52714">
        <ele>115.5</ele>
        <time>2020-06-06T09:16:09Z</time>
      </trkpt>
      <trkpt lat="48.41622" lon="2.52724">
        <ele>114.4</ele>
        <time>2020-06-06T09:16:11Z</time>
      </trkpt>
      <trkpt lat="48.41624" lon="2.52738">
        <ele>112.6</ele>
        <time>2020-06-06T09:16:13Z</time>
      </trkpt>
      <trkpt lat="48.4163" lon="2.52754">
        <ele>110</ele>
        <time>2020-06-06T09:16:15Z</time>
      </trkpt>
      <trkpt lat="48.41639" lon="2.52765">
        <ele>107.4</ele>
        <time>2020-06-06T09:16:17Z</time>
      </trkpt>
      <trkpt lat="48.4165" lon="2.52781">
        <ele>106</ele>
        <time>2020-06-06T09:16:19Z</time>
      </trkpt>
      <trkpt lat="48.41658" lon="2.52798">
        <ele>104.5</ele>
        <time>2020-06-06T09:16:21Z</time>
      </trkpt>
      <trkpt lat="48.41663" lon="2.52815">
        <ele>102.6</ele>
        <time>2020-06-06T09:16:23Z</time>
      </trkpt>
      <trkpt lat="48.41666" lon="2.52832">
        <ele>101.3</ele>
        <time>2020-06-06T09:16:25Z</time>
      </trkpt>
      <trkpt lat="48.41665" lon="2.5285">
        <ele>100.4</ele>
        <time>2020-06-06T09:16:27Z</time>
      </trkpt>
      <trkpt lat="48.41662" lon="2.52867">
        <ele>100.4</ele>
        <time>2020-06-06T09:16:29Z</time>
      </trkpt>
      <trkpt lat="48.41661" lon="2.52881">
        <ele>99.7</ele>
        <time>2020-06-06T09:16:31Z</time>
      </trkpt>
      <trkpt lat="48.41666" lon="2.52892">
        <ele>97</ele>
        <time>2020-06-06T09:16:33Z</time>
      </trkpt>
      <trkpt lat="48.41668" lon="2.52904">
        <ele>95.5</ele>
        <time>2020-06-06T09:16:35Z</time>
      </trkpt>
      <trkpt lat="48.41666" lon="2.52914">
        <ele>95.4</ele>
        <time>2020-06-06T09:16:37Z</time>
      </trkpt>
      <trkpt lat="48.41666" lon="2.52924">
        <ele>94.6</ele>
        <time>2020-06-06T09:16:39Z</time>
      </trkpt>
      <trkpt lat="48.41677" lon="2.52928">
        <ele>91.4</ele>
        <time>2020-06-06T09:16:41Z</time>
      </trkpt>
      <trkpt lat="48.41685" lon="2.5293">
        <ele>89.1</ele>
        <time>2020-06-06T09:16:43Z</time>
      </trkpt>
      <trkpt lat="48.4169" lon="2.52929">
        <ele>87.8</ele>
        <time>2020-06-06T09:16:45Z</time>
      </trkpt>
      <trkpt lat="48.41697" lon="2.52931">
        <ele>86</ele>
        <time>2020-06-06T09:16:47Z</time>
      </trkpt>
      <trkpt lat="48.41706" lon="2.52935">
        <ele>84.1</ele>
        <time>2020-06-06T09:16:49Z</time>
      </trkpt>
      <trkpt lat="48.41717" lon="2.52936">
        <ele>82</ele>
        <time>2020-06-06T09:16:51Z</time>
      </trkpt>
      <trkpt lat="48.4173" lon="2.52939">
        <ele>79.7</ele>
        <time>2020-06-06T09:16:53Z</time>
      </trkpt>
      <trkpt lat="48.41743" lon="2.52949">
        <ele>77.5</ele>
        <time>2020-06-06T09:16:55Z</time>
      </trkpt>
      <trkpt lat="48.41755" lon="2.52958">
        <ele>76</ele>
        <time>2020-06-06T09:16:57Z</time>
      </trkpt>
      <trkpt lat="48.41765" lon="2.5297">
        <ele>74.8</ele>
        <time>2020-06-06T09:16:59Z</time>
      </trkpt>
      <trkpt lat="48.41777" lon="2.52979">
        <ele>73.4</ele>
        <time>2020-06-06T09:17:01Z</time>
      </trkpt>
      <trkpt lat="48.41788" lon="2.52992">
        <ele>73.1</ele>
        <time>2020-06-06T09:17:03Z</time>
      </trkpt>
      <trkpt lat="48.41798" lon="2.53007">
        <ele>72.6</ele>
        <time>2020-06-06T09:17:05Z</time>
      </trkpt>
      <trkpt lat="48.41805" lon="2.53025">
        <ele>72.1</ele>
        <time>2020-06-06T09:17:07Z</time>
      </trkpt>
      <trkpt lat="48.41812" lon="2.5304">
        <ele>72.1</ele>
        <time>2020-06-06T09:17:09Z</time>
      </trkpt>
      <trkpt lat="48.41817" lon="2.53053">
        <ele>72.1</ele>
        <time>2020-06-06T09:17:11Z</time>
      </trkpt>
      <trkpt lat="48.41821" lon="2.5306">
        <ele>71.9</ele>
        <time>2020-06-06T09:17:13Z</time>
      </trkpt>
      <trkpt lat="48.41825" lon="2.53064">
        <ele>71.6</ele>
        <time>2020-06-06T09:17:17Z</time>
      </trkpt>
      <trkpt lat="48.41824" lon="2.53075">
        <ele>71.7</ele>
        <time>2020-06-06T09:18:11Z</time>
      </trkpt>
      <trkpt lat="48.41819" lon="2.53085">
        <ele>72</ele>
        <time>2020-06-06T09:18:13Z</time>
      </trkpt>
      <trkpt lat="48.41817" lon="2.53091">
        <ele>72</ele>
        <time>2020-06-06T09:18:15Z</time>
      </trkpt>
      <trkpt lat="48.41814" lon="2.53098">
        <ele>72</ele>
        <time>2020-06-06T09:18:19Z</time>
      </trkpt>
      <trkpt lat="48.41811" lon="2.5311">
        <ele>71.8</ele>
        <time>2020-06-06T09:18:23Z</time>
      </trkpt>
      <trkpt lat="48.4181" lon="2.5312">
        <ele>71.5</ele>
        <time>2020-06-06T09:18:25Z</time>
      </trkpt>
      <trkpt lat="48.41808" lon="2.5313">
        <ele>71.2</ele>
        <time>2020-06-06T09:18:27Z</time>
      </trkpt>
      <trkpt lat="48.41805" lon="2.53142">
        <ele>70.9</ele>
        <time>2020-06-06T09:18:29Z</time>
      </trkpt>
      <trkpt lat="48.41802" lon="2.53151">
        <ele>70.7</ele>
        <time>2020-06-06T09:18:31Z</time>
      </trkpt>
      <trkpt lat="48.41802" lon="2.53165">
        <ele>70.2</ele>
        <time>2020-06-06T09:18:33Z</time>
      </trkpt>
      <trkpt lat="48.41803" lon="2.53178">
        <ele>70.1</ele>
        <time>2020-06-06T09:18:35Z</time>
      </trkpt>
      <trkpt lat="48.41802" lon="2.5319">
        <ele>70.1</ele>
        <time>2020-06-06T09:18:37Z</time>
      </trkpt>
      <trkpt lat="48.418" lon="2.53203">
        <ele>70.1</ele>
        <time>2020-06-06T09:18:39Z</time>
      </trkpt>
      <trkpt lat="48.41797" lon="2.53213">
        <ele>70.1</ele>
        <time>2020-06-06T09:18:41Z</time>
      </trkpt>
      <trkpt lat="48.41794" lon="2.53222">
        <ele>70</ele>
        <time>2020-06-06T09:18:43Z</time>
      </trkpt>
      <trkpt lat="48.41792" lon="2.53233">
        <ele>70</ele>
        <time>2020-06-06T09:18:45Z</time>
      </trkpt>
      <trkpt lat="48.41787" lon="2.53244">
        <ele>70</ele>
        <time>2020-06-06T09:18:47Z</time>
      </trkpt>
      <trkpt lat="48.41782" lon="2.53255">
        <ele>69.8</ele>
        <time>2020-06-06T09:18:49Z</time>
      </trkpt>
      <trkpt lat="48.4178" lon="2.53265">
        <ele>69.5</ele>
        <time>2020-06-06T09:18:51Z</time>
      </trkpt>
      <trkpt lat="48.41783" lon="2.53275">
        <ele>69.1</ele>
        <time>2020-06-06T09:18:53Z</time>
      </trkpt>
      <trkpt lat="48.41784" lon="2.53286">
        <ele>69</ele>
        <time>2020-06-06T09:18:55Z</time>
      </trkpt>
      <trkpt lat="48.41779" lon="2.53297">
        <ele>69</ele>
        <time>2020-06-06T09:18:57Z</time>
      </trkpt>
      <trkpt lat="48.41775" lon="2.53308">
        <ele>69.1</ele>
        <time>2020-06-06T09:18:59Z</time>
      </trkpt>
      <trkpt lat="48.41775" lon="2.53322">
        <ele>69</ele>
        <time>2020-06-06T09:19:01Z</time>
      </trkpt>
      <trkpt lat="48.41774" lon="2.53334">
        <ele>69</ele>
        <time>2020-06-06T09:19:03Z</time>
      </trkpt>
      <trkpt lat="48.41774" lon="2.53345">
        <ele>68.6</ele>
        <time>2020-06-06T09:19:05Z</time>
      </trkpt>
      <trkpt lat="48.41775" lon="2.53356">
        <ele>68.3</ele>
        <time>2020-06-06T09:19:07Z</time>
      </trkpt>
      <trkpt lat="48.41777" lon="2.53368">
        <ele>68</ele>
        <time>2020-06-06T09:19:09Z</time>
      </trkpt>
      <trkpt lat="48.41782" lon="2.53379">
        <ele>68</ele>
        <time>2020-06-06T09:19:11Z</time>
      </trkpt>
      <trkpt lat="48.41787" lon="2.53388">
        <ele>68</ele>
        <time>2020-06-06T09:19:13Z</time>
      </trkpt>
      <trkpt lat="48.41792" lon="2.53397">
        <ele>68</ele>
        <time>2020-06-06T09:19:15Z</time>
      </trkpt>
      <trkpt lat="48.41796" lon="2.53403">
        <ele>68</ele>
        <time>2020-06-06T09:19:17Z</time>
      </trkpt>
      <trkpt lat="48.41801" lon="2.53409">
        <ele>68</ele>
        <time>2020-06-06T09:19:19Z</time>
      </trkpt>
      <trkpt lat="48.41807" lon="2.53418">
        <ele>68.1</ele>
        <time>2020-06-06T09:19:21Z</time>
      </trkpt>
      <trkpt lat="48.41812" lon="2.53429">
        <ele>68.2</ele>
        <time>2020-06-06T09:19:23Z</time>
      </trkpt>
      <trkpt lat="48.41816" lon="2.53439">
        <ele>68.4</ele>
        <time>2020-06-06T09:19:25Z</time>
      </trkpt>
      <trkpt lat="48.41821" lon="2.53448">
        <ele>68.6</ele>
        <time>2020-06-06T09:19:27Z</time>
      </trkpt>
      <trkpt lat="48.41828" lon="2.53459">
        <ele>68.8</ele>
        <time>2020-06-06T09:19:29Z</time>
      </trkpt>
      <trkpt lat="48.41834" lon="2.53467">
        <ele>69</ele>
        <time>2020-06-06T09:19:31Z</time>
      </trkpt>
      <trkpt lat="48.41839" lon="2.53475">
        <ele>69</ele>
        <time>2020-06-06T09:19:33Z</time>
      </trkpt>
      <trkpt lat="48.41844" lon="2.53485">
        <ele>69</ele>
        <time>2020-06-06T09:19:35Z</time>
      </trkpt>
      <trkpt lat="48.41849" lon="2.53494">
        <ele>69</ele>
        <time>2020-06-06T09:19:37Z</time>
      </trkpt>
      <trkpt lat="48.41856" lon="2.53499">
        <ele>69</ele>
        <time>2020-06-06T09:19:39Z</time>
      </trkpt>
      <trkpt lat="48.41861" lon="2.53501">
        <ele>69</ele>
        <time>2020-06-06T09:19:41Z</time>
      </trkpt>
      <trkpt lat="48.41868" lon="2.53508">
        <ele>69</ele>
        <time>2020-06-06T09:19:45Z</time>
      </trkpt>
      <trkpt lat="48.41869" lon="2.53516">
        <ele>69</ele>
        <time>2020-06-06T09:19:53Z</time>
      </trkpt>
      <trkpt lat="48.4187" lon="2.53523">
        <ele>69</ele>
        <time>2020-06-06T09:19:55Z</time>
      </trkpt>
      <trkpt lat="48.41875" lon="2.5353">
        <ele>69</ele>
        <time>2020-06-06T09:19:57Z</time>
      </trkpt>
      <trkpt lat="48.41878" lon="2.53538">
        <ele>69</ele>
        <time>2020-06-06T09:19:59Z</time>
      </trkpt>
      <trkpt lat="48.41883" lon="2.53549">
        <ele>69</ele>
        <time>2020-06-06T09:20:01Z</time>
      </trkpt>
      <trkpt lat="48.41888" lon="2.53559">
        <ele>69</ele>
        <time>2020-06-06T09:20:03Z</time>
      </trkpt>
      <trkpt lat="48.41893" lon="2.53569">
        <ele>69</ele>
        <time>2020-06-06T09:20:05Z</time>
      </trkpt>
      <trkpt lat="48.41896" lon="2.53578">
        <ele>69</ele>
        <time>2020-06-06T09:20:07Z</time>
      </trkpt>
      <trkpt lat="48.419" lon="2.53588">
        <ele>69</ele>
        <time>2020-06-06T09:20:09Z</time>
      </trkpt>
      <trkpt lat="48.41904" lon="2.53597">
        <ele>69</ele>
        <time>2020-06-06T09:20:11Z</time>
      </trkpt>
      <trkpt lat="48.41911" lon="2.53605">
        <ele>69</ele>
        <time>2020-06-06T09:20:13Z</time>
      </trkpt>
      <trkpt lat="48.41914" lon="2.53617">
        <ele>68.8</ele>
        <time>2020-06-06T09:20:15Z</time>
      </trkpt>
      <trkpt lat="48.41917" lon="2.53628">
        <ele>68.4</ele>
        <time>2020-06-06T09:20:17Z</time>
      </trkpt>
      <trkpt lat="48.41921" lon="2.5364">
        <ele>68</ele>
        <time>2020-06-06T09:20:19Z</time>
      </trkpt>
      <trkpt lat="48.41925" lon="2.53652">
        <ele>68</ele>
        <time>2020-06-06T09:20:21Z</time>
      </trkpt>
      <trkpt lat="48.4193" lon="2.53662">
        <ele>68</ele>
        <time>2020-06-06T09:20:23Z</time>
      </trkpt>
      <trkpt lat="48.41933" lon="2.53673">
        <ele>68</ele>
        <time>2020-06-06T09:20:25Z</time>
      </trkpt>
      <trkpt lat="48.41939" lon="2.53684">
        <ele>68</ele>
        <time>2020-06-06T09:20:27Z</time>
      </trkpt>
      <trkpt lat="48.41942" lon="2.53694">
        <ele>68</ele>
        <time>2020-06-06T09:20:29Z</time>
      </trkpt>
      <trkpt lat="48.41947" lon="2.53703">
        <ele>68</ele>
        <time>2020-06-06T09:20:31Z</time>
      </trkpt>
      <trkpt lat="48.4195" lon="2.53715">
        <ele>68</ele>
        <time>2020-06-06T09:20:33Z</time>
      </trkpt>
      <trkpt lat="48.41952" lon="2.53727">
        <ele>68</ele>
        <time>2020-06-06T09:20:35Z</time>
      </trkpt>
      <trkpt lat="48.41955" lon="2.53739">
        <ele>68</ele>
        <time>2020-06-06T09:20:37Z</time>
      </trkpt>
      <trkpt lat="48.41961" lon="2.53751">
        <ele>68</ele>
        <time>2020-06-06T09:20:39Z</time>
      </trkpt>
      <trkpt lat="48.41966" lon="2.53763">
        <ele>68</ele>
        <time>2020-06-06T09:20:41Z</time>
      </trkpt>
      <trkpt lat="48.41967" lon="2.53774">
        <ele>68</ele>
        <time>2020-06-06T09:20:43Z</time>
      </trkpt>
      <trkpt lat="48.41972" lon="2.53785">
        <ele>68</ele>
        <time>2020-06-06T09:20:45Z</time>
      </trkpt>
      <trkpt lat="48.41977" lon="2.53796">
        <ele>68</ele>
        <time>2020-06-06T09:20:47Z</time>
      </trkpt>
      <trkpt lat="48.4198" lon="2.53806">
        <ele>68</ele>
        <time>2020-06-06T09:20:49Z</time>
      </trkpt>
      <trkpt lat="48.41983" lon="2.53817">
        <ele>68</ele>
        <time>2020-06-06T09:20:51Z</time>
      </trkpt>
      <trkpt lat="48.41987" lon="2.53827">
        <ele>68</ele>
        <time>2020-06-06T09:20:53Z</time>
      </trkpt>
      <trkpt lat="48.4199" lon="2.53838">
        <ele>68</ele>
        <time>2020-06-06T09:20:55Z</time>
      </trkpt>
      <trkpt lat="48.41993" lon="2.5385">
        <ele>68</ele>
        <time>2020-06-06T09:20:57Z</time>
      </trkpt>
      <trkpt lat="48.41996" lon="2.53863">
        <ele>68</ele>
        <time>2020-06-06T09:20:59Z</time>
      </trkpt>
      <trkpt lat="48.42" lon="2.53872">
        <ele>68</ele>
        <time>2020-06-06T09:21:01Z</time>
      </trkpt>
      <trkpt lat="48.42003" lon="2.53882">
        <ele>68</ele>
        <time>2020-06-06T09:21:03Z</time>
      </trkpt>
      <trkpt lat="48.42006" lon="2.53892">
        <ele>68</ele>
        <time>2020-06-06T09:21:05Z</time>
      </trkpt>
      <trkpt lat="48.42009" lon="2.53902">
        <ele>68.2</ele>
        <time>2020-06-06T09:21:07Z</time>
      </trkpt>
      <trkpt lat="48.42013" lon="2.53911">
        <ele>68.4</ele>
        <time>2020-06-06T09:21:09Z</time>
      </trkpt>
      <trkpt lat="48.42014" lon="2.53922">
        <ele>68.6</ele>
        <time>2020-06-06T09:21:11Z</time>
      </trkpt>
      <trkpt lat="48.4201" lon="2.53931">
        <ele>68.7</ele>
        <time>2020-06-06T09:21:13Z</time>
      </trkpt>
      <trkpt lat="48.42007" lon="2.53936">
        <ele>68.8</ele>
        <time>2020-06-06T09:21:15Z</time>
      </trkpt>
      <trkpt lat="48.42003" lon="2.53942">
        <ele>68.9</ele>
        <time>2020-06-06T09:21:17Z</time>
      </trkpt>
      <trkpt lat="48.41997" lon="2.53949">
        <ele>68.9</ele>
        <time>2020-06-06T09:21:19Z</time>
      </trkpt>
      <trkpt lat="48.41991" lon="2.53955">
        <ele>68.7</ele>
        <time>2020-06-06T09:21:21Z</time>
      </trkpt>
      <trkpt lat="48.41983" lon="2.53962">
        <ele>68.4</ele>
        <time>2020-06-06T09:21:23Z</time>
      </trkpt>
      <trkpt lat="48.41977" lon="2.53966">
        <ele>68.2</ele>
        <time>2020-06-06T09:21:25Z</time>
      </trkpt>
      <trkpt lat="48.41969" lon="2.53972">
        <ele>68</ele>
        <time>2020-06-06T09:21:27Z</time>
      </trkpt>
      <trkpt lat="48.41962" lon="2.53977">
        <ele>68</ele>
        <time>2020-06-06T09:21:29Z</time>
      </trkpt>
      <trkpt lat="48.41957" lon="2.53982">
        <ele>68</ele>
        <time>2020-06-06T09:21:31Z</time>
      </trkpt>
      <trkpt lat="48.4195" lon="2.53986">
        <ele>68</ele>
        <time>2020-06-06T09:21:33Z</time>
      </trkpt>
      <trkpt lat="48.41944" lon="2.5399">
        <ele>68</ele>
        <time>2020-06-06T09:21:35Z</time>
      </trkpt>
      <trkpt lat="48.41936" lon="2.53994">
        <ele>68</ele>
        <time>2020-06-06T09:21:37Z</time>
      </trkpt>
      <trkpt lat="48.4193" lon="2.53998">
        <ele>68</ele>
        <time>2020-06-06T09:21:39Z</time>
      </trkpt>
      <trkpt lat="48.41924" lon="2.54003">
        <ele>68</ele>
        <time>2020-06-06T09:21:41Z</time>
      </trkpt>
      <trkpt lat="48.4192" lon="2.54009">
        <ele>68</ele>
        <time>2020-06-06T09:21:43Z</time>
      </trkpt>
      <trkpt lat="48.41914" lon="2.54018">
        <ele>68</ele>
        <time>2020-06-06T09:21:45Z</time>
      </trkpt>
      <trkpt lat="48.41911" lon="2.54024">
        <ele>68</ele>
        <time>2020-06-06T09:21:47Z</time>
      </trkpt>
      <trkpt lat="48.41906" lon="2.54028">
        <ele>68</ele>
        <time>2020-06-06T09:21:51Z</time>
      </trkpt>
      <trkpt lat="48.41902" lon="2.54022">
        <ele>68</ele>
        <time>2020-06-06T09:21:55Z</time>
      </trkpt>
      <trkpt lat="48.41897" lon="2.54021">
        <ele>68</ele>
        <time>2020-06-06T09:21:57Z</time>
      </trkpt>
      <trkpt lat="48.41883" lon="2.54025">
        <ele>68</ele>
        <time>2020-06-06T09:22:01Z</time>
      </trkpt>
      <trkpt lat="48.41874" lon="2.54027">
        <ele>68</ele>
        <time>2020-06-06T09:22:03Z</time>
      </trkpt>
      <trkpt lat="48.41866" lon="2.54031">
        <ele>68</ele>
        <time>2020-06-06T09:22:05Z</time>
      </trkpt>
      <trkpt lat="48.41858" lon="2.54032">
        <ele>68</ele>
        <time>2020-06-06T09:22:07Z</time>
      </trkpt>
      <trkpt lat="48.41852" lon="2.54031">
        <ele>68</ele>
        <time>2020-06-06T09:22:09Z</time>
      </trkpt>
      <trkpt lat="48.41844" lon="2.54032">
        <ele>68</ele>
        <time>2020-06-06T09:22:11Z</time>
      </trkpt>
      <trkpt lat="48.41837" lon="2.54035">
        <ele>68</ele>
        <time>2020-06-06T09:22:13Z</time>
      </trkpt>
      <trkpt lat="48.4183" lon="2.54039">
        <ele>68</ele>
        <time>2020-06-06T09:22:15Z</time>
      </trkpt>
      <trkpt lat="48.41822" lon="2.54044">
        <ele>68</ele>
        <time>2020-06-06T09:22:17Z</time>
      </trkpt>
      <trkpt lat="48.41814" lon="2.5405">
        <ele>68</ele>
        <time>2020-06-06T09:22:19Z</time>
      </trkpt>
      <trkpt lat="48.41805" lon="2.54056">
        <ele>68</ele>
        <time>2020-06-06T09:22:21Z</time>
      </trkpt>
      <trkpt lat="48.41796" lon="2.54062">
        <ele>68</ele>
        <time>2020-06-06T09:22:23Z</time>
      </trkpt>
      <trkpt lat="48.41788" lon="2.54066">
        <ele>68</ele>
        <time>2020-06-06T09:22:25Z</time>
      </trkpt>
      <trkpt lat="48.41781" lon="2.54071">
        <ele>68</ele>
        <time>2020-06-06T09:22:27Z</time>
      </trkpt>
      <trkpt lat="48.41775" lon="2.54076">
        <ele>68</ele>
        <time>2020-06-06T09:22:29Z</time>
      </trkpt>
      <trkpt lat="48.4177" lon="2.54081">
        <ele>68</ele>
        <time>2020-06-06T09:22:31Z</time>
      </trkpt>
      <trkpt lat="48.41764" lon="2.54089">
        <ele>68</ele>
        <time>2020-06-06T09:22:33Z</time>
      </trkpt>
      <trkpt lat="48.41758" lon="2.54094">
        <ele>68</ele>
        <time>2020-06-06T09:22:35Z</time>
      </trkpt>
      <trkpt lat="48.41753" lon="2.541">
        <ele>68</ele>
        <time>2020-06-06T09:22:37Z</time>
      </trkpt>
      <trkpt lat="48.41748" lon="2.54106">
        <ele>68</ele>
        <time>2020-06-06T09:22:39Z</time>
      </trkpt>
      <trkpt lat="48.41742" lon="2.54113">
        <ele>68</ele>
        <time>2020-06-06T09:22:41Z</time>
      </trkpt>
      <trkpt lat="48.41736" lon="2.5412">
        <ele>68</ele>
        <time>2020-06-06T09:22:43Z</time>
      </trkpt>
      <trkpt lat="48.4173" lon="2.54126">
        <ele>68</ele>
        <time>2020-06-06T09:22:45Z</time>
      </trkpt>
      <trkpt lat="48.41725" lon="2.54132">
        <ele>68</ele>
        <time>2020-06-06T09:22:47Z</time>
      </trkpt>
      <trkpt lat="48.41719" lon="2.54139">
        <ele>68</ele>
        <time>2020-06-06T09:22:49Z</time>
      </trkpt>
      <trkpt lat="48.41715" lon="2.54146">
        <ele>68</ele>
        <time>2020-06-06T09:22:51Z</time>
      </trkpt>
      <trkpt lat="48.41707" lon="2.54154">
        <ele>68</ele>
        <time>2020-06-06T09:22:53Z</time>
      </trkpt>
      <trkpt lat="48.41701" lon="2.54163">
        <ele>68</ele>
        <time>2020-06-06T09:22:55Z</time>
      </trkpt>
      <trkpt lat="48.41695" lon="2.5417">
        <ele>68</ele>
        <time>2020-06-06T09:22:57Z</time>
      </trkpt>
      <trkpt lat="48.4169" lon="2.54177">
        <ele>68.2</ele>
        <time>2020-06-06T09:22:59Z</time>
      </trkpt>
      <trkpt lat="48.41686" lon="2.54186">
        <ele>68.3</ele>
        <time>2020-06-06T09:23:01Z</time>
      </trkpt>
      <trkpt lat="48.4168" lon="2.54193">
        <ele>68.5</ele>
        <time>2020-06-06T09:23:03Z</time>
      </trkpt>
      <trkpt lat="48.41675" lon="2.54201">
        <ele>68.7</ele>
        <time>2020-06-06T09:23:05Z</time>
      </trkpt>
      <trkpt lat="48.41669" lon="2.5421">
        <ele>68.9</ele>
        <time>2020-06-06T09:23:07Z</time>
      </trkpt>
      <trkpt lat="48.41663" lon="2.54221">
        <ele>69</ele>
        <time>2020-06-06T09:23:09Z</time>
      </trkpt>
      <trkpt lat="48.41659" lon="2.5423">
        <ele>69</ele>
        <time>2020-06-06T09:23:11Z</time>
      </trkpt>
      <trkpt lat="48.41653" lon="2.54239">
        <ele>69</ele>
        <time>2020-06-06T09:23:13Z</time>
      </trkpt>
      <trkpt lat="48.41649" lon="2.54249">
        <ele>69</ele>
        <time>2020-06-06T09:23:15Z</time>
      </trkpt>
      <trkpt lat="48.41648" lon="2.54259">
        <ele>69</ele>
        <time>2020-06-06T09:23:17Z</time>
      </trkpt>
      <trkpt lat="48.41645" lon="2.54269">
        <ele>69</ele>
        <time>2020-06-06T09:23:19Z</time>
      </trkpt>
      <trkpt lat="48.41642" lon="2.54278">
        <ele>69</ele>
        <time>2020-06-06T09:23:21Z</time>
      </trkpt>
      <trkpt lat="48.4164" lon="2.5429">
        <ele>69</ele>
        <time>2020-06-06T09:23:23Z</time>
      </trkpt>
      <trkpt lat="48.41633" lon="2.54297">
        <ele>69</ele>
        <time>2020-06-06T09:23:25Z</time>
      </trkpt>
      <trkpt lat="48.4163" lon="2.54309">
        <ele>68.9</ele>
        <time>2020-06-06T09:23:29Z</time>
      </trkpt>
      <trkpt lat="48.41627" lon="2.54316">
        <ele>68.8</ele>
        <time>2020-06-06T09:23:31Z</time>
      </trkpt>
      <trkpt lat="48.41624" lon="2.54324">
        <ele>68.7</ele>
        <time>2020-06-06T09:23:33Z</time>
      </trkpt>
      <trkpt lat="48.41619" lon="2.54333">
        <ele>68.7</ele>
        <time>2020-06-06T09:23:35Z</time>
      </trkpt>
      <trkpt lat="48.41615" lon="2.54341">
        <ele>68.6</ele>
        <time>2020-06-06T09:23:37Z</time>
      </trkpt>
      <trkpt lat="48.41611" lon="2.54348">
        <ele>68.5</ele>
        <time>2020-06-06T09:23:39Z</time>
      </trkpt>
      <trkpt lat="48.41605" lon="2.54357">
        <ele>68.3</ele>
        <time>2020-06-06T09:23:41Z</time>
      </trkpt>
      <trkpt lat="48.41598" lon="2.54366">
        <ele>68.5</ele>
        <time>2020-06-06T09:23:43Z</time>
      </trkpt>
      <trkpt lat="48.41595" lon="2.54375">
        <ele>68.6</ele>
        <time>2020-06-06T09:23:45Z</time>
      </trkpt>
      <trkpt lat="48.41591" lon="2.54384">
        <ele>68.7</ele>
        <time>2020-06-06T09:23:47Z</time>
      </trkpt>
      <trkpt lat="48.41588" lon="2.54392">
        <ele>68.7</ele>
        <time>2020-06-06T09:23:49Z</time>
      </trkpt>
      <trkpt lat="48.41586" lon="2.54401">
        <ele>68.5</ele>
        <time>2020-06-06T09:23:51Z</time>
      </trkpt>
      <trkpt lat="48.41584" lon="2.54409">
        <ele>68.3</ele>
        <time>2020-06-06T09:23:53Z</time>
      </trkpt>
      <trkpt lat="48.4158" lon="2.54421">
        <ele>68.1</ele>
        <time>2020-06-06T09:23:55Z</time>
      </trkpt>
      <trkpt lat="48.41576" lon="2.54432">
        <ele>68.1</ele>
        <time>2020-06-06T09:23:57Z</time>
      </trkpt>
      <trkpt lat="48.41571" lon="2.54442">
        <ele>68</ele>
        <time>2020-06-06T09:23:59Z</time>
      </trkpt>
      <trkpt lat="48.41567" lon="2.54451">
        <ele>67.9</ele>
        <time>2020-06-06T09:24:01Z</time>
      </trkpt>
      <trkpt lat="48.41563" lon="2.54459">
        <ele>67.9</ele>
        <time>2020-06-06T09:24:03Z</time>
      </trkpt>
      <trkpt lat="48.41559" lon="2.54468">
        <ele>67.9</ele>
        <time>2020-06-06T09:24:05Z</time>
      </trkpt>
      <trkpt lat="48.41556" lon="2.54477">
        <ele>67.8</ele>
        <time>2020-06-06T09:24:07Z</time>
      </trkpt>
      <trkpt lat="48.41553" lon="2.54483">
        <ele>67.6</ele>
        <time>2020-06-06T09:24:09Z</time>
      </trkpt>
      <trkpt lat="48.41544" lon="2.54478">
        <ele>67.9</ele>
        <time>2020-06-06T09:24:13Z</time>
      </trkpt>
      <trkpt lat="48.41538" lon="2.54474">
        <ele>68</ele>
        <time>2020-06-06T09:24:15Z</time>
      </trkpt>
      <trkpt lat="48.41533" lon="2.5447">
        <ele>68.1</ele>
        <time>2020-06-06T09:24:17Z</time>
      </trkpt>
      <trkpt lat="48.41528" lon="2.54464">
        <ele>68.3</ele>
        <time>2020-06-06T09:24:19Z</time>
      </trkpt>
      <trkpt lat="48.41523" lon="2.54457">
        <ele>68.6</ele>
        <time>2020-06-06T09:24:21Z</time>
      </trkpt>
      <trkpt lat="48.41516" lon="2.54452">
        <ele>68.8</ele>
        <time>2020-06-06T09:24:23Z</time>
      </trkpt>
      <trkpt lat="48.41512" lon="2.54446">
        <ele>69</ele>
        <time>2020-06-06T09:24:25Z</time>
      </trkpt>
      <trkpt lat="48.41508" lon="2.54441">
        <ele>69</ele>
        <time>2020-06-06T09:24:27Z</time>
      </trkpt>
      <trkpt lat="48.41503" lon="2.54437">
        <ele>69</ele>
        <time>2020-06-06T09:24:29Z</time>
      </trkpt>
      <trkpt lat="48.41499" lon="2.54435">
        <ele>69</ele>
        <time>2020-06-06T09:24:31Z</time>
      </trkpt>
      <trkpt lat="48.41493" lon="2.54429">
        <ele>69.3</ele>
        <time>2020-06-06T09:24:35Z</time>
      </trkpt>
      <trkpt lat="48.41489" lon="2.54433">
        <ele>69.4</ele>
        <time>2020-06-06T09:24:39Z</time>
      </trkpt>
      <trkpt lat="48.41482" lon="2.54434">
        <ele>69.6</ele>
        <time>2020-06-06T09:24:43Z</time>
      </trkpt>
      <trkpt lat="48.41478" lon="2.54432">
        <ele>69.8</ele>
        <time>2020-06-06T09:24:45Z</time>
      </trkpt>
      <trkpt lat="48.41469" lon="2.54427">
        <ele>70.2</ele>
        <time>2020-06-06T09:24:47Z</time>
      </trkpt>
      <trkpt lat="48.41461" lon="2.54423">
        <ele>70.5</ele>
        <time>2020-06-06T09:24:49Z</time>
      </trkpt>
      <trkpt lat="48.41454" lon="2.54419">
        <ele>70.7</ele>
        <time>2020-06-06T09:24:51Z</time>
      </trkpt>
      <trkpt lat="48.41448" lon="2.54416">
        <ele>70.9</ele>
        <time>2020-06-06T09:24:53Z</time>
      </trkpt>
      <trkpt lat="48.41443" lon="2.54413">
        <ele>71</ele>
        <time>2020-06-06T09:24:55Z</time>
      </trkpt>
      <trkpt lat="48.41435" lon="2.54409">
        <ele>71.2</ele>
        <time>2020-06-06T09:24:59Z</time>
      </trkpt>
      <trkpt lat="48.41427" lon="2.54407">
        <ele>71.4</ele>
        <time>2020-06-06T09:25:01Z</time>
      </trkpt>
      <trkpt lat="48.41421" lon="2.54405">
        <ele>71.5</ele>
        <time>2020-06-06T09:25:03Z</time>
      </trkpt>
      <trkpt lat="48.41413" lon="2.544">
        <ele>71.7</ele>
        <time>2020-06-06T09:25:07Z</time>
      </trkpt>
      <trkpt lat="48.41408" lon="2.54398">
        <ele>72</ele>
        <time>2020-06-06T09:25:09Z</time>
      </trkpt>
      <trkpt lat="48.41404" lon="2.54393">
        <ele>72.1</ele>
        <time>2020-06-06T09:25:11Z</time>
      </trkpt>
      <trkpt lat="48.414" lon="2.54386">
        <ele>72.1</ele>
        <time>2020-06-06T09:25:13Z</time>
      </trkpt>
      <trkpt lat="48.41393" lon="2.54384">
        <ele>72.6</ele>
        <time>2020-06-06T09:25:15Z</time>
      </trkpt>
      <trkpt lat="48.41389" lon="2.5438">
        <ele>72.7</ele>
        <time>2020-06-06T09:25:17Z</time>
      </trkpt>
      <trkpt lat="48.41384" lon="2.54377">
        <ele>72.7</ele>
        <time>2020-06-06T09:25:19Z</time>
      </trkpt>
      <trkpt lat="48.41376" lon="2.54375">
        <ele>73</ele>
        <time>2020-06-06T09:25:23Z</time>
      </trkpt>
      <trkpt lat="48.41371" lon="2.54378">
        <ele>73.3</ele>
        <time>2020-06-06T09:25:25Z</time>
      </trkpt>
      <trkpt lat="48.41366" lon="2.54384">
        <ele>73.6</ele>
        <time>2020-06-06T09:25:27Z</time>
      </trkpt>
      <trkpt lat="48.41361" lon="2.54388">
        <ele>74</ele>
        <time>2020-06-06T09:25:29Z</time>
      </trkpt>
      <trkpt lat="48.41356" lon="2.54392">
        <ele>74</ele>
        <time>2020-06-06T09:25:31Z</time>
      </trkpt>
      <trkpt lat="48.41351" lon="2.54398">
        <ele>74.1</ele>
        <time>2020-06-06T09:25:33Z</time>
      </trkpt>
      <trkpt lat="48.41345" lon="2.54403">
        <ele>74.3</ele>
        <time>2020-06-06T09:25:35Z</time>
      </trkpt>
      <trkpt lat="48.41341" lon="2.5441">
        <ele>74.6</ele>
        <time>2020-06-06T09:25:37Z</time>
      </trkpt>
      <trkpt lat="48.41337" lon="2.54417">
        <ele>74.9</ele>
        <time>2020-06-06T09:25:39Z</time>
      </trkpt>
      <trkpt lat="48.41334" lon="2.54426">
        <ele>75</ele>
        <time>2020-06-06T09:25:41Z</time>
      </trkpt>
      <trkpt lat="48.41331" lon="2.54432">
        <ele>75.1</ele>
        <time>2020-06-06T09:25:43Z</time>
      </trkpt>
      <trkpt lat="48.4133" lon="2.5444">
        <ele>75.1</ele>
        <time>2020-06-06T09:25:45Z</time>
      </trkpt>
      <trkpt lat="48.41328" lon="2.54447">
        <ele>75.3</ele>
        <time>2020-06-06T09:25:47Z</time>
      </trkpt>
      <trkpt lat="48.41325" lon="2.54453">
        <ele>75.5</ele>
        <time>2020-06-06T09:25:49Z</time>
      </trkpt>
      <trkpt lat="48.4132" lon="2.5446">
        <ele>75.8</ele>
        <time>2020-06-06T09:25:51Z</time>
      </trkpt>
      <trkpt lat="48.41317" lon="2.54465">
        <ele>75.9</ele>
        <time>2020-06-06T09:25:53Z</time>
      </trkpt>
      <trkpt lat="48.41313" lon="2.54476">
        <ele>76.1</ele>
        <time>2020-06-06T09:25:55Z</time>
      </trkpt>
      <trkpt lat="48.41309" lon="2.54484">
        <ele>76.4</ele>
        <time>2020-06-06T09:25:57Z</time>
      </trkpt>
      <trkpt lat="48.41306" lon="2.54491">
        <ele>76.7</ele>
        <time>2020-06-06T09:25:59Z</time>
      </trkpt>
      <trkpt lat="48.41302" lon="2.54497">
        <ele>77</ele>
        <time>2020-06-06T09:26:01Z</time>
      </trkpt>
      <trkpt lat="48.41297" lon="2.54502">
        <ele>77.3</ele>
        <time>2020-06-06T09:26:03Z</time>
      </trkpt>
      <trkpt lat="48.41293" lon="2.54508">
        <ele>77.5</ele>
        <time>2020-06-06T09:26:07Z</time>
      </trkpt>
      <trkpt lat="48.41286" lon="2.54505">
        <ele>77.7</ele>
        <time>2020-06-06T09:26:11Z</time>
      </trkpt>
      <trkpt lat="48.41283" lon="2.54499">
        <ele>77.8</ele>
        <time>2020-06-06T09:26:13Z</time>
      </trkpt>
      <trkpt lat="48.41281" lon="2.54493">
        <ele>77.9</ele>
        <time>2020-06-06T09:26:15Z</time>
      </trkpt>
      <trkpt lat="48.41278" lon="2.54488">
        <ele>78</ele>
        <time>2020-06-06T09:26:17Z</time>
      </trkpt>
      <trkpt lat="48.41275" lon="2.54481">
        <ele>78.2</ele>
        <time>2020-06-06T09:26:19Z</time>
      </trkpt>
      <trkpt lat="48.4127" lon="2.54474">
        <ele>78.5</ele>
        <time>2020-06-06T09:26:23Z</time>
      </trkpt>
      <trkpt lat="48.41265" lon="2.54469">
        <ele>79</ele>
        <time>2020-06-06T09:26:25Z</time>
      </trkpt>
      <trkpt lat="48.41261" lon="2.54465">
        <ele>79.5</ele>
        <time>2020-06-06T09:26:27Z</time>
      </trkpt>
      <trkpt lat="48.41257" lon="2.54461">
        <ele>80.1</ele>
        <time>2020-06-06T09:26:29Z</time>
      </trkpt>
      <trkpt lat="48.41255" lon="2.54455">
        <ele>80.7</ele>
        <time>2020-06-06T09:26:31Z</time>
      </trkpt>
      <trkpt lat="48.41248" lon="2.54444">
        <ele>82.2</ele>
        <time>2020-06-06T09:26:35Z</time>
      </trkpt>
      <trkpt lat="48.41242" lon="2.54439">
        <ele>83.1</ele>
        <time>2020-06-06T09:26:39Z</time>
      </trkpt>
      <trkpt lat="48.41238" lon="2.54435">
        <ele>83.6</ele>
        <time>2020-06-06T09:26:41Z</time>
      </trkpt>
      <trkpt lat="48.41231" lon="2.54429">
        <ele>84.6</ele>
        <time>2020-06-06T09:26:45Z</time>
      </trkpt>
      <trkpt lat="48.41228" lon="2.54425">
        <ele>85.1</ele>
        <time>2020-06-06T09:26:47Z</time>
      </trkpt>
      <trkpt lat="48.41224" lon="2.5442">
        <ele>85.7</ele>
        <time>2020-06-06T09:26:49Z</time>
      </trkpt>
      <trkpt lat="48.41216" lon="2.54412">
        <ele>86.3</ele>
        <time>2020-06-06T09:26:53Z</time>
      </trkpt>
      <trkpt lat="48.41211" lon="2.54408">
        <ele>86.4</ele>
        <time>2020-06-06T09:26:55Z</time>
      </trkpt>
      <trkpt lat="48.41205" lon="2.54407">
        <ele>86.3</ele>
        <time>2020-06-06T09:26:57Z</time>
      </trkpt>
      <trkpt lat="48.41199" lon="2.5441">
        <ele>86.1</ele>
        <time>2020-06-06T09:26:59Z</time>
      </trkpt>
      <trkpt lat="48.41193" lon="2.54415">
        <ele>86</ele>
        <time>2020-06-06T09:27:03Z</time>
      </trkpt>
      <trkpt lat="48.41187" lon="2.54419">
        <ele>85.9</ele>
        <time>2020-06-06T09:27:07Z</time>
      </trkpt>
      <trkpt lat="48.41183" lon="2.54426">
        <ele>85.8</ele>
        <time>2020-06-06T09:27:27Z</time>
      </trkpt>
      <trkpt lat="48.41182" lon="2.54433">
        <ele>85.7</ele>
        <time>2020-06-06T09:27:31Z</time>
      </trkpt>
      <trkpt lat="48.41176" lon="2.54435">
        <ele>85.8</ele>
        <time>2020-06-06T09:27:33Z</time>
      </trkpt>
      <trkpt lat="48.41171" lon="2.5444">
        <ele>85.9</ele>
        <time>2020-06-06T09:27:37Z</time>
      </trkpt>
      <trkpt lat="48.41164" lon="2.54444">
        <ele>86.2</ele>
        <time>2020-06-06T09:27:41Z</time>
      </trkpt>
      <trkpt lat="48.41162" lon="2.54451">
        <ele>86.1</ele>
        <time>2020-06-06T09:27:49Z</time>
      </trkpt>
      <trkpt lat="48.41154" lon="2.5446">
        <ele>86.6</ele>
        <time>2020-06-06T09:27:53Z</time>
      </trkpt>
      <trkpt lat="48.41147" lon="2.54464">
        <ele>87.2</ele>
        <time>2020-06-06T09:27:55Z</time>
      </trkpt>
      <trkpt lat="48.41141" lon="2.5447">
        <ele>87.8</ele>
        <time>2020-06-06T09:27:57Z</time>
      </trkpt>
      <trkpt lat="48.41137" lon="2.54477">
        <ele>87.9</ele>
        <time>2020-06-06T09:27:59Z</time>
      </trkpt>
      <trkpt lat="48.41131" lon="2.5448">
        <ele>88.7</ele>
        <time>2020-06-06T09:28:01Z</time>
      </trkpt>
      <trkpt lat="48.41125" lon="2.54482">
        <ele>89.5</ele>
        <time>2020-06-06T09:28:05Z</time>
      </trkpt>
      <trkpt lat="48.41119" lon="2.54486">
        <ele>90.2</ele>
        <time>2020-06-06T09:28:09Z</time>
      </trkpt>
      <trkpt lat="48.41114" lon="2.5449">
        <ele>90.9</ele>
        <time>2020-06-06T09:28:13Z</time>
      </trkpt>
      <trkpt lat="48.41109" lon="2.54492">
        <ele>91.3</ele>
        <time>2020-06-06T09:28:27Z</time>
      </trkpt>
      <trkpt lat="48.41104" lon="2.5449">
        <ele>91.5</ele>
        <time>2020-06-06T09:28:43Z</time>
      </trkpt>
      <trkpt lat="48.41099" lon="2.54489">
        <ele>91.7</ele>
        <time>2020-06-06T09:28:55Z</time>
      </trkpt>
      <trkpt lat="48.41095" lon="2.54486">
        <ele>91.8</ele>
        <time>2020-06-06T09:29:05Z</time>
      </trkpt>
      <trkpt lat="48.4109" lon="2.54484">
        <ele>91.9</ele>
        <time>2020-06-06T09:29:23Z</time>
      </trkpt>
      <trkpt lat="48.41085" lon="2.54484">
        <ele>92</ele>
        <time>2020-06-06T09:29:39Z</time>
      </trkpt>
      <trkpt lat="48.4108" lon="2.54486">
        <ele>91.2</ele>
        <time>2020-06-06T09:29:45Z</time>
      </trkpt>
      <trkpt lat="48.41076" lon="2.54481">
        <ele>90.3</ele>
        <time>2020-06-06T09:30:09Z</time>
      </trkpt>
      <trkpt lat="48.41075" lon="2.54473">
        <ele>90.2</ele>
        <time>2020-06-06T09:30:17Z</time>
      </trkpt>
      <trkpt lat="48.41076" lon="2.54462">
        <ele>89.9</ele>
        <time>2020-06-06T09:30:21Z</time>
      </trkpt>
      <trkpt lat="48.41072" lon="2.54455">
        <ele>88.8</ele>
        <time>2020-06-06T09:30:25Z</time>
      </trkpt>
      <trkpt lat="48.41067" lon="2.54453">
        <ele>87.9</ele>
        <time>2020-06-06T09:30:29Z</time>
      </trkpt>
      <trkpt lat="48.41061" lon="2.54452">
        <ele>86.9</ele>
        <time>2020-06-06T09:30:33Z</time>
      </trkpt>
      <trkpt lat="48.41056" lon="2.54451">
        <ele>86.1</ele>
        <time>2020-06-06T09:30:43Z</time>
      </trkpt>
      <trkpt lat="48.41051" lon="2.54448">
        <ele>85</ele>
        <time>2020-06-06T09:30:57Z</time>
      </trkpt>
      <trkpt lat="48.41048" lon="2.54443">
        <ele>84.3</ele>
        <time>2020-06-06T09:31:05Z</time>
      </trkpt>
      <trkpt lat="48.41042" lon="2.54443">
        <ele>83.1</ele>
        <time>2020-06-06T09:31:09Z</time>
      </trkpt>
      <trkpt lat="48.41038" lon="2.54447">
        <ele>82.1</ele>
        <time>2020-06-06T09:31:11Z</time>
      </trkpt>
      <trkpt lat="48.4103" lon="2.54456">
        <ele>80.1</ele>
        <time>2020-06-06T09:31:15Z</time>
      </trkpt>
      <trkpt lat="48.4103" lon="2.54469">
        <ele>79.7</ele>
        <time>2020-06-06T09:31:19Z</time>
      </trkpt>
      <trkpt lat="48.41025" lon="2.54476">
        <ele>78.5</ele>
        <time>2020-06-06T09:31:21Z</time>
      </trkpt>
      <trkpt lat="48.4102" lon="2.54486">
        <ele>77.4</ele>
        <time>2020-06-06T09:31:23Z</time>
      </trkpt>
      <trkpt lat="48.41018" lon="2.54497">
        <ele>76.7</ele>
        <time>2020-06-06T09:31:25Z</time>
      </trkpt>
      <trkpt lat="48.41016" lon="2.54505">
        <ele>76</ele>
        <time>2020-06-06T09:31:27Z</time>
      </trkpt>
      <trkpt lat="48.41017" lon="2.54521">
        <ele>75.2</ele>
        <time>2020-06-06T09:31:31Z</time>
      </trkpt>
      <trkpt lat="48.41017" lon="2.54532">
        <ele>74.7</ele>
        <time>2020-06-06T09:31:33Z</time>
      </trkpt>
      <trkpt lat="48.41017" lon="2.54544">
        <ele>74.5</ele>
        <time>2020-06-06T09:31:37Z</time>
      </trkpt>
      <trkpt lat="48.41015" lon="2.54552">
        <ele>74.1</ele>
        <time>2020-06-06T09:31:41Z</time>
      </trkpt>
      <trkpt lat="48.41011" lon="2.54558">
        <ele>73.7</ele>
        <time>2020-06-06T09:31:43Z</time>
      </trkpt>
      <trkpt lat="48.41008" lon="2.54566">
        <ele>73.2</ele>
        <time>2020-06-06T09:31:45Z</time>
      </trkpt>
      <trkpt lat="48.41006" lon="2.54576">
        <ele>72.7</ele>
        <time>2020-06-06T09:31:49Z</time>
      </trkpt>
      <trkpt lat="48.41003" lon="2.54582">
        <ele>72.3</ele>
        <time>2020-06-06T09:31:51Z</time>
      </trkpt>
      <trkpt lat="48.40997" lon="2.54588">
        <ele>71.5</ele>
        <time>2020-06-06T09:31:53Z</time>
      </trkpt>
      <trkpt lat="48.4099" lon="2.54599">
        <ele>70.6</ele>
        <time>2020-06-06T09:31:57Z</time>
      </trkpt>
      <trkpt lat="48.40987" lon="2.54605">
        <ele>70.2</ele>
        <time>2020-06-06T09:31:59Z</time>
      </trkpt>
      <trkpt lat="48.40984" lon="2.54613">
        <ele>69.8</ele>
        <time>2020-06-06T09:32:01Z</time>
      </trkpt>
      <trkpt lat="48.40981" lon="2.54619">
        <ele>69.3</ele>
        <time>2020-06-06T09:32:03Z</time>
      </trkpt>
      <trkpt lat="48.40978" lon="2.54631">
        <ele>68.7</ele>
        <time>2020-06-06T09:32:07Z</time>
      </trkpt>
      <trkpt lat="48.40975" lon="2.54639">
        <ele>68.2</ele>
        <time>2020-06-06T09:32:09Z</time>
      </trkpt>
      <trkpt lat="48.4097" lon="2.54644">
        <ele>68</ele>
        <time>2020-06-06T09:32:11Z</time>
      </trkpt>
      <trkpt lat="48.40967" lon="2.54649">
        <ele>68</ele>
        <time>2020-06-06T09:32:27Z</time>
      </trkpt>
      <trkpt lat="48.40961" lon="2.54645">
        <ele>68</ele>
        <time>2020-06-06T09:32:49Z</time>
      </trkpt>
      <trkpt lat="48.40957" lon="2.54635">
        <ele>68.1</ele>
        <time>2020-06-06T09:32:53Z</time>
      </trkpt>
      <trkpt lat="48.40953" lon="2.5463">
        <ele>68.1</ele>
        <time>2020-06-06T09:32:55Z</time>
      </trkpt>
      <trkpt lat="48.40949" lon="2.54623">
        <ele>68.1</ele>
        <time>2020-06-06T09:32:57Z</time>
      </trkpt>
      <trkpt lat="48.40946" lon="2.54616">
        <ele>68</ele>
        <time>2020-06-06T09:32:59Z</time>
      </trkpt>
      <trkpt lat="48.40942" lon="2.54608">
        <ele>67.9</ele>
        <time>2020-06-06T09:33:01Z</time>
      </trkpt>
      <trkpt lat="48.40937" lon="2.54601">
        <ele>67.7</ele>
        <time>2020-06-06T09:33:03Z</time>
      </trkpt>
      <trkpt lat="48.40933" lon="2.54592">
        <ele>67.6</ele>
        <time>2020-06-06T09:33:05Z</time>
      </trkpt>
      <trkpt lat="48.4093" lon="2.54582">
        <ele>67.5</ele>
        <time>2020-06-06T09:33:07Z</time>
      </trkpt>
      <trkpt lat="48.40927" lon="2.54573">
        <ele>67.4</ele>
        <time>2020-06-06T09:33:09Z</time>
      </trkpt>
      <trkpt lat="48.40923" lon="2.54567">
        <ele>67.2</ele>
        <time>2020-06-06T09:33:11Z</time>
      </trkpt>
      <trkpt lat="48.4092" lon="2.5456">
        <ele>67.1</ele>
        <time>2020-06-06T09:33:13Z</time>
      </trkpt>
      <trkpt lat="48.40915" lon="2.54554">
        <ele>67.1</ele>
        <time>2020-06-06T09:33:15Z</time>
      </trkpt>
      <trkpt lat="48.40909" lon="2.54542">
        <ele>67.4</ele>
        <time>2020-06-06T09:33:17Z</time>
      </trkpt>
      <trkpt lat="48.40903" lon="2.54535">
        <ele>67.4</ele>
        <time>2020-06-06T09:33:19Z</time>
      </trkpt>
      <trkpt lat="48.40899" lon="2.54527">
        <ele>67.4</ele>
        <time>2020-06-06T09:33:21Z</time>
      </trkpt>
      <trkpt lat="48.40892" lon="2.54519">
        <ele>67.1</ele>
        <time>2020-06-06T09:33:23Z</time>
      </trkpt>
      <trkpt lat="48.40886" lon="2.54511">
        <ele>67</ele>
        <time>2020-06-06T09:33:25Z</time>
      </trkpt>
      <trkpt lat="48.40881" lon="2.54504">
        <ele>67</ele>
        <time>2020-06-06T09:33:27Z</time>
      </trkpt>
      <trkpt lat="48.40878" lon="2.54496">
        <ele>67.1</ele>
        <time>2020-06-06T09:33:29Z</time>
      </trkpt>
      <trkpt lat="48.40872" lon="2.54489">
        <ele>67.4</ele>
        <time>2020-06-06T09:33:31Z</time>
      </trkpt>
      <trkpt lat="48.40868" lon="2.5448">
        <ele>67.7</ele>
        <time>2020-06-06T09:33:33Z</time>
      </trkpt>
      <trkpt lat="48.40862" lon="2.54472">
        <ele>68</ele>
        <time>2020-06-06T09:33:35Z</time>
      </trkpt>
      <trkpt lat="48.40858" lon="2.54462">
        <ele>68</ele>
        <time>2020-06-06T09:33:37Z</time>
      </trkpt>
      <trkpt lat="48.40851" lon="2.54454">
        <ele>68</ele>
        <time>2020-06-06T09:33:39Z</time>
      </trkpt>
      <trkpt lat="48.40846" lon="2.54447">
        <ele>68</ele>
        <time>2020-06-06T09:33:41Z</time>
      </trkpt>
      <trkpt lat="48.40842" lon="2.54438">
        <ele>68.2</ele>
        <time>2020-06-06T09:33:43Z</time>
      </trkpt>
      <trkpt lat="48.40838" lon="2.5443">
        <ele>68.5</ele>
        <time>2020-06-06T09:33:45Z</time>
      </trkpt>
      <trkpt lat="48.40834" lon="2.54423">
        <ele>68.8</ele>
        <time>2020-06-06T09:33:47Z</time>
      </trkpt>
      <trkpt lat="48.40831" lon="2.54414">
        <ele>69.1</ele>
        <time>2020-06-06T09:33:49Z</time>
      </trkpt>
      <trkpt lat="48.4083" lon="2.54406">
        <ele>69.3</ele>
        <time>2020-06-06T09:33:51Z</time>
      </trkpt>
      <trkpt lat="48.40829" lon="2.54398">
        <ele>69.6</ele>
        <time>2020-06-06T09:33:53Z</time>
      </trkpt>
      <trkpt lat="48.4083" lon="2.5439">
        <ele>69.8</ele>
        <time>2020-06-06T09:33:55Z</time>
      </trkpt>
      <trkpt lat="48.40833" lon="2.54379">
        <ele>70</ele>
        <time>2020-06-06T09:33:57Z</time>
      </trkpt>
      <trkpt lat="48.40834" lon="2.54369">
        <ele>70</ele>
        <time>2020-06-06T09:33:59Z</time>
      </trkpt>
      <trkpt lat="48.40837" lon="2.5436">
        <ele>70</ele>
        <time>2020-06-06T09:34:01Z</time>
      </trkpt>
      <trkpt lat="48.40838" lon="2.54352">
        <ele>70.3</ele>
        <time>2020-06-06T09:34:03Z</time>
      </trkpt>
      <trkpt lat="48.40838" lon="2.54343">
        <ele>70.7</ele>
        <time>2020-06-06T09:34:05Z</time>
      </trkpt>
      <trkpt lat="48.40835" lon="2.54334">
        <ele>71</ele>
        <time>2020-06-06T09:34:07Z</time>
      </trkpt>
      <trkpt lat="48.40832" lon="2.54326">
        <ele>71</ele>
        <time>2020-06-06T09:34:09Z</time>
      </trkpt>
      <trkpt lat="48.4083" lon="2.54317">
        <ele>71</ele>
        <time>2020-06-06T09:34:11Z</time>
      </trkpt>
      <trkpt lat="48.40826" lon="2.54309">
        <ele>71</ele>
        <time>2020-06-06T09:34:13Z</time>
      </trkpt>
      <trkpt lat="48.40824" lon="2.54303">
        <ele>71.1</ele>
        <time>2020-06-06T09:34:15Z</time>
      </trkpt>
      <trkpt lat="48.40821" lon="2.54296">
        <ele>71.2</ele>
        <time>2020-06-06T09:34:17Z</time>
      </trkpt>
      <trkpt lat="48.40819" lon="2.54287">
        <ele>71.3</ele>
        <time>2020-06-06T09:34:19Z</time>
      </trkpt>
      <trkpt lat="48.40816" lon="2.5428">
        <ele>71.3</ele>
        <time>2020-06-06T09:34:21Z</time>
      </trkpt>
      <trkpt lat="48.40815" lon="2.54273">
        <ele>71.5</ele>
        <time>2020-06-06T09:34:23Z</time>
      </trkpt>
      <trkpt lat="48.40812" lon="2.54265">
        <ele>71.6</ele>
        <time>2020-06-06T09:34:25Z</time>
      </trkpt>
      <trkpt lat="48.40807" lon="2.54257">
        <ele>71.8</ele>
        <time>2020-06-06T09:34:27Z</time>
      </trkpt>
      <trkpt lat="48.40804" lon="2.5425">
        <ele>72</ele>
        <time>2020-06-06T09:34:29Z</time>
      </trkpt>
      <trkpt lat="48.40801" lon="2.54241">
        <ele>72</ele>
        <time>2020-06-06T09:34:31Z</time>
      </trkpt>
      <trkpt lat="48.40796" lon="2.54232">
        <ele>72</ele>
        <time>2020-06-06T09:34:35Z</time>
      </trkpt>
      <trkpt lat="48.40794" lon="2.54225">
        <ele>72</ele>
        <time>2020-06-06T09:34:37Z</time>
      </trkpt>
      <trkpt lat="48.40789" lon="2.54215">
        <ele>72</ele>
        <time>2020-06-06T09:34:41Z</time>
      </trkpt>
      <trkpt lat="48.40787" lon="2.54207">
        <ele>72</ele>
        <time>2020-06-06T09:34:43Z</time>
      </trkpt>
      <trkpt lat="48.40784" lon="2.54199">
        <ele>72</ele>
        <time>2020-06-06T09:34:45Z</time>
      </trkpt>
      <trkpt lat="48.40782" lon="2.54192">
        <ele>72</ele>
        <time>2020-06-06T09:34:47Z</time>
      </trkpt>
      <trkpt lat="48.40779" lon="2.54184">
        <ele>72</ele>
        <time>2020-06-06T09:34:49Z</time>
      </trkpt>
      <trkpt lat="48.40776" lon="2.54176">
        <ele>72</ele>
        <time>2020-06-06T09:34:51Z</time>
      </trkpt>
      <trkpt lat="48.40774" lon="2.54169">
        <ele>72</ele>
        <time>2020-06-06T09:34:53Z</time>
      </trkpt>
      <trkpt lat="48.40772" lon="2.54162">
        <ele>72</ele>
        <time>2020-06-06T09:34:55Z</time>
      </trkpt>
      <trkpt lat="48.40769" lon="2.54154">
        <ele>72</ele>
        <time>2020-06-06T09:34:57Z</time>
      </trkpt>
      <trkpt lat="48.40765" lon="2.54146">
        <ele>72</ele>
        <time>2020-06-06T09:34:59Z</time>
      </trkpt>
      <trkpt lat="48.40759" lon="2.5414">
        <ele>72</ele>
        <time>2020-06-06T09:35:01Z</time>
      </trkpt>
      <trkpt lat="48.40756" lon="2.54132">
        <ele>71.8</ele>
        <time>2020-06-06T09:35:03Z</time>
      </trkpt>
      <trkpt lat="48.40756" lon="2.54124">
        <ele>71.6</ele>
        <time>2020-06-06T09:35:05Z</time>
      </trkpt>
      <trkpt lat="48.40755" lon="2.54117">
        <ele>71.4</ele>
        <time>2020-06-06T09:35:07Z</time>
      </trkpt>
      <trkpt lat="48.40755" lon="2.54108">
        <ele>71.2</ele>
        <time>2020-06-06T09:35:09Z</time>
      </trkpt>
      <trkpt lat="48.40754" lon="2.54093">
        <ele>71.1</ele>
        <time>2020-06-06T09:35:13Z</time>
      </trkpt>
      <trkpt lat="48.4075" lon="2.54085">
        <ele>71</ele>
        <time>2020-06-06T09:35:15Z</time>
      </trkpt>
      <trkpt lat="48.40749" lon="2.54079">
        <ele>71</ele>
        <time>2020-06-06T09:35:17Z</time>
      </trkpt>
      <trkpt lat="48.40746" lon="2.54072">
        <ele>71.1</ele>
        <time>2020-06-06T09:35:19Z</time>
      </trkpt>
      <trkpt lat="48.40738" lon="2.54074">
        <ele>71.3</ele>
        <time>2020-06-06T09:35:23Z</time>
      </trkpt>
      <trkpt lat="48.40734" lon="2.54077">
        <ele>71.4</ele>
        <time>2020-06-06T09:35:25Z</time>
      </trkpt>
      <trkpt lat="48.40723" lon="2.54083">
        <ele>72</ele>
        <time>2020-06-06T09:35:29Z</time>
      </trkpt>
      <trkpt lat="48.40714" lon="2.54086">
        <ele>72</ele>
        <time>2020-06-06T09:35:33Z</time>
      </trkpt>
      <trkpt lat="48.40706" lon="2.54089">
        <ele>72</ele>
        <time>2020-06-06T09:35:35Z</time>
      </trkpt>
      <trkpt lat="48.40698" lon="2.54094">
        <ele>72</ele>
        <time>2020-06-06T09:35:37Z</time>
      </trkpt>
      <trkpt lat="48.40692" lon="2.54099">
        <ele>72</ele>
        <time>2020-06-06T09:35:39Z</time>
      </trkpt>
      <trkpt lat="48.40686" lon="2.54103">
        <ele>72</ele>
        <time>2020-06-06T09:35:41Z</time>
      </trkpt>
      <trkpt lat="48.4068" lon="2.54109">
        <ele>72</ele>
        <time>2020-06-06T09:35:43Z</time>
      </trkpt>
      <trkpt lat="48.40674" lon="2.54113">
        <ele>72</ele>
        <time>2020-06-06T09:35:45Z</time>
      </trkpt>
      <trkpt lat="48.40666" lon="2.54118">
        <ele>72</ele>
        <time>2020-06-06T09:35:47Z</time>
      </trkpt>
      <trkpt lat="48.40659" lon="2.54121">
        <ele>72</ele>
        <time>2020-06-06T09:35:49Z</time>
      </trkpt>
      <trkpt lat="48.40653" lon="2.54124">
        <ele>72</ele>
        <time>2020-06-06T09:35:51Z</time>
      </trkpt>
      <trkpt lat="48.40646" lon="2.54129">
        <ele>72</ele>
        <time>2020-06-06T09:35:53Z</time>
      </trkpt>
      <trkpt lat="48.40639" lon="2.54132">
        <ele>72</ele>
        <time>2020-06-06T09:35:55Z</time>
      </trkpt>
      <trkpt lat="48.40631" lon="2.54136">
        <ele>72.3</ele>
        <time>2020-06-06T09:35:57Z</time>
      </trkpt>
      <trkpt lat="48.40624" lon="2.54139">
        <ele>72.5</ele>
        <time>2020-06-06T09:35:59Z</time>
      </trkpt>
      <trkpt lat="48.40617" lon="2.54143">
        <ele>72.8</ele>
        <time>2020-06-06T09:36:01Z</time>
      </trkpt>
      <trkpt lat="48.40612" lon="2.54143">
        <ele>73</ele>
        <time>2020-06-06T09:36:03Z</time>
      </trkpt>
      <trkpt lat="48.40606" lon="2.54145">
        <ele>73.2</ele>
        <time>2020-06-06T09:36:05Z</time>
      </trkpt>
      <trkpt lat="48.40601" lon="2.54146">
        <ele>73.4</ele>
        <time>2020-06-06T09:36:07Z</time>
      </trkpt>
      <trkpt lat="48.40595" lon="2.54147">
        <ele>73.6</ele>
        <time>2020-06-06T09:36:09Z</time>
      </trkpt>
      <trkpt lat="48.40586" lon="2.54146">
        <ele>73.9</ele>
        <time>2020-06-06T09:36:11Z</time>
      </trkpt>
      <trkpt lat="48.4058" lon="2.54146">
        <ele>74.3</ele>
        <time>2020-06-06T09:36:13Z</time>
      </trkpt>
      <trkpt lat="48.40575" lon="2.54143">
        <ele>74.7</ele>
        <time>2020-06-06T09:36:15Z</time>
      </trkpt>
      <trkpt lat="48.40571" lon="2.54143">
        <ele>75</ele>
        <time>2020-06-06T09:36:17Z</time>
      </trkpt>
      <trkpt lat="48.40561" lon="2.54142">
        <ele>75.8</ele>
        <time>2020-06-06T09:36:21Z</time>
      </trkpt>
      <trkpt lat="48.40556" lon="2.54142">
        <ele>76.2</ele>
        <time>2020-06-06T09:36:23Z</time>
      </trkpt>
      <trkpt lat="48.40552" lon="2.54143">
        <ele>76.7</ele>
        <time>2020-06-06T09:36:25Z</time>
      </trkpt>
      <trkpt lat="48.40547" lon="2.54147">
        <ele>77.4</ele>
        <time>2020-06-06T09:36:29Z</time>
      </trkpt>
      <trkpt lat="48.40542" lon="2.54152">
        <ele>78.2</ele>
        <time>2020-06-06T09:36:33Z</time>
      </trkpt>
      <trkpt lat="48.40535" lon="2.54158">
        <ele>79.1</ele>
        <time>2020-06-06T09:36:37Z</time>
      </trkpt>
      <trkpt lat="48.40531" lon="2.54165">
        <ele>79.7</ele>
        <time>2020-06-06T09:36:41Z</time>
      </trkpt>
      <trkpt lat="48.40525" lon="2.54173">
        <ele>80.8</ele>
        <time>2020-06-06T09:36:45Z</time>
      </trkpt>
      <trkpt lat="48.40518" lon="2.54177">
        <ele>81.3</ele>
        <time>2020-06-06T09:36:49Z</time>
      </trkpt>
      <trkpt lat="48.40511" lon="2.54182">
        <ele>81.9</ele>
        <time>2020-06-06T09:36:53Z</time>
      </trkpt>
      <trkpt lat="48.40505" lon="2.54189">
        <ele>82.6</ele>
        <time>2020-06-06T09:36:57Z</time>
      </trkpt>
      <trkpt lat="48.40497" lon="2.54196">
        <ele>83.4</ele>
        <time>2020-06-06T09:37:01Z</time>
      </trkpt>
      <trkpt lat="48.40493" lon="2.54201">
        <ele>84.3</ele>
        <time>2020-06-06T09:37:05Z</time>
      </trkpt>
      <trkpt lat="48.40487" lon="2.54203">
        <ele>84.6</ele>
        <time>2020-06-06T09:37:09Z</time>
      </trkpt>
      <trkpt lat="48.40482" lon="2.54207">
        <ele>85</ele>
        <time>2020-06-06T09:37:13Z</time>
      </trkpt>
      <trkpt lat="48.40477" lon="2.54206">
        <ele>84.9</ele>
        <time>2020-06-06T09:37:15Z</time>
      </trkpt>
      <trkpt lat="48.40471" lon="2.54201">
        <ele>84.6</ele>
        <time>2020-06-06T09:37:19Z</time>
      </trkpt>
      <trkpt lat="48.40469" lon="2.54194">
        <ele>84.4</ele>
        <time>2020-06-06T09:37:23Z</time>
      </trkpt>
      <trkpt lat="48.40462" lon="2.54192">
        <ele>85.2</ele>
        <time>2020-06-06T09:37:25Z</time>
      </trkpt>
      <trkpt lat="48.40458" lon="2.54191">
        <ele>85.6</ele>
        <time>2020-06-06T09:37:27Z</time>
      </trkpt>
      <trkpt lat="48.40452" lon="2.54194">
        <ele>86.2</ele>
        <time>2020-06-06T09:37:31Z</time>
      </trkpt>
      <trkpt lat="48.40446" lon="2.54196">
        <ele>86.9</ele>
        <time>2020-06-06T09:37:35Z</time>
      </trkpt>
      <trkpt lat="48.40439" lon="2.54198">
        <ele>87.6</ele>
        <time>2020-06-06T09:37:39Z</time>
      </trkpt>
      <trkpt lat="48.40432" lon="2.542">
        <ele>88.2</ele>
        <time>2020-06-06T09:37:43Z</time>
      </trkpt>
      <trkpt lat="48.40428" lon="2.54199">
        <ele>88.4</ele>
        <time>2020-06-06T09:37:45Z</time>
      </trkpt>
      <trkpt lat="48.4042" lon="2.54197">
        <ele>88.9</ele>
        <time>2020-06-06T09:37:49Z</time>
      </trkpt>
      <trkpt lat="48.40413" lon="2.54195">
        <ele>89</ele>
        <time>2020-06-06T09:37:53Z</time>
      </trkpt>
      <trkpt lat="48.40407" lon="2.54194">
        <ele>89</ele>
        <time>2020-06-06T09:37:55Z</time>
      </trkpt>
      <trkpt lat="48.40402" lon="2.54193">
        <ele>89</ele>
        <time>2020-06-06T09:37:57Z</time>
      </trkpt>
      <trkpt lat="48.40396" lon="2.54191">
        <ele>89.1</ele>
        <time>2020-06-06T09:37:59Z</time>
      </trkpt>
      <trkpt lat="48.4039" lon="2.54189">
        <ele>89.2</ele>
        <time>2020-06-06T09:38:01Z</time>
      </trkpt>
      <trkpt lat="48.40381" lon="2.5419">
        <ele>88.5</ele>
        <time>2020-06-06T09:38:03Z</time>
      </trkpt>
      <trkpt lat="48.40375" lon="2.54192">
        <ele>88</ele>
        <time>2020-06-06T09:38:05Z</time>
      </trkpt>
      <trkpt lat="48.40369" lon="2.54197">
        <ele>87.6</ele>
        <time>2020-06-06T09:38:07Z</time>
      </trkpt>
      <trkpt lat="48.40364" lon="2.54205">
        <ele>87.2</ele>
        <time>2020-06-06T09:38:09Z</time>
      </trkpt>
      <trkpt lat="48.4036" lon="2.54215">
        <ele>86.9</ele>
        <time>2020-06-06T09:38:11Z</time>
      </trkpt>
      <trkpt lat="48.40354" lon="2.54226">
        <ele>86.2</ele>
        <time>2020-06-06T09:38:13Z</time>
      </trkpt>
      <trkpt lat="48.40348" lon="2.54233">
        <ele>85.6</ele>
        <time>2020-06-06T09:38:15Z</time>
      </trkpt>
      <trkpt lat="48.40337" lon="2.54234">
        <ele>84.4</ele>
        <time>2020-06-06T09:38:17Z</time>
      </trkpt>
      <trkpt lat="48.40327" lon="2.54227">
        <ele>83.5</ele>
        <time>2020-06-06T09:38:19Z</time>
      </trkpt>
      <trkpt lat="48.40319" lon="2.54222">
        <ele>83</ele>
        <time>2020-06-06T09:38:21Z</time>
      </trkpt>
      <trkpt lat="48.40314" lon="2.54225">
        <ele>82.6</ele>
        <time>2020-06-06T09:38:23Z</time>
      </trkpt>
      <trkpt lat="48.40313" lon="2.54234">
        <ele>82.5</ele>
        <time>2020-06-06T09:38:25Z</time>
      </trkpt>
      <trkpt lat="48.40312" lon="2.54242">
        <ele>82.5</ele>
        <time>2020-06-06T09:38:27Z</time>
      </trkpt>
      <trkpt lat="48.40311" lon="2.54251">
        <ele>82.4</ele>
        <time>2020-06-06T09:38:29Z</time>
      </trkpt>
      <trkpt lat="48.40309" lon="2.54263">
        <ele>82.2</ele>
        <time>2020-06-06T09:38:31Z</time>
      </trkpt>
      <trkpt lat="48.40306" lon="2.54276">
        <ele>82</ele>
        <time>2020-06-06T09:38:33Z</time>
      </trkpt>
      <trkpt lat="48.40308" lon="2.54289">
        <ele>81.8</ele>
        <time>2020-06-06T09:38:35Z</time>
      </trkpt>
      <trkpt lat="48.40309" lon="2.54302">
        <ele>81.4</ele>
        <time>2020-06-06T09:38:37Z</time>
      </trkpt>
      <trkpt lat="48.40307" lon="2.54317">
        <ele>81.1</ele>
        <time>2020-06-06T09:38:39Z</time>
      </trkpt>
      <trkpt lat="48.403" lon="2.5433">
        <ele>80.8</ele>
        <time>2020-06-06T09:38:41Z</time>
      </trkpt>
      <trkpt lat="48.40294" lon="2.54341">
        <ele>80.6</ele>
        <time>2020-06-06T09:38:43Z</time>
      </trkpt>
      <trkpt lat="48.40288" lon="2.54354">
        <ele>80.4</ele>
        <time>2020-06-06T09:38:45Z</time>
      </trkpt>
      <trkpt lat="48.40295" lon="2.54367">
        <ele>80.8</ele>
        <time>2020-06-06T09:38:47Z</time>
      </trkpt>
      <trkpt lat="48.40302" lon="2.54375">
        <ele>81.3</ele>
        <time>2020-06-06T09:38:49Z</time>
      </trkpt>
      <trkpt lat="48.40307" lon="2.54384">
        <ele>82</ele>
        <time>2020-06-06T09:38:51Z</time>
      </trkpt>
      <trkpt lat="48.40311" lon="2.54394">
        <ele>82.8</ele>
        <time>2020-06-06T09:38:53Z</time>
      </trkpt>
      <trkpt lat="48.40313" lon="2.54406">
        <ele>83.4</ele>
        <time>2020-06-06T09:38:55Z</time>
      </trkpt>
      <trkpt lat="48.40312" lon="2.54418">
        <ele>83.8</ele>
        <time>2020-06-06T09:38:57Z</time>
      </trkpt>
      <trkpt lat="48.40308" lon="2.54429">
        <ele>84.2</ele>
        <time>2020-06-06T09:38:59Z</time>
      </trkpt>
      <trkpt lat="48.40304" lon="2.5444">
        <ele>84.5</ele>
        <time>2020-06-06T09:39:01Z</time>
      </trkpt>
      <trkpt lat="48.403" lon="2.54452">
        <ele>84.5</ele>
        <time>2020-06-06T09:39:03Z</time>
      </trkpt>
      <trkpt lat="48.40296" lon="2.54467">
        <ele>84.7</ele>
        <time>2020-06-06T09:39:05Z</time>
      </trkpt>
      <trkpt lat="48.40292" lon="2.54478">
        <ele>84.9</ele>
        <time>2020-06-06T09:39:07Z</time>
      </trkpt>
      <trkpt lat="48.40286" lon="2.54487">
        <ele>84.6</ele>
        <time>2020-06-06T09:39:09Z</time>
      </trkpt>
      <trkpt lat="48.40282" lon="2.54496">
        <ele>84.4</ele>
        <time>2020-06-06T09:39:11Z</time>
      </trkpt>
      <trkpt lat="48.40279" lon="2.54504">
        <ele>84.3</ele>
        <time>2020-06-06T09:39:13Z</time>
      </trkpt>
      <trkpt lat="48.40274" lon="2.54507">
        <ele>83.8</ele>
        <time>2020-06-06T09:39:15Z</time>
      </trkpt>
      <trkpt lat="48.40267" lon="2.54503">
        <ele>82.9</ele>
        <time>2020-06-06T09:39:17Z</time>
      </trkpt>
      <trkpt lat="48.40259" lon="2.54501">
        <ele>82</ele>
        <time>2020-06-06T09:39:19Z</time>
      </trkpt>
      <trkpt lat="48.40248" lon="2.54504">
        <ele>81</ele>
        <time>2020-06-06T09:39:21Z</time>
      </trkpt>
      <trkpt lat="48.4024" lon="2.54514">
        <ele>80.6</ele>
        <time>2020-06-06T09:39:23Z</time>
      </trkpt>
      <trkpt lat="48.40233" lon="2.54524">
        <ele>80.1</ele>
        <time>2020-06-06T09:39:25Z</time>
      </trkpt>
      <trkpt lat="48.40228" lon="2.54523">
        <ele>79.6</ele>
        <time>2020-06-06T09:39:27Z</time>
      </trkpt>
      <trkpt lat="48.40221" lon="2.5452">
        <ele>78.9</ele>
        <time>2020-06-06T09:39:29Z</time>
      </trkpt>
      <trkpt lat="48.40213" lon="2.54519">
        <ele>78.3</ele>
        <time>2020-06-06T09:39:31Z</time>
      </trkpt>
      <trkpt lat="48.40205" lon="2.54519">
        <ele>77.8</ele>
        <time>2020-06-06T09:39:35Z</time>
      </trkpt>
      <trkpt lat="48.40201" lon="2.54519">
        <ele>77.5</ele>
        <time>2020-06-06T09:39:57Z</time>
      </trkpt>
      <trkpt lat="48.40199" lon="2.5453">
        <ele>77.4</ele>
        <time>2020-06-06T09:40:11Z</time>
      </trkpt>
      <trkpt lat="48.40197" lon="2.54538">
        <ele>77.6</ele>
        <time>2020-06-06T09:40:13Z</time>
      </trkpt>
      <trkpt lat="48.40196" lon="2.54546">
        <ele>77.8</ele>
        <time>2020-06-06T09:40:15Z</time>
      </trkpt>
      <trkpt lat="48.40192" lon="2.54555">
        <ele>77.8</ele>
        <time>2020-06-06T09:40:17Z</time>
      </trkpt>
      <trkpt lat="48.40187" lon="2.54563">
        <ele>77.5</ele>
        <time>2020-06-06T09:40:19Z</time>
      </trkpt>
      <trkpt lat="48.40183" lon="2.54573">
        <ele>77.2</ele>
        <time>2020-06-06T09:40:21Z</time>
      </trkpt>
      <trkpt lat="48.4018" lon="2.54583">
        <ele>77</ele>
        <time>2020-06-06T09:40:23Z</time>
      </trkpt>
      <trkpt lat="48.40176" lon="2.54591">
        <ele>76.9</ele>
        <time>2020-06-06T09:40:25Z</time>
      </trkpt>
      <trkpt lat="48.40169" lon="2.54593">
        <ele>76.5</ele>
        <time>2020-06-06T09:40:27Z</time>
      </trkpt>
      <trkpt lat="48.40165" lon="2.54597">
        <ele>76.5</ele>
        <time>2020-06-06T09:40:29Z</time>
      </trkpt>
      <trkpt lat="48.40158" lon="2.54604">
        <ele>76.5</ele>
        <time>2020-06-06T09:40:31Z</time>
      </trkpt>
      <trkpt lat="48.40151" lon="2.54604">
        <ele>76.3</ele>
        <time>2020-06-06T09:40:33Z</time>
      </trkpt>
      <trkpt lat="48.40145" lon="2.546">
        <ele>76.1</ele>
        <time>2020-06-06T09:40:35Z</time>
      </trkpt>
      <trkpt lat="48.40138" lon="2.54597">
        <ele>76</ele>
        <time>2020-06-06T09:40:37Z</time>
      </trkpt>
      <trkpt lat="48.40131" lon="2.54601">
        <ele>75.9</ele>
        <time>2020-06-06T09:40:39Z</time>
      </trkpt>
      <trkpt lat="48.40129" lon="2.5461">
        <ele>76</ele>
        <time>2020-06-06T09:40:41Z</time>
      </trkpt>
      <trkpt lat="48.4013" lon="2.54619">
        <ele>76</ele>
        <time>2020-06-06T09:40:43Z</time>
      </trkpt>
      <trkpt lat="48.40131" lon="2.54627">
        <ele>76</ele>
        <time>2020-06-06T09:40:45Z</time>
      </trkpt>
      <trkpt lat="48.40132" lon="2.54635">
        <ele>76</ele>
        <time>2020-06-06T09:40:47Z</time>
      </trkpt>
      <trkpt lat="48.40132" lon="2.54644">
        <ele>76</ele>
        <time>2020-06-06T09:40:49Z</time>
      </trkpt>
      <trkpt lat="48.40133" lon="2.54652">
        <ele>76</ele>
        <time>2020-06-06T09:40:51Z</time>
      </trkpt>
      <trkpt lat="48.40136" lon="2.5466">
        <ele>76</ele>
        <time>2020-06-06T09:40:53Z</time>
      </trkpt>
      <trkpt lat="48.40138" lon="2.54669">
        <ele>76</ele>
        <time>2020-06-06T09:40:55Z</time>
      </trkpt>
      <trkpt lat="48.40139" lon="2.54678">
        <ele>76</ele>
        <time>2020-06-06T09:40:57Z</time>
      </trkpt>
      <trkpt lat="48.40138" lon="2.54688">
        <ele>76</ele>
        <time>2020-06-06T09:40:59Z</time>
      </trkpt>
      <trkpt lat="48.40134" lon="2.54696">
        <ele>75.8</ele>
        <time>2020-06-06T09:41:01Z</time>
      </trkpt>
      <trkpt lat="48.40127" lon="2.54698">
        <ele>75.6</ele>
        <time>2020-06-06T09:41:03Z</time>
      </trkpt>
      <trkpt lat="48.40119" lon="2.54696">
        <ele>75.3</ele>
        <time>2020-06-06T09:41:05Z</time>
      </trkpt>
      <trkpt lat="48.40112" lon="2.5469">
        <ele>75.2</ele>
        <time>2020-06-06T09:41:07Z</time>
      </trkpt>
      <trkpt lat="48.40107" lon="2.54686">
        <ele>75.3</ele>
        <time>2020-06-06T09:41:09Z</time>
      </trkpt>
      <trkpt lat="48.40102" lon="2.54682">
        <ele>75.3</ele>
        <time>2020-06-06T09:41:11Z</time>
      </trkpt>
      <trkpt lat="48.40097" lon="2.54678">
        <ele>75.3</ele>
        <time>2020-06-06T09:41:13Z</time>
      </trkpt>
      <trkpt lat="48.4009" lon="2.54676">
        <ele>75.2</ele>
        <time>2020-06-06T09:41:15Z</time>
      </trkpt>
      <trkpt lat="48.40083" lon="2.54674">
        <ele>75</ele>
        <time>2020-06-06T09:41:17Z</time>
      </trkpt>
      <trkpt lat="48.40076" lon="2.54672">
        <ele>75</ele>
        <time>2020-06-06T09:41:19Z</time>
      </trkpt>
      <trkpt lat="48.40067" lon="2.54671">
        <ele>75</ele>
        <time>2020-06-06T09:41:21Z</time>
      </trkpt>
      <trkpt lat="48.40059" lon="2.54667">
        <ele>75</ele>
        <time>2020-06-06T09:41:23Z</time>
      </trkpt>
      <trkpt lat="48.40051" lon="2.54662">
        <ele>74.8</ele>
        <time>2020-06-06T09:41:25Z</time>
      </trkpt>
      <trkpt lat="48.40042" lon="2.54658">
        <ele>74.5</ele>
        <time>2020-06-06T09:41:27Z</time>
      </trkpt>
      <trkpt lat="48.40032" lon="2.54654">
        <ele>74.2</ele>
        <time>2020-06-06T09:41:29Z</time>
      </trkpt>
      <trkpt lat="48.40022" lon="2.54651">
        <ele>74</ele>
        <time>2020-06-06T09:41:31Z</time>
      </trkpt>
      <trkpt lat="48.40014" lon="2.54647">
        <ele>74</ele>
        <time>2020-06-06T09:41:33Z</time>
      </trkpt>
      <trkpt lat="48.40005" lon="2.54642">
        <ele>74</ele>
        <time>2020-06-06T09:41:35Z</time>
      </trkpt>
      <trkpt lat="48.39996" lon="2.54638">
        <ele>74</ele>
        <time>2020-06-06T09:41:37Z</time>
      </trkpt>
      <trkpt lat="48.39986" lon="2.54634">
        <ele>74</ele>
        <time>2020-06-06T09:41:39Z</time>
      </trkpt>
      <trkpt lat="48.39977" lon="2.54631">
        <ele>74</ele>
        <time>2020-06-06T09:41:41Z</time>
      </trkpt>
      <trkpt lat="48.3997" lon="2.54627">
        <ele>74</ele>
        <time>2020-06-06T09:41:43Z</time>
      </trkpt>
      <trkpt lat="48.39961" lon="2.54623">
        <ele>74</ele>
        <time>2020-06-06T09:41:45Z</time>
      </trkpt>
      <trkpt lat="48.39951" lon="2.5462">
        <ele>74</ele>
        <time>2020-06-06T09:41:47Z</time>
      </trkpt>
      <trkpt lat="48.39943" lon="2.54618">
        <ele>74</ele>
        <time>2020-06-06T09:41:49Z</time>
      </trkpt>
      <trkpt lat="48.39935" lon="2.54614">
        <ele>74</ele>
        <time>2020-06-06T09:41:51Z</time>
      </trkpt>
      <trkpt lat="48.39925" lon="2.54609">
        <ele>74</ele>
        <time>2020-06-06T09:41:53Z</time>
      </trkpt>
      <trkpt lat="48.39918" lon="2.54608">
        <ele>74</ele>
        <time>2020-06-06T09:41:55Z</time>
      </trkpt>
      <trkpt lat="48.39909" lon="2.54605">
        <ele>74</ele>
        <time>2020-06-06T09:41:57Z</time>
      </trkpt>
      <trkpt lat="48.39901" lon="2.54605">
        <ele>74</ele>
        <time>2020-06-06T09:41:59Z</time>
      </trkpt>
      <trkpt lat="48.39893" lon="2.54603">
        <ele>74</ele>
        <time>2020-06-06T09:42:01Z</time>
      </trkpt>
      <trkpt lat="48.39885" lon="2.54602">
        <ele>74</ele>
        <time>2020-06-06T09:42:03Z</time>
      </trkpt>
      <trkpt lat="48.39876" lon="2.546">
        <ele>74</ele>
        <time>2020-06-06T09:42:05Z</time>
      </trkpt>
      <trkpt lat="48.3987" lon="2.54598">
        <ele>74</ele>
        <time>2020-06-06T09:42:07Z</time>
      </trkpt>
      <trkpt lat="48.39862" lon="2.54594">
        <ele>74</ele>
        <time>2020-06-06T09:42:09Z</time>
      </trkpt>
      <trkpt lat="48.39854" lon="2.54593">
        <ele>74</ele>
        <time>2020-06-06T09:42:11Z</time>
      </trkpt>
      <trkpt lat="48.39845" lon="2.54591">
        <ele>74</ele>
        <time>2020-06-06T09:42:13Z</time>
      </trkpt>
      <trkpt lat="48.39837" lon="2.54587">
        <ele>74</ele>
        <time>2020-06-06T09:42:15Z</time>
      </trkpt>
      <trkpt lat="48.39829" lon="2.54583">
        <ele>74</ele>
        <time>2020-06-06T09:42:17Z</time>
      </trkpt>
      <trkpt lat="48.39821" lon="2.54581">
        <ele>74.1</ele>
        <time>2020-06-06T09:42:19Z</time>
      </trkpt>
      <trkpt lat="48.39813" lon="2.54577">
        <ele>74.2</ele>
        <time>2020-06-06T09:42:21Z</time>
      </trkpt>
      <trkpt lat="48.39806" lon="2.54573">
        <ele>74.4</ele>
        <time>2020-06-06T09:42:23Z</time>
      </trkpt>
      <trkpt lat="48.39798" lon="2.54569">
        <ele>74.6</ele>
        <time>2020-06-06T09:42:25Z</time>
      </trkpt>
      <trkpt lat="48.39791" lon="2.54565">
        <ele>74.8</ele>
        <time>2020-06-06T09:42:27Z</time>
      </trkpt>
      <trkpt lat="48.39783" lon="2.54561">
        <ele>75</ele>
        <time>2020-06-06T09:42:29Z</time>
      </trkpt>
      <trkpt lat="48.39775" lon="2.54557">
        <ele>75.1</ele>
        <time>2020-06-06T09:42:31Z</time>
      </trkpt>
      <trkpt lat="48.39767" lon="2.54555">
        <ele>75.4</ele>
        <time>2020-06-06T09:42:33Z</time>
      </trkpt>
      <trkpt lat="48.39759" lon="2.54551">
        <ele>75.7</ele>
        <time>2020-06-06T09:42:35Z</time>
      </trkpt>
      <trkpt lat="48.39752" lon="2.54548">
        <ele>75.9</ele>
        <time>2020-06-06T09:42:37Z</time>
      </trkpt>
      <trkpt lat="48.39744" lon="2.54544">
        <ele>76</ele>
        <time>2020-06-06T09:42:39Z</time>
      </trkpt>
      <trkpt lat="48.39737" lon="2.5454">
        <ele>76</ele>
        <time>2020-06-06T09:42:41Z</time>
      </trkpt>
      <trkpt lat="48.39729" lon="2.54537">
        <ele>76</ele>
        <time>2020-06-06T09:42:43Z</time>
      </trkpt>
      <trkpt lat="48.39722" lon="2.54534">
        <ele>76</ele>
        <time>2020-06-06T09:42:45Z</time>
      </trkpt>
      <trkpt lat="48.39714" lon="2.54535">
        <ele>76</ele>
        <time>2020-06-06T09:42:47Z</time>
      </trkpt>
      <trkpt lat="48.39707" lon="2.5454">
        <ele>76</ele>
        <time>2020-06-06T09:42:49Z</time>
      </trkpt>
      <trkpt lat="48.39701" lon="2.54547">
        <ele>76</ele>
        <time>2020-06-06T09:42:51Z</time>
      </trkpt>
      <trkpt lat="48.39696" lon="2.54553">
        <ele>76</ele>
        <time>2020-06-06T09:42:53Z</time>
      </trkpt>
      <trkpt lat="48.39691" lon="2.54559">
        <ele>75.9</ele>
        <time>2020-06-06T09:42:55Z</time>
      </trkpt>
      <trkpt lat="48.39688" lon="2.54565">
        <ele>75.7</ele>
        <time>2020-06-06T09:42:57Z</time>
      </trkpt>
      <trkpt lat="48.39684" lon="2.5457">
        <ele>75.7</ele>
        <time>2020-06-06T09:42:59Z</time>
      </trkpt>
      <trkpt lat="48.39677" lon="2.54579">
        <ele>75.7</ele>
        <time>2020-06-06T09:43:01Z</time>
      </trkpt>
      <trkpt lat="48.39671" lon="2.54587">
        <ele>75.7</ele>
        <time>2020-06-06T09:43:03Z</time>
      </trkpt>
      <trkpt lat="48.39666" lon="2.54596">
        <ele>75.6</ele>
        <time>2020-06-06T09:43:05Z</time>
      </trkpt>
      <trkpt lat="48.3966" lon="2.54606">
        <ele>75.9</ele>
        <time>2020-06-06T09:43:07Z</time>
      </trkpt>
      <trkpt lat="48.39658" lon="2.54619">
        <ele>75.7</ele>
        <time>2020-06-06T09:43:09Z</time>
      </trkpt>
      <trkpt lat="48.39655" lon="2.54632">
        <ele>75.5</ele>
        <time>2020-06-06T09:43:11Z</time>
      </trkpt>
      <trkpt lat="48.39651" lon="2.54644">
        <ele>75.4</ele>
        <time>2020-06-06T09:43:13Z</time>
      </trkpt>
      <trkpt lat="48.39648" lon="2.54655">
        <ele>75</ele>
        <time>2020-06-06T09:43:15Z</time>
      </trkpt>
      <trkpt lat="48.39645" lon="2.54668">
        <ele>74.5</ele>
        <time>2020-06-06T09:43:17Z</time>
      </trkpt>
      <trkpt lat="48.39641" lon="2.54681">
        <ele>74.3</ele>
        <time>2020-06-06T09:43:19Z</time>
      </trkpt>
      <trkpt lat="48.39638" lon="2.54692">
        <ele>74.2</ele>
        <time>2020-06-06T09:43:21Z</time>
      </trkpt>
      <trkpt lat="48.39635" lon="2.54704">
        <ele>73.9</ele>
        <time>2020-06-06T09:43:23Z</time>
      </trkpt>
      <trkpt lat="48.39631" lon="2.54716">
        <ele>73.8</ele>
        <time>2020-06-06T09:43:25Z</time>
      </trkpt>
      <trkpt lat="48.39629" lon="2.54729">
        <ele>73.6</ele>
        <time>2020-06-06T09:43:27Z</time>
      </trkpt>
      <trkpt lat="48.39625" lon="2.54741">
        <ele>73.7</ele>
        <time>2020-06-06T09:43:29Z</time>
      </trkpt>
      <trkpt lat="48.39622" lon="2.54755">
        <ele>73.4</ele>
        <time>2020-06-06T09:43:31Z</time>
      </trkpt>
      <trkpt lat="48.3962" lon="2.54767">
        <ele>73.1</ele>
        <time>2020-06-06T09:43:33Z</time>
      </trkpt>
      <trkpt lat="48.39616" lon="2.54779">
        <ele>72.8</ele>
        <time>2020-06-06T09:43:35Z</time>
      </trkpt>
      <trkpt lat="48.39612" lon="2.54791">
        <ele>73</ele>
        <time>2020-06-06T09:43:37Z</time>
      </trkpt>
      <trkpt lat="48.3961" lon="2.54802">
        <ele>73.1</ele>
        <time>2020-06-06T09:43:39Z</time>
      </trkpt>
      <trkpt lat="48.39607" lon="2.54814">
        <ele>73.3</ele>
        <time>2020-06-06T09:43:41Z</time>
      </trkpt>
      <trkpt lat="48.39602" lon="2.54826">
        <ele>73.4</ele>
        <time>2020-06-06T09:43:43Z</time>
      </trkpt>
      <trkpt lat="48.39598" lon="2.54838">
        <ele>73.4</ele>
        <time>2020-06-06T09:43:45Z</time>
      </trkpt>
      <trkpt lat="48.39594" lon="2.5485">
        <ele>73.4</ele>
        <time>2020-06-06T09:43:47Z</time>
      </trkpt>
      <trkpt lat="48.39589" lon="2.54863">
        <ele>73.5</ele>
        <time>2020-06-06T09:43:49Z</time>
      </trkpt>
      <trkpt lat="48.39585" lon="2.54875">
        <ele>73.4</ele>
        <time>2020-06-06T09:43:51Z</time>
      </trkpt>
      <trkpt lat="48.39582" lon="2.54887">
        <ele>73.2</ele>
        <time>2020-06-06T09:43:53Z</time>
      </trkpt>
      <trkpt lat="48.39579" lon="2.54899">
        <ele>73</ele>
        <time>2020-06-06T09:43:55Z</time>
      </trkpt>
      <trkpt lat="48.39574" lon="2.54909">
        <ele>73</ele>
        <time>2020-06-06T09:43:57Z</time>
      </trkpt>
      <trkpt lat="48.39573" lon="2.54918">
        <ele>72.7</ele>
        <time>2020-06-06T09:43:59Z</time>
      </trkpt>
      <trkpt lat="48.3957" lon="2.54926">
        <ele>72.6</ele>
        <time>2020-06-06T09:44:01Z</time>
      </trkpt>
      <trkpt lat="48.39568" lon="2.54937">
        <ele>72.4</ele>
        <time>2020-06-06T09:44:03Z</time>
      </trkpt>
      <trkpt lat="48.39565" lon="2.54949">
        <ele>72.2</ele>
        <time>2020-06-06T09:44:05Z</time>
      </trkpt>
      <trkpt lat="48.3956" lon="2.54959">
        <ele>72.2</ele>
        <time>2020-06-06T09:44:07Z</time>
      </trkpt>
      <trkpt lat="48.39555" lon="2.54969">
        <ele>72.2</ele>
        <time>2020-06-06T09:44:09Z</time>
      </trkpt>
      <trkpt lat="48.39551" lon="2.5498">
        <ele>72</ele>
        <time>2020-06-06T09:44:11Z</time>
      </trkpt>
      <trkpt lat="48.39547" lon="2.5499">
        <ele>72</ele>
        <time>2020-06-06T09:44:13Z</time>
      </trkpt>
      <trkpt lat="48.39543" lon="2.54999">
        <ele>71.9</ele>
        <time>2020-06-06T09:44:15Z</time>
      </trkpt>
      <trkpt lat="48.39537" lon="2.5501">
        <ele>72.1</ele>
        <time>2020-06-06T09:44:17Z</time>
      </trkpt>
      <trkpt lat="48.39531" lon="2.55021">
        <ele>72.1</ele>
        <time>2020-06-06T09:44:19Z</time>
      </trkpt>
      <trkpt lat="48.39525" lon="2.55031">
        <ele>72.2</ele>
        <time>2020-06-06T09:44:21Z</time>
      </trkpt>
      <trkpt lat="48.39521" lon="2.5504">
        <ele>72.2</ele>
        <time>2020-06-06T09:44:23Z</time>
      </trkpt>
      <trkpt lat="48.39517" lon="2.5505">
        <ele>72.1</ele>
        <time>2020-06-06T09:44:25Z</time>
      </trkpt>
      <trkpt lat="48.39513" lon="2.5506">
        <ele>72</ele>
        <time>2020-06-06T09:44:27Z</time>
      </trkpt>
      <trkpt lat="48.39508" lon="2.55072">
        <ele>72</ele>
        <time>2020-06-06T09:44:29Z</time>
      </trkpt>
      <trkpt lat="48.39503" lon="2.55083">
        <ele>71.9</ele>
        <time>2020-06-06T09:44:31Z</time>
      </trkpt>
      <trkpt lat="48.39501" lon="2.55094">
        <ele>72</ele>
        <time>2020-06-06T09:44:33Z</time>
      </trkpt>
      <trkpt lat="48.39496" lon="2.55105">
        <ele>72.5</ele>
        <time>2020-06-06T09:44:35Z</time>
      </trkpt>
      <trkpt lat="48.3949" lon="2.55116">
        <ele>73</ele>
        <time>2020-06-06T09:44:37Z</time>
      </trkpt>
      <trkpt lat="48.39486" lon="2.55128">
        <ele>72.9</ele>
        <time>2020-06-06T09:44:39Z</time>
      </trkpt>
      <trkpt lat="48.39483" lon="2.55139">
        <ele>72.6</ele>
        <time>2020-06-06T09:44:41Z</time>
      </trkpt>
      <trkpt lat="48.3948" lon="2.55152">
        <ele>72.6</ele>
        <time>2020-06-06T09:44:43Z</time>
      </trkpt>
      <trkpt lat="48.39478" lon="2.55162">
        <ele>72.6</ele>
        <time>2020-06-06T09:44:45Z</time>
      </trkpt>
      <trkpt lat="48.39473" lon="2.55172">
        <ele>72.8</ele>
        <time>2020-06-06T09:44:47Z</time>
      </trkpt>
      <trkpt lat="48.3947" lon="2.55184">
        <ele>72.5</ele>
        <time>2020-06-06T09:44:49Z</time>
      </trkpt>
      <trkpt lat="48.39467" lon="2.55195">
        <ele>72.4</ele>
        <time>2020-06-06T09:44:51Z</time>
      </trkpt>
      <trkpt lat="48.39464" lon="2.55205">
        <ele>72.5</ele>
        <time>2020-06-06T09:44:53Z</time>
      </trkpt>
      <trkpt lat="48.39462" lon="2.55215">
        <ele>72.5</ele>
        <time>2020-06-06T09:44:55Z</time>
      </trkpt>
      <trkpt lat="48.39456" lon="2.55224">
        <ele>72.6</ele>
        <time>2020-06-06T09:44:57Z</time>
      </trkpt>
      <trkpt lat="48.39451" lon="2.55234">
        <ele>72.8</ele>
        <time>2020-06-06T09:44:59Z</time>
      </trkpt>
      <trkpt lat="48.39447" lon="2.55245">
        <ele>72.9</ele>
        <time>2020-06-06T09:45:01Z</time>
      </trkpt>
      <trkpt lat="48.39441" lon="2.55254">
        <ele>73.1</ele>
        <time>2020-06-06T09:45:03Z</time>
      </trkpt>
      <trkpt lat="48.39438" lon="2.5526">
        <ele>73.1</ele>
        <time>2020-06-06T09:45:05Z</time>
      </trkpt>
      <trkpt lat="48.39434" lon="2.55254">
        <ele>73.3</ele>
        <time>2020-06-06T09:45:09Z</time>
      </trkpt>
      <trkpt lat="48.39429" lon="2.5525">
        <ele>73.6</ele>
        <time>2020-06-06T09:45:11Z</time>
      </trkpt>
      <trkpt lat="48.39422" lon="2.55245">
        <ele>73.8</ele>
        <time>2020-06-06T09:45:13Z</time>
      </trkpt>
      <trkpt lat="48.39417" lon="2.55241">
        <ele>74</ele>
        <time>2020-06-06T09:45:15Z</time>
      </trkpt>
      <trkpt lat="48.3941" lon="2.55238">
        <ele>74</ele>
        <time>2020-06-06T09:45:17Z</time>
      </trkpt>
      <trkpt lat="48.39405" lon="2.55236">
        <ele>74</ele>
        <time>2020-06-06T09:45:19Z</time>
      </trkpt>
      <trkpt lat="48.39401" lon="2.55234">
        <ele>74</ele>
        <time>2020-06-06T09:45:21Z</time>
      </trkpt>
      <trkpt lat="48.39396" lon="2.55232">
        <ele>74</ele>
        <time>2020-06-06T09:45:23Z</time>
      </trkpt>
      <trkpt lat="48.3939" lon="2.5523">
        <ele>74</ele>
        <time>2020-06-06T09:45:25Z</time>
      </trkpt>
      <trkpt lat="48.39386" lon="2.55225">
        <ele>74</ele>
        <time>2020-06-06T09:45:27Z</time>
      </trkpt>
      <trkpt lat="48.39382" lon="2.55221">
        <ele>74</ele>
        <time>2020-06-06T09:45:29Z</time>
      </trkpt>
      <trkpt lat="48.39376" lon="2.55216">
        <ele>74</ele>
        <time>2020-06-06T09:45:31Z</time>
      </trkpt>
      <trkpt lat="48.39371" lon="2.55211">
        <ele>74</ele>
        <time>2020-06-06T09:45:57Z</time>
      </trkpt>
      <trkpt lat="48.39364" lon="2.55204">
        <ele>74</ele>
        <time>2020-06-06T09:46:01Z</time>
      </trkpt>
      <trkpt lat="48.39361" lon="2.55199">
        <ele>74</ele>
        <time>2020-06-06T09:46:03Z</time>
      </trkpt>
      <trkpt lat="48.39356" lon="2.55192">
        <ele>74</ele>
        <time>2020-06-06T09:46:05Z</time>
      </trkpt>
      <trkpt lat="48.39349" lon="2.55185">
        <ele>74</ele>
        <time>2020-06-06T09:46:07Z</time>
      </trkpt>
      <trkpt lat="48.39344" lon="2.55172">
        <ele>74</ele>
        <time>2020-06-06T09:46:11Z</time>
      </trkpt>
      <trkpt lat="48.3934" lon="2.55167">
        <ele>74</ele>
        <time>2020-06-06T09:46:13Z</time>
      </trkpt>
      <trkpt lat="48.39334" lon="2.55162">
        <ele>74.2</ele>
        <time>2020-06-06T09:46:15Z</time>
      </trkpt>
      <trkpt lat="48.39328" lon="2.55155">
        <ele>74.4</ele>
        <time>2020-06-06T09:46:17Z</time>
      </trkpt>
      <trkpt lat="48.39323" lon="2.5515">
        <ele>74.6</ele>
        <time>2020-06-06T09:46:19Z</time>
      </trkpt>
      <trkpt lat="48.39319" lon="2.55144">
        <ele>74.8</ele>
        <time>2020-06-06T09:46:21Z</time>
      </trkpt>
      <trkpt lat="48.39313" lon="2.55138">
        <ele>75</ele>
        <time>2020-06-06T09:46:23Z</time>
      </trkpt>
      <trkpt lat="48.3931" lon="2.55132">
        <ele>75</ele>
        <time>2020-06-06T09:46:25Z</time>
      </trkpt>
      <trkpt lat="48.39304" lon="2.55125">
        <ele>75</ele>
        <time>2020-06-06T09:46:27Z</time>
      </trkpt>
      <trkpt lat="48.39299" lon="2.55117">
        <ele>75</ele>
        <time>2020-06-06T09:46:29Z</time>
      </trkpt>
      <trkpt lat="48.39296" lon="2.55109">
        <ele>75</ele>
        <time>2020-06-06T09:46:31Z</time>
      </trkpt>
      <trkpt lat="48.39294" lon="2.55099">
        <ele>75.2</ele>
        <time>2020-06-06T09:46:33Z</time>
      </trkpt>
      <trkpt lat="48.39291" lon="2.5509">
        <ele>75.4</ele>
        <time>2020-06-06T09:46:35Z</time>
      </trkpt>
      <trkpt lat="48.3929" lon="2.55082">
        <ele>75.6</ele>
        <time>2020-06-06T09:46:37Z</time>
      </trkpt>
      <trkpt lat="48.39289" lon="2.55072">
        <ele>75.6</ele>
        <time>2020-06-06T09:46:39Z</time>
      </trkpt>
      <trkpt lat="48.39288" lon="2.55065">
        <ele>75.6</ele>
        <time>2020-06-06T09:46:41Z</time>
      </trkpt>
      <trkpt lat="48.39289" lon="2.55055">
        <ele>75.6</ele>
        <time>2020-06-06T09:46:43Z</time>
      </trkpt>
      <trkpt lat="48.3929" lon="2.55045">
        <ele>75.7</ele>
        <time>2020-06-06T09:46:45Z</time>
      </trkpt>
      <trkpt lat="48.39291" lon="2.55037">
        <ele>75.8</ele>
        <time>2020-06-06T09:46:47Z</time>
      </trkpt>
      <trkpt lat="48.3929" lon="2.55029">
        <ele>76</ele>
        <time>2020-06-06T09:46:49Z</time>
      </trkpt>
      <trkpt lat="48.3929" lon="2.5502">
        <ele>76.1</ele>
        <time>2020-06-06T09:46:51Z</time>
      </trkpt>
      <trkpt lat="48.39292" lon="2.55011">
        <ele>76.3</ele>
        <time>2020-06-06T09:46:53Z</time>
      </trkpt>
      <trkpt lat="48.39294" lon="2.55001">
        <ele>76.6</ele>
        <time>2020-06-06T09:46:55Z</time>
      </trkpt>
      <trkpt lat="48.39291" lon="2.54993">
        <ele>76.7</ele>
        <time>2020-06-06T09:46:57Z</time>
      </trkpt>
      <trkpt lat="48.39293" lon="2.54985">
        <ele>77.1</ele>
        <time>2020-06-06T09:46:59Z</time>
      </trkpt>
      <trkpt lat="48.39296" lon="2.54976">
        <ele>77.5</ele>
        <time>2020-06-06T09:47:01Z</time>
      </trkpt>
      <trkpt lat="48.39298" lon="2.54968">
        <ele>77.8</ele>
        <time>2020-06-06T09:47:03Z</time>
      </trkpt>
      <trkpt lat="48.39299" lon="2.54959">
        <ele>78.1</ele>
        <time>2020-06-06T09:47:05Z</time>
      </trkpt>
      <trkpt lat="48.393" lon="2.5495">
        <ele>78.4</ele>
        <time>2020-06-06T09:47:07Z</time>
      </trkpt>
      <trkpt lat="48.39301" lon="2.54941">
        <ele>78.7</ele>
        <time>2020-06-06T09:47:09Z</time>
      </trkpt>
      <trkpt lat="48.39302" lon="2.5493">
        <ele>78.7</ele>
        <time>2020-06-06T09:47:11Z</time>
      </trkpt>
      <trkpt lat="48.39303" lon="2.5492">
        <ele>78.8</ele>
        <time>2020-06-06T09:47:13Z</time>
      </trkpt>
      <trkpt lat="48.39304" lon="2.54913">
        <ele>78.9</ele>
        <time>2020-06-06T09:47:15Z</time>
      </trkpt>
      <trkpt lat="48.39305" lon="2.54903">
        <ele>79</ele>
        <time>2020-06-06T09:47:17Z</time>
      </trkpt>
      <trkpt lat="48.39307" lon="2.54893">
        <ele>79.2</ele>
        <time>2020-06-06T09:47:19Z</time>
      </trkpt>
      <trkpt lat="48.39308" lon="2.54883">
        <ele>79.6</ele>
        <time>2020-06-06T09:47:21Z</time>
      </trkpt>
      <trkpt lat="48.39309" lon="2.54874">
        <ele>80</ele>
        <time>2020-06-06T09:47:23Z</time>
      </trkpt>
      <trkpt lat="48.3931" lon="2.54865">
        <ele>80.5</ele>
        <time>2020-06-06T09:47:25Z</time>
      </trkpt>
      <trkpt lat="48.39313" lon="2.54856">
        <ele>81.1</ele>
        <time>2020-06-06T09:47:27Z</time>
      </trkpt>
      <trkpt lat="48.39313" lon="2.54846">
        <ele>81.1</ele>
        <time>2020-06-06T09:47:29Z</time>
      </trkpt>
      <trkpt lat="48.39314" lon="2.54837">
        <ele>81.2</ele>
        <time>2020-06-06T09:47:31Z</time>
      </trkpt>
      <trkpt lat="48.39316" lon="2.54829">
        <ele>81.5</ele>
        <time>2020-06-06T09:47:33Z</time>
      </trkpt>
      <trkpt lat="48.39317" lon="2.5482">
        <ele>81.7</ele>
        <time>2020-06-06T09:47:35Z</time>
      </trkpt>
      <trkpt lat="48.39319" lon="2.54811">
        <ele>82</ele>
        <time>2020-06-06T09:47:37Z</time>
      </trkpt>
      <trkpt lat="48.3932" lon="2.54802">
        <ele>82</ele>
        <time>2020-06-06T09:47:39Z</time>
      </trkpt>
      <trkpt lat="48.3932" lon="2.54794">
        <ele>82</ele>
        <time>2020-06-06T09:47:41Z</time>
      </trkpt>
      <trkpt lat="48.39323" lon="2.54786">
        <ele>82.3</ele>
        <time>2020-06-06T09:47:43Z</time>
      </trkpt>
      <trkpt lat="48.39323" lon="2.54777">
        <ele>82.3</ele>
        <time>2020-06-06T09:47:45Z</time>
      </trkpt>
      <trkpt lat="48.39324" lon="2.54768">
        <ele>82.3</ele>
        <time>2020-06-06T09:47:47Z</time>
      </trkpt>
      <trkpt lat="48.39324" lon="2.5476">
        <ele>82.3</ele>
        <time>2020-06-06T09:47:49Z</time>
      </trkpt>
      <trkpt lat="48.39323" lon="2.54752">
        <ele>82.3</ele>
        <time>2020-06-06T09:47:51Z</time>
      </trkpt>
      <trkpt lat="48.39323" lon="2.54743">
        <ele>82.3</ele>
        <time>2020-06-06T09:47:53Z</time>
      </trkpt>
      <trkpt lat="48.39322" lon="2.54735">
        <ele>82.2</ele>
        <time>2020-06-06T09:47:55Z</time>
      </trkpt>
      <trkpt lat="48.39321" lon="2.54727">
        <ele>82.1</ele>
        <time>2020-06-06T09:47:57Z</time>
      </trkpt>
      <trkpt lat="48.39322" lon="2.54719">
        <ele>82.2</ele>
        <time>2020-06-06T09:47:59Z</time>
      </trkpt>
      <trkpt lat="48.39325" lon="2.54712">
        <ele>82.4</ele>
        <time>2020-06-06T09:48:01Z</time>
      </trkpt>
      <trkpt lat="48.39325" lon="2.54704">
        <ele>82.4</ele>
        <time>2020-06-06T09:48:03Z</time>
      </trkpt>
      <trkpt lat="48.39327" lon="2.54696">
        <ele>82.5</ele>
        <time>2020-06-06T09:48:05Z</time>
      </trkpt>
      <trkpt lat="48.39328" lon="2.54687">
        <ele>82.7</ele>
        <time>2020-06-06T09:48:07Z</time>
      </trkpt>
      <trkpt lat="48.39331" lon="2.54679">
        <ele>82.9</ele>
        <time>2020-06-06T09:48:09Z</time>
      </trkpt>
      <trkpt lat="48.39333" lon="2.54671">
        <ele>83</ele>
        <time>2020-06-06T09:48:11Z</time>
      </trkpt>
      <trkpt lat="48.39331" lon="2.54663">
        <ele>83.1</ele>
        <time>2020-06-06T09:48:13Z</time>
      </trkpt>
      <trkpt lat="48.39331" lon="2.54655">
        <ele>83.4</ele>
        <time>2020-06-06T09:48:15Z</time>
      </trkpt>
      <trkpt lat="48.39334" lon="2.54648">
        <ele>83.8</ele>
        <time>2020-06-06T09:48:17Z</time>
      </trkpt>
      <trkpt lat="48.39337" lon="2.5464">
        <ele>84.8</ele>
        <time>2020-06-06T09:48:19Z</time>
      </trkpt>
      <trkpt lat="48.39336" lon="2.54632">
        <ele>84.6</ele>
        <time>2020-06-06T09:48:21Z</time>
      </trkpt>
      <trkpt lat="48.39336" lon="2.54623">
        <ele>84.6</ele>
        <time>2020-06-06T09:48:23Z</time>
      </trkpt>
      <trkpt lat="48.39337" lon="2.54614">
        <ele>84.8</ele>
        <time>2020-06-06T09:48:25Z</time>
      </trkpt>
      <trkpt lat="48.39338" lon="2.54606">
        <ele>85.1</ele>
        <time>2020-06-06T09:48:27Z</time>
      </trkpt>
      <trkpt lat="48.39341" lon="2.54599">
        <ele>85.9</ele>
        <time>2020-06-06T09:48:29Z</time>
      </trkpt>
      <trkpt lat="48.39344" lon="2.54593">
        <ele>86.5</ele>
        <time>2020-06-06T09:48:31Z</time>
      </trkpt>
      <trkpt lat="48.39345" lon="2.54585">
        <ele>86.7</ele>
        <time>2020-06-06T09:48:33Z</time>
      </trkpt>
      <trkpt lat="48.39346" lon="2.54578">
        <ele>86.9</ele>
        <time>2020-06-06T09:48:35Z</time>
      </trkpt>
      <trkpt lat="48.39343" lon="2.54572">
        <ele>86.7</ele>
        <time>2020-06-06T09:48:37Z</time>
      </trkpt>
      <trkpt lat="48.3934" lon="2.54565">
        <ele>86.5</ele>
        <time>2020-06-06T09:48:39Z</time>
      </trkpt>
      <trkpt lat="48.39335" lon="2.54558">
        <ele>86.1</ele>
        <time>2020-06-06T09:48:41Z</time>
      </trkpt>
      <trkpt lat="48.39335" lon="2.54549">
        <ele>86.6</ele>
        <time>2020-06-06T09:48:45Z</time>
      </trkpt>
      <trkpt lat="48.39334" lon="2.5454">
        <ele>87.2</ele>
        <time>2020-06-06T09:48:49Z</time>
      </trkpt>
      <trkpt lat="48.39332" lon="2.5453">
        <ele>88</ele>
        <time>2020-06-06T09:48:53Z</time>
      </trkpt>
      <trkpt lat="48.39331" lon="2.54517">
        <ele>89.4</ele>
        <time>2020-06-06T09:48:57Z</time>
      </trkpt>
      <trkpt lat="48.39331" lon="2.54509">
        <ele>90.3</ele>
        <time>2020-06-06T09:49:01Z</time>
      </trkpt>
      <trkpt lat="48.3933" lon="2.54498">
        <ele>91.7</ele>
        <time>2020-06-06T09:49:05Z</time>
      </trkpt>
      <trkpt lat="48.3933" lon="2.54487">
        <ele>92.9</ele>
        <time>2020-06-06T09:49:09Z</time>
      </trkpt>
      <trkpt lat="48.39329" lon="2.54476">
        <ele>94.4</ele>
        <time>2020-06-06T09:49:13Z</time>
      </trkpt>
      <trkpt lat="48.39328" lon="2.54467">
        <ele>95.7</ele>
        <time>2020-06-06T09:49:17Z</time>
      </trkpt>
      <trkpt lat="48.39327" lon="2.54459">
        <ele>97</ele>
        <time>2020-06-06T09:49:21Z</time>
      </trkpt>
      <trkpt lat="48.39328" lon="2.54449">
        <ele>98.3</ele>
        <time>2020-06-06T09:49:25Z</time>
      </trkpt>
      <trkpt lat="48.3933" lon="2.54439">
        <ele>99.2</ele>
        <time>2020-06-06T09:49:29Z</time>
      </trkpt>
      <trkpt lat="48.39332" lon="2.54432">
        <ele>99.6</ele>
        <time>2020-06-06T09:49:33Z</time>
      </trkpt>
      <trkpt lat="48.39332" lon="2.54421">
        <ele>100.8</ele>
        <time>2020-06-06T09:49:37Z</time>
      </trkpt>
      <trkpt lat="48.39332" lon="2.54412">
        <ele>101.8</ele>
        <time>2020-06-06T09:49:41Z</time>
      </trkpt>
      <trkpt lat="48.39336" lon="2.54409">
        <ele>101.1</ele>
        <time>2020-06-06T09:49:43Z</time>
      </trkpt>
      <trkpt lat="48.39336" lon="2.54402">
        <ele>101.9</ele>
        <time>2020-06-06T09:49:47Z</time>
      </trkpt>
      <trkpt lat="48.39335" lon="2.54392">
        <ele>103.2</ele>
        <time>2020-06-06T09:49:51Z</time>
      </trkpt>
      <trkpt lat="48.39336" lon="2.54384">
        <ele>104.1</ele>
        <time>2020-06-06T09:49:55Z</time>
      </trkpt>
      <trkpt lat="48.39338" lon="2.54375">
        <ele>105</ele>
        <time>2020-06-06T09:49:59Z</time>
      </trkpt>
      <trkpt lat="48.39341" lon="2.54367">
        <ele>105.3</ele>
        <time>2020-06-06T09:50:03Z</time>
      </trkpt>
      <trkpt lat="48.39342" lon="2.54358">
        <ele>106.2</ele>
        <time>2020-06-06T09:50:07Z</time>
      </trkpt>
      <trkpt lat="48.39344" lon="2.54351">
        <ele>106.1</ele>
        <time>2020-06-06T09:50:11Z</time>
      </trkpt>
      <trkpt lat="48.39343" lon="2.54344">
        <ele>107.2</ele>
        <time>2020-06-06T09:50:15Z</time>
      </trkpt>
      <trkpt lat="48.39342" lon="2.54336">
        <ele>108.3</ele>
        <time>2020-06-06T09:50:19Z</time>
      </trkpt>
      <trkpt lat="48.3934" lon="2.54329">
        <ele>109.4</ele>
        <time>2020-06-06T09:50:23Z</time>
      </trkpt>
      <trkpt lat="48.39343" lon="2.54321">
        <ele>108.5</ele>
        <time>2020-06-06T09:50:27Z</time>
      </trkpt>
      <trkpt lat="48.39346" lon="2.54314">
        <ele>107.6</ele>
        <time>2020-06-06T09:50:31Z</time>
      </trkpt>
      <trkpt lat="48.39345" lon="2.54306">
        <ele>108.2</ele>
        <time>2020-06-06T09:50:35Z</time>
      </trkpt>
      <trkpt lat="48.39344" lon="2.54298">
        <ele>108.8</ele>
        <time>2020-06-06T09:50:39Z</time>
      </trkpt>
      <trkpt lat="48.39343" lon="2.54287">
        <ele>109.5</ele>
        <time>2020-06-06T09:50:43Z</time>
      </trkpt>
      <trkpt lat="48.39345" lon="2.54277">
        <ele>109.3</ele>
        <time>2020-06-06T09:50:47Z</time>
      </trkpt>
      <trkpt lat="48.39343" lon="2.54268">
        <ele>110.3</ele>
        <time>2020-06-06T09:50:51Z</time>
      </trkpt>
      <trkpt lat="48.39342" lon="2.54256">
        <ele>111.2</ele>
        <time>2020-06-06T09:50:55Z</time>
      </trkpt>
      <trkpt lat="48.39343" lon="2.54245">
        <ele>111.7</ele>
        <time>2020-06-06T09:50:59Z</time>
      </trkpt>
      <trkpt lat="48.39346" lon="2.54237">
        <ele>111.7</ele>
        <time>2020-06-06T09:51:01Z</time>
      </trkpt>
      <trkpt lat="48.39345" lon="2.54229">
        <ele>112.8</ele>
        <time>2020-06-06T09:51:03Z</time>
      </trkpt>
      <trkpt lat="48.39344" lon="2.54222">
        <ele>113.7</ele>
        <time>2020-06-06T09:51:05Z</time>
      </trkpt>
      <trkpt lat="48.39346" lon="2.54212">
        <ele>114.7</ele>
        <time>2020-06-06T09:51:09Z</time>
      </trkpt>
      <trkpt lat="48.3935" lon="2.54203">
        <ele>115.4</ele>
        <time>2020-06-06T09:51:13Z</time>
      </trkpt>
      <trkpt lat="48.39355" lon="2.54199">
        <ele>115.6</ele>
        <time>2020-06-06T09:51:15Z</time>
      </trkpt>
      <trkpt lat="48.3936" lon="2.54192">
        <ele>116.3</ele>
        <time>2020-06-06T09:51:19Z</time>
      </trkpt>
      <trkpt lat="48.39365" lon="2.54189">
        <ele>116.2</ele>
        <time>2020-06-06T09:51:21Z</time>
      </trkpt>
      <trkpt lat="48.39369" lon="2.54185">
        <ele>116.4</ele>
        <time>2020-06-06T09:51:23Z</time>
      </trkpt>
      <trkpt lat="48.39375" lon="2.54184">
        <ele>116</ele>
        <time>2020-06-06T09:51:25Z</time>
      </trkpt>
      <trkpt lat="48.39381" lon="2.54177">
        <ele>116.6</ele>
        <time>2020-06-06T09:51:29Z</time>
      </trkpt>
      <trkpt lat="48.39387" lon="2.54172">
        <ele>117.1</ele>
        <time>2020-06-06T09:51:31Z</time>
      </trkpt>
      <trkpt lat="48.39391" lon="2.54167">
        <ele>117.7</ele>
        <time>2020-06-06T09:51:33Z</time>
      </trkpt>
      <trkpt lat="48.39397" lon="2.54156">
        <ele>117.7</ele>
        <time>2020-06-06T09:51:37Z</time>
      </trkpt>
      <trkpt lat="48.394" lon="2.54151">
        <ele>117.8</ele>
        <time>2020-06-06T09:51:39Z</time>
      </trkpt>
      <trkpt lat="48.39405" lon="2.54148">
        <ele>117.7</ele>
        <time>2020-06-06T09:51:41Z</time>
      </trkpt>
      <trkpt lat="48.39409" lon="2.54144">
        <ele>117.8</ele>
        <time>2020-06-06T09:51:43Z</time>
      </trkpt>
      <trkpt lat="48.39415" lon="2.54137">
        <ele>118.1</ele>
        <time>2020-06-06T09:51:47Z</time>
      </trkpt>
      <trkpt lat="48.39421" lon="2.54131">
        <ele>117.7</ele>
        <time>2020-06-06T09:51:51Z</time>
      </trkpt>
      <trkpt lat="48.39424" lon="2.54123">
        <ele>117.7</ele>
        <time>2020-06-06T09:51:55Z</time>
      </trkpt>
      <trkpt lat="48.39427" lon="2.54117">
        <ele>117.6</ele>
        <time>2020-06-06T09:52:03Z</time>
      </trkpt>
      <trkpt lat="48.39431" lon="2.54112">
        <ele>117.4</ele>
        <time>2020-06-06T09:52:33Z</time>
      </trkpt>
      <trkpt lat="48.39434" lon="2.54102">
        <ele>117.7</ele>
        <time>2020-06-06T09:52:37Z</time>
      </trkpt>
      <trkpt lat="48.39436" lon="2.54091">
        <ele>118.1</ele>
        <time>2020-06-06T09:52:41Z</time>
      </trkpt>
      <trkpt lat="48.39438" lon="2.54084">
        <ele>118.4</ele>
        <time>2020-06-06T09:52:43Z</time>
      </trkpt>
      <trkpt lat="48.39441" lon="2.54077">
        <ele>118.4</ele>
        <time>2020-06-06T09:52:45Z</time>
      </trkpt>
      <trkpt lat="48.39443" lon="2.54069">
        <ele>118.6</ele>
        <time>2020-06-06T09:52:47Z</time>
      </trkpt>
      <trkpt lat="48.39447" lon="2.54061">
        <ele>118.6</ele>
        <time>2020-06-06T09:52:49Z</time>
      </trkpt>
      <trkpt lat="48.39451" lon="2.54054">
        <ele>118.6</ele>
        <time>2020-06-06T09:52:51Z</time>
      </trkpt>
      <trkpt lat="48.39453" lon="2.54045">
        <ele>118.9</ele>
        <time>2020-06-06T09:52:53Z</time>
      </trkpt>
      <trkpt lat="48.39456" lon="2.54037">
        <ele>119.1</ele>
        <time>2020-06-06T09:52:55Z</time>
      </trkpt>
      <trkpt lat="48.39459" lon="2.54027">
        <ele>119.5</ele>
        <time>2020-06-06T09:52:57Z</time>
      </trkpt>
      <trkpt lat="48.39461" lon="2.54019">
        <ele>119.4</ele>
        <time>2020-06-06T09:52:59Z</time>
      </trkpt>
      <trkpt lat="48.39464" lon="2.54011">
        <ele>119.3</ele>
        <time>2020-06-06T09:53:01Z</time>
      </trkpt>
      <trkpt lat="48.39465" lon="2.54001">
        <ele>119.3</ele>
        <time>2020-06-06T09:53:03Z</time>
      </trkpt>
      <trkpt lat="48.39467" lon="2.53992">
        <ele>119.4</ele>
        <time>2020-06-06T09:53:05Z</time>
      </trkpt>
      <trkpt lat="48.39469" lon="2.53982">
        <ele>119.7</ele>
        <time>2020-06-06T09:53:07Z</time>
      </trkpt>
      <trkpt lat="48.39473" lon="2.53973">
        <ele>120</ele>
        <time>2020-06-06T09:53:09Z</time>
      </trkpt>
      <trkpt lat="48.39475" lon="2.53966">
        <ele>120</ele>
        <time>2020-06-06T09:53:11Z</time>
      </trkpt>
      <trkpt lat="48.39475" lon="2.53959">
        <ele>120</ele>
        <time>2020-06-06T09:53:13Z</time>
      </trkpt>
      <trkpt lat="48.39477" lon="2.53951">
        <ele>120</ele>
        <time>2020-06-06T09:53:15Z</time>
      </trkpt>
      <trkpt lat="48.39479" lon="2.53942">
        <ele>119.9</ele>
        <time>2020-06-06T09:53:17Z</time>
      </trkpt>
      <trkpt lat="48.3948" lon="2.53932">
        <ele>119.7</ele>
        <time>2020-06-06T09:53:19Z</time>
      </trkpt>
      <trkpt lat="48.3948" lon="2.53923">
        <ele>119.4</ele>
        <time>2020-06-06T09:53:21Z</time>
      </trkpt>
      <trkpt lat="48.39481" lon="2.53913">
        <ele>119.3</ele>
        <time>2020-06-06T09:53:23Z</time>
      </trkpt>
      <trkpt lat="48.3948" lon="2.53905">
        <ele>119.3</ele>
        <time>2020-06-06T09:53:25Z</time>
      </trkpt>
      <trkpt lat="48.39481" lon="2.53896">
        <ele>119.3</ele>
        <time>2020-06-06T09:53:27Z</time>
      </trkpt>
      <trkpt lat="48.39482" lon="2.53887">
        <ele>119.3</ele>
        <time>2020-06-06T09:53:29Z</time>
      </trkpt>
      <trkpt lat="48.39482" lon="2.53879">
        <ele>119</ele>
        <time>2020-06-06T09:53:31Z</time>
      </trkpt>
      <trkpt lat="48.39481" lon="2.5387">
        <ele>118.6</ele>
        <time>2020-06-06T09:53:33Z</time>
      </trkpt>
      <trkpt lat="48.39481" lon="2.53863">
        <ele>118.4</ele>
        <time>2020-06-06T09:53:35Z</time>
      </trkpt>
      <trkpt lat="48.39481" lon="2.53855">
        <ele>118.5</ele>
        <time>2020-06-06T09:53:37Z</time>
      </trkpt>
      <trkpt lat="48.39482" lon="2.53847">
        <ele>118.9</ele>
        <time>2020-06-06T09:53:39Z</time>
      </trkpt>
      <trkpt lat="48.39482" lon="2.53839">
        <ele>119.1</ele>
        <time>2020-06-06T09:53:41Z</time>
      </trkpt>
      <trkpt lat="48.39482" lon="2.53831">
        <ele>119.4</ele>
        <time>2020-06-06T09:53:43Z</time>
      </trkpt>
      <trkpt lat="48.39483" lon="2.53822">
        <ele>119.4</ele>
        <time>2020-06-06T09:53:45Z</time>
      </trkpt>
      <trkpt lat="48.39482" lon="2.53813">
        <ele>119.4</ele>
        <time>2020-06-06T09:53:47Z</time>
      </trkpt>
      <trkpt lat="48.39482" lon="2.53804">
        <ele>119.4</ele>
        <time>2020-06-06T09:53:49Z</time>
      </trkpt>
      <trkpt lat="48.39481" lon="2.53797">
        <ele>119.3</ele>
        <time>2020-06-06T09:53:51Z</time>
      </trkpt>
      <trkpt lat="48.39481" lon="2.53789">
        <ele>119.3</ele>
        <time>2020-06-06T09:53:53Z</time>
      </trkpt>
      <trkpt lat="48.39482" lon="2.53782">
        <ele>119.4</ele>
        <time>2020-06-06T09:53:55Z</time>
      </trkpt>
      <trkpt lat="48.39483" lon="2.53774">
        <ele>119.4</ele>
        <time>2020-06-06T09:53:57Z</time>
      </trkpt>
      <trkpt lat="48.39485" lon="2.53767">
        <ele>119.5</ele>
        <time>2020-06-06T09:53:59Z</time>
      </trkpt>
      <trkpt lat="48.39487" lon="2.5376">
        <ele>119.5</ele>
        <time>2020-06-06T09:54:01Z</time>
      </trkpt>
      <trkpt lat="48.3949" lon="2.53753">
        <ele>119.6</ele>
        <time>2020-06-06T09:54:03Z</time>
      </trkpt>
      <trkpt lat="48.39493" lon="2.53747">
        <ele>119.7</ele>
        <time>2020-06-06T09:54:05Z</time>
      </trkpt>
      <trkpt lat="48.39495" lon="2.5374">
        <ele>119.8</ele>
        <time>2020-06-06T09:54:07Z</time>
      </trkpt>
      <trkpt lat="48.39498" lon="2.53732">
        <ele>119.9</ele>
        <time>2020-06-06T09:54:09Z</time>
      </trkpt>
      <trkpt lat="48.39501" lon="2.53723">
        <ele>120</ele>
        <time>2020-06-06T09:54:11Z</time>
      </trkpt>
      <trkpt lat="48.39503" lon="2.53714">
        <ele>120.1</ele>
        <time>2020-06-06T09:54:13Z</time>
      </trkpt>
      <trkpt lat="48.39505" lon="2.53706">
        <ele>120.2</ele>
        <time>2020-06-06T09:54:15Z</time>
      </trkpt>
      <trkpt lat="48.39508" lon="2.53697">
        <ele>120.3</ele>
        <time>2020-06-06T09:54:17Z</time>
      </trkpt>
      <trkpt lat="48.39509" lon="2.53687">
        <ele>120.3</ele>
        <time>2020-06-06T09:54:19Z</time>
      </trkpt>
      <trkpt lat="48.3951" lon="2.53677">
        <ele>120.4</ele>
        <time>2020-06-06T09:54:21Z</time>
      </trkpt>
      <trkpt lat="48.39511" lon="2.53667">
        <ele>120.4</ele>
        <time>2020-06-06T09:54:23Z</time>
      </trkpt>
      <trkpt lat="48.39513" lon="2.53658">
        <ele>120.6</ele>
        <time>2020-06-06T09:54:25Z</time>
      </trkpt>
      <trkpt lat="48.39515" lon="2.53648">
        <ele>120.9</ele>
        <time>2020-06-06T09:54:27Z</time>
      </trkpt>
      <trkpt lat="48.39518" lon="2.53638">
        <ele>121.3</ele>
        <time>2020-06-06T09:54:29Z</time>
      </trkpt>
      <trkpt lat="48.39518" lon="2.53627">
        <ele>121.3</ele>
        <time>2020-06-06T09:54:31Z</time>
      </trkpt>
      <trkpt lat="48.39517" lon="2.53617">
        <ele>121.2</ele>
        <time>2020-06-06T09:54:33Z</time>
      </trkpt>
      <trkpt lat="48.39518" lon="2.53607">
        <ele>121.2</ele>
        <time>2020-06-06T09:54:35Z</time>
      </trkpt>
      <trkpt lat="48.39519" lon="2.53598">
        <ele>121</ele>
        <time>2020-06-06T09:54:37Z</time>
      </trkpt>
      <trkpt lat="48.3952" lon="2.53588">
        <ele>120.8</ele>
        <time>2020-06-06T09:54:39Z</time>
      </trkpt>
      <trkpt lat="48.39522" lon="2.53576">
        <ele>120.8</ele>
        <time>2020-06-06T09:54:41Z</time>
      </trkpt>
      <trkpt lat="48.39524" lon="2.53566">
        <ele>120.9</ele>
        <time>2020-06-06T09:54:43Z</time>
      </trkpt>
      <trkpt lat="48.39525" lon="2.53556">
        <ele>120.9</ele>
        <time>2020-06-06T09:54:45Z</time>
      </trkpt>
      <trkpt lat="48.39526" lon="2.53546">
        <ele>120.9</ele>
        <time>2020-06-06T09:54:47Z</time>
      </trkpt>
      <trkpt lat="48.39527" lon="2.53537">
        <ele>121</ele>
        <time>2020-06-06T09:54:49Z</time>
      </trkpt>
      <trkpt lat="48.39528" lon="2.53529">
        <ele>121</ele>
        <time>2020-06-06T09:54:51Z</time>
      </trkpt>
      <trkpt lat="48.39529" lon="2.53519">
        <ele>120.7</ele>
        <time>2020-06-06T09:54:53Z</time>
      </trkpt>
      <trkpt lat="48.39529" lon="2.53509">
        <ele>120.4</ele>
        <time>2020-06-06T09:54:55Z</time>
      </trkpt>
      <trkpt lat="48.39531" lon="2.535">
        <ele>120.2</ele>
        <time>2020-06-06T09:54:57Z</time>
      </trkpt>
      <trkpt lat="48.39532" lon="2.53491">
        <ele>120.3</ele>
        <time>2020-06-06T09:54:59Z</time>
      </trkpt>
      <trkpt lat="48.3953" lon="2.53481">
        <ele>120.2</ele>
        <time>2020-06-06T09:55:01Z</time>
      </trkpt>
      <trkpt lat="48.39529" lon="2.53471">
        <ele>120</ele>
        <time>2020-06-06T09:55:03Z</time>
      </trkpt>
      <trkpt lat="48.39525" lon="2.53462">
        <ele>119.6</ele>
        <time>2020-06-06T09:55:05Z</time>
      </trkpt>
      <trkpt lat="48.39519" lon="2.53455">
        <ele>119.5</ele>
        <time>2020-06-06T09:55:07Z</time>
      </trkpt>
      <trkpt lat="48.39515" lon="2.53456">
        <ele>119.5</ele>
        <time>2020-06-06T09:55:09Z</time>
      </trkpt>
      <trkpt lat="48.39509" lon="2.53454">
        <ele>119.6</ele>
        <time>2020-06-06T09:55:11Z</time>
      </trkpt>
      <trkpt lat="48.39503" lon="2.53451">
        <ele>119.7</ele>
        <time>2020-06-06T09:55:13Z</time>
      </trkpt>
      <trkpt lat="48.39498" lon="2.53448">
        <ele>119.9</ele>
        <time>2020-06-06T09:55:15Z</time>
      </trkpt>
      <trkpt lat="48.39491" lon="2.53447">
        <ele>119.9</ele>
        <time>2020-06-06T09:55:17Z</time>
      </trkpt>
      <trkpt lat="48.39486" lon="2.53445">
        <ele>120</ele>
        <time>2020-06-06T09:55:19Z</time>
      </trkpt>
      <trkpt lat="48.39479" lon="2.53443">
        <ele>120</ele>
        <time>2020-06-06T09:55:21Z</time>
      </trkpt>
      <trkpt lat="48.39471" lon="2.53441">
        <ele>120</ele>
        <time>2020-06-06T09:55:23Z</time>
      </trkpt>
      <trkpt lat="48.39464" lon="2.53438">
        <ele>120.1</ele>
        <time>2020-06-06T09:55:25Z</time>
      </trkpt>
      <trkpt lat="48.39456" lon="2.53438">
        <ele>120.1</ele>
        <time>2020-06-06T09:55:27Z</time>
      </trkpt>
      <trkpt lat="48.39448" lon="2.53437">
        <ele>120.2</ele>
        <time>2020-06-06T09:55:29Z</time>
      </trkpt>
      <trkpt lat="48.3944" lon="2.53434">
        <ele>120.5</ele>
        <time>2020-06-06T09:55:31Z</time>
      </trkpt>
      <trkpt lat="48.39435" lon="2.53433">
        <ele>120.6</ele>
        <time>2020-06-06T09:55:33Z</time>
      </trkpt>
      <trkpt lat="48.39429" lon="2.53431">
        <ele>120.8</ele>
        <time>2020-06-06T09:55:35Z</time>
      </trkpt>
      <trkpt lat="48.39422" lon="2.53429">
        <ele>120.9</ele>
        <time>2020-06-06T09:55:37Z</time>
      </trkpt>
      <trkpt lat="48.39414" lon="2.53425">
        <ele>121</ele>
        <time>2020-06-06T09:55:39Z</time>
      </trkpt>
      <trkpt lat="48.39405" lon="2.53422">
        <ele>121</ele>
        <time>2020-06-06T09:55:41Z</time>
      </trkpt>
      <trkpt lat="48.39397" lon="2.5342">
        <ele>121</ele>
        <time>2020-06-06T09:55:43Z</time>
      </trkpt>
      <trkpt lat="48.3939" lon="2.53418">
        <ele>121</ele>
        <time>2020-06-06T09:55:45Z</time>
      </trkpt>
      <trkpt lat="48.39383" lon="2.53415">
        <ele>121</ele>
        <time>2020-06-06T09:55:47Z</time>
      </trkpt>
      <trkpt lat="48.39378" lon="2.53413">
        <ele>121</ele>
        <time>2020-06-06T09:55:49Z</time>
      </trkpt>
      <trkpt lat="48.3937" lon="2.5341">
        <ele>121</ele>
        <time>2020-06-06T09:55:51Z</time>
      </trkpt>
      <trkpt lat="48.39364" lon="2.53409">
        <ele>121</ele>
        <time>2020-06-06T09:55:53Z</time>
      </trkpt>
      <trkpt lat="48.39357" lon="2.53406">
        <ele>121</ele>
        <time>2020-06-06T09:55:55Z</time>
      </trkpt>
      <trkpt lat="48.39352" lon="2.53405">
        <ele>121</ele>
        <time>2020-06-06T09:55:57Z</time>
      </trkpt>
      <trkpt lat="48.39343" lon="2.53402">
        <ele>121</ele>
        <time>2020-06-06T09:55:59Z</time>
      </trkpt>
      <trkpt lat="48.39334" lon="2.534">
        <ele>121</ele>
        <time>2020-06-06T09:56:01Z</time>
      </trkpt>
      <trkpt lat="48.39329" lon="2.53397">
        <ele>120.8</ele>
        <time>2020-06-06T09:56:03Z</time>
      </trkpt>
      <trkpt lat="48.39321" lon="2.53395">
        <ele>120.6</ele>
        <time>2020-06-06T09:56:05Z</time>
      </trkpt>
      <trkpt lat="48.39315" lon="2.53394">
        <ele>120.3</ele>
        <time>2020-06-06T09:56:07Z</time>
      </trkpt>
      <trkpt lat="48.39308" lon="2.5339">
        <ele>120.1</ele>
        <time>2020-06-06T09:56:09Z</time>
      </trkpt>
      <trkpt lat="48.39301" lon="2.53391">
        <ele>119.8</ele>
        <time>2020-06-06T09:56:11Z</time>
      </trkpt>
      <trkpt lat="48.39292" lon="2.53389">
        <ele>119.5</ele>
        <time>2020-06-06T09:56:13Z</time>
      </trkpt>
      <trkpt lat="48.39285" lon="2.53386">
        <ele>119.3</ele>
        <time>2020-06-06T09:56:15Z</time>
      </trkpt>
      <trkpt lat="48.39279" lon="2.53384">
        <ele>119</ele>
        <time>2020-06-06T09:56:17Z</time>
      </trkpt>
      <trkpt lat="48.39274" lon="2.53381">
        <ele>118.9</ele>
        <time>2020-06-06T09:56:19Z</time>
      </trkpt>
      <trkpt lat="48.39267" lon="2.53378">
        <ele>118.6</ele>
        <time>2020-06-06T09:56:21Z</time>
      </trkpt>
      <trkpt lat="48.3926" lon="2.53375">
        <ele>118.4</ele>
        <time>2020-06-06T09:56:23Z</time>
      </trkpt>
      <trkpt lat="48.39253" lon="2.53375">
        <ele>118.1</ele>
        <time>2020-06-06T09:56:25Z</time>
      </trkpt>
      <trkpt lat="48.39245" lon="2.53372">
        <ele>117.8</ele>
        <time>2020-06-06T09:56:27Z</time>
      </trkpt>
      <trkpt lat="48.3924" lon="2.53366">
        <ele>117.6</ele>
        <time>2020-06-06T09:56:29Z</time>
      </trkpt>
      <trkpt lat="48.39234" lon="2.5336">
        <ele>117.4</ele>
        <time>2020-06-06T09:56:31Z</time>
      </trkpt>
      <trkpt lat="48.39228" lon="2.53354">
        <ele>117.4</ele>
        <time>2020-06-06T09:56:33Z</time>
      </trkpt>
      <trkpt lat="48.3922" lon="2.53353">
        <ele>117.3</ele>
        <time>2020-06-06T09:56:37Z</time>
      </trkpt>
      <trkpt lat="48.39217" lon="2.53357">
        <ele>117.3</ele>
        <time>2020-06-06T09:57:29Z</time>
      </trkpt>
      <trkpt lat="48.39211" lon="2.53362">
        <ele>117.4</ele>
        <time>2020-06-06T09:57:33Z</time>
      </trkpt>
      <trkpt lat="48.39206" lon="2.5337">
        <ele>117.6</ele>
        <time>2020-06-06T09:57:37Z</time>
      </trkpt>
      <trkpt lat="48.39201" lon="2.53378">
        <ele>117.8</ele>
        <time>2020-06-06T09:57:41Z</time>
      </trkpt>
      <trkpt lat="48.39198" lon="2.53382">
        <ele>117.9</ele>
        <time>2020-06-06T09:57:43Z</time>
      </trkpt>
      <trkpt lat="48.39193" lon="2.53388">
        <ele>118.1</ele>
        <time>2020-06-06T09:57:45Z</time>
      </trkpt>
      <trkpt lat="48.39187" lon="2.53397">
        <ele>118.1</ele>
        <time>2020-06-06T09:57:47Z</time>
      </trkpt>
      <trkpt lat="48.39182" lon="2.53404">
        <ele>118.1</ele>
        <time>2020-06-06T09:57:49Z</time>
      </trkpt>
      <trkpt lat="48.39179" lon="2.53413">
        <ele>118.2</ele>
        <time>2020-06-06T09:57:51Z</time>
      </trkpt>
      <trkpt lat="48.39178" lon="2.53423">
        <ele>118.2</ele>
        <time>2020-06-06T09:57:53Z</time>
      </trkpt>
      <trkpt lat="48.39175" lon="2.53432">
        <ele>118.4</ele>
        <time>2020-06-06T09:57:55Z</time>
      </trkpt>
      <trkpt lat="48.3917" lon="2.5344">
        <ele>118.8</ele>
        <time>2020-06-06T09:57:57Z</time>
      </trkpt>
      <trkpt lat="48.39166" lon="2.53448">
        <ele>118.9</ele>
        <time>2020-06-06T09:57:59Z</time>
      </trkpt>
      <trkpt lat="48.39164" lon="2.53454">
        <ele>118.8</ele>
        <time>2020-06-06T09:58:01Z</time>
      </trkpt>
      <trkpt lat="48.39161" lon="2.53461">
        <ele>118.7</ele>
        <time>2020-06-06T09:58:03Z</time>
      </trkpt>
      <trkpt lat="48.39156" lon="2.53466">
        <ele>118.9</ele>
        <time>2020-06-06T09:58:05Z</time>
      </trkpt>
      <trkpt lat="48.39151" lon="2.53472">
        <ele>119.1</ele>
        <time>2020-06-06T09:58:07Z</time>
      </trkpt>
      <trkpt lat="48.39147" lon="2.53479">
        <ele>119.2</ele>
        <time>2020-06-06T09:58:09Z</time>
      </trkpt>
      <trkpt lat="48.39142" lon="2.53487">
        <ele>119.2</ele>
        <time>2020-06-06T09:58:11Z</time>
      </trkpt>
      <trkpt lat="48.39139" lon="2.53499">
        <ele>119</ele>
        <time>2020-06-06T09:58:13Z</time>
      </trkpt>
      <trkpt lat="48.39135" lon="2.53509">
        <ele>118.6</ele>
        <time>2020-06-06T09:58:15Z</time>
      </trkpt>
      <trkpt lat="48.3913" lon="2.53518">
        <ele>118.4</ele>
        <time>2020-06-06T09:58:17Z</time>
      </trkpt>
      <trkpt lat="48.39124" lon="2.53526">
        <ele>118.7</ele>
        <time>2020-06-06T09:58:19Z</time>
      </trkpt>
      <trkpt lat="48.39118" lon="2.53532">
        <ele>119.1</ele>
        <time>2020-06-06T09:58:21Z</time>
      </trkpt>
      <trkpt lat="48.39114" lon="2.53541">
        <ele>119.2</ele>
        <time>2020-06-06T09:58:23Z</time>
      </trkpt>
      <trkpt lat="48.39111" lon="2.53547">
        <ele>119.3</ele>
        <time>2020-06-06T09:58:25Z</time>
      </trkpt>
      <trkpt lat="48.39107" lon="2.53553">
        <ele>119.4</ele>
        <time>2020-06-06T09:58:27Z</time>
      </trkpt>
      <trkpt lat="48.39104" lon="2.53561">
        <ele>119.2</ele>
        <time>2020-06-06T09:58:29Z</time>
      </trkpt>
      <trkpt lat="48.391" lon="2.53568">
        <ele>119.1</ele>
        <time>2020-06-06T09:58:31Z</time>
      </trkpt>
      <trkpt lat="48.39097" lon="2.53576">
        <ele>118.9</ele>
        <time>2020-06-06T09:58:33Z</time>
      </trkpt>
      <trkpt lat="48.39091" lon="2.53582">
        <ele>119.2</ele>
        <time>2020-06-06T09:58:35Z</time>
      </trkpt>
      <trkpt lat="48.39084" lon="2.53586">
        <ele>119.7</ele>
        <time>2020-06-06T09:58:37Z</time>
      </trkpt>
      <trkpt lat="48.39078" lon="2.53591">
        <ele>119.7</ele>
        <time>2020-06-06T09:58:39Z</time>
      </trkpt>
      <trkpt lat="48.3907" lon="2.53595">
        <ele>120</ele>
        <time>2020-06-06T09:58:41Z</time>
      </trkpt>
      <trkpt lat="48.39065" lon="2.53597">
        <ele>120.3</ele>
        <time>2020-06-06T09:58:43Z</time>
      </trkpt>
      <trkpt lat="48.39058" lon="2.53602">
        <ele>120.8</ele>
        <time>2020-06-06T09:58:45Z</time>
      </trkpt>
      <trkpt lat="48.39054" lon="2.53609">
        <ele>121.1</ele>
        <time>2020-06-06T09:58:47Z</time>
      </trkpt>
      <trkpt lat="48.39049" lon="2.53617">
        <ele>121</ele>
        <time>2020-06-06T09:58:49Z</time>
      </trkpt>
      <trkpt lat="48.39044" lon="2.53624">
        <ele>121</ele>
        <time>2020-06-06T09:58:51Z</time>
      </trkpt>
      <trkpt lat="48.3904" lon="2.53633">
        <ele>120.8</ele>
        <time>2020-06-06T09:58:53Z</time>
      </trkpt>
      <trkpt lat="48.39033" lon="2.53639">
        <ele>120.8</ele>
        <time>2020-06-06T09:58:55Z</time>
      </trkpt>
      <trkpt lat="48.39028" lon="2.53646">
        <ele>120.7</ele>
        <time>2020-06-06T09:58:57Z</time>
      </trkpt>
      <trkpt lat="48.39024" lon="2.53652">
        <ele>120.7</ele>
        <time>2020-06-06T09:58:59Z</time>
      </trkpt>
      <trkpt lat="48.39017" lon="2.53656">
        <ele>121</ele>
        <time>2020-06-06T09:59:01Z</time>
      </trkpt>
      <trkpt lat="48.3901" lon="2.53658">
        <ele>121.4</ele>
        <time>2020-06-06T09:59:03Z</time>
      </trkpt>
      <trkpt lat="48.39003" lon="2.5366">
        <ele>121.8</ele>
        <time>2020-06-06T09:59:05Z</time>
      </trkpt>
      <trkpt lat="48.38996" lon="2.53663">
        <ele>122</ele>
        <time>2020-06-06T09:59:07Z</time>
      </trkpt>
      <trkpt lat="48.3899" lon="2.53668">
        <ele>122</ele>
        <time>2020-06-06T09:59:09Z</time>
      </trkpt>
      <trkpt lat="48.38985" lon="2.53672">
        <ele>121.8</ele>
        <time>2020-06-06T09:59:11Z</time>
      </trkpt>
      <trkpt lat="48.38979" lon="2.53674">
        <ele>121.7</ele>
        <time>2020-06-06T09:59:13Z</time>
      </trkpt>
      <trkpt lat="48.38972" lon="2.53674">
        <ele>121.7</ele>
        <time>2020-06-06T09:59:15Z</time>
      </trkpt>
      <trkpt lat="48.38966" lon="2.53678">
        <ele>121.7</ele>
        <time>2020-06-06T09:59:17Z</time>
      </trkpt>
      <trkpt lat="48.38961" lon="2.53682">
        <ele>121.7</ele>
        <time>2020-06-06T09:59:19Z</time>
      </trkpt>
      <trkpt lat="48.38956" lon="2.53688">
        <ele>121.7</ele>
        <time>2020-06-06T09:59:21Z</time>
      </trkpt>
      <trkpt lat="48.38954" lon="2.53696">
        <ele>121.6</ele>
        <time>2020-06-06T09:59:23Z</time>
      </trkpt>
      <trkpt lat="48.38949" lon="2.53704">
        <ele>121.5</ele>
        <time>2020-06-06T09:59:25Z</time>
      </trkpt>
      <trkpt lat="48.38943" lon="2.5371">
        <ele>121.4</ele>
        <time>2020-06-06T09:59:27Z</time>
      </trkpt>
      <trkpt lat="48.38937" lon="2.53715">
        <ele>121.3</ele>
        <time>2020-06-06T09:59:29Z</time>
      </trkpt>
      <trkpt lat="48.3893" lon="2.5372">
        <ele>121.1</ele>
        <time>2020-06-06T09:59:31Z</time>
      </trkpt>
      <trkpt lat="48.38924" lon="2.53728">
        <ele>120.9</ele>
        <time>2020-06-06T09:59:33Z</time>
      </trkpt>
      <trkpt lat="48.38917" lon="2.53734">
        <ele>121</ele>
        <time>2020-06-06T09:59:35Z</time>
      </trkpt>
      <trkpt lat="48.3891" lon="2.53743">
        <ele>121.1</ele>
        <time>2020-06-06T09:59:37Z</time>
      </trkpt>
      <trkpt lat="48.38904" lon="2.53749">
        <ele>121</ele>
        <time>2020-06-06T09:59:39Z</time>
      </trkpt>
      <trkpt lat="48.389" lon="2.53762">
        <ele>120.7</ele>
        <time>2020-06-06T09:59:41Z</time>
      </trkpt>
      <trkpt lat="48.38897" lon="2.5377">
        <ele>120.5</ele>
        <time>2020-06-06T09:59:43Z</time>
      </trkpt>
      <trkpt lat="48.38894" lon="2.5378">
        <ele>120.2</ele>
        <time>2020-06-06T09:59:45Z</time>
      </trkpt>
      <trkpt lat="48.38892" lon="2.53791">
        <ele>120.1</ele>
        <time>2020-06-06T09:59:47Z</time>
      </trkpt>
      <trkpt lat="48.38893" lon="2.53803">
        <ele>120</ele>
        <time>2020-06-06T09:59:49Z</time>
      </trkpt>
      <trkpt lat="48.38895" lon="2.53813">
        <ele>119.7</ele>
        <time>2020-06-06T09:59:51Z</time>
      </trkpt>
      <trkpt lat="48.38898" lon="2.53823">
        <ele>119.2</ele>
        <time>2020-06-06T09:59:53Z</time>
      </trkpt>
      <trkpt lat="48.389" lon="2.53835">
        <ele>118.6</ele>
        <time>2020-06-06T09:59:55Z</time>
      </trkpt>
      <trkpt lat="48.389" lon="2.53847">
        <ele>118.2</ele>
        <time>2020-06-06T09:59:57Z</time>
      </trkpt>
      <trkpt lat="48.38898" lon="2.53855">
        <ele>118.2</ele>
        <time>2020-06-06T09:59:59Z</time>
      </trkpt>
      <trkpt lat="48.38892" lon="2.53864">
        <ele>118.7</ele>
        <time>2020-06-06T10:00:01Z</time>
      </trkpt>
      <trkpt lat="48.38889" lon="2.53871">
        <ele>119</ele>
        <time>2020-06-06T10:00:03Z</time>
      </trkpt>
      <trkpt lat="48.38889" lon="2.53881">
        <ele>119</ele>
        <time>2020-06-06T10:00:05Z</time>
      </trkpt>
      <trkpt lat="48.3889" lon="2.53892">
        <ele>118.8</ele>
        <time>2020-06-06T10:00:07Z</time>
      </trkpt>
      <trkpt lat="48.3889" lon="2.539">
        <ele>118.8</ele>
        <time>2020-06-06T10:00:09Z</time>
      </trkpt>
      <trkpt lat="48.38886" lon="2.53909">
        <ele>119</ele>
        <time>2020-06-06T10:00:11Z</time>
      </trkpt>
      <trkpt lat="48.38888" lon="2.53916">
        <ele>119</ele>
        <time>2020-06-06T10:00:13Z</time>
      </trkpt>
      <trkpt lat="48.38893" lon="2.53923">
        <ele>117.4</ele>
        <time>2020-06-06T10:00:17Z</time>
      </trkpt>
      <trkpt lat="48.38887" lon="2.53925">
        <ele>118.2</ele>
        <time>2020-06-06T10:00:47Z</time>
      </trkpt>
      <trkpt lat="48.38883" lon="2.53926">
        <ele>118.4</ele>
        <time>2020-06-06T10:04:41Z</time>
      </trkpt>
      <trkpt lat="48.38878" lon="2.53927">
        <ele>118.7</ele>
        <time>2020-06-06T10:05:17Z</time>
      </trkpt>
      <trkpt lat="48.38871" lon="2.53928">
        <ele>119.2</ele>
        <time>2020-06-06T10:05:21Z</time>
      </trkpt>
      <trkpt lat="48.38865" lon="2.53934">
        <ele>119.6</ele>
        <time>2020-06-06T10:05:23Z</time>
      </trkpt>
      <trkpt lat="48.38861" lon="2.5394">
        <ele>120</ele>
        <time>2020-06-06T10:05:25Z</time>
      </trkpt>
      <trkpt lat="48.38857" lon="2.53947">
        <ele>119.9</ele>
        <time>2020-06-06T10:05:27Z</time>
      </trkpt>
      <trkpt lat="48.38853" lon="2.53953">
        <ele>119.9</ele>
        <time>2020-06-06T10:05:29Z</time>
      </trkpt>
      <trkpt lat="48.38849" lon="2.53963">
        <ele>119.9</ele>
        <time>2020-06-06T10:05:31Z</time>
      </trkpt>
      <trkpt lat="48.38844" lon="2.53971">
        <ele>120.2</ele>
        <time>2020-06-06T10:05:33Z</time>
      </trkpt>
      <trkpt lat="48.3884" lon="2.53979">
        <ele>120.5</ele>
        <time>2020-06-06T10:05:35Z</time>
      </trkpt>
      <trkpt lat="48.38836" lon="2.53989">
        <ele>120.8</ele>
        <time>2020-06-06T10:05:37Z</time>
      </trkpt>
      <trkpt lat="48.38834" lon="2.53999">
        <ele>121</ele>
        <time>2020-06-06T10:05:39Z</time>
      </trkpt>
      <trkpt lat="48.38833" lon="2.54009">
        <ele>121</ele>
        <time>2020-06-06T10:05:41Z</time>
      </trkpt>
      <trkpt lat="48.3883" lon="2.54017">
        <ele>120.6</ele>
        <time>2020-06-06T10:05:43Z</time>
      </trkpt>
      <trkpt lat="48.38827" lon="2.54026">
        <ele>120.3</ele>
        <time>2020-06-06T10:05:45Z</time>
      </trkpt>
      <trkpt lat="48.38824" lon="2.54035">
        <ele>120.1</ele>
        <time>2020-06-06T10:05:47Z</time>
      </trkpt>
      <trkpt lat="48.3882" lon="2.54046">
        <ele>119.9</ele>
        <time>2020-06-06T10:05:49Z</time>
      </trkpt>
      <trkpt lat="48.38817" lon="2.54055">
        <ele>119.8</ele>
        <time>2020-06-06T10:05:51Z</time>
      </trkpt>
      <trkpt lat="48.38815" lon="2.54067">
        <ele>120.1</ele>
        <time>2020-06-06T10:05:53Z</time>
      </trkpt>
      <trkpt lat="48.38815" lon="2.54077">
        <ele>120.5</ele>
        <time>2020-06-06T10:05:55Z</time>
      </trkpt>
      <trkpt lat="48.38813" lon="2.54089">
        <ele>120.5</ele>
        <time>2020-06-06T10:05:57Z</time>
      </trkpt>
      <trkpt lat="48.38812" lon="2.54099">
        <ele>120.3</ele>
        <time>2020-06-06T10:05:59Z</time>
      </trkpt>
      <trkpt lat="48.3881" lon="2.5411">
        <ele>120.2</ele>
        <time>2020-06-06T10:06:01Z</time>
      </trkpt>
      <trkpt lat="48.38808" lon="2.5412">
        <ele>120.1</ele>
        <time>2020-06-06T10:06:03Z</time>
      </trkpt>
      <trkpt lat="48.38808" lon="2.54132">
        <ele>120</ele>
        <time>2020-06-06T10:06:05Z</time>
      </trkpt>
      <trkpt lat="48.38807" lon="2.54144">
        <ele>119.8</ele>
        <time>2020-06-06T10:06:07Z</time>
      </trkpt>
      <trkpt lat="48.38806" lon="2.54157">
        <ele>119.3</ele>
        <time>2020-06-06T10:06:09Z</time>
      </trkpt>
      <trkpt lat="48.38804" lon="2.54168">
        <ele>118.9</ele>
        <time>2020-06-06T10:06:11Z</time>
      </trkpt>
      <trkpt lat="48.38803" lon="2.54178">
        <ele>118.9</ele>
        <time>2020-06-06T10:06:13Z</time>
      </trkpt>
      <trkpt lat="48.38801" lon="2.54188">
        <ele>118.8</ele>
        <time>2020-06-06T10:06:15Z</time>
      </trkpt>
      <trkpt lat="48.38796" lon="2.54194">
        <ele>118.7</ele>
        <time>2020-06-06T10:06:17Z</time>
      </trkpt>
      <trkpt lat="48.38789" lon="2.54198">
        <ele>118.3</ele>
        <time>2020-06-06T10:06:19Z</time>
      </trkpt>
      <trkpt lat="48.38781" lon="2.54196">
        <ele>118.1</ele>
        <time>2020-06-06T10:06:21Z</time>
      </trkpt>
      <trkpt lat="48.3877" lon="2.54196">
        <ele>117.7</ele>
        <time>2020-06-06T10:06:23Z</time>
      </trkpt>
      <trkpt lat="48.38764" lon="2.54202">
        <ele>117.2</ele>
        <time>2020-06-06T10:06:25Z</time>
      </trkpt>
      <trkpt lat="48.38764" lon="2.54214">
        <ele>116.8</ele>
        <time>2020-06-06T10:06:27Z</time>
      </trkpt>
      <trkpt lat="48.38765" lon="2.54225">
        <ele>116.5</ele>
        <time>2020-06-06T10:06:29Z</time>
      </trkpt>
      <trkpt lat="48.38765" lon="2.54236">
        <ele>116.3</ele>
        <time>2020-06-06T10:06:31Z</time>
      </trkpt>
      <trkpt lat="48.38765" lon="2.54246">
        <ele>116.1</ele>
        <time>2020-06-06T10:06:33Z</time>
      </trkpt>
      <trkpt lat="48.38764" lon="2.54259">
        <ele>115.8</ele>
        <time>2020-06-06T10:06:35Z</time>
      </trkpt>
      <trkpt lat="48.38761" lon="2.54271">
        <ele>115.9</ele>
        <time>2020-06-06T10:06:37Z</time>
      </trkpt>
      <trkpt lat="48.38756" lon="2.54279">
        <ele>116.4</ele>
        <time>2020-06-06T10:06:39Z</time>
      </trkpt>
      <trkpt lat="48.38749" lon="2.54286">
        <ele>117.3</ele>
        <time>2020-06-06T10:06:41Z</time>
      </trkpt>
      <trkpt lat="48.38741" lon="2.54296">
        <ele>117.7</ele>
        <time>2020-06-06T10:06:43Z</time>
      </trkpt>
      <trkpt lat="48.38732" lon="2.54308">
        <ele>118.1</ele>
        <time>2020-06-06T10:06:45Z</time>
      </trkpt>
      <trkpt lat="48.38723" lon="2.54318">
        <ele>118.4</ele>
        <time>2020-06-06T10:06:47Z</time>
      </trkpt>
      <trkpt lat="48.38714" lon="2.54326">
        <ele>118.5</ele>
        <time>2020-06-06T10:06:49Z</time>
      </trkpt>
      <trkpt lat="48.38704" lon="2.54333">
        <ele>118.3</ele>
        <time>2020-06-06T10:06:51Z</time>
      </trkpt>
      <trkpt lat="48.38697" lon="2.54342">
        <ele>118.1</ele>
        <time>2020-06-06T10:06:53Z</time>
      </trkpt>
      <trkpt lat="48.38692" lon="2.5435">
        <ele>117.9</ele>
        <time>2020-06-06T10:06:55Z</time>
      </trkpt>
      <trkpt lat="48.3869" lon="2.54358">
        <ele>117.8</ele>
        <time>2020-06-06T10:06:57Z</time>
      </trkpt>
      <trkpt lat="48.38688" lon="2.54366">
        <ele>117.8</ele>
        <time>2020-06-06T10:06:59Z</time>
      </trkpt>
      <trkpt lat="48.38684" lon="2.54373">
        <ele>117.6</ele>
        <time>2020-06-06T10:07:01Z</time>
      </trkpt>
      <trkpt lat="48.3868" lon="2.5438">
        <ele>117.5</ele>
        <time>2020-06-06T10:07:03Z</time>
      </trkpt>
      <trkpt lat="48.38675" lon="2.54381">
        <ele>117.3</ele>
        <time>2020-06-06T10:07:05Z</time>
      </trkpt>
      <trkpt lat="48.38671" lon="2.54378">
        <ele>117.2</ele>
        <time>2020-06-06T10:07:07Z</time>
      </trkpt>
      <trkpt lat="48.38666" lon="2.54373">
        <ele>117</ele>
        <time>2020-06-06T10:07:09Z</time>
      </trkpt>
      <trkpt lat="48.38669" lon="2.54359">
        <ele>117.1</ele>
        <time>2020-06-06T10:07:13Z</time>
      </trkpt>
      <trkpt lat="48.38671" lon="2.54351">
        <ele>117.2</ele>
        <time>2020-06-06T10:07:15Z</time>
      </trkpt>
      <trkpt lat="48.38672" lon="2.54343">
        <ele>117.2</ele>
        <time>2020-06-06T10:07:17Z</time>
      </trkpt>
      <trkpt lat="48.38674" lon="2.54334">
        <ele>117.3</ele>
        <time>2020-06-06T10:07:19Z</time>
      </trkpt>
      <trkpt lat="48.38675" lon="2.54323">
        <ele>117.3</ele>
        <time>2020-06-06T10:07:21Z</time>
      </trkpt>
      <trkpt lat="48.38675" lon="2.54313">
        <ele>117.3</ele>
        <time>2020-06-06T10:07:23Z</time>
      </trkpt>
      <trkpt lat="48.38675" lon="2.54304">
        <ele>117.3</ele>
        <time>2020-06-06T10:07:25Z</time>
      </trkpt>
      <trkpt lat="48.38676" lon="2.54296">
        <ele>117.2</ele>
        <time>2020-06-06T10:07:27Z</time>
      </trkpt>
      <trkpt lat="48.38677" lon="2.54286">
        <ele>117.1</ele>
        <time>2020-06-06T10:07:29Z</time>
      </trkpt>
      <trkpt lat="48.38678" lon="2.54276">
        <ele>117</ele>
        <time>2020-06-06T10:07:31Z</time>
      </trkpt>
      <trkpt lat="48.38678" lon="2.54267">
        <ele>116.8</ele>
        <time>2020-06-06T10:07:33Z</time>
      </trkpt>
      <trkpt lat="48.38679" lon="2.54256">
        <ele>116.6</ele>
        <time>2020-06-06T10:07:35Z</time>
      </trkpt>
      <trkpt lat="48.38682" lon="2.54246">
        <ele>116.5</ele>
        <time>2020-06-06T10:07:37Z</time>
      </trkpt>
      <trkpt lat="48.38683" lon="2.54234">
        <ele>116.2</ele>
        <time>2020-06-06T10:07:39Z</time>
      </trkpt>
      <trkpt lat="48.38686" lon="2.54222">
        <ele>116</ele>
        <time>2020-06-06T10:07:41Z</time>
      </trkpt>
      <trkpt lat="48.38688" lon="2.54212">
        <ele>116</ele>
        <time>2020-06-06T10:07:43Z</time>
      </trkpt>
      <trkpt lat="48.38691" lon="2.54202">
        <ele>116</ele>
        <time>2020-06-06T10:07:45Z</time>
      </trkpt>
      <trkpt lat="48.38693" lon="2.5419">
        <ele>115.8</ele>
        <time>2020-06-06T10:07:47Z</time>
      </trkpt>
      <trkpt lat="48.38693" lon="2.54178">
        <ele>115.4</ele>
        <time>2020-06-06T10:07:49Z</time>
      </trkpt>
      <trkpt lat="48.38694" lon="2.54168">
        <ele>115</ele>
        <time>2020-06-06T10:07:51Z</time>
      </trkpt>
      <trkpt lat="48.38694" lon="2.54157">
        <ele>115</ele>
        <time>2020-06-06T10:07:53Z</time>
      </trkpt>
      <trkpt lat="48.38694" lon="2.54147">
        <ele>115</ele>
        <time>2020-06-06T10:07:55Z</time>
      </trkpt>
      <trkpt lat="48.38695" lon="2.54137">
        <ele>115</ele>
        <time>2020-06-06T10:07:57Z</time>
      </trkpt>
      <trkpt lat="48.38695" lon="2.54128">
        <ele>115</ele>
        <time>2020-06-06T10:07:59Z</time>
      </trkpt>
      <trkpt lat="48.38695" lon="2.54117">
        <ele>115</ele>
        <time>2020-06-06T10:08:01Z</time>
      </trkpt>
      <trkpt lat="48.38696" lon="2.54106">
        <ele>115</ele>
        <time>2020-06-06T10:08:03Z</time>
      </trkpt>
      <trkpt lat="48.38699" lon="2.54096">
        <ele>114.9</ele>
        <time>2020-06-06T10:08:05Z</time>
      </trkpt>
      <trkpt lat="48.38701" lon="2.54084">
        <ele>114.8</ele>
        <time>2020-06-06T10:08:07Z</time>
      </trkpt>
      <trkpt lat="48.38702" lon="2.54073">
        <ele>114.7</ele>
        <time>2020-06-06T10:08:09Z</time>
      </trkpt>
      <trkpt lat="48.38703" lon="2.54063">
        <ele>114.7</ele>
        <time>2020-06-06T10:08:11Z</time>
      </trkpt>
      <trkpt lat="48.38704" lon="2.5405">
        <ele>114.7</ele>
        <time>2020-06-06T10:08:13Z</time>
      </trkpt>
      <trkpt lat="48.38705" lon="2.54037">
        <ele>114.6</ele>
        <time>2020-06-06T10:08:15Z</time>
      </trkpt>
      <trkpt lat="48.38706" lon="2.54025">
        <ele>114.5</ele>
        <time>2020-06-06T10:08:17Z</time>
      </trkpt>
      <trkpt lat="48.38706" lon="2.54012">
        <ele>114.3</ele>
        <time>2020-06-06T10:08:19Z</time>
      </trkpt>
      <trkpt lat="48.38706" lon="2.54002">
        <ele>114</ele>
        <time>2020-06-06T10:08:21Z</time>
      </trkpt>
      <trkpt lat="48.38707" lon="2.5399">
        <ele>114</ele>
        <time>2020-06-06T10:08:23Z</time>
      </trkpt>
      <trkpt lat="48.38709" lon="2.53978">
        <ele>114</ele>
        <time>2020-06-06T10:08:25Z</time>
      </trkpt>
      <trkpt lat="48.38709" lon="2.53965">
        <ele>113.7</ele>
        <time>2020-06-06T10:08:27Z</time>
      </trkpt>
      <trkpt lat="48.3871" lon="2.53952">
        <ele>113.3</ele>
        <time>2020-06-06T10:08:29Z</time>
      </trkpt>
      <trkpt lat="48.38711" lon="2.53942">
        <ele>112.9</ele>
        <time>2020-06-06T10:08:31Z</time>
      </trkpt>
      <trkpt lat="48.38712" lon="2.53931">
        <ele>112.2</ele>
        <time>2020-06-06T10:08:33Z</time>
      </trkpt>
      <trkpt lat="48.38712" lon="2.53921">
        <ele>111.6</ele>
        <time>2020-06-06T10:08:35Z</time>
      </trkpt>
      <trkpt lat="48.38713" lon="2.5391">
        <ele>110.9</ele>
        <time>2020-06-06T10:08:37Z</time>
      </trkpt>
      <trkpt lat="48.38714" lon="2.53899">
        <ele>110</ele>
        <time>2020-06-06T10:08:39Z</time>
      </trkpt>
      <trkpt lat="48.38716" lon="2.53889">
        <ele>109.2</ele>
        <time>2020-06-06T10:08:41Z</time>
      </trkpt>
      <trkpt lat="48.38717" lon="2.53879">
        <ele>108.2</ele>
        <time>2020-06-06T10:08:43Z</time>
      </trkpt>
      <trkpt lat="48.38719" lon="2.53869">
        <ele>107.1</ele>
        <time>2020-06-06T10:08:45Z</time>
      </trkpt>
      <trkpt lat="48.38722" lon="2.53857">
        <ele>105.6</ele>
        <time>2020-06-06T10:08:47Z</time>
      </trkpt>
      <trkpt lat="48.38725" lon="2.53849">
        <ele>104.5</ele>
        <time>2020-06-06T10:08:49Z</time>
      </trkpt>
      <trkpt lat="48.38726" lon="2.53835">
        <ele>103</ele>
        <time>2020-06-06T10:08:53Z</time>
      </trkpt>
      <trkpt lat="48.38723" lon="2.5383">
        <ele>102.6</ele>
        <time>2020-06-06T10:08:55Z</time>
      </trkpt>
      <trkpt lat="48.38717" lon="2.53826">
        <ele>102.8</ele>
        <time>2020-06-06T10:08:57Z</time>
      </trkpt>
      <trkpt lat="48.38713" lon="2.53821">
        <ele>102.7</ele>
        <time>2020-06-06T10:08:59Z</time>
      </trkpt>
      <trkpt lat="48.38711" lon="2.53815">
        <ele>102.2</ele>
        <time>2020-06-06T10:09:01Z</time>
      </trkpt>
      <trkpt lat="48.38707" lon="2.53809">
        <ele>102</ele>
        <time>2020-06-06T10:09:03Z</time>
      </trkpt>
      <trkpt lat="48.38703" lon="2.53802">
        <ele>101.6</ele>
        <time>2020-06-06T10:09:05Z</time>
      </trkpt>
      <trkpt lat="48.38699" lon="2.53798">
        <ele>101.5</ele>
        <time>2020-06-06T10:09:07Z</time>
      </trkpt>
      <trkpt lat="48.38695" lon="2.53792">
        <ele>101</ele>
        <time>2020-06-06T10:09:09Z</time>
      </trkpt>
      <trkpt lat="48.38688" lon="2.53787">
        <ele>101.1</ele>
        <time>2020-06-06T10:09:11Z</time>
      </trkpt>
      <trkpt lat="48.38682" lon="2.53786">
        <ele>101.7</ele>
        <time>2020-06-06T10:09:13Z</time>
      </trkpt>
      <trkpt lat="48.38677" lon="2.53786">
        <ele>102.3</ele>
        <time>2020-06-06T10:09:15Z</time>
      </trkpt>
      <trkpt lat="48.38669" lon="2.53786">
        <ele>103.3</ele>
        <time>2020-06-06T10:09:19Z</time>
      </trkpt>
      <trkpt lat="48.38664" lon="2.53796">
        <ele>104.5</ele>
        <time>2020-06-06T10:09:23Z</time>
      </trkpt>
      <trkpt lat="48.38663" lon="2.53803">
        <ele>105</ele>
        <time>2020-06-06T10:09:25Z</time>
      </trkpt>
      <trkpt lat="48.38658" lon="2.5381">
        <ele>105.5</ele>
        <time>2020-06-06T10:09:29Z</time>
      </trkpt>
      <trkpt lat="48.38656" lon="2.53817">
        <ele>105.9</ele>
        <time>2020-06-06T10:09:31Z</time>
      </trkpt>
      <trkpt lat="48.38652" lon="2.53824">
        <ele>106.2</ele>
        <time>2020-06-06T10:09:33Z</time>
      </trkpt>
      <trkpt lat="48.38649" lon="2.53836">
        <ele>106.6</ele>
        <time>2020-06-06T10:09:37Z</time>
      </trkpt>
      <trkpt lat="48.38646" lon="2.53842">
        <ele>106.9</ele>
        <time>2020-06-06T10:09:39Z</time>
      </trkpt>
      <trkpt lat="48.38641" lon="2.53846">
        <ele>107</ele>
        <time>2020-06-06T10:09:41Z</time>
      </trkpt>
      <trkpt lat="48.38639" lon="2.53854">
        <ele>107.5</ele>
        <time>2020-06-06T10:09:43Z</time>
      </trkpt>
      <trkpt lat="48.38637" lon="2.53861">
        <ele>108</ele>
        <time>2020-06-06T10:09:45Z</time>
      </trkpt>
      <trkpt lat="48.38633" lon="2.53873">
        <ele>108.3</ele>
        <time>2020-06-06T10:09:49Z</time>
      </trkpt>
      <trkpt lat="48.38631" lon="2.5388">
        <ele>108.5</ele>
        <time>2020-06-06T10:09:51Z</time>
      </trkpt>
      <trkpt lat="48.3863" lon="2.53887">
        <ele>108.6</ele>
        <time>2020-06-06T10:09:53Z</time>
      </trkpt>
      <trkpt lat="48.38629" lon="2.53894">
        <ele>108.9</ele>
        <time>2020-06-06T10:09:55Z</time>
      </trkpt>
      <trkpt lat="48.38629" lon="2.53901">
        <ele>109.4</ele>
        <time>2020-06-06T10:09:57Z</time>
      </trkpt>
      <trkpt lat="48.38628" lon="2.53908">
        <ele>109.7</ele>
        <time>2020-06-06T10:09:59Z</time>
      </trkpt>
      <trkpt lat="48.38628" lon="2.53915">
        <ele>110.1</ele>
        <time>2020-06-06T10:10:01Z</time>
      </trkpt>
      <trkpt lat="48.38628" lon="2.53923">
        <ele>110.4</ele>
        <time>2020-06-06T10:10:03Z</time>
      </trkpt>
      <trkpt lat="48.38628" lon="2.53931">
        <ele>110.7</ele>
        <time>2020-06-06T10:10:05Z</time>
      </trkpt>
      <trkpt lat="48.38623" lon="2.53945">
        <ele>110.9</ele>
        <time>2020-06-06T10:10:09Z</time>
      </trkpt>
      <trkpt lat="48.38619" lon="2.53958">
        <ele>110.7</ele>
        <time>2020-06-06T10:10:13Z</time>
      </trkpt>
      <trkpt lat="48.38617" lon="2.53965">
        <ele>110.6</ele>
        <time>2020-06-06T10:10:15Z</time>
      </trkpt>
      <trkpt lat="48.38613" lon="2.5397">
        <ele>110.2</ele>
        <time>2020-06-06T10:10:17Z</time>
      </trkpt>
      <trkpt lat="48.38611" lon="2.53977">
        <ele>110.2</ele>
        <time>2020-06-06T10:10:19Z</time>
      </trkpt>
      <trkpt lat="48.38609" lon="2.53983">
        <ele>110.6</ele>
        <time>2020-06-06T10:10:21Z</time>
      </trkpt>
      <trkpt lat="48.38607" lon="2.5399">
        <ele>110.9</ele>
        <time>2020-06-06T10:10:23Z</time>
      </trkpt>
      <trkpt lat="48.38604" lon="2.53998">
        <ele>111.2</ele>
        <time>2020-06-06T10:10:25Z</time>
      </trkpt>
      <trkpt lat="48.386" lon="2.54004">
        <ele>111.5</ele>
        <time>2020-06-06T10:10:27Z</time>
      </trkpt>
      <trkpt lat="48.38598" lon="2.5401">
        <ele>111.7</ele>
        <time>2020-06-06T10:10:29Z</time>
      </trkpt>
      <trkpt lat="48.38597" lon="2.54024">
        <ele>111.9</ele>
        <time>2020-06-06T10:10:33Z</time>
      </trkpt>
      <trkpt lat="48.38593" lon="2.54032">
        <ele>112.2</ele>
        <time>2020-06-06T10:10:35Z</time>
      </trkpt>
      <trkpt lat="48.38591" lon="2.54039">
        <ele>112.5</ele>
        <time>2020-06-06T10:10:37Z</time>
      </trkpt>
      <trkpt lat="48.38588" lon="2.54048">
        <ele>112.9</ele>
        <time>2020-06-06T10:10:39Z</time>
      </trkpt>
      <trkpt lat="48.38586" lon="2.54056">
        <ele>113.1</ele>
        <time>2020-06-06T10:10:41Z</time>
      </trkpt>
      <trkpt lat="48.38583" lon="2.54063">
        <ele>113</ele>
        <time>2020-06-06T10:10:43Z</time>
      </trkpt>
      <trkpt lat="48.38577" lon="2.54072">
        <ele>113.2</ele>
        <time>2020-06-06T10:10:47Z</time>
      </trkpt>
      <trkpt lat="48.38573" lon="2.54078">
        <ele>113.4</ele>
        <time>2020-06-06T10:10:49Z</time>
      </trkpt>
      <trkpt lat="48.38568" lon="2.54083">
        <ele>113.6</ele>
        <time>2020-06-06T10:10:51Z</time>
      </trkpt>
      <trkpt lat="48.38564" lon="2.54088">
        <ele>113.6</ele>
        <time>2020-06-06T10:10:53Z</time>
      </trkpt>
      <trkpt lat="48.3856" lon="2.54093">
        <ele>113.6</ele>
        <time>2020-06-06T10:10:55Z</time>
      </trkpt>
      <trkpt lat="48.38557" lon="2.541">
        <ele>113.4</ele>
        <time>2020-06-06T10:10:57Z</time>
      </trkpt>
      <trkpt lat="48.38554" lon="2.54109">
        <ele>113.1</ele>
        <time>2020-06-06T10:10:59Z</time>
      </trkpt>
      <trkpt lat="48.38551" lon="2.54119">
        <ele>113.2</ele>
        <time>2020-06-06T10:11:01Z</time>
      </trkpt>
      <trkpt lat="48.38547" lon="2.54128">
        <ele>113.3</ele>
        <time>2020-06-06T10:11:03Z</time>
      </trkpt>
      <trkpt lat="48.38542" lon="2.54136">
        <ele>113.5</ele>
        <time>2020-06-06T10:11:05Z</time>
      </trkpt>
      <trkpt lat="48.38537" lon="2.54145">
        <ele>113.5</ele>
        <time>2020-06-06T10:11:07Z</time>
      </trkpt>
      <trkpt lat="48.38534" lon="2.5415">
        <ele>113.5</ele>
        <time>2020-06-06T10:11:09Z</time>
      </trkpt>
      <trkpt lat="48.38528" lon="2.5416">
        <ele>113.2</ele>
        <time>2020-06-06T10:11:13Z</time>
      </trkpt>
      <trkpt lat="48.38527" lon="2.54167">
        <ele>113.1</ele>
        <time>2020-06-06T10:11:15Z</time>
      </trkpt>
      <trkpt lat="48.38526" lon="2.54174">
        <ele>113.2</ele>
        <time>2020-06-06T10:11:17Z</time>
      </trkpt>
      <trkpt lat="48.38524" lon="2.54183">
        <ele>113.3</ele>
        <time>2020-06-06T10:11:19Z</time>
      </trkpt>
      <trkpt lat="48.38522" lon="2.54191">
        <ele>113.4</ele>
        <time>2020-06-06T10:11:21Z</time>
      </trkpt>
      <trkpt lat="48.38519" lon="2.54199">
        <ele>113.7</ele>
        <time>2020-06-06T10:11:23Z</time>
      </trkpt>
      <trkpt lat="48.38516" lon="2.54209">
        <ele>114.1</ele>
        <time>2020-06-06T10:11:25Z</time>
      </trkpt>
      <trkpt lat="48.38516" lon="2.5422">
        <ele>114.4</ele>
        <time>2020-06-06T10:11:27Z</time>
      </trkpt>
      <trkpt lat="48.38517" lon="2.54232">
        <ele>114.4</ele>
        <time>2020-06-06T10:11:29Z</time>
      </trkpt>
      <trkpt lat="48.38518" lon="2.54241">
        <ele>114.4</ele>
        <time>2020-06-06T10:11:31Z</time>
      </trkpt>
      <trkpt lat="48.38519" lon="2.5425">
        <ele>114.3</ele>
        <time>2020-06-06T10:11:33Z</time>
      </trkpt>
      <trkpt lat="48.38519" lon="2.54259">
        <ele>114.3</ele>
        <time>2020-06-06T10:11:35Z</time>
      </trkpt>
      <trkpt lat="48.38519" lon="2.54269">
        <ele>114.3</ele>
        <time>2020-06-06T10:11:37Z</time>
      </trkpt>
      <trkpt lat="48.38519" lon="2.54279">
        <ele>114.3</ele>
        <time>2020-06-06T10:11:39Z</time>
      </trkpt>
      <trkpt lat="48.38521" lon="2.54289">
        <ele>114.2</ele>
        <time>2020-06-06T10:11:41Z</time>
      </trkpt>
      <trkpt lat="48.38521" lon="2.54299">
        <ele>114.2</ele>
        <time>2020-06-06T10:11:43Z</time>
      </trkpt>
      <trkpt lat="48.38521" lon="2.54311">
        <ele>114.2</ele>
        <time>2020-06-06T10:11:45Z</time>
      </trkpt>
      <trkpt lat="48.38519" lon="2.54322">
        <ele>114.3</ele>
        <time>2020-06-06T10:11:47Z</time>
      </trkpt>
      <trkpt lat="48.38518" lon="2.54335">
        <ele>114.4</ele>
        <time>2020-06-06T10:11:49Z</time>
      </trkpt>
      <trkpt lat="48.38518" lon="2.54348">
        <ele>114.4</ele>
        <time>2020-06-06T10:11:51Z</time>
      </trkpt>
      <trkpt lat="48.38516" lon="2.5436">
        <ele>114.4</ele>
        <time>2020-06-06T10:11:53Z</time>
      </trkpt>
      <trkpt lat="48.38517" lon="2.54372">
        <ele>114.4</ele>
        <time>2020-06-06T10:11:55Z</time>
      </trkpt>
      <trkpt lat="48.38518" lon="2.54385">
        <ele>114.4</ele>
        <time>2020-06-06T10:11:57Z</time>
      </trkpt>
      <trkpt lat="48.38518" lon="2.54396">
        <ele>114.4</ele>
        <time>2020-06-06T10:11:59Z</time>
      </trkpt>
      <trkpt lat="48.38519" lon="2.54406">
        <ele>114.3</ele>
        <time>2020-06-06T10:12:01Z</time>
      </trkpt>
      <trkpt lat="48.38518" lon="2.54418">
        <ele>114.4</ele>
        <time>2020-06-06T10:12:03Z</time>
      </trkpt>
      <trkpt lat="48.38515" lon="2.54429">
        <ele>114.5</ele>
        <time>2020-06-06T10:12:05Z</time>
      </trkpt>
      <trkpt lat="48.38512" lon="2.5444">
        <ele>114.6</ele>
        <time>2020-06-06T10:12:07Z</time>
      </trkpt>
      <trkpt lat="48.38511" lon="2.5445">
        <ele>114.7</ele>
        <time>2020-06-06T10:12:09Z</time>
      </trkpt>
      <trkpt lat="48.38511" lon="2.54458">
        <ele>114.8</ele>
        <time>2020-06-06T10:12:11Z</time>
      </trkpt>
      <trkpt lat="48.38509" lon="2.54466">
        <ele>114.9</ele>
        <time>2020-06-06T10:12:13Z</time>
      </trkpt>
      <trkpt lat="48.38507" lon="2.54476">
        <ele>115</ele>
        <time>2020-06-06T10:12:15Z</time>
      </trkpt>
      <trkpt lat="48.38505" lon="2.54485">
        <ele>115</ele>
        <time>2020-06-06T10:12:17Z</time>
      </trkpt>
      <trkpt lat="48.38505" lon="2.54494">
        <ele>115</ele>
        <time>2020-06-06T10:12:19Z</time>
      </trkpt>
      <trkpt lat="48.38505" lon="2.54502">
        <ele>115</ele>
        <time>2020-06-06T10:12:21Z</time>
      </trkpt>
      <trkpt lat="48.38504" lon="2.54512">
        <ele>115</ele>
        <time>2020-06-06T10:12:23Z</time>
      </trkpt>
      <trkpt lat="48.38503" lon="2.5452">
        <ele>115</ele>
        <time>2020-06-06T10:12:25Z</time>
      </trkpt>
      <trkpt lat="48.38501" lon="2.54527">
        <ele>115</ele>
        <time>2020-06-06T10:12:27Z</time>
      </trkpt>
      <trkpt lat="48.385" lon="2.54535">
        <ele>115</ele>
        <time>2020-06-06T10:12:29Z</time>
      </trkpt>
      <trkpt lat="48.38496" lon="2.54541">
        <ele>115</ele>
        <time>2020-06-06T10:12:31Z</time>
      </trkpt>
      <trkpt lat="48.38493" lon="2.54548">
        <ele>115</ele>
        <time>2020-06-06T10:12:33Z</time>
      </trkpt>
      <trkpt lat="48.38489" lon="2.54554">
        <ele>115</ele>
        <time>2020-06-06T10:12:35Z</time>
      </trkpt>
      <trkpt lat="48.38487" lon="2.5456">
        <ele>115</ele>
        <time>2020-06-06T10:12:37Z</time>
      </trkpt>
      <trkpt lat="48.38486" lon="2.54567">
        <ele>115</ele>
        <time>2020-06-06T10:12:39Z</time>
      </trkpt>
      <trkpt lat="48.38484" lon="2.54574">
        <ele>115</ele>
        <time>2020-06-06T10:12:41Z</time>
      </trkpt>
      <trkpt lat="48.38482" lon="2.54585">
        <ele>115</ele>
        <time>2020-06-06T10:12:45Z</time>
      </trkpt>
      <trkpt lat="48.38476" lon="2.54587">
        <ele>115</ele>
        <time>2020-06-06T10:12:57Z</time>
      </trkpt>
      <trkpt lat="48.38471" lon="2.54585">
        <ele>115</ele>
        <time>2020-06-06T10:13:01Z</time>
      </trkpt>
      <trkpt lat="48.38466" lon="2.54585">
        <ele>115</ele>
        <time>2020-06-06T10:13:03Z</time>
      </trkpt>
      <trkpt lat="48.38458" lon="2.54583">
        <ele>115</ele>
        <time>2020-06-06T10:13:07Z</time>
      </trkpt>
      <trkpt lat="48.38462" lon="2.5458">
        <ele>115</ele>
        <time>2020-06-06T10:13:27Z</time>
      </trkpt>
      <trkpt lat="48.38467" lon="2.54582">
        <ele>115</ele>
        <time>2020-06-06T10:13:29Z</time>
      </trkpt>
      <trkpt lat="48.38471" lon="2.54584">
        <ele>115</ele>
        <time>2020-06-06T10:13:31Z</time>
      </trkpt>
      <trkpt lat="48.38476" lon="2.54588">
        <ele>115</ele>
        <time>2020-06-06T10:13:33Z</time>
      </trkpt>
      <trkpt lat="48.3848" lon="2.54592">
        <ele>115</ele>
        <time>2020-06-06T10:13:35Z</time>
      </trkpt>
      <trkpt lat="48.38484" lon="2.546">
        <ele>115</ele>
        <time>2020-06-06T10:13:37Z</time>
      </trkpt>
      <trkpt lat="48.38486" lon="2.54609">
        <ele>115</ele>
        <time>2020-06-06T10:13:39Z</time>
      </trkpt>
      <trkpt lat="48.38486" lon="2.54618">
        <ele>115</ele>
        <time>2020-06-06T10:13:41Z</time>
      </trkpt>
      <trkpt lat="48.38482" lon="2.54626">
        <ele>115</ele>
        <time>2020-06-06T10:13:43Z</time>
      </trkpt>
      <trkpt lat="48.38479" lon="2.54632">
        <ele>115</ele>
        <time>2020-06-06T10:13:45Z</time>
      </trkpt>
      <trkpt lat="48.38476" lon="2.54642">
        <ele>115</ele>
        <time>2020-06-06T10:13:47Z</time>
      </trkpt>
      <trkpt lat="48.38474" lon="2.5465">
        <ele>115</ele>
        <time>2020-06-06T10:13:49Z</time>
      </trkpt>
      <trkpt lat="48.38472" lon="2.5466">
        <ele>115</ele>
        <time>2020-06-06T10:13:51Z</time>
      </trkpt>
      <trkpt lat="48.38469" lon="2.54669">
        <ele>114.8</ele>
        <time>2020-06-06T10:13:53Z</time>
      </trkpt>
      <trkpt lat="48.38465" lon="2.54676">
        <ele>114.6</ele>
        <time>2020-06-06T10:13:55Z</time>
      </trkpt>
      <trkpt lat="48.38459" lon="2.54683">
        <ele>114.5</ele>
        <time>2020-06-06T10:13:57Z</time>
      </trkpt>
      <trkpt lat="48.38452" lon="2.54687">
        <ele>114.6</ele>
        <time>2020-06-06T10:13:59Z</time>
      </trkpt>
      <trkpt lat="48.38446" lon="2.54689">
        <ele>114.8</ele>
        <time>2020-06-06T10:14:01Z</time>
      </trkpt>
      <trkpt lat="48.38442" lon="2.54693">
        <ele>114.9</ele>
        <time>2020-06-06T10:14:03Z</time>
      </trkpt>
      <trkpt lat="48.38436" lon="2.54699">
        <ele>114.7</ele>
        <time>2020-06-06T10:14:05Z</time>
      </trkpt>
      <trkpt lat="48.38431" lon="2.54704">
        <ele>114.7</ele>
        <time>2020-06-06T10:14:07Z</time>
      </trkpt>
      <trkpt lat="48.38426" lon="2.54711">
        <ele>114.7</ele>
        <time>2020-06-06T10:14:09Z</time>
      </trkpt>
      <trkpt lat="48.38421" lon="2.54715">
        <ele>114.8</ele>
        <time>2020-06-06T10:14:11Z</time>
      </trkpt>
      <trkpt lat="48.38415" lon="2.54717">
        <ele>114.8</ele>
        <time>2020-06-06T10:14:13Z</time>
      </trkpt>
      <trkpt lat="48.3841" lon="2.54717">
        <ele>114.6</ele>
        <time>2020-06-06T10:14:15Z</time>
      </trkpt>
      <trkpt lat="48.38405" lon="2.54718">
        <ele>114.4</ele>
        <time>2020-06-06T10:14:17Z</time>
      </trkpt>
      <trkpt lat="48.38399" lon="2.54721">
        <ele>114.3</ele>
        <time>2020-06-06T10:14:19Z</time>
      </trkpt>
      <trkpt lat="48.38391" lon="2.54728">
        <ele>114.3</ele>
        <time>2020-06-06T10:14:21Z</time>
      </trkpt>
      <trkpt lat="48.38384" lon="2.54735">
        <ele>114.3</ele>
        <time>2020-06-06T10:14:23Z</time>
      </trkpt>
      <trkpt lat="48.38379" lon="2.54743">
        <ele>114.4</ele>
        <time>2020-06-06T10:14:25Z</time>
      </trkpt>
      <trkpt lat="48.38376" lon="2.54751">
        <ele>114.5</ele>
        <time>2020-06-06T10:14:27Z</time>
      </trkpt>
      <trkpt lat="48.38372" lon="2.54761">
        <ele>114.4</ele>
        <time>2020-06-06T10:14:31Z</time>
      </trkpt>
      <trkpt lat="48.38367" lon="2.54763">
        <ele>114.2</ele>
        <time>2020-06-06T10:14:33Z</time>
      </trkpt>
      <trkpt lat="48.38362" lon="2.54767">
        <ele>114</ele>
        <time>2020-06-06T10:14:35Z</time>
      </trkpt>
      <trkpt lat="48.38357" lon="2.54769">
        <ele>113.6</ele>
        <time>2020-06-06T10:14:37Z</time>
      </trkpt>
      <trkpt lat="48.38351" lon="2.54772">
        <ele>113</ele>
        <time>2020-06-06T10:14:39Z</time>
      </trkpt>
      <trkpt lat="48.38344" lon="2.54783">
        <ele>112.2</ele>
        <time>2020-06-06T10:14:43Z</time>
      </trkpt>
      <trkpt lat="48.3834" lon="2.5479">
        <ele>111.7</ele>
        <time>2020-06-06T10:14:45Z</time>
      </trkpt>
      <trkpt lat="48.38336" lon="2.54797">
        <ele>111.3</ele>
        <time>2020-06-06T10:14:47Z</time>
      </trkpt>
      <trkpt lat="48.38332" lon="2.54803">
        <ele>111</ele>
        <time>2020-06-06T10:14:49Z</time>
      </trkpt>
      <trkpt lat="48.38328" lon="2.54809">
        <ele>110.7</ele>
        <time>2020-06-06T10:14:51Z</time>
      </trkpt>
      <trkpt lat="48.38321" lon="2.54816">
        <ele>110.2</ele>
        <time>2020-06-06T10:14:53Z</time>
      </trkpt>
      <trkpt lat="48.38314" lon="2.54821">
        <ele>109.7</ele>
        <time>2020-06-06T10:14:55Z</time>
      </trkpt>
      <trkpt lat="48.38308" lon="2.54829">
        <ele>109.2</ele>
        <time>2020-06-06T10:14:57Z</time>
      </trkpt>
      <trkpt lat="48.38307" lon="2.54838">
        <ele>109.1</ele>
        <time>2020-06-06T10:14:59Z</time>
      </trkpt>
      <trkpt lat="48.38308" lon="2.5485">
        <ele>109.1</ele>
        <time>2020-06-06T10:15:01Z</time>
      </trkpt>
      <trkpt lat="48.38306" lon="2.54862">
        <ele>109</ele>
        <time>2020-06-06T10:15:03Z</time>
      </trkpt>
      <trkpt lat="48.38307" lon="2.54876">
        <ele>109.1</ele>
        <time>2020-06-06T10:15:05Z</time>
      </trkpt>
      <trkpt lat="48.38307" lon="2.5489">
        <ele>109.1</ele>
        <time>2020-06-06T10:15:07Z</time>
      </trkpt>
      <trkpt lat="48.38304" lon="2.54904">
        <ele>109</ele>
        <time>2020-06-06T10:15:09Z</time>
      </trkpt>
      <trkpt lat="48.38301" lon="2.54916">
        <ele>109</ele>
        <time>2020-06-06T10:15:11Z</time>
      </trkpt>
      <trkpt lat="48.38298" lon="2.54923">
        <ele>108.9</ele>
        <time>2020-06-06T10:15:13Z</time>
      </trkpt>
      <trkpt lat="48.38293" lon="2.54936">
        <ele>108.7</ele>
        <time>2020-06-06T10:15:15Z</time>
      </trkpt>
      <trkpt lat="48.38287" lon="2.54949">
        <ele>108.3</ele>
        <time>2020-06-06T10:15:17Z</time>
      </trkpt>
      <trkpt lat="48.38283" lon="2.54959">
        <ele>108.1</ele>
        <time>2020-06-06T10:15:19Z</time>
      </trkpt>
      <trkpt lat="48.38279" lon="2.54974">
        <ele>107.9</ele>
        <time>2020-06-06T10:15:21Z</time>
      </trkpt>
      <trkpt lat="48.38274" lon="2.54988">
        <ele>107.5</ele>
        <time>2020-06-06T10:15:23Z</time>
      </trkpt>
      <trkpt lat="48.38268" lon="2.54997">
        <ele>107.4</ele>
        <time>2020-06-06T10:15:25Z</time>
      </trkpt>
      <trkpt lat="48.38266" lon="2.55006">
        <ele>107.4</ele>
        <time>2020-06-06T10:15:27Z</time>
      </trkpt>
      <trkpt lat="48.38266" lon="2.55019">
        <ele>107.4</ele>
        <time>2020-06-06T10:15:29Z</time>
      </trkpt>
      <trkpt lat="48.38264" lon="2.5503">
        <ele>107.5</ele>
        <time>2020-06-06T10:15:31Z</time>
      </trkpt>
      <trkpt lat="48.38264" lon="2.5504">
        <ele>107.5</ele>
        <time>2020-06-06T10:15:33Z</time>
      </trkpt>
      <trkpt lat="48.38269" lon="2.55048">
        <ele>107.3</ele>
        <time>2020-06-06T10:15:37Z</time>
      </trkpt>
      <trkpt lat="48.38272" lon="2.55043">
        <ele>107.2</ele>
        <time>2020-06-06T10:15:39Z</time>
      </trkpt>
      <trkpt lat="48.38279" lon="2.55038">
        <ele>107</ele>
        <time>2020-06-06T10:15:43Z</time>
      </trkpt>
      <trkpt lat="48.38285" lon="2.55033">
        <ele>107.3</ele>
        <time>2020-06-06T10:15:47Z</time>
      </trkpt>
      <trkpt lat="48.38292" lon="2.55032">
        <ele>107.5</ele>
        <time>2020-06-06T10:15:51Z</time>
      </trkpt>
      <trkpt lat="48.38299" lon="2.5503">
        <ele>107.8</ele>
        <time>2020-06-06T10:15:57Z</time>
      </trkpt>
      <trkpt lat="48.38304" lon="2.55029">
        <ele>107.9</ele>
        <time>2020-06-06T10:16:01Z</time>
      </trkpt>
      <trkpt lat="48.38311" lon="2.55031">
        <ele>108.8</ele>
        <time>2020-06-06T10:16:07Z</time>
      </trkpt>
      <trkpt lat="48.38316" lon="2.55033">
        <ele>109.6</ele>
        <time>2020-06-06T10:16:11Z</time>
      </trkpt>
      <trkpt lat="48.38321" lon="2.55036">
        <ele>110.4</ele>
        <time>2020-06-06T10:16:15Z</time>
      </trkpt>
      <trkpt lat="48.38326" lon="2.55036">
        <ele>111.2</ele>
        <time>2020-06-06T10:16:19Z</time>
      </trkpt>
      <trkpt lat="48.38332" lon="2.55039">
        <ele>112.2</ele>
        <time>2020-06-06T10:16:23Z</time>
      </trkpt>
      <trkpt lat="48.38336" lon="2.55043">
        <ele>112.9</ele>
        <time>2020-06-06T10:16:27Z</time>
      </trkpt>
      <trkpt lat="48.38339" lon="2.55051">
        <ele>113.5</ele>
        <time>2020-06-06T10:16:31Z</time>
      </trkpt>
      <trkpt lat="48.38343" lon="2.5506">
        <ele>114</ele>
        <time>2020-06-06T10:16:35Z</time>
      </trkpt>
      <trkpt lat="48.38347" lon="2.55069">
        <ele>114.5</ele>
        <time>2020-06-06T10:16:39Z</time>
      </trkpt>
      <trkpt lat="48.38352" lon="2.55075">
        <ele>115</ele>
        <time>2020-06-06T10:16:43Z</time>
      </trkpt>
      <trkpt lat="48.3836" lon="2.55076">
        <ele>115.9</ele>
        <time>2020-06-06T10:16:47Z</time>
      </trkpt>
      <trkpt lat="48.38367" lon="2.55079">
        <ele>116</ele>
        <time>2020-06-06T10:16:51Z</time>
      </trkpt>
      <trkpt lat="48.38373" lon="2.55081">
        <ele>116</ele>
        <time>2020-06-06T10:16:55Z</time>
      </trkpt>
      <trkpt lat="48.38378" lon="2.55084">
        <ele>116</ele>
        <time>2020-06-06T10:16:57Z</time>
      </trkpt>
      <trkpt lat="48.38387" lon="2.55089">
        <ele>116</ele>
        <time>2020-06-06T10:17:01Z</time>
      </trkpt>
      <trkpt lat="48.38394" lon="2.55093">
        <ele>115.8</ele>
        <time>2020-06-06T10:17:05Z</time>
      </trkpt>
      <trkpt lat="48.384" lon="2.55096">
        <ele>115.6</ele>
        <time>2020-06-06T10:17:07Z</time>
      </trkpt>
      <trkpt lat="48.38415" lon="2.55103">
        <ele>115.1</ele>
        <time>2020-06-06T10:17:11Z</time>
      </trkpt>
      <trkpt lat="48.38426" lon="2.55111">
        <ele>114.7</ele>
        <time>2020-06-06T10:17:13Z</time>
      </trkpt>
      <trkpt lat="48.38435" lon="2.55118">
        <ele>114.3</ele>
        <time>2020-06-06T10:17:15Z</time>
      </trkpt>
      <trkpt lat="48.38443" lon="2.55126">
        <ele>114.1</ele>
        <time>2020-06-06T10:17:17Z</time>
      </trkpt>
      <trkpt lat="48.38451" lon="2.5513">
        <ele>114</ele>
        <time>2020-06-06T10:17:19Z</time>
      </trkpt>
      <trkpt lat="48.38462" lon="2.55136">
        <ele>114</ele>
        <time>2020-06-06T10:17:21Z</time>
      </trkpt>
      <trkpt lat="48.38473" lon="2.55143">
        <ele>114</ele>
        <time>2020-06-06T10:17:23Z</time>
      </trkpt>
      <trkpt lat="48.38483" lon="2.55148">
        <ele>113.6</ele>
        <time>2020-06-06T10:17:25Z</time>
      </trkpt>
      <trkpt lat="48.38495" lon="2.55153">
        <ele>113.2</ele>
        <time>2020-06-06T10:17:27Z</time>
      </trkpt>
      <trkpt lat="48.38506" lon="2.5516">
        <ele>113</ele>
        <time>2020-06-06T10:17:29Z</time>
      </trkpt>
      <trkpt lat="48.38515" lon="2.55171">
        <ele>113.1</ele>
        <time>2020-06-06T10:17:31Z</time>
      </trkpt>
      <trkpt lat="48.38516" lon="2.55185">
        <ele>113.4</ele>
        <time>2020-06-06T10:17:33Z</time>
      </trkpt>
      <trkpt lat="48.38516" lon="2.55194">
        <ele>113.6</ele>
        <time>2020-06-06T10:17:35Z</time>
      </trkpt>
      <trkpt lat="48.38518" lon="2.55205">
        <ele>113.4</ele>
        <time>2020-06-06T10:17:37Z</time>
      </trkpt>
      <trkpt lat="48.38519" lon="2.55217">
        <ele>113.1</ele>
        <time>2020-06-06T10:17:39Z</time>
      </trkpt>
      <trkpt lat="48.38519" lon="2.55229">
        <ele>112.9</ele>
        <time>2020-06-06T10:17:41Z</time>
      </trkpt>
      <trkpt lat="48.38519" lon="2.5524">
        <ele>112.8</ele>
        <time>2020-06-06T10:17:43Z</time>
      </trkpt>
      <trkpt lat="48.3852" lon="2.55254">
        <ele>112.7</ele>
        <time>2020-06-06T10:17:45Z</time>
      </trkpt>
      <trkpt lat="48.38519" lon="2.55268">
        <ele>112.5</ele>
        <time>2020-06-06T10:17:47Z</time>
      </trkpt>
      <trkpt lat="48.38518" lon="2.55282">
        <ele>112.2</ele>
        <time>2020-06-06T10:17:49Z</time>
      </trkpt>
      <trkpt lat="48.38516" lon="2.55296">
        <ele>111.9</ele>
        <time>2020-06-06T10:17:51Z</time>
      </trkpt>
      <trkpt lat="48.38513" lon="2.55311">
        <ele>111.3</ele>
        <time>2020-06-06T10:17:53Z</time>
      </trkpt>
      <trkpt lat="48.38513" lon="2.55328">
        <ele>111</ele>
        <time>2020-06-06T10:17:55Z</time>
      </trkpt>
      <trkpt lat="48.3851" lon="2.55346">
        <ele>110.3</ele>
        <time>2020-06-06T10:17:57Z</time>
      </trkpt>
      <trkpt lat="48.38507" lon="2.55364">
        <ele>109.7</ele>
        <time>2020-06-06T10:17:59Z</time>
      </trkpt>
      <trkpt lat="48.38506" lon="2.55383">
        <ele>109</ele>
        <time>2020-06-06T10:18:01Z</time>
      </trkpt>
      <trkpt lat="48.38505" lon="2.554">
        <ele>108.3</ele>
        <time>2020-06-06T10:18:03Z</time>
      </trkpt>
      <trkpt lat="48.38503" lon="2.55418">
        <ele>107.4</ele>
        <time>2020-06-06T10:18:05Z</time>
      </trkpt>
      <trkpt lat="48.38503" lon="2.55435">
        <ele>106.7</ele>
        <time>2020-06-06T10:18:07Z</time>
      </trkpt>
      <trkpt lat="48.38501" lon="2.5545">
        <ele>105.9</ele>
        <time>2020-06-06T10:18:09Z</time>
      </trkpt>
      <trkpt lat="48.38498" lon="2.5547">
        <ele>105.1</ele>
        <time>2020-06-06T10:18:11Z</time>
      </trkpt>
      <trkpt lat="48.38497" lon="2.55488">
        <ele>104.4</ele>
        <time>2020-06-06T10:18:13Z</time>
      </trkpt>
      <trkpt lat="48.38493" lon="2.55506">
        <ele>103.9</ele>
        <time>2020-06-06T10:18:15Z</time>
      </trkpt>
      <trkpt lat="48.38488" lon="2.55525">
        <ele>103.6</ele>
        <time>2020-06-06T10:18:17Z</time>
      </trkpt>
      <trkpt lat="48.38482" lon="2.55546">
        <ele>103.1</ele>
        <time>2020-06-06T10:18:19Z</time>
      </trkpt>
      <trkpt lat="48.38476" lon="2.55566">
        <ele>103.1</ele>
        <time>2020-06-06T10:18:21Z</time>
      </trkpt>
      <trkpt lat="48.38469" lon="2.55588">
        <ele>103</ele>
        <time>2020-06-06T10:18:23Z</time>
      </trkpt>
      <trkpt lat="48.38465" lon="2.5561">
        <ele>103</ele>
        <time>2020-06-06T10:18:25Z</time>
      </trkpt>
      <trkpt lat="48.38459" lon="2.55632">
        <ele>103</ele>
        <time>2020-06-06T10:18:27Z</time>
      </trkpt>
      <trkpt lat="48.38455" lon="2.55654">
        <ele>103</ele>
        <time>2020-06-06T10:18:29Z</time>
      </trkpt>
      <trkpt lat="48.38451" lon="2.55677">
        <ele>103</ele>
        <time>2020-06-06T10:18:31Z</time>
      </trkpt>
      <trkpt lat="48.38447" lon="2.55698">
        <ele>103</ele>
        <time>2020-06-06T10:18:33Z</time>
      </trkpt>
      <trkpt lat="48.38442" lon="2.55717">
        <ele>103.1</ele>
        <time>2020-06-06T10:18:35Z</time>
      </trkpt>
      <trkpt lat="48.38438" lon="2.55735">
        <ele>103.2</ele>
        <time>2020-06-06T10:18:37Z</time>
      </trkpt>
      <trkpt lat="48.38429" lon="2.55745">
        <ele>103.6</ele>
        <time>2020-06-06T10:18:39Z</time>
      </trkpt>
      <trkpt lat="48.38421" lon="2.55755">
        <ele>103.8</ele>
        <time>2020-06-06T10:18:41Z</time>
      </trkpt>
      <trkpt lat="48.38417" lon="2.55768">
        <ele>104</ele>
        <time>2020-06-06T10:18:43Z</time>
      </trkpt>
      <trkpt lat="48.38415" lon="2.5578">
        <ele>104.1</ele>
        <time>2020-06-06T10:18:45Z</time>
      </trkpt>
      <trkpt lat="48.38414" lon="2.55792">
        <ele>104.2</ele>
        <time>2020-06-06T10:18:47Z</time>
      </trkpt>
      <trkpt lat="48.38414" lon="2.55803">
        <ele>104.2</ele>
        <time>2020-06-06T10:18:55Z</time>
      </trkpt>
      <trkpt lat="48.38414" lon="2.55823">
        <ele>104.2</ele>
        <time>2020-06-06T10:18:57Z</time>
      </trkpt>
      <trkpt lat="48.38414" lon="2.55843">
        <ele>104.2</ele>
        <time>2020-06-06T10:18:59Z</time>
      </trkpt>
      <trkpt lat="48.38414" lon="2.55863">
        <ele>104.1</ele>
        <time>2020-06-06T10:19:01Z</time>
      </trkpt>
      <trkpt lat="48.38411" lon="2.5588">
        <ele>104.2</ele>
        <time>2020-06-06T10:19:03Z</time>
      </trkpt>
      <trkpt lat="48.38409" lon="2.55896">
        <ele>104.2</ele>
        <time>2020-06-06T10:19:05Z</time>
      </trkpt>
      <trkpt lat="48.38407" lon="2.55911">
        <ele>104.1</ele>
        <time>2020-06-06T10:19:07Z</time>
      </trkpt>
      <trkpt lat="48.38406" lon="2.55923">
        <ele>104</ele>
        <time>2020-06-06T10:19:09Z</time>
      </trkpt>
      <trkpt lat="48.38406" lon="2.55932">
        <ele>104</ele>
        <time>2020-06-06T10:19:11Z</time>
      </trkpt>
      <trkpt lat="48.38405" lon="2.55941">
        <ele>104</ele>
        <time>2020-06-06T10:19:29Z</time>
      </trkpt>
      <trkpt lat="48.38404" lon="2.55951">
        <ele>104.1</ele>
        <time>2020-06-06T10:19:33Z</time>
      </trkpt>
      <trkpt lat="48.38404" lon="2.55964">
        <ele>104.4</ele>
        <time>2020-06-06T10:19:37Z</time>
      </trkpt>
      <trkpt lat="48.38403" lon="2.55973">
        <ele>104.5</ele>
        <time>2020-06-06T10:19:39Z</time>
      </trkpt>
      <trkpt lat="48.38402" lon="2.55981">
        <ele>104.6</ele>
        <time>2020-06-06T10:19:41Z</time>
      </trkpt>
      <trkpt lat="48.38402" lon="2.5599">
        <ele>104.8</ele>
        <time>2020-06-06T10:19:43Z</time>
      </trkpt>
      <trkpt lat="48.384" lon="2.55998">
        <ele>104.8</ele>
        <time>2020-06-06T10:19:45Z</time>
      </trkpt>
      <trkpt lat="48.384" lon="2.56008">
        <ele>105.1</ele>
        <time>2020-06-06T10:19:47Z</time>
      </trkpt>
      <trkpt lat="48.384" lon="2.56016">
        <ele>105.4</ele>
        <time>2020-06-06T10:19:49Z</time>
      </trkpt>
      <trkpt lat="48.38399" lon="2.56027">
        <ele>105.7</ele>
        <time>2020-06-06T10:19:51Z</time>
      </trkpt>
      <trkpt lat="48.38399" lon="2.56037">
        <ele>105.8</ele>
        <time>2020-06-06T10:19:53Z</time>
      </trkpt>
      <trkpt lat="48.38397" lon="2.56047">
        <ele>105.8</ele>
        <time>2020-06-06T10:19:55Z</time>
      </trkpt>
      <trkpt lat="48.38393" lon="2.56056">
        <ele>105.5</ele>
        <time>2020-06-06T10:19:57Z</time>
      </trkpt>
      <trkpt lat="48.38392" lon="2.56065">
        <ele>105.7</ele>
        <time>2020-06-06T10:19:59Z</time>
      </trkpt>
      <trkpt lat="48.3839" lon="2.56075">
        <ele>105.8</ele>
        <time>2020-06-06T10:20:01Z</time>
      </trkpt>
      <trkpt lat="48.38389" lon="2.56082">
        <ele>106</ele>
        <time>2020-06-06T10:20:03Z</time>
      </trkpt>
      <trkpt lat="48.38388" lon="2.56092">
        <ele>106.7</ele>
        <time>2020-06-06T10:20:05Z</time>
      </trkpt>
      <trkpt lat="48.38385" lon="2.56098">
        <ele>107.3</ele>
        <time>2020-06-06T10:20:07Z</time>
      </trkpt>
      <trkpt lat="48.38381" lon="2.56106">
        <ele>107.8</ele>
        <time>2020-06-06T10:20:09Z</time>
      </trkpt>
      <trkpt lat="48.38378" lon="2.56112">
        <ele>108</ele>
        <time>2020-06-06T10:20:11Z</time>
      </trkpt>
      <trkpt lat="48.38373" lon="2.56117">
        <ele>108.1</ele>
        <time>2020-06-06T10:20:13Z</time>
      </trkpt>
      <trkpt lat="48.38369" lon="2.56123">
        <ele>108.1</ele>
        <time>2020-06-06T10:20:15Z</time>
      </trkpt>
      <trkpt lat="48.38363" lon="2.56129">
        <ele>108</ele>
        <time>2020-06-06T10:20:17Z</time>
      </trkpt>
      <trkpt lat="48.38358" lon="2.56135">
        <ele>108.5</ele>
        <time>2020-06-06T10:20:19Z</time>
      </trkpt>
      <trkpt lat="48.38353" lon="2.5614">
        <ele>109.2</ele>
        <time>2020-06-06T10:20:21Z</time>
      </trkpt>
      <trkpt lat="48.38348" lon="2.56146">
        <ele>109.9</ele>
        <time>2020-06-06T10:20:23Z</time>
      </trkpt>
      <trkpt lat="48.38344" lon="2.56152">
        <ele>110.4</ele>
        <time>2020-06-06T10:20:25Z</time>
      </trkpt>
      <trkpt lat="48.38338" lon="2.56155">
        <ele>110.9</ele>
        <time>2020-06-06T10:20:27Z</time>
      </trkpt>
      <trkpt lat="48.38332" lon="2.56158">
        <ele>111.4</ele>
        <time>2020-06-06T10:20:29Z</time>
      </trkpt>
      <trkpt lat="48.38326" lon="2.5616">
        <ele>111.8</ele>
        <time>2020-06-06T10:20:31Z</time>
      </trkpt>
      <trkpt lat="48.3832" lon="2.5616">
        <ele>112.3</ele>
        <time>2020-06-06T10:20:33Z</time>
      </trkpt>
      <trkpt lat="48.38316" lon="2.56162">
        <ele>112.5</ele>
        <time>2020-06-06T10:20:35Z</time>
      </trkpt>
      <trkpt lat="48.38311" lon="2.56165">
        <ele>112.7</ele>
        <time>2020-06-06T10:20:37Z</time>
      </trkpt>
      <trkpt lat="48.38305" lon="2.56174">
        <ele>113.1</ele>
        <time>2020-06-06T10:20:41Z</time>
      </trkpt>
      <trkpt lat="48.38302" lon="2.56182">
        <ele>113.3</ele>
        <time>2020-06-06T10:20:43Z</time>
      </trkpt>
      <trkpt lat="48.38299" lon="2.5619">
        <ele>113.5</ele>
        <time>2020-06-06T10:20:45Z</time>
      </trkpt>
      <trkpt lat="48.38296" lon="2.56197">
        <ele>113.7</ele>
        <time>2020-06-06T10:20:47Z</time>
      </trkpt>
      <trkpt lat="48.38294" lon="2.56206">
        <ele>113.9</ele>
        <time>2020-06-06T10:20:49Z</time>
      </trkpt>
      <trkpt lat="48.38292" lon="2.56213">
        <ele>114</ele>
        <time>2020-06-06T10:20:51Z</time>
      </trkpt>
      <trkpt lat="48.3829" lon="2.56221">
        <ele>114</ele>
        <time>2020-06-06T10:20:53Z</time>
      </trkpt>
      <trkpt lat="48.38289" lon="2.56231">
        <ele>114</ele>
        <time>2020-06-06T10:20:55Z</time>
      </trkpt>
      <trkpt lat="48.38285" lon="2.56239">
        <ele>114</ele>
        <time>2020-06-06T10:20:57Z</time>
      </trkpt>
      <trkpt lat="48.38281" lon="2.56245">
        <ele>114</ele>
        <time>2020-06-06T10:20:59Z</time>
      </trkpt>
      <trkpt lat="48.38276" lon="2.56249">
        <ele>114.1</ele>
        <time>2020-06-06T10:21:01Z</time>
      </trkpt>
      <trkpt lat="48.3827" lon="2.56253">
        <ele>114.3</ele>
        <time>2020-06-06T10:21:03Z</time>
      </trkpt>
      <trkpt lat="48.38264" lon="2.56257">
        <ele>114.5</ele>
        <time>2020-06-06T10:21:05Z</time>
      </trkpt>
      <trkpt lat="48.38258" lon="2.56261">
        <ele>114.7</ele>
        <time>2020-06-06T10:21:07Z</time>
      </trkpt>
      <trkpt lat="48.38252" lon="2.5626">
        <ele>114.9</ele>
        <time>2020-06-06T10:21:09Z</time>
      </trkpt>
      <trkpt lat="48.38246" lon="2.56263">
        <ele>115.1</ele>
        <time>2020-06-06T10:21:11Z</time>
      </trkpt>
      <trkpt lat="48.3824" lon="2.56267">
        <ele>115.4</ele>
        <time>2020-06-06T10:21:13Z</time>
      </trkpt>
      <trkpt lat="48.38233" lon="2.56274">
        <ele>115.6</ele>
        <time>2020-06-06T10:21:17Z</time>
      </trkpt>
      <trkpt lat="48.3823" lon="2.5628">
        <ele>115.7</ele>
        <time>2020-06-06T10:21:19Z</time>
      </trkpt>
      <trkpt lat="48.38222" lon="2.56288">
        <ele>115.6</ele>
        <time>2020-06-06T10:21:23Z</time>
      </trkpt>
      <trkpt lat="48.38219" lon="2.56294">
        <ele>115.3</ele>
        <time>2020-06-06T10:21:25Z</time>
      </trkpt>
      <trkpt lat="48.38217" lon="2.56302">
        <ele>114.9</ele>
        <time>2020-06-06T10:21:27Z</time>
      </trkpt>
      <trkpt lat="48.38215" lon="2.5631">
        <ele>114.7</ele>
        <time>2020-06-06T10:21:29Z</time>
      </trkpt>
      <trkpt lat="48.38213" lon="2.5632">
        <ele>114.7</ele>
        <time>2020-06-06T10:21:31Z</time>
      </trkpt>
      <trkpt lat="48.38212" lon="2.56329">
        <ele>114.6</ele>
        <time>2020-06-06T10:21:33Z</time>
      </trkpt>
      <trkpt lat="48.38209" lon="2.56339">
        <ele>114.6</ele>
        <time>2020-06-06T10:21:35Z</time>
      </trkpt>
      <trkpt lat="48.38205" lon="2.56348">
        <ele>114.7</ele>
        <time>2020-06-06T10:21:37Z</time>
      </trkpt>
      <trkpt lat="48.38202" lon="2.56357">
        <ele>114.9</ele>
        <time>2020-06-06T10:21:39Z</time>
      </trkpt>
      <trkpt lat="48.382" lon="2.56366">
        <ele>115</ele>
        <time>2020-06-06T10:21:41Z</time>
      </trkpt>
      <trkpt lat="48.38196" lon="2.56377">
        <ele>115</ele>
        <time>2020-06-06T10:21:45Z</time>
      </trkpt>
      <trkpt lat="48.38193" lon="2.56383">
        <ele>114.9</ele>
        <time>2020-06-06T10:21:47Z</time>
      </trkpt>
      <trkpt lat="48.3819" lon="2.5639">
        <ele>114.8</ele>
        <time>2020-06-06T10:21:49Z</time>
      </trkpt>
      <trkpt lat="48.38189" lon="2.56397">
        <ele>114.8</ele>
        <time>2020-06-06T10:21:51Z</time>
      </trkpt>
      <trkpt lat="48.38186" lon="2.56405">
        <ele>114.7</ele>
        <time>2020-06-06T10:21:53Z</time>
      </trkpt>
      <trkpt lat="48.38183" lon="2.56414">
        <ele>114.6</ele>
        <time>2020-06-06T10:21:55Z</time>
      </trkpt>
      <trkpt lat="48.38181" lon="2.56422">
        <ele>114.6</ele>
        <time>2020-06-06T10:21:57Z</time>
      </trkpt>
      <trkpt lat="48.38178" lon="2.5643">
        <ele>114.7</ele>
        <time>2020-06-06T10:21:59Z</time>
      </trkpt>
      <trkpt lat="48.38172" lon="2.56436">
        <ele>114.8</ele>
        <time>2020-06-06T10:22:01Z</time>
      </trkpt>
      <trkpt lat="48.38166" lon="2.56442">
        <ele>114.8</ele>
        <time>2020-06-06T10:22:03Z</time>
      </trkpt>
      <trkpt lat="48.38162" lon="2.56448">
        <ele>114.5</ele>
        <time>2020-06-06T10:22:05Z</time>
      </trkpt>
      <trkpt lat="48.38159" lon="2.56458">
        <ele>114.3</ele>
        <time>2020-06-06T10:22:07Z</time>
      </trkpt>
      <trkpt lat="48.38158" lon="2.56469">
        <ele>114.3</ele>
        <time>2020-06-06T10:22:09Z</time>
      </trkpt>
      <trkpt lat="48.38156" lon="2.56481">
        <ele>114.1</ele>
        <time>2020-06-06T10:22:11Z</time>
      </trkpt>
      <trkpt lat="48.38153" lon="2.56489">
        <ele>113.7</ele>
        <time>2020-06-06T10:22:13Z</time>
      </trkpt>
      <trkpt lat="48.38148" lon="2.5649">
        <ele>113.2</ele>
        <time>2020-06-06T10:22:15Z</time>
      </trkpt>
      <trkpt lat="48.38146" lon="2.56483">
        <ele>113.2</ele>
        <time>2020-06-06T10:22:45Z</time>
      </trkpt>
      <trkpt lat="48.38143" lon="2.56473">
        <ele>113.3</ele>
        <time>2020-06-06T10:23:21Z</time>
      </trkpt>
      <trkpt lat="48.38142" lon="2.56464">
        <ele>113</ele>
        <time>2020-06-06T10:23:23Z</time>
      </trkpt>
      <trkpt lat="48.38141" lon="2.56453">
        <ele>112.5</ele>
        <time>2020-06-06T10:23:25Z</time>
      </trkpt>
      <trkpt lat="48.38142" lon="2.56439">
        <ele>112.1</ele>
        <time>2020-06-06T10:23:27Z</time>
      </trkpt>
      <trkpt lat="48.38145" lon="2.56425">
        <ele>112</ele>
        <time>2020-06-06T10:23:29Z</time>
      </trkpt>
      <trkpt lat="48.38146" lon="2.5641">
        <ele>111.6</ele>
        <time>2020-06-06T10:23:31Z</time>
      </trkpt>
      <trkpt lat="48.38148" lon="2.56392">
        <ele>111.4</ele>
        <time>2020-06-06T10:23:33Z</time>
      </trkpt>
      <trkpt lat="48.3815" lon="2.56376">
        <ele>110.7</ele>
        <time>2020-06-06T10:23:35Z</time>
      </trkpt>
      <trkpt lat="48.38154" lon="2.56359">
        <ele>110</ele>
        <time>2020-06-06T10:23:37Z</time>
      </trkpt>
      <trkpt lat="48.38159" lon="2.56342">
        <ele>109.5</ele>
        <time>2020-06-06T10:23:39Z</time>
      </trkpt>
      <trkpt lat="48.38163" lon="2.56324">
        <ele>108.8</ele>
        <time>2020-06-06T10:23:41Z</time>
      </trkpt>
      <trkpt lat="48.38167" lon="2.56303">
        <ele>108</ele>
        <time>2020-06-06T10:23:43Z</time>
      </trkpt>
      <trkpt lat="48.38167" lon="2.56285">
        <ele>107.3</ele>
        <time>2020-06-06T10:23:45Z</time>
      </trkpt>
      <trkpt lat="48.38165" lon="2.56264">
        <ele>106.8</ele>
        <time>2020-06-06T10:23:47Z</time>
      </trkpt>
      <trkpt lat="48.38162" lon="2.56246">
        <ele>106.3</ele>
        <time>2020-06-06T10:23:49Z</time>
      </trkpt>
      <trkpt lat="48.38158" lon="2.56226">
        <ele>105.8</ele>
        <time>2020-06-06T10:23:51Z</time>
      </trkpt>
      <trkpt lat="48.38152" lon="2.5621">
        <ele>105.1</ele>
        <time>2020-06-06T10:23:53Z</time>
      </trkpt>
      <trkpt lat="48.3815" lon="2.56194">
        <ele>105</ele>
        <time>2020-06-06T10:23:55Z</time>
      </trkpt>
      <trkpt lat="48.38148" lon="2.5618">
        <ele>104.6</ele>
        <time>2020-06-06T10:23:57Z</time>
      </trkpt>
      <trkpt lat="48.38147" lon="2.56168">
        <ele>104.5</ele>
        <time>2020-06-06T10:23:59Z</time>
      </trkpt>
      <trkpt lat="48.38148" lon="2.56154">
        <ele>104.6</ele>
        <time>2020-06-06T10:24:01Z</time>
      </trkpt>
      <trkpt lat="48.38146" lon="2.56142">
        <ele>104.3</ele>
        <time>2020-06-06T10:24:03Z</time>
      </trkpt>
      <trkpt lat="48.38146" lon="2.56129">
        <ele>104.2</ele>
        <time>2020-06-06T10:24:05Z</time>
      </trkpt>
      <trkpt lat="48.38145" lon="2.56115">
        <ele>103.9</ele>
        <time>2020-06-06T10:24:07Z</time>
      </trkpt>
      <trkpt lat="48.38144" lon="2.56103">
        <ele>103.7</ele>
        <time>2020-06-06T10:24:09Z</time>
      </trkpt>
      <trkpt lat="48.38142" lon="2.56089">
        <ele>103.4</ele>
        <time>2020-06-06T10:24:11Z</time>
      </trkpt>
      <trkpt lat="48.38142" lon="2.56077">
        <ele>103.9</ele>
        <time>2020-06-06T10:24:13Z</time>
      </trkpt>
      <trkpt lat="48.38139" lon="2.56064">
        <ele>104.4</ele>
        <time>2020-06-06T10:24:15Z</time>
      </trkpt>
      <trkpt lat="48.38133" lon="2.56055">
        <ele>104.8</ele>
        <time>2020-06-06T10:24:17Z</time>
      </trkpt>
      <trkpt lat="48.38124" lon="2.56051">
        <ele>104.8</ele>
        <time>2020-06-06T10:24:19Z</time>
      </trkpt>
      <trkpt lat="48.38116" lon="2.56046">
        <ele>104.6</ele>
        <time>2020-06-06T10:24:21Z</time>
      </trkpt>
      <trkpt lat="48.38107" lon="2.56039">
        <ele>104.4</ele>
        <time>2020-06-06T10:24:23Z</time>
      </trkpt>
      <trkpt lat="48.38102" lon="2.56031">
        <ele>104.3</ele>
        <time>2020-06-06T10:24:25Z</time>
      </trkpt>
      <trkpt lat="48.38098" lon="2.56024">
        <ele>104.2</ele>
        <time>2020-06-06T10:24:27Z</time>
      </trkpt>
      <trkpt lat="48.38089" lon="2.56017">
        <ele>103.6</ele>
        <time>2020-06-06T10:24:31Z</time>
      </trkpt>
      <trkpt lat="48.38084" lon="2.56017">
        <ele>103.1</ele>
        <time>2020-06-06T10:24:33Z</time>
      </trkpt>
      <trkpt lat="48.38075" lon="2.56025">
        <ele>103</ele>
        <time>2020-06-06T10:24:37Z</time>
      </trkpt>
      <trkpt lat="48.38067" lon="2.56025">
        <ele>102.9</ele>
        <time>2020-06-06T10:24:39Z</time>
      </trkpt>
      <trkpt lat="48.38062" lon="2.56025">
        <ele>102.9</ele>
        <time>2020-06-06T10:24:41Z</time>
      </trkpt>
      <trkpt lat="48.38056" lon="2.56025">
        <ele>102.9</ele>
        <time>2020-06-06T10:24:43Z</time>
      </trkpt>
      <trkpt lat="48.38054" lon="2.56017">
        <ele>102.8</ele>
        <time>2020-06-06T10:24:47Z</time>
      </trkpt>
      <trkpt lat="48.38052" lon="2.56008">
        <ele>102.7</ele>
        <time>2020-06-06T10:24:51Z</time>
      </trkpt>
      <trkpt lat="48.38056" lon="2.56">
        <ele>102</ele>
        <time>2020-06-06T10:24:55Z</time>
      </trkpt>
      <trkpt lat="48.38054" lon="2.56008">
        <ele>102.5</ele>
        <time>2020-06-06T10:25:09Z</time>
      </trkpt>
      <trkpt lat="48.38056" lon="2.56016">
        <ele>102.6</ele>
        <time>2020-06-06T10:25:17Z</time>
      </trkpt>
      <trkpt lat="48.38053" lon="2.56009">
        <ele>102.6</ele>
        <time>2020-06-06T10:26:09Z</time>
      </trkpt>
      <trkpt lat="48.3805" lon="2.56001">
        <ele>102.6</ele>
        <time>2020-06-06T10:26:13Z</time>
      </trkpt>
      <trkpt lat="48.38045" lon="2.55991">
        <ele>102.9</ele>
        <time>2020-06-06T10:26:17Z</time>
      </trkpt>
      <trkpt lat="48.38043" lon="2.55978">
        <ele>102.6</ele>
        <time>2020-06-06T10:26:21Z</time>
      </trkpt>
      <trkpt lat="48.38041" lon="2.55968">
        <ele>102.4</ele>
        <time>2020-06-06T10:26:25Z</time>
      </trkpt>
      <trkpt lat="48.3804" lon="2.55959">
        <ele>102.3</ele>
        <time>2020-06-06T10:26:29Z</time>
      </trkpt>
      <trkpt lat="48.38038" lon="2.5595">
        <ele>102.1</ele>
        <time>2020-06-06T10:26:33Z</time>
      </trkpt>
      <trkpt lat="48.38037" lon="2.55943">
        <ele>102</ele>
        <time>2020-06-06T10:26:37Z</time>
      </trkpt>
      <trkpt lat="48.38036" lon="2.55934">
        <ele>102</ele>
        <time>2020-06-06T10:26:59Z</time>
      </trkpt>
      <trkpt lat="48.38035" lon="2.5592">
        <ele>102</ele>
        <time>2020-06-06T10:27:03Z</time>
      </trkpt>
      <trkpt lat="48.38034" lon="2.5591">
        <ele>102</ele>
        <time>2020-06-06T10:27:05Z</time>
      </trkpt>
      <trkpt lat="48.38034" lon="2.559">
        <ele>102</ele>
        <time>2020-06-06T10:27:07Z</time>
      </trkpt>
      <trkpt lat="48.38033" lon="2.55888">
        <ele>102</ele>
        <time>2020-06-06T10:27:09Z</time>
      </trkpt>
      <trkpt lat="48.38033" lon="2.55878">
        <ele>102</ele>
        <time>2020-06-06T10:27:11Z</time>
      </trkpt>
      <trkpt lat="48.38031" lon="2.55868">
        <ele>102</ele>
        <time>2020-06-06T10:27:13Z</time>
      </trkpt>
      <trkpt lat="48.38029" lon="2.55859">
        <ele>102</ele>
        <time>2020-06-06T10:27:15Z</time>
      </trkpt>
      <trkpt lat="48.38029" lon="2.55848">
        <ele>102</ele>
        <time>2020-06-06T10:27:17Z</time>
      </trkpt>
      <trkpt lat="48.38031" lon="2.55837">
        <ele>102</ele>
        <time>2020-06-06T10:27:19Z</time>
      </trkpt>
      <trkpt lat="48.38033" lon="2.55824">
        <ele>102</ele>
        <time>2020-06-06T10:27:21Z</time>
      </trkpt>
      <trkpt lat="48.38035" lon="2.55814">
        <ele>102</ele>
        <time>2020-06-06T10:27:23Z</time>
      </trkpt>
      <trkpt lat="48.38036" lon="2.55802">
        <ele>102</ele>
        <time>2020-06-06T10:27:25Z</time>
      </trkpt>
      <trkpt lat="48.38033" lon="2.55791">
        <ele>102</ele>
        <time>2020-06-06T10:27:27Z</time>
      </trkpt>
      <trkpt lat="48.38034" lon="2.55778">
        <ele>102</ele>
        <time>2020-06-06T10:27:29Z</time>
      </trkpt>
      <trkpt lat="48.38037" lon="2.55767">
        <ele>102</ele>
        <time>2020-06-06T10:27:31Z</time>
      </trkpt>
      <trkpt lat="48.38038" lon="2.55755">
        <ele>102</ele>
        <time>2020-06-06T10:27:33Z</time>
      </trkpt>
      <trkpt lat="48.38037" lon="2.55744">
        <ele>102</ele>
        <time>2020-06-06T10:27:35Z</time>
      </trkpt>
      <trkpt lat="48.38036" lon="2.55735">
        <ele>102</ele>
        <time>2020-06-06T10:27:37Z</time>
      </trkpt>
      <trkpt lat="48.38032" lon="2.55725">
        <ele>102</ele>
        <time>2020-06-06T10:27:39Z</time>
      </trkpt>
      <trkpt lat="48.38027" lon="2.55718">
        <ele>102</ele>
        <time>2020-06-06T10:27:41Z</time>
      </trkpt>
      <trkpt lat="48.38022" lon="2.55711">
        <ele>102</ele>
        <time>2020-06-06T10:27:43Z</time>
      </trkpt>
      <trkpt lat="48.38018" lon="2.55702">
        <ele>102</ele>
        <time>2020-06-06T10:27:45Z</time>
      </trkpt>
      <trkpt lat="48.38017" lon="2.5569">
        <ele>102</ele>
        <time>2020-06-06T10:27:47Z</time>
      </trkpt>
      <trkpt lat="48.38018" lon="2.55679">
        <ele>102</ele>
        <time>2020-06-06T10:27:49Z</time>
      </trkpt>
      <trkpt lat="48.38018" lon="2.55669">
        <ele>102</ele>
        <time>2020-06-06T10:27:51Z</time>
      </trkpt>
      <trkpt lat="48.38018" lon="2.55659">
        <ele>102</ele>
        <time>2020-06-06T10:27:53Z</time>
      </trkpt>
      <trkpt lat="48.38019" lon="2.5565">
        <ele>102</ele>
        <time>2020-06-06T10:27:55Z</time>
      </trkpt>
      <trkpt lat="48.3802" lon="2.55643">
        <ele>102</ele>
        <time>2020-06-06T10:27:57Z</time>
      </trkpt>
      <trkpt lat="48.38021" lon="2.55635">
        <ele>102</ele>
        <time>2020-06-06T10:27:59Z</time>
      </trkpt>
      <trkpt lat="48.38022" lon="2.55625">
        <ele>102</ele>
        <time>2020-06-06T10:28:01Z</time>
      </trkpt>
      <trkpt lat="48.38023" lon="2.55615">
        <ele>102</ele>
        <time>2020-06-06T10:28:03Z</time>
      </trkpt>
      <trkpt lat="48.38024" lon="2.55605">
        <ele>102</ele>
        <time>2020-06-06T10:28:05Z</time>
      </trkpt>
      <trkpt lat="48.38025" lon="2.55597">
        <ele>102</ele>
        <time>2020-06-06T10:28:07Z</time>
      </trkpt>
      <trkpt lat="48.38024" lon="2.55587">
        <ele>102</ele>
        <time>2020-06-06T10:28:09Z</time>
      </trkpt>
      <trkpt lat="48.38023" lon="2.55577">
        <ele>102</ele>
        <time>2020-06-06T10:28:11Z</time>
      </trkpt>
      <trkpt lat="48.3802" lon="2.55569">
        <ele>102</ele>
        <time>2020-06-06T10:28:13Z</time>
      </trkpt>
      <trkpt lat="48.38016" lon="2.55559">
        <ele>102</ele>
        <time>2020-06-06T10:28:15Z</time>
      </trkpt>
      <trkpt lat="48.38014" lon="2.5555">
        <ele>102</ele>
        <time>2020-06-06T10:28:17Z</time>
      </trkpt>
      <trkpt lat="48.38014" lon="2.5554">
        <ele>102</ele>
        <time>2020-06-06T10:28:19Z</time>
      </trkpt>
      <trkpt lat="48.38013" lon="2.55527">
        <ele>102</ele>
        <time>2020-06-06T10:28:21Z</time>
      </trkpt>
      <trkpt lat="48.38015" lon="2.55515">
        <ele>102.2</ele>
        <time>2020-06-06T10:28:23Z</time>
      </trkpt>
      <trkpt lat="48.38018" lon="2.55505">
        <ele>102.3</ele>
        <time>2020-06-06T10:28:25Z</time>
      </trkpt>
      <trkpt lat="48.3802" lon="2.55493">
        <ele>102.3</ele>
        <time>2020-06-06T10:28:27Z</time>
      </trkpt>
      <trkpt lat="48.38024" lon="2.55485">
        <ele>102.1</ele>
        <time>2020-06-06T10:28:29Z</time>
      </trkpt>
      <trkpt lat="48.38026" lon="2.55476">
        <ele>102.1</ele>
        <time>2020-06-06T10:28:31Z</time>
      </trkpt>
      <trkpt lat="48.38029" lon="2.55466">
        <ele>102</ele>
        <time>2020-06-06T10:28:33Z</time>
      </trkpt>
      <trkpt lat="48.38032" lon="2.55456">
        <ele>102</ele>
        <time>2020-06-06T10:28:35Z</time>
      </trkpt>
      <trkpt lat="48.38033" lon="2.55445">
        <ele>102</ele>
        <time>2020-06-06T10:28:37Z</time>
      </trkpt>
      <trkpt lat="48.38032" lon="2.55435">
        <ele>102</ele>
        <time>2020-06-06T10:28:39Z</time>
      </trkpt>
      <trkpt lat="48.38032" lon="2.55425">
        <ele>102</ele>
        <time>2020-06-06T10:28:41Z</time>
      </trkpt>
      <trkpt lat="48.38032" lon="2.55415">
        <ele>102</ele>
        <time>2020-06-06T10:28:43Z</time>
      </trkpt>
      <trkpt lat="48.38031" lon="2.55406">
        <ele>102</ele>
        <time>2020-06-06T10:28:45Z</time>
      </trkpt>
      <trkpt lat="48.38031" lon="2.55395">
        <ele>102</ele>
        <time>2020-06-06T10:28:47Z</time>
      </trkpt>
      <trkpt lat="48.38032" lon="2.55385">
        <ele>102</ele>
        <time>2020-06-06T10:28:49Z</time>
      </trkpt>
      <trkpt lat="48.38032" lon="2.55373">
        <ele>102.1</ele>
        <time>2020-06-06T10:28:51Z</time>
      </trkpt>
      <trkpt lat="48.38034" lon="2.55362">
        <ele>102.2</ele>
        <time>2020-06-06T10:28:53Z</time>
      </trkpt>
      <trkpt lat="48.38036" lon="2.5535">
        <ele>102.3</ele>
        <time>2020-06-06T10:28:55Z</time>
      </trkpt>
      <trkpt lat="48.38039" lon="2.5534">
        <ele>102.4</ele>
        <time>2020-06-06T10:28:57Z</time>
      </trkpt>
      <trkpt lat="48.38041" lon="2.55329">
        <ele>102.5</ele>
        <time>2020-06-06T10:28:59Z</time>
      </trkpt>
      <trkpt lat="48.38043" lon="2.55317">
        <ele>102.5</ele>
        <time>2020-06-06T10:29:01Z</time>
      </trkpt>
      <trkpt lat="48.38045" lon="2.55307">
        <ele>102.6</ele>
        <time>2020-06-06T10:29:03Z</time>
      </trkpt>
      <trkpt lat="48.38048" lon="2.55298">
        <ele>102.5</ele>
        <time>2020-06-06T10:29:05Z</time>
      </trkpt>
      <trkpt lat="48.38051" lon="2.5529">
        <ele>102.4</ele>
        <time>2020-06-06T10:29:07Z</time>
      </trkpt>
      <trkpt lat="48.38052" lon="2.55281">
        <ele>102.1</ele>
        <time>2020-06-06T10:29:09Z</time>
      </trkpt>
      <trkpt lat="48.38053" lon="2.55272">
        <ele>102</ele>
        <time>2020-06-06T10:29:11Z</time>
      </trkpt>
      <trkpt lat="48.38053" lon="2.55264">
        <ele>102</ele>
        <time>2020-06-06T10:29:13Z</time>
      </trkpt>
      <trkpt lat="48.38055" lon="2.55253">
        <ele>102</ele>
        <time>2020-06-06T10:29:15Z</time>
      </trkpt>
      <trkpt lat="48.38056" lon="2.55242">
        <ele>102</ele>
        <time>2020-06-06T10:29:17Z</time>
      </trkpt>
      <trkpt lat="48.38057" lon="2.55227">
        <ele>102.1</ele>
        <time>2020-06-06T10:29:19Z</time>
      </trkpt>
      <trkpt lat="48.38058" lon="2.55217">
        <ele>102.2</ele>
        <time>2020-06-06T10:29:21Z</time>
      </trkpt>
      <trkpt lat="48.3806" lon="2.55207">
        <ele>102.3</ele>
        <time>2020-06-06T10:29:23Z</time>
      </trkpt>
      <trkpt lat="48.38062" lon="2.55194">
        <ele>102.5</ele>
        <time>2020-06-06T10:29:25Z</time>
      </trkpt>
      <trkpt lat="48.38063" lon="2.55181">
        <ele>102.4</ele>
        <time>2020-06-06T10:29:27Z</time>
      </trkpt>
      <trkpt lat="48.38063" lon="2.55168">
        <ele>102.3</ele>
        <time>2020-06-06T10:29:29Z</time>
      </trkpt>
      <trkpt lat="48.38065" lon="2.55157">
        <ele>102.2</ele>
        <time>2020-06-06T10:29:31Z</time>
      </trkpt>
      <trkpt lat="48.38068" lon="2.55144">
        <ele>102.1</ele>
        <time>2020-06-06T10:29:33Z</time>
      </trkpt>
      <trkpt lat="48.38072" lon="2.55134">
        <ele>102.1</ele>
        <time>2020-06-06T10:29:35Z</time>
      </trkpt>
      <trkpt lat="48.38073" lon="2.55124">
        <ele>102.2</ele>
        <time>2020-06-06T10:29:37Z</time>
      </trkpt>
      <trkpt lat="48.38076" lon="2.55113">
        <ele>102.2</ele>
        <time>2020-06-06T10:29:39Z</time>
      </trkpt>
      <trkpt lat="48.38077" lon="2.55106">
        <ele>102.2</ele>
        <time>2020-06-06T10:29:41Z</time>
      </trkpt>
      <trkpt lat="48.38077" lon="2.55094">
        <ele>102.2</ele>
        <time>2020-06-06T10:29:43Z</time>
      </trkpt>
      <trkpt lat="48.38077" lon="2.55081">
        <ele>102.2</ele>
        <time>2020-06-06T10:29:45Z</time>
      </trkpt>
      <trkpt lat="48.38079" lon="2.55066">
        <ele>102.2</ele>
        <time>2020-06-06T10:29:47Z</time>
      </trkpt>
      <trkpt lat="48.38081" lon="2.55052">
        <ele>102.1</ele>
        <time>2020-06-06T10:29:49Z</time>
      </trkpt>
      <trkpt lat="48.38082" lon="2.55039">
        <ele>102</ele>
        <time>2020-06-06T10:29:51Z</time>
      </trkpt>
      <trkpt lat="48.38082" lon="2.55028">
        <ele>102</ele>
        <time>2020-06-06T10:29:53Z</time>
      </trkpt>
      <trkpt lat="48.38084" lon="2.55017">
        <ele>102</ele>
        <time>2020-06-06T10:29:55Z</time>
      </trkpt>
      <trkpt lat="48.38087" lon="2.55007">
        <ele>102.1</ele>
        <time>2020-06-06T10:29:57Z</time>
      </trkpt>
      <trkpt lat="48.38089" lon="2.54996">
        <ele>102.2</ele>
        <time>2020-06-06T10:29:59Z</time>
      </trkpt>
      <trkpt lat="48.38089" lon="2.54985">
        <ele>102.2</ele>
        <time>2020-06-06T10:30:01Z</time>
      </trkpt>
      <trkpt lat="48.38086" lon="2.54973">
        <ele>102.1</ele>
        <time>2020-06-06T10:30:03Z</time>
      </trkpt>
      <trkpt lat="48.38081" lon="2.54965">
        <ele>102</ele>
        <time>2020-06-06T10:30:05Z</time>
      </trkpt>
      <trkpt lat="48.38076" lon="2.54958">
        <ele>102</ele>
        <time>2020-06-06T10:30:07Z</time>
      </trkpt>
      <trkpt lat="48.38071" lon="2.54951">
        <ele>102</ele>
        <time>2020-06-06T10:30:09Z</time>
      </trkpt>
      <trkpt lat="48.38068" lon="2.54945">
        <ele>102</ele>
        <time>2020-06-06T10:30:11Z</time>
      </trkpt>
      <trkpt lat="48.38067" lon="2.54938">
        <ele>102</ele>
        <time>2020-06-06T10:30:13Z</time>
      </trkpt>
      <trkpt lat="48.38066" lon="2.54931">
        <ele>102</ele>
        <time>2020-06-06T10:30:15Z</time>
      </trkpt>
      <trkpt lat="48.38065" lon="2.54924">
        <ele>102</ele>
        <time>2020-06-06T10:30:17Z</time>
      </trkpt>
      <trkpt lat="48.38062" lon="2.54911">
        <ele>102.2</ele>
        <time>2020-06-06T10:30:21Z</time>
      </trkpt>
      <trkpt lat="48.38061" lon="2.54903">
        <ele>102.5</ele>
        <time>2020-06-06T10:30:23Z</time>
      </trkpt>
      <trkpt lat="48.38059" lon="2.54894">
        <ele>102.8</ele>
        <time>2020-06-06T10:30:25Z</time>
      </trkpt>
      <trkpt lat="48.38057" lon="2.54887">
        <ele>103.1</ele>
        <time>2020-06-06T10:30:27Z</time>
      </trkpt>
      <trkpt lat="48.38052" lon="2.54875">
        <ele>104</ele>
        <time>2020-06-06T10:30:31Z</time>
      </trkpt>
      <trkpt lat="48.38049" lon="2.54869">
        <ele>104.7</ele>
        <time>2020-06-06T10:30:33Z</time>
      </trkpt>
      <trkpt lat="48.38047" lon="2.54862">
        <ele>105.2</ele>
        <time>2020-06-06T10:30:35Z</time>
      </trkpt>
      <trkpt lat="48.38046" lon="2.54855">
        <ele>105.3</ele>
        <time>2020-06-06T10:30:37Z</time>
      </trkpt>
      <trkpt lat="48.38043" lon="2.54841">
        <ele>105.5</ele>
        <time>2020-06-06T10:30:41Z</time>
      </trkpt>
      <trkpt lat="48.38043" lon="2.54832">
        <ele>105.3</ele>
        <time>2020-06-06T10:30:43Z</time>
      </trkpt>
      <trkpt lat="48.38043" lon="2.54821">
        <ele>105.2</ele>
        <time>2020-06-06T10:30:45Z</time>
      </trkpt>
      <trkpt lat="48.3804" lon="2.5481">
        <ele>105.1</ele>
        <time>2020-06-06T10:30:47Z</time>
      </trkpt>
      <trkpt lat="48.38035" lon="2.548">
        <ele>104.8</ele>
        <time>2020-06-06T10:30:49Z</time>
      </trkpt>
      <trkpt lat="48.38026" lon="2.54795">
        <ele>104.3</ele>
        <time>2020-06-06T10:30:51Z</time>
      </trkpt>
      <trkpt lat="48.38021" lon="2.54795">
        <ele>104.5</ele>
        <time>2020-06-06T10:30:53Z</time>
      </trkpt>
      <trkpt lat="48.38015" lon="2.5479">
        <ele>104.3</ele>
        <time>2020-06-06T10:30:57Z</time>
      </trkpt>
      <trkpt lat="48.3801" lon="2.54787">
        <ele>104.1</ele>
        <time>2020-06-06T10:31:43Z</time>
      </trkpt>
      <trkpt lat="48.38006" lon="2.54772">
        <ele>102.5</ele>
        <time>2020-06-06T10:31:47Z</time>
      </trkpt>
      <trkpt lat="48.38004" lon="2.54753">
        <ele>100.6</ele>
        <time>2020-06-06T10:31:49Z</time>
      </trkpt>
      <trkpt lat="48.38003" lon="2.54733">
        <ele>100.2</ele>
        <time>2020-06-06T10:31:51Z</time>
      </trkpt>
      <trkpt lat="48.38008" lon="2.54713">
        <ele>100.6</ele>
        <time>2020-06-06T10:31:53Z</time>
      </trkpt>
      <trkpt lat="48.38009" lon="2.54691">
        <ele>100.6</ele>
        <time>2020-06-06T10:31:55Z</time>
      </trkpt>
      <trkpt lat="48.3801" lon="2.54673">
        <ele>100.4</ele>
        <time>2020-06-06T10:31:57Z</time>
      </trkpt>
      <trkpt lat="48.38012" lon="2.54661">
        <ele>100.3</ele>
        <time>2020-06-06T10:31:59Z</time>
      </trkpt>
      <trkpt lat="48.38012" lon="2.54654">
        <ele>100.2</ele>
        <time>2020-06-06T10:32:01Z</time>
      </trkpt>
      <trkpt lat="48.38014" lon="2.54645">
        <ele>100.1</ele>
        <time>2020-06-06T10:32:05Z</time>
      </trkpt>
      <trkpt lat="48.38009" lon="2.54642">
        <ele>100</ele>
        <time>2020-06-06T10:32:19Z</time>
      </trkpt>
      <trkpt lat="48.38005" lon="2.54644">
        <ele>100</ele>
        <time>2020-06-06T10:32:33Z</time>
      </trkpt>
      <trkpt lat="48.38006" lon="2.54652">
        <ele>100.1</ele>
        <time>2020-06-06T10:32:51Z</time>
      </trkpt>
      <trkpt lat="48.38006" lon="2.5466">
        <ele>100.2</ele>
        <time>2020-06-06T10:32:53Z</time>
      </trkpt>
      <trkpt lat="48.38005" lon="2.54673">
        <ele>100.2</ele>
        <time>2020-06-06T10:32:57Z</time>
      </trkpt>
      <trkpt lat="48.38007" lon="2.54686">
        <ele>100.4</ele>
        <time>2020-06-06T10:33:01Z</time>
      </trkpt>
      <trkpt lat="48.38006" lon="2.54694">
        <ele>100.4</ele>
        <time>2020-06-06T10:33:03Z</time>
      </trkpt>
      <trkpt lat="48.38006" lon="2.54702">
        <ele>100.4</ele>
        <time>2020-06-06T10:33:05Z</time>
      </trkpt>
      <trkpt lat="48.38005" lon="2.54716">
        <ele>100.4</ele>
        <time>2020-06-06T10:33:09Z</time>
      </trkpt>
      <trkpt lat="48.38004" lon="2.54725">
        <ele>100.3</ele>
        <time>2020-06-06T10:33:11Z</time>
      </trkpt>
      <trkpt lat="48.38004" lon="2.54735">
        <ele>100.3</ele>
        <time>2020-06-06T10:33:15Z</time>
      </trkpt>
      <trkpt lat="48.38004" lon="2.54746">
        <ele>100.3</ele>
        <time>2020-06-06T10:33:19Z</time>
      </trkpt>
      <trkpt lat="48.38003" lon="2.54753">
        <ele>100.5</ele>
        <time>2020-06-06T10:33:23Z</time>
      </trkpt>
      <trkpt lat="48.38006" lon="2.54762">
        <ele>101.5</ele>
        <time>2020-06-06T10:33:27Z</time>
      </trkpt>
      <trkpt lat="48.3801" lon="2.54772">
        <ele>102.5</ele>
        <time>2020-06-06T10:33:31Z</time>
      </trkpt>
      <trkpt lat="48.38013" lon="2.54778">
        <ele>103</ele>
        <time>2020-06-06T10:33:35Z</time>
      </trkpt>
      <trkpt lat="48.3801" lon="2.54785">
        <ele>103.9</ele>
        <time>2020-06-06T10:33:41Z</time>
      </trkpt>
      <trkpt lat="48.38005" lon="2.54785">
        <ele>103.9</ele>
        <time>2020-06-06T10:33:45Z</time>
      </trkpt>
      <trkpt lat="48.38001" lon="2.54783">
        <ele>103.7</ele>
        <time>2020-06-06T10:33:49Z</time>
      </trkpt>
      <trkpt lat="48.37995" lon="2.54778">
        <ele>103.6</ele>
        <time>2020-06-06T10:33:53Z</time>
      </trkpt>
      <trkpt lat="48.37989" lon="2.54775">
        <ele>104</ele>
        <time>2020-06-06T10:33:57Z</time>
      </trkpt>
      <trkpt lat="48.37984" lon="2.54772">
        <ele>104.3</ele>
        <time>2020-06-06T10:33:59Z</time>
      </trkpt>
      <trkpt lat="48.37976" lon="2.54771">
        <ele>105.3</ele>
        <time>2020-06-06T10:34:03Z</time>
      </trkpt>
      <trkpt lat="48.37969" lon="2.54771">
        <ele>106.2</ele>
        <time>2020-06-06T10:34:07Z</time>
      </trkpt>
      <trkpt lat="48.37963" lon="2.54765">
        <ele>107</ele>
        <time>2020-06-06T10:34:11Z</time>
      </trkpt>
      <trkpt lat="48.37962" lon="2.54757">
        <ele>107</ele>
        <time>2020-06-06T10:34:15Z</time>
      </trkpt>
      <trkpt lat="48.3796" lon="2.54749">
        <ele>107.2</ele>
        <time>2020-06-06T10:34:21Z</time>
      </trkpt>
      <trkpt lat="48.37957" lon="2.54743">
        <ele>108</ele>
        <time>2020-06-06T10:34:25Z</time>
      </trkpt>
      <trkpt lat="48.37952" lon="2.54737">
        <ele>109.3</ele>
        <time>2020-06-06T10:34:31Z</time>
      </trkpt>
      <trkpt lat="48.37946" lon="2.54736">
        <ele>110.7</ele>
        <time>2020-06-06T10:34:41Z</time>
      </trkpt>
      <trkpt lat="48.3794" lon="2.54734">
        <ele>111.1</ele>
        <time>2020-06-06T10:34:47Z</time>
      </trkpt>
      <trkpt lat="48.37934" lon="2.54732">
        <ele>111.1</ele>
        <time>2020-06-06T10:34:53Z</time>
      </trkpt>
      <trkpt lat="48.37929" lon="2.54732">
        <ele>110.9</ele>
        <time>2020-06-06T10:35:03Z</time>
      </trkpt>
      <trkpt lat="48.37924" lon="2.54731">
        <ele>110.9</ele>
        <time>2020-06-06T10:35:13Z</time>
      </trkpt>
      <trkpt lat="48.37918" lon="2.5473">
        <ele>110.8</ele>
        <time>2020-06-06T10:35:15Z</time>
      </trkpt>
      <trkpt lat="48.37912" lon="2.54734">
        <ele>110</ele>
        <time>2020-06-06T10:35:17Z</time>
      </trkpt>
      <trkpt lat="48.37903" lon="2.54738">
        <ele>108.7</ele>
        <time>2020-06-06T10:35:19Z</time>
      </trkpt>
      <trkpt lat="48.37895" lon="2.54739">
        <ele>107.6</ele>
        <time>2020-06-06T10:35:21Z</time>
      </trkpt>
      <trkpt lat="48.37888" lon="2.54744">
        <ele>106.4</ele>
        <time>2020-06-06T10:35:23Z</time>
      </trkpt>
      <trkpt lat="48.3788" lon="2.54754">
        <ele>105.5</ele>
        <time>2020-06-06T10:35:25Z</time>
      </trkpt>
      <trkpt lat="48.3787" lon="2.54752">
        <ele>104.7</ele>
        <time>2020-06-06T10:35:29Z</time>
      </trkpt>
      <trkpt lat="48.37864" lon="2.54753">
        <ele>104.3</ele>
        <time>2020-06-06T10:35:31Z</time>
      </trkpt>
      <trkpt lat="48.37858" lon="2.54753">
        <ele>104</ele>
        <time>2020-06-06T10:35:33Z</time>
      </trkpt>
      <trkpt lat="48.37853" lon="2.54748">
        <ele>103.9</ele>
        <time>2020-06-06T10:35:35Z</time>
      </trkpt>
      <trkpt lat="48.37847" lon="2.54746">
        <ele>103.8</ele>
        <time>2020-06-06T10:35:37Z</time>
      </trkpt>
      <trkpt lat="48.37841" lon="2.54746">
        <ele>103.6</ele>
        <time>2020-06-06T10:35:39Z</time>
      </trkpt>
      <trkpt lat="48.37835" lon="2.54746">
        <ele>103.3</ele>
        <time>2020-06-06T10:35:41Z</time>
      </trkpt>
      <trkpt lat="48.37829" lon="2.54745">
        <ele>103.4</ele>
        <time>2020-06-06T10:35:43Z</time>
      </trkpt>
      <trkpt lat="48.37823" lon="2.54744">
        <ele>103.4</ele>
        <time>2020-06-06T10:35:45Z</time>
      </trkpt>
      <trkpt lat="48.37818" lon="2.54741">
        <ele>103.6</ele>
        <time>2020-06-06T10:35:47Z</time>
      </trkpt>
      <trkpt lat="48.37807" lon="2.54738">
        <ele>103.9</ele>
        <time>2020-06-06T10:35:51Z</time>
      </trkpt>
      <trkpt lat="48.37798" lon="2.54739">
        <ele>104</ele>
        <time>2020-06-06T10:35:53Z</time>
      </trkpt>
      <trkpt lat="48.37791" lon="2.5474">
        <ele>104.2</ele>
        <time>2020-06-06T10:35:55Z</time>
      </trkpt>
      <trkpt lat="48.37784" lon="2.54738">
        <ele>104.4</ele>
        <time>2020-06-06T10:35:57Z</time>
      </trkpt>
      <trkpt lat="48.37777" lon="2.54738">
        <ele>104.6</ele>
        <time>2020-06-06T10:35:59Z</time>
      </trkpt>
      <trkpt lat="48.3777" lon="2.54735">
        <ele>104.6</ele>
        <time>2020-06-06T10:36:01Z</time>
      </trkpt>
      <trkpt lat="48.37763" lon="2.54733">
        <ele>104.6</ele>
        <time>2020-06-06T10:36:03Z</time>
      </trkpt>
      <trkpt lat="48.37756" lon="2.54732">
        <ele>104.6</ele>
        <time>2020-06-06T10:36:05Z</time>
      </trkpt>
      <trkpt lat="48.37748" lon="2.54731">
        <ele>104.5</ele>
        <time>2020-06-06T10:36:07Z</time>
      </trkpt>
      <trkpt lat="48.37741" lon="2.54734">
        <ele>104.1</ele>
        <time>2020-06-06T10:36:09Z</time>
      </trkpt>
      <trkpt lat="48.37735" lon="2.54734">
        <ele>103.5</ele>
        <time>2020-06-06T10:36:11Z</time>
      </trkpt>
      <trkpt lat="48.3773" lon="2.54739">
        <ele>103.3</ele>
        <time>2020-06-06T10:36:13Z</time>
      </trkpt>
      <trkpt lat="48.37725" lon="2.54737">
        <ele>102.8</ele>
        <time>2020-06-06T10:36:15Z</time>
      </trkpt>
      <trkpt lat="48.37718" lon="2.54739">
        <ele>101.9</ele>
        <time>2020-06-06T10:36:17Z</time>
      </trkpt>
      <trkpt lat="48.3771" lon="2.5474">
        <ele>100.7</ele>
        <time>2020-06-06T10:36:19Z</time>
      </trkpt>
      <trkpt lat="48.37698" lon="2.54739">
        <ele>98.8</ele>
        <time>2020-06-06T10:36:21Z</time>
      </trkpt>
      <trkpt lat="48.37688" lon="2.54729">
        <ele>97.4</ele>
        <time>2020-06-06T10:36:23Z</time>
      </trkpt>
      <trkpt lat="48.37678" lon="2.54721">
        <ele>96.4</ele>
        <time>2020-06-06T10:36:25Z</time>
      </trkpt>
      <trkpt lat="48.37672" lon="2.54712">
        <ele>95.9</ele>
        <time>2020-06-06T10:36:27Z</time>
      </trkpt>
      <trkpt lat="48.37666" lon="2.54702">
        <ele>95.4</ele>
        <time>2020-06-06T10:36:29Z</time>
      </trkpt>
      <trkpt lat="48.37662" lon="2.54692">
        <ele>95.4</ele>
        <time>2020-06-06T10:36:31Z</time>
      </trkpt>
      <trkpt lat="48.37659" lon="2.5468">
        <ele>95.2</ele>
        <time>2020-06-06T10:36:35Z</time>
      </trkpt>
      <trkpt lat="48.37658" lon="2.5467">
        <ele>94.8</ele>
        <time>2020-06-06T10:36:39Z</time>
      </trkpt>
      <trkpt lat="48.37658" lon="2.54663">
        <ele>94.5</ele>
        <time>2020-06-06T10:36:41Z</time>
      </trkpt>
      <trkpt lat="48.37661" lon="2.54655">
        <ele>94.1</ele>
        <time>2020-06-06T10:36:43Z</time>
      </trkpt>
      <trkpt lat="48.37664" lon="2.54648">
        <ele>93.6</ele>
        <time>2020-06-06T10:36:47Z</time>
      </trkpt>
      <trkpt lat="48.37666" lon="2.54642">
        <ele>93.2</ele>
        <time>2020-06-06T10:37:23Z</time>
      </trkpt>
      <trkpt lat="48.37667" lon="2.54649">
        <ele>93.4</ele>
        <time>2020-06-06T10:37:33Z</time>
      </trkpt>
      <trkpt lat="48.37663" lon="2.54657">
        <ele>94</ele>
        <time>2020-06-06T10:37:37Z</time>
      </trkpt>
      <trkpt lat="48.3766" lon="2.54665">
        <ele>94.4</ele>
        <time>2020-06-06T10:37:41Z</time>
      </trkpt>
      <trkpt lat="48.37661" lon="2.54673">
        <ele>94.7</ele>
        <time>2020-06-06T10:37:45Z</time>
      </trkpt>
      <trkpt lat="48.3766" lon="2.54681">
        <ele>95.1</ele>
        <time>2020-06-06T10:37:49Z</time>
      </trkpt>
      <trkpt lat="48.37655" lon="2.54688">
        <ele>95.9</ele>
        <time>2020-06-06T10:37:53Z</time>
      </trkpt>
      <trkpt lat="48.37651" lon="2.54693">
        <ele>96.6</ele>
        <time>2020-06-06T10:37:57Z</time>
      </trkpt>
      <trkpt lat="48.37647" lon="2.54698">
        <ele>97.3</ele>
        <time>2020-06-06T10:38:01Z</time>
      </trkpt>
      <trkpt lat="48.37642" lon="2.54702">
        <ele>98.2</ele>
        <time>2020-06-06T10:38:07Z</time>
      </trkpt>
      <trkpt lat="48.37637" lon="2.54699">
        <ele>98.6</ele>
        <time>2020-06-06T10:38:17Z</time>
      </trkpt>
      <trkpt lat="48.37633" lon="2.54699">
        <ele>99.2</ele>
        <time>2020-06-06T10:38:27Z</time>
      </trkpt>
      <trkpt lat="48.37628" lon="2.54697">
        <ele>99.8</ele>
        <time>2020-06-06T10:38:33Z</time>
      </trkpt>
      <trkpt lat="48.37623" lon="2.54694">
        <ele>100.3</ele>
        <time>2020-06-06T10:38:47Z</time>
      </trkpt>
      <trkpt lat="48.37623" lon="2.54702">
        <ele>100.8</ele>
        <time>2020-06-06T10:38:59Z</time>
      </trkpt>
      <trkpt lat="48.3762" lon="2.54708">
        <ele>101.7</ele>
        <time>2020-06-06T10:39:05Z</time>
      </trkpt>
      <trkpt lat="48.37618" lon="2.54716">
        <ele>102.6</ele>
        <time>2020-06-06T10:39:11Z</time>
      </trkpt>
      <trkpt lat="48.37614" lon="2.5472">
        <ele>103.4</ele>
        <time>2020-06-06T10:41:43Z</time>
      </trkpt>
      <trkpt lat="48.3761" lon="2.54724">
        <ele>104</ele>
        <time>2020-06-06T11:11:55Z</time>
      </trkpt>
      <trkpt lat="48.37609" lon="2.54717">
        <ele>103.5</ele>
        <time>2020-06-06T11:12:51Z</time>
      </trkpt>
      <trkpt lat="48.37613" lon="2.54712">
        <ele>103</ele>
        <time>2020-06-06T11:13:29Z</time>
      </trkpt>
      <trkpt lat="48.37617" lon="2.54707">
        <ele>102.1</ele>
        <time>2020-06-06T11:13:47Z</time>
      </trkpt>
      <trkpt lat="48.37622" lon="2.54701">
        <ele>100.9</ele>
        <time>2020-06-06T11:13:53Z</time>
      </trkpt>
      <trkpt lat="48.37622" lon="2.54692">
        <ele>100.4</ele>
        <time>2020-06-06T11:14:27Z</time>
      </trkpt>
      <trkpt lat="48.37616" lon="2.5469">
        <ele>101.2</ele>
        <time>2020-06-06T11:14:31Z</time>
      </trkpt>
      <trkpt lat="48.37607" lon="2.54694">
        <ele>101.9</ele>
        <time>2020-06-06T11:14:35Z</time>
      </trkpt>
      <trkpt lat="48.37602" lon="2.54691">
        <ele>101.7</ele>
        <time>2020-06-06T11:14:37Z</time>
      </trkpt>
      <trkpt lat="48.37596" lon="2.54692">
        <ele>101.5</ele>
        <time>2020-06-06T11:14:39Z</time>
      </trkpt>
      <trkpt lat="48.37592" lon="2.54686">
        <ele>101.3</ele>
        <time>2020-06-06T11:14:41Z</time>
      </trkpt>
      <trkpt lat="48.37587" lon="2.54678">
        <ele>101.1</ele>
        <time>2020-06-06T11:14:43Z</time>
      </trkpt>
      <trkpt lat="48.37582" lon="2.54671">
        <ele>100.7</ele>
        <time>2020-06-06T11:14:45Z</time>
      </trkpt>
      <trkpt lat="48.37577" lon="2.54666">
        <ele>99.4</ele>
        <time>2020-06-06T11:14:47Z</time>
      </trkpt>
      <trkpt lat="48.3757" lon="2.54665">
        <ele>97.7</ele>
        <time>2020-06-06T11:14:49Z</time>
      </trkpt>
      <trkpt lat="48.37565" lon="2.54663">
        <ele>96.5</ele>
        <time>2020-06-06T11:14:51Z</time>
      </trkpt>
      <trkpt lat="48.37558" lon="2.54664">
        <ele>94.7</ele>
        <time>2020-06-06T11:14:53Z</time>
      </trkpt>
      <trkpt lat="48.3755" lon="2.54664">
        <ele>92.5</ele>
        <time>2020-06-06T11:14:57Z</time>
      </trkpt>
      <trkpt lat="48.37543" lon="2.54675">
        <ele>90.4</ele>
        <time>2020-06-06T11:15:01Z</time>
      </trkpt>
      <trkpt lat="48.37532" lon="2.54677">
        <ele>87.2</ele>
        <time>2020-06-06T11:15:05Z</time>
      </trkpt>
      <trkpt lat="48.37526" lon="2.54676">
        <ele>85.7</ele>
        <time>2020-06-06T11:15:07Z</time>
      </trkpt>
      <trkpt lat="48.3752" lon="2.54675">
        <ele>84.9</ele>
        <time>2020-06-06T11:15:09Z</time>
      </trkpt>
      <trkpt lat="48.37512" lon="2.54676">
        <ele>83.7</ele>
        <time>2020-06-06T11:15:13Z</time>
      </trkpt>
      <trkpt lat="48.37504" lon="2.54678">
        <ele>82.6</ele>
        <time>2020-06-06T11:15:15Z</time>
      </trkpt>
      <trkpt lat="48.37495" lon="2.54677">
        <ele>81.7</ele>
        <time>2020-06-06T11:15:17Z</time>
      </trkpt>
      <trkpt lat="48.37489" lon="2.54677">
        <ele>81.4</ele>
        <time>2020-06-06T11:15:19Z</time>
      </trkpt>
      <trkpt lat="48.37482" lon="2.54681">
        <ele>81</ele>
        <time>2020-06-06T11:15:23Z</time>
      </trkpt>
      <trkpt lat="48.3748" lon="2.5469">
        <ele>81.2</ele>
        <time>2020-06-06T11:15:27Z</time>
      </trkpt>
      <trkpt lat="48.37483" lon="2.547">
        <ele>81.5</ele>
        <time>2020-06-06T11:15:31Z</time>
      </trkpt>
      <trkpt lat="48.37485" lon="2.54709">
        <ele>81.7</ele>
        <time>2020-06-06T11:15:35Z</time>
      </trkpt>
      <trkpt lat="48.37486" lon="2.54718">
        <ele>81.9</ele>
        <time>2020-06-06T11:15:39Z</time>
      </trkpt>
      <trkpt lat="48.37486" lon="2.54726">
        <ele>82</ele>
        <time>2020-06-06T11:15:43Z</time>
      </trkpt>
      <trkpt lat="48.37487" lon="2.54734">
        <ele>82</ele>
        <time>2020-06-06T11:15:47Z</time>
      </trkpt>
      <trkpt lat="48.37487" lon="2.54744">
        <ele>82</ele>
        <time>2020-06-06T11:15:51Z</time>
      </trkpt>
      <trkpt lat="48.37486" lon="2.54754">
        <ele>82.1</ele>
        <time>2020-06-06T11:15:55Z</time>
      </trkpt>
      <trkpt lat="48.37487" lon="2.54764">
        <ele>82.5</ele>
        <time>2020-06-06T11:15:59Z</time>
      </trkpt>
      <trkpt lat="48.3749" lon="2.54775">
        <ele>82.9</ele>
        <time>2020-06-06T11:16:03Z</time>
      </trkpt>
      <trkpt lat="48.37491" lon="2.54786">
        <ele>83</ele>
        <time>2020-06-06T11:16:07Z</time>
      </trkpt>
      <trkpt lat="48.37493" lon="2.54797">
        <ele>83</ele>
        <time>2020-06-06T11:16:11Z</time>
      </trkpt>
      <trkpt lat="48.37495" lon="2.54807">
        <ele>83</ele>
        <time>2020-06-06T11:16:15Z</time>
      </trkpt>
      <trkpt lat="48.37495" lon="2.54817">
        <ele>83</ele>
        <time>2020-06-06T11:16:19Z</time>
      </trkpt>
      <trkpt lat="48.37497" lon="2.54824">
        <ele>83</ele>
        <time>2020-06-06T11:16:25Z</time>
      </trkpt>
      <trkpt lat="48.37498" lon="2.54832">
        <ele>83</ele>
        <time>2020-06-06T11:16:31Z</time>
      </trkpt>
      <trkpt lat="48.37499" lon="2.54843">
        <ele>83</ele>
        <time>2020-06-06T11:16:35Z</time>
      </trkpt>
      <trkpt lat="48.37499" lon="2.54854">
        <ele>83</ele>
        <time>2020-06-06T11:16:39Z</time>
      </trkpt>
      <trkpt lat="48.375" lon="2.54863">
        <ele>83</ele>
        <time>2020-06-06T11:16:43Z</time>
      </trkpt>
      <trkpt lat="48.37499" lon="2.54873">
        <ele>83.1</ele>
        <time>2020-06-06T11:16:47Z</time>
      </trkpt>
      <trkpt lat="48.37498" lon="2.54884">
        <ele>83.1</ele>
        <time>2020-06-06T11:16:51Z</time>
      </trkpt>
      <trkpt lat="48.37496" lon="2.54895">
        <ele>83.5</ele>
        <time>2020-06-06T11:16:55Z</time>
      </trkpt>
      <trkpt lat="48.37494" lon="2.54904">
        <ele>84</ele>
        <time>2020-06-06T11:16:59Z</time>
      </trkpt>
      <trkpt lat="48.37493" lon="2.54914">
        <ele>84.4</ele>
        <time>2020-06-06T11:17:03Z</time>
      </trkpt>
      <trkpt lat="48.37492" lon="2.54923">
        <ele>84.6</ele>
        <time>2020-06-06T11:17:07Z</time>
      </trkpt>
      <trkpt lat="48.37491" lon="2.54935">
        <ele>84.6</ele>
        <time>2020-06-06T11:17:11Z</time>
      </trkpt>
      <trkpt lat="48.37492" lon="2.54946">
        <ele>84.6</ele>
        <time>2020-06-06T11:17:15Z</time>
      </trkpt>
      <trkpt lat="48.37492" lon="2.54957">
        <ele>84.9</ele>
        <time>2020-06-06T11:17:19Z</time>
      </trkpt>
      <trkpt lat="48.37492" lon="2.54969">
        <ele>85.2</ele>
        <time>2020-06-06T11:17:23Z</time>
      </trkpt>
      <trkpt lat="48.37491" lon="2.5498">
        <ele>85.3</ele>
        <time>2020-06-06T11:17:27Z</time>
      </trkpt>
      <trkpt lat="48.3749" lon="2.5499">
        <ele>85.4</ele>
        <time>2020-06-06T11:17:31Z</time>
      </trkpt>
      <trkpt lat="48.37489" lon="2.54998">
        <ele>85.4</ele>
        <time>2020-06-06T11:17:35Z</time>
      </trkpt>
      <trkpt lat="48.37488" lon="2.55007">
        <ele>85.6</ele>
        <time>2020-06-06T11:17:39Z</time>
      </trkpt>
      <trkpt lat="48.37489" lon="2.55017">
        <ele>85.8</ele>
        <time>2020-06-06T11:17:43Z</time>
      </trkpt>
      <trkpt lat="48.37488" lon="2.55026">
        <ele>86</ele>
        <time>2020-06-06T11:17:47Z</time>
      </trkpt>
      <trkpt lat="48.37487" lon="2.55035">
        <ele>86.3</ele>
        <time>2020-06-06T11:17:51Z</time>
      </trkpt>
      <trkpt lat="48.37486" lon="2.55048">
        <ele>86.7</ele>
        <time>2020-06-06T11:17:55Z</time>
      </trkpt>
      <trkpt lat="48.37486" lon="2.55059">
        <ele>87.2</ele>
        <time>2020-06-06T11:17:59Z</time>
      </trkpt>
      <trkpt lat="48.37489" lon="2.55066">
        <ele>87.6</ele>
        <time>2020-06-06T11:18:01Z</time>
      </trkpt>
      <trkpt lat="48.3749" lon="2.55078">
        <ele>88.3</ele>
        <time>2020-06-06T11:18:05Z</time>
      </trkpt>
      <trkpt lat="48.37489" lon="2.55091">
        <ele>88.8</ele>
        <time>2020-06-06T11:18:09Z</time>
      </trkpt>
      <trkpt lat="48.37487" lon="2.55102">
        <ele>88.9</ele>
        <time>2020-06-06T11:18:13Z</time>
      </trkpt>
      <trkpt lat="48.37486" lon="2.55113">
        <ele>89.1</ele>
        <time>2020-06-06T11:18:17Z</time>
      </trkpt>
      <trkpt lat="48.37485" lon="2.5512">
        <ele>89.2</ele>
        <time>2020-06-06T11:18:19Z</time>
      </trkpt>
      <trkpt lat="48.37486" lon="2.55132">
        <ele>89.7</ele>
        <time>2020-06-06T11:18:23Z</time>
      </trkpt>
      <trkpt lat="48.37486" lon="2.55145">
        <ele>90</ele>
        <time>2020-06-06T11:18:27Z</time>
      </trkpt>
      <trkpt lat="48.37486" lon="2.55158">
        <ele>90</ele>
        <time>2020-06-06T11:18:31Z</time>
      </trkpt>
      <trkpt lat="48.37486" lon="2.55168">
        <ele>90</ele>
        <time>2020-06-06T11:18:35Z</time>
      </trkpt>
      <trkpt lat="48.37488" lon="2.55181">
        <ele>90.1</ele>
        <time>2020-06-06T11:18:39Z</time>
      </trkpt>
      <trkpt lat="48.37489" lon="2.55192">
        <ele>90</ele>
        <time>2020-06-06T11:18:43Z</time>
      </trkpt>
      <trkpt lat="48.37493" lon="2.55203">
        <ele>90.2</ele>
        <time>2020-06-06T11:18:47Z</time>
      </trkpt>
      <trkpt lat="48.37495" lon="2.55211">
        <ele>90.3</ele>
        <time>2020-06-06T11:18:51Z</time>
      </trkpt>
      <trkpt lat="48.375" lon="2.55219">
        <ele>90</ele>
        <time>2020-06-06T11:18:55Z</time>
      </trkpt>
      <trkpt lat="48.37507" lon="2.55219">
        <ele>90.3</ele>
        <time>2020-06-06T11:18:59Z</time>
      </trkpt>
      <trkpt lat="48.37513" lon="2.55219">
        <ele>90.6</ele>
        <time>2020-06-06T11:19:03Z</time>
      </trkpt>
      <trkpt lat="48.3752" lon="2.55221">
        <ele>90.8</ele>
        <time>2020-06-06T11:19:07Z</time>
      </trkpt>
      <trkpt lat="48.37526" lon="2.55229">
        <ele>90.7</ele>
        <time>2020-06-06T11:19:11Z</time>
      </trkpt>
      <trkpt lat="48.37532" lon="2.55237">
        <ele>91.3</ele>
        <time>2020-06-06T11:19:15Z</time>
      </trkpt>
      <trkpt lat="48.37537" lon="2.55245">
        <ele>91.7</ele>
        <time>2020-06-06T11:19:19Z</time>
      </trkpt>
      <trkpt lat="48.37542" lon="2.55256">
        <ele>91.7</ele>
        <time>2020-06-06T11:19:23Z</time>
      </trkpt>
      <trkpt lat="48.37546" lon="2.55266">
        <ele>91.5</ele>
        <time>2020-06-06T11:19:27Z</time>
      </trkpt>
      <trkpt lat="48.37551" lon="2.55274">
        <ele>91.2</ele>
        <time>2020-06-06T11:19:31Z</time>
      </trkpt>
      <trkpt lat="48.37554" lon="2.55285">
        <ele>90.7</ele>
        <time>2020-06-06T11:19:35Z</time>
      </trkpt>
      <trkpt lat="48.37558" lon="2.55292">
        <ele>90.8</ele>
        <time>2020-06-06T11:19:39Z</time>
      </trkpt>
      <trkpt lat="48.37561" lon="2.55301">
        <ele>90.7</ele>
        <time>2020-06-06T11:19:43Z</time>
      </trkpt>
      <trkpt lat="48.37561" lon="2.5531">
        <ele>90.3</ele>
        <time>2020-06-06T11:19:47Z</time>
      </trkpt>
      <trkpt lat="48.37562" lon="2.55319">
        <ele>90.2</ele>
        <time>2020-06-06T11:19:51Z</time>
      </trkpt>
      <trkpt lat="48.37562" lon="2.55331">
        <ele>90</ele>
        <time>2020-06-06T11:19:55Z</time>
      </trkpt>
      <trkpt lat="48.37563" lon="2.55341">
        <ele>90</ele>
        <time>2020-06-06T11:19:59Z</time>
      </trkpt>
      <trkpt lat="48.37563" lon="2.5535">
        <ele>90</ele>
        <time>2020-06-06T11:20:03Z</time>
      </trkpt>
      <trkpt lat="48.37564" lon="2.55362">
        <ele>90</ele>
        <time>2020-06-06T11:20:07Z</time>
      </trkpt>
      <trkpt lat="48.37564" lon="2.55374">
        <ele>90.3</ele>
        <time>2020-06-06T11:20:11Z</time>
      </trkpt>
      <trkpt lat="48.37564" lon="2.55386">
        <ele>90.6</ele>
        <time>2020-06-06T11:20:15Z</time>
      </trkpt>
      <trkpt lat="48.37565" lon="2.55398">
        <ele>91</ele>
        <time>2020-06-06T11:20:19Z</time>
      </trkpt>
      <trkpt lat="48.37564" lon="2.55411">
        <ele>91.5</ele>
        <time>2020-06-06T11:20:23Z</time>
      </trkpt>
      <trkpt lat="48.37563" lon="2.55422">
        <ele>91.7</ele>
        <time>2020-06-06T11:20:27Z</time>
      </trkpt>
      <trkpt lat="48.3756" lon="2.55431">
        <ele>91.8</ele>
        <time>2020-06-06T11:20:31Z</time>
      </trkpt>
      <trkpt lat="48.3756" lon="2.55444">
        <ele>91.8</ele>
        <time>2020-06-06T11:20:35Z</time>
      </trkpt>
      <trkpt lat="48.37563" lon="2.55456">
        <ele>92.1</ele>
        <time>2020-06-06T11:20:39Z</time>
      </trkpt>
      <trkpt lat="48.37567" lon="2.55468">
        <ele>92.4</ele>
        <time>2020-06-06T11:20:43Z</time>
      </trkpt>
      <trkpt lat="48.37569" lon="2.55479">
        <ele>92.6</ele>
        <time>2020-06-06T11:20:47Z</time>
      </trkpt>
      <trkpt lat="48.37566" lon="2.5549">
        <ele>92.9</ele>
        <time>2020-06-06T11:20:51Z</time>
      </trkpt>
      <trkpt lat="48.37564" lon="2.55501">
        <ele>93</ele>
        <time>2020-06-06T11:20:55Z</time>
      </trkpt>
      <trkpt lat="48.37561" lon="2.55512">
        <ele>93</ele>
        <time>2020-06-06T11:20:59Z</time>
      </trkpt>
      <trkpt lat="48.37558" lon="2.55524">
        <ele>93</ele>
        <time>2020-06-06T11:21:03Z</time>
      </trkpt>
      <trkpt lat="48.37556" lon="2.5553">
        <ele>93</ele>
        <time>2020-06-06T11:21:05Z</time>
      </trkpt>
      <trkpt lat="48.37553" lon="2.5554">
        <ele>93</ele>
        <time>2020-06-06T11:21:09Z</time>
      </trkpt>
      <trkpt lat="48.37551" lon="2.5555">
        <ele>93.1</ele>
        <time>2020-06-06T11:21:13Z</time>
      </trkpt>
      <trkpt lat="48.37551" lon="2.55561">
        <ele>93.3</ele>
        <time>2020-06-06T11:21:17Z</time>
      </trkpt>
      <trkpt lat="48.3755" lon="2.5557">
        <ele>93.6</ele>
        <time>2020-06-06T11:21:21Z</time>
      </trkpt>
      <trkpt lat="48.37546" lon="2.55579">
        <ele>93.9</ele>
        <time>2020-06-06T11:21:25Z</time>
      </trkpt>
      <trkpt lat="48.37543" lon="2.55588">
        <ele>94</ele>
        <time>2020-06-06T11:21:29Z</time>
      </trkpt>
      <trkpt lat="48.37541" lon="2.55596">
        <ele>94</ele>
        <time>2020-06-06T11:21:33Z</time>
      </trkpt>
      <trkpt lat="48.3754" lon="2.55605">
        <ele>94</ele>
        <time>2020-06-06T11:21:37Z</time>
      </trkpt>
      <trkpt lat="48.37539" lon="2.55615">
        <ele>94.1</ele>
        <time>2020-06-06T11:21:41Z</time>
      </trkpt>
      <trkpt lat="48.3754" lon="2.55624">
        <ele>94.3</ele>
        <time>2020-06-06T11:21:45Z</time>
      </trkpt>
      <trkpt lat="48.3754" lon="2.55635">
        <ele>94.5</ele>
        <time>2020-06-06T11:21:49Z</time>
      </trkpt>
      <trkpt lat="48.37539" lon="2.55645">
        <ele>94.9</ele>
        <time>2020-06-06T11:21:53Z</time>
      </trkpt>
      <trkpt lat="48.37539" lon="2.55652">
        <ele>95.3</ele>
        <time>2020-06-06T11:21:57Z</time>
      </trkpt>
      <trkpt lat="48.3754" lon="2.55664">
        <ele>96</ele>
        <time>2020-06-06T11:22:01Z</time>
      </trkpt>
      <trkpt lat="48.37538" lon="2.55674">
        <ele>96.5</ele>
        <time>2020-06-06T11:22:05Z</time>
      </trkpt>
      <trkpt lat="48.37537" lon="2.55682">
        <ele>96.9</ele>
        <time>2020-06-06T11:22:09Z</time>
      </trkpt>
      <trkpt lat="48.37538" lon="2.55693">
        <ele>97.2</ele>
        <time>2020-06-06T11:22:13Z</time>
      </trkpt>
      <trkpt lat="48.37535" lon="2.55701">
        <ele>98</ele>
        <time>2020-06-06T11:22:17Z</time>
      </trkpt>
      <trkpt lat="48.37534" lon="2.55714">
        <ele>99</ele>
        <time>2020-06-06T11:22:21Z</time>
      </trkpt>
      <trkpt lat="48.37534" lon="2.55726">
        <ele>99.7</ele>
        <time>2020-06-06T11:22:25Z</time>
      </trkpt>
      <trkpt lat="48.37533" lon="2.55735">
        <ele>100.3</ele>
        <time>2020-06-06T11:22:29Z</time>
      </trkpt>
      <trkpt lat="48.37533" lon="2.55743">
        <ele>100.7</ele>
        <time>2020-06-06T11:22:33Z</time>
      </trkpt>
      <trkpt lat="48.37534" lon="2.55751">
        <ele>101.1</ele>
        <time>2020-06-06T11:22:37Z</time>
      </trkpt>
      <trkpt lat="48.37535" lon="2.55757">
        <ele>101.4</ele>
        <time>2020-06-06T11:22:41Z</time>
      </trkpt>
      <trkpt lat="48.37533" lon="2.55765">
        <ele>101.7</ele>
        <time>2020-06-06T11:22:47Z</time>
      </trkpt>
      <trkpt lat="48.37531" lon="2.55771">
        <ele>101.9</ele>
        <time>2020-06-06T11:22:51Z</time>
      </trkpt>
      <trkpt lat="48.37527" lon="2.55779">
        <ele>102.2</ele>
        <time>2020-06-06T11:22:57Z</time>
      </trkpt>
      <trkpt lat="48.37523" lon="2.55787">
        <ele>103.1</ele>
        <time>2020-06-06T11:23:03Z</time>
      </trkpt>
      <trkpt lat="48.37521" lon="2.55795">
        <ele>103.8</ele>
        <time>2020-06-06T11:23:09Z</time>
      </trkpt>
      <trkpt lat="48.37519" lon="2.55805">
        <ele>104.6</ele>
        <time>2020-06-06T11:23:15Z</time>
      </trkpt>
      <trkpt lat="48.37518" lon="2.55814">
        <ele>105.2</ele>
        <time>2020-06-06T11:23:21Z</time>
      </trkpt>
      <trkpt lat="48.37515" lon="2.5582">
        <ele>105.7</ele>
        <time>2020-06-06T11:23:25Z</time>
      </trkpt>
      <trkpt lat="48.37514" lon="2.55828">
        <ele>106.2</ele>
        <time>2020-06-06T11:23:31Z</time>
      </trkpt>
      <trkpt lat="48.37512" lon="2.55835">
        <ele>106.6</ele>
        <time>2020-06-06T11:23:35Z</time>
      </trkpt>
      <trkpt lat="48.37511" lon="2.55844">
        <ele>107.1</ele>
        <time>2020-06-06T11:23:41Z</time>
      </trkpt>
      <trkpt lat="48.37509" lon="2.55851">
        <ele>107.3</ele>
        <time>2020-06-06T11:23:45Z</time>
      </trkpt>
      <trkpt lat="48.37506" lon="2.55857">
        <ele>107.3</ele>
        <time>2020-06-06T11:23:49Z</time>
      </trkpt>
      <trkpt lat="48.37503" lon="2.55863">
        <ele>107.4</ele>
        <time>2020-06-06T11:23:53Z</time>
      </trkpt>
      <trkpt lat="48.37499" lon="2.55873">
        <ele>108</ele>
        <time>2020-06-06T11:23:59Z</time>
      </trkpt>
      <trkpt lat="48.37495" lon="2.55877">
        <ele>108.9</ele>
        <time>2020-06-06T11:24:03Z</time>
      </trkpt>
      <trkpt lat="48.37491" lon="2.5588">
        <ele>109.6</ele>
        <time>2020-06-06T11:24:07Z</time>
      </trkpt>
      <trkpt lat="48.37486" lon="2.55883">
        <ele>110.4</ele>
        <time>2020-06-06T11:24:11Z</time>
      </trkpt>
      <trkpt lat="48.37481" lon="2.55886">
        <ele>111.1</ele>
        <time>2020-06-06T11:24:17Z</time>
      </trkpt>
      <trkpt lat="48.37475" lon="2.55889">
        <ele>111.7</ele>
        <time>2020-06-06T11:24:23Z</time>
      </trkpt>
      <trkpt lat="48.37469" lon="2.55891">
        <ele>112.6</ele>
        <time>2020-06-06T11:24:29Z</time>
      </trkpt>
      <trkpt lat="48.37463" lon="2.55893">
        <ele>113.7</ele>
        <time>2020-06-06T11:24:35Z</time>
      </trkpt>
      <trkpt lat="48.37457" lon="2.55894">
        <ele>114.7</ele>
        <time>2020-06-06T11:24:41Z</time>
      </trkpt>
      <trkpt lat="48.37452" lon="2.55894">
        <ele>115.6</ele>
        <time>2020-06-06T11:24:45Z</time>
      </trkpt>
      <trkpt lat="48.37447" lon="2.55893">
        <ele>116.5</ele>
        <time>2020-06-06T11:24:49Z</time>
      </trkpt>
      <trkpt lat="48.37442" lon="2.55894">
        <ele>117.2</ele>
        <time>2020-06-06T11:24:53Z</time>
      </trkpt>
      <trkpt lat="48.37435" lon="2.55895">
        <ele>117.7</ele>
        <time>2020-06-06T11:24:59Z</time>
      </trkpt>
      <trkpt lat="48.37431" lon="2.55895">
        <ele>118</ele>
        <time>2020-06-06T11:25:03Z</time>
      </trkpt>
      <trkpt lat="48.37425" lon="2.55894">
        <ele>118.4</ele>
        <time>2020-06-06T11:25:07Z</time>
      </trkpt>
      <trkpt lat="48.3742" lon="2.55897">
        <ele>118.8</ele>
        <time>2020-06-06T11:25:11Z</time>
      </trkpt>
      <trkpt lat="48.37415" lon="2.559">
        <ele>119</ele>
        <time>2020-06-06T11:25:15Z</time>
      </trkpt>
      <trkpt lat="48.37409" lon="2.55898">
        <ele>119</ele>
        <time>2020-06-06T11:25:19Z</time>
      </trkpt>
      <trkpt lat="48.37403" lon="2.55894">
        <ele>119</ele>
        <time>2020-06-06T11:25:23Z</time>
      </trkpt>
      <trkpt lat="48.37397" lon="2.55891">
        <ele>119</ele>
        <time>2020-06-06T11:25:27Z</time>
      </trkpt>
      <trkpt lat="48.37392" lon="2.55889">
        <ele>119</ele>
        <time>2020-06-06T11:25:31Z</time>
      </trkpt>
      <trkpt lat="48.37386" lon="2.55892">
        <ele>119.1</ele>
        <time>2020-06-06T11:25:35Z</time>
      </trkpt>
      <trkpt lat="48.37377" lon="2.55893">
        <ele>119.4</ele>
        <time>2020-06-06T11:25:39Z</time>
      </trkpt>
      <trkpt lat="48.37369" lon="2.55891">
        <ele>119.7</ele>
        <time>2020-06-06T11:25:43Z</time>
      </trkpt>
      <trkpt lat="48.37364" lon="2.55889">
        <ele>119.9</ele>
        <time>2020-06-06T11:25:45Z</time>
      </trkpt>
      <trkpt lat="48.37358" lon="2.55888">
        <ele>120</ele>
        <time>2020-06-06T11:25:47Z</time>
      </trkpt>
      <trkpt lat="48.37352" lon="2.55888">
        <ele>120</ele>
        <time>2020-06-06T11:25:49Z</time>
      </trkpt>
      <trkpt lat="48.37347" lon="2.55886">
        <ele>120</ele>
        <time>2020-06-06T11:25:51Z</time>
      </trkpt>
      <trkpt lat="48.37341" lon="2.55887">
        <ele>120</ele>
        <time>2020-06-06T11:25:53Z</time>
      </trkpt>
      <trkpt lat="48.37336" lon="2.55888">
        <ele>120</ele>
        <time>2020-06-06T11:25:55Z</time>
      </trkpt>
      <trkpt lat="48.3733" lon="2.55891">
        <ele>119.9</ele>
        <time>2020-06-06T11:25:57Z</time>
      </trkpt>
      <trkpt lat="48.37325" lon="2.55891">
        <ele>119.7</ele>
        <time>2020-06-06T11:25:59Z</time>
      </trkpt>
      <trkpt lat="48.37317" lon="2.55891">
        <ele>119.4</ele>
        <time>2020-06-06T11:26:03Z</time>
      </trkpt>
      <trkpt lat="48.37307" lon="2.55887">
        <ele>119.1</ele>
        <time>2020-06-06T11:26:07Z</time>
      </trkpt>
      <trkpt lat="48.37302" lon="2.55886">
        <ele>118.7</ele>
        <time>2020-06-06T11:26:09Z</time>
      </trkpt>
      <trkpt lat="48.37296" lon="2.55884">
        <ele>118.3</ele>
        <time>2020-06-06T11:26:11Z</time>
      </trkpt>
      <trkpt lat="48.37291" lon="2.55883">
        <ele>118</ele>
        <time>2020-06-06T11:26:13Z</time>
      </trkpt>
      <trkpt lat="48.37284" lon="2.55884">
        <ele>117.4</ele>
        <time>2020-06-06T11:26:15Z</time>
      </trkpt>
      <trkpt lat="48.37277" lon="2.55885">
        <ele>117</ele>
        <time>2020-06-06T11:26:17Z</time>
      </trkpt>
      <trkpt lat="48.37271" lon="2.55888">
        <ele>117</ele>
        <time>2020-06-06T11:26:19Z</time>
      </trkpt>
      <trkpt lat="48.37264" lon="2.5589">
        <ele>117</ele>
        <time>2020-06-06T11:26:21Z</time>
      </trkpt>
      <trkpt lat="48.37259" lon="2.55893">
        <ele>117</ele>
        <time>2020-06-06T11:26:23Z</time>
      </trkpt>
      <trkpt lat="48.37254" lon="2.559">
        <ele>117</ele>
        <time>2020-06-06T11:26:25Z</time>
      </trkpt>
      <trkpt lat="48.37249" lon="2.55907">
        <ele>117</ele>
        <time>2020-06-06T11:26:27Z</time>
      </trkpt>
      <trkpt lat="48.37245" lon="2.55911">
        <ele>117</ele>
        <time>2020-06-06T11:26:29Z</time>
      </trkpt>
      <trkpt lat="48.37242" lon="2.55915">
        <ele>117</ele>
        <time>2020-06-06T11:26:31Z</time>
      </trkpt>
      <trkpt lat="48.37237" lon="2.5592">
        <ele>117</ele>
        <time>2020-06-06T11:26:33Z</time>
      </trkpt>
      <trkpt lat="48.37232" lon="2.55927">
        <ele>117</ele>
        <time>2020-06-06T11:26:35Z</time>
      </trkpt>
      <trkpt lat="48.37227" lon="2.55935">
        <ele>117</ele>
        <time>2020-06-06T11:26:37Z</time>
      </trkpt>
      <trkpt lat="48.37222" lon="2.55941">
        <ele>117</ele>
        <time>2020-06-06T11:26:39Z</time>
      </trkpt>
      <trkpt lat="48.37216" lon="2.55945">
        <ele>117</ele>
        <time>2020-06-06T11:26:41Z</time>
      </trkpt>
      <trkpt lat="48.37211" lon="2.5595">
        <ele>117</ele>
        <time>2020-06-06T11:26:43Z</time>
      </trkpt>
      <trkpt lat="48.37206" lon="2.55956">
        <ele>117</ele>
        <time>2020-06-06T11:26:45Z</time>
      </trkpt>
      <trkpt lat="48.37202" lon="2.55966">
        <ele>117</ele>
        <time>2020-06-06T11:26:47Z</time>
      </trkpt>
      <trkpt lat="48.37197" lon="2.55972">
        <ele>117</ele>
        <time>2020-06-06T11:26:49Z</time>
      </trkpt>
      <trkpt lat="48.37192" lon="2.55978">
        <ele>117</ele>
        <time>2020-06-06T11:26:51Z</time>
      </trkpt>
      <trkpt lat="48.37188" lon="2.55988">
        <ele>117</ele>
        <time>2020-06-06T11:26:53Z</time>
      </trkpt>
      <trkpt lat="48.37183" lon="2.55997">
        <ele>117</ele>
        <time>2020-06-06T11:26:55Z</time>
      </trkpt>
      <trkpt lat="48.37179" lon="2.56006">
        <ele>117</ele>
        <time>2020-06-06T11:26:57Z</time>
      </trkpt>
      <trkpt lat="48.37176" lon="2.56012">
        <ele>117</ele>
        <time>2020-06-06T11:26:59Z</time>
      </trkpt>
      <trkpt lat="48.37173" lon="2.56019">
        <ele>117</ele>
        <time>2020-06-06T11:27:01Z</time>
      </trkpt>
      <trkpt lat="48.37168" lon="2.56027">
        <ele>117</ele>
        <time>2020-06-06T11:27:05Z</time>
      </trkpt>
      <trkpt lat="48.37167" lon="2.56035">
        <ele>117</ele>
        <time>2020-06-06T11:27:11Z</time>
      </trkpt>
      <trkpt lat="48.37163" lon="2.56044">
        <ele>117.1</ele>
        <time>2020-06-06T11:27:15Z</time>
      </trkpt>
      <trkpt lat="48.37159" lon="2.56049">
        <ele>117.3</ele>
        <time>2020-06-06T11:27:19Z</time>
      </trkpt>
      <trkpt lat="48.37152" lon="2.56051">
        <ele>117.5</ele>
        <time>2020-06-06T11:27:23Z</time>
      </trkpt>
      <trkpt lat="48.37141" lon="2.56055">
        <ele>117.9</ele>
        <time>2020-06-06T11:27:27Z</time>
      </trkpt>
      <trkpt lat="48.37135" lon="2.56058">
        <ele>118.2</ele>
        <time>2020-06-06T11:27:29Z</time>
      </trkpt>
      <trkpt lat="48.37129" lon="2.5606">
        <ele>118.5</ele>
        <time>2020-06-06T11:27:31Z</time>
      </trkpt>
      <trkpt lat="48.37123" lon="2.56065">
        <ele>118.7</ele>
        <time>2020-06-06T11:27:33Z</time>
      </trkpt>
      <trkpt lat="48.37117" lon="2.56068">
        <ele>118.9</ele>
        <time>2020-06-06T11:27:35Z</time>
      </trkpt>
      <trkpt lat="48.37111" lon="2.56073">
        <ele>119</ele>
        <time>2020-06-06T11:27:37Z</time>
      </trkpt>
      <trkpt lat="48.37106" lon="2.56078">
        <ele>119</ele>
        <time>2020-06-06T11:27:39Z</time>
      </trkpt>
      <trkpt lat="48.371" lon="2.56084">
        <ele>119</ele>
        <time>2020-06-06T11:27:41Z</time>
      </trkpt>
      <trkpt lat="48.37095" lon="2.5609">
        <ele>119</ele>
        <time>2020-06-06T11:27:43Z</time>
      </trkpt>
      <trkpt lat="48.3709" lon="2.56098">
        <ele>119</ele>
        <time>2020-06-06T11:27:45Z</time>
      </trkpt>
      <trkpt lat="48.37084" lon="2.56106">
        <ele>119</ele>
        <time>2020-06-06T11:27:47Z</time>
      </trkpt>
      <trkpt lat="48.37079" lon="2.56114">
        <ele>119</ele>
        <time>2020-06-06T11:27:49Z</time>
      </trkpt>
      <trkpt lat="48.37075" lon="2.5612">
        <ele>119</ele>
        <time>2020-06-06T11:27:51Z</time>
      </trkpt>
      <trkpt lat="48.37071" lon="2.56129">
        <ele>119</ele>
        <time>2020-06-06T11:27:53Z</time>
      </trkpt>
      <trkpt lat="48.37066" lon="2.56137">
        <ele>119</ele>
        <time>2020-06-06T11:27:55Z</time>
      </trkpt>
      <trkpt lat="48.3706" lon="2.56143">
        <ele>119</ele>
        <time>2020-06-06T11:27:57Z</time>
      </trkpt>
      <trkpt lat="48.37054" lon="2.56147">
        <ele>118.9</ele>
        <time>2020-06-06T11:27:59Z</time>
      </trkpt>
      <trkpt lat="48.37046" lon="2.56149">
        <ele>118.7</ele>
        <time>2020-06-06T11:28:01Z</time>
      </trkpt>
      <trkpt lat="48.3704" lon="2.56151">
        <ele>118.4</ele>
        <time>2020-06-06T11:28:03Z</time>
      </trkpt>
      <trkpt lat="48.37033" lon="2.56154">
        <ele>118.2</ele>
        <time>2020-06-06T11:28:05Z</time>
      </trkpt>
      <trkpt lat="48.37025" lon="2.56155">
        <ele>117.9</ele>
        <time>2020-06-06T11:28:07Z</time>
      </trkpt>
      <trkpt lat="48.37018" lon="2.56154">
        <ele>117.6</ele>
        <time>2020-06-06T11:28:09Z</time>
      </trkpt>
      <trkpt lat="48.37013" lon="2.56149">
        <ele>117.5</ele>
        <time>2020-06-06T11:28:11Z</time>
      </trkpt>
      <trkpt lat="48.37009" lon="2.56143">
        <ele>117.3</ele>
        <time>2020-06-06T11:28:13Z</time>
      </trkpt>
      <trkpt lat="48.36999" lon="2.56138">
        <ele>117</ele>
        <time>2020-06-06T11:28:17Z</time>
      </trkpt>
      <trkpt lat="48.36993" lon="2.56129">
        <ele>117</ele>
        <time>2020-06-06T11:28:19Z</time>
      </trkpt>
      <trkpt lat="48.36984" lon="2.56118">
        <ele>117</ele>
        <time>2020-06-06T11:28:21Z</time>
      </trkpt>
      <trkpt lat="48.36977" lon="2.56101">
        <ele>116.7</ele>
        <time>2020-06-06T11:28:23Z</time>
      </trkpt>
      <trkpt lat="48.36977" lon="2.56083">
        <ele>116.2</ele>
        <time>2020-06-06T11:28:25Z</time>
      </trkpt>
      <trkpt lat="48.36981" lon="2.56067">
        <ele>116.3</ele>
        <time>2020-06-06T11:28:27Z</time>
      </trkpt>
      <trkpt lat="48.36985" lon="2.56052">
        <ele>116.4</ele>
        <time>2020-06-06T11:28:29Z</time>
      </trkpt>
      <trkpt lat="48.36986" lon="2.56039">
        <ele>116.2</ele>
        <time>2020-06-06T11:28:31Z</time>
      </trkpt>
      <trkpt lat="48.36989" lon="2.56026">
        <ele>116</ele>
        <time>2020-06-06T11:28:33Z</time>
      </trkpt>
      <trkpt lat="48.36991" lon="2.56013">
        <ele>116</ele>
        <time>2020-06-06T11:28:35Z</time>
      </trkpt>
      <trkpt lat="48.36993" lon="2.55998">
        <ele>115.9</ele>
        <time>2020-06-06T11:28:37Z</time>
      </trkpt>
      <trkpt lat="48.36995" lon="2.55985">
        <ele>115.6</ele>
        <time>2020-06-06T11:28:39Z</time>
      </trkpt>
      <trkpt lat="48.36999" lon="2.55975">
        <ele>115.1</ele>
        <time>2020-06-06T11:28:41Z</time>
      </trkpt>
      <trkpt lat="48.37003" lon="2.55964">
        <ele>115.2</ele>
        <time>2020-06-06T11:28:43Z</time>
      </trkpt>
      <trkpt lat="48.37007" lon="2.55954">
        <ele>115.3</ele>
        <time>2020-06-06T11:28:45Z</time>
      </trkpt>
      <trkpt lat="48.37011" lon="2.55941">
        <ele>115.4</ele>
        <time>2020-06-06T11:28:47Z</time>
      </trkpt>
      <trkpt lat="48.37018" lon="2.55932">
        <ele>115.2</ele>
        <time>2020-06-06T11:28:49Z</time>
      </trkpt>
      <trkpt lat="48.37024" lon="2.55921">
        <ele>114.5</ele>
        <time>2020-06-06T11:28:51Z</time>
      </trkpt>
      <trkpt lat="48.3703" lon="2.5591">
        <ele>114.2</ele>
        <time>2020-06-06T11:28:53Z</time>
      </trkpt>
      <trkpt lat="48.37036" lon="2.55898">
        <ele>114.3</ele>
        <time>2020-06-06T11:28:55Z</time>
      </trkpt>
      <trkpt lat="48.37042" lon="2.55887">
        <ele>114</ele>
        <time>2020-06-06T11:28:57Z</time>
      </trkpt>
      <trkpt lat="48.3705" lon="2.55877">
        <ele>113.8</ele>
        <time>2020-06-06T11:28:59Z</time>
      </trkpt>
      <trkpt lat="48.37054" lon="2.55865">
        <ele>114</ele>
        <time>2020-06-06T11:29:01Z</time>
      </trkpt>
      <trkpt lat="48.37061" lon="2.55854">
        <ele>114.2</ele>
        <time>2020-06-06T11:29:03Z</time>
      </trkpt>
      <trkpt lat="48.37067" lon="2.55844">
        <ele>114.1</ele>
        <time>2020-06-06T11:29:05Z</time>
      </trkpt>
      <trkpt lat="48.37074" lon="2.55834">
        <ele>113.7</ele>
        <time>2020-06-06T11:29:07Z</time>
      </trkpt>
      <trkpt lat="48.3708" lon="2.55824">
        <ele>113.3</ele>
        <time>2020-06-06T11:29:09Z</time>
      </trkpt>
      <trkpt lat="48.37086" lon="2.55816">
        <ele>112.9</ele>
        <time>2020-06-06T11:29:11Z</time>
      </trkpt>
      <trkpt lat="48.37093" lon="2.55806">
        <ele>112.7</ele>
        <time>2020-06-06T11:29:13Z</time>
      </trkpt>
      <trkpt lat="48.37102" lon="2.55796">
        <ele>112.8</ele>
        <time>2020-06-06T11:29:15Z</time>
      </trkpt>
      <trkpt lat="48.3711" lon="2.55786">
        <ele>112.8</ele>
        <time>2020-06-06T11:29:17Z</time>
      </trkpt>
      <trkpt lat="48.3712" lon="2.55779">
        <ele>113</ele>
        <time>2020-06-06T11:29:19Z</time>
      </trkpt>
      <trkpt lat="48.37128" lon="2.55768">
        <ele>112.9</ele>
        <time>2020-06-06T11:29:21Z</time>
      </trkpt>
      <trkpt lat="48.37137" lon="2.55755">
        <ele>112.3</ele>
        <time>2020-06-06T11:29:23Z</time>
      </trkpt>
      <trkpt lat="48.37146" lon="2.55743">
        <ele>111.9</ele>
        <time>2020-06-06T11:29:25Z</time>
      </trkpt>
      <trkpt lat="48.37155" lon="2.5573">
        <ele>111.2</ele>
        <time>2020-06-06T11:29:27Z</time>
      </trkpt>
      <trkpt lat="48.37165" lon="2.55715">
        <ele>109.9</ele>
        <time>2020-06-06T11:29:29Z</time>
      </trkpt>
      <trkpt lat="48.37175" lon="2.55702">
        <ele>109</ele>
        <time>2020-06-06T11:29:31Z</time>
      </trkpt>
      <trkpt lat="48.37186" lon="2.55692">
        <ele>108.3</ele>
        <time>2020-06-06T11:29:33Z</time>
      </trkpt>
      <trkpt lat="48.37197" lon="2.5568">
        <ele>107.4</ele>
        <time>2020-06-06T11:29:35Z</time>
      </trkpt>
      <trkpt lat="48.37206" lon="2.55667">
        <ele>106.6</ele>
        <time>2020-06-06T11:29:37Z</time>
      </trkpt>
      <trkpt lat="48.37215" lon="2.55652">
        <ele>106.4</ele>
        <time>2020-06-06T11:29:39Z</time>
      </trkpt>
      <trkpt lat="48.37223" lon="2.55637">
        <ele>106.1</ele>
        <time>2020-06-06T11:29:41Z</time>
      </trkpt>
      <trkpt lat="48.37231" lon="2.55621">
        <ele>106.2</ele>
        <time>2020-06-06T11:29:43Z</time>
      </trkpt>
      <trkpt lat="48.37235" lon="2.55602">
        <ele>105.9</ele>
        <time>2020-06-06T11:29:45Z</time>
      </trkpt>
      <trkpt lat="48.37239" lon="2.55583">
        <ele>105.2</ele>
        <time>2020-06-06T11:29:47Z</time>
      </trkpt>
      <trkpt lat="48.37241" lon="2.55564">
        <ele>104.3</ele>
        <time>2020-06-06T11:29:49Z</time>
      </trkpt>
      <trkpt lat="48.37243" lon="2.55547">
        <ele>103.8</ele>
        <time>2020-06-06T11:29:51Z</time>
      </trkpt>
      <trkpt lat="48.37246" lon="2.55529">
        <ele>103.4</ele>
        <time>2020-06-06T11:29:53Z</time>
      </trkpt>
      <trkpt lat="48.3725" lon="2.55512">
        <ele>103</ele>
        <time>2020-06-06T11:29:55Z</time>
      </trkpt>
      <trkpt lat="48.37252" lon="2.55495">
        <ele>103.1</ele>
        <time>2020-06-06T11:29:57Z</time>
      </trkpt>
      <trkpt lat="48.37254" lon="2.55482">
        <ele>103.2</ele>
        <time>2020-06-06T11:29:59Z</time>
      </trkpt>
      <trkpt lat="48.37257" lon="2.55473">
        <ele>103.3</ele>
        <time>2020-06-06T11:30:01Z</time>
      </trkpt>
      <trkpt lat="48.37261" lon="2.55468">
        <ele>103.2</ele>
        <time>2020-06-06T11:30:03Z</time>
      </trkpt>
      <trkpt lat="48.37265" lon="2.55462">
        <ele>103</ele>
        <time>2020-06-06T11:30:07Z</time>
      </trkpt>
      <trkpt lat="48.37259" lon="2.55467">
        <ele>103.1</ele>
        <time>2020-06-06T11:30:25Z</time>
      </trkpt>
      <trkpt lat="48.37254" lon="2.55477">
        <ele>103.2</ele>
        <time>2020-06-06T11:30:29Z</time>
      </trkpt>
      <trkpt lat="48.37252" lon="2.55485">
        <ele>103.1</ele>
        <time>2020-06-06T11:30:31Z</time>
      </trkpt>
      <trkpt lat="48.37251" lon="2.55492">
        <ele>103.1</ele>
        <time>2020-06-06T11:30:33Z</time>
      </trkpt>
      <trkpt lat="48.37251" lon="2.555">
        <ele>103.1</ele>
        <time>2020-06-06T11:30:35Z</time>
      </trkpt>
      <trkpt lat="48.37251" lon="2.55507">
        <ele>103.1</ele>
        <time>2020-06-06T11:30:37Z</time>
      </trkpt>
      <trkpt lat="48.37252" lon="2.55515">
        <ele>103.1</ele>
        <time>2020-06-06T11:30:39Z</time>
      </trkpt>
      <trkpt lat="48.37249" lon="2.55522">
        <ele>103.1</ele>
        <time>2020-06-06T11:30:41Z</time>
      </trkpt>
      <trkpt lat="48.37247" lon="2.55529">
        <ele>103.3</ele>
        <time>2020-06-06T11:30:43Z</time>
      </trkpt>
      <trkpt lat="48.37243" lon="2.55533">
        <ele>103.8</ele>
        <time>2020-06-06T11:30:45Z</time>
      </trkpt>
      <trkpt lat="48.37236" lon="2.55532">
        <ele>104.5</ele>
        <time>2020-06-06T11:30:49Z</time>
      </trkpt>
      <trkpt lat="48.37232" lon="2.55537">
        <ele>104.9</ele>
        <time>2020-06-06T11:31:01Z</time>
      </trkpt>
      <trkpt lat="48.37229" lon="2.55541">
        <ele>105.3</ele>
        <time>2020-06-06T11:31:13Z</time>
      </trkpt>
      <trkpt lat="48.37224" lon="2.55542">
        <ele>105.8</ele>
        <time>2020-06-06T11:31:31Z</time>
      </trkpt>
      <trkpt lat="48.3722" lon="2.55538">
        <ele>106.4</ele>
        <time>2020-06-06T11:31:49Z</time>
      </trkpt>
      <trkpt lat="48.37215" lon="2.55534">
        <ele>107.3</ele>
        <time>2020-06-06T11:31:55Z</time>
      </trkpt>
      <trkpt lat="48.37211" lon="2.55532">
        <ele>108</ele>
        <time>2020-06-06T11:32:01Z</time>
      </trkpt>
      <trkpt lat="48.37205" lon="2.55532">
        <ele>109.1</ele>
        <time>2020-06-06T11:32:07Z</time>
      </trkpt>
      <trkpt lat="48.372" lon="2.55532">
        <ele>110</ele>
        <time>2020-06-06T11:32:15Z</time>
      </trkpt>
      <trkpt lat="48.37195" lon="2.5553">
        <ele>110.9</ele>
        <time>2020-06-06T11:32:21Z</time>
      </trkpt>
      <trkpt lat="48.37191" lon="2.55528">
        <ele>111.5</ele>
        <time>2020-06-06T11:32:31Z</time>
      </trkpt>
      <trkpt lat="48.37185" lon="2.55524">
        <ele>112.4</ele>
        <time>2020-06-06T11:32:35Z</time>
      </trkpt>
      <trkpt lat="48.3718" lon="2.55523">
        <ele>113.1</ele>
        <time>2020-06-06T11:32:39Z</time>
      </trkpt>
      <trkpt lat="48.37174" lon="2.55523">
        <ele>113.9</ele>
        <time>2020-06-06T11:32:43Z</time>
      </trkpt>
      <trkpt lat="48.37169" lon="2.55521">
        <ele>114.7</ele>
        <time>2020-06-06T11:32:47Z</time>
      </trkpt>
      <trkpt lat="48.37165" lon="2.55516">
        <ele>115</ele>
        <time>2020-06-06T11:32:53Z</time>
      </trkpt>
      <trkpt lat="48.37159" lon="2.55507">
        <ele>115.2</ele>
        <time>2020-06-06T11:32:59Z</time>
      </trkpt>
      <trkpt lat="48.37151" lon="2.555">
        <ele>115.6</ele>
        <time>2020-06-06T11:33:03Z</time>
      </trkpt>
      <trkpt lat="48.37148" lon="2.55496">
        <ele>115.7</ele>
        <time>2020-06-06T11:33:05Z</time>
      </trkpt>
      <trkpt lat="48.37142" lon="2.55486">
        <ele>115.9</ele>
        <time>2020-06-06T11:33:09Z</time>
      </trkpt>
      <trkpt lat="48.37136" lon="2.55479">
        <ele>116.1</ele>
        <time>2020-06-06T11:33:13Z</time>
      </trkpt>
      <trkpt lat="48.37131" lon="2.55469">
        <ele>116.4</ele>
        <time>2020-06-06T11:33:17Z</time>
      </trkpt>
      <trkpt lat="48.37127" lon="2.5546">
        <ele>116.7</ele>
        <time>2020-06-06T11:33:21Z</time>
      </trkpt>
      <trkpt lat="48.37123" lon="2.55456">
        <ele>116.8</ele>
        <time>2020-06-06T11:33:23Z</time>
      </trkpt>
      <trkpt lat="48.37117" lon="2.5545">
        <ele>117</ele>
        <time>2020-06-06T11:33:27Z</time>
      </trkpt>
      <trkpt lat="48.37111" lon="2.5544">
        <ele>117</ele>
        <time>2020-06-06T11:33:31Z</time>
      </trkpt>
      <trkpt lat="48.37104" lon="2.5543">
        <ele>117.3</ele>
        <time>2020-06-06T11:33:35Z</time>
      </trkpt>
      <trkpt lat="48.371" lon="2.55424">
        <ele>117.4</ele>
        <time>2020-06-06T11:33:37Z</time>
      </trkpt>
      <trkpt lat="48.37096" lon="2.55418">
        <ele>117.5</ele>
        <time>2020-06-06T11:33:39Z</time>
      </trkpt>
      <trkpt lat="48.37092" lon="2.55412">
        <ele>117.7</ele>
        <time>2020-06-06T11:33:41Z</time>
      </trkpt>
      <trkpt lat="48.37088" lon="2.55406">
        <ele>117.8</ele>
        <time>2020-06-06T11:33:43Z</time>
      </trkpt>
      <trkpt lat="48.37084" lon="2.554">
        <ele>118</ele>
        <time>2020-06-06T11:33:45Z</time>
      </trkpt>
      <trkpt lat="48.3708" lon="2.55398">
        <ele>118</ele>
        <time>2020-06-06T11:33:47Z</time>
      </trkpt>
      <trkpt lat="48.37076" lon="2.55405">
        <ele>118</ele>
        <time>2020-06-06T11:33:55Z</time>
      </trkpt>
      <trkpt lat="48.37072" lon="2.55412">
        <ele>118</ele>
        <time>2020-06-06T11:34:01Z</time>
      </trkpt>
      <trkpt lat="48.3707" lon="2.55418">
        <ele>118</ele>
        <time>2020-06-06T11:34:05Z</time>
      </trkpt>
      <trkpt lat="48.37067" lon="2.55425">
        <ele>118</ele>
        <time>2020-06-06T11:34:09Z</time>
      </trkpt>
      <trkpt lat="48.37065" lon="2.55432">
        <ele>118</ele>
        <time>2020-06-06T11:34:13Z</time>
      </trkpt>
      <trkpt lat="48.37063" lon="2.55439">
        <ele>118</ele>
        <time>2020-06-06T11:34:17Z</time>
      </trkpt>
      <trkpt lat="48.3706" lon="2.55447">
        <ele>118</ele>
        <time>2020-06-06T11:34:21Z</time>
      </trkpt>
      <trkpt lat="48.37057" lon="2.55453">
        <ele>118</ele>
        <time>2020-06-06T11:34:25Z</time>
      </trkpt>
      <trkpt lat="48.37053" lon="2.55458">
        <ele>118</ele>
        <time>2020-06-06T11:34:39Z</time>
      </trkpt>
      <trkpt lat="48.37053" lon="2.55465">
        <ele>118</ele>
        <time>2020-06-06T11:35:37Z</time>
      </trkpt>
      <trkpt lat="48.37051" lon="2.55472">
        <ele>118</ele>
        <time>2020-06-06T11:36:41Z</time>
      </trkpt>
      <trkpt lat="48.37048" lon="2.55482">
        <ele>118</ele>
        <time>2020-06-06T11:36:45Z</time>
      </trkpt>
      <trkpt lat="48.37045" lon="2.55489">
        <ele>118</ele>
        <time>2020-06-06T11:36:47Z</time>
      </trkpt>
      <trkpt lat="48.37041" lon="2.55497">
        <ele>118</ele>
        <time>2020-06-06T11:36:49Z</time>
      </trkpt>
      <trkpt lat="48.37037" lon="2.55506">
        <ele>118</ele>
        <time>2020-06-06T11:36:51Z</time>
      </trkpt>
      <trkpt lat="48.37033" lon="2.55513">
        <ele>118</ele>
        <time>2020-06-06T11:36:53Z</time>
      </trkpt>
      <trkpt lat="48.37031" lon="2.55519">
        <ele>118</ele>
        <time>2020-06-06T11:36:55Z</time>
      </trkpt>
      <trkpt lat="48.37027" lon="2.55526">
        <ele>118</ele>
        <time>2020-06-06T11:36:57Z</time>
      </trkpt>
      <trkpt lat="48.37024" lon="2.55533">
        <ele>118</ele>
        <time>2020-06-06T11:36:59Z</time>
      </trkpt>
      <trkpt lat="48.3702" lon="2.55541">
        <ele>118</ele>
        <time>2020-06-06T11:37:01Z</time>
      </trkpt>
      <trkpt lat="48.37016" lon="2.55548">
        <ele>118</ele>
        <time>2020-06-06T11:37:03Z</time>
      </trkpt>
      <trkpt lat="48.37014" lon="2.55556">
        <ele>118</ele>
        <time>2020-06-06T11:37:05Z</time>
      </trkpt>
      <trkpt lat="48.3701" lon="2.55564">
        <ele>118.2</ele>
        <time>2020-06-06T11:37:07Z</time>
      </trkpt>
      <trkpt lat="48.37007" lon="2.55571">
        <ele>118.4</ele>
        <time>2020-06-06T11:37:09Z</time>
      </trkpt>
      <trkpt lat="48.37003" lon="2.55579">
        <ele>118.8</ele>
        <time>2020-06-06T11:37:11Z</time>
      </trkpt>
      <trkpt lat="48.36999" lon="2.55586">
        <ele>119</ele>
        <time>2020-06-06T11:37:13Z</time>
      </trkpt>
      <trkpt lat="48.36995" lon="2.55593">
        <ele>118.9</ele>
        <time>2020-06-06T11:37:15Z</time>
      </trkpt>
      <trkpt lat="48.3699" lon="2.55599">
        <ele>118.8</ele>
        <time>2020-06-06T11:37:17Z</time>
      </trkpt>
      <trkpt lat="48.36984" lon="2.55602">
        <ele>118.8</ele>
        <time>2020-06-06T11:37:19Z</time>
      </trkpt>
      <trkpt lat="48.36979" lon="2.55606">
        <ele>118.9</ele>
        <time>2020-06-06T11:37:21Z</time>
      </trkpt>
      <trkpt lat="48.36973" lon="2.55609">
        <ele>118.9</ele>
        <time>2020-06-06T11:37:23Z</time>
      </trkpt>
      <trkpt lat="48.36968" lon="2.55608">
        <ele>118.8</ele>
        <time>2020-06-06T11:37:25Z</time>
      </trkpt>
      <trkpt lat="48.36963" lon="2.55602">
        <ele>118.4</ele>
        <time>2020-06-06T11:37:29Z</time>
      </trkpt>
      <trkpt lat="48.36958" lon="2.55596">
        <ele>118.2</ele>
        <time>2020-06-06T11:37:31Z</time>
      </trkpt>
      <trkpt lat="48.36952" lon="2.55591">
        <ele>118.1</ele>
        <time>2020-06-06T11:37:33Z</time>
      </trkpt>
      <trkpt lat="48.36945" lon="2.55587">
        <ele>118</ele>
        <time>2020-06-06T11:37:35Z</time>
      </trkpt>
      <trkpt lat="48.36941" lon="2.55581">
        <ele>118</ele>
        <time>2020-06-06T11:37:37Z</time>
      </trkpt>
      <trkpt lat="48.36936" lon="2.55576">
        <ele>118</ele>
        <time>2020-06-06T11:37:39Z</time>
      </trkpt>
      <trkpt lat="48.36932" lon="2.55572">
        <ele>118</ele>
        <time>2020-06-06T11:37:41Z</time>
      </trkpt>
      <trkpt lat="48.36926" lon="2.55569">
        <ele>118</ele>
        <time>2020-06-06T11:37:43Z</time>
      </trkpt>
      <trkpt lat="48.36921" lon="2.55562">
        <ele>118</ele>
        <time>2020-06-06T11:37:45Z</time>
      </trkpt>
      <trkpt lat="48.36917" lon="2.55557">
        <ele>118</ele>
        <time>2020-06-06T11:37:47Z</time>
      </trkpt>
      <trkpt lat="48.3691" lon="2.5555">
        <ele>117.8</ele>
        <time>2020-06-06T11:37:49Z</time>
      </trkpt>
      <trkpt lat="48.36904" lon="2.55543">
        <ele>117.5</ele>
        <time>2020-06-06T11:37:51Z</time>
      </trkpt>
      <trkpt lat="48.36897" lon="2.55537">
        <ele>117.3</ele>
        <time>2020-06-06T11:37:53Z</time>
      </trkpt>
      <trkpt lat="48.3689" lon="2.55528">
        <ele>117</ele>
        <time>2020-06-06T11:37:55Z</time>
      </trkpt>
      <trkpt lat="48.36886" lon="2.55517">
        <ele>117.3</ele>
        <time>2020-06-06T11:37:57Z</time>
      </trkpt>
      <trkpt lat="48.36882" lon="2.55511">
        <ele>117.5</ele>
        <time>2020-06-06T11:37:59Z</time>
      </trkpt>
      <trkpt lat="48.36877" lon="2.55502">
        <ele>117.5</ele>
        <time>2020-06-06T11:38:01Z</time>
      </trkpt>
      <trkpt lat="48.3687" lon="2.55493">
        <ele>117.3</ele>
        <time>2020-06-06T11:38:03Z</time>
      </trkpt>
      <trkpt lat="48.36862" lon="2.55487">
        <ele>117</ele>
        <time>2020-06-06T11:38:05Z</time>
      </trkpt>
      <trkpt lat="48.36855" lon="2.55483">
        <ele>117</ele>
        <time>2020-06-06T11:38:07Z</time>
      </trkpt>
      <trkpt lat="48.36849" lon="2.55478">
        <ele>117</ele>
        <time>2020-06-06T11:38:09Z</time>
      </trkpt>
      <trkpt lat="48.36841" lon="2.55473">
        <ele>117</ele>
        <time>2020-06-06T11:38:11Z</time>
      </trkpt>
      <trkpt lat="48.36833" lon="2.55472">
        <ele>117</ele>
        <time>2020-06-06T11:38:13Z</time>
      </trkpt>
      <trkpt lat="48.36825" lon="2.55476">
        <ele>117</ele>
        <time>2020-06-06T11:38:15Z</time>
      </trkpt>
      <trkpt lat="48.36818" lon="2.55482">
        <ele>116.8</ele>
        <time>2020-06-06T11:38:17Z</time>
      </trkpt>
      <trkpt lat="48.3681" lon="2.55489">
        <ele>116.5</ele>
        <time>2020-06-06T11:38:19Z</time>
      </trkpt>
      <trkpt lat="48.36802" lon="2.55494">
        <ele>116.2</ele>
        <time>2020-06-06T11:38:21Z</time>
      </trkpt>
      <trkpt lat="48.36793" lon="2.55499">
        <ele>116</ele>
        <time>2020-06-06T11:38:23Z</time>
      </trkpt>
      <trkpt lat="48.36785" lon="2.55506">
        <ele>116</ele>
        <time>2020-06-06T11:38:25Z</time>
      </trkpt>
      <trkpt lat="48.36777" lon="2.55511">
        <ele>116</ele>
        <time>2020-06-06T11:38:27Z</time>
      </trkpt>
      <trkpt lat="48.36769" lon="2.55518">
        <ele>116</ele>
        <time>2020-06-06T11:38:29Z</time>
      </trkpt>
      <trkpt lat="48.36759" lon="2.55521">
        <ele>116</ele>
        <time>2020-06-06T11:38:31Z</time>
      </trkpt>
      <trkpt lat="48.3675" lon="2.55527">
        <ele>116</ele>
        <time>2020-06-06T11:38:33Z</time>
      </trkpt>
      <trkpt lat="48.36743" lon="2.55532">
        <ele>115.8</ele>
        <time>2020-06-06T11:38:35Z</time>
      </trkpt>
      <trkpt lat="48.36734" lon="2.55537">
        <ele>115.7</ele>
        <time>2020-06-06T11:38:37Z</time>
      </trkpt>
      <trkpt lat="48.36728" lon="2.55545">
        <ele>115.4</ele>
        <time>2020-06-06T11:38:39Z</time>
      </trkpt>
      <trkpt lat="48.36722" lon="2.55554">
        <ele>115.1</ele>
        <time>2020-06-06T11:38:41Z</time>
      </trkpt>
      <trkpt lat="48.36716" lon="2.55559">
        <ele>115</ele>
        <time>2020-06-06T11:38:43Z</time>
      </trkpt>
      <trkpt lat="48.36711" lon="2.55568">
        <ele>115</ele>
        <time>2020-06-06T11:38:45Z</time>
      </trkpt>
      <trkpt lat="48.36704" lon="2.55577">
        <ele>115</ele>
        <time>2020-06-06T11:38:47Z</time>
      </trkpt>
      <trkpt lat="48.36696" lon="2.55586">
        <ele>115</ele>
        <time>2020-06-06T11:38:49Z</time>
      </trkpt>
      <trkpt lat="48.3669" lon="2.55595">
        <ele>115</ele>
        <time>2020-06-06T11:38:51Z</time>
      </trkpt>
      <trkpt lat="48.36683" lon="2.55606">
        <ele>115</ele>
        <time>2020-06-06T11:38:53Z</time>
      </trkpt>
      <trkpt lat="48.3668" lon="2.55616">
        <ele>114.9</ele>
        <time>2020-06-06T11:38:55Z</time>
      </trkpt>
      <trkpt lat="48.36672" lon="2.55623">
        <ele>114.7</ele>
        <time>2020-06-06T11:38:57Z</time>
      </trkpt>
      <trkpt lat="48.36662" lon="2.55631">
        <ele>114.2</ele>
        <time>2020-06-06T11:38:59Z</time>
      </trkpt>
      <trkpt lat="48.36652" lon="2.55633">
        <ele>114.1</ele>
        <time>2020-06-06T11:39:01Z</time>
      </trkpt>
      <trkpt lat="48.36642" lon="2.5564">
        <ele>114</ele>
        <time>2020-06-06T11:39:03Z</time>
      </trkpt>
      <trkpt lat="48.36635" lon="2.55648">
        <ele>114</ele>
        <time>2020-06-06T11:39:05Z</time>
      </trkpt>
      <trkpt lat="48.36628" lon="2.55659">
        <ele>113.7</ele>
        <time>2020-06-06T11:39:07Z</time>
      </trkpt>
      <trkpt lat="48.36621" lon="2.5567">
        <ele>113.4</ele>
        <time>2020-06-06T11:39:09Z</time>
      </trkpt>
      <trkpt lat="48.36614" lon="2.55681">
        <ele>113.1</ele>
        <time>2020-06-06T11:39:11Z</time>
      </trkpt>
      <trkpt lat="48.36607" lon="2.55693">
        <ele>113</ele>
        <time>2020-06-06T11:39:13Z</time>
      </trkpt>
      <trkpt lat="48.366" lon="2.55704">
        <ele>113</ele>
        <time>2020-06-06T11:39:15Z</time>
      </trkpt>
      <trkpt lat="48.36594" lon="2.55711">
        <ele>113</ele>
        <time>2020-06-06T11:39:17Z</time>
      </trkpt>
      <trkpt lat="48.36587" lon="2.5572">
        <ele>113</ele>
        <time>2020-06-06T11:39:19Z</time>
      </trkpt>
      <trkpt lat="48.3658" lon="2.55729">
        <ele>112.9</ele>
        <time>2020-06-06T11:39:21Z</time>
      </trkpt>
      <trkpt lat="48.36575" lon="2.55736">
        <ele>112.7</ele>
        <time>2020-06-06T11:39:23Z</time>
      </trkpt>
      <trkpt lat="48.36569" lon="2.55746">
        <ele>112.5</ele>
        <time>2020-06-06T11:39:25Z</time>
      </trkpt>
      <trkpt lat="48.36563" lon="2.55755">
        <ele>112.3</ele>
        <time>2020-06-06T11:39:27Z</time>
      </trkpt>
      <trkpt lat="48.36555" lon="2.55761">
        <ele>112</ele>
        <time>2020-06-06T11:39:29Z</time>
      </trkpt>
      <trkpt lat="48.3655" lon="2.55772">
        <ele>111.8</ele>
        <time>2020-06-06T11:39:31Z</time>
      </trkpt>
      <trkpt lat="48.36544" lon="2.55781">
        <ele>111.6</ele>
        <time>2020-06-06T11:39:33Z</time>
      </trkpt>
      <trkpt lat="48.36538" lon="2.5579">
        <ele>111.4</ele>
        <time>2020-06-06T11:39:35Z</time>
      </trkpt>
      <trkpt lat="48.36532" lon="2.55798">
        <ele>111.2</ele>
        <time>2020-06-06T11:39:37Z</time>
      </trkpt>
      <trkpt lat="48.36526" lon="2.55807">
        <ele>111</ele>
        <time>2020-06-06T11:39:39Z</time>
      </trkpt>
      <trkpt lat="48.36519" lon="2.55818">
        <ele>111.3</ele>
        <time>2020-06-06T11:39:41Z</time>
      </trkpt>
      <trkpt lat="48.36513" lon="2.55829">
        <ele>111.4</ele>
        <time>2020-06-06T11:39:43Z</time>
      </trkpt>
      <trkpt lat="48.36508" lon="2.55837">
        <ele>111.4</ele>
        <time>2020-06-06T11:39:45Z</time>
      </trkpt>
      <trkpt lat="48.365" lon="2.55844">
        <ele>111.4</ele>
        <time>2020-06-06T11:39:47Z</time>
      </trkpt>
      <trkpt lat="48.36494" lon="2.55857">
        <ele>111.7</ele>
        <time>2020-06-06T11:39:49Z</time>
      </trkpt>
      <trkpt lat="48.36488" lon="2.55868">
        <ele>111.7</ele>
        <time>2020-06-06T11:39:51Z</time>
      </trkpt>
      <trkpt lat="48.36484" lon="2.55879">
        <ele>111.8</ele>
        <time>2020-06-06T11:39:53Z</time>
      </trkpt>
      <trkpt lat="48.36478" lon="2.5589">
        <ele>112</ele>
        <time>2020-06-06T11:39:55Z</time>
      </trkpt>
      <trkpt lat="48.36473" lon="2.55898">
        <ele>112.3</ele>
        <time>2020-06-06T11:39:57Z</time>
      </trkpt>
      <trkpt lat="48.3647" lon="2.55907">
        <ele>112.7</ele>
        <time>2020-06-06T11:39:59Z</time>
      </trkpt>
      <trkpt lat="48.36466" lon="2.55914">
        <ele>112.9</ele>
        <time>2020-06-06T11:40:01Z</time>
      </trkpt>
      <trkpt lat="48.36462" lon="2.55922">
        <ele>113</ele>
        <time>2020-06-06T11:40:03Z</time>
      </trkpt>
      <trkpt lat="48.36456" lon="2.55933">
        <ele>113</ele>
        <time>2020-06-06T11:40:05Z</time>
      </trkpt>
      <trkpt lat="48.36451" lon="2.55939">
        <ele>113</ele>
        <time>2020-06-06T11:40:07Z</time>
      </trkpt>
      <trkpt lat="48.36447" lon="2.55943">
        <ele>113</ele>
        <time>2020-06-06T11:40:09Z</time>
      </trkpt>
      <trkpt lat="48.3644" lon="2.55938">
        <ele>113.1</ele>
        <time>2020-06-06T11:40:13Z</time>
      </trkpt>
      <trkpt lat="48.36437" lon="2.5593">
        <ele>113.1</ele>
        <time>2020-06-06T11:40:15Z</time>
      </trkpt>
      <trkpt lat="48.36436" lon="2.55921">
        <ele>113</ele>
        <time>2020-06-06T11:40:17Z</time>
      </trkpt>
      <trkpt lat="48.36436" lon="2.55912">
        <ele>112.9</ele>
        <time>2020-06-06T11:40:19Z</time>
      </trkpt>
      <trkpt lat="48.36439" lon="2.55901">
        <ele>112.5</ele>
        <time>2020-06-06T11:40:21Z</time>
      </trkpt>
      <trkpt lat="48.36439" lon="2.55887">
        <ele>112.2</ele>
        <time>2020-06-06T11:40:23Z</time>
      </trkpt>
      <trkpt lat="48.36442" lon="2.55876">
        <ele>112</ele>
        <time>2020-06-06T11:40:25Z</time>
      </trkpt>
      <trkpt lat="48.36442" lon="2.55862">
        <ele>112</ele>
        <time>2020-06-06T11:40:27Z</time>
      </trkpt>
      <trkpt lat="48.36442" lon="2.55848">
        <ele>111.5</ele>
        <time>2020-06-06T11:40:29Z</time>
      </trkpt>
      <trkpt lat="48.36442" lon="2.55834">
        <ele>111</ele>
        <time>2020-06-06T11:40:31Z</time>
      </trkpt>
      <trkpt lat="48.36443" lon="2.5582">
        <ele>110.5</ele>
        <time>2020-06-06T11:40:33Z</time>
      </trkpt>
      <trkpt lat="48.36445" lon="2.55805">
        <ele>110</ele>
        <time>2020-06-06T11:40:35Z</time>
      </trkpt>
      <trkpt lat="48.36446" lon="2.55793">
        <ele>109.6</ele>
        <time>2020-06-06T11:40:37Z</time>
      </trkpt>
      <trkpt lat="48.36445" lon="2.55781">
        <ele>109.1</ele>
        <time>2020-06-06T11:40:39Z</time>
      </trkpt>
      <trkpt lat="48.36444" lon="2.5577">
        <ele>109</ele>
        <time>2020-06-06T11:40:41Z</time>
      </trkpt>
      <trkpt lat="48.36444" lon="2.55758">
        <ele>109</ele>
        <time>2020-06-06T11:40:43Z</time>
      </trkpt>
      <trkpt lat="48.36444" lon="2.55747">
        <ele>109</ele>
        <time>2020-06-06T11:40:45Z</time>
      </trkpt>
      <trkpt lat="48.36444" lon="2.55735">
        <ele>109</ele>
        <time>2020-06-06T11:40:47Z</time>
      </trkpt>
      <trkpt lat="48.36444" lon="2.55723">
        <ele>109</ele>
        <time>2020-06-06T11:40:49Z</time>
      </trkpt>
      <trkpt lat="48.36444" lon="2.55712">
        <ele>109.4</ele>
        <time>2020-06-06T11:40:51Z</time>
      </trkpt>
      <trkpt lat="48.36444" lon="2.55701">
        <ele>109.7</ele>
        <time>2020-06-06T11:40:53Z</time>
      </trkpt>
      <trkpt lat="48.36441" lon="2.55691">
        <ele>109.9</ele>
        <time>2020-06-06T11:40:55Z</time>
      </trkpt>
      <trkpt lat="48.36436" lon="2.55684">
        <ele>109.8</ele>
        <time>2020-06-06T11:40:57Z</time>
      </trkpt>
      <trkpt lat="48.36431" lon="2.55682">
        <ele>109.7</ele>
        <time>2020-06-06T11:40:59Z</time>
      </trkpt>
      <trkpt lat="48.36425" lon="2.55683">
        <ele>109.6</ele>
        <time>2020-06-06T11:41:01Z</time>
      </trkpt>
      <trkpt lat="48.36419" lon="2.55685">
        <ele>109.4</ele>
        <time>2020-06-06T11:41:03Z</time>
      </trkpt>
      <trkpt lat="48.36413" lon="2.55685">
        <ele>109.1</ele>
        <time>2020-06-06T11:41:05Z</time>
      </trkpt>
      <trkpt lat="48.36408" lon="2.55685">
        <ele>108.8</ele>
        <time>2020-06-06T11:41:07Z</time>
      </trkpt>
      <trkpt lat="48.36403" lon="2.55682">
        <ele>108.7</ele>
        <time>2020-06-06T11:41:11Z</time>
      </trkpt>
      <trkpt lat="48.364" lon="2.55672">
        <ele>109.1</ele>
        <time>2020-06-06T11:41:15Z</time>
      </trkpt>
      <trkpt lat="48.36397" lon="2.55665">
        <ele>109.3</ele>
        <time>2020-06-06T11:41:17Z</time>
      </trkpt>
      <trkpt lat="48.36394" lon="2.55659">
        <ele>109.4</ele>
        <time>2020-06-06T11:41:19Z</time>
      </trkpt>
      <trkpt lat="48.36388" lon="2.55651">
        <ele>109.6</ele>
        <time>2020-06-06T11:41:21Z</time>
      </trkpt>
      <trkpt lat="48.36382" lon="2.55643">
        <ele>109.8</ele>
        <time>2020-06-06T11:41:23Z</time>
      </trkpt>
      <trkpt lat="48.36375" lon="2.55637">
        <ele>110</ele>
        <time>2020-06-06T11:41:25Z</time>
      </trkpt>
      <trkpt lat="48.36368" lon="2.55632">
        <ele>110.1</ele>
        <time>2020-06-06T11:41:27Z</time>
      </trkpt>
      <trkpt lat="48.36362" lon="2.55627">
        <ele>110</ele>
        <time>2020-06-06T11:41:29Z</time>
      </trkpt>
      <trkpt lat="48.36356" lon="2.55621">
        <ele>109.8</ele>
        <time>2020-06-06T11:41:31Z</time>
      </trkpt>
      <trkpt lat="48.3635" lon="2.55615">
        <ele>109.6</ele>
        <time>2020-06-06T11:41:33Z</time>
      </trkpt>
      <trkpt lat="48.36345" lon="2.5561">
        <ele>109.4</ele>
        <time>2020-06-06T11:41:35Z</time>
      </trkpt>
      <trkpt lat="48.3634" lon="2.55601">
        <ele>109.2</ele>
        <time>2020-06-06T11:41:37Z</time>
      </trkpt>
      <trkpt lat="48.36335" lon="2.55592">
        <ele>109.1</ele>
        <time>2020-06-06T11:41:39Z</time>
      </trkpt>
      <trkpt lat="48.36331" lon="2.55582">
        <ele>108.9</ele>
        <time>2020-06-06T11:41:41Z</time>
      </trkpt>
      <trkpt lat="48.36327" lon="2.55573">
        <ele>108.8</ele>
        <time>2020-06-06T11:41:43Z</time>
      </trkpt>
      <trkpt lat="48.36322" lon="2.55565">
        <ele>108.6</ele>
        <time>2020-06-06T11:41:45Z</time>
      </trkpt>
      <trkpt lat="48.36317" lon="2.55559">
        <ele>108.4</ele>
        <time>2020-06-06T11:41:47Z</time>
      </trkpt>
      <trkpt lat="48.36314" lon="2.55553">
        <ele>108.2</ele>
        <time>2020-06-06T11:41:49Z</time>
      </trkpt>
      <trkpt lat="48.36312" lon="2.55544">
        <ele>107.9</ele>
        <time>2020-06-06T11:41:51Z</time>
      </trkpt>
      <trkpt lat="48.3631" lon="2.55535">
        <ele>107.5</ele>
        <time>2020-06-06T11:41:53Z</time>
      </trkpt>
      <trkpt lat="48.36311" lon="2.55523">
        <ele>107.4</ele>
        <time>2020-06-06T11:41:55Z</time>
      </trkpt>
      <trkpt lat="48.36312" lon="2.5551">
        <ele>107.3</ele>
        <time>2020-06-06T11:41:57Z</time>
      </trkpt>
      <trkpt lat="48.36315" lon="2.555">
        <ele>107.3</ele>
        <time>2020-06-06T11:41:59Z</time>
      </trkpt>
      <trkpt lat="48.36317" lon="2.5549">
        <ele>107.1</ele>
        <time>2020-06-06T11:42:01Z</time>
      </trkpt>
      <trkpt lat="48.36321" lon="2.55482">
        <ele>106.9</ele>
        <time>2020-06-06T11:42:03Z</time>
      </trkpt>
      <trkpt lat="48.36325" lon="2.55474">
        <ele>106.8</ele>
        <time>2020-06-06T11:42:05Z</time>
      </trkpt>
      <trkpt lat="48.36328" lon="2.55463">
        <ele>106.5</ele>
        <time>2020-06-06T11:42:07Z</time>
      </trkpt>
      <trkpt lat="48.36331" lon="2.55452">
        <ele>106.2</ele>
        <time>2020-06-06T11:42:09Z</time>
      </trkpt>
      <trkpt lat="48.36335" lon="2.55442">
        <ele>106</ele>
        <time>2020-06-06T11:42:11Z</time>
      </trkpt>
      <trkpt lat="48.36339" lon="2.55432">
        <ele>106.1</ele>
        <time>2020-06-06T11:42:13Z</time>
      </trkpt>
      <trkpt lat="48.36344" lon="2.55423">
        <ele>106.3</ele>
        <time>2020-06-06T11:42:15Z</time>
      </trkpt>
      <trkpt lat="48.36348" lon="2.55412">
        <ele>106.6</ele>
        <time>2020-06-06T11:42:17Z</time>
      </trkpt>
      <trkpt lat="48.3635" lon="2.55401">
        <ele>106.8</ele>
        <time>2020-06-06T11:42:19Z</time>
      </trkpt>
      <trkpt lat="48.36351" lon="2.5539">
        <ele>106.9</ele>
        <time>2020-06-06T11:42:21Z</time>
      </trkpt>
      <trkpt lat="48.36352" lon="2.55381">
        <ele>107.1</ele>
        <time>2020-06-06T11:42:23Z</time>
      </trkpt>
      <trkpt lat="48.36352" lon="2.55372">
        <ele>107.2</ele>
        <time>2020-06-06T11:42:25Z</time>
      </trkpt>
      <trkpt lat="48.36353" lon="2.55361">
        <ele>107.4</ele>
        <time>2020-06-06T11:42:27Z</time>
      </trkpt>
      <trkpt lat="48.36352" lon="2.5535">
        <ele>107.5</ele>
        <time>2020-06-06T11:42:29Z</time>
      </trkpt>
      <trkpt lat="48.36351" lon="2.55339">
        <ele>107.6</ele>
        <time>2020-06-06T11:42:31Z</time>
      </trkpt>
      <trkpt lat="48.3635" lon="2.55329">
        <ele>107.8</ele>
        <time>2020-06-06T11:42:33Z</time>
      </trkpt>
      <trkpt lat="48.36349" lon="2.55318">
        <ele>108.1</ele>
        <time>2020-06-06T11:42:35Z</time>
      </trkpt>
      <trkpt lat="48.36348" lon="2.55306">
        <ele>108.5</ele>
        <time>2020-06-06T11:42:37Z</time>
      </trkpt>
      <trkpt lat="48.36347" lon="2.55295">
        <ele>108.5</ele>
        <time>2020-06-06T11:42:39Z</time>
      </trkpt>
      <trkpt lat="48.36346" lon="2.55285">
        <ele>108.5</ele>
        <time>2020-06-06T11:42:41Z</time>
      </trkpt>
      <trkpt lat="48.36348" lon="2.55275">
        <ele>108.6</ele>
        <time>2020-06-06T11:42:43Z</time>
      </trkpt>
      <trkpt lat="48.36349" lon="2.55263">
        <ele>108.8</ele>
        <time>2020-06-06T11:42:45Z</time>
      </trkpt>
      <trkpt lat="48.36351" lon="2.55252">
        <ele>109</ele>
        <time>2020-06-06T11:42:47Z</time>
      </trkpt>
      <trkpt lat="48.36354" lon="2.55243">
        <ele>109</ele>
        <time>2020-06-06T11:42:49Z</time>
      </trkpt>
      <trkpt lat="48.36357" lon="2.55235">
        <ele>109</ele>
        <time>2020-06-06T11:42:51Z</time>
      </trkpt>
      <trkpt lat="48.36358" lon="2.55224">
        <ele>109</ele>
        <time>2020-06-06T11:42:53Z</time>
      </trkpt>
      <trkpt lat="48.36359" lon="2.55214">
        <ele>109</ele>
        <time>2020-06-06T11:42:55Z</time>
      </trkpt>
      <trkpt lat="48.36361" lon="2.55205">
        <ele>109</ele>
        <time>2020-06-06T11:42:57Z</time>
      </trkpt>
      <trkpt lat="48.36362" lon="2.55195">
        <ele>109</ele>
        <time>2020-06-06T11:42:59Z</time>
      </trkpt>
      <trkpt lat="48.36364" lon="2.55185">
        <ele>109.1</ele>
        <time>2020-06-06T11:43:01Z</time>
      </trkpt>
      <trkpt lat="48.36365" lon="2.55175">
        <ele>109.1</ele>
        <time>2020-06-06T11:43:03Z</time>
      </trkpt>
      <trkpt lat="48.36366" lon="2.55165">
        <ele>109.2</ele>
        <time>2020-06-06T11:43:05Z</time>
      </trkpt>
      <trkpt lat="48.36366" lon="2.55153">
        <ele>109.7</ele>
        <time>2020-06-06T11:43:07Z</time>
      </trkpt>
      <trkpt lat="48.36366" lon="2.55143">
        <ele>110</ele>
        <time>2020-06-06T11:43:09Z</time>
      </trkpt>
      <trkpt lat="48.36366" lon="2.55132">
        <ele>110.2</ele>
        <time>2020-06-06T11:43:11Z</time>
      </trkpt>
      <trkpt lat="48.36366" lon="2.55122">
        <ele>110.2</ele>
        <time>2020-06-06T11:43:13Z</time>
      </trkpt>
      <trkpt lat="48.36364" lon="2.55113">
        <ele>110.1</ele>
        <time>2020-06-06T11:43:15Z</time>
      </trkpt>
      <trkpt lat="48.36362" lon="2.55103">
        <ele>110.3</ele>
        <time>2020-06-06T11:43:17Z</time>
      </trkpt>
      <trkpt lat="48.36362" lon="2.55092">
        <ele>110.7</ele>
        <time>2020-06-06T11:43:19Z</time>
      </trkpt>
      <trkpt lat="48.36363" lon="2.55082">
        <ele>111.1</ele>
        <time>2020-06-06T11:43:21Z</time>
      </trkpt>
      <trkpt lat="48.36365" lon="2.55073">
        <ele>111.5</ele>
        <time>2020-06-06T11:43:23Z</time>
      </trkpt>
      <trkpt lat="48.36369" lon="2.55065">
        <ele>111.8</ele>
        <time>2020-06-06T11:43:25Z</time>
      </trkpt>
      <trkpt lat="48.36372" lon="2.55059">
        <ele>111.9</ele>
        <time>2020-06-06T11:43:27Z</time>
      </trkpt>
      <trkpt lat="48.36379" lon="2.55051">
        <ele>112.1</ele>
        <time>2020-06-06T11:43:31Z</time>
      </trkpt>
      <trkpt lat="48.36382" lon="2.55045">
        <ele>112.3</ele>
        <time>2020-06-06T11:43:33Z</time>
      </trkpt>
      <trkpt lat="48.36389" lon="2.55038">
        <ele>112.6</ele>
        <time>2020-06-06T11:43:37Z</time>
      </trkpt>
      <trkpt lat="48.36395" lon="2.55029">
        <ele>113.2</ele>
        <time>2020-06-06T11:43:41Z</time>
      </trkpt>
      <trkpt lat="48.364" lon="2.55026">
        <ele>113.4</ele>
        <time>2020-06-06T11:43:43Z</time>
      </trkpt>
      <trkpt lat="48.36403" lon="2.55019">
        <ele>113.5</ele>
        <time>2020-06-06T11:43:45Z</time>
      </trkpt>
      <trkpt lat="48.36407" lon="2.55013">
        <ele>113.7</ele>
        <time>2020-06-06T11:43:47Z</time>
      </trkpt>
      <trkpt lat="48.36411" lon="2.55007">
        <ele>113.8</ele>
        <time>2020-06-06T11:43:49Z</time>
      </trkpt>
      <trkpt lat="48.36414" lon="2.55">
        <ele>113.9</ele>
        <time>2020-06-06T11:43:51Z</time>
      </trkpt>
      <trkpt lat="48.36417" lon="2.54993">
        <ele>114</ele>
        <time>2020-06-06T11:43:53Z</time>
      </trkpt>
      <trkpt lat="48.3642" lon="2.54986">
        <ele>114.1</ele>
        <time>2020-06-06T11:43:55Z</time>
      </trkpt>
      <trkpt lat="48.36423" lon="2.54977">
        <ele>114.2</ele>
        <time>2020-06-06T11:43:57Z</time>
      </trkpt>
      <trkpt lat="48.36425" lon="2.54971">
        <ele>114.3</ele>
        <time>2020-06-06T11:43:59Z</time>
      </trkpt>
      <trkpt lat="48.36427" lon="2.54964">
        <ele>114.4</ele>
        <time>2020-06-06T11:44:01Z</time>
      </trkpt>
      <trkpt lat="48.36429" lon="2.54956">
        <ele>114.4</ele>
        <time>2020-06-06T11:44:03Z</time>
      </trkpt>
      <trkpt lat="48.36432" lon="2.54947">
        <ele>114.6</ele>
        <time>2020-06-06T11:44:05Z</time>
      </trkpt>
      <trkpt lat="48.36433" lon="2.5494">
        <ele>114.7</ele>
        <time>2020-06-06T11:44:07Z</time>
      </trkpt>
      <trkpt lat="48.36436" lon="2.54926">
        <ele>114.9</ele>
        <time>2020-06-06T11:44:11Z</time>
      </trkpt>
      <trkpt lat="48.36438" lon="2.54918">
        <ele>115</ele>
        <time>2020-06-06T11:44:13Z</time>
      </trkpt>
      <trkpt lat="48.36441" lon="2.54911">
        <ele>115</ele>
        <time>2020-06-06T11:44:15Z</time>
      </trkpt>
      <trkpt lat="48.36444" lon="2.54904">
        <ele>115</ele>
        <time>2020-06-06T11:44:17Z</time>
      </trkpt>
      <trkpt lat="48.36447" lon="2.54896">
        <ele>115.1</ele>
        <time>2020-06-06T11:44:19Z</time>
      </trkpt>
      <trkpt lat="48.36452" lon="2.5489">
        <ele>115.3</ele>
        <time>2020-06-06T11:44:21Z</time>
      </trkpt>
      <trkpt lat="48.36457" lon="2.54885">
        <ele>115.5</ele>
        <time>2020-06-06T11:44:23Z</time>
      </trkpt>
      <trkpt lat="48.36461" lon="2.54878">
        <ele>115.8</ele>
        <time>2020-06-06T11:44:25Z</time>
      </trkpt>
      <trkpt lat="48.36464" lon="2.54872">
        <ele>115.9</ele>
        <time>2020-06-06T11:44:27Z</time>
      </trkpt>
      <trkpt lat="48.36469" lon="2.54868">
        <ele>116</ele>
        <time>2020-06-06T11:44:29Z</time>
      </trkpt>
      <trkpt lat="48.36476" lon="2.54857">
        <ele>116.1</ele>
        <time>2020-06-06T11:44:33Z</time>
      </trkpt>
      <trkpt lat="48.36479" lon="2.54852">
        <ele>116.2</ele>
        <time>2020-06-06T11:44:35Z</time>
      </trkpt>
      <trkpt lat="48.36484" lon="2.54845">
        <ele>116.4</ele>
        <time>2020-06-06T11:44:37Z</time>
      </trkpt>
      <trkpt lat="48.36489" lon="2.54842">
        <ele>116.6</ele>
        <time>2020-06-06T11:44:39Z</time>
      </trkpt>
      <trkpt lat="48.36494" lon="2.54838">
        <ele>116.8</ele>
        <time>2020-06-06T11:44:41Z</time>
      </trkpt>
      <trkpt lat="48.36498" lon="2.54833">
        <ele>116.9</ele>
        <time>2020-06-06T11:44:43Z</time>
      </trkpt>
      <trkpt lat="48.36503" lon="2.54831">
        <ele>117</ele>
        <time>2020-06-06T11:44:45Z</time>
      </trkpt>
      <trkpt lat="48.36508" lon="2.54829">
        <ele>117</ele>
        <time>2020-06-06T11:44:47Z</time>
      </trkpt>
      <trkpt lat="48.36512" lon="2.54826">
        <ele>117</ele>
        <time>2020-06-06T11:44:49Z</time>
      </trkpt>
      <trkpt lat="48.36518" lon="2.54823">
        <ele>117</ele>
        <time>2020-06-06T11:44:51Z</time>
      </trkpt>
      <trkpt lat="48.36523" lon="2.54818">
        <ele>117</ele>
        <time>2020-06-06T11:44:53Z</time>
      </trkpt>
      <trkpt lat="48.36528" lon="2.54811">
        <ele>117</ele>
        <time>2020-06-06T11:44:55Z</time>
      </trkpt>
      <trkpt lat="48.36532" lon="2.54803">
        <ele>117.2</ele>
        <time>2020-06-06T11:44:57Z</time>
      </trkpt>
      <trkpt lat="48.36535" lon="2.54798">
        <ele>117.3</ele>
        <time>2020-06-06T11:44:59Z</time>
      </trkpt>
      <trkpt lat="48.36538" lon="2.54789">
        <ele>117.4</ele>
        <time>2020-06-06T11:45:01Z</time>
      </trkpt>
      <trkpt lat="48.3654" lon="2.5478">
        <ele>117.4</ele>
        <time>2020-06-06T11:45:03Z</time>
      </trkpt>
      <trkpt lat="48.36545" lon="2.54769">
        <ele>117.6</ele>
        <time>2020-06-06T11:45:07Z</time>
      </trkpt>
      <trkpt lat="48.36549" lon="2.54763">
        <ele>117.8</ele>
        <time>2020-06-06T11:45:09Z</time>
      </trkpt>
      <trkpt lat="48.36552" lon="2.54758">
        <ele>117.9</ele>
        <time>2020-06-06T11:45:11Z</time>
      </trkpt>
      <trkpt lat="48.36556" lon="2.54751">
        <ele>118</ele>
        <time>2020-06-06T11:45:13Z</time>
      </trkpt>
      <trkpt lat="48.36558" lon="2.54744">
        <ele>118</ele>
        <time>2020-06-06T11:45:15Z</time>
      </trkpt>
      <trkpt lat="48.36561" lon="2.54738">
        <ele>118</ele>
        <time>2020-06-06T11:45:17Z</time>
      </trkpt>
      <trkpt lat="48.36564" lon="2.54729">
        <ele>118</ele>
        <time>2020-06-06T11:45:21Z</time>
      </trkpt>
      <trkpt lat="48.36564" lon="2.54721">
        <ele>118</ele>
        <time>2020-06-06T11:45:45Z</time>
      </trkpt>
      <trkpt lat="48.36568" lon="2.54717">
        <ele>118</ele>
        <time>2020-06-06T11:45:57Z</time>
      </trkpt>
      <trkpt lat="48.36573" lon="2.54713">
        <ele>118</ele>
        <time>2020-06-06T11:46:01Z</time>
      </trkpt>
      <trkpt lat="48.36577" lon="2.5471">
        <ele>118</ele>
        <time>2020-06-06T11:46:03Z</time>
      </trkpt>
      <trkpt lat="48.36583" lon="2.54708">
        <ele>118</ele>
        <time>2020-06-06T11:46:05Z</time>
      </trkpt>
      <trkpt lat="48.36588" lon="2.54707">
        <ele>118</ele>
        <time>2020-06-06T11:46:07Z</time>
      </trkpt>
      <trkpt lat="48.36593" lon="2.54705">
        <ele>118</ele>
        <time>2020-06-06T11:46:09Z</time>
      </trkpt>
      <trkpt lat="48.366" lon="2.54701">
        <ele>118</ele>
        <time>2020-06-06T11:46:11Z</time>
      </trkpt>
      <trkpt lat="48.36606" lon="2.54699">
        <ele>118</ele>
        <time>2020-06-06T11:46:13Z</time>
      </trkpt>
      <trkpt lat="48.36613" lon="2.54699">
        <ele>117.9</ele>
        <time>2020-06-06T11:46:15Z</time>
      </trkpt>
      <trkpt lat="48.3662" lon="2.54705">
        <ele>117.7</ele>
        <time>2020-06-06T11:46:17Z</time>
      </trkpt>
      <trkpt lat="48.36625" lon="2.54714">
        <ele>117.5</ele>
        <time>2020-06-06T11:46:19Z</time>
      </trkpt>
      <trkpt lat="48.3663" lon="2.54722">
        <ele>117.3</ele>
        <time>2020-06-06T11:46:21Z</time>
      </trkpt>
      <trkpt lat="48.36636" lon="2.5473">
        <ele>117.1</ele>
        <time>2020-06-06T11:46:23Z</time>
      </trkpt>
      <trkpt lat="48.3664" lon="2.54735">
        <ele>117</ele>
        <time>2020-06-06T11:46:25Z</time>
      </trkpt>
      <trkpt lat="48.36645" lon="2.54741">
        <ele>117</ele>
        <time>2020-06-06T11:46:27Z</time>
      </trkpt>
      <trkpt lat="48.36649" lon="2.54749">
        <ele>117</ele>
        <time>2020-06-06T11:46:29Z</time>
      </trkpt>
      <trkpt lat="48.36654" lon="2.54755">
        <ele>117.1</ele>
        <time>2020-06-06T11:46:31Z</time>
      </trkpt>
      <trkpt lat="48.3666" lon="2.54763">
        <ele>117.1</ele>
        <time>2020-06-06T11:46:33Z</time>
      </trkpt>
      <trkpt lat="48.36665" lon="2.54771">
        <ele>117</ele>
        <time>2020-06-06T11:46:35Z</time>
      </trkpt>
      <trkpt lat="48.3667" lon="2.54778">
        <ele>117</ele>
        <time>2020-06-06T11:46:37Z</time>
      </trkpt>
      <trkpt lat="48.36675" lon="2.54786">
        <ele>117.2</ele>
        <time>2020-06-06T11:46:39Z</time>
      </trkpt>
      <trkpt lat="48.36681" lon="2.54794">
        <ele>117.3</ele>
        <time>2020-06-06T11:46:41Z</time>
      </trkpt>
      <trkpt lat="48.36686" lon="2.54801">
        <ele>117.3</ele>
        <time>2020-06-06T11:46:43Z</time>
      </trkpt>
      <trkpt lat="48.36691" lon="2.5481">
        <ele>117.3</ele>
        <time>2020-06-06T11:46:45Z</time>
      </trkpt>
      <trkpt lat="48.36697" lon="2.54818">
        <ele>117.4</ele>
        <time>2020-06-06T11:46:47Z</time>
      </trkpt>
      <trkpt lat="48.36703" lon="2.54827">
        <ele>117.8</ele>
        <time>2020-06-06T11:46:49Z</time>
      </trkpt>
      <trkpt lat="48.36709" lon="2.54836">
        <ele>118</ele>
        <time>2020-06-06T11:46:51Z</time>
      </trkpt>
      <trkpt lat="48.36715" lon="2.54845">
        <ele>118.1</ele>
        <time>2020-06-06T11:46:53Z</time>
      </trkpt>
      <trkpt lat="48.36722" lon="2.54853">
        <ele>118</ele>
        <time>2020-06-06T11:46:55Z</time>
      </trkpt>
      <trkpt lat="48.36728" lon="2.54862">
        <ele>118</ele>
        <time>2020-06-06T11:46:57Z</time>
      </trkpt>
      <trkpt lat="48.36734" lon="2.5487">
        <ele>118.2</ele>
        <time>2020-06-06T11:46:59Z</time>
      </trkpt>
      <trkpt lat="48.3674" lon="2.54879">
        <ele>118.2</ele>
        <time>2020-06-06T11:47:01Z</time>
      </trkpt>
      <trkpt lat="48.36745" lon="2.54889">
        <ele>118.2</ele>
        <time>2020-06-06T11:47:03Z</time>
      </trkpt>
      <trkpt lat="48.36751" lon="2.54896">
        <ele>118.3</ele>
        <time>2020-06-06T11:47:05Z</time>
      </trkpt>
      <trkpt lat="48.36757" lon="2.54906">
        <ele>118.6</ele>
        <time>2020-06-06T11:47:07Z</time>
      </trkpt>
      <trkpt lat="48.36762" lon="2.54913">
        <ele>118.9</ele>
        <time>2020-06-06T11:47:09Z</time>
      </trkpt>
      <trkpt lat="48.36768" lon="2.54921">
        <ele>119</ele>
        <time>2020-06-06T11:47:11Z</time>
      </trkpt>
      <trkpt lat="48.36773" lon="2.54931">
        <ele>119</ele>
        <time>2020-06-06T11:47:13Z</time>
      </trkpt>
      <trkpt lat="48.36778" lon="2.5494">
        <ele>119</ele>
        <time>2020-06-06T11:47:15Z</time>
      </trkpt>
      <trkpt lat="48.36782" lon="2.54948">
        <ele>119</ele>
        <time>2020-06-06T11:47:17Z</time>
      </trkpt>
      <trkpt lat="48.36789" lon="2.54958">
        <ele>119</ele>
        <time>2020-06-06T11:47:19Z</time>
      </trkpt>
      <trkpt lat="48.36796" lon="2.54967">
        <ele>119</ele>
        <time>2020-06-06T11:47:21Z</time>
      </trkpt>
      <trkpt lat="48.36801" lon="2.54976">
        <ele>119</ele>
        <time>2020-06-06T11:47:23Z</time>
      </trkpt>
      <trkpt lat="48.36807" lon="2.54984">
        <ele>119</ele>
        <time>2020-06-06T11:47:25Z</time>
      </trkpt>
      <trkpt lat="48.36814" lon="2.54992">
        <ele>119</ele>
        <time>2020-06-06T11:47:27Z</time>
      </trkpt>
      <trkpt lat="48.36821" lon="2.55">
        <ele>119</ele>
        <time>2020-06-06T11:47:29Z</time>
      </trkpt>
      <trkpt lat="48.36827" lon="2.55009">
        <ele>119</ele>
        <time>2020-06-06T11:47:31Z</time>
      </trkpt>
      <trkpt lat="48.36833" lon="2.55018">
        <ele>119</ele>
        <time>2020-06-06T11:47:33Z</time>
      </trkpt>
      <trkpt lat="48.36838" lon="2.55028">
        <ele>119</ele>
        <time>2020-06-06T11:47:35Z</time>
      </trkpt>
      <trkpt lat="48.36843" lon="2.55037">
        <ele>119</ele>
        <time>2020-06-06T11:47:37Z</time>
      </trkpt>
      <trkpt lat="48.36847" lon="2.55045">
        <ele>119</ele>
        <time>2020-06-06T11:47:39Z</time>
      </trkpt>
      <trkpt lat="48.36852" lon="2.5505">
        <ele>119</ele>
        <time>2020-06-06T11:47:41Z</time>
      </trkpt>
      <trkpt lat="48.36857" lon="2.55057">
        <ele>119</ele>
        <time>2020-06-06T11:47:43Z</time>
      </trkpt>
      <trkpt lat="48.36863" lon="2.55066">
        <ele>119</ele>
        <time>2020-06-06T11:47:45Z</time>
      </trkpt>
      <trkpt lat="48.36869" lon="2.55076">
        <ele>119</ele>
        <time>2020-06-06T11:47:47Z</time>
      </trkpt>
      <trkpt lat="48.36873" lon="2.55081">
        <ele>119</ele>
        <time>2020-06-06T11:47:49Z</time>
      </trkpt>
      <trkpt lat="48.36879" lon="2.55091">
        <ele>119</ele>
        <time>2020-06-06T11:47:51Z</time>
      </trkpt>
      <trkpt lat="48.36884" lon="2.55099">
        <ele>119</ele>
        <time>2020-06-06T11:47:53Z</time>
      </trkpt>
      <trkpt lat="48.36888" lon="2.55106">
        <ele>119</ele>
        <time>2020-06-06T11:47:55Z</time>
      </trkpt>
      <trkpt lat="48.36895" lon="2.55114">
        <ele>119</ele>
        <time>2020-06-06T11:47:57Z</time>
      </trkpt>
      <trkpt lat="48.369" lon="2.55122">
        <ele>119</ele>
        <time>2020-06-06T11:47:59Z</time>
      </trkpt>
      <trkpt lat="48.36907" lon="2.55132">
        <ele>119</ele>
        <time>2020-06-06T11:48:01Z</time>
      </trkpt>
      <trkpt lat="48.36914" lon="2.55141">
        <ele>119</ele>
        <time>2020-06-06T11:48:03Z</time>
      </trkpt>
      <trkpt lat="48.36918" lon="2.55146">
        <ele>119</ele>
        <time>2020-06-06T11:48:05Z</time>
      </trkpt>
      <trkpt lat="48.36925" lon="2.55155">
        <ele>118.7</ele>
        <time>2020-06-06T11:48:07Z</time>
      </trkpt>
      <trkpt lat="48.3693" lon="2.55163">
        <ele>118.5</ele>
        <time>2020-06-06T11:48:09Z</time>
      </trkpt>
      <trkpt lat="48.36933" lon="2.55171">
        <ele>118.4</ele>
        <time>2020-06-06T11:48:11Z</time>
      </trkpt>
      <trkpt lat="48.36938" lon="2.55179">
        <ele>118.2</ele>
        <time>2020-06-06T11:48:13Z</time>
      </trkpt>
      <trkpt lat="48.36944" lon="2.55187">
        <ele>118</ele>
        <time>2020-06-06T11:48:15Z</time>
      </trkpt>
      <trkpt lat="48.36951" lon="2.55195">
        <ele>118</ele>
        <time>2020-06-06T11:48:17Z</time>
      </trkpt>
      <trkpt lat="48.36958" lon="2.55203">
        <ele>118</ele>
        <time>2020-06-06T11:48:19Z</time>
      </trkpt>
      <trkpt lat="48.36964" lon="2.55206">
        <ele>118</ele>
        <time>2020-06-06T11:48:21Z</time>
      </trkpt>
      <trkpt lat="48.3697" lon="2.55203">
        <ele>118</ele>
        <time>2020-06-06T11:48:23Z</time>
      </trkpt>
      <trkpt lat="48.36975" lon="2.552">
        <ele>117.9</ele>
        <time>2020-06-06T11:48:25Z</time>
      </trkpt>
      <trkpt lat="48.3698" lon="2.55192">
        <ele>117.7</ele>
        <time>2020-06-06T11:48:27Z</time>
      </trkpt>
      <trkpt lat="48.36986" lon="2.55183">
        <ele>117.5</ele>
        <time>2020-06-06T11:48:29Z</time>
      </trkpt>
      <trkpt lat="48.36992" lon="2.55175">
        <ele>117.3</ele>
        <time>2020-06-06T11:48:31Z</time>
      </trkpt>
      <trkpt lat="48.36998" lon="2.55167">
        <ele>117.1</ele>
        <time>2020-06-06T11:48:33Z</time>
      </trkpt>
      <trkpt lat="48.37004" lon="2.55159">
        <ele>116.8</ele>
        <time>2020-06-06T11:48:35Z</time>
      </trkpt>
      <trkpt lat="48.37011" lon="2.55153">
        <ele>116.4</ele>
        <time>2020-06-06T11:48:37Z</time>
      </trkpt>
      <trkpt lat="48.37017" lon="2.55145">
        <ele>115.9</ele>
        <time>2020-06-06T11:48:39Z</time>
      </trkpt>
      <trkpt lat="48.37023" lon="2.55135">
        <ele>115.5</ele>
        <time>2020-06-06T11:48:41Z</time>
      </trkpt>
      <trkpt lat="48.3703" lon="2.55125">
        <ele>115.4</ele>
        <time>2020-06-06T11:48:43Z</time>
      </trkpt>
      <trkpt lat="48.37037" lon="2.55114">
        <ele>115.3</ele>
        <time>2020-06-06T11:48:45Z</time>
      </trkpt>
      <trkpt lat="48.37044" lon="2.55104">
        <ele>115.1</ele>
        <time>2020-06-06T11:48:47Z</time>
      </trkpt>
      <trkpt lat="48.3705" lon="2.55091">
        <ele>115.6</ele>
        <time>2020-06-06T11:48:49Z</time>
      </trkpt>
      <trkpt lat="48.37055" lon="2.55082">
        <ele>116</ele>
        <time>2020-06-06T11:48:51Z</time>
      </trkpt>
      <trkpt lat="48.3706" lon="2.55075">
        <ele>116.3</ele>
        <time>2020-06-06T11:48:53Z</time>
      </trkpt>
      <trkpt lat="48.37064" lon="2.55068">
        <ele>116.6</ele>
        <time>2020-06-06T11:48:55Z</time>
      </trkpt>
      <trkpt lat="48.37069" lon="2.5506">
        <ele>116.8</ele>
        <time>2020-06-06T11:48:57Z</time>
      </trkpt>
      <trkpt lat="48.37072" lon="2.55052">
        <ele>117.1</ele>
        <time>2020-06-06T11:48:59Z</time>
      </trkpt>
      <trkpt lat="48.37077" lon="2.55045">
        <ele>117.4</ele>
        <time>2020-06-06T11:49:01Z</time>
      </trkpt>
      <trkpt lat="48.37082" lon="2.55039">
        <ele>117.6</ele>
        <time>2020-06-06T11:49:03Z</time>
      </trkpt>
      <trkpt lat="48.37087" lon="2.55032">
        <ele>117.8</ele>
        <time>2020-06-06T11:49:05Z</time>
      </trkpt>
      <trkpt lat="48.37094" lon="2.55017">
        <ele>118</ele>
        <time>2020-06-06T11:49:09Z</time>
      </trkpt>
      <trkpt lat="48.37099" lon="2.55009">
        <ele>118</ele>
        <time>2020-06-06T11:49:11Z</time>
      </trkpt>
      <trkpt lat="48.37105" lon="2.55001">
        <ele>118</ele>
        <time>2020-06-06T11:49:13Z</time>
      </trkpt>
      <trkpt lat="48.3711" lon="2.54993">
        <ele>118</ele>
        <time>2020-06-06T11:49:15Z</time>
      </trkpt>
      <trkpt lat="48.37116" lon="2.54986">
        <ele>118</ele>
        <time>2020-06-06T11:49:17Z</time>
      </trkpt>
      <trkpt lat="48.37121" lon="2.54979">
        <ele>118</ele>
        <time>2020-06-06T11:49:19Z</time>
      </trkpt>
      <trkpt lat="48.37124" lon="2.5497">
        <ele>118</ele>
        <time>2020-06-06T11:49:21Z</time>
      </trkpt>
      <trkpt lat="48.37129" lon="2.54962">
        <ele>118.1</ele>
        <time>2020-06-06T11:49:23Z</time>
      </trkpt>
      <trkpt lat="48.37135" lon="2.54956">
        <ele>118.1</ele>
        <time>2020-06-06T11:49:25Z</time>
      </trkpt>
      <trkpt lat="48.37141" lon="2.54947">
        <ele>117.9</ele>
        <time>2020-06-06T11:49:27Z</time>
      </trkpt>
      <trkpt lat="48.37145" lon="2.54937">
        <ele>117.8</ele>
        <time>2020-06-06T11:49:29Z</time>
      </trkpt>
      <trkpt lat="48.37151" lon="2.54929">
        <ele>117.6</ele>
        <time>2020-06-06T11:49:31Z</time>
      </trkpt>
      <trkpt lat="48.37155" lon="2.54918">
        <ele>117.4</ele>
        <time>2020-06-06T11:49:33Z</time>
      </trkpt>
      <trkpt lat="48.3716" lon="2.54908">
        <ele>117</ele>
        <time>2020-06-06T11:49:35Z</time>
      </trkpt>
      <trkpt lat="48.37168" lon="2.54899">
        <ele>116.3</ele>
        <time>2020-06-06T11:49:37Z</time>
      </trkpt>
      <trkpt lat="48.37173" lon="2.54889">
        <ele>115.5</ele>
        <time>2020-06-06T11:49:39Z</time>
      </trkpt>
      <trkpt lat="48.3718" lon="2.5488">
        <ele>115.2</ele>
        <time>2020-06-06T11:49:41Z</time>
      </trkpt>
      <trkpt lat="48.37186" lon="2.5487">
        <ele>115.1</ele>
        <time>2020-06-06T11:49:43Z</time>
      </trkpt>
      <trkpt lat="48.37194" lon="2.5486">
        <ele>115.1</ele>
        <time>2020-06-06T11:49:45Z</time>
      </trkpt>
      <trkpt lat="48.372" lon="2.5485">
        <ele>115.2</ele>
        <time>2020-06-06T11:49:47Z</time>
      </trkpt>
      <trkpt lat="48.37206" lon="2.54841">
        <ele>115.3</ele>
        <time>2020-06-06T11:49:49Z</time>
      </trkpt>
      <trkpt lat="48.37211" lon="2.54833">
        <ele>115.4</ele>
        <time>2020-06-06T11:49:51Z</time>
      </trkpt>
      <trkpt lat="48.37218" lon="2.54826">
        <ele>115.4</ele>
        <time>2020-06-06T11:49:53Z</time>
      </trkpt>
      <trkpt lat="48.37223" lon="2.54817">
        <ele>115.5</ele>
        <time>2020-06-06T11:49:55Z</time>
      </trkpt>
      <trkpt lat="48.3723" lon="2.54809">
        <ele>115.4</ele>
        <time>2020-06-06T11:49:57Z</time>
      </trkpt>
      <trkpt lat="48.37236" lon="2.54799">
        <ele>114.8</ele>
        <time>2020-06-06T11:49:59Z</time>
      </trkpt>
      <trkpt lat="48.37242" lon="2.54789">
        <ele>114</ele>
        <time>2020-06-06T11:50:01Z</time>
      </trkpt>
      <trkpt lat="48.37248" lon="2.5478">
        <ele>113.2</ele>
        <time>2020-06-06T11:50:03Z</time>
      </trkpt>
      <trkpt lat="48.37253" lon="2.54774">
        <ele>112.2</ele>
        <time>2020-06-06T11:50:05Z</time>
      </trkpt>
      <trkpt lat="48.37257" lon="2.54768">
        <ele>111</ele>
        <time>2020-06-06T11:50:07Z</time>
      </trkpt>
      <trkpt lat="48.3726" lon="2.54761">
        <ele>110</ele>
        <time>2020-06-06T11:50:09Z</time>
      </trkpt>
      <trkpt lat="48.37266" lon="2.54753">
        <ele>108.3</ele>
        <time>2020-06-06T11:50:11Z</time>
      </trkpt>
      <trkpt lat="48.37272" lon="2.54741">
        <ele>106.4</ele>
        <time>2020-06-06T11:50:13Z</time>
      </trkpt>
      <trkpt lat="48.37277" lon="2.54729">
        <ele>104.6</ele>
        <time>2020-06-06T11:50:15Z</time>
      </trkpt>
      <trkpt lat="48.37275" lon="2.54717">
        <ele>104.1</ele>
        <time>2020-06-06T11:50:17Z</time>
      </trkpt>
      <trkpt lat="48.37271" lon="2.5471">
        <ele>104.4</ele>
        <time>2020-06-06T11:50:19Z</time>
      </trkpt>
      <trkpt lat="48.37266" lon="2.54703">
        <ele>105</ele>
        <time>2020-06-06T11:50:21Z</time>
      </trkpt>
      <trkpt lat="48.37261" lon="2.54696">
        <ele>105.7</ele>
        <time>2020-06-06T11:50:23Z</time>
      </trkpt>
      <trkpt lat="48.37255" lon="2.5469">
        <ele>106.8</ele>
        <time>2020-06-06T11:50:25Z</time>
      </trkpt>
      <trkpt lat="48.37251" lon="2.54684">
        <ele>107.4</ele>
        <time>2020-06-06T11:50:27Z</time>
      </trkpt>
      <trkpt lat="48.37248" lon="2.54679">
        <ele>107.8</ele>
        <time>2020-06-06T11:50:29Z</time>
      </trkpt>
      <trkpt lat="48.37243" lon="2.5467">
        <ele>108.4</ele>
        <time>2020-06-06T11:50:33Z</time>
      </trkpt>
      <trkpt lat="48.37236" lon="2.54662">
        <ele>109.8</ele>
        <time>2020-06-06T11:50:37Z</time>
      </trkpt>
      <trkpt lat="48.3723" lon="2.54654">
        <ele>111.2</ele>
        <time>2020-06-06T11:50:41Z</time>
      </trkpt>
      <trkpt lat="48.37225" lon="2.54647">
        <ele>112.3</ele>
        <time>2020-06-06T11:50:45Z</time>
      </trkpt>
      <trkpt lat="48.3722" lon="2.54639">
        <ele>113.2</ele>
        <time>2020-06-06T11:50:49Z</time>
      </trkpt>
      <trkpt lat="48.37215" lon="2.54631">
        <ele>113.8</ele>
        <time>2020-06-06T11:50:53Z</time>
      </trkpt>
      <trkpt lat="48.37211" lon="2.54622">
        <ele>114.2</ele>
        <time>2020-06-06T11:50:57Z</time>
      </trkpt>
      <trkpt lat="48.37207" lon="2.54616">
        <ele>114.6</ele>
        <time>2020-06-06T11:51:01Z</time>
      </trkpt>
      <trkpt lat="48.37201" lon="2.54608">
        <ele>115.3</ele>
        <time>2020-06-06T11:51:05Z</time>
      </trkpt>
      <trkpt lat="48.37197" lon="2.54601">
        <ele>115.8</ele>
        <time>2020-06-06T11:51:09Z</time>
      </trkpt>
      <trkpt lat="48.37191" lon="2.54593">
        <ele>116</ele>
        <time>2020-06-06T11:51:13Z</time>
      </trkpt>
      <trkpt lat="48.37185" lon="2.54583">
        <ele>116</ele>
        <time>2020-06-06T11:51:17Z</time>
      </trkpt>
      <trkpt lat="48.3718" lon="2.54577">
        <ele>115.9</ele>
        <time>2020-06-06T11:51:19Z</time>
      </trkpt>
      <trkpt lat="48.37177" lon="2.54572">
        <ele>115.8</ele>
        <time>2020-06-06T11:51:21Z</time>
      </trkpt>
      <trkpt lat="48.37173" lon="2.54566">
        <ele>115.9</ele>
        <time>2020-06-06T11:51:23Z</time>
      </trkpt>
      <trkpt lat="48.37166" lon="2.5456">
        <ele>116</ele>
        <time>2020-06-06T11:51:25Z</time>
      </trkpt>
      <trkpt lat="48.37162" lon="2.54552">
        <ele>115.8</ele>
        <time>2020-06-06T11:51:27Z</time>
      </trkpt>
      <trkpt lat="48.37158" lon="2.54545">
        <ele>115.4</ele>
        <time>2020-06-06T11:51:29Z</time>
      </trkpt>
      <trkpt lat="48.37155" lon="2.54536">
        <ele>114.9</ele>
        <time>2020-06-06T11:51:31Z</time>
      </trkpt>
      <trkpt lat="48.37151" lon="2.5453">
        <ele>114.7</ele>
        <time>2020-06-06T11:51:33Z</time>
      </trkpt>
      <trkpt lat="48.37146" lon="2.54526">
        <ele>114.5</ele>
        <time>2020-06-06T11:51:35Z</time>
      </trkpt>
      <trkpt lat="48.37141" lon="2.54521">
        <ele>114.2</ele>
        <time>2020-06-06T11:51:37Z</time>
      </trkpt>
      <trkpt lat="48.37135" lon="2.54518">
        <ele>114</ele>
        <time>2020-06-06T11:51:39Z</time>
      </trkpt>
      <trkpt lat="48.3713" lon="2.54513">
        <ele>113.7</ele>
        <time>2020-06-06T11:51:41Z</time>
      </trkpt>
      <trkpt lat="48.37125" lon="2.54507">
        <ele>113.5</ele>
        <time>2020-06-06T11:51:43Z</time>
      </trkpt>
      <trkpt lat="48.37122" lon="2.54498">
        <ele>113.1</ele>
        <time>2020-06-06T11:51:45Z</time>
      </trkpt>
      <trkpt lat="48.37117" lon="2.54484">
        <ele>112.8</ele>
        <time>2020-06-06T11:51:47Z</time>
      </trkpt>
      <trkpt lat="48.3711" lon="2.54474">
        <ele>113.2</ele>
        <time>2020-06-06T11:51:49Z</time>
      </trkpt>
      <trkpt lat="48.37102" lon="2.54464">
        <ele>114</ele>
        <time>2020-06-06T11:51:51Z</time>
      </trkpt>
      <trkpt lat="48.371" lon="2.54458">
        <ele>114.2</ele>
        <time>2020-06-06T11:51:53Z</time>
      </trkpt>
      <trkpt lat="48.37096" lon="2.54453">
        <ele>114.6</ele>
        <time>2020-06-06T11:51:55Z</time>
      </trkpt>
      <trkpt lat="48.37091" lon="2.54445">
        <ele>115.2</ele>
        <time>2020-06-06T11:51:59Z</time>
      </trkpt>
      <trkpt lat="48.37087" lon="2.54441">
        <ele>115.6</ele>
        <time>2020-06-06T11:52:01Z</time>
      </trkpt>
      <trkpt lat="48.37084" lon="2.54435">
        <ele>115.9</ele>
        <time>2020-06-06T11:52:03Z</time>
      </trkpt>
      <trkpt lat="48.37081" lon="2.5443">
        <ele>116.1</ele>
        <time>2020-06-06T11:52:05Z</time>
      </trkpt>
      <trkpt lat="48.37077" lon="2.54427">
        <ele>116.2</ele>
        <time>2020-06-06T11:52:07Z</time>
      </trkpt>
      <trkpt lat="48.37074" lon="2.5442">
        <ele>116.3</ele>
        <time>2020-06-06T11:52:09Z</time>
      </trkpt>
      <trkpt lat="48.37069" lon="2.54413">
        <ele>116.5</ele>
        <time>2020-06-06T11:52:11Z</time>
      </trkpt>
      <trkpt lat="48.37066" lon="2.54405">
        <ele>116.6</ele>
        <time>2020-06-06T11:52:13Z</time>
      </trkpt>
      <trkpt lat="48.37062" lon="2.54397">
        <ele>116.8</ele>
        <time>2020-06-06T11:52:15Z</time>
      </trkpt>
      <trkpt lat="48.37058" lon="2.5439">
        <ele>116.9</ele>
        <time>2020-06-06T11:52:17Z</time>
      </trkpt>
      <trkpt lat="48.37052" lon="2.54383">
        <ele>117.1</ele>
        <time>2020-06-06T11:52:19Z</time>
      </trkpt>
      <trkpt lat="48.37047" lon="2.54378">
        <ele>117.3</ele>
        <time>2020-06-06T11:52:21Z</time>
      </trkpt>
      <trkpt lat="48.37042" lon="2.54371">
        <ele>117.5</ele>
        <time>2020-06-06T11:52:23Z</time>
      </trkpt>
      <trkpt lat="48.37037" lon="2.54364">
        <ele>117.7</ele>
        <time>2020-06-06T11:52:25Z</time>
      </trkpt>
      <trkpt lat="48.37033" lon="2.54356">
        <ele>117.6</ele>
        <time>2020-06-06T11:52:27Z</time>
      </trkpt>
      <trkpt lat="48.37028" lon="2.54348">
        <ele>117.5</ele>
        <time>2020-06-06T11:52:29Z</time>
      </trkpt>
      <trkpt lat="48.37022" lon="2.54342">
        <ele>117.5</ele>
        <time>2020-06-06T11:52:31Z</time>
      </trkpt>
      <trkpt lat="48.37016" lon="2.54332">
        <ele>117.4</ele>
        <time>2020-06-06T11:52:33Z</time>
      </trkpt>
      <trkpt lat="48.37011" lon="2.54325">
        <ele>117.6</ele>
        <time>2020-06-06T11:52:35Z</time>
      </trkpt>
      <trkpt lat="48.37007" lon="2.54318">
        <ele>117.7</ele>
        <time>2020-06-06T11:52:37Z</time>
      </trkpt>
      <trkpt lat="48.37001" lon="2.54311">
        <ele>118</ele>
        <time>2020-06-06T11:52:39Z</time>
      </trkpt>
      <trkpt lat="48.36996" lon="2.54303">
        <ele>118</ele>
        <time>2020-06-06T11:52:41Z</time>
      </trkpt>
      <trkpt lat="48.3699" lon="2.54295">
        <ele>118</ele>
        <time>2020-06-06T11:52:43Z</time>
      </trkpt>
      <trkpt lat="48.36986" lon="2.54288">
        <ele>118</ele>
        <time>2020-06-06T11:52:45Z</time>
      </trkpt>
      <trkpt lat="48.36983" lon="2.54282">
        <ele>118</ele>
        <time>2020-06-06T11:52:47Z</time>
      </trkpt>
      <trkpt lat="48.36977" lon="2.54276">
        <ele>118</ele>
        <time>2020-06-06T11:52:49Z</time>
      </trkpt>
      <trkpt lat="48.36971" lon="2.54271">
        <ele>118</ele>
        <time>2020-06-06T11:52:51Z</time>
      </trkpt>
      <trkpt lat="48.36964" lon="2.54268">
        <ele>118</ele>
        <time>2020-06-06T11:52:53Z</time>
      </trkpt>
      <trkpt lat="48.36957" lon="2.54265">
        <ele>118</ele>
        <time>2020-06-06T11:52:55Z</time>
      </trkpt>
      <trkpt lat="48.3695" lon="2.54263">
        <ele>118</ele>
        <time>2020-06-06T11:52:57Z</time>
      </trkpt>
      <trkpt lat="48.36943" lon="2.5426">
        <ele>118</ele>
        <time>2020-06-06T11:52:59Z</time>
      </trkpt>
      <trkpt lat="48.36936" lon="2.54257">
        <ele>117.8</ele>
        <time>2020-06-06T11:53:01Z</time>
      </trkpt>
      <trkpt lat="48.36928" lon="2.54254">
        <ele>117.5</ele>
        <time>2020-06-06T11:53:03Z</time>
      </trkpt>
      <trkpt lat="48.36922" lon="2.54252">
        <ele>117.3</ele>
        <time>2020-06-06T11:53:05Z</time>
      </trkpt>
      <trkpt lat="48.36914" lon="2.54249">
        <ele>117</ele>
        <time>2020-06-06T11:53:07Z</time>
      </trkpt>
      <trkpt lat="48.36907" lon="2.54246">
        <ele>117</ele>
        <time>2020-06-06T11:53:09Z</time>
      </trkpt>
      <trkpt lat="48.36899" lon="2.54243">
        <ele>117</ele>
        <time>2020-06-06T11:53:11Z</time>
      </trkpt>
      <trkpt lat="48.36892" lon="2.5424">
        <ele>117</ele>
        <time>2020-06-06T11:53:13Z</time>
      </trkpt>
      <trkpt lat="48.36886" lon="2.54238">
        <ele>117</ele>
        <time>2020-06-06T11:53:15Z</time>
      </trkpt>
      <trkpt lat="48.3688" lon="2.54237">
        <ele>117</ele>
        <time>2020-06-06T11:53:17Z</time>
      </trkpt>
      <trkpt lat="48.36872" lon="2.54236">
        <ele>117</ele>
        <time>2020-06-06T11:53:19Z</time>
      </trkpt>
      <trkpt lat="48.36866" lon="2.5423">
        <ele>117</ele>
        <time>2020-06-06T11:53:21Z</time>
      </trkpt>
      <trkpt lat="48.36863" lon="2.5422">
        <ele>117</ele>
        <time>2020-06-06T11:53:23Z</time>
      </trkpt>
      <trkpt lat="48.3686" lon="2.5421">
        <ele>117</ele>
        <time>2020-06-06T11:53:25Z</time>
      </trkpt>
      <trkpt lat="48.36859" lon="2.54202">
        <ele>117</ele>
        <time>2020-06-06T11:53:27Z</time>
      </trkpt>
      <trkpt lat="48.36857" lon="2.54191">
        <ele>117</ele>
        <time>2020-06-06T11:53:29Z</time>
      </trkpt>
      <trkpt lat="48.36856" lon="2.54177">
        <ele>117</ele>
        <time>2020-06-06T11:53:31Z</time>
      </trkpt>
      <trkpt lat="48.36854" lon="2.54167">
        <ele>117</ele>
        <time>2020-06-06T11:53:33Z</time>
      </trkpt>
      <trkpt lat="48.36852" lon="2.54155">
        <ele>117</ele>
        <time>2020-06-06T11:53:35Z</time>
      </trkpt>
      <trkpt lat="48.36849" lon="2.54144">
        <ele>117</ele>
        <time>2020-06-06T11:53:37Z</time>
      </trkpt>
      <trkpt lat="48.36848" lon="2.54134">
        <ele>116.9</ele>
        <time>2020-06-06T11:53:39Z</time>
      </trkpt>
      <trkpt lat="48.36846" lon="2.54121">
        <ele>116.7</ele>
        <time>2020-06-06T11:53:41Z</time>
      </trkpt>
      <trkpt lat="48.36843" lon="2.5411">
        <ele>116.6</ele>
        <time>2020-06-06T11:53:43Z</time>
      </trkpt>
      <trkpt lat="48.36838" lon="2.54101">
        <ele>116.5</ele>
        <time>2020-06-06T11:53:45Z</time>
      </trkpt>
      <trkpt lat="48.36834" lon="2.54094">
        <ele>116.4</ele>
        <time>2020-06-06T11:53:47Z</time>
      </trkpt>
      <trkpt lat="48.3683" lon="2.54084">
        <ele>116.1</ele>
        <time>2020-06-06T11:53:49Z</time>
      </trkpt>
      <trkpt lat="48.36827" lon="2.54073">
        <ele>116.2</ele>
        <time>2020-06-06T11:53:51Z</time>
      </trkpt>
      <trkpt lat="48.36827" lon="2.54062">
        <ele>116.2</ele>
        <time>2020-06-06T11:53:53Z</time>
      </trkpt>
      <trkpt lat="48.36825" lon="2.5405">
        <ele>116.1</ele>
        <time>2020-06-06T11:53:55Z</time>
      </trkpt>
      <trkpt lat="48.36823" lon="2.54039">
        <ele>115.8</ele>
        <time>2020-06-06T11:53:57Z</time>
      </trkpt>
      <trkpt lat="48.36822" lon="2.54031">
        <ele>115.5</ele>
        <time>2020-06-06T11:53:59Z</time>
      </trkpt>
      <trkpt lat="48.3682" lon="2.54018">
        <ele>115.5</ele>
        <time>2020-06-06T11:54:01Z</time>
      </trkpt>
      <trkpt lat="48.36817" lon="2.54007">
        <ele>115.6</ele>
        <time>2020-06-06T11:54:03Z</time>
      </trkpt>
      <trkpt lat="48.36815" lon="2.53996">
        <ele>115.6</ele>
        <time>2020-06-06T11:54:05Z</time>
      </trkpt>
      <trkpt lat="48.36812" lon="2.53983">
        <ele>115.6</ele>
        <time>2020-06-06T11:54:07Z</time>
      </trkpt>
      <trkpt lat="48.36809" lon="2.53971">
        <ele>115.8</ele>
        <time>2020-06-06T11:54:09Z</time>
      </trkpt>
      <trkpt lat="48.3681" lon="2.53959">
        <ele>115.8</ele>
        <time>2020-06-06T11:54:11Z</time>
      </trkpt>
      <trkpt lat="48.36811" lon="2.53949">
        <ele>115.8</ele>
        <time>2020-06-06T11:54:13Z</time>
      </trkpt>
      <trkpt lat="48.36811" lon="2.5394">
        <ele>115.8</ele>
        <time>2020-06-06T11:54:15Z</time>
      </trkpt>
      <trkpt lat="48.36812" lon="2.53928">
        <ele>115.8</ele>
        <time>2020-06-06T11:54:17Z</time>
      </trkpt>
      <trkpt lat="48.36814" lon="2.53916">
        <ele>115.7</ele>
        <time>2020-06-06T11:54:19Z</time>
      </trkpt>
      <trkpt lat="48.36816" lon="2.53904">
        <ele>115.6</ele>
        <time>2020-06-06T11:54:21Z</time>
      </trkpt>
      <trkpt lat="48.36819" lon="2.53892">
        <ele>115.5</ele>
        <time>2020-06-06T11:54:23Z</time>
      </trkpt>
      <trkpt lat="48.36822" lon="2.53878">
        <ele>115.2</ele>
        <time>2020-06-06T11:54:25Z</time>
      </trkpt>
      <trkpt lat="48.36825" lon="2.53863">
        <ele>115</ele>
        <time>2020-06-06T11:54:27Z</time>
      </trkpt>
      <trkpt lat="48.36829" lon="2.53848">
        <ele>114.1</ele>
        <time>2020-06-06T11:54:29Z</time>
      </trkpt>
      <trkpt lat="48.36833" lon="2.53832">
        <ele>112.9</ele>
        <time>2020-06-06T11:54:31Z</time>
      </trkpt>
      <trkpt lat="48.36836" lon="2.53812">
        <ele>111.6</ele>
        <time>2020-06-06T11:54:33Z</time>
      </trkpt>
      <trkpt lat="48.3684" lon="2.53791">
        <ele>110.2</ele>
        <time>2020-06-06T11:54:35Z</time>
      </trkpt>
      <trkpt lat="48.36842" lon="2.53768">
        <ele>109.1</ele>
        <time>2020-06-06T11:54:37Z</time>
      </trkpt>
      <trkpt lat="48.36841" lon="2.53743">
        <ele>108.4</ele>
        <time>2020-06-06T11:54:39Z</time>
      </trkpt>
      <trkpt lat="48.36847" lon="2.53721">
        <ele>107</ele>
        <time>2020-06-06T11:54:41Z</time>
      </trkpt>
      <trkpt lat="48.36857" lon="2.537">
        <ele>105.1</ele>
        <time>2020-06-06T11:54:43Z</time>
      </trkpt>
      <trkpt lat="48.36867" lon="2.53684">
        <ele>103.8</ele>
        <time>2020-06-06T11:54:45Z</time>
      </trkpt>
      <trkpt lat="48.36874" lon="2.53662">
        <ele>102.4</ele>
        <time>2020-06-06T11:54:47Z</time>
      </trkpt>
      <trkpt lat="48.36877" lon="2.5364">
        <ele>100.1</ele>
        <time>2020-06-06T11:54:49Z</time>
      </trkpt>
      <trkpt lat="48.36875" lon="2.53615">
        <ele>97.4</ele>
        <time>2020-06-06T11:54:51Z</time>
      </trkpt>
      <trkpt lat="48.36872" lon="2.53595">
        <ele>95</ele>
        <time>2020-06-06T11:54:53Z</time>
      </trkpt>
      <trkpt lat="48.36872" lon="2.53578">
        <ele>92.9</ele>
        <time>2020-06-06T11:54:55Z</time>
      </trkpt>
      <trkpt lat="48.36874" lon="2.53566">
        <ele>91.1</ele>
        <time>2020-06-06T11:54:57Z</time>
      </trkpt>
      <trkpt lat="48.36876" lon="2.53552">
        <ele>88.9</ele>
        <time>2020-06-06T11:54:59Z</time>
      </trkpt>
      <trkpt lat="48.36879" lon="2.53537">
        <ele>86.3</ele>
        <time>2020-06-06T11:55:01Z</time>
      </trkpt>
      <trkpt lat="48.36879" lon="2.53523">
        <ele>84.6</ele>
        <time>2020-06-06T11:55:03Z</time>
      </trkpt>
      <trkpt lat="48.36886" lon="2.53508">
        <ele>81.5</ele>
        <time>2020-06-06T11:55:05Z</time>
      </trkpt>
      <trkpt lat="48.36887" lon="2.53497">
        <ele>80.1</ele>
        <time>2020-06-06T11:55:07Z</time>
      </trkpt>
      <trkpt lat="48.36886" lon="2.53489">
        <ele>79.5</ele>
        <time>2020-06-06T11:55:09Z</time>
      </trkpt>
      <trkpt lat="48.36887" lon="2.53479">
        <ele>78.2</ele>
        <time>2020-06-06T11:55:11Z</time>
      </trkpt>
      <trkpt lat="48.36892" lon="2.53468">
        <ele>76.5</ele>
        <time>2020-06-06T11:55:13Z</time>
      </trkpt>
      <trkpt lat="48.36895" lon="2.53462">
        <ele>75.8</ele>
        <time>2020-06-06T11:55:17Z</time>
      </trkpt>
      <trkpt lat="48.36899" lon="2.53454">
        <ele>75</ele>
        <time>2020-06-06T11:55:21Z</time>
      </trkpt>
      <trkpt lat="48.369" lon="2.53443">
        <ele>74.1</ele>
        <time>2020-06-06T11:55:23Z</time>
      </trkpt>
      <trkpt lat="48.36899" lon="2.53428">
        <ele>73.3</ele>
        <time>2020-06-06T11:55:25Z</time>
      </trkpt>
      <trkpt lat="48.36896" lon="2.53412">
        <ele>72.6</ele>
        <time>2020-06-06T11:55:27Z</time>
      </trkpt>
      <trkpt lat="48.36892" lon="2.53397">
        <ele>72.3</ele>
        <time>2020-06-06T11:55:29Z</time>
      </trkpt>
      <trkpt lat="48.36887" lon="2.53382">
        <ele>72.2</ele>
        <time>2020-06-06T11:55:31Z</time>
      </trkpt>
      <trkpt lat="48.36884" lon="2.5337">
        <ele>72.4</ele>
        <time>2020-06-06T11:55:33Z</time>
      </trkpt>
      <trkpt lat="48.36881" lon="2.53358">
        <ele>72.5</ele>
        <time>2020-06-06T11:55:35Z</time>
      </trkpt>
      <trkpt lat="48.36876" lon="2.53346">
        <ele>72.7</ele>
        <time>2020-06-06T11:55:37Z</time>
      </trkpt>
      <trkpt lat="48.36869" lon="2.53337">
        <ele>72.8</ele>
        <time>2020-06-06T11:55:39Z</time>
      </trkpt>
      <trkpt lat="48.36866" lon="2.53328">
        <ele>72.7</ele>
        <time>2020-06-06T11:55:41Z</time>
      </trkpt>
      <trkpt lat="48.36861" lon="2.5332">
        <ele>72.5</ele>
        <time>2020-06-06T11:55:43Z</time>
      </trkpt>
      <trkpt lat="48.36859" lon="2.5331">
        <ele>72.3</ele>
        <time>2020-06-06T11:55:45Z</time>
      </trkpt>
      <trkpt lat="48.36858" lon="2.53303">
        <ele>72.2</ele>
        <time>2020-06-06T11:55:47Z</time>
      </trkpt>
      <trkpt lat="48.36854" lon="2.53291">
        <ele>72.4</ele>
        <time>2020-06-06T11:55:49Z</time>
      </trkpt>
      <trkpt lat="48.36851" lon="2.53278">
        <ele>72.4</ele>
        <time>2020-06-06T11:55:51Z</time>
      </trkpt>
      <trkpt lat="48.36848" lon="2.53265">
        <ele>72</ele>
        <time>2020-06-06T11:55:53Z</time>
      </trkpt>
      <trkpt lat="48.36844" lon="2.53251">
        <ele>71.7</ele>
        <time>2020-06-06T11:55:55Z</time>
      </trkpt>
      <trkpt lat="48.36841" lon="2.53238">
        <ele>71.4</ele>
        <time>2020-06-06T11:55:57Z</time>
      </trkpt>
      <trkpt lat="48.36838" lon="2.53227">
        <ele>71.1</ele>
        <time>2020-06-06T11:55:59Z</time>
      </trkpt>
      <trkpt lat="48.36836" lon="2.53215">
        <ele>71</ele>
        <time>2020-06-06T11:56:01Z</time>
      </trkpt>
      <trkpt lat="48.36835" lon="2.53202">
        <ele>71</ele>
        <time>2020-06-06T11:56:03Z</time>
      </trkpt>
      <trkpt lat="48.36833" lon="2.53189">
        <ele>70.8</ele>
        <time>2020-06-06T11:56:05Z</time>
      </trkpt>
      <trkpt lat="48.36832" lon="2.53178">
        <ele>70.4</ele>
        <time>2020-06-06T11:56:07Z</time>
      </trkpt>
      <trkpt lat="48.36831" lon="2.53166">
        <ele>70</ele>
        <time>2020-06-06T11:56:09Z</time>
      </trkpt>
      <trkpt lat="48.36827" lon="2.53155">
        <ele>70</ele>
        <time>2020-06-06T11:56:11Z</time>
      </trkpt>
      <trkpt lat="48.36822" lon="2.53146">
        <ele>70</ele>
        <time>2020-06-06T11:56:13Z</time>
      </trkpt>
      <trkpt lat="48.36818" lon="2.53136">
        <ele>70</ele>
        <time>2020-06-06T11:56:15Z</time>
      </trkpt>
      <trkpt lat="48.36812" lon="2.53127">
        <ele>70</ele>
        <time>2020-06-06T11:56:17Z</time>
      </trkpt>
      <trkpt lat="48.36805" lon="2.53118">
        <ele>70</ele>
        <time>2020-06-06T11:56:19Z</time>
      </trkpt>
      <trkpt lat="48.368" lon="2.53108">
        <ele>70</ele>
        <time>2020-06-06T11:56:21Z</time>
      </trkpt>
      <trkpt lat="48.36795" lon="2.53101">
        <ele>70</ele>
        <time>2020-06-06T11:56:23Z</time>
      </trkpt>
      <trkpt lat="48.36788" lon="2.53092">
        <ele>70</ele>
        <time>2020-06-06T11:56:25Z</time>
      </trkpt>
      <trkpt lat="48.36781" lon="2.53084">
        <ele>70</ele>
        <time>2020-06-06T11:56:27Z</time>
      </trkpt>
      <trkpt lat="48.36775" lon="2.53077">
        <ele>70</ele>
        <time>2020-06-06T11:56:29Z</time>
      </trkpt>
      <trkpt lat="48.36768" lon="2.53071">
        <ele>69.8</ele>
        <time>2020-06-06T11:56:31Z</time>
      </trkpt>
      <trkpt lat="48.36762" lon="2.53063">
        <ele>69.6</ele>
        <time>2020-06-06T11:56:33Z</time>
      </trkpt>
      <trkpt lat="48.36757" lon="2.53057">
        <ele>69.3</ele>
        <time>2020-06-06T11:56:35Z</time>
      </trkpt>
      <trkpt lat="48.3675" lon="2.5305">
        <ele>69</ele>
        <time>2020-06-06T11:56:37Z</time>
      </trkpt>
      <trkpt lat="48.36745" lon="2.53042">
        <ele>69</ele>
        <time>2020-06-06T11:56:39Z</time>
      </trkpt>
      <trkpt lat="48.36738" lon="2.53037">
        <ele>69</ele>
        <time>2020-06-06T11:56:41Z</time>
      </trkpt>
      <trkpt lat="48.36737" lon="2.53046">
        <ele>69</ele>
        <time>2020-06-06T11:56:43Z</time>
      </trkpt>
      <trkpt lat="48.36735" lon="2.53055">
        <ele>69</ele>
        <time>2020-06-06T11:56:45Z</time>
      </trkpt>
      <trkpt lat="48.36733" lon="2.53062">
        <ele>69.1</ele>
        <time>2020-06-06T11:56:47Z</time>
      </trkpt>
      <trkpt lat="48.36731" lon="2.53071">
        <ele>69.2</ele>
        <time>2020-06-06T11:56:49Z</time>
      </trkpt>
      <trkpt lat="48.36731" lon="2.53081">
        <ele>69.3</ele>
        <time>2020-06-06T11:56:51Z</time>
      </trkpt>
      <trkpt lat="48.36728" lon="2.53093">
        <ele>69.5</ele>
        <time>2020-06-06T11:56:53Z</time>
      </trkpt>
      <trkpt lat="48.36725" lon="2.53103">
        <ele>69.7</ele>
        <time>2020-06-06T11:56:55Z</time>
      </trkpt>
      <trkpt lat="48.36722" lon="2.53112">
        <ele>70</ele>
        <time>2020-06-06T11:56:57Z</time>
      </trkpt>
      <trkpt lat="48.3672" lon="2.53122">
        <ele>70.4</ele>
        <time>2020-06-06T11:56:59Z</time>
      </trkpt>
      <trkpt lat="48.36714" lon="2.53132">
        <ele>70.8</ele>
        <time>2020-06-06T11:57:01Z</time>
      </trkpt>
      <trkpt lat="48.36708" lon="2.53136">
        <ele>70.9</ele>
        <time>2020-06-06T11:57:03Z</time>
      </trkpt>
      <trkpt lat="48.36702" lon="2.53142">
        <ele>71</ele>
        <time>2020-06-06T11:57:05Z</time>
      </trkpt>
      <trkpt lat="48.36698" lon="2.53148">
        <ele>71</ele>
        <time>2020-06-06T11:57:07Z</time>
      </trkpt>
      <trkpt lat="48.36694" lon="2.53155">
        <ele>71</ele>
        <time>2020-06-06T11:57:09Z</time>
      </trkpt>
      <trkpt lat="48.3669" lon="2.53162">
        <ele>71</ele>
        <time>2020-06-06T11:57:11Z</time>
      </trkpt>
      <trkpt lat="48.36688" lon="2.53167">
        <ele>71</ele>
        <time>2020-06-06T11:57:13Z</time>
      </trkpt>
      <trkpt lat="48.36684" lon="2.53176">
        <ele>71.3</ele>
        <time>2020-06-06T11:57:15Z</time>
      </trkpt>
      <trkpt lat="48.3668" lon="2.53184">
        <ele>71.6</ele>
        <time>2020-06-06T11:57:17Z</time>
      </trkpt>
      <trkpt lat="48.36678" lon="2.53191">
        <ele>71.9</ele>
        <time>2020-06-06T11:57:19Z</time>
      </trkpt>
      <trkpt lat="48.36677" lon="2.532">
        <ele>72.2</ele>
        <time>2020-06-06T11:57:21Z</time>
      </trkpt>
      <trkpt lat="48.36678" lon="2.53207">
        <ele>72.5</ele>
        <time>2020-06-06T11:57:23Z</time>
      </trkpt>
      <trkpt lat="48.36679" lon="2.53214">
        <ele>72.7</ele>
        <time>2020-06-06T11:57:25Z</time>
      </trkpt>
      <trkpt lat="48.36679" lon="2.53223">
        <ele>73</ele>
        <time>2020-06-06T11:57:27Z</time>
      </trkpt>
      <trkpt lat="48.36678" lon="2.53231">
        <ele>73.1</ele>
        <time>2020-06-06T11:57:29Z</time>
      </trkpt>
      <trkpt lat="48.36679" lon="2.5324">
        <ele>73.3</ele>
        <time>2020-06-06T11:57:31Z</time>
      </trkpt>
      <trkpt lat="48.36679" lon="2.53249">
        <ele>73.4</ele>
        <time>2020-06-06T11:57:33Z</time>
      </trkpt>
      <trkpt lat="48.36681" lon="2.5326">
        <ele>73.9</ele>
        <time>2020-06-06T11:57:37Z</time>
      </trkpt>
      <trkpt lat="48.36677" lon="2.53268">
        <ele>74</ele>
        <time>2020-06-06T11:57:39Z</time>
      </trkpt>
      <trkpt lat="48.36673" lon="2.53275">
        <ele>74.1</ele>
        <time>2020-06-06T11:57:41Z</time>
      </trkpt>
      <trkpt lat="48.36668" lon="2.53284">
        <ele>74.1</ele>
        <time>2020-06-06T11:57:43Z</time>
      </trkpt>
      <trkpt lat="48.36665" lon="2.53292">
        <ele>73.9</ele>
        <time>2020-06-06T11:57:45Z</time>
      </trkpt>
      <trkpt lat="48.36661" lon="2.533">
        <ele>73.8</ele>
        <time>2020-06-06T11:57:47Z</time>
      </trkpt>
      <trkpt lat="48.36658" lon="2.53308">
        <ele>73.8</ele>
        <time>2020-06-06T11:57:49Z</time>
      </trkpt>
      <trkpt lat="48.36655" lon="2.53315">
        <ele>73.9</ele>
        <time>2020-06-06T11:57:51Z</time>
      </trkpt>
      <trkpt lat="48.36653" lon="2.53325">
        <ele>74.2</ele>
        <time>2020-06-06T11:57:53Z</time>
      </trkpt>
      <trkpt lat="48.36651" lon="2.53334">
        <ele>74.4</ele>
        <time>2020-06-06T11:57:55Z</time>
      </trkpt>
      <trkpt lat="48.36649" lon="2.53343">
        <ele>74.4</ele>
        <time>2020-06-06T11:57:57Z</time>
      </trkpt>
      <trkpt lat="48.36649" lon="2.53353">
        <ele>74.4</ele>
        <time>2020-06-06T11:57:59Z</time>
      </trkpt>
      <trkpt lat="48.36647" lon="2.5336">
        <ele>74.3</ele>
        <time>2020-06-06T11:58:01Z</time>
      </trkpt>
      <trkpt lat="48.36646" lon="2.53369">
        <ele>74.5</ele>
        <time>2020-06-06T11:58:03Z</time>
      </trkpt>
      <trkpt lat="48.36644" lon="2.53377">
        <ele>74.8</ele>
        <time>2020-06-06T11:58:05Z</time>
      </trkpt>
      <trkpt lat="48.36646" lon="2.53387">
        <ele>75.2</ele>
        <time>2020-06-06T11:58:09Z</time>
      </trkpt>
      <trkpt lat="48.36648" lon="2.53401">
        <ele>76.1</ele>
        <time>2020-06-06T11:58:13Z</time>
      </trkpt>
      <trkpt lat="48.3665" lon="2.53413">
        <ele>76.8</ele>
        <time>2020-06-06T11:58:17Z</time>
      </trkpt>
      <trkpt lat="48.3665" lon="2.53425">
        <ele>77.5</ele>
        <time>2020-06-06T11:58:21Z</time>
      </trkpt>
      <trkpt lat="48.36654" lon="2.53435">
        <ele>78</ele>
        <time>2020-06-06T11:58:25Z</time>
      </trkpt>
      <trkpt lat="48.36657" lon="2.53447">
        <ele>78.5</ele>
        <time>2020-06-06T11:58:29Z</time>
      </trkpt>
      <trkpt lat="48.36658" lon="2.53454">
        <ele>78.9</ele>
        <time>2020-06-06T11:58:31Z</time>
      </trkpt>
      <trkpt lat="48.3666" lon="2.5346">
        <ele>79.1</ele>
        <time>2020-06-06T11:58:35Z</time>
      </trkpt>
      <trkpt lat="48.36663" lon="2.5347">
        <ele>79.3</ele>
        <time>2020-06-06T11:58:39Z</time>
      </trkpt>
      <trkpt lat="48.36664" lon="2.53481">
        <ele>80.6</ele>
        <time>2020-06-06T11:58:45Z</time>
      </trkpt>
      <trkpt lat="48.36664" lon="2.5349">
        <ele>81.8</ele>
        <time>2020-06-06T11:58:49Z</time>
      </trkpt>
      <trkpt lat="48.36663" lon="2.53499">
        <ele>83.3</ele>
        <time>2020-06-06T11:58:53Z</time>
      </trkpt>
      <trkpt lat="48.36661" lon="2.53507">
        <ele>84.9</ele>
        <time>2020-06-06T11:59:01Z</time>
      </trkpt>
      <trkpt lat="48.36664" lon="2.53513">
        <ele>85.7</ele>
        <time>2020-06-06T11:59:11Z</time>
      </trkpt>
      <trkpt lat="48.36663" lon="2.5352">
        <ele>87.1</ele>
        <time>2020-06-06T11:59:19Z</time>
      </trkpt>
      <trkpt lat="48.3666" lon="2.53526">
        <ele>88.6</ele>
        <time>2020-06-06T11:59:29Z</time>
      </trkpt>
      <trkpt lat="48.36656" lon="2.53531">
        <ele>90.4</ele>
        <time>2020-06-06T11:59:41Z</time>
      </trkpt>
      <trkpt lat="48.36652" lon="2.53537">
        <ele>92.6</ele>
        <time>2020-06-06T11:59:49Z</time>
      </trkpt>
      <trkpt lat="48.36651" lon="2.53545">
        <ele>94.9</ele>
        <time>2020-06-06T12:00:05Z</time>
      </trkpt>
      <trkpt lat="48.36649" lon="2.53551">
        <ele>96.7</ele>
        <time>2020-06-06T12:00:19Z</time>
      </trkpt>
      <trkpt lat="48.36648" lon="2.53558">
        <ele>98.5</ele>
        <time>2020-06-06T12:00:29Z</time>
      </trkpt>
      <trkpt lat="48.36648" lon="2.53566">
        <ele>100.1</ele>
        <time>2020-06-06T12:00:43Z</time>
      </trkpt>
      <trkpt lat="48.36648" lon="2.53573">
        <ele>101.6</ele>
        <time>2020-06-06T12:00:59Z</time>
      </trkpt>
      <trkpt lat="48.3665" lon="2.53579">
        <ele>102.7</ele>
        <time>2020-06-06T12:01:07Z</time>
      </trkpt>
      <trkpt lat="48.36648" lon="2.53587">
        <ele>104.1</ele>
        <time>2020-06-06T12:01:17Z</time>
      </trkpt>
      <trkpt lat="48.36647" lon="2.53594">
        <ele>104.8</ele>
        <time>2020-06-06T12:01:29Z</time>
      </trkpt>
      <trkpt lat="48.36645" lon="2.53602">
        <ele>105.6</ele>
        <time>2020-06-06T12:01:43Z</time>
      </trkpt>
      <trkpt lat="48.36641" lon="2.53609">
        <ele>106</ele>
        <time>2020-06-06T12:01:51Z</time>
      </trkpt>
      <trkpt lat="48.36641" lon="2.53617">
        <ele>106.2</ele>
        <time>2020-06-06T12:02:03Z</time>
      </trkpt>
      <trkpt lat="48.36638" lon="2.53622">
        <ele>105.9</ele>
        <time>2020-06-06T12:05:27Z</time>
      </trkpt>
      <trkpt lat="48.36633" lon="2.53627">
        <ele>105</ele>
        <time>2020-06-06T12:05:57Z</time>
      </trkpt>
      <trkpt lat="48.36629" lon="2.53632">
        <ele>104.1</ele>
        <time>2020-06-06T12:05:59Z</time>
      </trkpt>
      <trkpt lat="48.36628" lon="2.53639">
        <ele>103.6</ele>
        <time>2020-06-06T12:06:01Z</time>
      </trkpt>
      <trkpt lat="48.36624" lon="2.53651">
        <ele>101.9</ele>
        <time>2020-06-06T12:06:05Z</time>
      </trkpt>
      <trkpt lat="48.3662" lon="2.5366">
        <ele>100.1</ele>
        <time>2020-06-06T12:06:07Z</time>
      </trkpt>
      <trkpt lat="48.36617" lon="2.53672">
        <ele>98.3</ele>
        <time>2020-06-06T12:06:09Z</time>
      </trkpt>
      <trkpt lat="48.36609" lon="2.53685">
        <ele>95.6</ele>
        <time>2020-06-06T12:06:11Z</time>
      </trkpt>
      <trkpt lat="48.36601" lon="2.53688">
        <ele>94.9</ele>
        <time>2020-06-06T12:06:13Z</time>
      </trkpt>
      <trkpt lat="48.36597" lon="2.53694">
        <ele>94.5</ele>
        <time>2020-06-06T12:06:15Z</time>
      </trkpt>
      <trkpt lat="48.36596" lon="2.53702">
        <ele>94.6</ele>
        <time>2020-06-06T12:06:17Z</time>
      </trkpt>
      <trkpt lat="48.36597" lon="2.53709">
        <ele>94.8</ele>
        <time>2020-06-06T12:06:19Z</time>
      </trkpt>
      <trkpt lat="48.36597" lon="2.53718">
        <ele>94.9</ele>
        <time>2020-06-06T12:06:21Z</time>
      </trkpt>
      <trkpt lat="48.36596" lon="2.53726">
        <ele>95.2</ele>
        <time>2020-06-06T12:06:23Z</time>
      </trkpt>
      <trkpt lat="48.36598" lon="2.53734">
        <ele>95.1</ele>
        <time>2020-06-06T12:06:25Z</time>
      </trkpt>
      <trkpt lat="48.366" lon="2.5374">
        <ele>95.1</ele>
        <time>2020-06-06T12:06:27Z</time>
      </trkpt>
      <trkpt lat="48.36601" lon="2.53748">
        <ele>95.1</ele>
        <time>2020-06-06T12:06:29Z</time>
      </trkpt>
      <trkpt lat="48.36602" lon="2.53759">
        <ele>94.8</ele>
        <time>2020-06-06T12:06:33Z</time>
      </trkpt>
      <trkpt lat="48.36603" lon="2.53766">
        <ele>94.5</ele>
        <time>2020-06-06T12:06:35Z</time>
      </trkpt>
      <trkpt lat="48.36606" lon="2.53774">
        <ele>93.8</ele>
        <time>2020-06-06T12:06:37Z</time>
      </trkpt>
      <trkpt lat="48.36607" lon="2.53781">
        <ele>93.7</ele>
        <time>2020-06-06T12:06:39Z</time>
      </trkpt>
      <trkpt lat="48.36611" lon="2.53786">
        <ele>93.3</ele>
        <time>2020-06-06T12:06:41Z</time>
      </trkpt>
      <trkpt lat="48.36613" lon="2.53793">
        <ele>93.6</ele>
        <time>2020-06-06T12:06:43Z</time>
      </trkpt>
      <trkpt lat="48.36617" lon="2.53798">
        <ele>94</ele>
        <time>2020-06-06T12:06:45Z</time>
      </trkpt>
      <trkpt lat="48.3662" lon="2.53805">
        <ele>94.3</ele>
        <time>2020-06-06T12:06:47Z</time>
      </trkpt>
      <trkpt lat="48.36622" lon="2.53811">
        <ele>94.6</ele>
        <time>2020-06-06T12:06:49Z</time>
      </trkpt>
      <trkpt lat="48.36625" lon="2.53817">
        <ele>94.9</ele>
        <time>2020-06-06T12:06:51Z</time>
      </trkpt>
      <trkpt lat="48.36627" lon="2.53824">
        <ele>95.1</ele>
        <time>2020-06-06T12:06:53Z</time>
      </trkpt>
      <trkpt lat="48.3663" lon="2.53831">
        <ele>95.3</ele>
        <time>2020-06-06T12:06:55Z</time>
      </trkpt>
      <trkpt lat="48.36633" lon="2.53838">
        <ele>95.5</ele>
        <time>2020-06-06T12:06:57Z</time>
      </trkpt>
      <trkpt lat="48.36636" lon="2.53846">
        <ele>95.7</ele>
        <time>2020-06-06T12:06:59Z</time>
      </trkpt>
      <trkpt lat="48.36638" lon="2.53853">
        <ele>95.8</ele>
        <time>2020-06-06T12:07:01Z</time>
      </trkpt>
      <trkpt lat="48.3664" lon="2.53859">
        <ele>96.1</ele>
        <time>2020-06-06T12:07:03Z</time>
      </trkpt>
      <trkpt lat="48.36641" lon="2.53866">
        <ele>96.4</ele>
        <time>2020-06-06T12:07:05Z</time>
      </trkpt>
      <trkpt lat="48.36641" lon="2.53873">
        <ele>96.4</ele>
        <time>2020-06-06T12:07:07Z</time>
      </trkpt>
      <trkpt lat="48.36643" lon="2.53881">
        <ele>96.7</ele>
        <time>2020-06-06T12:07:09Z</time>
      </trkpt>
      <trkpt lat="48.36647" lon="2.53889">
        <ele>97.5</ele>
        <time>2020-06-06T12:07:11Z</time>
      </trkpt>
      <trkpt lat="48.36648" lon="2.53896">
        <ele>97.6</ele>
        <time>2020-06-06T12:07:13Z</time>
      </trkpt>
      <trkpt lat="48.3665" lon="2.53904">
        <ele>97.8</ele>
        <time>2020-06-06T12:07:15Z</time>
      </trkpt>
      <trkpt lat="48.36653" lon="2.53912">
        <ele>98.1</ele>
        <time>2020-06-06T12:07:17Z</time>
      </trkpt>
      <trkpt lat="48.36655" lon="2.5392">
        <ele>98.4</ele>
        <time>2020-06-06T12:07:19Z</time>
      </trkpt>
      <trkpt lat="48.36657" lon="2.53928">
        <ele>98.9</ele>
        <time>2020-06-06T12:07:21Z</time>
      </trkpt>
      <trkpt lat="48.36658" lon="2.53936">
        <ele>99.2</ele>
        <time>2020-06-06T12:07:23Z</time>
      </trkpt>
      <trkpt lat="48.3666" lon="2.53943">
        <ele>99.5</ele>
        <time>2020-06-06T12:07:25Z</time>
      </trkpt>
      <trkpt lat="48.36662" lon="2.53952">
        <ele>99.8</ele>
        <time>2020-06-06T12:07:27Z</time>
      </trkpt>
      <trkpt lat="48.36664" lon="2.53958">
        <ele>99.9</ele>
        <time>2020-06-06T12:07:29Z</time>
      </trkpt>
      <trkpt lat="48.36665" lon="2.53967">
        <ele>100</ele>
        <time>2020-06-06T12:07:31Z</time>
      </trkpt>
      <trkpt lat="48.36665" lon="2.53976">
        <ele>100</ele>
        <time>2020-06-06T12:07:33Z</time>
      </trkpt>
      <trkpt lat="48.36663" lon="2.53986">
        <ele>100.1</ele>
        <time>2020-06-06T12:07:35Z</time>
      </trkpt>
      <trkpt lat="48.3666" lon="2.53995">
        <ele>100.4</ele>
        <time>2020-06-06T12:07:37Z</time>
      </trkpt>
      <trkpt lat="48.36663" lon="2.54006">
        <ele>100.3</ele>
        <time>2020-06-06T12:07:39Z</time>
      </trkpt>
      <trkpt lat="48.36664" lon="2.54014">
        <ele>100.3</ele>
        <time>2020-06-06T12:07:41Z</time>
      </trkpt>
      <trkpt lat="48.36666" lon="2.54023">
        <ele>100.1</ele>
        <time>2020-06-06T12:07:43Z</time>
      </trkpt>
      <trkpt lat="48.36668" lon="2.54031">
        <ele>100.3</ele>
        <time>2020-06-06T12:07:45Z</time>
      </trkpt>
      <trkpt lat="48.3667" lon="2.54039">
        <ele>100.7</ele>
        <time>2020-06-06T12:07:47Z</time>
      </trkpt>
      <trkpt lat="48.36672" lon="2.54048">
        <ele>101.1</ele>
        <time>2020-06-06T12:07:49Z</time>
      </trkpt>
      <trkpt lat="48.36674" lon="2.54057">
        <ele>101.3</ele>
        <time>2020-06-06T12:07:51Z</time>
      </trkpt>
      <trkpt lat="48.36675" lon="2.54065">
        <ele>101.4</ele>
        <time>2020-06-06T12:07:53Z</time>
      </trkpt>
      <trkpt lat="48.36677" lon="2.54075">
        <ele>101.6</ele>
        <time>2020-06-06T12:07:55Z</time>
      </trkpt>
      <trkpt lat="48.3668" lon="2.54083">
        <ele>101.5</ele>
        <time>2020-06-06T12:07:57Z</time>
      </trkpt>
      <trkpt lat="48.36682" lon="2.54093">
        <ele>101.8</ele>
        <time>2020-06-06T12:07:59Z</time>
      </trkpt>
      <trkpt lat="48.36685" lon="2.54102">
        <ele>101.8</ele>
        <time>2020-06-06T12:08:01Z</time>
      </trkpt>
      <trkpt lat="48.36686" lon="2.54111">
        <ele>101.9</ele>
        <time>2020-06-06T12:08:03Z</time>
      </trkpt>
      <trkpt lat="48.36687" lon="2.5412">
        <ele>101.9</ele>
        <time>2020-06-06T12:08:05Z</time>
      </trkpt>
      <trkpt lat="48.36691" lon="2.54134">
        <ele>101.5</ele>
        <time>2020-06-06T12:08:09Z</time>
      </trkpt>
      <trkpt lat="48.36692" lon="2.54145">
        <ele>101.4</ele>
        <time>2020-06-06T12:08:13Z</time>
      </trkpt>
      <trkpt lat="48.36693" lon="2.54158">
        <ele>101.2</ele>
        <time>2020-06-06T12:08:17Z</time>
      </trkpt>
      <trkpt lat="48.36696" lon="2.54165">
        <ele>101.2</ele>
        <time>2020-06-06T12:08:19Z</time>
      </trkpt>
      <trkpt lat="48.36697" lon="2.54173">
        <ele>101.3</ele>
        <time>2020-06-06T12:08:21Z</time>
      </trkpt>
      <trkpt lat="48.367" lon="2.54185">
        <ele>101.7</ele>
        <time>2020-06-06T12:08:25Z</time>
      </trkpt>
      <trkpt lat="48.36703" lon="2.54192">
        <ele>102</ele>
        <time>2020-06-06T12:08:27Z</time>
      </trkpt>
      <trkpt lat="48.36705" lon="2.54198">
        <ele>102.3</ele>
        <time>2020-06-06T12:08:29Z</time>
      </trkpt>
      <trkpt lat="48.3671" lon="2.54206">
        <ele>102.8</ele>
        <time>2020-06-06T12:08:33Z</time>
      </trkpt>
      <trkpt lat="48.36714" lon="2.54215">
        <ele>103</ele>
        <time>2020-06-06T12:08:37Z</time>
      </trkpt>
      <trkpt lat="48.36717" lon="2.54228">
        <ele>103.1</ele>
        <time>2020-06-06T12:08:41Z</time>
      </trkpt>
      <trkpt lat="48.36717" lon="2.5424">
        <ele>103.2</ele>
        <time>2020-06-06T12:08:45Z</time>
      </trkpt>
      <trkpt lat="48.36718" lon="2.54251">
        <ele>103.4</ele>
        <time>2020-06-06T12:08:49Z</time>
      </trkpt>
      <trkpt lat="48.3672" lon="2.54262">
        <ele>103.7</ele>
        <time>2020-06-06T12:08:53Z</time>
      </trkpt>
      <trkpt lat="48.36721" lon="2.54273">
        <ele>104</ele>
        <time>2020-06-06T12:08:57Z</time>
      </trkpt>
      <trkpt lat="48.3672" lon="2.54283">
        <ele>104.5</ele>
        <time>2020-06-06T12:09:01Z</time>
      </trkpt>
      <trkpt lat="48.36719" lon="2.54294">
        <ele>105.2</ele>
        <time>2020-06-06T12:09:05Z</time>
      </trkpt>
      <trkpt lat="48.36719" lon="2.54302">
        <ele>105.5</ele>
        <time>2020-06-06T12:09:07Z</time>
      </trkpt>
      <trkpt lat="48.36719" lon="2.54313">
        <ele>106.2</ele>
        <time>2020-06-06T12:09:11Z</time>
      </trkpt>
      <trkpt lat="48.36719" lon="2.54325">
        <ele>107.1</ele>
        <time>2020-06-06T12:09:15Z</time>
      </trkpt>
      <trkpt lat="48.36718" lon="2.54337">
        <ele>108.2</ele>
        <time>2020-06-06T12:09:19Z</time>
      </trkpt>
      <trkpt lat="48.36718" lon="2.54348">
        <ele>108.9</ele>
        <time>2020-06-06T12:09:23Z</time>
      </trkpt>
      <trkpt lat="48.36717" lon="2.54357">
        <ele>109.7</ele>
        <time>2020-06-06T12:09:27Z</time>
      </trkpt>
      <trkpt lat="48.36718" lon="2.54368">
        <ele>110.4</ele>
        <time>2020-06-06T12:09:31Z</time>
      </trkpt>
      <trkpt lat="48.36718" lon="2.54378">
        <ele>111.4</ele>
        <time>2020-06-06T12:09:35Z</time>
      </trkpt>
      <trkpt lat="48.36719" lon="2.5439">
        <ele>112.4</ele>
        <time>2020-06-06T12:09:39Z</time>
      </trkpt>
      <trkpt lat="48.36716" lon="2.54395">
        <ele>113.1</ele>
        <time>2020-06-06T12:09:41Z</time>
      </trkpt>
      <trkpt lat="48.36712" lon="2.54404">
        <ele>114</ele>
        <time>2020-06-06T12:09:45Z</time>
      </trkpt>
      <trkpt lat="48.36709" lon="2.54413">
        <ele>114.8</ele>
        <time>2020-06-06T12:09:49Z</time>
      </trkpt>
      <trkpt lat="48.3671" lon="2.54422">
        <ele>114.9</ele>
        <time>2020-06-06T12:09:53Z</time>
      </trkpt>
      <trkpt lat="48.36712" lon="2.54432">
        <ele>114.7</ele>
        <time>2020-06-06T12:09:57Z</time>
      </trkpt>
      <trkpt lat="48.36712" lon="2.54442">
        <ele>114.7</ele>
        <time>2020-06-06T12:10:01Z</time>
      </trkpt>
      <trkpt lat="48.36712" lon="2.54449">
        <ele>114.8</ele>
        <time>2020-06-06T12:10:05Z</time>
      </trkpt>
      <trkpt lat="48.36711" lon="2.5446">
        <ele>115.1</ele>
        <time>2020-06-06T12:10:09Z</time>
      </trkpt>
      <trkpt lat="48.36708" lon="2.54474">
        <ele>115.5</ele>
        <time>2020-06-06T12:10:13Z</time>
      </trkpt>
      <trkpt lat="48.36708" lon="2.54481">
        <ele>115.5</ele>
        <time>2020-06-06T12:10:15Z</time>
      </trkpt>
      <trkpt lat="48.36708" lon="2.54489">
        <ele>115.5</ele>
        <time>2020-06-06T12:10:17Z</time>
      </trkpt>
      <trkpt lat="48.36707" lon="2.54497">
        <ele>115.5</ele>
        <time>2020-06-06T12:10:19Z</time>
      </trkpt>
      <trkpt lat="48.36707" lon="2.54504">
        <ele>115.5</ele>
        <time>2020-06-06T12:10:21Z</time>
      </trkpt>
      <trkpt lat="48.36706" lon="2.54512">
        <ele>115.6</ele>
        <time>2020-06-06T12:10:23Z</time>
      </trkpt>
      <trkpt lat="48.36705" lon="2.54519">
        <ele>115.6</ele>
        <time>2020-06-06T12:10:25Z</time>
      </trkpt>
      <trkpt lat="48.36701" lon="2.54526">
        <ele>115.8</ele>
        <time>2020-06-06T12:10:27Z</time>
      </trkpt>
      <trkpt lat="48.36698" lon="2.54533">
        <ele>115.9</ele>
        <time>2020-06-06T12:10:29Z</time>
      </trkpt>
      <trkpt lat="48.36697" lon="2.5454">
        <ele>115.9</ele>
        <time>2020-06-06T12:10:31Z</time>
      </trkpt>
      <trkpt lat="48.36697" lon="2.54547">
        <ele>116</ele>
        <time>2020-06-06T12:10:33Z</time>
      </trkpt>
      <trkpt lat="48.36695" lon="2.5456">
        <ele>116</ele>
        <time>2020-06-06T12:10:37Z</time>
      </trkpt>
      <trkpt lat="48.36693" lon="2.54567">
        <ele>116.1</ele>
        <time>2020-06-06T12:10:39Z</time>
      </trkpt>
      <trkpt lat="48.36693" lon="2.54582">
        <ele>116.1</ele>
        <time>2020-06-06T12:10:43Z</time>
      </trkpt>
      <trkpt lat="48.36691" lon="2.54589">
        <ele>116.3</ele>
        <time>2020-06-06T12:10:45Z</time>
      </trkpt>
      <trkpt lat="48.36691" lon="2.54596">
        <ele>116.5</ele>
        <time>2020-06-06T12:10:47Z</time>
      </trkpt>
      <trkpt lat="48.36691" lon="2.54604">
        <ele>116.8</ele>
        <time>2020-06-06T12:10:49Z</time>
      </trkpt>
      <trkpt lat="48.3669" lon="2.54617">
        <ele>117</ele>
        <time>2020-06-06T12:10:53Z</time>
      </trkpt>
      <trkpt lat="48.36689" lon="2.54624">
        <ele>117</ele>
        <time>2020-06-06T12:10:55Z</time>
      </trkpt>
      <trkpt lat="48.3669" lon="2.5463">
        <ele>117</ele>
        <time>2020-06-06T12:10:57Z</time>
      </trkpt>
      <trkpt lat="48.36689" lon="2.54638">
        <ele>117</ele>
        <time>2020-06-06T12:10:59Z</time>
      </trkpt>
      <trkpt lat="48.36689" lon="2.5465">
        <ele>117</ele>
        <time>2020-06-06T12:11:03Z</time>
      </trkpt>
      <trkpt lat="48.3669" lon="2.54663">
        <ele>117</ele>
        <time>2020-06-06T12:11:07Z</time>
      </trkpt>
      <trkpt lat="48.36687" lon="2.54671">
        <ele>117</ele>
        <time>2020-06-06T12:11:39Z</time>
      </trkpt>
      <trkpt lat="48.36683" lon="2.54679">
        <ele>117</ele>
        <time>2020-06-06T12:11:43Z</time>
      </trkpt>
      <trkpt lat="48.36679" lon="2.54682">
        <ele>117</ele>
        <time>2020-06-06T12:11:45Z</time>
      </trkpt>
      <trkpt lat="48.36674" lon="2.54681">
        <ele>117</ele>
        <time>2020-06-06T12:11:47Z</time>
      </trkpt>
      <trkpt lat="48.36664" lon="2.54678">
        <ele>117</ele>
        <time>2020-06-06T12:11:51Z</time>
      </trkpt>
      <trkpt lat="48.36659" lon="2.54676">
        <ele>117</ele>
        <time>2020-06-06T12:11:53Z</time>
      </trkpt>
      <trkpt lat="48.36653" lon="2.54671">
        <ele>117</ele>
        <time>2020-06-06T12:11:55Z</time>
      </trkpt>
      <trkpt lat="48.36644" lon="2.54675">
        <ele>117</ele>
        <time>2020-06-06T12:11:59Z</time>
      </trkpt>
      <trkpt lat="48.36639" lon="2.54678">
        <ele>117</ele>
        <time>2020-06-06T12:12:01Z</time>
      </trkpt>
      <trkpt lat="48.36635" lon="2.54683">
        <ele>117.1</ele>
        <time>2020-06-06T12:12:03Z</time>
      </trkpt>
      <trkpt lat="48.36629" lon="2.54693">
        <ele>117.4</ele>
        <time>2020-06-06T12:12:07Z</time>
      </trkpt>
      <trkpt lat="48.3662" lon="2.54697">
        <ele>117.7</ele>
        <time>2020-06-06T12:12:11Z</time>
      </trkpt>
      <trkpt lat="48.36615" lon="2.547">
        <ele>117.9</ele>
        <time>2020-06-06T12:12:13Z</time>
      </trkpt>
      <trkpt lat="48.3661" lon="2.54699">
        <ele>118</ele>
        <time>2020-06-06T12:12:15Z</time>
      </trkpt>
      <trkpt lat="48.36604" lon="2.54702">
        <ele>118</ele>
        <time>2020-06-06T12:12:17Z</time>
      </trkpt>
      <trkpt lat="48.36597" lon="2.54706">
        <ele>118</ele>
        <time>2020-06-06T12:12:19Z</time>
      </trkpt>
      <trkpt lat="48.3659" lon="2.54706">
        <ele>118</ele>
        <time>2020-06-06T12:12:21Z</time>
      </trkpt>
      <trkpt lat="48.36584" lon="2.54709">
        <ele>118</ele>
        <time>2020-06-06T12:12:23Z</time>
      </trkpt>
      <trkpt lat="48.3658" lon="2.54711">
        <ele>118</ele>
        <time>2020-06-06T12:12:25Z</time>
      </trkpt>
      <trkpt lat="48.36574" lon="2.54713">
        <ele>118</ele>
        <time>2020-06-06T12:12:27Z</time>
      </trkpt>
      <trkpt lat="48.36569" lon="2.54716">
        <ele>118</ele>
        <time>2020-06-06T12:12:29Z</time>
      </trkpt>
      <trkpt lat="48.3656" lon="2.54714">
        <ele>118</ele>
        <time>2020-06-06T12:12:33Z</time>
      </trkpt>
      <trkpt lat="48.36556" lon="2.54711">
        <ele>118</ele>
        <time>2020-06-06T12:12:35Z</time>
      </trkpt>
      <trkpt lat="48.36551" lon="2.54706">
        <ele>117.8</ele>
        <time>2020-06-06T12:12:37Z</time>
      </trkpt>
      <trkpt lat="48.36547" lon="2.547">
        <ele>117.7</ele>
        <time>2020-06-06T12:12:39Z</time>
      </trkpt>
      <trkpt lat="48.36545" lon="2.54691">
        <ele>117.6</ele>
        <time>2020-06-06T12:12:41Z</time>
      </trkpt>
      <trkpt lat="48.36542" lon="2.5468">
        <ele>117.5</ele>
        <time>2020-06-06T12:12:43Z</time>
      </trkpt>
      <trkpt lat="48.3654" lon="2.54672">
        <ele>117.4</ele>
        <time>2020-06-06T12:12:45Z</time>
      </trkpt>
      <trkpt lat="48.36536" lon="2.54664">
        <ele>117.3</ele>
        <time>2020-06-06T12:12:47Z</time>
      </trkpt>
      <trkpt lat="48.36532" lon="2.54655">
        <ele>117.2</ele>
        <time>2020-06-06T12:12:49Z</time>
      </trkpt>
      <trkpt lat="48.3653" lon="2.54646">
        <ele>117.1</ele>
        <time>2020-06-06T12:12:51Z</time>
      </trkpt>
      <trkpt lat="48.36527" lon="2.54638">
        <ele>117</ele>
        <time>2020-06-06T12:12:53Z</time>
      </trkpt>
      <trkpt lat="48.36523" lon="2.54632">
        <ele>117</ele>
        <time>2020-06-06T12:12:55Z</time>
      </trkpt>
      <trkpt lat="48.36521" lon="2.54621">
        <ele>117</ele>
        <time>2020-06-06T12:12:57Z</time>
      </trkpt>
      <trkpt lat="48.36521" lon="2.54612">
        <ele>117</ele>
        <time>2020-06-06T12:12:59Z</time>
      </trkpt>
      <trkpt lat="48.36522" lon="2.54603">
        <ele>117</ele>
        <time>2020-06-06T12:13:01Z</time>
      </trkpt>
      <trkpt lat="48.36522" lon="2.54593">
        <ele>117</ele>
        <time>2020-06-06T12:13:03Z</time>
      </trkpt>
      <trkpt lat="48.36522" lon="2.54584">
        <ele>117</ele>
        <time>2020-06-06T12:13:05Z</time>
      </trkpt>
      <trkpt lat="48.36522" lon="2.54575">
        <ele>117</ele>
        <time>2020-06-06T12:13:07Z</time>
      </trkpt>
      <trkpt lat="48.36522" lon="2.54566">
        <ele>117</ele>
        <time>2020-06-06T12:13:09Z</time>
      </trkpt>
      <trkpt lat="48.36522" lon="2.54556">
        <ele>117</ele>
        <time>2020-06-06T12:13:11Z</time>
      </trkpt>
      <trkpt lat="48.3652" lon="2.54546">
        <ele>117.2</ele>
        <time>2020-06-06T12:13:13Z</time>
      </trkpt>
      <trkpt lat="48.36519" lon="2.54535">
        <ele>117.5</ele>
        <time>2020-06-06T12:13:15Z</time>
      </trkpt>
      <trkpt lat="48.36518" lon="2.54526">
        <ele>117.6</ele>
        <time>2020-06-06T12:13:17Z</time>
      </trkpt>
      <trkpt lat="48.36518" lon="2.54517">
        <ele>117.6</ele>
        <time>2020-06-06T12:13:19Z</time>
      </trkpt>
      <trkpt lat="48.36517" lon="2.54507">
        <ele>117.6</ele>
        <time>2020-06-06T12:13:21Z</time>
      </trkpt>
      <trkpt lat="48.36515" lon="2.54496">
        <ele>117.5</ele>
        <time>2020-06-06T12:13:23Z</time>
      </trkpt>
      <trkpt lat="48.36514" lon="2.54485">
        <ele>117.2</ele>
        <time>2020-06-06T12:13:25Z</time>
      </trkpt>
      <trkpt lat="48.36514" lon="2.54476">
        <ele>117.1</ele>
        <time>2020-06-06T12:13:27Z</time>
      </trkpt>
      <trkpt lat="48.36513" lon="2.54467">
        <ele>117</ele>
        <time>2020-06-06T12:13:29Z</time>
      </trkpt>
      <trkpt lat="48.36512" lon="2.54457">
        <ele>117</ele>
        <time>2020-06-06T12:13:31Z</time>
      </trkpt>
      <trkpt lat="48.36513" lon="2.54448">
        <ele>117</ele>
        <time>2020-06-06T12:13:33Z</time>
      </trkpt>
      <trkpt lat="48.36513" lon="2.54439">
        <ele>117</ele>
        <time>2020-06-06T12:13:35Z</time>
      </trkpt>
      <trkpt lat="48.36515" lon="2.54431">
        <ele>117</ele>
        <time>2020-06-06T12:13:37Z</time>
      </trkpt>
      <trkpt lat="48.36515" lon="2.54422">
        <ele>117</ele>
        <time>2020-06-06T12:13:39Z</time>
      </trkpt>
      <trkpt lat="48.36515" lon="2.54413">
        <ele>117</ele>
        <time>2020-06-06T12:13:41Z</time>
      </trkpt>
      <trkpt lat="48.36515" lon="2.54404">
        <ele>117</ele>
        <time>2020-06-06T12:13:43Z</time>
      </trkpt>
      <trkpt lat="48.36515" lon="2.54394">
        <ele>117</ele>
        <time>2020-06-06T12:13:45Z</time>
      </trkpt>
      <trkpt lat="48.36512" lon="2.54384">
        <ele>117</ele>
        <time>2020-06-06T12:13:47Z</time>
      </trkpt>
      <trkpt lat="48.36512" lon="2.54374">
        <ele>117</ele>
        <time>2020-06-06T12:13:49Z</time>
      </trkpt>
      <trkpt lat="48.36512" lon="2.54364">
        <ele>117</ele>
        <time>2020-06-06T12:13:51Z</time>
      </trkpt>
      <trkpt lat="48.36511" lon="2.54352">
        <ele>117</ele>
        <time>2020-06-06T12:13:53Z</time>
      </trkpt>
      <trkpt lat="48.36509" lon="2.54341">
        <ele>117</ele>
        <time>2020-06-06T12:13:55Z</time>
      </trkpt>
      <trkpt lat="48.36509" lon="2.5433">
        <ele>117</ele>
        <time>2020-06-06T12:13:57Z</time>
      </trkpt>
      <trkpt lat="48.36508" lon="2.54318">
        <ele>117</ele>
        <time>2020-06-06T12:13:59Z</time>
      </trkpt>
      <trkpt lat="48.36508" lon="2.54307">
        <ele>117</ele>
        <time>2020-06-06T12:14:01Z</time>
      </trkpt>
      <trkpt lat="48.36508" lon="2.54296">
        <ele>117</ele>
        <time>2020-06-06T12:14:03Z</time>
      </trkpt>
      <trkpt lat="48.36507" lon="2.54285">
        <ele>117</ele>
        <time>2020-06-06T12:14:05Z</time>
      </trkpt>
      <trkpt lat="48.36505" lon="2.54275">
        <ele>117</ele>
        <time>2020-06-06T12:14:07Z</time>
      </trkpt>
      <trkpt lat="48.36503" lon="2.54263">
        <ele>117</ele>
        <time>2020-06-06T12:14:09Z</time>
      </trkpt>
      <trkpt lat="48.36503" lon="2.54252">
        <ele>117</ele>
        <time>2020-06-06T12:14:11Z</time>
      </trkpt>
      <trkpt lat="48.36502" lon="2.54242">
        <ele>117</ele>
        <time>2020-06-06T12:14:13Z</time>
      </trkpt>
      <trkpt lat="48.365" lon="2.54232">
        <ele>117</ele>
        <time>2020-06-06T12:14:15Z</time>
      </trkpt>
      <trkpt lat="48.36494" lon="2.54224">
        <ele>117</ele>
        <time>2020-06-06T12:14:17Z</time>
      </trkpt>
      <trkpt lat="48.36487" lon="2.5422">
        <ele>117</ele>
        <time>2020-06-06T12:14:19Z</time>
      </trkpt>
      <trkpt lat="48.36479" lon="2.54219">
        <ele>117</ele>
        <time>2020-06-06T12:14:21Z</time>
      </trkpt>
      <trkpt lat="48.36472" lon="2.54219">
        <ele>117</ele>
        <time>2020-06-06T12:14:23Z</time>
      </trkpt>
      <trkpt lat="48.36464" lon="2.54219">
        <ele>117</ele>
        <time>2020-06-06T12:14:25Z</time>
      </trkpt>
      <trkpt lat="48.36456" lon="2.54216">
        <ele>117</ele>
        <time>2020-06-06T12:14:27Z</time>
      </trkpt>
      <trkpt lat="48.3645" lon="2.54213">
        <ele>117</ele>
        <time>2020-06-06T12:14:29Z</time>
      </trkpt>
      <trkpt lat="48.36445" lon="2.54206">
        <ele>117</ele>
        <time>2020-06-06T12:14:31Z</time>
      </trkpt>
      <trkpt lat="48.36439" lon="2.54198">
        <ele>117</ele>
        <time>2020-06-06T12:14:33Z</time>
      </trkpt>
      <trkpt lat="48.36437" lon="2.54185">
        <ele>117</ele>
        <time>2020-06-06T12:14:35Z</time>
      </trkpt>
      <trkpt lat="48.36434" lon="2.54173">
        <ele>117</ele>
        <time>2020-06-06T12:14:37Z</time>
      </trkpt>
      <trkpt lat="48.36431" lon="2.54161">
        <ele>117</ele>
        <time>2020-06-06T12:14:39Z</time>
      </trkpt>
      <trkpt lat="48.3643" lon="2.5415">
        <ele>117</ele>
        <time>2020-06-06T12:14:41Z</time>
      </trkpt>
      <trkpt lat="48.36428" lon="2.54139">
        <ele>117</ele>
        <time>2020-06-06T12:14:43Z</time>
      </trkpt>
      <trkpt lat="48.36426" lon="2.54128">
        <ele>116.9</ele>
        <time>2020-06-06T12:14:45Z</time>
      </trkpt>
      <trkpt lat="48.36425" lon="2.54117">
        <ele>116.8</ele>
        <time>2020-06-06T12:14:47Z</time>
      </trkpt>
      <trkpt lat="48.36423" lon="2.54106">
        <ele>116.8</ele>
        <time>2020-06-06T12:14:49Z</time>
      </trkpt>
      <trkpt lat="48.36421" lon="2.54095">
        <ele>116.8</ele>
        <time>2020-06-06T12:14:51Z</time>
      </trkpt>
      <trkpt lat="48.36419" lon="2.54085">
        <ele>116.9</ele>
        <time>2020-06-06T12:14:53Z</time>
      </trkpt>
      <trkpt lat="48.36417" lon="2.54073">
        <ele>116.6</ele>
        <time>2020-06-06T12:14:55Z</time>
      </trkpt>
      <trkpt lat="48.36417" lon="2.54061">
        <ele>116.2</ele>
        <time>2020-06-06T12:14:57Z</time>
      </trkpt>
      <trkpt lat="48.36415" lon="2.5405">
        <ele>116.1</ele>
        <time>2020-06-06T12:14:59Z</time>
      </trkpt>
      <trkpt lat="48.36413" lon="2.54038">
        <ele>116.1</ele>
        <time>2020-06-06T12:15:01Z</time>
      </trkpt>
      <trkpt lat="48.36412" lon="2.54026">
        <ele>116.1</ele>
        <time>2020-06-06T12:15:03Z</time>
      </trkpt>
      <trkpt lat="48.36411" lon="2.54013">
        <ele>115.7</ele>
        <time>2020-06-06T12:15:05Z</time>
      </trkpt>
      <trkpt lat="48.36409" lon="2.54001">
        <ele>115.3</ele>
        <time>2020-06-06T12:15:07Z</time>
      </trkpt>
      <trkpt lat="48.36407" lon="2.53988">
        <ele>114.9</ele>
        <time>2020-06-06T12:15:09Z</time>
      </trkpt>
      <trkpt lat="48.36407" lon="2.53974">
        <ele>114.4</ele>
        <time>2020-06-06T12:15:11Z</time>
      </trkpt>
      <trkpt lat="48.36406" lon="2.53959">
        <ele>113.9</ele>
        <time>2020-06-06T12:15:13Z</time>
      </trkpt>
      <trkpt lat="48.36405" lon="2.53946">
        <ele>113.5</ele>
        <time>2020-06-06T12:15:15Z</time>
      </trkpt>
      <trkpt lat="48.36401" lon="2.53936">
        <ele>113.1</ele>
        <time>2020-06-06T12:15:17Z</time>
      </trkpt>
      <trkpt lat="48.36396" lon="2.5393">
        <ele>113.1</ele>
        <time>2020-06-06T12:15:19Z</time>
      </trkpt>
      <trkpt lat="48.36391" lon="2.53925">
        <ele>113.2</ele>
        <time>2020-06-06T12:15:21Z</time>
      </trkpt>
      <trkpt lat="48.36385" lon="2.53919">
        <ele>113</ele>
        <time>2020-06-06T12:15:23Z</time>
      </trkpt>
      <trkpt lat="48.36379" lon="2.53916">
        <ele>112.6</ele>
        <time>2020-06-06T12:15:25Z</time>
      </trkpt>
      <trkpt lat="48.36375" lon="2.53916">
        <ele>112.4</ele>
        <time>2020-06-06T12:15:27Z</time>
      </trkpt>
      <trkpt lat="48.36367" lon="2.53918">
        <ele>112.3</ele>
        <time>2020-06-06T12:15:29Z</time>
      </trkpt>
      <trkpt lat="48.36358" lon="2.53924">
        <ele>112.7</ele>
        <time>2020-06-06T12:15:31Z</time>
      </trkpt>
      <trkpt lat="48.36351" lon="2.53931">
        <ele>113.2</ele>
        <time>2020-06-06T12:15:33Z</time>
      </trkpt>
      <trkpt lat="48.36343" lon="2.53936">
        <ele>113.4</ele>
        <time>2020-06-06T12:15:35Z</time>
      </trkpt>
      <trkpt lat="48.36335" lon="2.53939">
        <ele>113.5</ele>
        <time>2020-06-06T12:15:37Z</time>
      </trkpt>
      <trkpt lat="48.36328" lon="2.5394">
        <ele>113.3</ele>
        <time>2020-06-06T12:15:39Z</time>
      </trkpt>
      <trkpt lat="48.36321" lon="2.53941">
        <ele>113.2</ele>
        <time>2020-06-06T12:15:41Z</time>
      </trkpt>
      <trkpt lat="48.36316" lon="2.53943">
        <ele>113.2</ele>
        <time>2020-06-06T12:15:43Z</time>
      </trkpt>
      <trkpt lat="48.36313" lon="2.53937">
        <ele>112.5</ele>
        <time>2020-06-06T12:15:47Z</time>
      </trkpt>
      <trkpt lat="48.36314" lon="2.53945">
        <ele>113.3</ele>
        <time>2020-06-06T12:18:51Z</time>
      </trkpt>
      <trkpt lat="48.36308" lon="2.53951">
        <ele>113.6</ele>
        <time>2020-06-06T12:18:59Z</time>
      </trkpt>
      <trkpt lat="48.36304" lon="2.53962">
        <ele>114.2</ele>
        <time>2020-06-06T12:19:03Z</time>
      </trkpt>
      <trkpt lat="48.36301" lon="2.53968">
        <ele>114.6</ele>
        <time>2020-06-06T12:19:05Z</time>
      </trkpt>
      <trkpt lat="48.36298" lon="2.53974">
        <ele>114.8</ele>
        <time>2020-06-06T12:19:07Z</time>
      </trkpt>
      <trkpt lat="48.36297" lon="2.53982">
        <ele>115</ele>
        <time>2020-06-06T12:19:53Z</time>
      </trkpt>
      <trkpt lat="48.36294" lon="2.53988">
        <ele>115.2</ele>
        <time>2020-06-06T12:20:23Z</time>
      </trkpt>
      <trkpt lat="48.36291" lon="2.53996">
        <ele>115.3</ele>
        <time>2020-06-06T12:20:35Z</time>
      </trkpt>
      <trkpt lat="48.36286" lon="2.54002">
        <ele>115.4</ele>
        <time>2020-06-06T12:20:45Z</time>
      </trkpt>
      <trkpt lat="48.36282" lon="2.54011">
        <ele>115.5</ele>
        <time>2020-06-06T12:20:49Z</time>
      </trkpt>
      <trkpt lat="48.3628" lon="2.54023">
        <ele>115.9</ele>
        <time>2020-06-06T12:20:53Z</time>
      </trkpt>
      <trkpt lat="48.36279" lon="2.5403">
        <ele>116</ele>
        <time>2020-06-06T12:20:55Z</time>
      </trkpt>
      <trkpt lat="48.36277" lon="2.54036">
        <ele>116</ele>
        <time>2020-06-06T12:20:57Z</time>
      </trkpt>
      <trkpt lat="48.36276" lon="2.54043">
        <ele>115.9</ele>
        <time>2020-06-06T12:20:59Z</time>
      </trkpt>
      <trkpt lat="48.36275" lon="2.54051">
        <ele>115.9</ele>
        <time>2020-06-06T12:21:01Z</time>
      </trkpt>
      <trkpt lat="48.36273" lon="2.5406">
        <ele>115.8</ele>
        <time>2020-06-06T12:21:03Z</time>
      </trkpt>
      <trkpt lat="48.36271" lon="2.5407">
        <ele>115.8</ele>
        <time>2020-06-06T12:21:05Z</time>
      </trkpt>
      <trkpt lat="48.3627" lon="2.5408">
        <ele>115.7</ele>
        <time>2020-06-06T12:21:07Z</time>
      </trkpt>
      <trkpt lat="48.36269" lon="2.54088">
        <ele>115.7</ele>
        <time>2020-06-06T12:21:09Z</time>
      </trkpt>
      <trkpt lat="48.36269" lon="2.54096">
        <ele>115.7</ele>
        <time>2020-06-06T12:21:11Z</time>
      </trkpt>
      <trkpt lat="48.36268" lon="2.5411">
        <ele>115.6</ele>
        <time>2020-06-06T12:21:15Z</time>
      </trkpt>
      <trkpt lat="48.36266" lon="2.54119">
        <ele>115.6</ele>
        <time>2020-06-06T12:21:17Z</time>
      </trkpt>
      <trkpt lat="48.36266" lon="2.54128">
        <ele>115.6</ele>
        <time>2020-06-06T12:21:19Z</time>
      </trkpt>
      <trkpt lat="48.36265" lon="2.54135">
        <ele>115.5</ele>
        <time>2020-06-06T12:21:21Z</time>
      </trkpt>
      <trkpt lat="48.36263" lon="2.54145">
        <ele>115.5</ele>
        <time>2020-06-06T12:21:23Z</time>
      </trkpt>
      <trkpt lat="48.36262" lon="2.54156">
        <ele>115.4</ele>
        <time>2020-06-06T12:21:25Z</time>
      </trkpt>
      <trkpt lat="48.3626" lon="2.54167">
        <ele>115.4</ele>
        <time>2020-06-06T12:21:27Z</time>
      </trkpt>
      <trkpt lat="48.36259" lon="2.54178">
        <ele>115.2</ele>
        <time>2020-06-06T12:21:29Z</time>
      </trkpt>
      <trkpt lat="48.36261" lon="2.54186">
        <ele>115.1</ele>
        <time>2020-06-06T12:21:31Z</time>
      </trkpt>
      <trkpt lat="48.36259" lon="2.54196">
        <ele>115</ele>
        <time>2020-06-06T12:21:33Z</time>
      </trkpt>
      <trkpt lat="48.36258" lon="2.54207">
        <ele>115</ele>
        <time>2020-06-06T12:21:35Z</time>
      </trkpt>
      <trkpt lat="48.36257" lon="2.54217">
        <ele>115</ele>
        <time>2020-06-06T12:21:37Z</time>
      </trkpt>
      <trkpt lat="48.36256" lon="2.54227">
        <ele>115</ele>
        <time>2020-06-06T12:21:39Z</time>
      </trkpt>
      <trkpt lat="48.36255" lon="2.54237">
        <ele>115</ele>
        <time>2020-06-06T12:21:41Z</time>
      </trkpt>
      <trkpt lat="48.36255" lon="2.54247">
        <ele>115</ele>
        <time>2020-06-06T12:21:43Z</time>
      </trkpt>
      <trkpt lat="48.36255" lon="2.54257">
        <ele>115</ele>
        <time>2020-06-06T12:21:45Z</time>
      </trkpt>
      <trkpt lat="48.36256" lon="2.54269">
        <ele>114.9</ele>
        <time>2020-06-06T12:21:47Z</time>
      </trkpt>
      <trkpt lat="48.36257" lon="2.5428">
        <ele>114.7</ele>
        <time>2020-06-06T12:21:49Z</time>
      </trkpt>
      <trkpt lat="48.36258" lon="2.54292">
        <ele>114.7</ele>
        <time>2020-06-06T12:21:51Z</time>
      </trkpt>
      <trkpt lat="48.36259" lon="2.54304">
        <ele>114.7</ele>
        <time>2020-06-06T12:21:53Z</time>
      </trkpt>
      <trkpt lat="48.3626" lon="2.54317">
        <ele>114.6</ele>
        <time>2020-06-06T12:21:55Z</time>
      </trkpt>
      <trkpt lat="48.36261" lon="2.5433">
        <ele>114.6</ele>
        <time>2020-06-06T12:21:57Z</time>
      </trkpt>
      <trkpt lat="48.3626" lon="2.54342">
        <ele>114.6</ele>
        <time>2020-06-06T12:21:59Z</time>
      </trkpt>
      <trkpt lat="48.36259" lon="2.54353">
        <ele>114.7</ele>
        <time>2020-06-06T12:22:01Z</time>
      </trkpt>
      <trkpt lat="48.36259" lon="2.54365">
        <ele>114.7</ele>
        <time>2020-06-06T12:22:03Z</time>
      </trkpt>
      <trkpt lat="48.36259" lon="2.5438">
        <ele>114.7</ele>
        <time>2020-06-06T12:22:05Z</time>
      </trkpt>
      <trkpt lat="48.36257" lon="2.54393">
        <ele>114.7</ele>
        <time>2020-06-06T12:22:07Z</time>
      </trkpt>
      <trkpt lat="48.36256" lon="2.54406">
        <ele>114.8</ele>
        <time>2020-06-06T12:22:09Z</time>
      </trkpt>
      <trkpt lat="48.36254" lon="2.54419">
        <ele>114.9</ele>
        <time>2020-06-06T12:22:11Z</time>
      </trkpt>
      <trkpt lat="48.36253" lon="2.54431">
        <ele>114.9</ele>
        <time>2020-06-06T12:22:13Z</time>
      </trkpt>
      <trkpt lat="48.36253" lon="2.54443">
        <ele>114.9</ele>
        <time>2020-06-06T12:22:15Z</time>
      </trkpt>
      <trkpt lat="48.36254" lon="2.54451">
        <ele>114.9</ele>
        <time>2020-06-06T12:22:17Z</time>
      </trkpt>
      <trkpt lat="48.36254" lon="2.54458">
        <ele>114.9</ele>
        <time>2020-06-06T12:22:19Z</time>
      </trkpt>
      <trkpt lat="48.36258" lon="2.54466">
        <ele>114.7</ele>
        <time>2020-06-06T12:22:21Z</time>
      </trkpt>
      <trkpt lat="48.36262" lon="2.54477">
        <ele>114.5</ele>
        <time>2020-06-06T12:22:23Z</time>
      </trkpt>
      <trkpt lat="48.36266" lon="2.54487">
        <ele>114.2</ele>
        <time>2020-06-06T12:22:25Z</time>
      </trkpt>
      <trkpt lat="48.3627" lon="2.54497">
        <ele>114</ele>
        <time>2020-06-06T12:22:27Z</time>
      </trkpt>
      <trkpt lat="48.36271" lon="2.54508">
        <ele>113.9</ele>
        <time>2020-06-06T12:22:29Z</time>
      </trkpt>
      <trkpt lat="48.36274" lon="2.5452">
        <ele>113.8</ele>
        <time>2020-06-06T12:22:31Z</time>
      </trkpt>
      <trkpt lat="48.36277" lon="2.54532">
        <ele>113.8</ele>
        <time>2020-06-06T12:22:33Z</time>
      </trkpt>
      <trkpt lat="48.36279" lon="2.54543">
        <ele>113.5</ele>
        <time>2020-06-06T12:22:35Z</time>
      </trkpt>
      <trkpt lat="48.36283" lon="2.54553">
        <ele>113.3</ele>
        <time>2020-06-06T12:22:37Z</time>
      </trkpt>
      <trkpt lat="48.36286" lon="2.54562">
        <ele>113.3</ele>
        <time>2020-06-06T12:22:39Z</time>
      </trkpt>
      <trkpt lat="48.36283" lon="2.5455">
        <ele>113.4</ele>
        <time>2020-06-06T12:22:59Z</time>
      </trkpt>
      <trkpt lat="48.3628" lon="2.5454">
        <ele>113.6</ele>
        <time>2020-06-06T12:23:01Z</time>
      </trkpt>
      <trkpt lat="48.36277" lon="2.5453">
        <ele>113.9</ele>
        <time>2020-06-06T12:23:03Z</time>
      </trkpt>
      <trkpt lat="48.36274" lon="2.54519">
        <ele>113.8</ele>
        <time>2020-06-06T12:23:05Z</time>
      </trkpt>
      <trkpt lat="48.36271" lon="2.54509">
        <ele>113.8</ele>
        <time>2020-06-06T12:23:07Z</time>
      </trkpt>
      <trkpt lat="48.36268" lon="2.54502">
        <ele>113.9</ele>
        <time>2020-06-06T12:23:09Z</time>
      </trkpt>
      <trkpt lat="48.36265" lon="2.54493">
        <ele>114.1</ele>
        <time>2020-06-06T12:23:11Z</time>
      </trkpt>
      <trkpt lat="48.36263" lon="2.54485">
        <ele>114.3</ele>
        <time>2020-06-06T12:23:13Z</time>
      </trkpt>
      <trkpt lat="48.36258" lon="2.54479">
        <ele>114.5</ele>
        <time>2020-06-06T12:23:15Z</time>
      </trkpt>
      <trkpt lat="48.36253" lon="2.54476">
        <ele>114.8</ele>
        <time>2020-06-06T12:23:17Z</time>
      </trkpt>
      <trkpt lat="48.36249" lon="2.5448">
        <ele>114.7</ele>
        <time>2020-06-06T12:23:19Z</time>
      </trkpt>
      <trkpt lat="48.36244" lon="2.54482">
        <ele>114.6</ele>
        <time>2020-06-06T12:23:21Z</time>
      </trkpt>
      <trkpt lat="48.36239" lon="2.54487">
        <ele>114.3</ele>
        <time>2020-06-06T12:23:23Z</time>
      </trkpt>
      <trkpt lat="48.36236" lon="2.54494">
        <ele>113.8</ele>
        <time>2020-06-06T12:23:25Z</time>
      </trkpt>
      <trkpt lat="48.36232" lon="2.54505">
        <ele>112.9</ele>
        <time>2020-06-06T12:23:27Z</time>
      </trkpt>
      <trkpt lat="48.36228" lon="2.54511">
        <ele>112.1</ele>
        <time>2020-06-06T12:23:29Z</time>
      </trkpt>
      <trkpt lat="48.36228" lon="2.54519">
        <ele>111.3</ele>
        <time>2020-06-06T12:23:31Z</time>
      </trkpt>
      <trkpt lat="48.36229" lon="2.54527">
        <ele>110.6</ele>
        <time>2020-06-06T12:23:33Z</time>
      </trkpt>
      <trkpt lat="48.36226" lon="2.54537">
        <ele>110.3</ele>
        <time>2020-06-06T12:23:37Z</time>
      </trkpt>
      <trkpt lat="48.36218" lon="2.54536">
        <ele>109.9</ele>
        <time>2020-06-06T12:23:41Z</time>
      </trkpt>
      <trkpt lat="48.36213" lon="2.54536">
        <ele>109.7</ele>
        <time>2020-06-06T12:23:47Z</time>
      </trkpt>
      <trkpt lat="48.3621" lon="2.54542">
        <ele>109.3</ele>
        <time>2020-06-06T12:23:53Z</time>
      </trkpt>
      <trkpt lat="48.36206" lon="2.54545">
        <ele>108.9</ele>
        <time>2020-06-06T12:24:03Z</time>
      </trkpt>
      <trkpt lat="48.36201" lon="2.54547">
        <ele>108.4</ele>
        <time>2020-06-06T12:24:29Z</time>
      </trkpt>
      <trkpt lat="48.36199" lon="2.54554">
        <ele>107.6</ele>
        <time>2020-06-06T12:25:03Z</time>
      </trkpt>
      <trkpt lat="48.36193" lon="2.54554">
        <ele>107.1</ele>
        <time>2020-06-06T12:25:17Z</time>
      </trkpt>
      <trkpt lat="48.36188" lon="2.54555">
        <ele>106.6</ele>
        <time>2020-06-06T12:25:23Z</time>
      </trkpt>
      <trkpt lat="48.36183" lon="2.54557">
        <ele>106.1</ele>
        <time>2020-06-06T12:26:39Z</time>
      </trkpt>
      <trkpt lat="48.36178" lon="2.54564">
        <ele>105</ele>
        <time>2020-06-06T12:26:43Z</time>
      </trkpt>
      <trkpt lat="48.36175" lon="2.54573">
        <ele>103.7</ele>
        <time>2020-06-06T12:26:47Z</time>
      </trkpt>
      <trkpt lat="48.36173" lon="2.54581">
        <ele>102.4</ele>
        <time>2020-06-06T12:26:49Z</time>
      </trkpt>
      <trkpt lat="48.36172" lon="2.54589">
        <ele>101.3</ele>
        <time>2020-06-06T12:26:51Z</time>
      </trkpt>
      <trkpt lat="48.36169" lon="2.54601">
        <ele>99</ele>
        <time>2020-06-06T12:26:53Z</time>
      </trkpt>
      <trkpt lat="48.36164" lon="2.54611">
        <ele>96.8</ele>
        <time>2020-06-06T12:26:55Z</time>
      </trkpt>
      <trkpt lat="48.36159" lon="2.54619">
        <ele>95.8</ele>
        <time>2020-06-06T12:26:57Z</time>
      </trkpt>
      <trkpt lat="48.36154" lon="2.54623">
        <ele>95</ele>
        <time>2020-06-06T12:27:01Z</time>
      </trkpt>
      <trkpt lat="48.3615" lon="2.54626">
        <ele>94.4</ele>
        <time>2020-06-06T12:27:13Z</time>
      </trkpt>
      <trkpt lat="48.36144" lon="2.54633">
        <ele>93.1</ele>
        <time>2020-06-06T12:27:17Z</time>
      </trkpt>
      <trkpt lat="48.36138" lon="2.54641">
        <ele>92</ele>
        <time>2020-06-06T12:27:19Z</time>
      </trkpt>
      <trkpt lat="48.3613" lon="2.54654">
        <ele>91.7</ele>
        <time>2020-06-06T12:27:21Z</time>
      </trkpt>
      <trkpt lat="48.3612" lon="2.54667">
        <ele>90.7</ele>
        <time>2020-06-06T12:27:23Z</time>
      </trkpt>
      <trkpt lat="48.36115" lon="2.54675">
        <ele>90.4</ele>
        <time>2020-06-06T12:27:25Z</time>
      </trkpt>
      <trkpt lat="48.36114" lon="2.54689">
        <ele>90.5</ele>
        <time>2020-06-06T12:27:27Z</time>
      </trkpt>
      <trkpt lat="48.36111" lon="2.54701">
        <ele>90.2</ele>
        <time>2020-06-06T12:27:29Z</time>
      </trkpt>
      <trkpt lat="48.36105" lon="2.54714">
        <ele>89.8</ele>
        <time>2020-06-06T12:27:31Z</time>
      </trkpt>
      <trkpt lat="48.36097" lon="2.54727">
        <ele>88.5</ele>
        <time>2020-06-06T12:27:33Z</time>
      </trkpt>
      <trkpt lat="48.36092" lon="2.54739">
        <ele>87.5</ele>
        <time>2020-06-06T12:27:35Z</time>
      </trkpt>
      <trkpt lat="48.36086" lon="2.5475">
        <ele>85.8</ele>
        <time>2020-06-06T12:27:37Z</time>
      </trkpt>
      <trkpt lat="48.36081" lon="2.54759">
        <ele>84.9</ele>
        <time>2020-06-06T12:27:39Z</time>
      </trkpt>
      <trkpt lat="48.36075" lon="2.54769">
        <ele>84.3</ele>
        <time>2020-06-06T12:27:41Z</time>
      </trkpt>
      <trkpt lat="48.3607" lon="2.54779">
        <ele>83.5</ele>
        <time>2020-06-06T12:27:43Z</time>
      </trkpt>
      <trkpt lat="48.36067" lon="2.54791">
        <ele>82.7</ele>
        <time>2020-06-06T12:27:45Z</time>
      </trkpt>
      <trkpt lat="48.36066" lon="2.54804">
        <ele>81.9</ele>
        <time>2020-06-06T12:27:47Z</time>
      </trkpt>
      <trkpt lat="48.36063" lon="2.54816">
        <ele>81</ele>
        <time>2020-06-06T12:27:49Z</time>
      </trkpt>
      <trkpt lat="48.36055" lon="2.54817">
        <ele>79.6</ele>
        <time>2020-06-06T12:27:51Z</time>
      </trkpt>
      <trkpt lat="48.36045" lon="2.54816">
        <ele>79.1</ele>
        <time>2020-06-06T12:27:53Z</time>
      </trkpt>
      <trkpt lat="48.36036" lon="2.54812">
        <ele>78.9</ele>
        <time>2020-06-06T12:27:55Z</time>
      </trkpt>
      <trkpt lat="48.36026" lon="2.54809">
        <ele>78.6</ele>
        <time>2020-06-06T12:27:57Z</time>
      </trkpt>
      <trkpt lat="48.36019" lon="2.54807">
        <ele>78.3</ele>
        <time>2020-06-06T12:27:59Z</time>
      </trkpt>
      <trkpt lat="48.36011" lon="2.54803">
        <ele>78.1</ele>
        <time>2020-06-06T12:28:01Z</time>
      </trkpt>
      <trkpt lat="48.36004" lon="2.548">
        <ele>78</ele>
        <time>2020-06-06T12:28:03Z</time>
      </trkpt>
      <trkpt lat="48.35994" lon="2.54794">
        <ele>78</ele>
        <time>2020-06-06T12:28:05Z</time>
      </trkpt>
      <trkpt lat="48.35987" lon="2.54789">
        <ele>77.6</ele>
        <time>2020-06-06T12:28:07Z</time>
      </trkpt>
      <trkpt lat="48.35977" lon="2.54784">
        <ele>76.5</ele>
        <time>2020-06-06T12:28:09Z</time>
      </trkpt>
      <trkpt lat="48.35969" lon="2.54779">
        <ele>75.9</ele>
        <time>2020-06-06T12:28:11Z</time>
      </trkpt>
      <trkpt lat="48.35958" lon="2.54777">
        <ele>75.5</ele>
        <time>2020-06-06T12:28:13Z</time>
      </trkpt>
      <trkpt lat="48.3595" lon="2.54773">
        <ele>75.3</ele>
        <time>2020-06-06T12:28:15Z</time>
      </trkpt>
      <trkpt lat="48.35941" lon="2.54767">
        <ele>75</ele>
        <time>2020-06-06T12:28:17Z</time>
      </trkpt>
      <trkpt lat="48.35934" lon="2.54763">
        <ele>75</ele>
        <time>2020-06-06T12:28:19Z</time>
      </trkpt>
      <trkpt lat="48.35925" lon="2.54759">
        <ele>74.8</ele>
        <time>2020-06-06T12:28:21Z</time>
      </trkpt>
      <trkpt lat="48.35918" lon="2.54752">
        <ele>74.2</ele>
        <time>2020-06-06T12:28:23Z</time>
      </trkpt>
      <trkpt lat="48.35913" lon="2.54746">
        <ele>74.1</ele>
        <time>2020-06-06T12:28:25Z</time>
      </trkpt>
      <trkpt lat="48.3591" lon="2.54737">
        <ele>74.1</ele>
        <time>2020-06-06T12:28:27Z</time>
      </trkpt>
      <trkpt lat="48.35916" lon="2.54739">
        <ele>74</ele>
        <time>2020-06-06T12:28:31Z</time>
      </trkpt>
      <trkpt lat="48.35918" lon="2.54745">
        <ele>74.1</ele>
        <time>2020-06-06T12:28:35Z</time>
      </trkpt>
      <trkpt lat="48.35915" lon="2.54752">
        <ele>74.2</ele>
        <time>2020-06-06T12:28:41Z</time>
      </trkpt>
      <trkpt lat="48.35909" lon="2.54755">
        <ele>74.7</ele>
        <time>2020-06-06T12:28:45Z</time>
      </trkpt>
      <trkpt lat="48.35901" lon="2.54752">
        <ele>74.7</ele>
        <time>2020-06-06T12:28:49Z</time>
      </trkpt>
      <trkpt lat="48.35892" lon="2.54751">
        <ele>75</ele>
        <time>2020-06-06T12:28:53Z</time>
      </trkpt>
      <trkpt lat="48.35885" lon="2.54751">
        <ele>75.2</ele>
        <time>2020-06-06T12:28:55Z</time>
      </trkpt>
      <trkpt lat="48.35881" lon="2.5475">
        <ele>75.3</ele>
        <time>2020-06-06T12:28:57Z</time>
      </trkpt>
      <trkpt lat="48.35875" lon="2.54749">
        <ele>75.4</ele>
        <time>2020-06-06T12:29:17Z</time>
      </trkpt>
      <trkpt lat="48.35869" lon="2.54748">
        <ele>75.6</ele>
        <time>2020-06-06T12:29:21Z</time>
      </trkpt>
      <trkpt lat="48.35865" lon="2.54746">
        <ele>75.6</ele>
        <time>2020-06-06T12:29:23Z</time>
      </trkpt>
      <trkpt lat="48.3586" lon="2.54747">
        <ele>75.8</ele>
        <time>2020-06-06T12:29:25Z</time>
      </trkpt>
      <trkpt lat="48.35853" lon="2.54748">
        <ele>75.9</ele>
        <time>2020-06-06T12:29:29Z</time>
      </trkpt>
      <trkpt lat="48.35848" lon="2.54748">
        <ele>75.9</ele>
        <time>2020-06-06T12:29:31Z</time>
      </trkpt>
      <trkpt lat="48.35843" lon="2.5475">
        <ele>76</ele>
        <time>2020-06-06T12:29:33Z</time>
      </trkpt>
      <trkpt lat="48.35838" lon="2.54753">
        <ele>76.2</ele>
        <time>2020-06-06T12:29:35Z</time>
      </trkpt>
      <trkpt lat="48.35833" lon="2.54756">
        <ele>76.4</ele>
        <time>2020-06-06T12:29:37Z</time>
      </trkpt>
      <trkpt lat="48.35826" lon="2.54764">
        <ele>76.9</ele>
        <time>2020-06-06T12:29:41Z</time>
      </trkpt>
      <trkpt lat="48.35824" lon="2.5477">
        <ele>77.2</ele>
        <time>2020-06-06T12:29:43Z</time>
      </trkpt>
      <trkpt lat="48.35823" lon="2.54782">
        <ele>77.8</ele>
        <time>2020-06-06T12:29:47Z</time>
      </trkpt>
      <trkpt lat="48.35824" lon="2.54789">
        <ele>78.1</ele>
        <time>2020-06-06T12:29:51Z</time>
      </trkpt>
      <trkpt lat="48.35824" lon="2.54799">
        <ele>78.4</ele>
        <time>2020-06-06T12:29:55Z</time>
      </trkpt>
      <trkpt lat="48.35824" lon="2.54808">
        <ele>78.8</ele>
        <time>2020-06-06T12:29:59Z</time>
      </trkpt>
      <trkpt lat="48.35825" lon="2.54818">
        <ele>79.6</ele>
        <time>2020-06-06T12:30:03Z</time>
      </trkpt>
      <trkpt lat="48.35826" lon="2.54827">
        <ele>80.3</ele>
        <time>2020-06-06T12:30:07Z</time>
      </trkpt>
      <trkpt lat="48.35823" lon="2.54834">
        <ele>80.7</ele>
        <time>2020-06-06T12:30:11Z</time>
      </trkpt>
      <trkpt lat="48.35824" lon="2.54842">
        <ele>81.3</ele>
        <time>2020-06-06T12:30:15Z</time>
      </trkpt>
      <trkpt lat="48.35823" lon="2.54852">
        <ele>82</ele>
        <time>2020-06-06T12:30:19Z</time>
      </trkpt>
      <trkpt lat="48.35823" lon="2.5486">
        <ele>82.5</ele>
        <time>2020-06-06T12:30:23Z</time>
      </trkpt>
      <trkpt lat="48.35822" lon="2.54869">
        <ele>83</ele>
        <time>2020-06-06T12:30:27Z</time>
      </trkpt>
      <trkpt lat="48.35824" lon="2.54879">
        <ele>83.7</ele>
        <time>2020-06-06T12:30:31Z</time>
      </trkpt>
      <trkpt lat="48.35826" lon="2.54886">
        <ele>84.3</ele>
        <time>2020-06-06T12:30:35Z</time>
      </trkpt>
      <trkpt lat="48.35823" lon="2.54892">
        <ele>84.4</ele>
        <time>2020-06-06T12:30:41Z</time>
      </trkpt>
      <trkpt lat="48.35823" lon="2.549">
        <ele>84.8</ele>
        <time>2020-06-06T12:31:13Z</time>
      </trkpt>
      <trkpt lat="48.35824" lon="2.54908">
        <ele>85.2</ele>
        <time>2020-06-06T12:31:17Z</time>
      </trkpt>
      <trkpt lat="48.35827" lon="2.54916">
        <ele>85.7</ele>
        <time>2020-06-06T12:31:21Z</time>
      </trkpt>
      <trkpt lat="48.35827" lon="2.54924">
        <ele>86.5</ele>
        <time>2020-06-06T12:31:25Z</time>
      </trkpt>
      <trkpt lat="48.35829" lon="2.54932">
        <ele>87.4</ele>
        <time>2020-06-06T12:31:29Z</time>
      </trkpt>
      <trkpt lat="48.35829" lon="2.5494">
        <ele>88.2</ele>
        <time>2020-06-06T12:31:33Z</time>
      </trkpt>
      <trkpt lat="48.35828" lon="2.5495">
        <ele>89.4</ele>
        <time>2020-06-06T12:31:39Z</time>
      </trkpt>
      <trkpt lat="48.35831" lon="2.54956">
        <ele>90.5</ele>
        <time>2020-06-06T12:31:43Z</time>
      </trkpt>
      <trkpt lat="48.35833" lon="2.54965">
        <ele>91.9</ele>
        <time>2020-06-06T12:31:47Z</time>
      </trkpt>
      <trkpt lat="48.35836" lon="2.54973">
        <ele>93.2</ele>
        <time>2020-06-06T12:31:51Z</time>
      </trkpt>
      <trkpt lat="48.3584" lon="2.54976">
        <ele>93.9</ele>
        <time>2020-06-06T12:31:57Z</time>
      </trkpt>
      <trkpt lat="48.35842" lon="2.54983">
        <ele>95.3</ele>
        <time>2020-06-06T12:32:09Z</time>
      </trkpt>
      <trkpt lat="48.35845" lon="2.54989">
        <ele>96.4</ele>
        <time>2020-06-06T12:32:25Z</time>
      </trkpt>
      <trkpt lat="48.35847" lon="2.54995">
        <ele>97.6</ele>
        <time>2020-06-06T12:32:37Z</time>
      </trkpt>
      <trkpt lat="48.3585" lon="2.55001">
        <ele>98.8</ele>
        <time>2020-06-06T12:32:49Z</time>
      </trkpt>
      <trkpt lat="48.35852" lon="2.55007">
        <ele>99.9</ele>
        <time>2020-06-06T12:33:03Z</time>
      </trkpt>
      <trkpt lat="48.35855" lon="2.55013">
        <ele>101.1</ele>
        <time>2020-06-06T12:33:19Z</time>
      </trkpt>
      <trkpt lat="48.35854" lon="2.55021">
        <ele>102.5</ele>
        <time>2020-06-06T12:33:33Z</time>
      </trkpt>
      <trkpt lat="48.35854" lon="2.55028">
        <ele>103.8</ele>
        <time>2020-06-06T12:33:47Z</time>
      </trkpt>
      <trkpt lat="48.35853" lon="2.55036">
        <ele>104.8</ele>
        <time>2020-06-06T12:33:57Z</time>
      </trkpt>
      <trkpt lat="48.35855" lon="2.55045">
        <ele>106.1</ele>
        <time>2020-06-06T12:34:05Z</time>
      </trkpt>
      <trkpt lat="48.35856" lon="2.55052">
        <ele>107.1</ele>
        <time>2020-06-06T12:34:11Z</time>
      </trkpt>
      <trkpt lat="48.35858" lon="2.5506">
        <ele>108.3</ele>
        <time>2020-06-06T12:34:17Z</time>
      </trkpt>
      <trkpt lat="48.35858" lon="2.55067">
        <ele>109</ele>
        <time>2020-06-06T12:34:23Z</time>
      </trkpt>
      <trkpt lat="48.35859" lon="2.55077">
        <ele>110.2</ele>
        <time>2020-06-06T12:34:31Z</time>
      </trkpt>
      <trkpt lat="48.35858" lon="2.55092">
        <ele>111.1</ele>
        <time>2020-06-06T12:34:35Z</time>
      </trkpt>
      <trkpt lat="48.35857" lon="2.55105">
        <ele>111.6</ele>
        <time>2020-06-06T12:34:37Z</time>
      </trkpt>
      <trkpt lat="48.35858" lon="2.55112">
        <ele>111.9</ele>
        <time>2020-06-06T12:34:39Z</time>
      </trkpt>
      <trkpt lat="48.35855" lon="2.5512">
        <ele>112.2</ele>
        <time>2020-06-06T12:34:43Z</time>
      </trkpt>
      <trkpt lat="48.35851" lon="2.55126">
        <ele>112.4</ele>
        <time>2020-06-06T12:34:49Z</time>
      </trkpt>
      <trkpt lat="48.35844" lon="2.55128">
        <ele>112.4</ele>
        <time>2020-06-06T12:34:59Z</time>
      </trkpt>
      <trkpt lat="48.35833" lon="2.55135">
        <ele>112.7</ele>
        <time>2020-06-06T12:35:03Z</time>
      </trkpt>
      <trkpt lat="48.35826" lon="2.55131">
        <ele>111.2</ele>
        <time>2020-06-06T12:35:07Z</time>
      </trkpt>
      <trkpt lat="48.35818" lon="2.55126">
        <ele>109.6</ele>
        <time>2020-06-06T12:35:11Z</time>
      </trkpt>
      <trkpt lat="48.35812" lon="2.55125">
        <ele>108.5</ele>
        <time>2020-06-06T12:35:15Z</time>
      </trkpt>
      <trkpt lat="48.3581" lon="2.55132">
        <ele>108.5</ele>
        <time>2020-06-06T12:35:35Z</time>
      </trkpt>
      <trkpt lat="48.35812" lon="2.5514">
        <ele>109.3</ele>
        <time>2020-06-06T12:35:43Z</time>
      </trkpt>
      <trkpt lat="48.3581" lon="2.55134">
        <ele>108.6</ele>
        <time>2020-06-06T12:36:15Z</time>
      </trkpt>
      <trkpt lat="48.35815" lon="2.55129">
        <ele>109.2</ele>
        <time>2020-06-06T12:36:29Z</time>
      </trkpt>
      <trkpt lat="48.3582" lon="2.55132">
        <ele>110.2</ele>
        <time>2020-06-06T12:36:35Z</time>
      </trkpt>
      <trkpt lat="48.35824" lon="2.55134">
        <ele>111</ele>
        <time>2020-06-06T12:36:41Z</time>
      </trkpt>
      <trkpt lat="48.35831" lon="2.55138">
        <ele>112.5</ele>
        <time>2020-06-06T12:36:47Z</time>
      </trkpt>
      <trkpt lat="48.35836" lon="2.55138">
        <ele>112.9</ele>
        <time>2020-06-06T12:36:55Z</time>
      </trkpt>
      <trkpt lat="48.35844" lon="2.55136">
        <ele>112.8</ele>
        <time>2020-06-06T12:37:01Z</time>
      </trkpt>
      <trkpt lat="48.35849" lon="2.55133">
        <ele>112.7</ele>
        <time>2020-06-06T12:37:05Z</time>
      </trkpt>
      <trkpt lat="48.35853" lon="2.55127">
        <ele>112.4</ele>
        <time>2020-06-06T12:37:25Z</time>
      </trkpt>
      <trkpt lat="48.35856" lon="2.5512">
        <ele>112.2</ele>
        <time>2020-06-06T12:37:27Z</time>
      </trkpt>
      <trkpt lat="48.35858" lon="2.55108">
        <ele>111.8</ele>
        <time>2020-06-06T12:37:29Z</time>
      </trkpt>
      <trkpt lat="48.35861" lon="2.55097">
        <ele>111.5</ele>
        <time>2020-06-06T12:37:31Z</time>
      </trkpt>
      <trkpt lat="48.35862" lon="2.55088">
        <ele>111.1</ele>
        <time>2020-06-06T12:37:33Z</time>
      </trkpt>
      <trkpt lat="48.35861" lon="2.5508">
        <ele>110.6</ele>
        <time>2020-06-06T12:37:35Z</time>
      </trkpt>
      <trkpt lat="48.3586" lon="2.55067">
        <ele>109.2</ele>
        <time>2020-06-06T12:37:39Z</time>
      </trkpt>
      <trkpt lat="48.3586" lon="2.55053">
        <ele>107.6</ele>
        <time>2020-06-06T12:37:43Z</time>
      </trkpt>
      <trkpt lat="48.3586" lon="2.55044">
        <ele>106.3</ele>
        <time>2020-06-06T12:37:45Z</time>
      </trkpt>
      <trkpt lat="48.35857" lon="2.55034">
        <ele>104.7</ele>
        <time>2020-06-06T12:37:49Z</time>
      </trkpt>
      <trkpt lat="48.35858" lon="2.55026">
        <ele>103.6</ele>
        <time>2020-06-06T12:37:53Z</time>
      </trkpt>
      <trkpt lat="48.35858" lon="2.55019">
        <ele>102.3</ele>
        <time>2020-06-06T12:37:57Z</time>
      </trkpt>
      <trkpt lat="48.35856" lon="2.5501">
        <ele>100.6</ele>
        <time>2020-06-06T12:38:01Z</time>
      </trkpt>
      <trkpt lat="48.3585" lon="2.54995">
        <ele>97.7</ele>
        <time>2020-06-06T12:38:05Z</time>
      </trkpt>
      <trkpt lat="48.35844" lon="2.54986">
        <ele>95.9</ele>
        <time>2020-06-06T12:38:09Z</time>
      </trkpt>
      <trkpt lat="48.3584" lon="2.54982">
        <ele>95</ele>
        <time>2020-06-06T12:38:11Z</time>
      </trkpt>
      <trkpt lat="48.35838" lon="2.54971">
        <ele>93</ele>
        <time>2020-06-06T12:38:13Z</time>
      </trkpt>
      <trkpt lat="48.35832" lon="2.54962">
        <ele>91.4</ele>
        <time>2020-06-06T12:38:15Z</time>
      </trkpt>
      <trkpt lat="48.3583" lon="2.54954">
        <ele>90.1</ele>
        <time>2020-06-06T12:38:17Z</time>
      </trkpt>
      <trkpt lat="48.35832" lon="2.54945">
        <ele>89</ele>
        <time>2020-06-06T12:38:19Z</time>
      </trkpt>
      <trkpt lat="48.35827" lon="2.54934">
        <ele>87.5</ele>
        <time>2020-06-06T12:38:21Z</time>
      </trkpt>
      <trkpt lat="48.35824" lon="2.54922">
        <ele>86.2</ele>
        <time>2020-06-06T12:38:23Z</time>
      </trkpt>
      <trkpt lat="48.35824" lon="2.54912">
        <ele>85.4</ele>
        <time>2020-06-06T12:38:25Z</time>
      </trkpt>
      <trkpt lat="48.35824" lon="2.54898">
        <ele>84.8</ele>
        <time>2020-06-06T12:38:27Z</time>
      </trkpt>
      <trkpt lat="48.35821" lon="2.54887">
        <ele>84</ele>
        <time>2020-06-06T12:38:29Z</time>
      </trkpt>
      <trkpt lat="48.35822" lon="2.54878">
        <ele>83.6</ele>
        <time>2020-06-06T12:38:31Z</time>
      </trkpt>
      <trkpt lat="48.35825" lon="2.54866">
        <ele>83</ele>
        <time>2020-06-06T12:38:33Z</time>
      </trkpt>
      <trkpt lat="48.35824" lon="2.54857">
        <ele>82.4</ele>
        <time>2020-06-06T12:38:35Z</time>
      </trkpt>
      <trkpt lat="48.35826" lon="2.54847">
        <ele>81.7</ele>
        <time>2020-06-06T12:38:39Z</time>
      </trkpt>
      <trkpt lat="48.35825" lon="2.54833">
        <ele>80.7</ele>
        <time>2020-06-06T12:38:41Z</time>
      </trkpt>
      <trkpt lat="48.35828" lon="2.54822">
        <ele>80</ele>
        <time>2020-06-06T12:38:43Z</time>
      </trkpt>
      <trkpt lat="48.35825" lon="2.54814">
        <ele>79.3</ele>
        <time>2020-06-06T12:38:45Z</time>
      </trkpt>
      <trkpt lat="48.35824" lon="2.54806">
        <ele>78.7</ele>
        <time>2020-06-06T12:38:51Z</time>
      </trkpt>
      <trkpt lat="48.35822" lon="2.54796">
        <ele>78.2</ele>
        <time>2020-06-06T12:39:27Z</time>
      </trkpt>
      <trkpt lat="48.35819" lon="2.54789">
        <ele>77.9</ele>
        <time>2020-06-06T12:39:29Z</time>
      </trkpt>
      <trkpt lat="48.35819" lon="2.5478">
        <ele>77.6</ele>
        <time>2020-06-06T12:39:31Z</time>
      </trkpt>
      <trkpt lat="48.3582" lon="2.54769">
        <ele>77</ele>
        <time>2020-06-06T12:39:35Z</time>
      </trkpt>
      <trkpt lat="48.35825" lon="2.54764">
        <ele>76.9</ele>
        <time>2020-06-06T12:39:39Z</time>
      </trkpt>
      <trkpt lat="48.3583" lon="2.54759">
        <ele>76.6</ele>
        <time>2020-06-06T12:39:41Z</time>
      </trkpt>
      <trkpt lat="48.35837" lon="2.54756">
        <ele>76.4</ele>
        <time>2020-06-06T12:39:43Z</time>
      </trkpt>
      <trkpt lat="48.35844" lon="2.54752">
        <ele>76.1</ele>
        <time>2020-06-06T12:39:45Z</time>
      </trkpt>
      <trkpt lat="48.3585" lon="2.54751">
        <ele>76.1</ele>
        <time>2020-06-06T12:39:47Z</time>
      </trkpt>
      <trkpt lat="48.35857" lon="2.5475">
        <ele>76</ele>
        <time>2020-06-06T12:39:49Z</time>
      </trkpt>
      <trkpt lat="48.35863" lon="2.54749">
        <ele>75.9</ele>
        <time>2020-06-06T12:39:51Z</time>
      </trkpt>
      <trkpt lat="48.35871" lon="2.54752">
        <ele>75.8</ele>
        <time>2020-06-06T12:39:53Z</time>
      </trkpt>
      <trkpt lat="48.35876" lon="2.54752">
        <ele>75.6</ele>
        <time>2020-06-06T12:39:55Z</time>
      </trkpt>
      <trkpt lat="48.35872" lon="2.54747">
        <ele>75.4</ele>
        <time>2020-06-06T12:40:13Z</time>
      </trkpt>
      <trkpt lat="48.35868" lon="2.54739">
        <ele>75.1</ele>
        <time>2020-06-06T12:40:17Z</time>
      </trkpt>
      <trkpt lat="48.35868" lon="2.54732">
        <ele>74.6</ele>
        <time>2020-06-06T12:40:19Z</time>
      </trkpt>
      <trkpt lat="48.35865" lon="2.54727">
        <ele>74.3</ele>
        <time>2020-06-06T12:40:21Z</time>
      </trkpt>
      <trkpt lat="48.35859" lon="2.54718">
        <ele>74.1</ele>
        <time>2020-06-06T12:40:27Z</time>
      </trkpt>
      <trkpt lat="48.35854" lon="2.54708">
        <ele>74.1</ele>
        <time>2020-06-06T12:40:31Z</time>
      </trkpt>
      <trkpt lat="48.35847" lon="2.54699">
        <ele>74.1</ele>
        <time>2020-06-06T12:40:35Z</time>
      </trkpt>
      <trkpt lat="48.35839" lon="2.54698">
        <ele>74.1</ele>
        <time>2020-06-06T12:40:39Z</time>
      </trkpt>
      <trkpt lat="48.35832" lon="2.54692">
        <ele>73.9</ele>
        <time>2020-06-06T12:40:43Z</time>
      </trkpt>
      <trkpt lat="48.35827" lon="2.54682">
        <ele>73.7</ele>
        <time>2020-06-06T12:40:47Z</time>
      </trkpt>
      <trkpt lat="48.35824" lon="2.54674">
        <ele>73.5</ele>
        <time>2020-06-06T12:40:51Z</time>
      </trkpt>
      <trkpt lat="48.35824" lon="2.54667">
        <ele>73.3</ele>
        <time>2020-06-06T12:41:19Z</time>
      </trkpt>
      <trkpt lat="48.35825" lon="2.54675">
        <ele>73.5</ele>
        <time>2020-06-06T12:41:39Z</time>
      </trkpt>
      <trkpt lat="48.35826" lon="2.54682">
        <ele>73.7</ele>
        <time>2020-06-06T12:41:43Z</time>
      </trkpt>
      <trkpt lat="48.3583" lon="2.54689">
        <ele>73.8</ele>
        <time>2020-06-06T12:41:49Z</time>
      </trkpt>
      <trkpt lat="48.35834" lon="2.54693">
        <ele>73.9</ele>
        <time>2020-06-06T12:41:55Z</time>
      </trkpt>
      <trkpt lat="48.3584" lon="2.54692">
        <ele>73.9</ele>
        <time>2020-06-06T12:42:03Z</time>
      </trkpt>
      <trkpt lat="48.35842" lon="2.54684">
        <ele>73.6</ele>
        <time>2020-06-06T12:42:11Z</time>
      </trkpt>
      <trkpt lat="48.35843" lon="2.54675">
        <ele>73.3</ele>
        <time>2020-06-06T12:42:17Z</time>
      </trkpt>
      <trkpt lat="48.35842" lon="2.54668">
        <ele>73</ele>
        <time>2020-06-06T12:42:29Z</time>
      </trkpt>
      <trkpt lat="48.35837" lon="2.54659">
        <ele>73</ele>
        <time>2020-06-06T12:42:33Z</time>
      </trkpt>
      <trkpt lat="48.35833" lon="2.5465">
        <ele>73</ele>
        <time>2020-06-06T12:42:35Z</time>
      </trkpt>
      <trkpt lat="48.35832" lon="2.54641">
        <ele>73</ele>
        <time>2020-06-06T12:42:37Z</time>
      </trkpt>
      <trkpt lat="48.3583" lon="2.5463">
        <ele>72.7</ele>
        <time>2020-06-06T12:42:39Z</time>
      </trkpt>
      <trkpt lat="48.35828" lon="2.5462">
        <ele>72.3</ele>
        <time>2020-06-06T12:42:41Z</time>
      </trkpt>
      <trkpt lat="48.35825" lon="2.54612">
        <ele>72</ele>
        <time>2020-06-06T12:42:43Z</time>
      </trkpt>
      <trkpt lat="48.35821" lon="2.54604">
        <ele>72</ele>
        <time>2020-06-06T12:42:45Z</time>
      </trkpt>
      <trkpt lat="48.35818" lon="2.54596">
        <ele>72</ele>
        <time>2020-06-06T12:42:47Z</time>
      </trkpt>
      <trkpt lat="48.35816" lon="2.54586">
        <ele>72</ele>
        <time>2020-06-06T12:42:49Z</time>
      </trkpt>
      <trkpt lat="48.35814" lon="2.54579">
        <ele>72</ele>
        <time>2020-06-06T12:42:51Z</time>
      </trkpt>
      <trkpt lat="48.35811" lon="2.54569">
        <ele>72</ele>
        <time>2020-06-06T12:42:53Z</time>
      </trkpt>
      <trkpt lat="48.35809" lon="2.5456">
        <ele>72</ele>
        <time>2020-06-06T12:42:55Z</time>
      </trkpt>
      <trkpt lat="48.35807" lon="2.54551">
        <ele>72</ele>
        <time>2020-06-06T12:42:57Z</time>
      </trkpt>
      <trkpt lat="48.35805" lon="2.54541">
        <ele>72</ele>
        <time>2020-06-06T12:42:59Z</time>
      </trkpt>
      <trkpt lat="48.35803" lon="2.54532">
        <ele>72</ele>
        <time>2020-06-06T12:43:01Z</time>
      </trkpt>
      <trkpt lat="48.35801" lon="2.54522">
        <ele>72</ele>
        <time>2020-06-06T12:43:03Z</time>
      </trkpt>
      <trkpt lat="48.358" lon="2.54513">
        <ele>72</ele>
        <time>2020-06-06T12:43:05Z</time>
      </trkpt>
      <trkpt lat="48.35798" lon="2.54506">
        <ele>72</ele>
        <time>2020-06-06T12:43:07Z</time>
      </trkpt>
      <trkpt lat="48.35792" lon="2.54502">
        <ele>72</ele>
        <time>2020-06-06T12:43:09Z</time>
      </trkpt>
      <trkpt lat="48.35787" lon="2.54499">
        <ele>72</ele>
        <time>2020-06-06T12:43:11Z</time>
      </trkpt>
      <trkpt lat="48.35781" lon="2.54497">
        <ele>72</ele>
        <time>2020-06-06T12:43:13Z</time>
      </trkpt>
      <trkpt lat="48.35775" lon="2.54495">
        <ele>72.1</ele>
        <time>2020-06-06T12:43:15Z</time>
      </trkpt>
      <trkpt lat="48.35767" lon="2.54491">
        <ele>72.3</ele>
        <time>2020-06-06T12:43:17Z</time>
      </trkpt>
      <trkpt lat="48.35761" lon="2.54486">
        <ele>72.3</ele>
        <time>2020-06-06T12:43:19Z</time>
      </trkpt>
      <trkpt lat="48.35755" lon="2.54482">
        <ele>72.3</ele>
        <time>2020-06-06T12:43:21Z</time>
      </trkpt>
      <trkpt lat="48.3575" lon="2.54477">
        <ele>72.2</ele>
        <time>2020-06-06T12:43:23Z</time>
      </trkpt>
      <trkpt lat="48.35746" lon="2.54472">
        <ele>72.1</ele>
        <time>2020-06-06T12:43:25Z</time>
      </trkpt>
      <trkpt lat="48.35741" lon="2.54468">
        <ele>72.3</ele>
        <time>2020-06-06T12:43:27Z</time>
      </trkpt>
      <trkpt lat="48.35737" lon="2.54463">
        <ele>72.5</ele>
        <time>2020-06-06T12:43:29Z</time>
      </trkpt>
      <trkpt lat="48.35733" lon="2.54459">
        <ele>72.6</ele>
        <time>2020-06-06T12:43:31Z</time>
      </trkpt>
      <trkpt lat="48.35726" lon="2.54453">
        <ele>72.9</ele>
        <time>2020-06-06T12:43:35Z</time>
      </trkpt>
      <trkpt lat="48.35721" lon="2.54451">
        <ele>73</ele>
        <time>2020-06-06T12:43:37Z</time>
      </trkpt>
      <trkpt lat="48.35714" lon="2.54443">
        <ele>73.3</ele>
        <time>2020-06-06T12:43:41Z</time>
      </trkpt>
      <trkpt lat="48.35708" lon="2.54439">
        <ele>73.5</ele>
        <time>2020-06-06T12:43:45Z</time>
      </trkpt>
      <trkpt lat="48.357" lon="2.54436">
        <ele>73.8</ele>
        <time>2020-06-06T12:43:49Z</time>
      </trkpt>
      <trkpt lat="48.35695" lon="2.54434">
        <ele>74</ele>
        <time>2020-06-06T12:43:57Z</time>
      </trkpt>
      <trkpt lat="48.3569" lon="2.54435">
        <ele>74.1</ele>
        <time>2020-06-06T12:44:13Z</time>
      </trkpt>
      <trkpt lat="48.35685" lon="2.54432">
        <ele>74.2</ele>
        <time>2020-06-06T12:44:23Z</time>
      </trkpt>
      <trkpt lat="48.35689" lon="2.54427">
        <ele>74.1</ele>
        <time>2020-06-06T12:44:45Z</time>
      </trkpt>
      <trkpt lat="48.35693" lon="2.5442">
        <ele>74</ele>
        <time>2020-06-06T12:44:47Z</time>
      </trkpt>
      <trkpt lat="48.35696" lon="2.54409">
        <ele>73.7</ele>
        <time>2020-06-06T12:44:49Z</time>
      </trkpt>
      <trkpt lat="48.35698" lon="2.54397">
        <ele>73.2</ele>
        <time>2020-06-06T12:44:51Z</time>
      </trkpt>
      <trkpt lat="48.35699" lon="2.54384">
        <ele>72.8</ele>
        <time>2020-06-06T12:44:53Z</time>
      </trkpt>
      <trkpt lat="48.35698" lon="2.54372">
        <ele>72.9</ele>
        <time>2020-06-06T12:44:55Z</time>
      </trkpt>
      <trkpt lat="48.35692" lon="2.54369">
        <ele>73.1</ele>
        <time>2020-06-06T12:44:57Z</time>
      </trkpt>
      <trkpt lat="48.35687" lon="2.54369">
        <ele>73.3</ele>
        <time>2020-06-06T12:44:59Z</time>
      </trkpt>
      <trkpt lat="48.35681" lon="2.54377">
        <ele>73.5</ele>
        <time>2020-06-06T12:45:03Z</time>
      </trkpt>
      <trkpt lat="48.3568" lon="2.54389">
        <ele>73.5</ele>
        <time>2020-06-06T12:45:07Z</time>
      </trkpt>
      <trkpt lat="48.35679" lon="2.54396">
        <ele>73.7</ele>
        <time>2020-06-06T12:45:09Z</time>
      </trkpt>
      <trkpt lat="48.35676" lon="2.5441">
        <ele>73.9</ele>
        <time>2020-06-06T12:45:13Z</time>
      </trkpt>
      <trkpt lat="48.35674" lon="2.5442">
        <ele>74.1</ele>
        <time>2020-06-06T12:45:17Z</time>
      </trkpt>
      <trkpt lat="48.35669" lon="2.5443">
        <ele>74.4</ele>
        <time>2020-06-06T12:45:21Z</time>
      </trkpt>
      <trkpt lat="48.35665" lon="2.54435">
        <ele>74.7</ele>
        <time>2020-06-06T12:45:23Z</time>
      </trkpt>
      <trkpt lat="48.35661" lon="2.54446">
        <ele>75</ele>
        <time>2020-06-06T12:45:27Z</time>
      </trkpt>
      <trkpt lat="48.35655" lon="2.54456">
        <ele>75</ele>
        <time>2020-06-06T12:45:31Z</time>
      </trkpt>
      <trkpt lat="48.35652" lon="2.54463">
        <ele>75</ele>
        <time>2020-06-06T12:45:33Z</time>
      </trkpt>
      <trkpt lat="48.35649" lon="2.54469">
        <ele>75</ele>
        <time>2020-06-06T12:45:35Z</time>
      </trkpt>
      <trkpt lat="48.35645" lon="2.54476">
        <ele>75.1</ele>
        <time>2020-06-06T12:45:37Z</time>
      </trkpt>
      <trkpt lat="48.3564" lon="2.54482">
        <ele>75.3</ele>
        <time>2020-06-06T12:45:39Z</time>
      </trkpt>
      <trkpt lat="48.35637" lon="2.54489">
        <ele>75.7</ele>
        <time>2020-06-06T12:45:41Z</time>
      </trkpt>
      <trkpt lat="48.35634" lon="2.54495">
        <ele>76</ele>
        <time>2020-06-06T12:45:43Z</time>
      </trkpt>
      <trkpt lat="48.3563" lon="2.54503">
        <ele>76.4</ele>
        <time>2020-06-06T12:45:45Z</time>
      </trkpt>
      <trkpt lat="48.35626" lon="2.5451">
        <ele>76.6</ele>
        <time>2020-06-06T12:45:47Z</time>
      </trkpt>
      <trkpt lat="48.35623" lon="2.54515">
        <ele>76.9</ele>
        <time>2020-06-06T12:45:49Z</time>
      </trkpt>
      <trkpt lat="48.3562" lon="2.54522">
        <ele>77.2</ele>
        <time>2020-06-06T12:45:51Z</time>
      </trkpt>
      <trkpt lat="48.35618" lon="2.54529">
        <ele>77.5</ele>
        <time>2020-06-06T12:45:53Z</time>
      </trkpt>
      <trkpt lat="48.35614" lon="2.54541">
        <ele>77.8</ele>
        <time>2020-06-06T12:45:57Z</time>
      </trkpt>
      <trkpt lat="48.35609" lon="2.5455">
        <ele>78.2</ele>
        <time>2020-06-06T12:46:01Z</time>
      </trkpt>
      <trkpt lat="48.35603" lon="2.54558">
        <ele>78.6</ele>
        <time>2020-06-06T12:46:05Z</time>
      </trkpt>
      <trkpt lat="48.35598" lon="2.54566">
        <ele>79.1</ele>
        <time>2020-06-06T12:46:09Z</time>
      </trkpt>
      <trkpt lat="48.35592" lon="2.54572">
        <ele>79.6</ele>
        <time>2020-06-06T12:46:13Z</time>
      </trkpt>
      <trkpt lat="48.3559" lon="2.54578">
        <ele>79.7</ele>
        <time>2020-06-06T12:46:15Z</time>
      </trkpt>
      <trkpt lat="48.35585" lon="2.54588">
        <ele>79.9</ele>
        <time>2020-06-06T12:46:19Z</time>
      </trkpt>
      <trkpt lat="48.35582" lon="2.54594">
        <ele>80.1</ele>
        <time>2020-06-06T12:46:21Z</time>
      </trkpt>
      <trkpt lat="48.35579" lon="2.54605">
        <ele>80.3</ele>
        <time>2020-06-06T12:46:25Z</time>
      </trkpt>
      <trkpt lat="48.35576" lon="2.54614">
        <ele>80.5</ele>
        <time>2020-06-06T12:46:29Z</time>
      </trkpt>
      <trkpt lat="48.35572" lon="2.54627">
        <ele>80.8</ele>
        <time>2020-06-06T12:46:33Z</time>
      </trkpt>
      <trkpt lat="48.35569" lon="2.54633">
        <ele>81</ele>
        <time>2020-06-06T12:46:35Z</time>
      </trkpt>
      <trkpt lat="48.35566" lon="2.54639">
        <ele>81.3</ele>
        <time>2020-06-06T12:46:37Z</time>
      </trkpt>
      <trkpt lat="48.35562" lon="2.5465">
        <ele>81.9</ele>
        <time>2020-06-06T12:46:41Z</time>
      </trkpt>
      <trkpt lat="48.35559" lon="2.54663">
        <ele>82.6</ele>
        <time>2020-06-06T12:46:45Z</time>
      </trkpt>
      <trkpt lat="48.35556" lon="2.54672">
        <ele>83</ele>
        <time>2020-06-06T12:46:49Z</time>
      </trkpt>
      <trkpt lat="48.35552" lon="2.54682">
        <ele>83.4</ele>
        <time>2020-06-06T12:46:53Z</time>
      </trkpt>
      <trkpt lat="48.35549" lon="2.54686">
        <ele>83.8</ele>
        <time>2020-06-06T12:46:55Z</time>
      </trkpt>
      <trkpt lat="48.35545" lon="2.54696">
        <ele>84.2</ele>
        <time>2020-06-06T12:46:59Z</time>
      </trkpt>
      <trkpt lat="48.35541" lon="2.54705">
        <ele>84.6</ele>
        <time>2020-06-06T12:47:03Z</time>
      </trkpt>
      <trkpt lat="48.35538" lon="2.54711">
        <ele>84.7</ele>
        <time>2020-06-06T12:47:05Z</time>
      </trkpt>
      <trkpt lat="48.35535" lon="2.54717">
        <ele>84.8</ele>
        <time>2020-06-06T12:47:07Z</time>
      </trkpt>
      <trkpt lat="48.35529" lon="2.54725">
        <ele>85.1</ele>
        <time>2020-06-06T12:47:11Z</time>
      </trkpt>
      <trkpt lat="48.35522" lon="2.54732">
        <ele>86</ele>
        <time>2020-06-06T12:47:15Z</time>
      </trkpt>
      <trkpt lat="48.35517" lon="2.54733">
        <ele>86.6</ele>
        <time>2020-06-06T12:47:17Z</time>
      </trkpt>
      <trkpt lat="48.35511" lon="2.54738">
        <ele>87.3</ele>
        <time>2020-06-06T12:47:21Z</time>
      </trkpt>
      <trkpt lat="48.35505" lon="2.54743">
        <ele>87.8</ele>
        <time>2020-06-06T12:47:25Z</time>
      </trkpt>
      <trkpt lat="48.35498" lon="2.5475">
        <ele>88.4</ele>
        <time>2020-06-06T12:47:29Z</time>
      </trkpt>
      <trkpt lat="48.35493" lon="2.54754">
        <ele>89.4</ele>
        <time>2020-06-06T12:47:33Z</time>
      </trkpt>
      <trkpt lat="48.35488" lon="2.54761">
        <ele>90.4</ele>
        <time>2020-06-06T12:47:37Z</time>
      </trkpt>
      <trkpt lat="48.35485" lon="2.5477">
        <ele>91</ele>
        <time>2020-06-06T12:47:43Z</time>
      </trkpt>
      <trkpt lat="48.35485" lon="2.54778">
        <ele>91.2</ele>
        <time>2020-06-06T12:47:49Z</time>
      </trkpt>
      <trkpt lat="48.35484" lon="2.54788">
        <ele>91.8</ele>
        <time>2020-06-06T12:47:55Z</time>
      </trkpt>
      <trkpt lat="48.35483" lon="2.54795">
        <ele>92.3</ele>
        <time>2020-06-06T12:47:59Z</time>
      </trkpt>
      <trkpt lat="48.35484" lon="2.54804">
        <ele>92.6</ele>
        <time>2020-06-06T12:48:03Z</time>
      </trkpt>
      <trkpt lat="48.35486" lon="2.54812">
        <ele>93.1</ele>
        <time>2020-06-06T12:48:07Z</time>
      </trkpt>
      <trkpt lat="48.35488" lon="2.54821">
        <ele>93.7</ele>
        <time>2020-06-06T12:48:11Z</time>
      </trkpt>
      <trkpt lat="48.35487" lon="2.54831">
        <ele>94.7</ele>
        <time>2020-06-06T12:48:17Z</time>
      </trkpt>
      <trkpt lat="48.35484" lon="2.54839">
        <ele>95.6</ele>
        <time>2020-06-06T12:48:21Z</time>
      </trkpt>
      <trkpt lat="48.35481" lon="2.54847">
        <ele>96.4</ele>
        <time>2020-06-06T12:48:25Z</time>
      </trkpt>
      <trkpt lat="48.35478" lon="2.54856">
        <ele>97.2</ele>
        <time>2020-06-06T12:48:29Z</time>
      </trkpt>
      <trkpt lat="48.35475" lon="2.54864">
        <ele>98</ele>
        <time>2020-06-06T12:48:33Z</time>
      </trkpt>
      <trkpt lat="48.35473" lon="2.54869">
        <ele>98.5</ele>
        <time>2020-06-06T12:48:37Z</time>
      </trkpt>
      <trkpt lat="48.35471" lon="2.54877">
        <ele>99.4</ele>
        <time>2020-06-06T12:48:43Z</time>
      </trkpt>
      <trkpt lat="48.35467" lon="2.54882">
        <ele>100.6</ele>
        <time>2020-06-06T12:48:47Z</time>
      </trkpt>
      <trkpt lat="48.35461" lon="2.54887">
        <ele>102.3</ele>
        <time>2020-06-06T12:48:53Z</time>
      </trkpt>
      <trkpt lat="48.35455" lon="2.54891">
        <ele>103.9</ele>
        <time>2020-06-06T12:48:59Z</time>
      </trkpt>
      <trkpt lat="48.35448" lon="2.5489">
        <ele>105.3</ele>
        <time>2020-06-06T12:49:05Z</time>
      </trkpt>
      <trkpt lat="48.35443" lon="2.5489">
        <ele>106.3</ele>
        <time>2020-06-06T12:49:09Z</time>
      </trkpt>
      <trkpt lat="48.35438" lon="2.54891">
        <ele>107.3</ele>
        <time>2020-06-06T12:49:13Z</time>
      </trkpt>
      <trkpt lat="48.35434" lon="2.54894">
        <ele>108.2</ele>
        <time>2020-06-06T12:49:17Z</time>
      </trkpt>
      <trkpt lat="48.3543" lon="2.54899">
        <ele>109.1</ele>
        <time>2020-06-06T12:49:21Z</time>
      </trkpt>
      <trkpt lat="48.35426" lon="2.54906">
        <ele>110.1</ele>
        <time>2020-06-06T12:49:27Z</time>
      </trkpt>
      <trkpt lat="48.35424" lon="2.54912">
        <ele>110.7</ele>
        <time>2020-06-06T12:49:39Z</time>
      </trkpt>
      <trkpt lat="48.35421" lon="2.54917">
        <ele>111.4</ele>
        <time>2020-06-06T12:50:01Z</time>
      </trkpt>
      <trkpt lat="48.35419" lon="2.5491">
        <ele>111.4</ele>
        <time>2020-06-06T12:50:13Z</time>
      </trkpt>
      <trkpt lat="48.3542" lon="2.549">
        <ele>110.8</ele>
        <time>2020-06-06T12:50:17Z</time>
      </trkpt>
      <trkpt lat="48.3542" lon="2.54887">
        <ele>110.3</ele>
        <time>2020-06-06T12:50:21Z</time>
      </trkpt>
      <trkpt lat="48.35419" lon="2.54877">
        <ele>110.1</ele>
        <time>2020-06-06T12:50:23Z</time>
      </trkpt>
      <trkpt lat="48.35418" lon="2.54868">
        <ele>110</ele>
        <time>2020-06-06T12:50:25Z</time>
      </trkpt>
      <trkpt lat="48.35418" lon="2.54854">
        <ele>109.7</ele>
        <time>2020-06-06T12:50:29Z</time>
      </trkpt>
      <trkpt lat="48.35414" lon="2.5485">
        <ele>110.3</ele>
        <time>2020-06-06T12:50:31Z</time>
      </trkpt>
      <trkpt lat="48.35415" lon="2.54837">
        <ele>110.2</ele>
        <time>2020-06-06T12:50:35Z</time>
      </trkpt>
      <trkpt lat="48.35419" lon="2.54824">
        <ele>109.1</ele>
        <time>2020-06-06T12:50:39Z</time>
      </trkpt>
      <trkpt lat="48.3542" lon="2.54815">
        <ele>108.5</ele>
        <time>2020-06-06T12:50:41Z</time>
      </trkpt>
      <trkpt lat="48.35419" lon="2.54807">
        <ele>108.5</ele>
        <time>2020-06-06T12:50:43Z</time>
      </trkpt>
      <trkpt lat="48.3542" lon="2.54799">
        <ele>107.9</ele>
        <time>2020-06-06T12:50:45Z</time>
      </trkpt>
      <trkpt lat="48.35421" lon="2.5479">
        <ele>107.3</ele>
        <time>2020-06-06T12:50:47Z</time>
      </trkpt>
      <trkpt lat="48.35422" lon="2.54781">
        <ele>106.8</ele>
        <time>2020-06-06T12:50:49Z</time>
      </trkpt>
      <trkpt lat="48.35423" lon="2.5477">
        <ele>106.1</ele>
        <time>2020-06-06T12:50:51Z</time>
      </trkpt>
      <trkpt lat="48.35424" lon="2.54758">
        <ele>105.4</ele>
        <time>2020-06-06T12:50:53Z</time>
      </trkpt>
      <trkpt lat="48.35424" lon="2.54745">
        <ele>105.3</ele>
        <time>2020-06-06T12:50:55Z</time>
      </trkpt>
      <trkpt lat="48.35424" lon="2.54736">
        <ele>105.7</ele>
        <time>2020-06-06T12:50:57Z</time>
      </trkpt>
      <trkpt lat="48.35426" lon="2.54725">
        <ele>105.5</ele>
        <time>2020-06-06T12:50:59Z</time>
      </trkpt>
      <trkpt lat="48.35428" lon="2.54716">
        <ele>105.5</ele>
        <time>2020-06-06T12:51:01Z</time>
      </trkpt>
      <trkpt lat="48.35428" lon="2.54701">
        <ele>106.2</ele>
        <time>2020-06-06T12:51:03Z</time>
      </trkpt>
      <trkpt lat="48.35429" lon="2.54687">
        <ele>107</ele>
        <time>2020-06-06T12:51:05Z</time>
      </trkpt>
      <trkpt lat="48.3543" lon="2.54675">
        <ele>107.9</ele>
        <time>2020-06-06T12:51:07Z</time>
      </trkpt>
      <trkpt lat="48.35434" lon="2.54668">
        <ele>107.8</ele>
        <time>2020-06-06T12:51:09Z</time>
      </trkpt>
      <trkpt lat="48.35436" lon="2.54662">
        <ele>107.7</ele>
        <time>2020-06-06T12:51:11Z</time>
      </trkpt>
      <trkpt lat="48.35441" lon="2.5465">
        <ele>107.2</ele>
        <time>2020-06-06T12:51:15Z</time>
      </trkpt>
      <trkpt lat="48.35441" lon="2.54642">
        <ele>107.5</ele>
        <time>2020-06-06T12:51:17Z</time>
      </trkpt>
      <trkpt lat="48.3544" lon="2.54634">
        <ele>107.9</ele>
        <time>2020-06-06T12:51:19Z</time>
      </trkpt>
      <trkpt lat="48.35439" lon="2.54621">
        <ele>108.5</ele>
        <time>2020-06-06T12:51:23Z</time>
      </trkpt>
      <trkpt lat="48.35438" lon="2.54614">
        <ele>108.8</ele>
        <time>2020-06-06T12:51:25Z</time>
      </trkpt>
      <trkpt lat="48.35441" lon="2.54607">
        <ele>108.5</ele>
        <time>2020-06-06T12:51:27Z</time>
      </trkpt>
      <trkpt lat="48.35443" lon="2.546">
        <ele>108.2</ele>
        <time>2020-06-06T12:51:29Z</time>
      </trkpt>
      <trkpt lat="48.35441" lon="2.54592">
        <ele>108.5</ele>
        <time>2020-06-06T12:51:31Z</time>
      </trkpt>
      <trkpt lat="48.35437" lon="2.54584">
        <ele>109.1</ele>
        <time>2020-06-06T12:51:35Z</time>
      </trkpt>
      <trkpt lat="48.35438" lon="2.54573">
        <ele>109.2</ele>
        <time>2020-06-06T12:51:39Z</time>
      </trkpt>
      <trkpt lat="48.35439" lon="2.54566">
        <ele>109.3</ele>
        <time>2020-06-06T12:51:41Z</time>
      </trkpt>
      <trkpt lat="48.3544" lon="2.54559">
        <ele>109.4</ele>
        <time>2020-06-06T12:51:43Z</time>
      </trkpt>
      <trkpt lat="48.35439" lon="2.54551">
        <ele>109.7</ele>
        <time>2020-06-06T12:51:45Z</time>
      </trkpt>
      <trkpt lat="48.35441" lon="2.54538">
        <ele>109.8</ele>
        <time>2020-06-06T12:51:49Z</time>
      </trkpt>
      <trkpt lat="48.35441" lon="2.5453">
        <ele>110.1</ele>
        <time>2020-06-06T12:51:51Z</time>
      </trkpt>
      <trkpt lat="48.35441" lon="2.54523">
        <ele>110</ele>
        <time>2020-06-06T12:51:53Z</time>
      </trkpt>
      <trkpt lat="48.35442" lon="2.54516">
        <ele>109.7</ele>
        <time>2020-06-06T12:51:55Z</time>
      </trkpt>
      <trkpt lat="48.35441" lon="2.54508">
        <ele>109.4</ele>
        <time>2020-06-06T12:51:57Z</time>
      </trkpt>
      <trkpt lat="48.35442" lon="2.54499">
        <ele>109</ele>
        <time>2020-06-06T12:51:59Z</time>
      </trkpt>
      <trkpt lat="48.35442" lon="2.54487">
        <ele>107.8</ele>
        <time>2020-06-06T12:52:01Z</time>
      </trkpt>
      <trkpt lat="48.35444" lon="2.54476">
        <ele>106.5</ele>
        <time>2020-06-06T12:52:03Z</time>
      </trkpt>
      <trkpt lat="48.35444" lon="2.54462">
        <ele>105.7</ele>
        <time>2020-06-06T12:52:05Z</time>
      </trkpt>
      <trkpt lat="48.35446" lon="2.54449">
        <ele>104.9</ele>
        <time>2020-06-06T12:52:07Z</time>
      </trkpt>
      <trkpt lat="48.35447" lon="2.54435">
        <ele>104.6</ele>
        <time>2020-06-06T12:52:09Z</time>
      </trkpt>
      <trkpt lat="48.3545" lon="2.54422">
        <ele>104.2</ele>
        <time>2020-06-06T12:52:11Z</time>
      </trkpt>
      <trkpt lat="48.3545" lon="2.54413">
        <ele>104.5</ele>
        <time>2020-06-06T12:52:13Z</time>
      </trkpt>
      <trkpt lat="48.3545" lon="2.54403">
        <ele>105.3</ele>
        <time>2020-06-06T12:52:15Z</time>
      </trkpt>
      <trkpt lat="48.35452" lon="2.54393">
        <ele>105.8</ele>
        <time>2020-06-06T12:52:17Z</time>
      </trkpt>
      <trkpt lat="48.35453" lon="2.54384">
        <ele>106.4</ele>
        <time>2020-06-06T12:52:19Z</time>
      </trkpt>
      <trkpt lat="48.35454" lon="2.54377">
        <ele>106.8</ele>
        <time>2020-06-06T12:52:21Z</time>
      </trkpt>
      <trkpt lat="48.35456" lon="2.54369">
        <ele>107.2</ele>
        <time>2020-06-06T12:52:23Z</time>
      </trkpt>
      <trkpt lat="48.35457" lon="2.54361">
        <ele>107.6</ele>
        <time>2020-06-06T12:52:25Z</time>
      </trkpt>
      <trkpt lat="48.35458" lon="2.54353">
        <ele>107.8</ele>
        <time>2020-06-06T12:52:27Z</time>
      </trkpt>
      <trkpt lat="48.35459" lon="2.54345">
        <ele>108</ele>
        <time>2020-06-06T12:52:29Z</time>
      </trkpt>
      <trkpt lat="48.35462" lon="2.54334">
        <ele>108.1</ele>
        <time>2020-06-06T12:52:33Z</time>
      </trkpt>
      <trkpt lat="48.35464" lon="2.54326">
        <ele>108</ele>
        <time>2020-06-06T12:52:35Z</time>
      </trkpt>
      <trkpt lat="48.35463" lon="2.54317">
        <ele>108.2</ele>
        <time>2020-06-06T12:52:37Z</time>
      </trkpt>
      <trkpt lat="48.35464" lon="2.54304">
        <ele>108.2</ele>
        <time>2020-06-06T12:52:41Z</time>
      </trkpt>
      <trkpt lat="48.35463" lon="2.54296">
        <ele>108.6</ele>
        <time>2020-06-06T12:52:43Z</time>
      </trkpt>
      <trkpt lat="48.35467" lon="2.54284">
        <ele>108.4</ele>
        <time>2020-06-06T12:52:47Z</time>
      </trkpt>
      <trkpt lat="48.3547" lon="2.54279">
        <ele>108.2</ele>
        <time>2020-06-06T12:52:49Z</time>
      </trkpt>
      <trkpt lat="48.35469" lon="2.54272">
        <ele>108.5</ele>
        <time>2020-06-06T12:52:51Z</time>
      </trkpt>
      <trkpt lat="48.35471" lon="2.54259">
        <ele>108.8</ele>
        <time>2020-06-06T12:52:55Z</time>
      </trkpt>
      <trkpt lat="48.35475" lon="2.54255">
        <ele>108.4</ele>
        <time>2020-06-06T12:52:57Z</time>
      </trkpt>
      <trkpt lat="48.3548" lon="2.54247">
        <ele>107.9</ele>
        <time>2020-06-06T12:52:59Z</time>
      </trkpt>
      <trkpt lat="48.35484" lon="2.54238">
        <ele>107.5</ele>
        <time>2020-06-06T12:53:01Z</time>
      </trkpt>
      <trkpt lat="48.35487" lon="2.5423">
        <ele>107.3</ele>
        <time>2020-06-06T12:53:03Z</time>
      </trkpt>
      <trkpt lat="48.35487" lon="2.54222">
        <ele>107.4</ele>
        <time>2020-06-06T12:53:05Z</time>
      </trkpt>
      <trkpt lat="48.35493" lon="2.54214">
        <ele>106.8</ele>
        <time>2020-06-06T12:53:09Z</time>
      </trkpt>
      <trkpt lat="48.35495" lon="2.54206">
        <ele>106.5</ele>
        <time>2020-06-06T12:53:11Z</time>
      </trkpt>
      <trkpt lat="48.35496" lon="2.54199">
        <ele>106.4</ele>
        <time>2020-06-06T12:53:13Z</time>
      </trkpt>
      <trkpt lat="48.35497" lon="2.54192">
        <ele>106.3</ele>
        <time>2020-06-06T12:53:15Z</time>
      </trkpt>
      <trkpt lat="48.35497" lon="2.54178">
        <ele>106.3</ele>
        <time>2020-06-06T12:53:19Z</time>
      </trkpt>
      <trkpt lat="48.35499" lon="2.54169">
        <ele>106.1</ele>
        <time>2020-06-06T12:53:21Z</time>
      </trkpt>
      <trkpt lat="48.35499" lon="2.5416">
        <ele>106.1</ele>
        <time>2020-06-06T12:53:23Z</time>
      </trkpt>
      <trkpt lat="48.35496" lon="2.54154">
        <ele>106.4</ele>
        <time>2020-06-06T12:53:25Z</time>
      </trkpt>
      <trkpt lat="48.35494" lon="2.54146">
        <ele>106.5</ele>
        <time>2020-06-06T12:53:27Z</time>
      </trkpt>
      <trkpt lat="48.35495" lon="2.54139">
        <ele>106.4</ele>
        <time>2020-06-06T12:53:29Z</time>
      </trkpt>
      <trkpt lat="48.35498" lon="2.54128">
        <ele>106.1</ele>
        <time>2020-06-06T12:53:33Z</time>
      </trkpt>
      <trkpt lat="48.35501" lon="2.54122">
        <ele>105.9</ele>
        <time>2020-06-06T12:53:37Z</time>
      </trkpt>
      <trkpt lat="48.35501" lon="2.54114">
        <ele>105.9</ele>
        <time>2020-06-06T12:53:39Z</time>
      </trkpt>
      <trkpt lat="48.35504" lon="2.54108">
        <ele>105.5</ele>
        <time>2020-06-06T12:53:41Z</time>
      </trkpt>
      <trkpt lat="48.35507" lon="2.54096">
        <ele>105.5</ele>
        <time>2020-06-06T12:53:43Z</time>
      </trkpt>
      <trkpt lat="48.35507" lon="2.54084">
        <ele>106</ele>
        <time>2020-06-06T12:53:45Z</time>
      </trkpt>
      <trkpt lat="48.35508" lon="2.54072">
        <ele>106.3</ele>
        <time>2020-06-06T12:53:49Z</time>
      </trkpt>
      <trkpt lat="48.35506" lon="2.54063">
        <ele>106.9</ele>
        <time>2020-06-06T12:53:53Z</time>
      </trkpt>
      <trkpt lat="48.35505" lon="2.54056">
        <ele>107.3</ele>
        <time>2020-06-06T12:53:57Z</time>
      </trkpt>
      <trkpt lat="48.35506" lon="2.54049">
        <ele>107.4</ele>
        <time>2020-06-06T12:53:59Z</time>
      </trkpt>
      <trkpt lat="48.35508" lon="2.5404">
        <ele>107.4</ele>
        <time>2020-06-06T12:54:01Z</time>
      </trkpt>
      <trkpt lat="48.35511" lon="2.54032">
        <ele>107.3</ele>
        <time>2020-06-06T12:54:03Z</time>
      </trkpt>
      <trkpt lat="48.35514" lon="2.54023">
        <ele>107.1</ele>
        <time>2020-06-06T12:54:05Z</time>
      </trkpt>
      <trkpt lat="48.35516" lon="2.54012">
        <ele>107</ele>
        <time>2020-06-06T12:54:07Z</time>
      </trkpt>
      <trkpt lat="48.35516" lon="2.54">
        <ele>107.3</ele>
        <time>2020-06-06T12:54:09Z</time>
      </trkpt>
      <trkpt lat="48.35516" lon="2.5399">
        <ele>107.4</ele>
        <time>2020-06-06T12:54:11Z</time>
      </trkpt>
      <trkpt lat="48.35518" lon="2.53981">
        <ele>107.3</ele>
        <time>2020-06-06T12:54:13Z</time>
      </trkpt>
      <trkpt lat="48.3552" lon="2.53971">
        <ele>107.2</ele>
        <time>2020-06-06T12:54:15Z</time>
      </trkpt>
      <trkpt lat="48.35524" lon="2.53958">
        <ele>107</ele>
        <time>2020-06-06T12:54:17Z</time>
      </trkpt>
      <trkpt lat="48.35526" lon="2.53945">
        <ele>107.2</ele>
        <time>2020-06-06T12:54:19Z</time>
      </trkpt>
      <trkpt lat="48.35528" lon="2.53933">
        <ele>106.9</ele>
        <time>2020-06-06T12:54:21Z</time>
      </trkpt>
      <trkpt lat="48.3553" lon="2.53922">
        <ele>106.4</ele>
        <time>2020-06-06T12:54:23Z</time>
      </trkpt>
      <trkpt lat="48.35532" lon="2.53911">
        <ele>106</ele>
        <time>2020-06-06T12:54:25Z</time>
      </trkpt>
      <trkpt lat="48.35534" lon="2.539">
        <ele>105.7</ele>
        <time>2020-06-06T12:54:27Z</time>
      </trkpt>
      <trkpt lat="48.35537" lon="2.53889">
        <ele>105.3</ele>
        <time>2020-06-06T12:54:29Z</time>
      </trkpt>
      <trkpt lat="48.35536" lon="2.53879">
        <ele>106</ele>
        <time>2020-06-06T12:54:31Z</time>
      </trkpt>
      <trkpt lat="48.35537" lon="2.53871">
        <ele>106.2</ele>
        <time>2020-06-06T12:54:33Z</time>
      </trkpt>
      <trkpt lat="48.35537" lon="2.53862">
        <ele>106.6</ele>
        <time>2020-06-06T12:54:35Z</time>
      </trkpt>
      <trkpt lat="48.35537" lon="2.53854">
        <ele>107</ele>
        <time>2020-06-06T12:54:37Z</time>
      </trkpt>
      <trkpt lat="48.3554" lon="2.53845">
        <ele>107.1</ele>
        <time>2020-06-06T12:54:39Z</time>
      </trkpt>
      <trkpt lat="48.35541" lon="2.53835">
        <ele>107.5</ele>
        <time>2020-06-06T12:54:41Z</time>
      </trkpt>
      <trkpt lat="48.35544" lon="2.53828">
        <ele>107.6</ele>
        <time>2020-06-06T12:54:43Z</time>
      </trkpt>
      <trkpt lat="48.35552" lon="2.53827">
        <ele>106.8</ele>
        <time>2020-06-06T12:54:45Z</time>
      </trkpt>
      <trkpt lat="48.35556" lon="2.53831">
        <ele>106.1</ele>
        <time>2020-06-06T12:54:47Z</time>
      </trkpt>
      <trkpt lat="48.35561" lon="2.53831">
        <ele>105.4</ele>
        <time>2020-06-06T12:54:49Z</time>
      </trkpt>
      <trkpt lat="48.35565" lon="2.53826">
        <ele>105.2</ele>
        <time>2020-06-06T12:54:51Z</time>
      </trkpt>
      <trkpt lat="48.35568" lon="2.53822">
        <ele>105</ele>
        <time>2020-06-06T12:54:53Z</time>
      </trkpt>
      <trkpt lat="48.35572" lon="2.53814">
        <ele>105</ele>
        <time>2020-06-06T12:54:55Z</time>
      </trkpt>
      <trkpt lat="48.35575" lon="2.53806">
        <ele>105.2</ele>
        <time>2020-06-06T12:54:57Z</time>
      </trkpt>
      <trkpt lat="48.35578" lon="2.53797">
        <ele>105.3</ele>
        <time>2020-06-06T12:54:59Z</time>
      </trkpt>
      <trkpt lat="48.35581" lon="2.53788">
        <ele>105.5</ele>
        <time>2020-06-06T12:55:01Z</time>
      </trkpt>
      <trkpt lat="48.35582" lon="2.5378">
        <ele>106</ele>
        <time>2020-06-06T12:55:03Z</time>
      </trkpt>
      <trkpt lat="48.3558" lon="2.53774">
        <ele>106.6</ele>
        <time>2020-06-06T12:55:05Z</time>
      </trkpt>
      <trkpt lat="48.35581" lon="2.53766">
        <ele>107.1</ele>
        <time>2020-06-06T12:55:07Z</time>
      </trkpt>
      <trkpt lat="48.35582" lon="2.53759">
        <ele>107.5</ele>
        <time>2020-06-06T12:55:09Z</time>
      </trkpt>
      <trkpt lat="48.35583" lon="2.53751">
        <ele>108</ele>
        <time>2020-06-06T12:55:11Z</time>
      </trkpt>
      <trkpt lat="48.35586" lon="2.53745">
        <ele>108.1</ele>
        <time>2020-06-06T12:55:13Z</time>
      </trkpt>
      <trkpt lat="48.35589" lon="2.53738">
        <ele>108.1</ele>
        <time>2020-06-06T12:55:15Z</time>
      </trkpt>
      <trkpt lat="48.35592" lon="2.53729">
        <ele>108.2</ele>
        <time>2020-06-06T12:55:21Z</time>
      </trkpt>
      <trkpt lat="48.35594" lon="2.5372">
        <ele>108.2</ele>
        <time>2020-06-06T12:55:25Z</time>
      </trkpt>
      <trkpt lat="48.35597" lon="2.53706">
        <ele>108</ele>
        <time>2020-06-06T12:55:29Z</time>
      </trkpt>
      <trkpt lat="48.35599" lon="2.537">
        <ele>107.9</ele>
        <time>2020-06-06T12:55:31Z</time>
      </trkpt>
      <trkpt lat="48.35601" lon="2.53693">
        <ele>107.7</ele>
        <time>2020-06-06T12:55:33Z</time>
      </trkpt>
      <trkpt lat="48.35602" lon="2.53683">
        <ele>107.2</ele>
        <time>2020-06-06T12:55:35Z</time>
      </trkpt>
      <trkpt lat="48.35603" lon="2.53674">
        <ele>106.8</ele>
        <time>2020-06-06T12:55:37Z</time>
      </trkpt>
      <trkpt lat="48.35606" lon="2.53666">
        <ele>106.3</ele>
        <time>2020-06-06T12:55:39Z</time>
      </trkpt>
      <trkpt lat="48.35605" lon="2.53657">
        <ele>106.2</ele>
        <time>2020-06-06T12:55:41Z</time>
      </trkpt>
      <trkpt lat="48.35604" lon="2.5365">
        <ele>106.1</ele>
        <time>2020-06-06T12:55:43Z</time>
      </trkpt>
      <trkpt lat="48.35603" lon="2.5364">
        <ele>105.9</ele>
        <time>2020-06-06T12:55:47Z</time>
      </trkpt>
      <trkpt lat="48.35603" lon="2.53633">
        <ele>105.9</ele>
        <time>2020-06-06T12:55:49Z</time>
      </trkpt>
      <trkpt lat="48.35606" lon="2.53622">
        <ele>105.6</ele>
        <time>2020-06-06T12:55:53Z</time>
      </trkpt>
      <trkpt lat="48.35605" lon="2.53615">
        <ele>105.7</ele>
        <time>2020-06-06T12:55:55Z</time>
      </trkpt>
      <trkpt lat="48.35608" lon="2.53598">
        <ele>105.3</ele>
        <time>2020-06-06T12:55:59Z</time>
      </trkpt>
      <trkpt lat="48.35607" lon="2.53591">
        <ele>105.4</ele>
        <time>2020-06-06T12:56:01Z</time>
      </trkpt>
      <trkpt lat="48.35607" lon="2.53584">
        <ele>105.4</ele>
        <time>2020-06-06T12:56:03Z</time>
      </trkpt>
      <trkpt lat="48.35605" lon="2.53575">
        <ele>105.7</ele>
        <time>2020-06-06T12:56:05Z</time>
      </trkpt>
      <trkpt lat="48.35605" lon="2.53566">
        <ele>105.7</ele>
        <time>2020-06-06T12:56:07Z</time>
      </trkpt>
      <trkpt lat="48.35606" lon="2.53555">
        <ele>105.6</ele>
        <time>2020-06-06T12:56:11Z</time>
      </trkpt>
      <trkpt lat="48.35608" lon="2.53548">
        <ele>105.6</ele>
        <time>2020-06-06T12:56:13Z</time>
      </trkpt>
      <trkpt lat="48.35608" lon="2.53535">
        <ele>106</ele>
        <time>2020-06-06T12:56:17Z</time>
      </trkpt>
      <trkpt lat="48.35609" lon="2.53521">
        <ele>106.2</ele>
        <time>2020-06-06T12:56:21Z</time>
      </trkpt>
      <trkpt lat="48.35607" lon="2.53513">
        <ele>106.4</ele>
        <time>2020-06-06T12:56:23Z</time>
      </trkpt>
      <trkpt lat="48.35608" lon="2.535">
        <ele>106.3</ele>
        <time>2020-06-06T12:56:27Z</time>
      </trkpt>
      <trkpt lat="48.35606" lon="2.53492">
        <ele>106.7</ele>
        <time>2020-06-06T12:56:29Z</time>
      </trkpt>
      <trkpt lat="48.35605" lon="2.53482">
        <ele>107</ele>
        <time>2020-06-06T12:56:31Z</time>
      </trkpt>
      <trkpt lat="48.35606" lon="2.53476">
        <ele>107.1</ele>
        <time>2020-06-06T12:56:33Z</time>
      </trkpt>
      <trkpt lat="48.35616" lon="2.53471">
        <ele>106.3</ele>
        <time>2020-06-06T12:56:37Z</time>
      </trkpt>
      <trkpt lat="48.35619" lon="2.53466">
        <ele>105.8</ele>
        <time>2020-06-06T12:56:39Z</time>
      </trkpt>
      <trkpt lat="48.35616" lon="2.53457">
        <ele>106</ele>
        <time>2020-06-06T12:56:41Z</time>
      </trkpt>
      <trkpt lat="48.35616" lon="2.53449">
        <ele>105.9</ele>
        <time>2020-06-06T12:56:43Z</time>
      </trkpt>
      <trkpt lat="48.35616" lon="2.53442">
        <ele>105.8</ele>
        <time>2020-06-06T12:56:45Z</time>
      </trkpt>
      <trkpt lat="48.35615" lon="2.53434">
        <ele>105.9</ele>
        <time>2020-06-06T12:56:47Z</time>
      </trkpt>
      <trkpt lat="48.35613" lon="2.53427">
        <ele>106</ele>
        <time>2020-06-06T12:56:49Z</time>
      </trkpt>
      <trkpt lat="48.35612" lon="2.53417">
        <ele>106</ele>
        <time>2020-06-06T12:56:51Z</time>
      </trkpt>
      <trkpt lat="48.35609" lon="2.5341">
        <ele>105.8</ele>
        <time>2020-06-06T12:56:53Z</time>
      </trkpt>
      <trkpt lat="48.35605" lon="2.53406">
        <ele>105.8</ele>
        <time>2020-06-06T12:56:55Z</time>
      </trkpt>
      <trkpt lat="48.35599" lon="2.53402">
        <ele>105.9</ele>
        <time>2020-06-06T12:56:57Z</time>
      </trkpt>
      <trkpt lat="48.35591" lon="2.53401">
        <ele>106.2</ele>
        <time>2020-06-06T12:57:01Z</time>
      </trkpt>
      <trkpt lat="48.35585" lon="2.53402">
        <ele>106.4</ele>
        <time>2020-06-06T12:57:03Z</time>
      </trkpt>
      <trkpt lat="48.3558" lon="2.53396">
        <ele>106.6</ele>
        <time>2020-06-06T12:57:07Z</time>
      </trkpt>
      <trkpt lat="48.35579" lon="2.53381">
        <ele>106.5</ele>
        <time>2020-06-06T12:57:11Z</time>
      </trkpt>
      <trkpt lat="48.3558" lon="2.53371">
        <ele>106.4</ele>
        <time>2020-06-06T12:57:13Z</time>
      </trkpt>
      <trkpt lat="48.3558" lon="2.53363">
        <ele>106.5</ele>
        <time>2020-06-06T12:57:15Z</time>
      </trkpt>
      <trkpt lat="48.35582" lon="2.53357">
        <ele>106.3</ele>
        <time>2020-06-06T12:57:17Z</time>
      </trkpt>
      <trkpt lat="48.35582" lon="2.53349">
        <ele>106.6</ele>
        <time>2020-06-06T12:57:19Z</time>
      </trkpt>
      <trkpt lat="48.3558" lon="2.5334">
        <ele>107.1</ele>
        <time>2020-06-06T12:57:23Z</time>
      </trkpt>
      <trkpt lat="48.35579" lon="2.53328">
        <ele>107.5</ele>
        <time>2020-06-06T12:57:27Z</time>
      </trkpt>
      <trkpt lat="48.35579" lon="2.5332">
        <ele>107.5</ele>
        <time>2020-06-06T12:57:29Z</time>
      </trkpt>
      <trkpt lat="48.35578" lon="2.53308">
        <ele>107.6</ele>
        <time>2020-06-06T12:57:31Z</time>
      </trkpt>
      <trkpt lat="48.35577" lon="2.53298">
        <ele>107.6</ele>
        <time>2020-06-06T12:57:33Z</time>
      </trkpt>
      <trkpt lat="48.35578" lon="2.53289">
        <ele>107.5</ele>
        <time>2020-06-06T12:57:35Z</time>
      </trkpt>
      <trkpt lat="48.35578" lon="2.5328">
        <ele>107.4</ele>
        <time>2020-06-06T12:57:37Z</time>
      </trkpt>
      <trkpt lat="48.35578" lon="2.5327">
        <ele>107.4</ele>
        <time>2020-06-06T12:57:39Z</time>
      </trkpt>
      <trkpt lat="48.35578" lon="2.53262">
        <ele>107.4</ele>
        <time>2020-06-06T12:57:41Z</time>
      </trkpt>
      <trkpt lat="48.35579" lon="2.53253">
        <ele>107.3</ele>
        <time>2020-06-06T12:57:43Z</time>
      </trkpt>
      <trkpt lat="48.3558" lon="2.53245">
        <ele>107.1</ele>
        <time>2020-06-06T12:57:45Z</time>
      </trkpt>
      <trkpt lat="48.35579" lon="2.53235">
        <ele>106.8</ele>
        <time>2020-06-06T12:57:47Z</time>
      </trkpt>
      <trkpt lat="48.35579" lon="2.53225">
        <ele>106.4</ele>
        <time>2020-06-06T12:57:49Z</time>
      </trkpt>
      <trkpt lat="48.35581" lon="2.53217">
        <ele>106.2</ele>
        <time>2020-06-06T12:57:51Z</time>
      </trkpt>
      <trkpt lat="48.35581" lon="2.53206">
        <ele>106.2</ele>
        <time>2020-06-06T12:57:53Z</time>
      </trkpt>
      <trkpt lat="48.35581" lon="2.53195">
        <ele>106.2</ele>
        <time>2020-06-06T12:57:55Z</time>
      </trkpt>
      <trkpt lat="48.35579" lon="2.53186">
        <ele>105.8</ele>
        <time>2020-06-06T12:57:57Z</time>
      </trkpt>
      <trkpt lat="48.3558" lon="2.53174">
        <ele>104.9</ele>
        <time>2020-06-06T12:58:01Z</time>
      </trkpt>
      <trkpt lat="48.3558" lon="2.53167">
        <ele>104.5</ele>
        <time>2020-06-06T12:58:03Z</time>
      </trkpt>
      <trkpt lat="48.35579" lon="2.53159">
        <ele>104.6</ele>
        <time>2020-06-06T12:58:05Z</time>
      </trkpt>
      <trkpt lat="48.35579" lon="2.53152">
        <ele>104.6</ele>
        <time>2020-06-06T12:58:07Z</time>
      </trkpt>
      <trkpt lat="48.3558" lon="2.53145">
        <ele>104.5</ele>
        <time>2020-06-06T12:58:09Z</time>
      </trkpt>
      <trkpt lat="48.35581" lon="2.53136">
        <ele>104.5</ele>
        <time>2020-06-06T12:58:11Z</time>
      </trkpt>
      <trkpt lat="48.35581" lon="2.53126">
        <ele>105.2</ele>
        <time>2020-06-06T12:58:13Z</time>
      </trkpt>
      <trkpt lat="48.35582" lon="2.53119">
        <ele>105.6</ele>
        <time>2020-06-06T12:58:15Z</time>
      </trkpt>
      <trkpt lat="48.35583" lon="2.53109">
        <ele>106.1</ele>
        <time>2020-06-06T12:58:17Z</time>
      </trkpt>
      <trkpt lat="48.35583" lon="2.531">
        <ele>106.4</ele>
        <time>2020-06-06T12:58:19Z</time>
      </trkpt>
      <trkpt lat="48.35583" lon="2.5309">
        <ele>106.8</ele>
        <time>2020-06-06T12:58:21Z</time>
      </trkpt>
      <trkpt lat="48.35585" lon="2.53082">
        <ele>106.9</ele>
        <time>2020-06-06T12:58:23Z</time>
      </trkpt>
      <trkpt lat="48.35584" lon="2.53073">
        <ele>107</ele>
        <time>2020-06-06T12:58:25Z</time>
      </trkpt>
      <trkpt lat="48.35585" lon="2.53065">
        <ele>106.9</ele>
        <time>2020-06-06T12:58:27Z</time>
      </trkpt>
      <trkpt lat="48.35586" lon="2.53057">
        <ele>106.9</ele>
        <time>2020-06-06T12:58:29Z</time>
      </trkpt>
      <trkpt lat="48.35585" lon="2.53048">
        <ele>107.2</ele>
        <time>2020-06-06T12:58:31Z</time>
      </trkpt>
      <trkpt lat="48.35585" lon="2.53038">
        <ele>107.5</ele>
        <time>2020-06-06T12:58:33Z</time>
      </trkpt>
      <trkpt lat="48.35585" lon="2.53029">
        <ele>107.8</ele>
        <time>2020-06-06T12:58:35Z</time>
      </trkpt>
      <trkpt lat="48.35583" lon="2.53021">
        <ele>107.8</ele>
        <time>2020-06-06T12:58:37Z</time>
      </trkpt>
      <trkpt lat="48.35583" lon="2.5301">
        <ele>107.4</ele>
        <time>2020-06-06T12:58:41Z</time>
      </trkpt>
      <trkpt lat="48.35579" lon="2.53002">
        <ele>107.2</ele>
        <time>2020-06-06T12:58:45Z</time>
      </trkpt>
      <trkpt lat="48.35574" lon="2.53001">
        <ele>107.4</ele>
        <time>2020-06-06T12:58:47Z</time>
      </trkpt>
      <trkpt lat="48.35564" lon="2.53001">
        <ele>107.7</ele>
        <time>2020-06-06T12:58:51Z</time>
      </trkpt>
      <trkpt lat="48.35559" lon="2.52996">
        <ele>107.9</ele>
        <time>2020-06-06T12:58:53Z</time>
      </trkpt>
      <trkpt lat="48.35556" lon="2.52989">
        <ele>108</ele>
        <time>2020-06-06T12:58:55Z</time>
      </trkpt>
      <trkpt lat="48.35555" lon="2.52979">
        <ele>108</ele>
        <time>2020-06-06T12:58:57Z</time>
      </trkpt>
      <trkpt lat="48.35553" lon="2.5297">
        <ele>108</ele>
        <time>2020-06-06T12:58:59Z</time>
      </trkpt>
      <trkpt lat="48.35551" lon="2.52961">
        <ele>107.8</ele>
        <time>2020-06-06T12:59:01Z</time>
      </trkpt>
      <trkpt lat="48.35548" lon="2.52953">
        <ele>107.8</ele>
        <time>2020-06-06T12:59:03Z</time>
      </trkpt>
      <trkpt lat="48.35546" lon="2.52944">
        <ele>107.7</ele>
        <time>2020-06-06T12:59:05Z</time>
      </trkpt>
      <trkpt lat="48.35543" lon="2.52936">
        <ele>107.6</ele>
        <time>2020-06-06T12:59:07Z</time>
      </trkpt>
      <trkpt lat="48.35541" lon="2.52927">
        <ele>107.4</ele>
        <time>2020-06-06T12:59:09Z</time>
      </trkpt>
      <trkpt lat="48.35538" lon="2.52917">
        <ele>107.3</ele>
        <time>2020-06-06T12:59:11Z</time>
      </trkpt>
      <trkpt lat="48.35536" lon="2.52908">
        <ele>107</ele>
        <time>2020-06-06T12:59:13Z</time>
      </trkpt>
      <trkpt lat="48.35534" lon="2.52902">
        <ele>106.9</ele>
        <time>2020-06-06T12:59:15Z</time>
      </trkpt>
      <trkpt lat="48.35533" lon="2.52894">
        <ele>106.7</ele>
        <time>2020-06-06T12:59:17Z</time>
      </trkpt>
      <trkpt lat="48.3553" lon="2.52885">
        <ele>106.7</ele>
        <time>2020-06-06T12:59:19Z</time>
      </trkpt>
      <trkpt lat="48.35529" lon="2.52876">
        <ele>106.8</ele>
        <time>2020-06-06T12:59:21Z</time>
      </trkpt>
      <trkpt lat="48.35527" lon="2.52864">
        <ele>107.1</ele>
        <time>2020-06-06T12:59:25Z</time>
      </trkpt>
      <trkpt lat="48.3553" lon="2.52858">
        <ele>106.6</ele>
        <time>2020-06-06T13:00:21Z</time>
      </trkpt>
      <trkpt lat="48.35538" lon="2.52858">
        <ele>105.4</ele>
        <time>2020-06-06T13:01:05Z</time>
      </trkpt>
      <trkpt lat="48.35545" lon="2.5286">
        <ele>104.5</ele>
        <time>2020-06-06T13:01:07Z</time>
      </trkpt>
      <trkpt lat="48.35554" lon="2.52857">
        <ele>102.9</ele>
        <time>2020-06-06T13:01:09Z</time>
      </trkpt>
      <trkpt lat="48.35561" lon="2.52852">
        <ele>101.5</ele>
        <time>2020-06-06T13:01:11Z</time>
      </trkpt>
      <trkpt lat="48.35565" lon="2.52848">
        <ele>100.5</ele>
        <time>2020-06-06T13:01:13Z</time>
      </trkpt>
      <trkpt lat="48.35572" lon="2.52846">
        <ele>99.2</ele>
        <time>2020-06-06T13:01:15Z</time>
      </trkpt>
      <trkpt lat="48.35576" lon="2.52839">
        <ele>97.9</ele>
        <time>2020-06-06T13:01:17Z</time>
      </trkpt>
      <trkpt lat="48.35577" lon="2.52831">
        <ele>97</ele>
        <time>2020-06-06T13:01:19Z</time>
      </trkpt>
      <trkpt lat="48.3558" lon="2.52824">
        <ele>95.9</ele>
        <time>2020-06-06T13:01:21Z</time>
      </trkpt>
      <trkpt lat="48.35585" lon="2.52821">
        <ele>95.3</ele>
        <time>2020-06-06T13:01:23Z</time>
      </trkpt>
      <trkpt lat="48.35588" lon="2.52813">
        <ele>95.2</ele>
        <time>2020-06-06T13:01:25Z</time>
      </trkpt>
      <trkpt lat="48.35588" lon="2.52804">
        <ele>94.6</ele>
        <time>2020-06-06T13:01:27Z</time>
      </trkpt>
      <trkpt lat="48.35588" lon="2.52793">
        <ele>93.8</ele>
        <time>2020-06-06T13:01:29Z</time>
      </trkpt>
      <trkpt lat="48.3559" lon="2.5278">
        <ele>93.1</ele>
        <time>2020-06-06T13:01:31Z</time>
      </trkpt>
      <trkpt lat="48.35592" lon="2.52772">
        <ele>92.9</ele>
        <time>2020-06-06T13:01:33Z</time>
      </trkpt>
      <trkpt lat="48.35596" lon="2.52767">
        <ele>93.1</ele>
        <time>2020-06-06T13:01:35Z</time>
      </trkpt>
      <trkpt lat="48.35597" lon="2.52757">
        <ele>92.5</ele>
        <time>2020-06-06T13:01:37Z</time>
      </trkpt>
      <trkpt lat="48.35599" lon="2.52744">
        <ele>91.6</ele>
        <time>2020-06-06T13:01:39Z</time>
      </trkpt>
      <trkpt lat="48.35603" lon="2.52736">
        <ele>91</ele>
        <time>2020-06-06T13:01:41Z</time>
      </trkpt>
      <trkpt lat="48.35605" lon="2.52723">
        <ele>89.5</ele>
        <time>2020-06-06T13:01:43Z</time>
      </trkpt>
      <trkpt lat="48.3561" lon="2.52711">
        <ele>88.3</ele>
        <time>2020-06-06T13:01:45Z</time>
      </trkpt>
      <trkpt lat="48.35618" lon="2.52698">
        <ele>87.4</ele>
        <time>2020-06-06T13:01:47Z</time>
      </trkpt>
      <trkpt lat="48.35624" lon="2.52689">
        <ele>86.6</ele>
        <time>2020-06-06T13:01:49Z</time>
      </trkpt>
      <trkpt lat="48.35631" lon="2.52676">
        <ele>85.1</ele>
        <time>2020-06-06T13:01:51Z</time>
      </trkpt>
      <trkpt lat="48.35638" lon="2.52661">
        <ele>82.9</ele>
        <time>2020-06-06T13:01:53Z</time>
      </trkpt>
      <trkpt lat="48.35645" lon="2.52647">
        <ele>81.8</ele>
        <time>2020-06-06T13:01:55Z</time>
      </trkpt>
      <trkpt lat="48.35654" lon="2.52631">
        <ele>80.2</ele>
        <time>2020-06-06T13:01:57Z</time>
      </trkpt>
      <trkpt lat="48.35664" lon="2.52616">
        <ele>78.5</ele>
        <time>2020-06-06T13:01:59Z</time>
      </trkpt>
      <trkpt lat="48.35672" lon="2.52604">
        <ele>77.8</ele>
        <time>2020-06-06T13:02:01Z</time>
      </trkpt>
      <trkpt lat="48.35673" lon="2.52596">
        <ele>78</ele>
        <time>2020-06-06T13:02:03Z</time>
      </trkpt>
      <trkpt lat="48.35676" lon="2.5259">
        <ele>77.8</ele>
        <time>2020-06-06T13:02:05Z</time>
      </trkpt>
      <trkpt lat="48.35679" lon="2.52584">
        <ele>77.7</ele>
        <time>2020-06-06T13:02:07Z</time>
      </trkpt>
      <trkpt lat="48.35684" lon="2.52578">
        <ele>77.5</ele>
        <time>2020-06-06T13:02:09Z</time>
      </trkpt>
      <trkpt lat="48.35692" lon="2.52569">
        <ele>76.9</ele>
        <time>2020-06-06T13:02:11Z</time>
      </trkpt>
      <trkpt lat="48.35697" lon="2.52562">
        <ele>76.4</ele>
        <time>2020-06-06T13:02:13Z</time>
      </trkpt>
      <trkpt lat="48.35701" lon="2.52555">
        <ele>76.1</ele>
        <time>2020-06-06T13:02:17Z</time>
      </trkpt>
      <trkpt lat="48.35706" lon="2.52548">
        <ele>75.6</ele>
        <time>2020-06-06T13:02:19Z</time>
      </trkpt>
      <trkpt lat="48.35711" lon="2.52541">
        <ele>75.1</ele>
        <time>2020-06-06T13:02:21Z</time>
      </trkpt>
      <trkpt lat="48.35717" lon="2.52531">
        <ele>74.6</ele>
        <time>2020-06-06T13:02:23Z</time>
      </trkpt>
      <trkpt lat="48.35723" lon="2.52521">
        <ele>73.7</ele>
        <time>2020-06-06T13:02:25Z</time>
      </trkpt>
      <trkpt lat="48.35725" lon="2.52508">
        <ele>73.2</ele>
        <time>2020-06-06T13:02:27Z</time>
      </trkpt>
      <trkpt lat="48.35727" lon="2.52496">
        <ele>72.8</ele>
        <time>2020-06-06T13:02:29Z</time>
      </trkpt>
      <trkpt lat="48.35732" lon="2.52483">
        <ele>72.4</ele>
        <time>2020-06-06T13:02:31Z</time>
      </trkpt>
      <trkpt lat="48.35737" lon="2.5247">
        <ele>71.9</ele>
        <time>2020-06-06T13:02:33Z</time>
      </trkpt>
      <trkpt lat="48.35742" lon="2.52458">
        <ele>71.4</ele>
        <time>2020-06-06T13:02:35Z</time>
      </trkpt>
      <trkpt lat="48.35747" lon="2.52445">
        <ele>71.1</ele>
        <time>2020-06-06T13:02:37Z</time>
      </trkpt>
      <trkpt lat="48.35749" lon="2.52437">
        <ele>71</ele>
        <time>2020-06-06T13:02:39Z</time>
      </trkpt>
      <trkpt lat="48.35755" lon="2.52437">
        <ele>70.8</ele>
        <time>2020-06-06T13:02:41Z</time>
      </trkpt>
      <trkpt lat="48.35761" lon="2.5244">
        <ele>70.6</ele>
        <time>2020-06-06T13:02:43Z</time>
      </trkpt>
      <trkpt lat="48.35766" lon="2.52446">
        <ele>70.5</ele>
        <time>2020-06-06T13:02:45Z</time>
      </trkpt>
      <trkpt lat="48.35771" lon="2.52453">
        <ele>70.5</ele>
        <time>2020-06-06T13:02:47Z</time>
      </trkpt>
      <trkpt lat="48.35776" lon="2.5246">
        <ele>70.6</ele>
        <time>2020-06-06T13:02:49Z</time>
      </trkpt>
      <trkpt lat="48.35779" lon="2.52466">
        <ele>70.7</ele>
        <time>2020-06-06T13:02:51Z</time>
      </trkpt>
      <trkpt lat="48.35773" lon="2.52477">
        <ele>71</ele>
        <time>2020-06-06T13:02:57Z</time>
      </trkpt>
      <trkpt lat="48.35772" lon="2.52484">
        <ele>71.1</ele>
        <time>2020-06-06T13:02:59Z</time>
      </trkpt>
      <trkpt lat="48.35772" lon="2.52497">
        <ele>71.2</ele>
        <time>2020-06-06T13:03:03Z</time>
      </trkpt>
      <trkpt lat="48.35773" lon="2.52504">
        <ele>71.2</ele>
        <time>2020-06-06T13:03:05Z</time>
      </trkpt>
      <trkpt lat="48.35774" lon="2.52512">
        <ele>71.1</ele>
        <time>2020-06-06T13:03:07Z</time>
      </trkpt>
      <trkpt lat="48.35776" lon="2.52522">
        <ele>71.1</ele>
        <time>2020-06-06T13:03:09Z</time>
      </trkpt>
      <trkpt lat="48.35778" lon="2.52531">
        <ele>71</ele>
        <time>2020-06-06T13:03:11Z</time>
      </trkpt>
      <trkpt lat="48.35779" lon="2.52543">
        <ele>71</ele>
        <time>2020-06-06T13:03:13Z</time>
      </trkpt>
      <trkpt lat="48.35778" lon="2.52555">
        <ele>71</ele>
        <time>2020-06-06T13:03:15Z</time>
      </trkpt>
      <trkpt lat="48.35778" lon="2.52566">
        <ele>71</ele>
        <time>2020-06-06T13:03:17Z</time>
      </trkpt>
      <trkpt lat="48.35777" lon="2.52577">
        <ele>71</ele>
        <time>2020-06-06T13:03:19Z</time>
      </trkpt>
      <trkpt lat="48.35776" lon="2.52589">
        <ele>71.1</ele>
        <time>2020-06-06T13:03:21Z</time>
      </trkpt>
      <trkpt lat="48.35775" lon="2.52601">
        <ele>71.1</ele>
        <time>2020-06-06T13:03:23Z</time>
      </trkpt>
      <trkpt lat="48.35775" lon="2.52613">
        <ele>71.1</ele>
        <time>2020-06-06T13:03:25Z</time>
      </trkpt>
      <trkpt lat="48.35778" lon="2.52626">
        <ele>71</ele>
        <time>2020-06-06T13:03:27Z</time>
      </trkpt>
      <trkpt lat="48.35782" lon="2.52639">
        <ele>71</ele>
        <time>2020-06-06T13:03:29Z</time>
      </trkpt>
      <trkpt lat="48.35784" lon="2.52652">
        <ele>71.4</ele>
        <time>2020-06-06T13:03:31Z</time>
      </trkpt>
      <trkpt lat="48.35785" lon="2.52665">
        <ele>71.7</ele>
        <time>2020-06-06T13:03:33Z</time>
      </trkpt>
      <trkpt lat="48.35785" lon="2.52677">
        <ele>72.1</ele>
        <time>2020-06-06T13:03:35Z</time>
      </trkpt>
      <trkpt lat="48.35785" lon="2.52687">
        <ele>72.5</ele>
        <time>2020-06-06T13:03:37Z</time>
      </trkpt>
      <trkpt lat="48.35786" lon="2.52697">
        <ele>72.8</ele>
        <time>2020-06-06T13:03:39Z</time>
      </trkpt>
      <trkpt lat="48.35787" lon="2.52708">
        <ele>73</ele>
        <time>2020-06-06T13:03:41Z</time>
      </trkpt>
      <trkpt lat="48.35788" lon="2.52719">
        <ele>73.2</ele>
        <time>2020-06-06T13:03:43Z</time>
      </trkpt>
      <trkpt lat="48.3579" lon="2.52729">
        <ele>73.1</ele>
        <time>2020-06-06T13:03:45Z</time>
      </trkpt>
      <trkpt lat="48.35791" lon="2.5274">
        <ele>73</ele>
        <time>2020-06-06T13:03:47Z</time>
      </trkpt>
      <trkpt lat="48.3579" lon="2.52753">
        <ele>73.1</ele>
        <time>2020-06-06T13:03:49Z</time>
      </trkpt>
      <trkpt lat="48.35792" lon="2.52762">
        <ele>73</ele>
        <time>2020-06-06T13:03:51Z</time>
      </trkpt>
      <trkpt lat="48.35792" lon="2.52772">
        <ele>73</ele>
        <time>2020-06-06T13:03:53Z</time>
      </trkpt>
      <trkpt lat="48.35793" lon="2.52783">
        <ele>72.9</ele>
        <time>2020-06-06T13:03:55Z</time>
      </trkpt>
      <trkpt lat="48.35794" lon="2.52794">
        <ele>72.8</ele>
        <time>2020-06-06T13:03:57Z</time>
      </trkpt>
      <trkpt lat="48.35795" lon="2.52804">
        <ele>72.8</ele>
        <time>2020-06-06T13:03:59Z</time>
      </trkpt>
      <trkpt lat="48.35795" lon="2.52816">
        <ele>72.4</ele>
        <time>2020-06-06T13:04:01Z</time>
      </trkpt>
      <trkpt lat="48.35794" lon="2.52826">
        <ele>72.1</ele>
        <time>2020-06-06T13:04:03Z</time>
      </trkpt>
      <trkpt lat="48.35797" lon="2.52838">
        <ele>71.6</ele>
        <time>2020-06-06T13:04:05Z</time>
      </trkpt>
      <trkpt lat="48.35796" lon="2.52851">
        <ele>71.7</ele>
        <time>2020-06-06T13:04:07Z</time>
      </trkpt>
      <trkpt lat="48.35795" lon="2.52863">
        <ele>71.8</ele>
        <time>2020-06-06T13:04:09Z</time>
      </trkpt>
      <trkpt lat="48.35796" lon="2.52875">
        <ele>72</ele>
        <time>2020-06-06T13:04:11Z</time>
      </trkpt>
      <trkpt lat="48.35797" lon="2.52886">
        <ele>72.2</ele>
        <time>2020-06-06T13:04:13Z</time>
      </trkpt>
      <trkpt lat="48.35796" lon="2.52899">
        <ele>72.5</ele>
        <time>2020-06-06T13:04:15Z</time>
      </trkpt>
      <trkpt lat="48.35797" lon="2.5291">
        <ele>72.5</ele>
        <time>2020-06-06T13:04:17Z</time>
      </trkpt>
      <trkpt lat="48.35798" lon="2.52921">
        <ele>72.7</ele>
        <time>2020-06-06T13:04:19Z</time>
      </trkpt>
      <trkpt lat="48.358" lon="2.52933">
        <ele>73.1</ele>
        <time>2020-06-06T13:04:21Z</time>
      </trkpt>
      <trkpt lat="48.35805" lon="2.52944">
        <ele>73</ele>
        <time>2020-06-06T13:04:23Z</time>
      </trkpt>
      <trkpt lat="48.35809" lon="2.52955">
        <ele>72.8</ele>
        <time>2020-06-06T13:04:25Z</time>
      </trkpt>
      <trkpt lat="48.35811" lon="2.52966">
        <ele>72.6</ele>
        <time>2020-06-06T13:04:27Z</time>
      </trkpt>
      <trkpt lat="48.35812" lon="2.52977">
        <ele>72.4</ele>
        <time>2020-06-06T13:04:29Z</time>
      </trkpt>
      <trkpt lat="48.35813" lon="2.52988">
        <ele>71.9</ele>
        <time>2020-06-06T13:04:31Z</time>
      </trkpt>
      <trkpt lat="48.35815" lon="2.52998">
        <ele>71.4</ele>
        <time>2020-06-06T13:04:33Z</time>
      </trkpt>
      <trkpt lat="48.35816" lon="2.5301">
        <ele>71.2</ele>
        <time>2020-06-06T13:04:35Z</time>
      </trkpt>
      <trkpt lat="48.35817" lon="2.53023">
        <ele>71.2</ele>
        <time>2020-06-06T13:04:37Z</time>
      </trkpt>
      <trkpt lat="48.3582" lon="2.53035">
        <ele>71</ele>
        <time>2020-06-06T13:04:39Z</time>
      </trkpt>
      <trkpt lat="48.35821" lon="2.53049">
        <ele>70.9</ele>
        <time>2020-06-06T13:04:41Z</time>
      </trkpt>
      <trkpt lat="48.35824" lon="2.53063">
        <ele>70.8</ele>
        <time>2020-06-06T13:04:43Z</time>
      </trkpt>
      <trkpt lat="48.35825" lon="2.53076">
        <ele>71.1</ele>
        <time>2020-06-06T13:04:45Z</time>
      </trkpt>
      <trkpt lat="48.35828" lon="2.53087">
        <ele>71.2</ele>
        <time>2020-06-06T13:04:47Z</time>
      </trkpt>
      <trkpt lat="48.35831" lon="2.53099">
        <ele>71.1</ele>
        <time>2020-06-06T13:04:49Z</time>
      </trkpt>
      <trkpt lat="48.35835" lon="2.53109">
        <ele>70.9</ele>
        <time>2020-06-06T13:04:51Z</time>
      </trkpt>
      <trkpt lat="48.35837" lon="2.53117">
        <ele>70.9</ele>
        <time>2020-06-06T13:04:53Z</time>
      </trkpt>
      <trkpt lat="48.35834" lon="2.53125">
        <ele>71</ele>
        <time>2020-06-06T13:04:55Z</time>
      </trkpt>
      <trkpt lat="48.35836" lon="2.53137">
        <ele>70.9</ele>
        <time>2020-06-06T13:04:57Z</time>
      </trkpt>
      <trkpt lat="48.35838" lon="2.53149">
        <ele>70.8</ele>
        <time>2020-06-06T13:04:59Z</time>
      </trkpt>
      <trkpt lat="48.35838" lon="2.53161">
        <ele>70.8</ele>
        <time>2020-06-06T13:05:01Z</time>
      </trkpt>
      <trkpt lat="48.35838" lon="2.53174">
        <ele>70.8</ele>
        <time>2020-06-06T13:05:03Z</time>
      </trkpt>
      <trkpt lat="48.35839" lon="2.53185">
        <ele>70.8</ele>
        <time>2020-06-06T13:05:05Z</time>
      </trkpt>
      <trkpt lat="48.35839" lon="2.53198">
        <ele>70.8</ele>
        <time>2020-06-06T13:05:07Z</time>
      </trkpt>
      <trkpt lat="48.3584" lon="2.53211">
        <ele>70.8</ele>
        <time>2020-06-06T13:05:09Z</time>
      </trkpt>
      <trkpt lat="48.3584" lon="2.53223">
        <ele>70.8</ele>
        <time>2020-06-06T13:05:11Z</time>
      </trkpt>
      <trkpt lat="48.35846" lon="2.53231">
        <ele>70.7</ele>
        <time>2020-06-06T13:05:13Z</time>
      </trkpt>
      <trkpt lat="48.35853" lon="2.53237">
        <ele>70.4</ele>
        <time>2020-06-06T13:05:15Z</time>
      </trkpt>
      <trkpt lat="48.35857" lon="2.53249">
        <ele>70.3</ele>
        <time>2020-06-06T13:05:17Z</time>
      </trkpt>
      <trkpt lat="48.3586" lon="2.53261">
        <ele>70.5</ele>
        <time>2020-06-06T13:05:19Z</time>
      </trkpt>
      <trkpt lat="48.35861" lon="2.53273">
        <ele>70.8</ele>
        <time>2020-06-06T13:05:21Z</time>
      </trkpt>
      <trkpt lat="48.35861" lon="2.53284">
        <ele>71</ele>
        <time>2020-06-06T13:05:23Z</time>
      </trkpt>
      <trkpt lat="48.35862" lon="2.53296">
        <ele>70.9</ele>
        <time>2020-06-06T13:05:25Z</time>
      </trkpt>
      <trkpt lat="48.35864" lon="2.53308">
        <ele>70.7</ele>
        <time>2020-06-06T13:05:27Z</time>
      </trkpt>
      <trkpt lat="48.35866" lon="2.53319">
        <ele>70.2</ele>
        <time>2020-06-06T13:05:29Z</time>
      </trkpt>
      <trkpt lat="48.35868" lon="2.5333">
        <ele>69.8</ele>
        <time>2020-06-06T13:05:31Z</time>
      </trkpt>
      <trkpt lat="48.35865" lon="2.53341">
        <ele>69.9</ele>
        <time>2020-06-06T13:05:33Z</time>
      </trkpt>
      <trkpt lat="48.35863" lon="2.53354">
        <ele>69.9</ele>
        <time>2020-06-06T13:05:35Z</time>
      </trkpt>
      <trkpt lat="48.3586" lon="2.53366">
        <ele>70.4</ele>
        <time>2020-06-06T13:05:37Z</time>
      </trkpt>
      <trkpt lat="48.35857" lon="2.53378">
        <ele>71.3</ele>
        <time>2020-06-06T13:05:39Z</time>
      </trkpt>
      <trkpt lat="48.35856" lon="2.53392">
        <ele>71.7</ele>
        <time>2020-06-06T13:05:41Z</time>
      </trkpt>
      <trkpt lat="48.35854" lon="2.53406">
        <ele>72</ele>
        <time>2020-06-06T13:05:43Z</time>
      </trkpt>
      <trkpt lat="48.35851" lon="2.53418">
        <ele>72.4</ele>
        <time>2020-06-06T13:05:45Z</time>
      </trkpt>
      <trkpt lat="48.3585" lon="2.5343">
        <ele>72.2</ele>
        <time>2020-06-06T13:05:47Z</time>
      </trkpt>
      <trkpt lat="48.35849" lon="2.53443">
        <ele>71.9</ele>
        <time>2020-06-06T13:05:49Z</time>
      </trkpt>
      <trkpt lat="48.35846" lon="2.53454">
        <ele>71.7</ele>
        <time>2020-06-06T13:05:51Z</time>
      </trkpt>
      <trkpt lat="48.35841" lon="2.53461">
        <ele>71.9</ele>
        <time>2020-06-06T13:05:53Z</time>
      </trkpt>
      <trkpt lat="48.35838" lon="2.53471">
        <ele>71.7</ele>
        <time>2020-06-06T13:05:55Z</time>
      </trkpt>
      <trkpt lat="48.35835" lon="2.53483">
        <ele>71.5</ele>
        <time>2020-06-06T13:05:57Z</time>
      </trkpt>
      <trkpt lat="48.35831" lon="2.53496">
        <ele>71.4</ele>
        <time>2020-06-06T13:05:59Z</time>
      </trkpt>
      <trkpt lat="48.35827" lon="2.53507">
        <ele>71.6</ele>
        <time>2020-06-06T13:06:01Z</time>
      </trkpt>
      <trkpt lat="48.35826" lon="2.53521">
        <ele>71.6</ele>
        <time>2020-06-06T13:06:03Z</time>
      </trkpt>
      <trkpt lat="48.35821" lon="2.53533">
        <ele>71.8</ele>
        <time>2020-06-06T13:06:05Z</time>
      </trkpt>
      <trkpt lat="48.35817" lon="2.53546">
        <ele>71.8</ele>
        <time>2020-06-06T13:06:07Z</time>
      </trkpt>
      <trkpt lat="48.35813" lon="2.53558">
        <ele>71.7</ele>
        <time>2020-06-06T13:06:09Z</time>
      </trkpt>
      <trkpt lat="48.35809" lon="2.53571">
        <ele>71.8</ele>
        <time>2020-06-06T13:06:11Z</time>
      </trkpt>
      <trkpt lat="48.35804" lon="2.53582">
        <ele>72.1</ele>
        <time>2020-06-06T13:06:13Z</time>
      </trkpt>
      <trkpt lat="48.35802" lon="2.53594">
        <ele>72.2</ele>
        <time>2020-06-06T13:06:15Z</time>
      </trkpt>
      <trkpt lat="48.358" lon="2.53605">
        <ele>72.2</ele>
        <time>2020-06-06T13:06:17Z</time>
      </trkpt>
      <trkpt lat="48.35799" lon="2.53615">
        <ele>72.2</ele>
        <time>2020-06-06T13:06:19Z</time>
      </trkpt>
      <trkpt lat="48.35797" lon="2.53627">
        <ele>72.3</ele>
        <time>2020-06-06T13:06:21Z</time>
      </trkpt>
      <trkpt lat="48.35795" lon="2.53639">
        <ele>72.4</ele>
        <time>2020-06-06T13:06:23Z</time>
      </trkpt>
      <trkpt lat="48.35794" lon="2.53654">
        <ele>72.1</ele>
        <time>2020-06-06T13:06:25Z</time>
      </trkpt>
      <trkpt lat="48.3579" lon="2.53665">
        <ele>72.1</ele>
        <time>2020-06-06T13:06:27Z</time>
      </trkpt>
      <trkpt lat="48.35789" lon="2.53677">
        <ele>72</ele>
        <time>2020-06-06T13:06:29Z</time>
      </trkpt>
      <trkpt lat="48.35787" lon="2.5369">
        <ele>71.8</ele>
        <time>2020-06-06T13:06:31Z</time>
      </trkpt>
      <trkpt lat="48.35786" lon="2.53703">
        <ele>71.6</ele>
        <time>2020-06-06T13:06:33Z</time>
      </trkpt>
      <trkpt lat="48.35784" lon="2.53715">
        <ele>71.6</ele>
        <time>2020-06-06T13:06:35Z</time>
      </trkpt>
      <trkpt lat="48.35781" lon="2.53729">
        <ele>71.6</ele>
        <time>2020-06-06T13:06:37Z</time>
      </trkpt>
      <trkpt lat="48.35779" lon="2.53741">
        <ele>71.3</ele>
        <time>2020-06-06T13:06:39Z</time>
      </trkpt>
      <trkpt lat="48.35778" lon="2.53755">
        <ele>71</ele>
        <time>2020-06-06T13:06:41Z</time>
      </trkpt>
      <trkpt lat="48.35774" lon="2.53767">
        <ele>71.3</ele>
        <time>2020-06-06T13:06:43Z</time>
      </trkpt>
      <trkpt lat="48.35771" lon="2.53782">
        <ele>71.5</ele>
        <time>2020-06-06T13:06:45Z</time>
      </trkpt>
      <trkpt lat="48.35769" lon="2.53797">
        <ele>71.6</ele>
        <time>2020-06-06T13:06:47Z</time>
      </trkpt>
      <trkpt lat="48.35768" lon="2.53811">
        <ele>71.5</ele>
        <time>2020-06-06T13:06:49Z</time>
      </trkpt>
      <trkpt lat="48.35765" lon="2.53823">
        <ele>71.3</ele>
        <time>2020-06-06T13:06:51Z</time>
      </trkpt>
      <trkpt lat="48.35763" lon="2.53836">
        <ele>71.1</ele>
        <time>2020-06-06T13:06:53Z</time>
      </trkpt>
      <trkpt lat="48.35762" lon="2.53849">
        <ele>71.1</ele>
        <time>2020-06-06T13:06:55Z</time>
      </trkpt>
      <trkpt lat="48.35761" lon="2.53864">
        <ele>71.1</ele>
        <time>2020-06-06T13:06:57Z</time>
      </trkpt>
      <trkpt lat="48.35762" lon="2.53877">
        <ele>70.8</ele>
        <time>2020-06-06T13:06:59Z</time>
      </trkpt>
      <trkpt lat="48.35759" lon="2.53889">
        <ele>70.7</ele>
        <time>2020-06-06T13:07:01Z</time>
      </trkpt>
      <trkpt lat="48.35757" lon="2.53902">
        <ele>70.7</ele>
        <time>2020-06-06T13:07:03Z</time>
      </trkpt>
      <trkpt lat="48.35756" lon="2.53913">
        <ele>70.8</ele>
        <time>2020-06-06T13:07:05Z</time>
      </trkpt>
      <trkpt lat="48.35755" lon="2.53924">
        <ele>70.8</ele>
        <time>2020-06-06T13:07:07Z</time>
      </trkpt>
      <trkpt lat="48.35755" lon="2.53936">
        <ele>70.8</ele>
        <time>2020-06-06T13:07:09Z</time>
      </trkpt>
      <trkpt lat="48.35755" lon="2.53948">
        <ele>70.9</ele>
        <time>2020-06-06T13:07:11Z</time>
      </trkpt>
      <trkpt lat="48.35755" lon="2.5396">
        <ele>71.3</ele>
        <time>2020-06-06T13:07:13Z</time>
      </trkpt>
      <trkpt lat="48.35753" lon="2.53971">
        <ele>71.7</ele>
        <time>2020-06-06T13:07:15Z</time>
      </trkpt>
      <trkpt lat="48.35752" lon="2.53982">
        <ele>71.9</ele>
        <time>2020-06-06T13:07:17Z</time>
      </trkpt>
      <trkpt lat="48.35749" lon="2.53989">
        <ele>72.1</ele>
        <time>2020-06-06T13:07:19Z</time>
      </trkpt>
      <trkpt lat="48.35741" lon="2.53992">
        <ele>72.6</ele>
        <time>2020-06-06T13:07:23Z</time>
      </trkpt>
      <trkpt lat="48.35734" lon="2.53992">
        <ele>73.2</ele>
        <time>2020-06-06T13:07:27Z</time>
      </trkpt>
      <trkpt lat="48.35727" lon="2.53997">
        <ele>73.7</ele>
        <time>2020-06-06T13:07:31Z</time>
      </trkpt>
      <trkpt lat="48.35722" lon="2.54001">
        <ele>74</ele>
        <time>2020-06-06T13:07:35Z</time>
      </trkpt>
      <trkpt lat="48.35727" lon="2.53995">
        <ele>73.7</ele>
        <time>2020-06-06T13:07:59Z</time>
      </trkpt>
      <trkpt lat="48.35735" lon="2.53995">
        <ele>73.1</ele>
        <time>2020-06-06T13:08:03Z</time>
      </trkpt>
      <trkpt lat="48.35742" lon="2.53991">
        <ele>72.6</ele>
        <time>2020-06-06T13:08:07Z</time>
      </trkpt>
      <trkpt lat="48.35749" lon="2.5399">
        <ele>72.1</ele>
        <time>2020-06-06T13:08:11Z</time>
      </trkpt>
      <trkpt lat="48.35756" lon="2.53989">
        <ele>71.7</ele>
        <time>2020-06-06T13:08:15Z</time>
      </trkpt>
      <trkpt lat="48.35763" lon="2.53988">
        <ele>71.3</ele>
        <time>2020-06-06T13:08:19Z</time>
      </trkpt>
      <trkpt lat="48.35769" lon="2.53986">
        <ele>71</ele>
        <time>2020-06-06T13:08:23Z</time>
      </trkpt>
      <trkpt lat="48.35776" lon="2.53987">
        <ele>70.6</ele>
        <time>2020-06-06T13:08:27Z</time>
      </trkpt>
      <trkpt lat="48.35783" lon="2.53985">
        <ele>70.5</ele>
        <time>2020-06-06T13:08:31Z</time>
      </trkpt>
      <trkpt lat="48.35786" lon="2.53977">
        <ele>70.2</ele>
        <time>2020-06-06T13:08:35Z</time>
      </trkpt>
      <trkpt lat="48.35792" lon="2.53965">
        <ele>70</ele>
        <time>2020-06-06T13:08:39Z</time>
      </trkpt>
      <trkpt lat="48.35795" lon="2.53955">
        <ele>70</ele>
        <time>2020-06-06T13:08:41Z</time>
      </trkpt>
      <trkpt lat="48.35797" lon="2.53945">
        <ele>70</ele>
        <time>2020-06-06T13:08:43Z</time>
      </trkpt>
      <trkpt lat="48.35798" lon="2.53934">
        <ele>70</ele>
        <time>2020-06-06T13:08:45Z</time>
      </trkpt>
      <trkpt lat="48.35801" lon="2.53923">
        <ele>70</ele>
        <time>2020-06-06T13:08:47Z</time>
      </trkpt>
      <trkpt lat="48.35803" lon="2.53914">
        <ele>70</ele>
        <time>2020-06-06T13:08:49Z</time>
      </trkpt>
      <trkpt lat="48.35805" lon="2.53905">
        <ele>70</ele>
        <time>2020-06-06T13:08:51Z</time>
      </trkpt>
      <trkpt lat="48.35807" lon="2.53896">
        <ele>70.1</ele>
        <time>2020-06-06T13:08:53Z</time>
      </trkpt>
      <trkpt lat="48.3581" lon="2.53887">
        <ele>70.2</ele>
        <time>2020-06-06T13:08:55Z</time>
      </trkpt>
      <trkpt lat="48.35813" lon="2.5388">
        <ele>70.3</ele>
        <time>2020-06-06T13:08:57Z</time>
      </trkpt>
      <trkpt lat="48.35815" lon="2.53873">
        <ele>70.3</ele>
        <time>2020-06-06T13:08:59Z</time>
      </trkpt>
      <trkpt lat="48.35814" lon="2.53863">
        <ele>70.3</ele>
        <time>2020-06-06T13:09:23Z</time>
      </trkpt>
      <trkpt lat="48.35816" lon="2.53856">
        <ele>70.3</ele>
        <time>2020-06-06T13:09:25Z</time>
      </trkpt>
      <trkpt lat="48.35818" lon="2.53847">
        <ele>70.2</ele>
        <time>2020-06-06T13:09:27Z</time>
      </trkpt>
      <trkpt lat="48.35821" lon="2.53836">
        <ele>70.1</ele>
        <time>2020-06-06T13:09:29Z</time>
      </trkpt>
      <trkpt lat="48.35823" lon="2.53824">
        <ele>70</ele>
        <time>2020-06-06T13:09:31Z</time>
      </trkpt>
      <trkpt lat="48.35826" lon="2.53813">
        <ele>70</ele>
        <time>2020-06-06T13:09:33Z</time>
      </trkpt>
      <trkpt lat="48.35828" lon="2.53802">
        <ele>70</ele>
        <time>2020-06-06T13:09:35Z</time>
      </trkpt>
      <trkpt lat="48.3583" lon="2.53792">
        <ele>70</ele>
        <time>2020-06-06T13:09:37Z</time>
      </trkpt>
      <trkpt lat="48.35832" lon="2.53781">
        <ele>70</ele>
        <time>2020-06-06T13:09:39Z</time>
      </trkpt>
      <trkpt lat="48.35834" lon="2.5377">
        <ele>70</ele>
        <time>2020-06-06T13:09:41Z</time>
      </trkpt>
      <trkpt lat="48.35837" lon="2.53759">
        <ele>70</ele>
        <time>2020-06-06T13:09:43Z</time>
      </trkpt>
      <trkpt lat="48.35839" lon="2.53746">
        <ele>70</ele>
        <time>2020-06-06T13:09:45Z</time>
      </trkpt>
      <trkpt lat="48.35842" lon="2.53733">
        <ele>70</ele>
        <time>2020-06-06T13:09:47Z</time>
      </trkpt>
      <trkpt lat="48.35845" lon="2.5372">
        <ele>70</ele>
        <time>2020-06-06T13:09:49Z</time>
      </trkpt>
      <trkpt lat="48.35848" lon="2.53708">
        <ele>70</ele>
        <time>2020-06-06T13:09:51Z</time>
      </trkpt>
      <trkpt lat="48.35851" lon="2.53694">
        <ele>70</ele>
        <time>2020-06-06T13:09:53Z</time>
      </trkpt>
      <trkpt lat="48.35854" lon="2.5368">
        <ele>70</ele>
        <time>2020-06-06T13:09:55Z</time>
      </trkpt>
      <trkpt lat="48.35857" lon="2.53666">
        <ele>70</ele>
        <time>2020-06-06T13:09:57Z</time>
      </trkpt>
      <trkpt lat="48.35859" lon="2.53652">
        <ele>70</ele>
        <time>2020-06-06T13:09:59Z</time>
      </trkpt>
      <trkpt lat="48.35862" lon="2.53639">
        <ele>70</ele>
        <time>2020-06-06T13:10:01Z</time>
      </trkpt>
      <trkpt lat="48.35865" lon="2.53627">
        <ele>70</ele>
        <time>2020-06-06T13:10:03Z</time>
      </trkpt>
      <trkpt lat="48.35868" lon="2.53614">
        <ele>70</ele>
        <time>2020-06-06T13:10:05Z</time>
      </trkpt>
      <trkpt lat="48.35871" lon="2.53601">
        <ele>70</ele>
        <time>2020-06-06T13:10:07Z</time>
      </trkpt>
      <trkpt lat="48.35874" lon="2.53588">
        <ele>70</ele>
        <time>2020-06-06T13:10:09Z</time>
      </trkpt>
      <trkpt lat="48.35876" lon="2.53574">
        <ele>70</ele>
        <time>2020-06-06T13:10:11Z</time>
      </trkpt>
      <trkpt lat="48.3588" lon="2.53561">
        <ele>70</ele>
        <time>2020-06-06T13:10:13Z</time>
      </trkpt>
      <trkpt lat="48.35882" lon="2.53547">
        <ele>70</ele>
        <time>2020-06-06T13:10:15Z</time>
      </trkpt>
      <trkpt lat="48.35885" lon="2.53534">
        <ele>70</ele>
        <time>2020-06-06T13:10:17Z</time>
      </trkpt>
      <trkpt lat="48.35888" lon="2.5352">
        <ele>70</ele>
        <time>2020-06-06T13:10:19Z</time>
      </trkpt>
      <trkpt lat="48.35891" lon="2.53507">
        <ele>70</ele>
        <time>2020-06-06T13:10:21Z</time>
      </trkpt>
      <trkpt lat="48.35894" lon="2.53494">
        <ele>70</ele>
        <time>2020-06-06T13:10:23Z</time>
      </trkpt>
      <trkpt lat="48.35896" lon="2.53481">
        <ele>70</ele>
        <time>2020-06-06T13:10:25Z</time>
      </trkpt>
      <trkpt lat="48.359" lon="2.53468">
        <ele>70</ele>
        <time>2020-06-06T13:10:27Z</time>
      </trkpt>
      <trkpt lat="48.35905" lon="2.53456">
        <ele>70</ele>
        <time>2020-06-06T13:10:29Z</time>
      </trkpt>
      <trkpt lat="48.35909" lon="2.53445">
        <ele>70</ele>
        <time>2020-06-06T13:10:31Z</time>
      </trkpt>
      <trkpt lat="48.35914" lon="2.53434">
        <ele>70</ele>
        <time>2020-06-06T13:10:33Z</time>
      </trkpt>
      <trkpt lat="48.35918" lon="2.53422">
        <ele>70</ele>
        <time>2020-06-06T13:10:35Z</time>
      </trkpt>
      <trkpt lat="48.3592" lon="2.53409">
        <ele>70</ele>
        <time>2020-06-06T13:10:37Z</time>
      </trkpt>
      <trkpt lat="48.35922" lon="2.53397">
        <ele>70</ele>
        <time>2020-06-06T13:10:39Z</time>
      </trkpt>
      <trkpt lat="48.35924" lon="2.53384">
        <ele>69.9</ele>
        <time>2020-06-06T13:10:41Z</time>
      </trkpt>
      <trkpt lat="48.35926" lon="2.53372">
        <ele>69.6</ele>
        <time>2020-06-06T13:10:43Z</time>
      </trkpt>
      <trkpt lat="48.35928" lon="2.53361">
        <ele>69.4</ele>
        <time>2020-06-06T13:10:45Z</time>
      </trkpt>
      <trkpt lat="48.35931" lon="2.53349">
        <ele>69.5</ele>
        <time>2020-06-06T13:10:47Z</time>
      </trkpt>
      <trkpt lat="48.35933" lon="2.53336">
        <ele>69.6</ele>
        <time>2020-06-06T13:10:49Z</time>
      </trkpt>
      <trkpt lat="48.35935" lon="2.53326">
        <ele>69.7</ele>
        <time>2020-06-06T13:10:51Z</time>
      </trkpt>
      <trkpt lat="48.35935" lon="2.53315">
        <ele>69.7</ele>
        <time>2020-06-06T13:10:53Z</time>
      </trkpt>
      <trkpt lat="48.35936" lon="2.53304">
        <ele>69.7</ele>
        <time>2020-06-06T13:10:55Z</time>
      </trkpt>
      <trkpt lat="48.35938" lon="2.53294">
        <ele>69.4</ele>
        <time>2020-06-06T13:10:57Z</time>
      </trkpt>
      <trkpt lat="48.3594" lon="2.53283">
        <ele>69.2</ele>
        <time>2020-06-06T13:10:59Z</time>
      </trkpt>
      <trkpt lat="48.35942" lon="2.53272">
        <ele>69</ele>
        <time>2020-06-06T13:11:01Z</time>
      </trkpt>
      <trkpt lat="48.35945" lon="2.53262">
        <ele>69</ele>
        <time>2020-06-06T13:11:03Z</time>
      </trkpt>
      <trkpt lat="48.35948" lon="2.53251">
        <ele>69.1</ele>
        <time>2020-06-06T13:11:05Z</time>
      </trkpt>
      <trkpt lat="48.3595" lon="2.53239">
        <ele>69.1</ele>
        <time>2020-06-06T13:11:07Z</time>
      </trkpt>
      <trkpt lat="48.35953" lon="2.53227">
        <ele>69.1</ele>
        <time>2020-06-06T13:11:09Z</time>
      </trkpt>
      <trkpt lat="48.35955" lon="2.53215">
        <ele>69</ele>
        <time>2020-06-06T13:11:11Z</time>
      </trkpt>
      <trkpt lat="48.35958" lon="2.53204">
        <ele>69</ele>
        <time>2020-06-06T13:11:13Z</time>
      </trkpt>
      <trkpt lat="48.3596" lon="2.53192">
        <ele>69</ele>
        <time>2020-06-06T13:11:15Z</time>
      </trkpt>
      <trkpt lat="48.35964" lon="2.53181">
        <ele>68.7</ele>
        <time>2020-06-06T13:11:17Z</time>
      </trkpt>
      <trkpt lat="48.35968" lon="2.5317">
        <ele>68.3</ele>
        <time>2020-06-06T13:11:19Z</time>
      </trkpt>
      <trkpt lat="48.35972" lon="2.53158">
        <ele>68</ele>
        <time>2020-06-06T13:11:21Z</time>
      </trkpt>
      <trkpt lat="48.35976" lon="2.53148">
        <ele>68.1</ele>
        <time>2020-06-06T13:11:23Z</time>
      </trkpt>
      <trkpt lat="48.3598" lon="2.53137">
        <ele>68.3</ele>
        <time>2020-06-06T13:11:25Z</time>
      </trkpt>
      <trkpt lat="48.35984" lon="2.53128">
        <ele>68.3</ele>
        <time>2020-06-06T13:11:27Z</time>
      </trkpt>
      <trkpt lat="48.35989" lon="2.53116">
        <ele>68.1</ele>
        <time>2020-06-06T13:11:29Z</time>
      </trkpt>
      <trkpt lat="48.35994" lon="2.53105">
        <ele>68</ele>
        <time>2020-06-06T13:11:31Z</time>
      </trkpt>
      <trkpt lat="48.35999" lon="2.53095">
        <ele>68</ele>
        <time>2020-06-06T13:11:33Z</time>
      </trkpt>
      <trkpt lat="48.36002" lon="2.53083">
        <ele>68.1</ele>
        <time>2020-06-06T13:11:35Z</time>
      </trkpt>
      <trkpt lat="48.36006" lon="2.53071">
        <ele>68.2</ele>
        <time>2020-06-06T13:11:37Z</time>
      </trkpt>
      <trkpt lat="48.36009" lon="2.53058">
        <ele>68.3</ele>
        <time>2020-06-06T13:11:39Z</time>
      </trkpt>
      <trkpt lat="48.36013" lon="2.53047">
        <ele>68.5</ele>
        <time>2020-06-06T13:11:41Z</time>
      </trkpt>
      <trkpt lat="48.36015" lon="2.53036">
        <ele>68.5</ele>
        <time>2020-06-06T13:11:43Z</time>
      </trkpt>
      <trkpt lat="48.36019" lon="2.53025">
        <ele>68.6</ele>
        <time>2020-06-06T13:11:45Z</time>
      </trkpt>
      <trkpt lat="48.36022" lon="2.53015">
        <ele>68.4</ele>
        <time>2020-06-06T13:11:47Z</time>
      </trkpt>
      <trkpt lat="48.36026" lon="2.53005">
        <ele>68.2</ele>
        <time>2020-06-06T13:11:49Z</time>
      </trkpt>
      <trkpt lat="48.36031" lon="2.52995">
        <ele>68.1</ele>
        <time>2020-06-06T13:11:51Z</time>
      </trkpt>
      <trkpt lat="48.36035" lon="2.52984">
        <ele>68.3</ele>
        <time>2020-06-06T13:11:53Z</time>
      </trkpt>
      <trkpt lat="48.36039" lon="2.52974">
        <ele>68.4</ele>
        <time>2020-06-06T13:11:55Z</time>
      </trkpt>
      <trkpt lat="48.36043" lon="2.52964">
        <ele>68.5</ele>
        <time>2020-06-06T13:11:57Z</time>
      </trkpt>
      <trkpt lat="48.36048" lon="2.52954">
        <ele>68.7</ele>
        <time>2020-06-06T13:11:59Z</time>
      </trkpt>
      <trkpt lat="48.36051" lon="2.52944">
        <ele>68.8</ele>
        <time>2020-06-06T13:12:01Z</time>
      </trkpt>
      <trkpt lat="48.36056" lon="2.52934">
        <ele>69</ele>
        <time>2020-06-06T13:12:03Z</time>
      </trkpt>
      <trkpt lat="48.36059" lon="2.52924">
        <ele>69.1</ele>
        <time>2020-06-06T13:12:05Z</time>
      </trkpt>
      <trkpt lat="48.36064" lon="2.52915">
        <ele>69.3</ele>
        <time>2020-06-06T13:12:07Z</time>
      </trkpt>
      <trkpt lat="48.36069" lon="2.52907">
        <ele>69.3</ele>
        <time>2020-06-06T13:12:09Z</time>
      </trkpt>
      <trkpt lat="48.36073" lon="2.529">
        <ele>69.3</ele>
        <time>2020-06-06T13:12:11Z</time>
      </trkpt>
      <trkpt lat="48.36078" lon="2.52895">
        <ele>69.2</ele>
        <time>2020-06-06T13:12:13Z</time>
      </trkpt>
      <trkpt lat="48.36084" lon="2.52889">
        <ele>69.1</ele>
        <time>2020-06-06T13:12:15Z</time>
      </trkpt>
      <trkpt lat="48.36089" lon="2.52879">
        <ele>69.3</ele>
        <time>2020-06-06T13:12:17Z</time>
      </trkpt>
      <trkpt lat="48.36095" lon="2.52871">
        <ele>69.6</ele>
        <time>2020-06-06T13:12:19Z</time>
      </trkpt>
      <trkpt lat="48.36099" lon="2.52863">
        <ele>69.6</ele>
        <time>2020-06-06T13:12:21Z</time>
      </trkpt>
      <trkpt lat="48.36104" lon="2.52854">
        <ele>69.6</ele>
        <time>2020-06-06T13:12:23Z</time>
      </trkpt>
      <trkpt lat="48.36109" lon="2.52844">
        <ele>69.4</ele>
        <time>2020-06-06T13:12:25Z</time>
      </trkpt>
      <trkpt lat="48.36114" lon="2.52835">
        <ele>69.1</ele>
        <time>2020-06-06T13:12:27Z</time>
      </trkpt>
      <trkpt lat="48.36117" lon="2.52825">
        <ele>68.8</ele>
        <time>2020-06-06T13:12:29Z</time>
      </trkpt>
      <trkpt lat="48.36121" lon="2.52816">
        <ele>68.6</ele>
        <time>2020-06-06T13:12:31Z</time>
      </trkpt>
      <trkpt lat="48.36126" lon="2.52805">
        <ele>68.5</ele>
        <time>2020-06-06T13:12:33Z</time>
      </trkpt>
      <trkpt lat="48.36131" lon="2.52796">
        <ele>68.5</ele>
        <time>2020-06-06T13:12:35Z</time>
      </trkpt>
      <trkpt lat="48.36135" lon="2.52787">
        <ele>68.3</ele>
        <time>2020-06-06T13:12:37Z</time>
      </trkpt>
      <trkpt lat="48.36138" lon="2.5278">
        <ele>68.1</ele>
        <time>2020-06-06T13:12:39Z</time>
      </trkpt>
      <trkpt lat="48.36143" lon="2.5277">
        <ele>68</ele>
        <time>2020-06-06T13:12:41Z</time>
      </trkpt>
      <trkpt lat="48.36148" lon="2.52761">
        <ele>68</ele>
        <time>2020-06-06T13:12:43Z</time>
      </trkpt>
      <trkpt lat="48.36154" lon="2.52755">
        <ele>68</ele>
        <time>2020-06-06T13:12:45Z</time>
      </trkpt>
      <trkpt lat="48.36158" lon="2.52744">
        <ele>68</ele>
        <time>2020-06-06T13:12:47Z</time>
      </trkpt>
      <trkpt lat="48.36164" lon="2.52736">
        <ele>68</ele>
        <time>2020-06-06T13:12:49Z</time>
      </trkpt>
      <trkpt lat="48.36168" lon="2.52725">
        <ele>68</ele>
        <time>2020-06-06T13:12:51Z</time>
      </trkpt>
      <trkpt lat="48.36172" lon="2.52714">
        <ele>68</ele>
        <time>2020-06-06T13:12:53Z</time>
      </trkpt>
      <trkpt lat="48.36177" lon="2.52706">
        <ele>68</ele>
        <time>2020-06-06T13:12:55Z</time>
      </trkpt>
      <trkpt lat="48.36182" lon="2.527">
        <ele>68</ele>
        <time>2020-06-06T13:12:57Z</time>
      </trkpt>
      <trkpt lat="48.3619" lon="2.52702">
        <ele>68</ele>
        <time>2020-06-06T13:13:01Z</time>
      </trkpt>
      <trkpt lat="48.36197" lon="2.52708">
        <ele>68</ele>
        <time>2020-06-06T13:13:05Z</time>
      </trkpt>
      <trkpt lat="48.36199" lon="2.52714">
        <ele>68</ele>
        <time>2020-06-06T13:13:07Z</time>
      </trkpt>
      <trkpt lat="48.36205" lon="2.52725">
        <ele>68</ele>
        <time>2020-06-06T13:13:11Z</time>
      </trkpt>
      <trkpt lat="48.36207" lon="2.52732">
        <ele>68</ele>
        <time>2020-06-06T13:13:13Z</time>
      </trkpt>
      <trkpt lat="48.3621" lon="2.52742">
        <ele>68</ele>
        <time>2020-06-06T13:13:17Z</time>
      </trkpt>
      <trkpt lat="48.36212" lon="2.5275">
        <ele>68</ele>
        <time>2020-06-06T13:13:21Z</time>
      </trkpt>
      <trkpt lat="48.36215" lon="2.5276">
        <ele>68.1</ele>
        <time>2020-06-06T13:13:25Z</time>
      </trkpt>
      <trkpt lat="48.36218" lon="2.52766">
        <ele>68.1</ele>
        <time>2020-06-06T13:13:27Z</time>
      </trkpt>
      <trkpt lat="48.36224" lon="2.52779">
        <ele>68</ele>
        <time>2020-06-06T13:13:31Z</time>
      </trkpt>
      <trkpt lat="48.36228" lon="2.52784">
        <ele>68.2</ele>
        <time>2020-06-06T13:13:33Z</time>
      </trkpt>
      <trkpt lat="48.36231" lon="2.52797">
        <ele>68.7</ele>
        <time>2020-06-06T13:13:37Z</time>
      </trkpt>
      <trkpt lat="48.36235" lon="2.52811">
        <ele>69</ele>
        <time>2020-06-06T13:13:41Z</time>
      </trkpt>
      <trkpt lat="48.3624" lon="2.52811">
        <ele>69</ele>
        <time>2020-06-06T13:13:43Z</time>
      </trkpt>
      <trkpt lat="48.36245" lon="2.52808">
        <ele>69</ele>
        <time>2020-06-06T13:13:45Z</time>
      </trkpt>
      <trkpt lat="48.3625" lon="2.52802">
        <ele>68.9</ele>
        <time>2020-06-06T13:13:47Z</time>
      </trkpt>
      <trkpt lat="48.36256" lon="2.528">
        <ele>68.6</ele>
        <time>2020-06-06T13:13:49Z</time>
      </trkpt>
      <trkpt lat="48.3626" lon="2.52799">
        <ele>68.5</ele>
        <time>2020-06-06T13:13:51Z</time>
      </trkpt>
      <trkpt lat="48.36266" lon="2.52798">
        <ele>68.3</ele>
        <time>2020-06-06T13:13:53Z</time>
      </trkpt>
      <trkpt lat="48.36274" lon="2.52795">
        <ele>68.1</ele>
        <time>2020-06-06T13:13:55Z</time>
      </trkpt>
      <trkpt lat="48.36282" lon="2.5279">
        <ele>68</ele>
        <time>2020-06-06T13:13:57Z</time>
      </trkpt>
      <trkpt lat="48.36288" lon="2.52788">
        <ele>68</ele>
        <time>2020-06-06T13:13:59Z</time>
      </trkpt>
      <trkpt lat="48.36295" lon="2.52784">
        <ele>68</ele>
        <time>2020-06-06T13:14:01Z</time>
      </trkpt>
      <trkpt lat="48.36301" lon="2.52781">
        <ele>68</ele>
        <time>2020-06-06T13:14:03Z</time>
      </trkpt>
      <trkpt lat="48.36309" lon="2.52779">
        <ele>68</ele>
        <time>2020-06-06T13:14:05Z</time>
      </trkpt>
      <trkpt lat="48.36315" lon="2.52773">
        <ele>68</ele>
        <time>2020-06-06T13:14:07Z</time>
      </trkpt>
      <trkpt lat="48.36321" lon="2.52767">
        <ele>68</ele>
        <time>2020-06-06T13:14:09Z</time>
      </trkpt>
      <trkpt lat="48.36326" lon="2.52761">
        <ele>68</ele>
        <time>2020-06-06T13:14:11Z</time>
      </trkpt>
      <trkpt lat="48.36333" lon="2.52758">
        <ele>68</ele>
        <time>2020-06-06T13:14:13Z</time>
      </trkpt>
      <trkpt lat="48.3634" lon="2.52753">
        <ele>68</ele>
        <time>2020-06-06T13:14:15Z</time>
      </trkpt>
      <trkpt lat="48.36346" lon="2.52747">
        <ele>68</ele>
        <time>2020-06-06T13:14:17Z</time>
      </trkpt>
      <trkpt lat="48.36354" lon="2.52746">
        <ele>68</ele>
        <time>2020-06-06T13:14:19Z</time>
      </trkpt>
      <trkpt lat="48.36363" lon="2.52746">
        <ele>68</ele>
        <time>2020-06-06T13:14:21Z</time>
      </trkpt>
      <trkpt lat="48.36373" lon="2.52748">
        <ele>68</ele>
        <time>2020-06-06T13:14:23Z</time>
      </trkpt>
      <trkpt lat="48.36379" lon="2.52747">
        <ele>68</ele>
        <time>2020-06-06T13:14:25Z</time>
      </trkpt>
      <trkpt lat="48.36385" lon="2.52741">
        <ele>68</ele>
        <time>2020-06-06T13:14:27Z</time>
      </trkpt>
      <trkpt lat="48.36392" lon="2.52738">
        <ele>68</ele>
        <time>2020-06-06T13:14:29Z</time>
      </trkpt>
      <trkpt lat="48.36399" lon="2.52734">
        <ele>68.2</ele>
        <time>2020-06-06T13:14:31Z</time>
      </trkpt>
      <trkpt lat="48.36402" lon="2.52725">
        <ele>68.4</ele>
        <time>2020-06-06T13:14:33Z</time>
      </trkpt>
      <trkpt lat="48.36406" lon="2.52718">
        <ele>68.8</ele>
        <time>2020-06-06T13:14:37Z</time>
      </trkpt>
      <trkpt lat="48.36413" lon="2.52711">
        <ele>69.3</ele>
        <time>2020-06-06T13:14:41Z</time>
      </trkpt>
      <trkpt lat="48.36418" lon="2.52709">
        <ele>69.5</ele>
        <time>2020-06-06T13:14:43Z</time>
      </trkpt>
      <trkpt lat="48.36425" lon="2.5271">
        <ele>69.6</ele>
        <time>2020-06-06T13:14:45Z</time>
      </trkpt>
      <trkpt lat="48.36432" lon="2.52712">
        <ele>69.7</ele>
        <time>2020-06-06T13:14:47Z</time>
      </trkpt>
      <trkpt lat="48.36438" lon="2.52712">
        <ele>69.9</ele>
        <time>2020-06-06T13:14:49Z</time>
      </trkpt>
      <trkpt lat="48.36443" lon="2.52714">
        <ele>70</ele>
        <time>2020-06-06T13:14:51Z</time>
      </trkpt>
      <trkpt lat="48.3645" lon="2.52714">
        <ele>70.1</ele>
        <time>2020-06-06T13:14:53Z</time>
      </trkpt>
      <trkpt lat="48.36456" lon="2.52714">
        <ele>70.1</ele>
        <time>2020-06-06T13:14:55Z</time>
      </trkpt>
      <trkpt lat="48.36462" lon="2.52713">
        <ele>70.2</ele>
        <time>2020-06-06T13:14:57Z</time>
      </trkpt>
      <trkpt lat="48.36468" lon="2.52712">
        <ele>70.3</ele>
        <time>2020-06-06T13:14:59Z</time>
      </trkpt>
      <trkpt lat="48.36472" lon="2.52709">
        <ele>70.5</ele>
        <time>2020-06-06T13:15:01Z</time>
      </trkpt>
      <trkpt lat="48.36478" lon="2.52705">
        <ele>70.6</ele>
        <time>2020-06-06T13:15:03Z</time>
      </trkpt>
      <trkpt lat="48.36483" lon="2.52702">
        <ele>70.7</ele>
        <time>2020-06-06T13:15:05Z</time>
      </trkpt>
      <trkpt lat="48.36488" lon="2.52697">
        <ele>70.9</ele>
        <time>2020-06-06T13:15:07Z</time>
      </trkpt>
      <trkpt lat="48.36494" lon="2.52693">
        <ele>71</ele>
        <time>2020-06-06T13:15:09Z</time>
      </trkpt>
      <trkpt lat="48.36499" lon="2.52689">
        <ele>71</ele>
        <time>2020-06-06T13:15:11Z</time>
      </trkpt>
      <trkpt lat="48.36504" lon="2.52686">
        <ele>70.9</ele>
        <time>2020-06-06T13:15:13Z</time>
      </trkpt>
      <trkpt lat="48.36513" lon="2.52684">
        <ele>70.5</ele>
        <time>2020-06-06T13:15:15Z</time>
      </trkpt>
      <trkpt lat="48.3652" lon="2.52679">
        <ele>70.3</ele>
        <time>2020-06-06T13:15:17Z</time>
      </trkpt>
      <trkpt lat="48.36529" lon="2.52676">
        <ele>70</ele>
        <time>2020-06-06T13:15:19Z</time>
      </trkpt>
      <trkpt lat="48.36537" lon="2.52676">
        <ele>70</ele>
        <time>2020-06-06T13:15:21Z</time>
      </trkpt>
      <trkpt lat="48.36543" lon="2.52676">
        <ele>70</ele>
        <time>2020-06-06T13:15:23Z</time>
      </trkpt>
      <trkpt lat="48.36549" lon="2.52676">
        <ele>70</ele>
        <time>2020-06-06T13:15:25Z</time>
      </trkpt>
      <trkpt lat="48.36554" lon="2.52677">
        <ele>70</ele>
        <time>2020-06-06T13:15:27Z</time>
      </trkpt>
      <trkpt lat="48.36565" lon="2.52675">
        <ele>70</ele>
        <time>2020-06-06T13:15:31Z</time>
      </trkpt>
      <trkpt lat="48.36573" lon="2.52674">
        <ele>70</ele>
        <time>2020-06-06T13:15:33Z</time>
      </trkpt>
      <trkpt lat="48.36582" lon="2.52671">
        <ele>70</ele>
        <time>2020-06-06T13:15:35Z</time>
      </trkpt>
      <trkpt lat="48.36589" lon="2.52669">
        <ele>70</ele>
        <time>2020-06-06T13:15:37Z</time>
      </trkpt>
      <trkpt lat="48.36595" lon="2.52662">
        <ele>69.9</ele>
        <time>2020-06-06T13:15:39Z</time>
      </trkpt>
      <trkpt lat="48.366" lon="2.52657">
        <ele>69.8</ele>
        <time>2020-06-06T13:15:41Z</time>
      </trkpt>
      <trkpt lat="48.36606" lon="2.52653">
        <ele>69.6</ele>
        <time>2020-06-06T13:15:43Z</time>
      </trkpt>
      <trkpt lat="48.36617" lon="2.52649">
        <ele>69.3</ele>
        <time>2020-06-06T13:15:47Z</time>
      </trkpt>
      <trkpt lat="48.36628" lon="2.52644">
        <ele>69.1</ele>
        <time>2020-06-06T13:15:51Z</time>
      </trkpt>
      <trkpt lat="48.36635" lon="2.52645">
        <ele>69</ele>
        <time>2020-06-06T13:15:53Z</time>
      </trkpt>
      <trkpt lat="48.36643" lon="2.52642">
        <ele>69</ele>
        <time>2020-06-06T13:15:55Z</time>
      </trkpt>
      <trkpt lat="48.36653" lon="2.52644">
        <ele>68.9</ele>
        <time>2020-06-06T13:15:57Z</time>
      </trkpt>
      <trkpt lat="48.36661" lon="2.52647">
        <ele>68.8</ele>
        <time>2020-06-06T13:15:59Z</time>
      </trkpt>
      <trkpt lat="48.3667" lon="2.52648">
        <ele>68.7</ele>
        <time>2020-06-06T13:16:01Z</time>
      </trkpt>
      <trkpt lat="48.36677" lon="2.52649">
        <ele>68.6</ele>
        <time>2020-06-06T13:16:03Z</time>
      </trkpt>
      <trkpt lat="48.36684" lon="2.5265">
        <ele>68.6</ele>
        <time>2020-06-06T13:16:05Z</time>
      </trkpt>
      <trkpt lat="48.36692" lon="2.52652">
        <ele>68.5</ele>
        <time>2020-06-06T13:16:07Z</time>
      </trkpt>
      <trkpt lat="48.367" lon="2.52655">
        <ele>68.6</ele>
        <time>2020-06-06T13:16:09Z</time>
      </trkpt>
      <trkpt lat="48.36709" lon="2.52657">
        <ele>68.9</ele>
        <time>2020-06-06T13:16:11Z</time>
      </trkpt>
      <trkpt lat="48.36717" lon="2.52657">
        <ele>69.2</ele>
        <time>2020-06-06T13:16:13Z</time>
      </trkpt>
      <trkpt lat="48.36725" lon="2.52655">
        <ele>69.4</ele>
        <time>2020-06-06T13:16:15Z</time>
      </trkpt>
      <trkpt lat="48.36732" lon="2.5265">
        <ele>69.6</ele>
        <time>2020-06-06T13:16:17Z</time>
      </trkpt>
      <trkpt lat="48.36738" lon="2.52645">
        <ele>69.8</ele>
        <time>2020-06-06T13:16:19Z</time>
      </trkpt>
      <trkpt lat="48.36744" lon="2.52639">
        <ele>70</ele>
        <time>2020-06-06T13:16:21Z</time>
      </trkpt>
      <trkpt lat="48.36749" lon="2.52632">
        <ele>70</ele>
        <time>2020-06-06T13:16:23Z</time>
      </trkpt>
      <trkpt lat="48.36756" lon="2.52625">
        <ele>69.9</ele>
        <time>2020-06-06T13:16:25Z</time>
      </trkpt>
      <trkpt lat="48.36763" lon="2.52616">
        <ele>69.9</ele>
        <time>2020-06-06T13:16:27Z</time>
      </trkpt>
      <trkpt lat="48.36769" lon="2.52611">
        <ele>70</ele>
        <time>2020-06-06T13:16:29Z</time>
      </trkpt>
      <trkpt lat="48.36772" lon="2.52605">
        <ele>70.2</ele>
        <time>2020-06-06T13:16:31Z</time>
      </trkpt>
      <trkpt lat="48.36778" lon="2.52597">
        <ele>70.5</ele>
        <time>2020-06-06T13:16:33Z</time>
      </trkpt>
      <trkpt lat="48.36784" lon="2.5259">
        <ele>71</ele>
        <time>2020-06-06T13:16:35Z</time>
      </trkpt>
      <trkpt lat="48.36791" lon="2.52583">
        <ele>71.5</ele>
        <time>2020-06-06T13:16:37Z</time>
      </trkpt>
      <trkpt lat="48.36795" lon="2.52575">
        <ele>71.7</ele>
        <time>2020-06-06T13:16:39Z</time>
      </trkpt>
      <trkpt lat="48.36799" lon="2.5257">
        <ele>71.9</ele>
        <time>2020-06-06T13:16:41Z</time>
      </trkpt>
      <trkpt lat="48.36804" lon="2.52567">
        <ele>72</ele>
        <time>2020-06-06T13:16:43Z</time>
      </trkpt>
      <trkpt lat="48.36806" lon="2.52561">
        <ele>72</ele>
        <time>2020-06-06T13:16:45Z</time>
      </trkpt>
      <trkpt lat="48.36809" lon="2.52555">
        <ele>72</ele>
        <time>2020-06-06T13:16:47Z</time>
      </trkpt>
      <trkpt lat="48.36813" lon="2.52549">
        <ele>71.9</ele>
        <time>2020-06-06T13:16:49Z</time>
      </trkpt>
      <trkpt lat="48.36818" lon="2.52543">
        <ele>71.8</ele>
        <time>2020-06-06T13:16:51Z</time>
      </trkpt>
      <trkpt lat="48.36823" lon="2.52536">
        <ele>71.6</ele>
        <time>2020-06-06T13:16:53Z</time>
      </trkpt>
      <trkpt lat="48.36829" lon="2.52531">
        <ele>71.3</ele>
        <time>2020-06-06T13:16:55Z</time>
      </trkpt>
      <trkpt lat="48.36834" lon="2.52527">
        <ele>70.9</ele>
        <time>2020-06-06T13:16:57Z</time>
      </trkpt>
      <trkpt lat="48.36841" lon="2.52519">
        <ele>70.4</ele>
        <time>2020-06-06T13:16:59Z</time>
      </trkpt>
      <trkpt lat="48.36849" lon="2.52508">
        <ele>69.7</ele>
        <time>2020-06-06T13:17:01Z</time>
      </trkpt>
      <trkpt lat="48.36855" lon="2.52498">
        <ele>69.2</ele>
        <time>2020-06-06T13:17:03Z</time>
      </trkpt>
      <trkpt lat="48.36862" lon="2.52485">
        <ele>69</ele>
        <time>2020-06-06T13:17:05Z</time>
      </trkpt>
      <trkpt lat="48.36867" lon="2.52474">
        <ele>68.8</ele>
        <time>2020-06-06T13:17:07Z</time>
      </trkpt>
      <trkpt lat="48.36872" lon="2.52463">
        <ele>68.6</ele>
        <time>2020-06-06T13:17:09Z</time>
      </trkpt>
      <trkpt lat="48.36875" lon="2.52451">
        <ele>68.5</ele>
        <time>2020-06-06T13:17:11Z</time>
      </trkpt>
      <trkpt lat="48.36881" lon="2.52437">
        <ele>68.3</ele>
        <time>2020-06-06T13:17:13Z</time>
      </trkpt>
      <trkpt lat="48.36887" lon="2.52423">
        <ele>68.1</ele>
        <time>2020-06-06T13:17:15Z</time>
      </trkpt>
      <trkpt lat="48.36893" lon="2.52411">
        <ele>68</ele>
        <time>2020-06-06T13:17:17Z</time>
      </trkpt>
      <trkpt lat="48.36899" lon="2.52399">
        <ele>68</ele>
        <time>2020-06-06T13:17:19Z</time>
      </trkpt>
      <trkpt lat="48.36903" lon="2.52389">
        <ele>68</ele>
        <time>2020-06-06T13:17:21Z</time>
      </trkpt>
      <trkpt lat="48.36908" lon="2.5238">
        <ele>68</ele>
        <time>2020-06-06T13:17:23Z</time>
      </trkpt>
      <trkpt lat="48.36916" lon="2.5237">
        <ele>68</ele>
        <time>2020-06-06T13:17:25Z</time>
      </trkpt>
      <trkpt lat="48.36924" lon="2.5236">
        <ele>68</ele>
        <time>2020-06-06T13:17:27Z</time>
      </trkpt>
      <trkpt lat="48.36928" lon="2.52351">
        <ele>68</ele>
        <time>2020-06-06T13:17:29Z</time>
      </trkpt>
      <trkpt lat="48.36932" lon="2.52341">
        <ele>68</ele>
        <time>2020-06-06T13:17:31Z</time>
      </trkpt>
      <trkpt lat="48.36939" lon="2.52334">
        <ele>68</ele>
        <time>2020-06-06T13:17:33Z</time>
      </trkpt>
      <trkpt lat="48.36946" lon="2.52328">
        <ele>68</ele>
        <time>2020-06-06T13:17:35Z</time>
      </trkpt>
      <trkpt lat="48.36952" lon="2.52324">
        <ele>68</ele>
        <time>2020-06-06T13:17:37Z</time>
      </trkpt>
      <trkpt lat="48.36961" lon="2.52322">
        <ele>68</ele>
        <time>2020-06-06T13:17:39Z</time>
      </trkpt>
      <trkpt lat="48.36969" lon="2.52317">
        <ele>68</ele>
        <time>2020-06-06T13:17:41Z</time>
      </trkpt>
      <trkpt lat="48.36975" lon="2.52313">
        <ele>68.1</ele>
        <time>2020-06-06T13:17:43Z</time>
      </trkpt>
      <trkpt lat="48.36982" lon="2.52308">
        <ele>68.3</ele>
        <time>2020-06-06T13:17:45Z</time>
      </trkpt>
      <trkpt lat="48.36989" lon="2.52303">
        <ele>68.6</ele>
        <time>2020-06-06T13:17:47Z</time>
      </trkpt>
      <trkpt lat="48.36994" lon="2.52297">
        <ele>68.8</ele>
        <time>2020-06-06T13:17:49Z</time>
      </trkpt>
      <trkpt lat="48.37" lon="2.5229">
        <ele>69</ele>
        <time>2020-06-06T13:17:51Z</time>
      </trkpt>
      <trkpt lat="48.37006" lon="2.52286">
        <ele>69</ele>
        <time>2020-06-06T13:17:53Z</time>
      </trkpt>
      <trkpt lat="48.37014" lon="2.52282">
        <ele>69</ele>
        <time>2020-06-06T13:17:55Z</time>
      </trkpt>
      <trkpt lat="48.37021" lon="2.52278">
        <ele>69</ele>
        <time>2020-06-06T13:17:57Z</time>
      </trkpt>
      <trkpt lat="48.37027" lon="2.52275">
        <ele>69</ele>
        <time>2020-06-06T13:17:59Z</time>
      </trkpt>
      <trkpt lat="48.37034" lon="2.52271">
        <ele>69</ele>
        <time>2020-06-06T13:18:01Z</time>
      </trkpt>
      <trkpt lat="48.3704" lon="2.52268">
        <ele>69</ele>
        <time>2020-06-06T13:18:03Z</time>
      </trkpt>
      <trkpt lat="48.37046" lon="2.52263">
        <ele>69</ele>
        <time>2020-06-06T13:18:05Z</time>
      </trkpt>
      <trkpt lat="48.37052" lon="2.52258">
        <ele>69</ele>
        <time>2020-06-06T13:18:07Z</time>
      </trkpt>
      <trkpt lat="48.37061" lon="2.52252">
        <ele>69</ele>
        <time>2020-06-06T13:18:09Z</time>
      </trkpt>
      <trkpt lat="48.37069" lon="2.52246">
        <ele>69</ele>
        <time>2020-06-06T13:18:11Z</time>
      </trkpt>
      <trkpt lat="48.37078" lon="2.5224">
        <ele>69</ele>
        <time>2020-06-06T13:18:13Z</time>
      </trkpt>
      <trkpt lat="48.37086" lon="2.52233">
        <ele>69</ele>
        <time>2020-06-06T13:18:15Z</time>
      </trkpt>
      <trkpt lat="48.37092" lon="2.52225">
        <ele>69</ele>
        <time>2020-06-06T13:18:17Z</time>
      </trkpt>
      <trkpt lat="48.37099" lon="2.52221">
        <ele>69</ele>
        <time>2020-06-06T13:18:19Z</time>
      </trkpt>
      <trkpt lat="48.37107" lon="2.52214">
        <ele>69</ele>
        <time>2020-06-06T13:18:21Z</time>
      </trkpt>
      <trkpt lat="48.37115" lon="2.52208">
        <ele>69</ele>
        <time>2020-06-06T13:18:23Z</time>
      </trkpt>
      <trkpt lat="48.37122" lon="2.52203">
        <ele>69</ele>
        <time>2020-06-06T13:18:25Z</time>
      </trkpt>
      <trkpt lat="48.37129" lon="2.52198">
        <ele>69</ele>
        <time>2020-06-06T13:18:27Z</time>
      </trkpt>
      <trkpt lat="48.37137" lon="2.52194">
        <ele>69</ele>
        <time>2020-06-06T13:18:29Z</time>
      </trkpt>
      <trkpt lat="48.37145" lon="2.52191">
        <ele>69</ele>
        <time>2020-06-06T13:18:31Z</time>
      </trkpt>
      <trkpt lat="48.37152" lon="2.52186">
        <ele>69</ele>
        <time>2020-06-06T13:18:33Z</time>
      </trkpt>
      <trkpt lat="48.37158" lon="2.52178">
        <ele>69</ele>
        <time>2020-06-06T13:18:35Z</time>
      </trkpt>
      <trkpt lat="48.37163" lon="2.52172">
        <ele>69</ele>
        <time>2020-06-06T13:18:37Z</time>
      </trkpt>
      <trkpt lat="48.37167" lon="2.52166">
        <ele>69</ele>
        <time>2020-06-06T13:18:39Z</time>
      </trkpt>
      <trkpt lat="48.37172" lon="2.5216">
        <ele>69</ele>
        <time>2020-06-06T13:18:41Z</time>
      </trkpt>
      <trkpt lat="48.37171" lon="2.52152">
        <ele>69</ele>
        <time>2020-06-06T13:18:43Z</time>
      </trkpt>
      <trkpt lat="48.37169" lon="2.52144">
        <ele>69</ele>
        <time>2020-06-06T13:18:45Z</time>
      </trkpt>
      <trkpt lat="48.37168" lon="2.52136">
        <ele>69</ele>
        <time>2020-06-06T13:18:47Z</time>
      </trkpt>
      <trkpt lat="48.37168" lon="2.52128">
        <ele>69</ele>
        <time>2020-06-06T13:18:49Z</time>
      </trkpt>
      <trkpt lat="48.37165" lon="2.52115">
        <ele>69</ele>
        <time>2020-06-06T13:18:51Z</time>
      </trkpt>
      <trkpt lat="48.37163" lon="2.52105">
        <ele>69</ele>
        <time>2020-06-06T13:18:53Z</time>
      </trkpt>
      <trkpt lat="48.37162" lon="2.52094">
        <ele>69</ele>
        <time>2020-06-06T13:18:55Z</time>
      </trkpt>
      <trkpt lat="48.37159" lon="2.52082">
        <ele>69</ele>
        <time>2020-06-06T13:18:57Z</time>
      </trkpt>
      <trkpt lat="48.37158" lon="2.52069">
        <ele>69</ele>
        <time>2020-06-06T13:18:59Z</time>
      </trkpt>
      <trkpt lat="48.37158" lon="2.52055">
        <ele>69</ele>
        <time>2020-06-06T13:19:01Z</time>
      </trkpt>
      <trkpt lat="48.37155" lon="2.52042">
        <ele>68.7</ele>
        <time>2020-06-06T13:19:03Z</time>
      </trkpt>
      <trkpt lat="48.37152" lon="2.52027">
        <ele>68.5</ele>
        <time>2020-06-06T13:19:05Z</time>
      </trkpt>
      <trkpt lat="48.3715" lon="2.52013">
        <ele>68.6</ele>
        <time>2020-06-06T13:19:07Z</time>
      </trkpt>
      <trkpt lat="48.3715" lon="2.52001">
        <ele>68.6</ele>
        <time>2020-06-06T13:19:09Z</time>
      </trkpt>
      <trkpt lat="48.3715" lon="2.51988">
        <ele>68.6</ele>
        <time>2020-06-06T13:19:11Z</time>
      </trkpt>
      <trkpt lat="48.3715" lon="2.51975">
        <ele>68.6</ele>
        <time>2020-06-06T13:19:13Z</time>
      </trkpt>
      <trkpt lat="48.37151" lon="2.51963">
        <ele>68.6</ele>
        <time>2020-06-06T13:19:15Z</time>
      </trkpt>
      <trkpt lat="48.37149" lon="2.51949">
        <ele>68.6</ele>
        <time>2020-06-06T13:19:17Z</time>
      </trkpt>
      <trkpt lat="48.37148" lon="2.51936">
        <ele>68.5</ele>
        <time>2020-06-06T13:19:19Z</time>
      </trkpt>
      <trkpt lat="48.37147" lon="2.51923">
        <ele>68.2</ele>
        <time>2020-06-06T13:19:21Z</time>
      </trkpt>
      <trkpt lat="48.37144" lon="2.5191">
        <ele>68</ele>
        <time>2020-06-06T13:19:23Z</time>
      </trkpt>
      <trkpt lat="48.37142" lon="2.51898">
        <ele>68</ele>
        <time>2020-06-06T13:19:25Z</time>
      </trkpt>
      <trkpt lat="48.37139" lon="2.51884">
        <ele>68</ele>
        <time>2020-06-06T13:19:27Z</time>
      </trkpt>
      <trkpt lat="48.37137" lon="2.51871">
        <ele>68.1</ele>
        <time>2020-06-06T13:19:29Z</time>
      </trkpt>
      <trkpt lat="48.37134" lon="2.51857">
        <ele>68.2</ele>
        <time>2020-06-06T13:19:31Z</time>
      </trkpt>
      <trkpt lat="48.37131" lon="2.51843">
        <ele>68.3</ele>
        <time>2020-06-06T13:19:33Z</time>
      </trkpt>
      <trkpt lat="48.37125" lon="2.51829">
        <ele>68.5</ele>
        <time>2020-06-06T13:19:35Z</time>
      </trkpt>
      <trkpt lat="48.37121" lon="2.51816">
        <ele>68.6</ele>
        <time>2020-06-06T13:19:37Z</time>
      </trkpt>
      <trkpt lat="48.37117" lon="2.51803">
        <ele>68.7</ele>
        <time>2020-06-06T13:19:39Z</time>
      </trkpt>
      <trkpt lat="48.37113" lon="2.5179">
        <ele>68.4</ele>
        <time>2020-06-06T13:19:41Z</time>
      </trkpt>
      <trkpt lat="48.37112" lon="2.51775">
        <ele>68</ele>
        <time>2020-06-06T13:19:43Z</time>
      </trkpt>
      <trkpt lat="48.37109" lon="2.51759">
        <ele>68.1</ele>
        <time>2020-06-06T13:19:45Z</time>
      </trkpt>
      <trkpt lat="48.37107" lon="2.51745">
        <ele>68.1</ele>
        <time>2020-06-06T13:19:47Z</time>
      </trkpt>
      <trkpt lat="48.37103" lon="2.5173">
        <ele>68.3</ele>
        <time>2020-06-06T13:19:49Z</time>
      </trkpt>
      <trkpt lat="48.37101" lon="2.51715">
        <ele>68.3</ele>
        <time>2020-06-06T13:19:51Z</time>
      </trkpt>
      <trkpt lat="48.37098" lon="2.51701">
        <ele>68.1</ele>
        <time>2020-06-06T13:19:53Z</time>
      </trkpt>
      <trkpt lat="48.37097" lon="2.51688">
        <ele>68</ele>
        <time>2020-06-06T13:19:55Z</time>
      </trkpt>
      <trkpt lat="48.37095" lon="2.51672">
        <ele>68</ele>
        <time>2020-06-06T13:19:57Z</time>
      </trkpt>
      <trkpt lat="48.37095" lon="2.5166">
        <ele>68</ele>
        <time>2020-06-06T13:19:59Z</time>
      </trkpt>
      <trkpt lat="48.37093" lon="2.51644">
        <ele>68</ele>
        <time>2020-06-06T13:20:01Z</time>
      </trkpt>
      <trkpt lat="48.37091" lon="2.51629">
        <ele>68.1</ele>
        <time>2020-06-06T13:20:03Z</time>
      </trkpt>
      <trkpt lat="48.37087" lon="2.51614">
        <ele>68.1</ele>
        <time>2020-06-06T13:20:05Z</time>
      </trkpt>
      <trkpt lat="48.37085" lon="2.516">
        <ele>68.1</ele>
        <time>2020-06-06T13:20:07Z</time>
      </trkpt>
      <trkpt lat="48.37082" lon="2.51586">
        <ele>68</ele>
        <time>2020-06-06T13:20:09Z</time>
      </trkpt>
      <trkpt lat="48.37079" lon="2.51571">
        <ele>68</ele>
        <time>2020-06-06T13:20:11Z</time>
      </trkpt>
      <trkpt lat="48.37077" lon="2.51559">
        <ele>68</ele>
        <time>2020-06-06T13:20:13Z</time>
      </trkpt>
      <trkpt lat="48.37076" lon="2.51546">
        <ele>68.3</ele>
        <time>2020-06-06T13:20:15Z</time>
      </trkpt>
      <trkpt lat="48.37073" lon="2.51532">
        <ele>68.5</ele>
        <time>2020-06-06T13:20:17Z</time>
      </trkpt>
      <trkpt lat="48.37071" lon="2.51517">
        <ele>68.6</ele>
        <time>2020-06-06T13:20:19Z</time>
      </trkpt>
      <trkpt lat="48.37068" lon="2.51504">
        <ele>68.4</ele>
        <time>2020-06-06T13:20:21Z</time>
      </trkpt>
      <trkpt lat="48.37066" lon="2.51491">
        <ele>68.5</ele>
        <time>2020-06-06T13:20:23Z</time>
      </trkpt>
      <trkpt lat="48.37064" lon="2.5148">
        <ele>68.5</ele>
        <time>2020-06-06T13:20:25Z</time>
      </trkpt>
      <trkpt lat="48.37061" lon="2.51466">
        <ele>68.4</ele>
        <time>2020-06-06T13:20:27Z</time>
      </trkpt>
      <trkpt lat="48.37057" lon="2.51452">
        <ele>68.1</ele>
        <time>2020-06-06T13:20:29Z</time>
      </trkpt>
      <trkpt lat="48.37053" lon="2.51437">
        <ele>68.2</ele>
        <time>2020-06-06T13:20:31Z</time>
      </trkpt>
      <trkpt lat="48.37051" lon="2.51425">
        <ele>68.4</ele>
        <time>2020-06-06T13:20:33Z</time>
      </trkpt>
      <trkpt lat="48.37048" lon="2.51413">
        <ele>68.6</ele>
        <time>2020-06-06T13:20:35Z</time>
      </trkpt>
      <trkpt lat="48.37044" lon="2.51399">
        <ele>68.8</ele>
        <time>2020-06-06T13:20:37Z</time>
      </trkpt>
      <trkpt lat="48.37042" lon="2.51388">
        <ele>69</ele>
        <time>2020-06-06T13:20:39Z</time>
      </trkpt>
      <trkpt lat="48.3704" lon="2.51374">
        <ele>69.2</ele>
        <time>2020-06-06T13:20:41Z</time>
      </trkpt>
      <trkpt lat="48.37039" lon="2.51363">
        <ele>69.4</ele>
        <time>2020-06-06T13:20:43Z</time>
      </trkpt>
      <trkpt lat="48.37039" lon="2.51353">
        <ele>69.5</ele>
        <time>2020-06-06T13:20:45Z</time>
      </trkpt>
      <trkpt lat="48.37039" lon="2.51343">
        <ele>69.7</ele>
        <time>2020-06-06T13:20:47Z</time>
      </trkpt>
      <trkpt lat="48.3704" lon="2.51335">
        <ele>69.9</ele>
        <time>2020-06-06T13:20:49Z</time>
      </trkpt>
      <trkpt lat="48.3704" lon="2.51326">
        <ele>70</ele>
        <time>2020-06-06T13:20:51Z</time>
      </trkpt>
      <trkpt lat="48.37043" lon="2.5132">
        <ele>70.3</ele>
        <time>2020-06-06T13:20:53Z</time>
      </trkpt>
      <trkpt lat="48.37045" lon="2.51312">
        <ele>70.5</ele>
        <time>2020-06-06T13:20:55Z</time>
      </trkpt>
      <trkpt lat="48.3705" lon="2.51304">
        <ele>70.8</ele>
        <time>2020-06-06T13:20:57Z</time>
      </trkpt>
      <trkpt lat="48.37055" lon="2.51296">
        <ele>71</ele>
        <time>2020-06-06T13:20:59Z</time>
      </trkpt>
      <trkpt lat="48.37059" lon="2.51287">
        <ele>71.2</ele>
        <time>2020-06-06T13:21:01Z</time>
      </trkpt>
      <trkpt lat="48.37061" lon="2.51279">
        <ele>71.4</ele>
        <time>2020-06-06T13:21:03Z</time>
      </trkpt>
      <trkpt lat="48.37062" lon="2.51267">
        <ele>71.5</ele>
        <time>2020-06-06T13:21:05Z</time>
      </trkpt>
      <trkpt lat="48.37059" lon="2.51255">
        <ele>71.2</ele>
        <time>2020-06-06T13:21:07Z</time>
      </trkpt>
      <trkpt lat="48.37057" lon="2.51243">
        <ele>71.1</ele>
        <time>2020-06-06T13:21:09Z</time>
      </trkpt>
      <trkpt lat="48.37055" lon="2.51231">
        <ele>71</ele>
        <time>2020-06-06T13:21:11Z</time>
      </trkpt>
      <trkpt lat="48.37052" lon="2.51223">
        <ele>70.9</ele>
        <time>2020-06-06T13:21:13Z</time>
      </trkpt>
      <trkpt lat="48.37052" lon="2.51216">
        <ele>70.9</ele>
        <time>2020-06-06T13:21:15Z</time>
      </trkpt>
      <trkpt lat="48.37051" lon="2.51209">
        <ele>70.8</ele>
        <time>2020-06-06T13:21:17Z</time>
      </trkpt>
      <trkpt lat="48.37047" lon="2.51202">
        <ele>70.7</ele>
        <time>2020-06-06T13:21:19Z</time>
      </trkpt>
      <trkpt lat="48.37044" lon="2.51192">
        <ele>70.6</ele>
        <time>2020-06-06T13:21:21Z</time>
      </trkpt>
      <trkpt lat="48.37038" lon="2.51182">
        <ele>70.4</ele>
        <time>2020-06-06T13:21:23Z</time>
      </trkpt>
      <trkpt lat="48.37033" lon="2.51171">
        <ele>70.2</ele>
        <time>2020-06-06T13:21:25Z</time>
      </trkpt>
      <trkpt lat="48.3703" lon="2.51158">
        <ele>69.8</ele>
        <time>2020-06-06T13:21:27Z</time>
      </trkpt>
      <trkpt lat="48.37026" lon="2.51146">
        <ele>69.2</ele>
        <time>2020-06-06T13:21:29Z</time>
      </trkpt>
      <trkpt lat="48.37022" lon="2.51136">
        <ele>69</ele>
        <time>2020-06-06T13:21:31Z</time>
      </trkpt>
      <trkpt lat="48.37019" lon="2.51129">
        <ele>69</ele>
        <time>2020-06-06T13:21:33Z</time>
      </trkpt>
      <trkpt lat="48.37016" lon="2.51121">
        <ele>69</ele>
        <time>2020-06-06T13:21:35Z</time>
      </trkpt>
      <trkpt lat="48.37017" lon="2.51108">
        <ele>69</ele>
        <time>2020-06-06T13:21:39Z</time>
      </trkpt>
      <trkpt lat="48.37021" lon="2.511">
        <ele>69</ele>
        <time>2020-06-06T13:21:41Z</time>
      </trkpt>
      <trkpt lat="48.37027" lon="2.51091">
        <ele>69</ele>
        <time>2020-06-06T13:21:43Z</time>
      </trkpt>
      <trkpt lat="48.37032" lon="2.51081">
        <ele>69</ele>
        <time>2020-06-06T13:21:45Z</time>
      </trkpt>
      <trkpt lat="48.37037" lon="2.51071">
        <ele>69</ele>
        <time>2020-06-06T13:21:47Z</time>
      </trkpt>
      <trkpt lat="48.37042" lon="2.51062">
        <ele>69</ele>
        <time>2020-06-06T13:21:49Z</time>
      </trkpt>
      <trkpt lat="48.37048" lon="2.51054">
        <ele>69</ele>
        <time>2020-06-06T13:21:51Z</time>
      </trkpt>
      <trkpt lat="48.37054" lon="2.51046">
        <ele>69</ele>
        <time>2020-06-06T13:21:53Z</time>
      </trkpt>
      <trkpt lat="48.37058" lon="2.51036">
        <ele>69</ele>
        <time>2020-06-06T13:21:55Z</time>
      </trkpt>
      <trkpt lat="48.37064" lon="2.51029">
        <ele>69</ele>
        <time>2020-06-06T13:21:57Z</time>
      </trkpt>
      <trkpt lat="48.37071" lon="2.51018">
        <ele>69</ele>
        <time>2020-06-06T13:21:59Z</time>
      </trkpt>
      <trkpt lat="48.37078" lon="2.51006">
        <ele>69</ele>
        <time>2020-06-06T13:22:01Z</time>
      </trkpt>
      <trkpt lat="48.37085" lon="2.50996">
        <ele>68.9</ele>
        <time>2020-06-06T13:22:03Z</time>
      </trkpt>
      <trkpt lat="48.37091" lon="2.50986">
        <ele>68.6</ele>
        <time>2020-06-06T13:22:05Z</time>
      </trkpt>
      <trkpt lat="48.37098" lon="2.50977">
        <ele>68.6</ele>
        <time>2020-06-06T13:22:07Z</time>
      </trkpt>
      <trkpt lat="48.37105" lon="2.50979">
        <ele>68.8</ele>
        <time>2020-06-06T13:22:09Z</time>
      </trkpt>
      <trkpt lat="48.37111" lon="2.50984">
        <ele>69</ele>
        <time>2020-06-06T13:22:11Z</time>
      </trkpt>
      <trkpt lat="48.37118" lon="2.5099">
        <ele>69.2</ele>
        <time>2020-06-06T13:22:13Z</time>
      </trkpt>
      <trkpt lat="48.37125" lon="2.50996">
        <ele>69.5</ele>
        <time>2020-06-06T13:22:15Z</time>
      </trkpt>
      <trkpt lat="48.37131" lon="2.51002">
        <ele>69.8</ele>
        <time>2020-06-06T13:22:17Z</time>
      </trkpt>
      <trkpt lat="48.37138" lon="2.51006">
        <ele>70.2</ele>
        <time>2020-06-06T13:22:19Z</time>
      </trkpt>
      <trkpt lat="48.37146" lon="2.5101">
        <ele>70.5</ele>
        <time>2020-06-06T13:22:21Z</time>
      </trkpt>
      <trkpt lat="48.37152" lon="2.51014">
        <ele>70.7</ele>
        <time>2020-06-06T13:22:23Z</time>
      </trkpt>
      <trkpt lat="48.3716" lon="2.5102">
        <ele>70.9</ele>
        <time>2020-06-06T13:22:25Z</time>
      </trkpt>
      <trkpt lat="48.37168" lon="2.51024">
        <ele>71</ele>
        <time>2020-06-06T13:22:27Z</time>
      </trkpt>
      <trkpt lat="48.37175" lon="2.5103">
        <ele>71.4</ele>
        <time>2020-06-06T13:22:29Z</time>
      </trkpt>
      <trkpt lat="48.37181" lon="2.51035">
        <ele>71.6</ele>
        <time>2020-06-06T13:22:31Z</time>
      </trkpt>
      <trkpt lat="48.37189" lon="2.5104">
        <ele>71.9</ele>
        <time>2020-06-06T13:22:33Z</time>
      </trkpt>
      <trkpt lat="48.37195" lon="2.51044">
        <ele>72</ele>
        <time>2020-06-06T13:22:35Z</time>
      </trkpt>
      <trkpt lat="48.37202" lon="2.51049">
        <ele>72.2</ele>
        <time>2020-06-06T13:22:37Z</time>
      </trkpt>
      <trkpt lat="48.37207" lon="2.51053">
        <ele>72.4</ele>
        <time>2020-06-06T13:22:39Z</time>
      </trkpt>
      <trkpt lat="48.37211" lon="2.51059">
        <ele>72.7</ele>
        <time>2020-06-06T13:22:41Z</time>
      </trkpt>
      <trkpt lat="48.37216" lon="2.5106">
        <ele>72.9</ele>
        <time>2020-06-06T13:22:43Z</time>
      </trkpt>
      <trkpt lat="48.37222" lon="2.51063">
        <ele>73.3</ele>
        <time>2020-06-06T13:22:47Z</time>
      </trkpt>
      <trkpt lat="48.37227" lon="2.51066">
        <ele>73.2</ele>
        <time>2020-06-06T13:22:53Z</time>
      </trkpt>
      <trkpt lat="48.37231" lon="2.51062">
        <ele>72.9</ele>
        <time>2020-06-06T13:23:57Z</time>
      </trkpt>
      <trkpt lat="48.37237" lon="2.51069">
        <ele>73</ele>
        <time>2020-06-06T13:24:01Z</time>
      </trkpt>
      <trkpt lat="48.37242" lon="2.51073">
        <ele>72.9</ele>
        <time>2020-06-06T13:24:03Z</time>
      </trkpt>
      <trkpt lat="48.37248" lon="2.51078">
        <ele>72.9</ele>
        <time>2020-06-06T13:24:05Z</time>
      </trkpt>
      <trkpt lat="48.37253" lon="2.51083">
        <ele>72.9</ele>
        <time>2020-06-06T13:24:07Z</time>
      </trkpt>
      <trkpt lat="48.3726" lon="2.51084">
        <ele>72.7</ele>
        <time>2020-06-06T13:24:11Z</time>
      </trkpt>
      <trkpt lat="48.37265" lon="2.51085">
        <ele>72.5</ele>
        <time>2020-06-06T13:24:13Z</time>
      </trkpt>
      <trkpt lat="48.3727" lon="2.51089">
        <ele>72.5</ele>
        <time>2020-06-06T13:24:15Z</time>
      </trkpt>
      <trkpt lat="48.37275" lon="2.51094">
        <ele>72.5</ele>
        <time>2020-06-06T13:24:17Z</time>
      </trkpt>
      <trkpt lat="48.37283" lon="2.51098">
        <ele>72.3</ele>
        <time>2020-06-06T13:24:19Z</time>
      </trkpt>
      <trkpt lat="48.3729" lon="2.51102">
        <ele>72.2</ele>
        <time>2020-06-06T13:24:21Z</time>
      </trkpt>
      <trkpt lat="48.37295" lon="2.51103">
        <ele>72.1</ele>
        <time>2020-06-06T13:24:23Z</time>
      </trkpt>
      <trkpt lat="48.37301" lon="2.51107">
        <ele>72</ele>
        <time>2020-06-06T13:24:25Z</time>
      </trkpt>
      <trkpt lat="48.37304" lon="2.51112">
        <ele>72.1</ele>
        <time>2020-06-06T13:24:27Z</time>
      </trkpt>
      <trkpt lat="48.37311" lon="2.51109">
        <ele>71.7</ele>
        <time>2020-06-06T13:24:31Z</time>
      </trkpt>
      <trkpt lat="48.37317" lon="2.51115">
        <ele>71.6</ele>
        <time>2020-06-06T13:24:35Z</time>
      </trkpt>
      <trkpt lat="48.37321" lon="2.5112">
        <ele>71.4</ele>
        <time>2020-06-06T13:24:37Z</time>
      </trkpt>
      <trkpt lat="48.37327" lon="2.51125">
        <ele>71.2</ele>
        <time>2020-06-06T13:24:39Z</time>
      </trkpt>
      <trkpt lat="48.37335" lon="2.51129">
        <ele>70.9</ele>
        <time>2020-06-06T13:24:41Z</time>
      </trkpt>
      <trkpt lat="48.37344" lon="2.51134">
        <ele>70.6</ele>
        <time>2020-06-06T13:24:43Z</time>
      </trkpt>
      <trkpt lat="48.37353" lon="2.51137">
        <ele>70.3</ele>
        <time>2020-06-06T13:24:45Z</time>
      </trkpt>
      <trkpt lat="48.37362" lon="2.51141">
        <ele>70</ele>
        <time>2020-06-06T13:24:47Z</time>
      </trkpt>
      <trkpt lat="48.3737" lon="2.51146">
        <ele>70</ele>
        <time>2020-06-06T13:24:49Z</time>
      </trkpt>
      <trkpt lat="48.37376" lon="2.51149">
        <ele>70</ele>
        <time>2020-06-06T13:24:51Z</time>
      </trkpt>
      <trkpt lat="48.37383" lon="2.51151">
        <ele>70</ele>
        <time>2020-06-06T13:24:53Z</time>
      </trkpt>
      <trkpt lat="48.37391" lon="2.51154">
        <ele>70</ele>
        <time>2020-06-06T13:24:55Z</time>
      </trkpt>
      <trkpt lat="48.374" lon="2.51157">
        <ele>70</ele>
        <time>2020-06-06T13:24:57Z</time>
      </trkpt>
      <trkpt lat="48.37411" lon="2.51161">
        <ele>70</ele>
        <time>2020-06-06T13:24:59Z</time>
      </trkpt>
      <trkpt lat="48.37421" lon="2.51164">
        <ele>70</ele>
        <time>2020-06-06T13:25:01Z</time>
      </trkpt>
      <trkpt lat="48.37431" lon="2.51166">
        <ele>70</ele>
        <time>2020-06-06T13:25:03Z</time>
      </trkpt>
      <trkpt lat="48.37442" lon="2.51173">
        <ele>70</ele>
        <time>2020-06-06T13:25:05Z</time>
      </trkpt>
      <trkpt lat="48.37454" lon="2.51178">
        <ele>69.8</ele>
        <time>2020-06-06T13:25:07Z</time>
      </trkpt>
      <trkpt lat="48.37464" lon="2.51186">
        <ele>69.8</ele>
        <time>2020-06-06T13:25:09Z</time>
      </trkpt>
      <trkpt lat="48.37475" lon="2.51192">
        <ele>69.8</ele>
        <time>2020-06-06T13:25:11Z</time>
      </trkpt>
      <trkpt lat="48.37485" lon="2.51199">
        <ele>69.5</ele>
        <time>2020-06-06T13:25:13Z</time>
      </trkpt>
      <trkpt lat="48.37496" lon="2.51206">
        <ele>69.1</ele>
        <time>2020-06-06T13:25:15Z</time>
      </trkpt>
      <trkpt lat="48.37506" lon="2.51215">
        <ele>69</ele>
        <time>2020-06-06T13:25:17Z</time>
      </trkpt>
      <trkpt lat="48.37516" lon="2.51223">
        <ele>69</ele>
        <time>2020-06-06T13:25:19Z</time>
      </trkpt>
      <trkpt lat="48.37526" lon="2.51231">
        <ele>69</ele>
        <time>2020-06-06T13:25:21Z</time>
      </trkpt>
      <trkpt lat="48.37535" lon="2.51242">
        <ele>68.8</ele>
        <time>2020-06-06T13:25:23Z</time>
      </trkpt>
      <trkpt lat="48.37542" lon="2.51252">
        <ele>68.5</ele>
        <time>2020-06-06T13:25:25Z</time>
      </trkpt>
      <trkpt lat="48.37551" lon="2.51253">
        <ele>68.2</ele>
        <time>2020-06-06T13:25:27Z</time>
      </trkpt>
      <trkpt lat="48.37553" lon="2.51245">
        <ele>68.3</ele>
        <time>2020-06-06T13:25:29Z</time>
      </trkpt>
      <trkpt lat="48.37556" lon="2.51241">
        <ele>68.3</ele>
        <time>2020-06-06T13:25:31Z</time>
      </trkpt>
      <trkpt lat="48.37561" lon="2.51244">
        <ele>68.2</ele>
        <time>2020-06-06T13:25:33Z</time>
      </trkpt>
      <trkpt lat="48.37566" lon="2.51246">
        <ele>68.1</ele>
        <time>2020-06-06T13:25:35Z</time>
      </trkpt>
      <trkpt lat="48.37571" lon="2.51247">
        <ele>68</ele>
        <time>2020-06-06T13:25:45Z</time>
      </trkpt>
      <trkpt lat="48.37578" lon="2.51252">
        <ele>68</ele>
        <time>2020-06-06T13:25:51Z</time>
      </trkpt>
      <trkpt lat="48.37582" lon="2.51255">
        <ele>68</ele>
        <time>2020-06-06T13:25:53Z</time>
      </trkpt>
      <trkpt lat="48.37588" lon="2.51259">
        <ele>67.9</ele>
        <time>2020-06-06T13:25:55Z</time>
      </trkpt>
      <trkpt lat="48.37592" lon="2.51262">
        <ele>67.9</ele>
        <time>2020-06-06T13:25:57Z</time>
      </trkpt>
      <trkpt lat="48.37597" lon="2.51265">
        <ele>67.7</ele>
        <time>2020-06-06T13:25:59Z</time>
      </trkpt>
      <trkpt lat="48.37602" lon="2.51268">
        <ele>67.6</ele>
        <time>2020-06-06T13:26:01Z</time>
      </trkpt>
      <trkpt lat="48.37614" lon="2.51271">
        <ele>67.2</ele>
        <time>2020-06-06T13:26:05Z</time>
      </trkpt>
      <trkpt lat="48.37623" lon="2.51272">
        <ele>67.2</ele>
        <time>2020-06-06T13:26:07Z</time>
      </trkpt>
      <trkpt lat="48.37634" lon="2.51272">
        <ele>67.2</ele>
        <time>2020-06-06T13:26:09Z</time>
      </trkpt>
      <trkpt lat="48.37644" lon="2.51273">
        <ele>67.2</ele>
        <time>2020-06-06T13:26:11Z</time>
      </trkpt>
      <trkpt lat="48.37651" lon="2.51269">
        <ele>67.3</ele>
        <time>2020-06-06T13:26:13Z</time>
      </trkpt>
      <trkpt lat="48.3766" lon="2.51264">
        <ele>67.5</ele>
        <time>2020-06-06T13:26:15Z</time>
      </trkpt>
      <trkpt lat="48.37666" lon="2.51258">
        <ele>67.7</ele>
        <time>2020-06-06T13:26:17Z</time>
      </trkpt>
      <trkpt lat="48.37674" lon="2.51252">
        <ele>68.2</ele>
        <time>2020-06-06T13:26:19Z</time>
      </trkpt>
      <trkpt lat="48.37681" lon="2.51244">
        <ele>68.5</ele>
        <time>2020-06-06T13:26:21Z</time>
      </trkpt>
      <trkpt lat="48.37688" lon="2.51234">
        <ele>68.8</ele>
        <time>2020-06-06T13:26:23Z</time>
      </trkpt>
      <trkpt lat="48.37693" lon="2.51228">
        <ele>68.9</ele>
        <time>2020-06-06T13:26:25Z</time>
      </trkpt>
      <trkpt lat="48.37699" lon="2.51224">
        <ele>69.2</ele>
        <time>2020-06-06T13:26:27Z</time>
      </trkpt>
      <trkpt lat="48.37705" lon="2.51219">
        <ele>69.3</ele>
        <time>2020-06-06T13:26:31Z</time>
      </trkpt>
      <trkpt lat="48.377" lon="2.51225">
        <ele>69.2</ele>
        <time>2020-06-06T13:26:45Z</time>
      </trkpt>
      <trkpt lat="48.37695" lon="2.51229">
        <ele>69</ele>
        <time>2020-06-06T13:26:47Z</time>
      </trkpt>
      <trkpt lat="48.37691" lon="2.51236">
        <ele>68.9</ele>
        <time>2020-06-06T13:26:49Z</time>
      </trkpt>
      <trkpt lat="48.37692" lon="2.51245">
        <ele>68.9</ele>
        <time>2020-06-06T13:26:51Z</time>
      </trkpt>
      <trkpt lat="48.37696" lon="2.51253">
        <ele>69</ele>
        <time>2020-06-06T13:26:53Z</time>
      </trkpt>
      <trkpt lat="48.37703" lon="2.5126">
        <ele>69.2</ele>
        <time>2020-06-06T13:26:55Z</time>
      </trkpt>
      <trkpt lat="48.37707" lon="2.51264">
        <ele>69.4</ele>
        <time>2020-06-06T13:26:57Z</time>
      </trkpt>
      <trkpt lat="48.37711" lon="2.51269">
        <ele>69.7</ele>
        <time>2020-06-06T13:26:59Z</time>
      </trkpt>
      <trkpt lat="48.37716" lon="2.51277">
        <ele>70.3</ele>
        <time>2020-06-06T13:27:05Z</time>
      </trkpt>
      <trkpt lat="48.37719" lon="2.51283">
        <ele>70.7</ele>
        <time>2020-06-06T13:27:09Z</time>
      </trkpt>
      <trkpt lat="48.37722" lon="2.51289">
        <ele>71</ele>
        <time>2020-06-06T13:27:23Z</time>
      </trkpt>
      <trkpt lat="48.37727" lon="2.51296">
        <ele>71.5</ele>
        <time>2020-06-06T13:27:33Z</time>
      </trkpt>
      <trkpt lat="48.37733" lon="2.51301">
        <ele>72.1</ele>
        <time>2020-06-06T13:27:39Z</time>
      </trkpt>
      <trkpt lat="48.3774" lon="2.51301">
        <ele>72.8</ele>
        <time>2020-06-06T13:27:47Z</time>
      </trkpt>
      <trkpt lat="48.37745" lon="2.51297">
        <ele>73.2</ele>
        <time>2020-06-06T13:27:49Z</time>
      </trkpt>
      <trkpt lat="48.37753" lon="2.51288">
        <ele>73.2</ele>
        <time>2020-06-06T13:27:53Z</time>
      </trkpt>
      <trkpt lat="48.3776" lon="2.51279">
        <ele>72.3</ele>
        <time>2020-06-06T13:27:55Z</time>
      </trkpt>
      <trkpt lat="48.37769" lon="2.51269">
        <ele>71</ele>
        <time>2020-06-06T13:27:57Z</time>
      </trkpt>
      <trkpt lat="48.37776" lon="2.5126">
        <ele>69.8</ele>
        <time>2020-06-06T13:27:59Z</time>
      </trkpt>
      <trkpt lat="48.37781" lon="2.51245">
        <ele>68.8</ele>
        <time>2020-06-06T13:28:01Z</time>
      </trkpt>
      <trkpt lat="48.37788" lon="2.51232">
        <ele>68.4</ele>
        <time>2020-06-06T13:28:03Z</time>
      </trkpt>
      <trkpt lat="48.37796" lon="2.51223">
        <ele>68</ele>
        <time>2020-06-06T13:28:05Z</time>
      </trkpt>
      <trkpt lat="48.37802" lon="2.51214">
        <ele>68</ele>
        <time>2020-06-06T13:28:07Z</time>
      </trkpt>
      <trkpt lat="48.37808" lon="2.51207">
        <ele>68</ele>
        <time>2020-06-06T13:28:09Z</time>
      </trkpt>
      <trkpt lat="48.37814" lon="2.512">
        <ele>67.8</ele>
        <time>2020-06-06T13:28:11Z</time>
      </trkpt>
      <trkpt lat="48.37822" lon="2.51195">
        <ele>67.4</ele>
        <time>2020-06-06T13:28:13Z</time>
      </trkpt>
      <trkpt lat="48.37829" lon="2.51191">
        <ele>67.1</ele>
        <time>2020-06-06T13:28:15Z</time>
      </trkpt>
      <trkpt lat="48.37835" lon="2.51187">
        <ele>67</ele>
        <time>2020-06-06T13:28:17Z</time>
      </trkpt>
      <trkpt lat="48.3784" lon="2.51184">
        <ele>67</ele>
        <time>2020-06-06T13:28:19Z</time>
      </trkpt>
      <trkpt lat="48.37844" lon="2.51179">
        <ele>67</ele>
        <time>2020-06-06T13:28:21Z</time>
      </trkpt>
      <trkpt lat="48.37849" lon="2.51171">
        <ele>67</ele>
        <time>2020-06-06T13:28:23Z</time>
      </trkpt>
      <trkpt lat="48.37854" lon="2.51164">
        <ele>67</ele>
        <time>2020-06-06T13:28:25Z</time>
      </trkpt>
      <trkpt lat="48.37858" lon="2.51154">
        <ele>67</ele>
        <time>2020-06-06T13:28:27Z</time>
      </trkpt>
      <trkpt lat="48.37863" lon="2.51146">
        <ele>67.1</ele>
        <time>2020-06-06T13:28:29Z</time>
      </trkpt>
      <trkpt lat="48.37868" lon="2.51137">
        <ele>67.3</ele>
        <time>2020-06-06T13:28:31Z</time>
      </trkpt>
      <trkpt lat="48.37872" lon="2.51127">
        <ele>67.6</ele>
        <time>2020-06-06T13:28:33Z</time>
      </trkpt>
      <trkpt lat="48.37874" lon="2.51116">
        <ele>67.8</ele>
        <time>2020-06-06T13:28:35Z</time>
      </trkpt>
      <trkpt lat="48.37876" lon="2.51107">
        <ele>68.1</ele>
        <time>2020-06-06T13:28:37Z</time>
      </trkpt>
      <trkpt lat="48.37878" lon="2.51098">
        <ele>68.2</ele>
        <time>2020-06-06T13:28:39Z</time>
      </trkpt>
      <trkpt lat="48.37881" lon="2.51091">
        <ele>68.4</ele>
        <time>2020-06-06T13:28:41Z</time>
      </trkpt>
      <trkpt lat="48.37888" lon="2.51091">
        <ele>68.9</ele>
        <time>2020-06-06T13:28:45Z</time>
      </trkpt>
      <trkpt lat="48.37891" lon="2.51097">
        <ele>69.3</ele>
        <time>2020-06-06T13:28:49Z</time>
      </trkpt>
      <trkpt lat="48.37892" lon="2.51107">
        <ele>69.5</ele>
        <time>2020-06-06T13:28:51Z</time>
      </trkpt>
      <trkpt lat="48.37895" lon="2.51119">
        <ele>69.5</ele>
        <time>2020-06-06T13:28:53Z</time>
      </trkpt>
      <trkpt lat="48.37899" lon="2.5113">
        <ele>69.5</ele>
        <time>2020-06-06T13:28:55Z</time>
      </trkpt>
      <trkpt lat="48.37904" lon="2.51141">
        <ele>69.5</ele>
        <time>2020-06-06T13:28:57Z</time>
      </trkpt>
      <trkpt lat="48.37908" lon="2.5115">
        <ele>69.5</ele>
        <time>2020-06-06T13:28:59Z</time>
      </trkpt>
      <trkpt lat="48.37912" lon="2.51156">
        <ele>69.5</ele>
        <time>2020-06-06T13:29:01Z</time>
      </trkpt>
      <trkpt lat="48.37918" lon="2.51165">
        <ele>69.3</ele>
        <time>2020-06-06T13:29:03Z</time>
      </trkpt>
      <trkpt lat="48.37922" lon="2.51176">
        <ele>69.2</ele>
        <time>2020-06-06T13:29:05Z</time>
      </trkpt>
      <trkpt lat="48.37927" lon="2.51188">
        <ele>68.9</ele>
        <time>2020-06-06T13:29:07Z</time>
      </trkpt>
      <trkpt lat="48.37934" lon="2.51199">
        <ele>68.5</ele>
        <time>2020-06-06T13:29:09Z</time>
      </trkpt>
      <trkpt lat="48.37941" lon="2.51212">
        <ele>68.2</ele>
        <time>2020-06-06T13:29:11Z</time>
      </trkpt>
      <trkpt lat="48.37949" lon="2.51225">
        <ele>68</ele>
        <time>2020-06-06T13:29:13Z</time>
      </trkpt>
      <trkpt lat="48.37957" lon="2.51235">
        <ele>67.8</ele>
        <time>2020-06-06T13:29:15Z</time>
      </trkpt>
      <trkpt lat="48.37964" lon="2.51244">
        <ele>67.4</ele>
        <time>2020-06-06T13:29:17Z</time>
      </trkpt>
      <trkpt lat="48.37969" lon="2.51251">
        <ele>67</ele>
        <time>2020-06-06T13:29:19Z</time>
      </trkpt>
      <trkpt lat="48.37973" lon="2.5126">
        <ele>67.1</ele>
        <time>2020-06-06T13:29:21Z</time>
      </trkpt>
      <trkpt lat="48.37979" lon="2.51267">
        <ele>67.4</ele>
        <time>2020-06-06T13:29:23Z</time>
      </trkpt>
      <trkpt lat="48.37985" lon="2.51276">
        <ele>67.5</ele>
        <time>2020-06-06T13:29:25Z</time>
      </trkpt>
      <trkpt lat="48.3799" lon="2.51285">
        <ele>67.5</ele>
        <time>2020-06-06T13:29:27Z</time>
      </trkpt>
      <trkpt lat="48.37996" lon="2.51294">
        <ele>67.4</ele>
        <time>2020-06-06T13:29:29Z</time>
      </trkpt>
      <trkpt lat="48.38002" lon="2.51302">
        <ele>67.3</ele>
        <time>2020-06-06T13:29:31Z</time>
      </trkpt>
      <trkpt lat="48.38007" lon="2.51309">
        <ele>67.5</ele>
        <time>2020-06-06T13:29:33Z</time>
      </trkpt>
      <trkpt lat="48.38011" lon="2.51316">
        <ele>67.6</ele>
        <time>2020-06-06T13:29:35Z</time>
      </trkpt>
      <trkpt lat="48.38017" lon="2.5132">
        <ele>67.9</ele>
        <time>2020-06-06T13:29:37Z</time>
      </trkpt>
      <trkpt lat="48.38023" lon="2.51328">
        <ele>68</ele>
        <time>2020-06-06T13:29:39Z</time>
      </trkpt>
      <trkpt lat="48.38028" lon="2.51333">
        <ele>68</ele>
        <time>2020-06-06T13:29:41Z</time>
      </trkpt>
      <trkpt lat="48.38033" lon="2.5134">
        <ele>68.2</ele>
        <time>2020-06-06T13:29:43Z</time>
      </trkpt>
      <trkpt lat="48.38039" lon="2.5135">
        <ele>68.1</ele>
        <time>2020-06-06T13:29:45Z</time>
      </trkpt>
      <trkpt lat="48.38045" lon="2.51358">
        <ele>67.9</ele>
        <time>2020-06-06T13:29:47Z</time>
      </trkpt>
      <trkpt lat="48.38051" lon="2.51367">
        <ele>67.7</ele>
        <time>2020-06-06T13:29:49Z</time>
      </trkpt>
      <trkpt lat="48.38054" lon="2.51376">
        <ele>67.4</ele>
        <time>2020-06-06T13:29:51Z</time>
      </trkpt>
      <trkpt lat="48.38061" lon="2.51383">
        <ele>67.7</ele>
        <time>2020-06-06T13:29:53Z</time>
      </trkpt>
      <trkpt lat="48.38066" lon="2.5139">
        <ele>67.7</ele>
        <time>2020-06-06T13:29:55Z</time>
      </trkpt>
      <trkpt lat="48.38073" lon="2.51398">
        <ele>67.8</ele>
        <time>2020-06-06T13:29:57Z</time>
      </trkpt>
      <trkpt lat="48.3808" lon="2.51404">
        <ele>67.8</ele>
        <time>2020-06-06T13:29:59Z</time>
      </trkpt>
      <trkpt lat="48.38088" lon="2.5141">
        <ele>67.7</ele>
        <time>2020-06-06T13:30:01Z</time>
      </trkpt>
      <trkpt lat="48.38092" lon="2.51415">
        <ele>67.5</ele>
        <time>2020-06-06T13:30:03Z</time>
      </trkpt>
      <trkpt lat="48.38097" lon="2.51423">
        <ele>67.4</ele>
        <time>2020-06-06T13:30:05Z</time>
      </trkpt>
      <trkpt lat="48.381" lon="2.5143">
        <ele>67.3</ele>
        <time>2020-06-06T13:30:07Z</time>
      </trkpt>
      <trkpt lat="48.38106" lon="2.51438">
        <ele>67.2</ele>
        <time>2020-06-06T13:30:09Z</time>
      </trkpt>
      <trkpt lat="48.38111" lon="2.51446">
        <ele>67</ele>
        <time>2020-06-06T13:30:11Z</time>
      </trkpt>
      <trkpt lat="48.38116" lon="2.51453">
        <ele>67</ele>
        <time>2020-06-06T13:30:13Z</time>
      </trkpt>
      <trkpt lat="48.38123" lon="2.5146">
        <ele>67</ele>
        <time>2020-06-06T13:30:15Z</time>
      </trkpt>
      <trkpt lat="48.38129" lon="2.5147">
        <ele>67</ele>
        <time>2020-06-06T13:30:17Z</time>
      </trkpt>
      <trkpt lat="48.38132" lon="2.5148">
        <ele>66.7</ele>
        <time>2020-06-06T13:30:19Z</time>
      </trkpt>
      <trkpt lat="48.38134" lon="2.51489">
        <ele>66.4</ele>
        <time>2020-06-06T13:30:21Z</time>
      </trkpt>
      <trkpt lat="48.38135" lon="2.51501">
        <ele>66</ele>
        <time>2020-06-06T13:30:23Z</time>
      </trkpt>
      <trkpt lat="48.38134" lon="2.51515">
        <ele>66.4</ele>
        <time>2020-06-06T13:30:25Z</time>
      </trkpt>
      <trkpt lat="48.38136" lon="2.51528">
        <ele>66.9</ele>
        <time>2020-06-06T13:30:27Z</time>
      </trkpt>
      <trkpt lat="48.38138" lon="2.5154">
        <ele>67</ele>
        <time>2020-06-06T13:30:29Z</time>
      </trkpt>
      <trkpt lat="48.38139" lon="2.51553">
        <ele>67</ele>
        <time>2020-06-06T13:30:31Z</time>
      </trkpt>
      <trkpt lat="48.3814" lon="2.51566">
        <ele>67.1</ele>
        <time>2020-06-06T13:30:33Z</time>
      </trkpt>
      <trkpt lat="48.38139" lon="2.51579">
        <ele>67</ele>
        <time>2020-06-06T13:30:35Z</time>
      </trkpt>
      <trkpt lat="48.38138" lon="2.51593">
        <ele>67</ele>
        <time>2020-06-06T13:30:37Z</time>
      </trkpt>
      <trkpt lat="48.38137" lon="2.51605">
        <ele>67</ele>
        <time>2020-06-06T13:30:39Z</time>
      </trkpt>
      <trkpt lat="48.38135" lon="2.51618">
        <ele>67.2</ele>
        <time>2020-06-06T13:30:41Z</time>
      </trkpt>
      <trkpt lat="48.38133" lon="2.51629">
        <ele>67.5</ele>
        <time>2020-06-06T13:30:43Z</time>
      </trkpt>
      <trkpt lat="48.38132" lon="2.51641">
        <ele>67.8</ele>
        <time>2020-06-06T13:30:45Z</time>
      </trkpt>
      <trkpt lat="48.38131" lon="2.51652">
        <ele>67.7</ele>
        <time>2020-06-06T13:30:47Z</time>
      </trkpt>
      <trkpt lat="48.38129" lon="2.51663">
        <ele>67.6</ele>
        <time>2020-06-06T13:30:49Z</time>
      </trkpt>
      <trkpt lat="48.38127" lon="2.51675">
        <ele>67.6</ele>
        <time>2020-06-06T13:30:51Z</time>
      </trkpt>
      <trkpt lat="48.38124" lon="2.51686">
        <ele>67.5</ele>
        <time>2020-06-06T13:30:53Z</time>
      </trkpt>
      <trkpt lat="48.38124" lon="2.51698">
        <ele>67.5</ele>
        <time>2020-06-06T13:30:55Z</time>
      </trkpt>
      <trkpt lat="48.38123" lon="2.51709">
        <ele>67.7</ele>
        <time>2020-06-06T13:30:57Z</time>
      </trkpt>
      <trkpt lat="48.38122" lon="2.51719">
        <ele>67.7</ele>
        <time>2020-06-06T13:30:59Z</time>
      </trkpt>
      <trkpt lat="48.38121" lon="2.51731">
        <ele>67.8</ele>
        <time>2020-06-06T13:31:01Z</time>
      </trkpt>
      <trkpt lat="48.3812" lon="2.51742">
        <ele>67.9</ele>
        <time>2020-06-06T13:31:03Z</time>
      </trkpt>
      <trkpt lat="48.38118" lon="2.51755">
        <ele>67.7</ele>
        <time>2020-06-06T13:31:05Z</time>
      </trkpt>
      <trkpt lat="48.38118" lon="2.51767">
        <ele>67.7</ele>
        <time>2020-06-06T13:31:07Z</time>
      </trkpt>
      <trkpt lat="48.38117" lon="2.5178">
        <ele>67.6</ele>
        <time>2020-06-06T13:31:09Z</time>
      </trkpt>
      <trkpt lat="48.38115" lon="2.51791">
        <ele>67.4</ele>
        <time>2020-06-06T13:31:11Z</time>
      </trkpt>
      <trkpt lat="48.38112" lon="2.51804">
        <ele>67.1</ele>
        <time>2020-06-06T13:31:13Z</time>
      </trkpt>
      <trkpt lat="48.3811" lon="2.51813">
        <ele>67</ele>
        <time>2020-06-06T13:31:15Z</time>
      </trkpt>
      <trkpt lat="48.38111" lon="2.51826">
        <ele>67</ele>
        <time>2020-06-06T13:31:17Z</time>
      </trkpt>
      <trkpt lat="48.38112" lon="2.51839">
        <ele>67.3</ele>
        <time>2020-06-06T13:31:19Z</time>
      </trkpt>
      <trkpt lat="48.38112" lon="2.51851">
        <ele>67.7</ele>
        <time>2020-06-06T13:31:21Z</time>
      </trkpt>
      <trkpt lat="48.3811" lon="2.51864">
        <ele>67.8</ele>
        <time>2020-06-06T13:31:23Z</time>
      </trkpt>
      <trkpt lat="48.3811" lon="2.51877">
        <ele>67.4</ele>
        <time>2020-06-06T13:31:25Z</time>
      </trkpt>
      <trkpt lat="48.3811" lon="2.5189">
        <ele>67</ele>
        <time>2020-06-06T13:31:27Z</time>
      </trkpt>
      <trkpt lat="48.38112" lon="2.51904">
        <ele>67</ele>
        <time>2020-06-06T13:31:29Z</time>
      </trkpt>
      <trkpt lat="48.38114" lon="2.51916">
        <ele>67.1</ele>
        <time>2020-06-06T13:31:31Z</time>
      </trkpt>
      <trkpt lat="48.38117" lon="2.5193">
        <ele>67.2</ele>
        <time>2020-06-06T13:31:33Z</time>
      </trkpt>
      <trkpt lat="48.3812" lon="2.51944">
        <ele>67.3</ele>
        <time>2020-06-06T13:31:35Z</time>
      </trkpt>
      <trkpt lat="48.38123" lon="2.51956">
        <ele>67.2</ele>
        <time>2020-06-06T13:31:37Z</time>
      </trkpt>
      <trkpt lat="48.38128" lon="2.51968">
        <ele>67.1</ele>
        <time>2020-06-06T13:31:39Z</time>
      </trkpt>
      <trkpt lat="48.38132" lon="2.51976">
        <ele>67</ele>
        <time>2020-06-06T13:31:41Z</time>
      </trkpt>
      <trkpt lat="48.38136" lon="2.51983">
        <ele>67</ele>
        <time>2020-06-06T13:31:43Z</time>
      </trkpt>
      <trkpt lat="48.3814" lon="2.5199">
        <ele>67</ele>
        <time>2020-06-06T13:31:45Z</time>
      </trkpt>
      <trkpt lat="48.38149" lon="2.51991">
        <ele>67.1</ele>
        <time>2020-06-06T13:31:49Z</time>
      </trkpt>
      <trkpt lat="48.38153" lon="2.51988">
        <ele>67.2</ele>
        <time>2020-06-06T13:31:51Z</time>
      </trkpt>
      <trkpt lat="48.38159" lon="2.51985">
        <ele>67.4</ele>
        <time>2020-06-06T13:31:53Z</time>
      </trkpt>
      <trkpt lat="48.38165" lon="2.51983">
        <ele>67.6</ele>
        <time>2020-06-06T13:31:55Z</time>
      </trkpt>
      <trkpt lat="48.38174" lon="2.51982">
        <ele>67.9</ele>
        <time>2020-06-06T13:31:59Z</time>
      </trkpt>
      <trkpt lat="48.38179" lon="2.51985">
        <ele>68</ele>
        <time>2020-06-06T13:32:01Z</time>
      </trkpt>
      <trkpt lat="48.38185" lon="2.51987">
        <ele>68.1</ele>
        <time>2020-06-06T13:32:03Z</time>
      </trkpt>
      <trkpt lat="48.38191" lon="2.51992">
        <ele>68.2</ele>
        <time>2020-06-06T13:32:05Z</time>
      </trkpt>
      <trkpt lat="48.38196" lon="2.51991">
        <ele>68.4</ele>
        <time>2020-06-06T13:32:07Z</time>
      </trkpt>
      <trkpt lat="48.38202" lon="2.51988">
        <ele>68.8</ele>
        <time>2020-06-06T13:32:09Z</time>
      </trkpt>
      <trkpt lat="48.38207" lon="2.51986">
        <ele>69.2</ele>
        <time>2020-06-06T13:32:11Z</time>
      </trkpt>
      <trkpt lat="48.38212" lon="2.51983">
        <ele>69.6</ele>
        <time>2020-06-06T13:32:13Z</time>
      </trkpt>
      <trkpt lat="48.38219" lon="2.51978">
        <ele>70.4</ele>
        <time>2020-06-06T13:32:17Z</time>
      </trkpt>
      <trkpt lat="48.38223" lon="2.51973">
        <ele>71</ele>
        <time>2020-06-06T13:32:19Z</time>
      </trkpt>
      <trkpt lat="48.38226" lon="2.51968">
        <ele>71.4</ele>
        <time>2020-06-06T13:32:21Z</time>
      </trkpt>
      <trkpt lat="48.38232" lon="2.51961">
        <ele>72.2</ele>
        <time>2020-06-06T13:32:25Z</time>
      </trkpt>
      <trkpt lat="48.3824" lon="2.51955">
        <ele>72.9</ele>
        <time>2020-06-06T13:32:29Z</time>
      </trkpt>
      <trkpt lat="48.38244" lon="2.51953">
        <ele>73.2</ele>
        <time>2020-06-06T13:32:31Z</time>
      </trkpt>
      <trkpt lat="48.38252" lon="2.51947">
        <ele>73.8</ele>
        <time>2020-06-06T13:32:35Z</time>
      </trkpt>
      <trkpt lat="48.38258" lon="2.51941">
        <ele>74.3</ele>
        <time>2020-06-06T13:32:39Z</time>
      </trkpt>
      <trkpt lat="48.38264" lon="2.51938">
        <ele>74.6</ele>
        <time>2020-06-06T13:32:41Z</time>
      </trkpt>
      <trkpt lat="48.38268" lon="2.51933">
        <ele>75</ele>
        <time>2020-06-06T13:32:43Z</time>
      </trkpt>
      <trkpt lat="48.38275" lon="2.51927">
        <ele>75.3</ele>
        <time>2020-06-06T13:32:47Z</time>
      </trkpt>
      <trkpt lat="48.38279" lon="2.51925">
        <ele>75.5</ele>
        <time>2020-06-06T13:32:49Z</time>
      </trkpt>
      <trkpt lat="48.38287" lon="2.51921">
        <ele>76.1</ele>
        <time>2020-06-06T13:32:53Z</time>
      </trkpt>
      <trkpt lat="48.38295" lon="2.51916">
        <ele>76.7</ele>
        <time>2020-06-06T13:32:57Z</time>
      </trkpt>
      <trkpt lat="48.383" lon="2.51911">
        <ele>77.3</ele>
        <time>2020-06-06T13:32:59Z</time>
      </trkpt>
      <trkpt lat="48.38305" lon="2.51909">
        <ele>77.5</ele>
        <time>2020-06-06T13:33:01Z</time>
      </trkpt>
      <trkpt lat="48.3831" lon="2.51911">
        <ele>77.7</ele>
        <time>2020-06-06T13:33:03Z</time>
      </trkpt>
      <trkpt lat="48.38315" lon="2.51913">
        <ele>77.9</ele>
        <time>2020-06-06T13:33:05Z</time>
      </trkpt>
      <trkpt lat="48.3832" lon="2.51915">
        <ele>78.1</ele>
        <time>2020-06-06T13:33:07Z</time>
      </trkpt>
      <trkpt lat="48.38325" lon="2.51914">
        <ele>78.5</ele>
        <time>2020-06-06T13:33:09Z</time>
      </trkpt>
      <trkpt lat="48.38334" lon="2.51909">
        <ele>79.3</ele>
        <time>2020-06-06T13:33:13Z</time>
      </trkpt>
      <trkpt lat="48.38338" lon="2.51905">
        <ele>79.6</ele>
        <time>2020-06-06T13:33:15Z</time>
      </trkpt>
      <trkpt lat="48.38343" lon="2.51901">
        <ele>79.9</ele>
        <time>2020-06-06T13:33:17Z</time>
      </trkpt>
      <trkpt lat="48.38348" lon="2.51894">
        <ele>80</ele>
        <time>2020-06-06T13:33:19Z</time>
      </trkpt>
      <trkpt lat="48.38355" lon="2.5189">
        <ele>80</ele>
        <time>2020-06-06T13:33:21Z</time>
      </trkpt>
      <trkpt lat="48.3836" lon="2.51883">
        <ele>80.2</ele>
        <time>2020-06-06T13:33:23Z</time>
      </trkpt>
      <trkpt lat="48.38365" lon="2.51878">
        <ele>80.1</ele>
        <time>2020-06-06T13:33:25Z</time>
      </trkpt>
      <trkpt lat="48.3837" lon="2.51874">
        <ele>79.9</ele>
        <time>2020-06-06T13:33:27Z</time>
      </trkpt>
      <trkpt lat="48.38375" lon="2.51871">
        <ele>79.5</ele>
        <time>2020-06-06T13:33:29Z</time>
      </trkpt>
      <trkpt lat="48.3838" lon="2.51864">
        <ele>79</ele>
        <time>2020-06-06T13:33:31Z</time>
      </trkpt>
      <trkpt lat="48.38386" lon="2.51857">
        <ele>78.5</ele>
        <time>2020-06-06T13:33:33Z</time>
      </trkpt>
      <trkpt lat="48.3839" lon="2.51848">
        <ele>78.5</ele>
        <time>2020-06-06T13:33:35Z</time>
      </trkpt>
      <trkpt lat="48.38395" lon="2.51839">
        <ele>78.7</ele>
        <time>2020-06-06T13:33:37Z</time>
      </trkpt>
      <trkpt lat="48.38401" lon="2.5183">
        <ele>78.6</ele>
        <time>2020-06-06T13:33:39Z</time>
      </trkpt>
      <trkpt lat="48.38404" lon="2.5182">
        <ele>78.6</ele>
        <time>2020-06-06T13:33:41Z</time>
      </trkpt>
      <trkpt lat="48.38408" lon="2.5181">
        <ele>78.3</ele>
        <time>2020-06-06T13:33:43Z</time>
      </trkpt>
      <trkpt lat="48.38413" lon="2.51797">
        <ele>77.3</ele>
        <time>2020-06-06T13:33:45Z</time>
      </trkpt>
      <trkpt lat="48.38418" lon="2.51787">
        <ele>76.3</ele>
        <time>2020-06-06T13:33:47Z</time>
      </trkpt>
      <trkpt lat="48.38423" lon="2.51776">
        <ele>75.8</ele>
        <time>2020-06-06T13:33:49Z</time>
      </trkpt>
      <trkpt lat="48.3843" lon="2.51766">
        <ele>75.5</ele>
        <time>2020-06-06T13:33:51Z</time>
      </trkpt>
      <trkpt lat="48.38434" lon="2.51753">
        <ele>75.2</ele>
        <time>2020-06-06T13:33:53Z</time>
      </trkpt>
      <trkpt lat="48.38438" lon="2.51742">
        <ele>74.8</ele>
        <time>2020-06-06T13:33:55Z</time>
      </trkpt>
      <trkpt lat="48.38442" lon="2.51737">
        <ele>74.3</ele>
        <time>2020-06-06T13:39:05Z</time>
      </trkpt>
      <trkpt lat="48.38445" lon="2.51728">
        <ele>74</ele>
        <time>2020-06-06T13:39:27Z</time>
      </trkpt>
      <trkpt lat="48.38449" lon="2.51722">
        <ele>74</ele>
        <time>2020-06-06T13:39:31Z</time>
      </trkpt>
      <trkpt lat="48.38455" lon="2.5171">
        <ele>73.8</ele>
        <time>2020-06-06T13:39:35Z</time>
      </trkpt>
      <trkpt lat="48.38458" lon="2.51704">
        <ele>73.7</ele>
        <time>2020-06-06T13:39:37Z</time>
      </trkpt>
      <trkpt lat="48.38464" lon="2.51694">
        <ele>73.3</ele>
        <time>2020-06-06T13:39:41Z</time>
      </trkpt>
      <trkpt lat="48.38469" lon="2.51686">
        <ele>72.8</ele>
        <time>2020-06-06T13:39:45Z</time>
      </trkpt>
      <trkpt lat="48.38476" lon="2.51674">
        <ele>72.3</ele>
        <time>2020-06-06T13:39:49Z</time>
      </trkpt>
      <trkpt lat="48.3848" lon="2.51666">
        <ele>72</ele>
        <time>2020-06-06T13:39:51Z</time>
      </trkpt>
      <trkpt lat="48.38482" lon="2.51659">
        <ele>71.9</ele>
        <time>2020-06-06T13:39:53Z</time>
      </trkpt>
      <trkpt lat="48.38485" lon="2.51653">
        <ele>71.8</ele>
        <time>2020-06-06T13:39:55Z</time>
      </trkpt>
      <trkpt lat="48.38491" lon="2.5164">
        <ele>71.4</ele>
        <time>2020-06-06T13:39:59Z</time>
      </trkpt>
      <trkpt lat="48.38494" lon="2.51633">
        <ele>71.2</ele>
        <time>2020-06-06T13:40:01Z</time>
      </trkpt>
      <trkpt lat="48.38497" lon="2.51626">
        <ele>71.1</ele>
        <time>2020-06-06T13:40:03Z</time>
      </trkpt>
      <trkpt lat="48.38499" lon="2.51618">
        <ele>71</ele>
        <time>2020-06-06T13:40:05Z</time>
      </trkpt>
      <trkpt lat="48.38502" lon="2.51611">
        <ele>71</ele>
        <time>2020-06-06T13:40:07Z</time>
      </trkpt>
      <trkpt lat="48.38505" lon="2.51602">
        <ele>70.7</ele>
        <time>2020-06-06T13:40:09Z</time>
      </trkpt>
      <trkpt lat="48.38507" lon="2.51596">
        <ele>70.5</ele>
        <time>2020-06-06T13:40:11Z</time>
      </trkpt>
      <trkpt lat="48.38509" lon="2.51588">
        <ele>70.2</ele>
        <time>2020-06-06T13:40:13Z</time>
      </trkpt>
      <trkpt lat="48.38511" lon="2.51581">
        <ele>70</ele>
        <time>2020-06-06T13:40:15Z</time>
      </trkpt>
      <trkpt lat="48.38514" lon="2.51573">
        <ele>70</ele>
        <time>2020-06-06T13:40:17Z</time>
      </trkpt>
      <trkpt lat="48.38519" lon="2.51565">
        <ele>70</ele>
        <time>2020-06-06T13:40:19Z</time>
      </trkpt>
      <trkpt lat="48.38522" lon="2.51555">
        <ele>70</ele>
        <time>2020-06-06T13:40:21Z</time>
      </trkpt>
      <trkpt lat="48.38524" lon="2.51544">
        <ele>69.6</ele>
        <time>2020-06-06T13:40:23Z</time>
      </trkpt>
      <trkpt lat="48.38526" lon="2.51534">
        <ele>69.3</ele>
        <time>2020-06-06T13:40:25Z</time>
      </trkpt>
      <trkpt lat="48.38531" lon="2.51526">
        <ele>69</ele>
        <time>2020-06-06T13:40:27Z</time>
      </trkpt>
      <trkpt lat="48.38536" lon="2.51519">
        <ele>69</ele>
        <time>2020-06-06T13:40:29Z</time>
      </trkpt>
      <trkpt lat="48.38541" lon="2.51512">
        <ele>69</ele>
        <time>2020-06-06T13:40:31Z</time>
      </trkpt>
      <trkpt lat="48.38544" lon="2.51505">
        <ele>69</ele>
        <time>2020-06-06T13:40:33Z</time>
      </trkpt>
      <trkpt lat="48.38547" lon="2.51497">
        <ele>69</ele>
        <time>2020-06-06T13:40:35Z</time>
      </trkpt>
      <trkpt lat="48.3855" lon="2.51491">
        <ele>69.1</ele>
        <time>2020-06-06T13:40:37Z</time>
      </trkpt>
      <trkpt lat="48.38554" lon="2.51485">
        <ele>69</ele>
        <time>2020-06-06T13:40:39Z</time>
      </trkpt>
      <trkpt lat="48.3856" lon="2.51479">
        <ele>69</ele>
        <time>2020-06-06T13:40:41Z</time>
      </trkpt>
      <trkpt lat="48.38564" lon="2.51471">
        <ele>69</ele>
        <time>2020-06-06T13:40:43Z</time>
      </trkpt>
      <trkpt lat="48.38566" lon="2.51464">
        <ele>69.2</ele>
        <time>2020-06-06T13:40:49Z</time>
      </trkpt>
      <trkpt lat="48.38561" lon="2.51471">
        <ele>69</ele>
        <time>2020-06-06T13:41:01Z</time>
      </trkpt>
      <trkpt lat="48.38555" lon="2.51479">
        <ele>69</ele>
        <time>2020-06-06T13:41:05Z</time>
      </trkpt>
      <trkpt lat="48.38548" lon="2.51487">
        <ele>69.1</ele>
        <time>2020-06-06T13:41:09Z</time>
      </trkpt>
      <trkpt lat="48.38547" lon="2.51497">
        <ele>69</ele>
        <time>2020-06-06T13:41:11Z</time>
      </trkpt>
      <trkpt lat="48.38545" lon="2.51505">
        <ele>69</ele>
        <time>2020-06-06T13:41:13Z</time>
      </trkpt>
      <trkpt lat="48.38541" lon="2.51511">
        <ele>69</ele>
        <time>2020-06-06T13:41:15Z</time>
      </trkpt>
      <trkpt lat="48.38538" lon="2.51517">
        <ele>69</ele>
        <time>2020-06-06T13:41:17Z</time>
      </trkpt>
      <trkpt lat="48.3854" lon="2.51523">
        <ele>69</ele>
        <time>2020-06-06T13:41:19Z</time>
      </trkpt>
      <trkpt lat="48.38545" lon="2.5153">
        <ele>69</ele>
        <time>2020-06-06T13:41:21Z</time>
      </trkpt>
      <trkpt lat="48.3855" lon="2.51537">
        <ele>69.1</ele>
        <time>2020-06-06T13:41:23Z</time>
      </trkpt>
      <trkpt lat="48.38555" lon="2.51543">
        <ele>69</ele>
        <time>2020-06-06T13:41:25Z</time>
      </trkpt>
      <trkpt lat="48.38561" lon="2.51549">
        <ele>69</ele>
        <time>2020-06-06T13:41:27Z</time>
      </trkpt>
      <trkpt lat="48.38566" lon="2.51557">
        <ele>69</ele>
        <time>2020-06-06T13:41:29Z</time>
      </trkpt>
      <trkpt lat="48.38571" lon="2.51564">
        <ele>69.1</ele>
        <time>2020-06-06T13:41:31Z</time>
      </trkpt>
      <trkpt lat="48.38574" lon="2.51569">
        <ele>69.2</ele>
        <time>2020-06-06T13:41:33Z</time>
      </trkpt>
      <trkpt lat="48.38578" lon="2.51576">
        <ele>69.1</ele>
        <time>2020-06-06T13:41:35Z</time>
      </trkpt>
      <trkpt lat="48.38583" lon="2.51584">
        <ele>69</ele>
        <time>2020-06-06T13:41:37Z</time>
      </trkpt>
      <trkpt lat="48.38588" lon="2.51592">
        <ele>69.3</ele>
        <time>2020-06-06T13:41:39Z</time>
      </trkpt>
      <trkpt lat="48.38593" lon="2.51597">
        <ele>69.5</ele>
        <time>2020-06-06T13:41:41Z</time>
      </trkpt>
      <trkpt lat="48.38598" lon="2.51604">
        <ele>69.7</ele>
        <time>2020-06-06T13:41:43Z</time>
      </trkpt>
      <trkpt lat="48.38602" lon="2.51611">
        <ele>70</ele>
        <time>2020-06-06T13:41:45Z</time>
      </trkpt>
      <trkpt lat="48.38606" lon="2.51616">
        <ele>70.2</ele>
        <time>2020-06-06T13:41:47Z</time>
      </trkpt>
      <trkpt lat="48.38611" lon="2.51621">
        <ele>70.4</ele>
        <time>2020-06-06T13:41:49Z</time>
      </trkpt>
      <trkpt lat="48.38616" lon="2.51628">
        <ele>70.4</ele>
        <time>2020-06-06T13:41:51Z</time>
      </trkpt>
      <trkpt lat="48.38621" lon="2.51634">
        <ele>70.5</ele>
        <time>2020-06-06T13:41:53Z</time>
      </trkpt>
      <trkpt lat="48.38627" lon="2.51632">
        <ele>70.2</ele>
        <time>2020-06-06T13:41:55Z</time>
      </trkpt>
      <trkpt lat="48.3863" lon="2.51626">
        <ele>69.9</ele>
        <time>2020-06-06T13:41:57Z</time>
      </trkpt>
      <trkpt lat="48.38636" lon="2.51622">
        <ele>69.5</ele>
        <time>2020-06-06T13:41:59Z</time>
      </trkpt>
      <trkpt lat="48.38644" lon="2.51621">
        <ele>69.4</ele>
        <time>2020-06-06T13:42:01Z</time>
      </trkpt>
      <trkpt lat="48.38651" lon="2.51626">
        <ele>69.5</ele>
        <time>2020-06-06T13:42:03Z</time>
      </trkpt>
      <trkpt lat="48.38658" lon="2.51628">
        <ele>69.6</ele>
        <time>2020-06-06T13:42:05Z</time>
      </trkpt>
      <trkpt lat="48.38663" lon="2.51636">
        <ele>69.9</ele>
        <time>2020-06-06T13:42:07Z</time>
      </trkpt>
      <trkpt lat="48.38668" lon="2.51646">
        <ele>70</ele>
        <time>2020-06-06T13:42:09Z</time>
      </trkpt>
      <trkpt lat="48.38673" lon="2.51655">
        <ele>69.8</ele>
        <time>2020-06-06T13:42:11Z</time>
      </trkpt>
      <trkpt lat="48.38677" lon="2.51664">
        <ele>69.6</ele>
        <time>2020-06-06T13:42:13Z</time>
      </trkpt>
      <trkpt lat="48.38683" lon="2.51672">
        <ele>69.6</ele>
        <time>2020-06-06T13:42:15Z</time>
      </trkpt>
      <trkpt lat="48.38688" lon="2.51676">
        <ele>69.6</ele>
        <time>2020-06-06T13:42:17Z</time>
      </trkpt>
      <trkpt lat="48.38697" lon="2.5168">
        <ele>69.4</ele>
        <time>2020-06-06T13:42:19Z</time>
      </trkpt>
      <trkpt lat="48.38704" lon="2.51688">
        <ele>69.5</ele>
        <time>2020-06-06T13:42:21Z</time>
      </trkpt>
      <trkpt lat="48.38711" lon="2.51695">
        <ele>69.4</ele>
        <time>2020-06-06T13:42:23Z</time>
      </trkpt>
      <trkpt lat="48.38717" lon="2.51702">
        <ele>69.2</ele>
        <time>2020-06-06T13:42:25Z</time>
      </trkpt>
      <trkpt lat="48.38721" lon="2.51712">
        <ele>69</ele>
        <time>2020-06-06T13:42:27Z</time>
      </trkpt>
      <trkpt lat="48.38727" lon="2.5172">
        <ele>68.8</ele>
        <time>2020-06-06T13:42:29Z</time>
      </trkpt>
      <trkpt lat="48.38733" lon="2.51729">
        <ele>68.6</ele>
        <time>2020-06-06T13:42:31Z</time>
      </trkpt>
      <trkpt lat="48.38739" lon="2.51738">
        <ele>68.4</ele>
        <time>2020-06-06T13:42:33Z</time>
      </trkpt>
      <trkpt lat="48.38745" lon="2.51748">
        <ele>68.2</ele>
        <time>2020-06-06T13:42:35Z</time>
      </trkpt>
      <trkpt lat="48.38749" lon="2.51758">
        <ele>68</ele>
        <time>2020-06-06T13:42:37Z</time>
      </trkpt>
      <trkpt lat="48.38751" lon="2.5177">
        <ele>68</ele>
        <time>2020-06-06T13:42:39Z</time>
      </trkpt>
      <trkpt lat="48.38752" lon="2.51779">
        <ele>68</ele>
        <time>2020-06-06T13:42:41Z</time>
      </trkpt>
      <trkpt lat="48.38756" lon="2.51793">
        <ele>68</ele>
        <time>2020-06-06T13:42:45Z</time>
      </trkpt>
      <trkpt lat="48.38759" lon="2.51807">
        <ele>68</ele>
        <time>2020-06-06T13:42:47Z</time>
      </trkpt>
      <trkpt lat="48.38764" lon="2.51821">
        <ele>68</ele>
        <time>2020-06-06T13:42:49Z</time>
      </trkpt>
      <trkpt lat="48.38768" lon="2.51833">
        <ele>68</ele>
        <time>2020-06-06T13:42:51Z</time>
      </trkpt>
      <trkpt lat="48.38771" lon="2.51846">
        <ele>68</ele>
        <time>2020-06-06T13:42:53Z</time>
      </trkpt>
      <trkpt lat="48.38774" lon="2.51856">
        <ele>68</ele>
        <time>2020-06-06T13:42:55Z</time>
      </trkpt>
      <trkpt lat="48.38777" lon="2.51865">
        <ele>68</ele>
        <time>2020-06-06T13:42:57Z</time>
      </trkpt>
      <trkpt lat="48.38778" lon="2.51873">
        <ele>68</ele>
        <time>2020-06-06T13:42:59Z</time>
      </trkpt>
      <trkpt lat="48.38779" lon="2.51881">
        <ele>68</ele>
        <time>2020-06-06T13:43:01Z</time>
      </trkpt>
      <trkpt lat="48.38778" lon="2.51891">
        <ele>68.1</ele>
        <time>2020-06-06T13:43:05Z</time>
      </trkpt>
      <trkpt lat="48.38768" lon="2.51897">
        <ele>68.3</ele>
        <time>2020-06-06T13:43:09Z</time>
      </trkpt>
      <trkpt lat="48.38763" lon="2.519">
        <ele>68.4</ele>
        <time>2020-06-06T13:43:11Z</time>
      </trkpt>
      <trkpt lat="48.38758" lon="2.51905">
        <ele>68.6</ele>
        <time>2020-06-06T13:43:13Z</time>
      </trkpt>
      <trkpt lat="48.38754" lon="2.51912">
        <ele>68.8</ele>
        <time>2020-06-06T13:43:15Z</time>
      </trkpt>
      <trkpt lat="48.38753" lon="2.5192">
        <ele>69</ele>
        <time>2020-06-06T13:43:17Z</time>
      </trkpt>
      <trkpt lat="48.38756" lon="2.5193">
        <ele>69</ele>
        <time>2020-06-06T13:43:21Z</time>
      </trkpt>
      <trkpt lat="48.38755" lon="2.51939">
        <ele>69</ele>
        <time>2020-06-06T13:43:25Z</time>
      </trkpt>
      <trkpt lat="48.38755" lon="2.51946">
        <ele>69.1</ele>
        <time>2020-06-06T13:43:29Z</time>
      </trkpt>
      <trkpt lat="48.38756" lon="2.51953">
        <ele>69.3</ele>
        <time>2020-06-06T13:43:31Z</time>
      </trkpt>
      <trkpt lat="48.38759" lon="2.51962">
        <ele>69.6</ele>
        <time>2020-06-06T13:43:33Z</time>
      </trkpt>
      <trkpt lat="48.38762" lon="2.51969">
        <ele>69.9</ele>
        <time>2020-06-06T13:43:35Z</time>
      </trkpt>
      <trkpt lat="48.38767" lon="2.51976">
        <ele>70.1</ele>
        <time>2020-06-06T13:43:39Z</time>
      </trkpt>
      <trkpt lat="48.38772" lon="2.51976">
        <ele>70.1</ele>
        <time>2020-06-06T13:43:45Z</time>
      </trkpt>
      <trkpt lat="48.38777" lon="2.51975">
        <ele>70.1</ele>
        <time>2020-06-06T13:43:49Z</time>
      </trkpt>
      <trkpt lat="48.38783" lon="2.51975">
        <ele>70.1</ele>
        <time>2020-06-06T13:43:53Z</time>
      </trkpt>
      <trkpt lat="48.3879" lon="2.51974">
        <ele>70.1</ele>
        <time>2020-06-06T13:43:55Z</time>
      </trkpt>
      <trkpt lat="48.38795" lon="2.51974">
        <ele>70.1</ele>
        <time>2020-06-06T13:43:57Z</time>
      </trkpt>
      <trkpt lat="48.388" lon="2.51974">
        <ele>70.1</ele>
        <time>2020-06-06T13:43:59Z</time>
      </trkpt>
      <trkpt lat="48.38805" lon="2.51971">
        <ele>70</ele>
        <time>2020-06-06T13:44:01Z</time>
      </trkpt>
      <trkpt lat="48.38811" lon="2.5197">
        <ele>69.9</ele>
        <time>2020-06-06T13:44:03Z</time>
      </trkpt>
      <trkpt lat="48.38819" lon="2.5197">
        <ele>70</ele>
        <time>2020-06-06T13:44:05Z</time>
      </trkpt>
      <trkpt lat="48.38827" lon="2.51967">
        <ele>70</ele>
        <time>2020-06-06T13:44:07Z</time>
      </trkpt>
      <trkpt lat="48.38835" lon="2.51967">
        <ele>70</ele>
        <time>2020-06-06T13:44:09Z</time>
      </trkpt>
      <trkpt lat="48.38841" lon="2.51964">
        <ele>70.2</ele>
        <time>2020-06-06T13:44:11Z</time>
      </trkpt>
      <trkpt lat="48.38846" lon="2.51961">
        <ele>70.3</ele>
        <time>2020-06-06T13:44:13Z</time>
      </trkpt>
      <trkpt lat="48.38853" lon="2.5196">
        <ele>70.4</ele>
        <time>2020-06-06T13:44:15Z</time>
      </trkpt>
      <trkpt lat="48.38859" lon="2.51961">
        <ele>70.6</ele>
        <time>2020-06-06T13:44:17Z</time>
      </trkpt>
      <trkpt lat="48.38865" lon="2.51961">
        <ele>70.7</ele>
        <time>2020-06-06T13:44:19Z</time>
      </trkpt>
      <trkpt lat="48.38872" lon="2.51959">
        <ele>70.7</ele>
        <time>2020-06-06T13:44:21Z</time>
      </trkpt>
      <trkpt lat="48.38879" lon="2.51955">
        <ele>70.8</ele>
        <time>2020-06-06T13:44:23Z</time>
      </trkpt>
      <trkpt lat="48.38883" lon="2.51947">
        <ele>70.8</ele>
        <time>2020-06-06T13:44:27Z</time>
      </trkpt>
      <trkpt lat="48.38886" lon="2.51938">
        <ele>70.7</ele>
        <time>2020-06-06T13:44:31Z</time>
      </trkpt>
      <trkpt lat="48.38889" lon="2.5193">
        <ele>70.5</ele>
        <time>2020-06-06T13:44:33Z</time>
      </trkpt>
      <trkpt lat="48.38895" lon="2.51922">
        <ele>70.4</ele>
        <time>2020-06-06T13:44:35Z</time>
      </trkpt>
      <trkpt lat="48.38899" lon="2.51916">
        <ele>70.4</ele>
        <time>2020-06-06T13:44:37Z</time>
      </trkpt>
      <trkpt lat="48.38907" lon="2.51909">
        <ele>70.7</ele>
        <time>2020-06-06T13:44:41Z</time>
      </trkpt>
      <trkpt lat="48.38913" lon="2.51903">
        <ele>70.9</ele>
        <time>2020-06-06T13:44:43Z</time>
      </trkpt>
      <trkpt lat="48.38917" lon="2.51897">
        <ele>71</ele>
        <time>2020-06-06T13:44:45Z</time>
      </trkpt>
      <trkpt lat="48.38922" lon="2.51889">
        <ele>71</ele>
        <time>2020-06-06T13:44:47Z</time>
      </trkpt>
      <trkpt lat="48.38927" lon="2.51885">
        <ele>70.9</ele>
        <time>2020-06-06T13:44:49Z</time>
      </trkpt>
      <trkpt lat="48.38932" lon="2.51883">
        <ele>70.8</ele>
        <time>2020-06-06T13:44:51Z</time>
      </trkpt>
      <trkpt lat="48.38938" lon="2.51883">
        <ele>70.8</ele>
        <time>2020-06-06T13:44:53Z</time>
      </trkpt>
      <trkpt lat="48.38943" lon="2.51883">
        <ele>70.8</ele>
        <time>2020-06-06T13:44:55Z</time>
      </trkpt>
      <trkpt lat="48.38949" lon="2.51882">
        <ele>70.8</ele>
        <time>2020-06-06T13:44:57Z</time>
      </trkpt>
      <trkpt lat="48.38958" lon="2.5188">
        <ele>70.8</ele>
        <time>2020-06-06T13:45:01Z</time>
      </trkpt>
      <trkpt lat="48.38962" lon="2.51877">
        <ele>70.8</ele>
        <time>2020-06-06T13:45:03Z</time>
      </trkpt>
      <trkpt lat="48.38966" lon="2.51872">
        <ele>70.9</ele>
        <time>2020-06-06T13:45:05Z</time>
      </trkpt>
      <trkpt lat="48.3897" lon="2.51868">
        <ele>70.9</ele>
        <time>2020-06-06T13:45:13Z</time>
      </trkpt>
      <trkpt lat="48.38976" lon="2.51866">
        <ele>71</ele>
        <time>2020-06-06T13:45:21Z</time>
      </trkpt>
      <trkpt lat="48.38982" lon="2.51871">
        <ele>71</ele>
        <time>2020-06-06T13:45:25Z</time>
      </trkpt>
      <trkpt lat="48.38986" lon="2.51877">
        <ele>71</ele>
        <time>2020-06-06T13:45:27Z</time>
      </trkpt>
      <trkpt lat="48.3899" lon="2.51884">
        <ele>71</ele>
        <time>2020-06-06T13:45:29Z</time>
      </trkpt>
      <trkpt lat="48.38995" lon="2.5189">
        <ele>71</ele>
        <time>2020-06-06T13:45:31Z</time>
      </trkpt>
      <trkpt lat="48.38999" lon="2.51893">
        <ele>71.1</ele>
        <time>2020-06-06T13:45:33Z</time>
      </trkpt>
      <trkpt lat="48.39003" lon="2.51898">
        <ele>71.4</ele>
        <time>2020-06-06T13:45:35Z</time>
      </trkpt>
      <trkpt lat="48.39007" lon="2.519">
        <ele>71.6</ele>
        <time>2020-06-06T13:46:07Z</time>
      </trkpt>
      <trkpt lat="48.39013" lon="2.51894">
        <ele>71.6</ele>
        <time>2020-06-06T13:46:11Z</time>
      </trkpt>
      <trkpt lat="48.39021" lon="2.51886">
        <ele>71.7</ele>
        <time>2020-06-06T13:46:15Z</time>
      </trkpt>
      <trkpt lat="48.39027" lon="2.51882">
        <ele>71.7</ele>
        <time>2020-06-06T13:46:17Z</time>
      </trkpt>
      <trkpt lat="48.39031" lon="2.51877">
        <ele>71.6</ele>
        <time>2020-06-06T13:46:19Z</time>
      </trkpt>
      <trkpt lat="48.39035" lon="2.51872">
        <ele>71.6</ele>
        <time>2020-06-06T13:46:21Z</time>
      </trkpt>
      <trkpt lat="48.3904" lon="2.51867">
        <ele>71.6</ele>
        <time>2020-06-06T13:46:23Z</time>
      </trkpt>
      <trkpt lat="48.39043" lon="2.51861">
        <ele>71.5</ele>
        <time>2020-06-06T13:46:25Z</time>
      </trkpt>
      <trkpt lat="48.39047" lon="2.51857">
        <ele>71.6</ele>
        <time>2020-06-06T13:46:27Z</time>
      </trkpt>
      <trkpt lat="48.39051" lon="2.51851">
        <ele>71.5</ele>
        <time>2020-06-06T13:46:29Z</time>
      </trkpt>
      <trkpt lat="48.39055" lon="2.51848">
        <ele>71.5</ele>
        <time>2020-06-06T13:46:31Z</time>
      </trkpt>
      <trkpt lat="48.39059" lon="2.51842">
        <ele>71.4</ele>
        <time>2020-06-06T13:46:33Z</time>
      </trkpt>
      <trkpt lat="48.39064" lon="2.51836">
        <ele>71.4</ele>
        <time>2020-06-06T13:46:35Z</time>
      </trkpt>
      <trkpt lat="48.39068" lon="2.51831">
        <ele>71.4</ele>
        <time>2020-06-06T13:46:37Z</time>
      </trkpt>
      <trkpt lat="48.39073" lon="2.51827">
        <ele>71.5</ele>
        <time>2020-06-06T13:46:39Z</time>
      </trkpt>
      <trkpt lat="48.39078" lon="2.51825">
        <ele>71.6</ele>
        <time>2020-06-06T13:46:41Z</time>
      </trkpt>
      <trkpt lat="48.39082" lon="2.51822">
        <ele>71.6</ele>
        <time>2020-06-06T13:46:43Z</time>
      </trkpt>
      <trkpt lat="48.39086" lon="2.51817">
        <ele>71.5</ele>
        <time>2020-06-06T13:46:45Z</time>
      </trkpt>
      <trkpt lat="48.3909" lon="2.51814">
        <ele>71.5</ele>
        <time>2020-06-06T13:46:47Z</time>
      </trkpt>
      <trkpt lat="48.39094" lon="2.5181">
        <ele>71.5</ele>
        <time>2020-06-06T13:46:49Z</time>
      </trkpt>
      <trkpt lat="48.391" lon="2.51807">
        <ele>71.7</ele>
        <time>2020-06-06T13:46:51Z</time>
      </trkpt>
      <trkpt lat="48.39103" lon="2.51802">
        <ele>71.7</ele>
        <time>2020-06-06T13:46:53Z</time>
      </trkpt>
      <trkpt lat="48.39106" lon="2.51797">
        <ele>71.8</ele>
        <time>2020-06-06T13:46:55Z</time>
      </trkpt>
      <trkpt lat="48.39109" lon="2.5179">
        <ele>71.9</ele>
        <time>2020-06-06T13:46:57Z</time>
      </trkpt>
      <trkpt lat="48.39112" lon="2.51784">
        <ele>72.1</ele>
        <time>2020-06-06T13:46:59Z</time>
      </trkpt>
      <trkpt lat="48.39116" lon="2.51778">
        <ele>72.4</ele>
        <time>2020-06-06T13:47:01Z</time>
      </trkpt>
      <trkpt lat="48.39119" lon="2.51771">
        <ele>72.3</ele>
        <time>2020-06-06T13:47:03Z</time>
      </trkpt>
      <trkpt lat="48.39122" lon="2.51763">
        <ele>72.3</ele>
        <time>2020-06-06T13:47:05Z</time>
      </trkpt>
      <trkpt lat="48.39124" lon="2.51756">
        <ele>72.1</ele>
        <time>2020-06-06T13:47:07Z</time>
      </trkpt>
      <trkpt lat="48.39127" lon="2.51751">
        <ele>72.2</ele>
        <time>2020-06-06T13:47:09Z</time>
      </trkpt>
      <trkpt lat="48.3913" lon="2.51743">
        <ele>72.2</ele>
        <time>2020-06-06T13:47:11Z</time>
      </trkpt>
      <trkpt lat="48.39132" lon="2.51735">
        <ele>72.1</ele>
        <time>2020-06-06T13:47:13Z</time>
      </trkpt>
      <trkpt lat="48.39135" lon="2.51727">
        <ele>72</ele>
        <time>2020-06-06T13:47:15Z</time>
      </trkpt>
      <trkpt lat="48.39139" lon="2.51719">
        <ele>72</ele>
        <time>2020-06-06T13:47:17Z</time>
      </trkpt>
      <trkpt lat="48.39142" lon="2.51711">
        <ele>72.4</ele>
        <time>2020-06-06T13:47:19Z</time>
      </trkpt>
      <trkpt lat="48.39144" lon="2.51702">
        <ele>72.5</ele>
        <time>2020-06-06T13:47:21Z</time>
      </trkpt>
      <trkpt lat="48.39144" lon="2.51692">
        <ele>72.4</ele>
        <time>2020-06-06T13:47:23Z</time>
      </trkpt>
      <trkpt lat="48.39148" lon="2.51686">
        <ele>72.6</ele>
        <time>2020-06-06T13:47:25Z</time>
      </trkpt>
      <trkpt lat="48.39151" lon="2.51677">
        <ele>72.6</ele>
        <time>2020-06-06T13:47:27Z</time>
      </trkpt>
      <trkpt lat="48.39156" lon="2.51671">
        <ele>72.7</ele>
        <time>2020-06-06T13:47:29Z</time>
      </trkpt>
      <trkpt lat="48.39161" lon="2.51666">
        <ele>72.8</ele>
        <time>2020-06-06T13:47:31Z</time>
      </trkpt>
      <trkpt lat="48.39166" lon="2.51662">
        <ele>72.8</ele>
        <time>2020-06-06T13:47:33Z</time>
      </trkpt>
      <trkpt lat="48.39174" lon="2.51657">
        <ele>72.9</ele>
        <time>2020-06-06T13:47:37Z</time>
      </trkpt>
      <trkpt lat="48.39182" lon="2.51652">
        <ele>73</ele>
        <time>2020-06-06T13:47:41Z</time>
      </trkpt>
      <trkpt lat="48.39187" lon="2.51649">
        <ele>73.1</ele>
        <time>2020-06-06T13:47:43Z</time>
      </trkpt>
      <trkpt lat="48.39192" lon="2.51648">
        <ele>73.2</ele>
        <time>2020-06-06T13:47:45Z</time>
      </trkpt>
      <trkpt lat="48.39198" lon="2.51648">
        <ele>73.4</ele>
        <time>2020-06-06T13:47:47Z</time>
      </trkpt>
      <trkpt lat="48.39205" lon="2.51647">
        <ele>73.4</ele>
        <time>2020-06-06T13:47:49Z</time>
      </trkpt>
      <trkpt lat="48.39211" lon="2.51646">
        <ele>73.4</ele>
        <time>2020-06-06T13:47:51Z</time>
      </trkpt>
      <trkpt lat="48.39216" lon="2.51643">
        <ele>73.3</ele>
        <time>2020-06-06T13:47:53Z</time>
      </trkpt>
      <trkpt lat="48.39221" lon="2.51636">
        <ele>72.9</ele>
        <time>2020-06-06T13:47:55Z</time>
      </trkpt>
      <trkpt lat="48.39226" lon="2.51629">
        <ele>72.9</ele>
        <time>2020-06-06T13:47:57Z</time>
      </trkpt>
      <trkpt lat="48.3923" lon="2.51621">
        <ele>72.7</ele>
        <time>2020-06-06T13:47:59Z</time>
      </trkpt>
      <trkpt lat="48.39236" lon="2.51616">
        <ele>72.8</ele>
        <time>2020-06-06T13:48:01Z</time>
      </trkpt>
      <trkpt lat="48.3924" lon="2.51609">
        <ele>72.6</ele>
        <time>2020-06-06T13:48:03Z</time>
      </trkpt>
      <trkpt lat="48.39244" lon="2.51604">
        <ele>72.5</ele>
        <time>2020-06-06T13:48:05Z</time>
      </trkpt>
      <trkpt lat="48.39248" lon="2.51597">
        <ele>72.4</ele>
        <time>2020-06-06T13:48:07Z</time>
      </trkpt>
      <trkpt lat="48.39251" lon="2.51587">
        <ele>72.2</ele>
        <time>2020-06-06T13:48:09Z</time>
      </trkpt>
      <trkpt lat="48.39255" lon="2.5158">
        <ele>72.1</ele>
        <time>2020-06-06T13:48:11Z</time>
      </trkpt>
      <trkpt lat="48.39258" lon="2.51572">
        <ele>71.9</ele>
        <time>2020-06-06T13:48:13Z</time>
      </trkpt>
      <trkpt lat="48.39259" lon="2.51565">
        <ele>71.7</ele>
        <time>2020-06-06T13:48:15Z</time>
      </trkpt>
      <trkpt lat="48.39261" lon="2.51559">
        <ele>71.5</ele>
        <time>2020-06-06T13:48:17Z</time>
      </trkpt>
      <trkpt lat="48.39263" lon="2.51552">
        <ele>71.4</ele>
        <time>2020-06-06T13:48:19Z</time>
      </trkpt>
      <trkpt lat="48.39263" lon="2.51544">
        <ele>71.3</ele>
        <time>2020-06-06T13:48:21Z</time>
      </trkpt>
      <trkpt lat="48.39262" lon="2.51537">
        <ele>71.1</ele>
        <time>2020-06-06T13:48:23Z</time>
      </trkpt>
      <trkpt lat="48.39259" lon="2.5153">
        <ele>71</ele>
        <time>2020-06-06T13:48:25Z</time>
      </trkpt>
      <trkpt lat="48.39261" lon="2.51516">
        <ele>70.7</ele>
        <time>2020-06-06T13:48:29Z</time>
      </trkpt>
      <trkpt lat="48.39263" lon="2.5151">
        <ele>70.7</ele>
        <time>2020-06-06T13:48:31Z</time>
      </trkpt>
      <trkpt lat="48.39263" lon="2.51503">
        <ele>70.5</ele>
        <time>2020-06-06T13:48:33Z</time>
      </trkpt>
      <trkpt lat="48.39265" lon="2.51495">
        <ele>70.4</ele>
        <time>2020-06-06T13:48:35Z</time>
      </trkpt>
      <trkpt lat="48.39264" lon="2.51487">
        <ele>70</ele>
        <time>2020-06-06T13:48:37Z</time>
      </trkpt>
      <trkpt lat="48.3926" lon="2.5148">
        <ele>69.6</ele>
        <time>2020-06-06T13:48:39Z</time>
      </trkpt>
      <trkpt lat="48.39255" lon="2.51477">
        <ele>69.4</ele>
        <time>2020-06-06T13:48:43Z</time>
      </trkpt>
      <trkpt lat="48.39261" lon="2.51484">
        <ele>69.8</ele>
        <time>2020-06-06T13:48:55Z</time>
      </trkpt>
      <trkpt lat="48.39268" lon="2.51493">
        <ele>70.4</ele>
        <time>2020-06-06T13:48:59Z</time>
      </trkpt>
      <trkpt lat="48.39272" lon="2.51495">
        <ele>70.6</ele>
        <time>2020-06-06T13:49:01Z</time>
      </trkpt>
      <trkpt lat="48.39281" lon="2.51492">
        <ele>70.9</ele>
        <time>2020-06-06T13:49:05Z</time>
      </trkpt>
      <trkpt lat="48.39284" lon="2.51483">
        <ele>70.7</ele>
        <time>2020-06-06T13:49:07Z</time>
      </trkpt>
      <trkpt lat="48.39286" lon="2.51473">
        <ele>70.6</ele>
        <time>2020-06-06T13:49:09Z</time>
      </trkpt>
      <trkpt lat="48.39289" lon="2.51463">
        <ele>70.7</ele>
        <time>2020-06-06T13:49:11Z</time>
      </trkpt>
      <trkpt lat="48.39294" lon="2.51452">
        <ele>70.7</ele>
        <time>2020-06-06T13:49:13Z</time>
      </trkpt>
      <trkpt lat="48.39297" lon="2.5144">
        <ele>70.6</ele>
        <time>2020-06-06T13:49:15Z</time>
      </trkpt>
      <trkpt lat="48.39301" lon="2.51429">
        <ele>70.7</ele>
        <time>2020-06-06T13:49:17Z</time>
      </trkpt>
      <trkpt lat="48.39303" lon="2.51421">
        <ele>70.8</ele>
        <time>2020-06-06T13:49:19Z</time>
      </trkpt>
      <trkpt lat="48.39308" lon="2.5141">
        <ele>70.9</ele>
        <time>2020-06-06T13:49:21Z</time>
      </trkpt>
      <trkpt lat="48.39314" lon="2.51406">
        <ele>71.2</ele>
        <time>2020-06-06T13:49:23Z</time>
      </trkpt>
      <trkpt lat="48.39319" lon="2.51399">
        <ele>71.3</ele>
        <time>2020-06-06T13:49:25Z</time>
      </trkpt>
      <trkpt lat="48.39323" lon="2.51391">
        <ele>71.3</ele>
        <time>2020-06-06T13:49:27Z</time>
      </trkpt>
      <trkpt lat="48.39328" lon="2.51384">
        <ele>71.5</ele>
        <time>2020-06-06T13:49:29Z</time>
      </trkpt>
      <trkpt lat="48.39333" lon="2.51383">
        <ele>71.8</ele>
        <time>2020-06-06T13:49:31Z</time>
      </trkpt>
      <trkpt lat="48.39341" lon="2.51377">
        <ele>72.6</ele>
        <time>2020-06-06T13:49:35Z</time>
      </trkpt>
      <trkpt lat="48.39346" lon="2.51378">
        <ele>73.3</ele>
        <time>2020-06-06T13:49:37Z</time>
      </trkpt>
      <trkpt lat="48.3935" lon="2.51377">
        <ele>73.7</ele>
        <time>2020-06-06T13:49:39Z</time>
      </trkpt>
      <trkpt lat="48.39355" lon="2.51375">
        <ele>74.2</ele>
        <time>2020-06-06T13:49:41Z</time>
      </trkpt>
      <trkpt lat="48.39359" lon="2.51371">
        <ele>74.5</ele>
        <time>2020-06-06T13:49:43Z</time>
      </trkpt>
      <trkpt lat="48.39365" lon="2.51369">
        <ele>75.1</ele>
        <time>2020-06-06T13:49:47Z</time>
      </trkpt>
      <trkpt lat="48.39373" lon="2.51371">
        <ele>76.4</ele>
        <time>2020-06-06T13:49:51Z</time>
      </trkpt>
      <trkpt lat="48.39379" lon="2.51375">
        <ele>77.6</ele>
        <time>2020-06-06T13:49:53Z</time>
      </trkpt>
      <trkpt lat="48.39384" lon="2.51373">
        <ele>78.2</ele>
        <time>2020-06-06T13:49:55Z</time>
      </trkpt>
      <trkpt lat="48.39389" lon="2.51371">
        <ele>78.7</ele>
        <time>2020-06-06T13:49:57Z</time>
      </trkpt>
      <trkpt lat="48.39399" lon="2.51373">
        <ele>79.1</ele>
        <time>2020-06-06T13:50:01Z</time>
      </trkpt>
      <trkpt lat="48.39403" lon="2.51373">
        <ele>79.1</ele>
        <time>2020-06-06T13:50:03Z</time>
      </trkpt>
      <trkpt lat="48.39409" lon="2.51372">
        <ele>79.2</ele>
        <time>2020-06-06T13:50:05Z</time>
      </trkpt>
      <trkpt lat="48.39413" lon="2.51372">
        <ele>79.3</ele>
        <time>2020-06-06T13:50:07Z</time>
      </trkpt>
      <trkpt lat="48.39418" lon="2.51372">
        <ele>79.3</ele>
        <time>2020-06-06T13:50:09Z</time>
      </trkpt>
      <trkpt lat="48.39423" lon="2.51376">
        <ele>79.3</ele>
        <time>2020-06-06T13:50:11Z</time>
      </trkpt>
      <trkpt lat="48.39427" lon="2.51381">
        <ele>79.3</ele>
        <time>2020-06-06T13:50:13Z</time>
      </trkpt>
      <trkpt lat="48.39432" lon="2.51383">
        <ele>79.2</ele>
        <time>2020-06-06T13:50:15Z</time>
      </trkpt>
      <trkpt lat="48.39437" lon="2.51385">
        <ele>79.1</ele>
        <time>2020-06-06T13:50:17Z</time>
      </trkpt>
      <trkpt lat="48.39441" lon="2.51389">
        <ele>79.1</ele>
        <time>2020-06-06T13:50:19Z</time>
      </trkpt>
      <trkpt lat="48.39445" lon="2.51392">
        <ele>79.4</ele>
        <time>2020-06-06T13:50:21Z</time>
      </trkpt>
      <trkpt lat="48.39452" lon="2.51395">
        <ele>79.9</ele>
        <time>2020-06-06T13:50:25Z</time>
      </trkpt>
      <trkpt lat="48.39459" lon="2.51398">
        <ele>80.3</ele>
        <time>2020-06-06T13:50:29Z</time>
      </trkpt>
      <trkpt lat="48.39465" lon="2.51398">
        <ele>80.5</ele>
        <time>2020-06-06T13:50:33Z</time>
      </trkpt>
      <trkpt lat="48.39471" lon="2.51401">
        <ele>80.8</ele>
        <time>2020-06-06T13:50:37Z</time>
      </trkpt>
      <trkpt lat="48.39477" lon="2.51404">
        <ele>81.2</ele>
        <time>2020-06-06T13:50:41Z</time>
      </trkpt>
      <trkpt lat="48.3948" lon="2.51412">
        <ele>81.7</ele>
        <time>2020-06-06T13:50:45Z</time>
      </trkpt>
      <trkpt lat="48.39486" lon="2.51413">
        <ele>81.8</ele>
        <time>2020-06-06T13:50:49Z</time>
      </trkpt>
      <trkpt lat="48.39493" lon="2.51414">
        <ele>81.9</ele>
        <time>2020-06-06T13:50:53Z</time>
      </trkpt>
      <trkpt lat="48.39496" lon="2.51421">
        <ele>82.4</ele>
        <time>2020-06-06T13:50:57Z</time>
      </trkpt>
      <trkpt lat="48.39495" lon="2.51431">
        <ele>83.2</ele>
        <time>2020-06-06T13:51:01Z</time>
      </trkpt>
      <trkpt lat="48.39496" lon="2.51424">
        <ele>82.6</ele>
        <time>2020-06-06T13:51:33Z</time>
      </trkpt>
      <trkpt lat="48.39502" lon="2.51415">
        <ele>81.8</ele>
        <time>2020-06-06T13:51:39Z</time>
      </trkpt>
      <trkpt lat="48.39509" lon="2.51416">
        <ele>81.3</ele>
        <time>2020-06-06T13:51:43Z</time>
      </trkpt>
      <trkpt lat="48.39516" lon="2.51417">
        <ele>80.9</ele>
        <time>2020-06-06T13:51:47Z</time>
      </trkpt>
      <trkpt lat="48.39524" lon="2.51419">
        <ele>80.4</ele>
        <time>2020-06-06T13:51:51Z</time>
      </trkpt>
      <trkpt lat="48.39533" lon="2.51426">
        <ele>79.6</ele>
        <time>2020-06-06T13:51:55Z</time>
      </trkpt>
      <trkpt lat="48.39539" lon="2.51429">
        <ele>79</ele>
        <time>2020-06-06T13:51:59Z</time>
      </trkpt>
      <trkpt lat="48.39544" lon="2.5143">
        <ele>78.4</ele>
        <time>2020-06-06T13:52:01Z</time>
      </trkpt>
      <trkpt lat="48.39544" lon="2.5144">
        <ele>79</ele>
        <time>2020-06-06T13:52:05Z</time>
      </trkpt>
      <trkpt lat="48.39541" lon="2.51447">
        <ele>79.8</ele>
        <time>2020-06-06T13:52:09Z</time>
      </trkpt>
      <trkpt lat="48.39539" lon="2.51455">
        <ele>80.5</ele>
        <time>2020-06-06T13:52:13Z</time>
      </trkpt>
      <trkpt lat="48.39536" lon="2.51464">
        <ele>81.2</ele>
        <time>2020-06-06T13:52:17Z</time>
      </trkpt>
      <trkpt lat="48.39533" lon="2.51473">
        <ele>81.9</ele>
        <time>2020-06-06T13:52:21Z</time>
      </trkpt>
      <trkpt lat="48.3953" lon="2.51482">
        <ele>82.3</ele>
        <time>2020-06-06T13:52:25Z</time>
      </trkpt>
      <trkpt lat="48.39528" lon="2.51492">
        <ele>82.7</ele>
        <time>2020-06-06T13:52:29Z</time>
      </trkpt>
      <trkpt lat="48.39527" lon="2.51504">
        <ele>83.4</ele>
        <time>2020-06-06T13:52:33Z</time>
      </trkpt>
      <trkpt lat="48.39526" lon="2.51511">
        <ele>84</ele>
        <time>2020-06-06T13:52:35Z</time>
      </trkpt>
      <trkpt lat="48.39524" lon="2.51521">
        <ele>84.9</ele>
        <time>2020-06-06T13:52:39Z</time>
      </trkpt>
      <trkpt lat="48.39522" lon="2.51531">
        <ele>85.5</ele>
        <time>2020-06-06T13:52:43Z</time>
      </trkpt>
      <trkpt lat="48.3952" lon="2.51543">
        <ele>86.1</ele>
        <time>2020-06-06T13:52:47Z</time>
      </trkpt>
      <trkpt lat="48.3952" lon="2.51555">
        <ele>86.5</ele>
        <time>2020-06-06T13:52:51Z</time>
      </trkpt>
      <trkpt lat="48.39519" lon="2.51564">
        <ele>87</ele>
        <time>2020-06-06T13:52:55Z</time>
      </trkpt>
      <trkpt lat="48.39519" lon="2.51576">
        <ele>87.6</ele>
        <time>2020-06-06T13:52:59Z</time>
      </trkpt>
      <trkpt lat="48.39521" lon="2.51586">
        <ele>87.8</ele>
        <time>2020-06-06T13:53:03Z</time>
      </trkpt>
      <trkpt lat="48.39522" lon="2.51596">
        <ele>88.1</ele>
        <time>2020-06-06T13:53:07Z</time>
      </trkpt>
      <trkpt lat="48.39521" lon="2.51612">
        <ele>88.7</ele>
        <time>2020-06-06T13:53:11Z</time>
      </trkpt>
      <trkpt lat="48.3952" lon="2.51621">
        <ele>88.8</ele>
        <time>2020-06-06T13:53:13Z</time>
      </trkpt>
      <trkpt lat="48.3952" lon="2.51633">
        <ele>88.8</ele>
        <time>2020-06-06T13:53:15Z</time>
      </trkpt>
      <trkpt lat="48.3952" lon="2.51644">
        <ele>88.9</ele>
        <time>2020-06-06T13:53:17Z</time>
      </trkpt>
      <trkpt lat="48.3952" lon="2.51653">
        <ele>89.1</ele>
        <time>2020-06-06T13:53:19Z</time>
      </trkpt>
      <trkpt lat="48.39518" lon="2.51662">
        <ele>89.3</ele>
        <time>2020-06-06T13:53:21Z</time>
      </trkpt>
      <trkpt lat="48.39516" lon="2.5167">
        <ele>89.4</ele>
        <time>2020-06-06T13:53:23Z</time>
      </trkpt>
      <trkpt lat="48.39515" lon="2.51679">
        <ele>89.5</ele>
        <time>2020-06-06T13:53:25Z</time>
      </trkpt>
      <trkpt lat="48.39513" lon="2.51687">
        <ele>89.5</ele>
        <time>2020-06-06T13:53:27Z</time>
      </trkpt>
      <trkpt lat="48.39513" lon="2.51695">
        <ele>89.5</ele>
        <time>2020-06-06T13:53:29Z</time>
      </trkpt>
      <trkpt lat="48.39513" lon="2.51706">
        <ele>89.9</ele>
        <time>2020-06-06T13:53:31Z</time>
      </trkpt>
      <trkpt lat="48.39512" lon="2.51715">
        <ele>90.1</ele>
        <time>2020-06-06T13:53:33Z</time>
      </trkpt>
      <trkpt lat="48.39509" lon="2.51725">
        <ele>90.2</ele>
        <time>2020-06-06T13:53:35Z</time>
      </trkpt>
      <trkpt lat="48.39509" lon="2.51734">
        <ele>90.8</ele>
        <time>2020-06-06T13:53:37Z</time>
      </trkpt>
      <trkpt lat="48.39509" lon="2.51741">
        <ele>91.3</ele>
        <time>2020-06-06T13:53:39Z</time>
      </trkpt>
      <trkpt lat="48.39512" lon="2.51749">
        <ele>92.2</ele>
        <time>2020-06-06T13:53:43Z</time>
      </trkpt>
      <trkpt lat="48.39516" lon="2.51756">
        <ele>93.2</ele>
        <time>2020-06-06T13:53:47Z</time>
      </trkpt>
      <trkpt lat="48.39517" lon="2.51764">
        <ele>93.8</ele>
        <time>2020-06-06T13:53:51Z</time>
      </trkpt>
      <trkpt lat="48.39517" lon="2.51771">
        <ele>94.3</ele>
        <time>2020-06-06T13:53:55Z</time>
      </trkpt>
      <trkpt lat="48.39517" lon="2.51779">
        <ele>95</ele>
        <time>2020-06-06T13:53:59Z</time>
      </trkpt>
      <trkpt lat="48.39516" lon="2.51788">
        <ele>95.7</ele>
        <time>2020-06-06T13:54:03Z</time>
      </trkpt>
      <trkpt lat="48.39513" lon="2.51795">
        <ele>95.9</ele>
        <time>2020-06-06T13:54:07Z</time>
      </trkpt>
      <trkpt lat="48.39511" lon="2.51805">
        <ele>96.5</ele>
        <time>2020-06-06T13:54:11Z</time>
      </trkpt>
      <trkpt lat="48.39508" lon="2.51811">
        <ele>96.4</ele>
        <time>2020-06-06T13:54:13Z</time>
      </trkpt>
      <trkpt lat="48.39505" lon="2.51822">
        <ele>96.4</ele>
        <time>2020-06-06T13:54:17Z</time>
      </trkpt>
      <trkpt lat="48.39503" lon="2.51832">
        <ele>96.5</ele>
        <time>2020-06-06T13:54:21Z</time>
      </trkpt>
      <trkpt lat="48.39503" lon="2.51842">
        <ele>97.2</ele>
        <time>2020-06-06T13:54:25Z</time>
      </trkpt>
      <trkpt lat="48.39502" lon="2.51854">
        <ele>97.8</ele>
        <time>2020-06-06T13:54:29Z</time>
      </trkpt>
      <trkpt lat="48.39499" lon="2.51864">
        <ele>98.1</ele>
        <time>2020-06-06T13:54:33Z</time>
      </trkpt>
      <trkpt lat="48.39495" lon="2.51875">
        <ele>98.7</ele>
        <time>2020-06-06T13:54:37Z</time>
      </trkpt>
      <trkpt lat="48.39491" lon="2.51885">
        <ele>99.2</ele>
        <time>2020-06-06T13:54:41Z</time>
      </trkpt>
      <trkpt lat="48.39488" lon="2.51896">
        <ele>99.8</ele>
        <time>2020-06-06T13:54:45Z</time>
      </trkpt>
      <trkpt lat="48.39483" lon="2.51903">
        <ele>99.9</ele>
        <time>2020-06-06T13:54:49Z</time>
      </trkpt>
      <trkpt lat="48.39478" lon="2.51913">
        <ele>99.6</ele>
        <time>2020-06-06T13:54:53Z</time>
      </trkpt>
      <trkpt lat="48.39475" lon="2.51924">
        <ele>99.6</ele>
        <time>2020-06-06T13:54:57Z</time>
      </trkpt>
      <trkpt lat="48.39472" lon="2.51935">
        <ele>99.7</ele>
        <time>2020-06-06T13:55:01Z</time>
      </trkpt>
      <trkpt lat="48.39468" lon="2.51945">
        <ele>100.3</ele>
        <time>2020-06-06T13:55:05Z</time>
      </trkpt>
      <trkpt lat="48.39462" lon="2.51955">
        <ele>101.1</ele>
        <time>2020-06-06T13:55:09Z</time>
      </trkpt>
      <trkpt lat="48.39458" lon="2.51966">
        <ele>101.4</ele>
        <time>2020-06-06T13:55:13Z</time>
      </trkpt>
      <trkpt lat="48.39455" lon="2.51978">
        <ele>101.5</ele>
        <time>2020-06-06T13:55:17Z</time>
      </trkpt>
      <trkpt lat="48.39452" lon="2.51984">
        <ele>101.5</ele>
        <time>2020-06-06T13:55:19Z</time>
      </trkpt>
      <trkpt lat="48.3945" lon="2.51994">
        <ele>101.5</ele>
        <time>2020-06-06T13:55:23Z</time>
      </trkpt>
      <trkpt lat="48.39446" lon="2.52005">
        <ele>101.4</ele>
        <time>2020-06-06T13:55:27Z</time>
      </trkpt>
      <trkpt lat="48.39443" lon="2.52011">
        <ele>101.8</ele>
        <time>2020-06-06T13:55:29Z</time>
      </trkpt>
      <trkpt lat="48.39442" lon="2.52018">
        <ele>102.3</ele>
        <time>2020-06-06T13:55:31Z</time>
      </trkpt>
      <trkpt lat="48.3944" lon="2.52031">
        <ele>103.3</ele>
        <time>2020-06-06T13:55:35Z</time>
      </trkpt>
      <trkpt lat="48.39442" lon="2.52043">
        <ele>103.6</ele>
        <time>2020-06-06T13:55:39Z</time>
      </trkpt>
      <trkpt lat="48.39439" lon="2.52054">
        <ele>104.9</ele>
        <time>2020-06-06T13:55:43Z</time>
      </trkpt>
      <trkpt lat="48.39438" lon="2.52062">
        <ele>105.3</ele>
        <time>2020-06-06T13:55:45Z</time>
      </trkpt>
      <trkpt lat="48.39438" lon="2.5207">
        <ele>105.4</ele>
        <time>2020-06-06T13:55:47Z</time>
      </trkpt>
      <trkpt lat="48.39439" lon="2.52077">
        <ele>105.4</ele>
        <time>2020-06-06T13:55:49Z</time>
      </trkpt>
      <trkpt lat="48.3944" lon="2.52088">
        <ele>105.8</ele>
        <time>2020-06-06T13:55:53Z</time>
      </trkpt>
      <trkpt lat="48.39438" lon="2.52099">
        <ele>106.7</ele>
        <time>2020-06-06T13:55:57Z</time>
      </trkpt>
      <trkpt lat="48.39436" lon="2.52108">
        <ele>107.4</ele>
        <time>2020-06-06T13:56:01Z</time>
      </trkpt>
      <trkpt lat="48.39431" lon="2.52117">
        <ele>108.2</ele>
        <time>2020-06-06T13:56:05Z</time>
      </trkpt>
      <trkpt lat="48.39431" lon="2.52127">
        <ele>108.6</ele>
        <time>2020-06-06T13:56:09Z</time>
      </trkpt>
      <trkpt lat="48.39433" lon="2.5214">
        <ele>109.1</ele>
        <time>2020-06-06T13:56:13Z</time>
      </trkpt>
      <trkpt lat="48.3943" lon="2.52151">
        <ele>109.6</ele>
        <time>2020-06-06T13:56:17Z</time>
      </trkpt>
      <trkpt lat="48.39428" lon="2.52163">
        <ele>110.2</ele>
        <time>2020-06-06T13:56:21Z</time>
      </trkpt>
      <trkpt lat="48.39425" lon="2.52175">
        <ele>110.4</ele>
        <time>2020-06-06T13:56:25Z</time>
      </trkpt>
      <trkpt lat="48.39425" lon="2.52184">
        <ele>110.5</ele>
        <time>2020-06-06T13:56:27Z</time>
      </trkpt>
      <trkpt lat="48.39426" lon="2.52191">
        <ele>110.6</ele>
        <time>2020-06-06T13:56:29Z</time>
      </trkpt>
      <trkpt lat="48.39426" lon="2.52198">
        <ele>110.8</ele>
        <time>2020-06-06T13:56:31Z</time>
      </trkpt>
      <trkpt lat="48.39422" lon="2.52209">
        <ele>110.9</ele>
        <time>2020-06-06T13:56:35Z</time>
      </trkpt>
      <trkpt lat="48.3942" lon="2.52218">
        <ele>111.1</ele>
        <time>2020-06-06T13:56:39Z</time>
      </trkpt>
      <trkpt lat="48.39417" lon="2.52231">
        <ele>111.3</ele>
        <time>2020-06-06T13:56:43Z</time>
      </trkpt>
      <trkpt lat="48.39416" lon="2.52239">
        <ele>111.6</ele>
        <time>2020-06-06T13:56:47Z</time>
      </trkpt>
      <trkpt lat="48.39416" lon="2.52249">
        <ele>112</ele>
        <time>2020-06-06T13:59:29Z</time>
      </trkpt>
      <trkpt lat="48.39415" lon="2.52261">
        <ele>111.7</ele>
        <time>2020-06-06T13:59:33Z</time>
      </trkpt>
      <trkpt lat="48.39417" lon="2.52269">
        <ele>111.3</ele>
        <time>2020-06-06T13:59:35Z</time>
      </trkpt>
      <trkpt lat="48.39419" lon="2.52278">
        <ele>111.2</ele>
        <time>2020-06-06T13:59:37Z</time>
      </trkpt>
      <trkpt lat="48.39422" lon="2.52285">
        <ele>111.4</ele>
        <time>2020-06-06T13:59:39Z</time>
      </trkpt>
      <trkpt lat="48.39423" lon="2.52293">
        <ele>111.3</ele>
        <time>2020-06-06T13:59:41Z</time>
      </trkpt>
      <trkpt lat="48.39425" lon="2.523">
        <ele>111.3</ele>
        <time>2020-06-06T13:59:43Z</time>
      </trkpt>
      <trkpt lat="48.39428" lon="2.52307">
        <ele>111.6</ele>
        <time>2020-06-06T13:59:45Z</time>
      </trkpt>
      <trkpt lat="48.39428" lon="2.52314">
        <ele>111.6</ele>
        <time>2020-06-06T13:59:47Z</time>
      </trkpt>
      <trkpt lat="48.3943" lon="2.52322">
        <ele>111.9</ele>
        <time>2020-06-06T13:59:49Z</time>
      </trkpt>
      <trkpt lat="48.39432" lon="2.52328">
        <ele>112.2</ele>
        <time>2020-06-06T13:59:51Z</time>
      </trkpt>
      <trkpt lat="48.39434" lon="2.52334">
        <ele>112.5</ele>
        <time>2020-06-06T13:59:53Z</time>
      </trkpt>
      <trkpt lat="48.39438" lon="2.52346">
        <ele>113.1</ele>
        <time>2020-06-06T13:59:57Z</time>
      </trkpt>
      <trkpt lat="48.39442" lon="2.52357">
        <ele>113.6</ele>
        <time>2020-06-06T14:00:01Z</time>
      </trkpt>
      <trkpt lat="48.39445" lon="2.52364">
        <ele>113.9</ele>
        <time>2020-06-06T14:00:03Z</time>
      </trkpt>
      <trkpt lat="48.39447" lon="2.5237">
        <ele>113.9</ele>
        <time>2020-06-06T14:00:05Z</time>
      </trkpt>
      <trkpt lat="48.39452" lon="2.52379">
        <ele>114.1</ele>
        <time>2020-06-06T14:00:09Z</time>
      </trkpt>
      <trkpt lat="48.39455" lon="2.52385">
        <ele>114.2</ele>
        <time>2020-06-06T14:00:11Z</time>
      </trkpt>
      <trkpt lat="48.3946" lon="2.52394">
        <ele>114.7</ele>
        <time>2020-06-06T14:00:15Z</time>
      </trkpt>
      <trkpt lat="48.39464" lon="2.52404">
        <ele>115.1</ele>
        <time>2020-06-06T14:00:19Z</time>
      </trkpt>
      <trkpt lat="48.39468" lon="2.52415">
        <ele>115.5</ele>
        <time>2020-06-06T14:00:23Z</time>
      </trkpt>
      <trkpt lat="48.3947" lon="2.52424">
        <ele>116.3</ele>
        <time>2020-06-06T14:00:27Z</time>
      </trkpt>
      <trkpt lat="48.39471" lon="2.52433">
        <ele>117.1</ele>
        <time>2020-06-06T14:00:31Z</time>
      </trkpt>
      <trkpt lat="48.3947" lon="2.52444">
        <ele>117.8</ele>
        <time>2020-06-06T14:00:35Z</time>
      </trkpt>
      <trkpt lat="48.39469" lon="2.52456">
        <ele>118.2</ele>
        <time>2020-06-06T14:00:39Z</time>
      </trkpt>
      <trkpt lat="48.39469" lon="2.52463">
        <ele>118.5</ele>
        <time>2020-06-06T14:00:41Z</time>
      </trkpt>
      <trkpt lat="48.39468" lon="2.52476">
        <ele>118.9</ele>
        <time>2020-06-06T14:00:45Z</time>
      </trkpt>
      <trkpt lat="48.39467" lon="2.52484">
        <ele>118.9</ele>
        <time>2020-06-06T14:00:47Z</time>
      </trkpt>
      <trkpt lat="48.39466" lon="2.52498">
        <ele>119</ele>
        <time>2020-06-06T14:00:51Z</time>
      </trkpt>
      <trkpt lat="48.39466" lon="2.5251">
        <ele>119</ele>
        <time>2020-06-06T14:00:55Z</time>
      </trkpt>
      <trkpt lat="48.39464" lon="2.52525">
        <ele>119</ele>
        <time>2020-06-06T14:00:59Z</time>
      </trkpt>
      <trkpt lat="48.39464" lon="2.52532">
        <ele>119</ele>
        <time>2020-06-06T14:01:01Z</time>
      </trkpt>
      <trkpt lat="48.39463" lon="2.52542">
        <ele>119</ele>
        <time>2020-06-06T14:01:03Z</time>
      </trkpt>
      <trkpt lat="48.39463" lon="2.52551">
        <ele>119</ele>
        <time>2020-06-06T14:01:05Z</time>
      </trkpt>
      <trkpt lat="48.39462" lon="2.5256">
        <ele>119</ele>
        <time>2020-06-06T14:01:07Z</time>
      </trkpt>
      <trkpt lat="48.39462" lon="2.52571">
        <ele>119</ele>
        <time>2020-06-06T14:01:09Z</time>
      </trkpt>
      <trkpt lat="48.3946" lon="2.52582">
        <ele>119</ele>
        <time>2020-06-06T14:01:11Z</time>
      </trkpt>
      <trkpt lat="48.3946" lon="2.5259">
        <ele>119</ele>
        <time>2020-06-06T14:01:13Z</time>
      </trkpt>
      <trkpt lat="48.39459" lon="2.526">
        <ele>119</ele>
        <time>2020-06-06T14:01:15Z</time>
      </trkpt>
      <trkpt lat="48.39459" lon="2.52609">
        <ele>119</ele>
        <time>2020-06-06T14:01:17Z</time>
      </trkpt>
      <trkpt lat="48.39459" lon="2.52617">
        <ele>119</ele>
        <time>2020-06-06T14:01:19Z</time>
      </trkpt>
      <trkpt lat="48.39458" lon="2.52627">
        <ele>119</ele>
        <time>2020-06-06T14:01:21Z</time>
      </trkpt>
      <trkpt lat="48.39458" lon="2.52636">
        <ele>119</ele>
        <time>2020-06-06T14:01:23Z</time>
      </trkpt>
      <trkpt lat="48.39457" lon="2.52647">
        <ele>119</ele>
        <time>2020-06-06T14:01:25Z</time>
      </trkpt>
      <trkpt lat="48.39457" lon="2.52657">
        <ele>119</ele>
        <time>2020-06-06T14:01:27Z</time>
      </trkpt>
      <trkpt lat="48.39455" lon="2.52666">
        <ele>119</ele>
        <time>2020-06-06T14:01:29Z</time>
      </trkpt>
      <trkpt lat="48.39454" lon="2.52678">
        <ele>119</ele>
        <time>2020-06-06T14:01:31Z</time>
      </trkpt>
      <trkpt lat="48.39454" lon="2.52688">
        <ele>119</ele>
        <time>2020-06-06T14:01:33Z</time>
      </trkpt>
      <trkpt lat="48.39454" lon="2.52698">
        <ele>119</ele>
        <time>2020-06-06T14:01:35Z</time>
      </trkpt>
      <trkpt lat="48.39453" lon="2.52707">
        <ele>119</ele>
        <time>2020-06-06T14:01:37Z</time>
      </trkpt>
      <trkpt lat="48.39453" lon="2.52717">
        <ele>119</ele>
        <time>2020-06-06T14:01:39Z</time>
      </trkpt>
      <trkpt lat="48.3945" lon="2.52727">
        <ele>118.9</ele>
        <time>2020-06-06T14:01:41Z</time>
      </trkpt>
      <trkpt lat="48.3945" lon="2.52736">
        <ele>118.6</ele>
        <time>2020-06-06T14:01:43Z</time>
      </trkpt>
      <trkpt lat="48.39449" lon="2.52745">
        <ele>118.3</ele>
        <time>2020-06-06T14:01:45Z</time>
      </trkpt>
      <trkpt lat="48.39452" lon="2.52751">
        <ele>118.3</ele>
        <time>2020-06-06T14:01:47Z</time>
      </trkpt>
      <trkpt lat="48.39457" lon="2.52751">
        <ele>118.5</ele>
        <time>2020-06-06T14:01:49Z</time>
      </trkpt>
      <trkpt lat="48.39463" lon="2.52751">
        <ele>118.7</ele>
        <time>2020-06-06T14:01:51Z</time>
      </trkpt>
      <trkpt lat="48.39468" lon="2.5275">
        <ele>118.8</ele>
        <time>2020-06-06T14:01:53Z</time>
      </trkpt>
      <trkpt lat="48.39474" lon="2.52751">
        <ele>119</ele>
        <time>2020-06-06T14:01:55Z</time>
      </trkpt>
      <trkpt lat="48.39481" lon="2.52752">
        <ele>119</ele>
        <time>2020-06-06T14:01:57Z</time>
      </trkpt>
      <trkpt lat="48.39487" lon="2.52756">
        <ele>119.1</ele>
        <time>2020-06-06T14:01:59Z</time>
      </trkpt>
      <trkpt lat="48.39493" lon="2.52759">
        <ele>119.2</ele>
        <time>2020-06-06T14:02:01Z</time>
      </trkpt>
      <trkpt lat="48.39499" lon="2.52759">
        <ele>119.3</ele>
        <time>2020-06-06T14:02:03Z</time>
      </trkpt>
      <trkpt lat="48.39504" lon="2.52758">
        <ele>119.2</ele>
        <time>2020-06-06T14:02:05Z</time>
      </trkpt>
      <trkpt lat="48.3951" lon="2.5276">
        <ele>119.2</ele>
        <time>2020-06-06T14:02:07Z</time>
      </trkpt>
      <trkpt lat="48.39517" lon="2.52761">
        <ele>119.2</ele>
        <time>2020-06-06T14:02:09Z</time>
      </trkpt>
      <trkpt lat="48.39523" lon="2.52759">
        <ele>119.1</ele>
        <time>2020-06-06T14:02:11Z</time>
      </trkpt>
      <trkpt lat="48.39531" lon="2.52759">
        <ele>118.8</ele>
        <time>2020-06-06T14:02:13Z</time>
      </trkpt>
      <trkpt lat="48.39538" lon="2.52757">
        <ele>118.3</ele>
        <time>2020-06-06T14:02:15Z</time>
      </trkpt>
      <trkpt lat="48.39545" lon="2.52754">
        <ele>117.8</ele>
        <time>2020-06-06T14:02:17Z</time>
      </trkpt>
      <trkpt lat="48.39551" lon="2.52748">
        <ele>117.4</ele>
        <time>2020-06-06T14:02:19Z</time>
      </trkpt>
      <trkpt lat="48.39559" lon="2.52743">
        <ele>116.5</ele>
        <time>2020-06-06T14:02:21Z</time>
      </trkpt>
      <trkpt lat="48.39568" lon="2.52737">
        <ele>115</ele>
        <time>2020-06-06T14:02:23Z</time>
      </trkpt>
      <trkpt lat="48.39577" lon="2.52733">
        <ele>113.5</ele>
        <time>2020-06-06T14:02:25Z</time>
      </trkpt>
      <trkpt lat="48.39582" lon="2.52725">
        <ele>113</ele>
        <time>2020-06-06T14:02:27Z</time>
      </trkpt>
      <trkpt lat="48.39585" lon="2.52716">
        <ele>112.8</ele>
        <time>2020-06-06T14:02:29Z</time>
      </trkpt>
      <trkpt lat="48.39587" lon="2.52707">
        <ele>112.6</ele>
        <time>2020-06-06T14:02:33Z</time>
      </trkpt>
      <trkpt lat="48.39589" lon="2.527">
        <ele>112.2</ele>
        <time>2020-06-06T14:02:35Z</time>
      </trkpt>
      <trkpt lat="48.39592" lon="2.52689">
        <ele>111.6</ele>
        <time>2020-06-06T14:02:37Z</time>
      </trkpt>
      <trkpt lat="48.39594" lon="2.52677">
        <ele>111.3</ele>
        <time>2020-06-06T14:02:39Z</time>
      </trkpt>
      <trkpt lat="48.39597" lon="2.52664">
        <ele>110.6</ele>
        <time>2020-06-06T14:02:41Z</time>
      </trkpt>
      <trkpt lat="48.39598" lon="2.52651">
        <ele>110.5</ele>
        <time>2020-06-06T14:02:43Z</time>
      </trkpt>
      <trkpt lat="48.39604" lon="2.52638">
        <ele>109.1</ele>
        <time>2020-06-06T14:02:45Z</time>
      </trkpt>
      <trkpt lat="48.39606" lon="2.52619">
        <ele>108.6</ele>
        <time>2020-06-06T14:02:47Z</time>
      </trkpt>
      <trkpt lat="48.39608" lon="2.526">
        <ele>108</ele>
        <time>2020-06-06T14:02:49Z</time>
      </trkpt>
      <trkpt lat="48.39609" lon="2.52579">
        <ele>107.7</ele>
        <time>2020-06-06T14:02:51Z</time>
      </trkpt>
      <trkpt lat="48.39613" lon="2.52558">
        <ele>106.5</ele>
        <time>2020-06-06T14:02:53Z</time>
      </trkpt>
      <trkpt lat="48.39619" lon="2.52537">
        <ele>105.5</ele>
        <time>2020-06-06T14:02:55Z</time>
      </trkpt>
      <trkpt lat="48.39625" lon="2.52513">
        <ele>104.3</ele>
        <time>2020-06-06T14:02:57Z</time>
      </trkpt>
      <trkpt lat="48.39632" lon="2.52492">
        <ele>102.4</ele>
        <time>2020-06-06T14:02:59Z</time>
      </trkpt>
      <trkpt lat="48.39641" lon="2.5247">
        <ele>100.7</ele>
        <time>2020-06-06T14:03:01Z</time>
      </trkpt>
      <trkpt lat="48.39648" lon="2.52445">
        <ele>100</ele>
        <time>2020-06-06T14:03:03Z</time>
      </trkpt>
      <trkpt lat="48.39656" lon="2.52424">
        <ele>98.6</ele>
        <time>2020-06-06T14:03:05Z</time>
      </trkpt>
      <trkpt lat="48.39663" lon="2.52409">
        <ele>97</ele>
        <time>2020-06-06T14:03:07Z</time>
      </trkpt>
      <trkpt lat="48.39671" lon="2.52391">
        <ele>95.5</ele>
        <time>2020-06-06T14:03:09Z</time>
      </trkpt>
      <trkpt lat="48.39677" lon="2.5237">
        <ele>94.4</ele>
        <time>2020-06-06T14:03:11Z</time>
      </trkpt>
      <trkpt lat="48.39684" lon="2.52348">
        <ele>92.9</ele>
        <time>2020-06-06T14:03:13Z</time>
      </trkpt>
      <trkpt lat="48.39689" lon="2.52334">
        <ele>92</ele>
        <time>2020-06-06T14:03:15Z</time>
      </trkpt>
      <trkpt lat="48.39693" lon="2.52319">
        <ele>90.8</ele>
        <time>2020-06-06T14:03:17Z</time>
      </trkpt>
      <trkpt lat="48.39696" lon="2.52303">
        <ele>90.1</ele>
        <time>2020-06-06T14:03:19Z</time>
      </trkpt>
      <trkpt lat="48.39701" lon="2.52289">
        <ele>90.7</ele>
        <time>2020-06-06T14:03:21Z</time>
      </trkpt>
      <trkpt lat="48.39707" lon="2.52275">
        <ele>91</ele>
        <time>2020-06-06T14:03:23Z</time>
      </trkpt>
      <trkpt lat="48.39712" lon="2.52263">
        <ele>90.7</ele>
        <time>2020-06-06T14:03:25Z</time>
      </trkpt>
      <trkpt lat="48.39716" lon="2.5225">
        <ele>90.2</ele>
        <time>2020-06-06T14:03:27Z</time>
      </trkpt>
      <trkpt lat="48.3972" lon="2.52235">
        <ele>89.6</ele>
        <time>2020-06-06T14:03:29Z</time>
      </trkpt>
      <trkpt lat="48.39722" lon="2.52222">
        <ele>89</ele>
        <time>2020-06-06T14:03:31Z</time>
      </trkpt>
      <trkpt lat="48.39722" lon="2.52206">
        <ele>89</ele>
        <time>2020-06-06T14:03:33Z</time>
      </trkpt>
      <trkpt lat="48.39723" lon="2.52192">
        <ele>89</ele>
        <time>2020-06-06T14:03:35Z</time>
      </trkpt>
      <trkpt lat="48.39727" lon="2.52177">
        <ele>89</ele>
        <time>2020-06-06T14:03:37Z</time>
      </trkpt>
      <trkpt lat="48.3973" lon="2.52162">
        <ele>88.7</ele>
        <time>2020-06-06T14:03:39Z</time>
      </trkpt>
      <trkpt lat="48.39732" lon="2.52148">
        <ele>88.4</ele>
        <time>2020-06-06T14:03:41Z</time>
      </trkpt>
      <trkpt lat="48.39734" lon="2.52132">
        <ele>88.1</ele>
        <time>2020-06-06T14:03:43Z</time>
      </trkpt>
      <trkpt lat="48.39737" lon="2.52119">
        <ele>87.8</ele>
        <time>2020-06-06T14:03:45Z</time>
      </trkpt>
      <trkpt lat="48.3974" lon="2.52106">
        <ele>87.6</ele>
        <time>2020-06-06T14:03:47Z</time>
      </trkpt>
      <trkpt lat="48.39742" lon="2.52091">
        <ele>87.4</ele>
        <time>2020-06-06T14:03:49Z</time>
      </trkpt>
      <trkpt lat="48.39743" lon="2.52076">
        <ele>87.1</ele>
        <time>2020-06-06T14:03:51Z</time>
      </trkpt>
      <trkpt lat="48.39744" lon="2.52059">
        <ele>86.7</ele>
        <time>2020-06-06T14:03:53Z</time>
      </trkpt>
      <trkpt lat="48.39748" lon="2.52044">
        <ele>86.3</ele>
        <time>2020-06-06T14:03:55Z</time>
      </trkpt>
      <trkpt lat="48.39751" lon="2.52029">
        <ele>86.1</ele>
        <time>2020-06-06T14:03:57Z</time>
      </trkpt>
      <trkpt lat="48.39754" lon="2.52013">
        <ele>86.1</ele>
        <time>2020-06-06T14:03:59Z</time>
      </trkpt>
      <trkpt lat="48.39759" lon="2.51998">
        <ele>85.7</ele>
        <time>2020-06-06T14:04:01Z</time>
      </trkpt>
      <trkpt lat="48.39764" lon="2.51983">
        <ele>85.2</ele>
        <time>2020-06-06T14:04:03Z</time>
      </trkpt>
      <trkpt lat="48.39771" lon="2.51974">
        <ele>84.1</ele>
        <time>2020-06-06T14:04:05Z</time>
      </trkpt>
      <trkpt lat="48.39781" lon="2.51969">
        <ele>83</ele>
        <time>2020-06-06T14:04:07Z</time>
      </trkpt>
      <trkpt lat="48.39791" lon="2.51964">
        <ele>82.9</ele>
        <time>2020-06-06T14:04:09Z</time>
      </trkpt>
      <trkpt lat="48.398" lon="2.51959">
        <ele>82.6</ele>
        <time>2020-06-06T14:04:11Z</time>
      </trkpt>
      <trkpt lat="48.39808" lon="2.51952">
        <ele>82.3</ele>
        <time>2020-06-06T14:04:13Z</time>
      </trkpt>
      <trkpt lat="48.39818" lon="2.51943">
        <ele>81.9</ele>
        <time>2020-06-06T14:04:15Z</time>
      </trkpt>
      <trkpt lat="48.39828" lon="2.51931">
        <ele>81.1</ele>
        <time>2020-06-06T14:04:17Z</time>
      </trkpt>
      <trkpt lat="48.39834" lon="2.51916">
        <ele>80</ele>
        <time>2020-06-06T14:04:19Z</time>
      </trkpt>
      <trkpt lat="48.39841" lon="2.51899">
        <ele>79.6</ele>
        <time>2020-06-06T14:04:21Z</time>
      </trkpt>
      <trkpt lat="48.39847" lon="2.51886">
        <ele>79</ele>
        <time>2020-06-06T14:04:23Z</time>
      </trkpt>
      <trkpt lat="48.39856" lon="2.51873">
        <ele>78.6</ele>
        <time>2020-06-06T14:04:25Z</time>
      </trkpt>
      <trkpt lat="48.39865" lon="2.51863">
        <ele>77.9</ele>
        <time>2020-06-06T14:04:27Z</time>
      </trkpt>
      <trkpt lat="48.39876" lon="2.51858">
        <ele>77.4</ele>
        <time>2020-06-06T14:04:29Z</time>
      </trkpt>
      <trkpt lat="48.39886" lon="2.51856">
        <ele>76.9</ele>
        <time>2020-06-06T14:04:31Z</time>
      </trkpt>
      <trkpt lat="48.39895" lon="2.51855">
        <ele>76.6</ele>
        <time>2020-06-06T14:04:33Z</time>
      </trkpt>
      <trkpt lat="48.399" lon="2.51849">
        <ele>76.3</ele>
        <time>2020-06-06T14:04:35Z</time>
      </trkpt>
      <trkpt lat="48.39904" lon="2.51844">
        <ele>76.2</ele>
        <time>2020-06-06T14:04:37Z</time>
      </trkpt>
      <trkpt lat="48.39907" lon="2.51835">
        <ele>76</ele>
        <time>2020-06-06T14:04:39Z</time>
      </trkpt>
      <trkpt lat="48.39911" lon="2.51823">
        <ele>75.8</ele>
        <time>2020-06-06T14:04:41Z</time>
      </trkpt>
      <trkpt lat="48.39917" lon="2.51808">
        <ele>75.1</ele>
        <time>2020-06-06T14:04:43Z</time>
      </trkpt>
      <trkpt lat="48.39921" lon="2.51797">
        <ele>74.8</ele>
        <time>2020-06-06T14:04:45Z</time>
      </trkpt>
      <trkpt lat="48.39927" lon="2.51784">
        <ele>74.6</ele>
        <time>2020-06-06T14:04:47Z</time>
      </trkpt>
      <trkpt lat="48.39929" lon="2.51772">
        <ele>74.4</ele>
        <time>2020-06-06T14:04:49Z</time>
      </trkpt>
      <trkpt lat="48.39933" lon="2.51761">
        <ele>74.2</ele>
        <time>2020-06-06T14:04:51Z</time>
      </trkpt>
      <trkpt lat="48.39937" lon="2.51751">
        <ele>74</ele>
        <time>2020-06-06T14:04:53Z</time>
      </trkpt>
      <trkpt lat="48.3994" lon="2.51742">
        <ele>73.8</ele>
        <time>2020-06-06T14:04:55Z</time>
      </trkpt>
      <trkpt lat="48.39943" lon="2.51733">
        <ele>73.4</ele>
        <time>2020-06-06T14:04:57Z</time>
      </trkpt>
      <trkpt lat="48.39945" lon="2.51722">
        <ele>73</ele>
        <time>2020-06-06T14:04:59Z</time>
      </trkpt>
      <trkpt lat="48.3995" lon="2.51712">
        <ele>72.9</ele>
        <time>2020-06-06T14:05:01Z</time>
      </trkpt>
      <trkpt lat="48.39953" lon="2.51704">
        <ele>72.8</ele>
        <time>2020-06-06T14:05:03Z</time>
      </trkpt>
      <trkpt lat="48.39959" lon="2.51695">
        <ele>72.5</ele>
        <time>2020-06-06T14:05:07Z</time>
      </trkpt>
      <trkpt lat="48.39965" lon="2.51699">
        <ele>72.4</ele>
        <time>2020-06-06T14:05:11Z</time>
      </trkpt>
      <trkpt lat="48.39969" lon="2.51705">
        <ele>72.5</ele>
        <time>2020-06-06T14:05:13Z</time>
      </trkpt>
      <trkpt lat="48.39972" lon="2.51713">
        <ele>72.7</ele>
        <time>2020-06-06T14:05:15Z</time>
      </trkpt>
      <trkpt lat="48.39976" lon="2.51719">
        <ele>72.8</ele>
        <time>2020-06-06T14:05:17Z</time>
      </trkpt>
      <trkpt lat="48.39981" lon="2.51727">
        <ele>72.7</ele>
        <time>2020-06-06T14:05:19Z</time>
      </trkpt>
      <trkpt lat="48.39985" lon="2.51736">
        <ele>72.8</ele>
        <time>2020-06-06T14:05:21Z</time>
      </trkpt>
      <trkpt lat="48.39991" lon="2.51745">
        <ele>72.9</ele>
        <time>2020-06-06T14:05:23Z</time>
      </trkpt>
      <trkpt lat="48.39996" lon="2.51755">
        <ele>73</ele>
        <time>2020-06-06T14:05:25Z</time>
      </trkpt>
      <trkpt lat="48.40002" lon="2.51765">
        <ele>72.9</ele>
        <time>2020-06-06T14:05:27Z</time>
      </trkpt>
      <trkpt lat="48.40007" lon="2.51775">
        <ele>72.7</ele>
        <time>2020-06-06T14:05:29Z</time>
      </trkpt>
      <trkpt lat="48.40012" lon="2.51784">
        <ele>72.7</ele>
        <time>2020-06-06T14:05:31Z</time>
      </trkpt>
      <trkpt lat="48.40017" lon="2.51793">
        <ele>72.7</ele>
        <time>2020-06-06T14:05:33Z</time>
      </trkpt>
      <trkpt lat="48.40022" lon="2.51802">
        <ele>72.9</ele>
        <time>2020-06-06T14:05:35Z</time>
      </trkpt>
      <trkpt lat="48.40027" lon="2.5181">
        <ele>73</ele>
        <time>2020-06-06T14:05:37Z</time>
      </trkpt>
      <trkpt lat="48.40033" lon="2.51819">
        <ele>72.8</ele>
        <time>2020-06-06T14:05:39Z</time>
      </trkpt>
      <trkpt lat="48.40037" lon="2.51827">
        <ele>72.7</ele>
        <time>2020-06-06T14:05:41Z</time>
      </trkpt>
      <trkpt lat="48.40041" lon="2.51837">
        <ele>72.6</ele>
        <time>2020-06-06T14:05:43Z</time>
      </trkpt>
      <trkpt lat="48.40045" lon="2.51846">
        <ele>72.7</ele>
        <time>2020-06-06T14:05:45Z</time>
      </trkpt>
      <trkpt lat="48.4005" lon="2.51855">
        <ele>72.8</ele>
        <time>2020-06-06T14:05:47Z</time>
      </trkpt>
      <trkpt lat="48.40054" lon="2.51864">
        <ele>73</ele>
        <time>2020-06-06T14:05:49Z</time>
      </trkpt>
      <trkpt lat="48.40059" lon="2.51874">
        <ele>72.9</ele>
        <time>2020-06-06T14:05:51Z</time>
      </trkpt>
      <trkpt lat="48.40064" lon="2.51883">
        <ele>72.7</ele>
        <time>2020-06-06T14:05:53Z</time>
      </trkpt>
      <trkpt lat="48.40069" lon="2.51892">
        <ele>72.6</ele>
        <time>2020-06-06T14:05:55Z</time>
      </trkpt>
      <trkpt lat="48.40075" lon="2.51901">
        <ele>72.6</ele>
        <time>2020-06-06T14:05:57Z</time>
      </trkpt>
      <trkpt lat="48.4008" lon="2.51911">
        <ele>72.8</ele>
        <time>2020-06-06T14:05:59Z</time>
      </trkpt>
      <trkpt lat="48.40086" lon="2.51921">
        <ele>72.9</ele>
        <time>2020-06-06T14:06:01Z</time>
      </trkpt>
      <trkpt lat="48.40092" lon="2.51931">
        <ele>72.7</ele>
        <time>2020-06-06T14:06:03Z</time>
      </trkpt>
      <trkpt lat="48.40098" lon="2.51942">
        <ele>72.5</ele>
        <time>2020-06-06T14:06:05Z</time>
      </trkpt>
      <trkpt lat="48.40106" lon="2.51951">
        <ele>72.2</ele>
        <time>2020-06-06T14:06:07Z</time>
      </trkpt>
      <trkpt lat="48.40111" lon="2.51962">
        <ele>72</ele>
        <time>2020-06-06T14:06:09Z</time>
      </trkpt>
      <trkpt lat="48.40117" lon="2.51973">
        <ele>72</ele>
        <time>2020-06-06T14:06:11Z</time>
      </trkpt>
      <trkpt lat="48.40123" lon="2.51983">
        <ele>72</ele>
        <time>2020-06-06T14:06:13Z</time>
      </trkpt>
      <trkpt lat="48.40129" lon="2.51993">
        <ele>72</ele>
        <time>2020-06-06T14:06:15Z</time>
      </trkpt>
      <trkpt lat="48.40135" lon="2.52004">
        <ele>72</ele>
        <time>2020-06-06T14:06:17Z</time>
      </trkpt>
      <trkpt lat="48.40139" lon="2.52015">
        <ele>72</ele>
        <time>2020-06-06T14:06:19Z</time>
      </trkpt>
      <trkpt lat="48.40144" lon="2.52026">
        <ele>72</ele>
        <time>2020-06-06T14:06:21Z</time>
      </trkpt>
      <trkpt lat="48.4015" lon="2.52037">
        <ele>72</ele>
        <time>2020-06-06T14:06:23Z</time>
      </trkpt>
      <trkpt lat="48.40155" lon="2.52047">
        <ele>72</ele>
        <time>2020-06-06T14:06:25Z</time>
      </trkpt>
      <trkpt lat="48.40162" lon="2.52057">
        <ele>72.1</ele>
        <time>2020-06-06T14:06:27Z</time>
      </trkpt>
      <trkpt lat="48.40166" lon="2.52067">
        <ele>72.4</ele>
        <time>2020-06-06T14:06:29Z</time>
      </trkpt>
      <trkpt lat="48.40171" lon="2.52076">
        <ele>72.8</ele>
        <time>2020-06-06T14:06:31Z</time>
      </trkpt>
      <trkpt lat="48.40175" lon="2.52085">
        <ele>73.1</ele>
        <time>2020-06-06T14:06:33Z</time>
      </trkpt>
      <trkpt lat="48.40181" lon="2.52095">
        <ele>73.4</ele>
        <time>2020-06-06T14:06:35Z</time>
      </trkpt>
      <trkpt lat="48.40185" lon="2.52106">
        <ele>73.8</ele>
        <time>2020-06-06T14:06:37Z</time>
      </trkpt>
      <trkpt lat="48.40188" lon="2.52116">
        <ele>74</ele>
        <time>2020-06-06T14:06:39Z</time>
      </trkpt>
      <trkpt lat="48.40191" lon="2.52127">
        <ele>74.1</ele>
        <time>2020-06-06T14:06:41Z</time>
      </trkpt>
      <trkpt lat="48.40193" lon="2.52137">
        <ele>74</ele>
        <time>2020-06-06T14:06:43Z</time>
      </trkpt>
      <trkpt lat="48.40194" lon="2.52147">
        <ele>74</ele>
        <time>2020-06-06T14:06:45Z</time>
      </trkpt>
      <trkpt lat="48.40195" lon="2.52159">
        <ele>74</ele>
        <time>2020-06-06T14:06:47Z</time>
      </trkpt>
      <trkpt lat="48.40196" lon="2.5217">
        <ele>74</ele>
        <time>2020-06-06T14:06:49Z</time>
      </trkpt>
      <trkpt lat="48.40197" lon="2.52181">
        <ele>74</ele>
        <time>2020-06-06T14:06:51Z</time>
      </trkpt>
      <trkpt lat="48.40198" lon="2.52192">
        <ele>74</ele>
        <time>2020-06-06T14:06:53Z</time>
      </trkpt>
      <trkpt lat="48.40199" lon="2.52204">
        <ele>73.7</ele>
        <time>2020-06-06T14:06:55Z</time>
      </trkpt>
      <trkpt lat="48.402" lon="2.52215">
        <ele>73.4</ele>
        <time>2020-06-06T14:06:57Z</time>
      </trkpt>
      <trkpt lat="48.40202" lon="2.52226">
        <ele>73.3</ele>
        <time>2020-06-06T14:06:59Z</time>
      </trkpt>
      <trkpt lat="48.40202" lon="2.52238">
        <ele>73.3</ele>
        <time>2020-06-06T14:07:01Z</time>
      </trkpt>
      <trkpt lat="48.40203" lon="2.5225">
        <ele>73.3</ele>
        <time>2020-06-06T14:07:03Z</time>
      </trkpt>
      <trkpt lat="48.40204" lon="2.52263">
        <ele>73.3</ele>
        <time>2020-06-06T14:07:05Z</time>
      </trkpt>
      <trkpt lat="48.40206" lon="2.52275">
        <ele>73.4</ele>
        <time>2020-06-06T14:07:07Z</time>
      </trkpt>
      <trkpt lat="48.40209" lon="2.52287">
        <ele>73.5</ele>
        <time>2020-06-06T14:07:09Z</time>
      </trkpt>
      <trkpt lat="48.40209" lon="2.52299">
        <ele>73.5</ele>
        <time>2020-06-06T14:07:11Z</time>
      </trkpt>
      <trkpt lat="48.4021" lon="2.52311">
        <ele>73.6</ele>
        <time>2020-06-06T14:07:13Z</time>
      </trkpt>
      <trkpt lat="48.40211" lon="2.52322">
        <ele>73.6</ele>
        <time>2020-06-06T14:07:15Z</time>
      </trkpt>
      <trkpt lat="48.40212" lon="2.52334">
        <ele>73.6</ele>
        <time>2020-06-06T14:07:17Z</time>
      </trkpt>
      <trkpt lat="48.40215" lon="2.52344">
        <ele>73.7</ele>
        <time>2020-06-06T14:07:19Z</time>
      </trkpt>
      <trkpt lat="48.40218" lon="2.52356">
        <ele>73.8</ele>
        <time>2020-06-06T14:07:21Z</time>
      </trkpt>
      <trkpt lat="48.40221" lon="2.52368">
        <ele>74</ele>
        <time>2020-06-06T14:07:23Z</time>
      </trkpt>
      <trkpt lat="48.40225" lon="2.52378">
        <ele>74</ele>
        <time>2020-06-06T14:07:25Z</time>
      </trkpt>
      <trkpt lat="48.40229" lon="2.52388">
        <ele>74</ele>
        <time>2020-06-06T14:07:27Z</time>
      </trkpt>
      <trkpt lat="48.40234" lon="2.52398">
        <ele>74</ele>
        <time>2020-06-06T14:07:29Z</time>
      </trkpt>
      <trkpt lat="48.40239" lon="2.52407">
        <ele>74</ele>
        <time>2020-06-06T14:07:31Z</time>
      </trkpt>
      <trkpt lat="48.40245" lon="2.52417">
        <ele>74</ele>
        <time>2020-06-06T14:07:33Z</time>
      </trkpt>
      <trkpt lat="48.4025" lon="2.52427">
        <ele>74</ele>
        <time>2020-06-06T14:07:35Z</time>
      </trkpt>
      <trkpt lat="48.40255" lon="2.52437">
        <ele>74</ele>
        <time>2020-06-06T14:07:37Z</time>
      </trkpt>
      <trkpt lat="48.4026" lon="2.52446">
        <ele>74</ele>
        <time>2020-06-06T14:07:39Z</time>
      </trkpt>
      <trkpt lat="48.40265" lon="2.52455">
        <ele>74</ele>
        <time>2020-06-06T14:07:41Z</time>
      </trkpt>
      <trkpt lat="48.4027" lon="2.52465">
        <ele>74</ele>
        <time>2020-06-06T14:07:43Z</time>
      </trkpt>
      <trkpt lat="48.40274" lon="2.52474">
        <ele>74</ele>
        <time>2020-06-06T14:07:45Z</time>
      </trkpt>
      <trkpt lat="48.40279" lon="2.52484">
        <ele>74</ele>
        <time>2020-06-06T14:07:47Z</time>
      </trkpt>
      <trkpt lat="48.40283" lon="2.52493">
        <ele>74</ele>
        <time>2020-06-06T14:07:49Z</time>
      </trkpt>
      <trkpt lat="48.40288" lon="2.52502">
        <ele>74</ele>
        <time>2020-06-06T14:07:51Z</time>
      </trkpt>
      <trkpt lat="48.40293" lon="2.52511">
        <ele>74</ele>
        <time>2020-06-06T14:07:53Z</time>
      </trkpt>
      <trkpt lat="48.40298" lon="2.5252">
        <ele>74</ele>
        <time>2020-06-06T14:07:55Z</time>
      </trkpt>
      <trkpt lat="48.40304" lon="2.52529">
        <ele>74</ele>
        <time>2020-06-06T14:07:57Z</time>
      </trkpt>
      <trkpt lat="48.4031" lon="2.52538">
        <ele>74.2</ele>
        <time>2020-06-06T14:07:59Z</time>
      </trkpt>
      <trkpt lat="48.40313" lon="2.52547">
        <ele>74.3</ele>
        <time>2020-06-06T14:08:01Z</time>
      </trkpt>
      <trkpt lat="48.40317" lon="2.52553">
        <ele>74.4</ele>
        <time>2020-06-06T14:08:03Z</time>
      </trkpt>
      <trkpt lat="48.40322" lon="2.52561">
        <ele>74.6</ele>
        <time>2020-06-06T14:08:05Z</time>
      </trkpt>
      <trkpt lat="48.40328" lon="2.52567">
        <ele>74.8</ele>
        <time>2020-06-06T14:08:07Z</time>
      </trkpt>
      <trkpt lat="48.40334" lon="2.52573">
        <ele>75</ele>
        <time>2020-06-06T14:08:09Z</time>
      </trkpt>
      <trkpt lat="48.4034" lon="2.52578">
        <ele>75.2</ele>
        <time>2020-06-06T14:08:11Z</time>
      </trkpt>
      <trkpt lat="48.40346" lon="2.52585">
        <ele>75.5</ele>
        <time>2020-06-06T14:08:13Z</time>
      </trkpt>
      <trkpt lat="48.40353" lon="2.52591">
        <ele>75.7</ele>
        <time>2020-06-06T14:08:15Z</time>
      </trkpt>
      <trkpt lat="48.40359" lon="2.52598">
        <ele>75.9</ele>
        <time>2020-06-06T14:08:17Z</time>
      </trkpt>
      <trkpt lat="48.40364" lon="2.52603">
        <ele>76.1</ele>
        <time>2020-06-06T14:08:19Z</time>
      </trkpt>
      <trkpt lat="48.4037" lon="2.52608">
        <ele>76.3</ele>
        <time>2020-06-06T14:08:21Z</time>
      </trkpt>
      <trkpt lat="48.40375" lon="2.52613">
        <ele>76.5</ele>
        <time>2020-06-06T14:08:23Z</time>
      </trkpt>
      <trkpt lat="48.4038" lon="2.52619">
        <ele>76.7</ele>
        <time>2020-06-06T14:08:25Z</time>
      </trkpt>
      <trkpt lat="48.40385" lon="2.52624">
        <ele>76.9</ele>
        <time>2020-06-06T14:08:27Z</time>
      </trkpt>
      <trkpt lat="48.40392" lon="2.5263">
        <ele>77</ele>
        <time>2020-06-06T14:08:29Z</time>
      </trkpt>
      <trkpt lat="48.40397" lon="2.52637">
        <ele>77</ele>
        <time>2020-06-06T14:08:31Z</time>
      </trkpt>
      <trkpt lat="48.40402" lon="2.52642">
        <ele>77</ele>
        <time>2020-06-06T14:08:33Z</time>
      </trkpt>
      <trkpt lat="48.40407" lon="2.52647">
        <ele>77</ele>
        <time>2020-06-06T14:08:35Z</time>
      </trkpt>
      <trkpt lat="48.40412" lon="2.52652">
        <ele>77</ele>
        <time>2020-06-06T14:08:37Z</time>
      </trkpt>
      <trkpt lat="48.40417" lon="2.52657">
        <ele>77</ele>
        <time>2020-06-06T14:08:39Z</time>
      </trkpt>
      <trkpt lat="48.40422" lon="2.52661">
        <ele>77.2</ele>
        <time>2020-06-06T14:08:41Z</time>
      </trkpt>
      <trkpt lat="48.40429" lon="2.52668">
        <ele>77.5</ele>
        <time>2020-06-06T14:08:45Z</time>
      </trkpt>
      <trkpt lat="48.40437" lon="2.5266">
        <ele>77.7</ele>
        <time>2020-06-06T14:08:49Z</time>
      </trkpt>
      <trkpt lat="48.40436" lon="2.52651">
        <ele>77.7</ele>
        <time>2020-06-06T14:08:51Z</time>
      </trkpt>
      <trkpt lat="48.40434" lon="2.52643">
        <ele>77.6</ele>
        <time>2020-06-06T14:08:53Z</time>
      </trkpt>
      <trkpt lat="48.40434" lon="2.52633">
        <ele>77.6</ele>
        <time>2020-06-06T14:08:55Z</time>
      </trkpt>
      <trkpt lat="48.40435" lon="2.52623">
        <ele>77.7</ele>
        <time>2020-06-06T14:08:57Z</time>
      </trkpt>
      <trkpt lat="48.40435" lon="2.52613">
        <ele>77.7</ele>
        <time>2020-06-06T14:08:59Z</time>
      </trkpt>
      <trkpt lat="48.40436" lon="2.52603">
        <ele>77.5</ele>
        <time>2020-06-06T14:09:01Z</time>
      </trkpt>
      <trkpt lat="48.40437" lon="2.52594">
        <ele>77.3</ele>
        <time>2020-06-06T14:09:03Z</time>
      </trkpt>
      <trkpt lat="48.40439" lon="2.52583">
        <ele>77</ele>
        <time>2020-06-06T14:09:05Z</time>
      </trkpt>
      <trkpt lat="48.4044" lon="2.52573">
        <ele>77</ele>
        <time>2020-06-06T14:09:07Z</time>
      </trkpt>
      <trkpt lat="48.40442" lon="2.52564">
        <ele>77</ele>
        <time>2020-06-06T14:09:09Z</time>
      </trkpt>
      <trkpt lat="48.40444" lon="2.52552">
        <ele>77</ele>
        <time>2020-06-06T14:09:11Z</time>
      </trkpt>
      <trkpt lat="48.40445" lon="2.52542">
        <ele>77</ele>
        <time>2020-06-06T14:09:13Z</time>
      </trkpt>
      <trkpt lat="48.40447" lon="2.52531">
        <ele>77</ele>
        <time>2020-06-06T14:09:15Z</time>
      </trkpt>
      <trkpt lat="48.40449" lon="2.52519">
        <ele>77</ele>
        <time>2020-06-06T14:09:17Z</time>
      </trkpt>
      <trkpt lat="48.4045" lon="2.52507">
        <ele>77</ele>
        <time>2020-06-06T14:09:19Z</time>
      </trkpt>
      <trkpt lat="48.40452" lon="2.52496">
        <ele>76.9</ele>
        <time>2020-06-06T14:09:21Z</time>
      </trkpt>
      <trkpt lat="48.40454" lon="2.52486">
        <ele>76.7</ele>
        <time>2020-06-06T14:09:23Z</time>
      </trkpt>
      <trkpt lat="48.40456" lon="2.52476">
        <ele>76.5</ele>
        <time>2020-06-06T14:09:25Z</time>
      </trkpt>
      <trkpt lat="48.40458" lon="2.52465">
        <ele>76.4</ele>
        <time>2020-06-06T14:09:27Z</time>
      </trkpt>
      <trkpt lat="48.4046" lon="2.52452">
        <ele>76.2</ele>
        <time>2020-06-06T14:09:29Z</time>
      </trkpt>
      <trkpt lat="48.40462" lon="2.5244">
        <ele>75.9</ele>
        <time>2020-06-06T14:09:31Z</time>
      </trkpt>
      <trkpt lat="48.40464" lon="2.52427">
        <ele>75.8</ele>
        <time>2020-06-06T14:09:33Z</time>
      </trkpt>
      <trkpt lat="48.40466" lon="2.52414">
        <ele>75.7</ele>
        <time>2020-06-06T14:09:35Z</time>
      </trkpt>
      <trkpt lat="48.40468" lon="2.524">
        <ele>75.3</ele>
        <time>2020-06-06T14:09:37Z</time>
      </trkpt>
      <trkpt lat="48.4047" lon="2.52388">
        <ele>75</ele>
        <time>2020-06-06T14:09:39Z</time>
      </trkpt>
      <trkpt lat="48.40472" lon="2.52374">
        <ele>74.5</ele>
        <time>2020-06-06T14:09:41Z</time>
      </trkpt>
      <trkpt lat="48.40474" lon="2.52361">
        <ele>74.1</ele>
        <time>2020-06-06T14:09:43Z</time>
      </trkpt>
      <trkpt lat="48.40476" lon="2.52349">
        <ele>74.1</ele>
        <time>2020-06-06T14:09:45Z</time>
      </trkpt>
      <trkpt lat="48.40479" lon="2.52336">
        <ele>74</ele>
        <time>2020-06-06T14:09:47Z</time>
      </trkpt>
      <trkpt lat="48.40481" lon="2.52323">
        <ele>74</ele>
        <time>2020-06-06T14:09:49Z</time>
      </trkpt>
      <trkpt lat="48.40483" lon="2.52311">
        <ele>74</ele>
        <time>2020-06-06T14:09:51Z</time>
      </trkpt>
      <trkpt lat="48.40485" lon="2.523">
        <ele>74</ele>
        <time>2020-06-06T14:09:53Z</time>
      </trkpt>
      <trkpt lat="48.40487" lon="2.52289">
        <ele>74</ele>
        <time>2020-06-06T14:09:55Z</time>
      </trkpt>
      <trkpt lat="48.40489" lon="2.52277">
        <ele>74</ele>
        <time>2020-06-06T14:09:57Z</time>
      </trkpt>
      <trkpt lat="48.40491" lon="2.52265">
        <ele>74</ele>
        <time>2020-06-06T14:09:59Z</time>
      </trkpt>
      <trkpt lat="48.40493" lon="2.52251">
        <ele>74</ele>
        <time>2020-06-06T14:10:01Z</time>
      </trkpt>
      <trkpt lat="48.40495" lon="2.52237">
        <ele>73.5</ele>
        <time>2020-06-06T14:10:03Z</time>
      </trkpt>
      <trkpt lat="48.40496" lon="2.52223">
        <ele>73</ele>
        <time>2020-06-06T14:10:05Z</time>
      </trkpt>
      <trkpt lat="48.40498" lon="2.52207">
        <ele>73</ele>
        <time>2020-06-06T14:10:07Z</time>
      </trkpt>
      <trkpt lat="48.405" lon="2.52191">
        <ele>73</ele>
        <time>2020-06-06T14:10:09Z</time>
      </trkpt>
      <trkpt lat="48.40502" lon="2.52177">
        <ele>73</ele>
        <time>2020-06-06T14:10:11Z</time>
      </trkpt>
      <trkpt lat="48.40504" lon="2.52162">
        <ele>73</ele>
        <time>2020-06-06T14:10:13Z</time>
      </trkpt>
      <trkpt lat="48.40506" lon="2.52146">
        <ele>73</ele>
        <time>2020-06-06T14:10:15Z</time>
      </trkpt>
      <trkpt lat="48.40509" lon="2.52132">
        <ele>72.8</ele>
        <time>2020-06-06T14:10:17Z</time>
      </trkpt>
      <trkpt lat="48.40514" lon="2.52122">
        <ele>72.4</ele>
        <time>2020-06-06T14:10:19Z</time>
      </trkpt>
      <trkpt lat="48.40522" lon="2.5212">
        <ele>72.3</ele>
        <time>2020-06-06T14:10:21Z</time>
      </trkpt>
      <trkpt lat="48.40526" lon="2.52122">
        <ele>72.4</ele>
        <time>2020-06-06T14:10:23Z</time>
      </trkpt>
      <trkpt lat="48.4053" lon="2.52128">
        <ele>72.6</ele>
        <time>2020-06-06T14:10:25Z</time>
      </trkpt>
      <trkpt lat="48.40534" lon="2.52132">
        <ele>72.8</ele>
        <time>2020-06-06T14:10:27Z</time>
      </trkpt>
      <trkpt lat="48.4054" lon="2.52136">
        <ele>72.9</ele>
        <time>2020-06-06T14:10:29Z</time>
      </trkpt>
      <trkpt lat="48.40546" lon="2.52139">
        <ele>73</ele>
        <time>2020-06-06T14:10:31Z</time>
      </trkpt>
      <trkpt lat="48.40552" lon="2.52142">
        <ele>73</ele>
        <time>2020-06-06T14:10:33Z</time>
      </trkpt>
      <trkpt lat="48.40559" lon="2.52147">
        <ele>73</ele>
        <time>2020-06-06T14:10:35Z</time>
      </trkpt>
      <trkpt lat="48.40566" lon="2.52151">
        <ele>73</ele>
        <time>2020-06-06T14:10:37Z</time>
      </trkpt>
      <trkpt lat="48.40573" lon="2.52154">
        <ele>73</ele>
        <time>2020-06-06T14:10:39Z</time>
      </trkpt>
      <trkpt lat="48.40578" lon="2.52158">
        <ele>73</ele>
        <time>2020-06-06T14:10:41Z</time>
      </trkpt>
      <trkpt lat="48.40583" lon="2.52161">
        <ele>73</ele>
        <time>2020-06-06T14:10:43Z</time>
      </trkpt>
      <trkpt lat="48.40589" lon="2.52164">
        <ele>73.2</ele>
        <time>2020-06-06T14:10:45Z</time>
      </trkpt>
      <trkpt lat="48.40595" lon="2.52166">
        <ele>73.4</ele>
        <time>2020-06-06T14:10:47Z</time>
      </trkpt>
      <trkpt lat="48.40601" lon="2.5217">
        <ele>73.7</ele>
        <time>2020-06-06T14:10:49Z</time>
      </trkpt>
      <trkpt lat="48.40606" lon="2.52173">
        <ele>73.9</ele>
        <time>2020-06-06T14:10:51Z</time>
      </trkpt>
      <trkpt lat="48.4061" lon="2.52179">
        <ele>74</ele>
        <time>2020-06-06T14:10:55Z</time>
      </trkpt>
      <trkpt lat="48.40615" lon="2.5218">
        <ele>74.1</ele>
        <time>2020-06-06T14:11:35Z</time>
      </trkpt>
      <trkpt lat="48.40621" lon="2.52183">
        <ele>74.2</ele>
        <time>2020-06-06T14:11:39Z</time>
      </trkpt>
      <trkpt lat="48.40625" lon="2.52187">
        <ele>74.4</ele>
        <time>2020-06-06T14:11:41Z</time>
      </trkpt>
      <trkpt lat="48.4063" lon="2.5219">
        <ele>74.6</ele>
        <time>2020-06-06T14:11:43Z</time>
      </trkpt>
      <trkpt lat="48.40636" lon="2.52193">
        <ele>74.8</ele>
        <time>2020-06-06T14:11:45Z</time>
      </trkpt>
      <trkpt lat="48.40641" lon="2.52196">
        <ele>75.2</ele>
        <time>2020-06-06T14:11:47Z</time>
      </trkpt>
      <trkpt lat="48.40645" lon="2.52199">
        <ele>75.6</ele>
        <time>2020-06-06T14:11:49Z</time>
      </trkpt>
      <trkpt lat="48.40651" lon="2.52201">
        <ele>76</ele>
        <time>2020-06-06T14:11:51Z</time>
      </trkpt>
      <trkpt lat="48.40657" lon="2.52205">
        <ele>76.4</ele>
        <time>2020-06-06T14:11:53Z</time>
      </trkpt>
      <trkpt lat="48.40662" lon="2.52205">
        <ele>76.7</ele>
        <time>2020-06-06T14:11:55Z</time>
      </trkpt>
      <trkpt lat="48.40666" lon="2.52202">
        <ele>77</ele>
        <time>2020-06-06T14:11:57Z</time>
      </trkpt>
      <trkpt lat="48.40669" lon="2.52194">
        <ele>77.2</ele>
        <time>2020-06-06T14:11:59Z</time>
      </trkpt>
      <trkpt lat="48.4067" lon="2.52185">
        <ele>76.9</ele>
        <time>2020-06-06T14:12:01Z</time>
      </trkpt>
      <trkpt lat="48.4067" lon="2.52175">
        <ele>76.6</ele>
        <time>2020-06-06T14:12:03Z</time>
      </trkpt>
      <trkpt lat="48.40668" lon="2.52164">
        <ele>76</ele>
        <time>2020-06-06T14:12:05Z</time>
      </trkpt>
      <trkpt lat="48.40669" lon="2.52149">
        <ele>75.6</ele>
        <time>2020-06-06T14:12:07Z</time>
      </trkpt>
      <trkpt lat="48.40669" lon="2.52137">
        <ele>75.2</ele>
        <time>2020-06-06T14:12:09Z</time>
      </trkpt>
      <trkpt lat="48.40668" lon="2.52123">
        <ele>74.6</ele>
        <time>2020-06-06T14:12:11Z</time>
      </trkpt>
      <trkpt lat="48.40665" lon="2.52109">
        <ele>73.9</ele>
        <time>2020-06-06T14:12:13Z</time>
      </trkpt>
      <trkpt lat="48.40665" lon="2.52094">
        <ele>73.4</ele>
        <time>2020-06-06T14:12:15Z</time>
      </trkpt>
      <trkpt lat="48.40669" lon="2.52082">
        <ele>73.2</ele>
        <time>2020-06-06T14:12:17Z</time>
      </trkpt>
      <trkpt lat="48.40672" lon="2.52069">
        <ele>73.3</ele>
        <time>2020-06-06T14:12:19Z</time>
      </trkpt>
      <trkpt lat="48.40673" lon="2.52055">
        <ele>73.2</ele>
        <time>2020-06-06T14:12:21Z</time>
      </trkpt>
      <trkpt lat="48.40675" lon="2.52044">
        <ele>73.3</ele>
        <time>2020-06-06T14:12:23Z</time>
      </trkpt>
      <trkpt lat="48.40674" lon="2.52032">
        <ele>73.3</ele>
        <time>2020-06-06T14:12:25Z</time>
      </trkpt>
      <trkpt lat="48.40674" lon="2.52021">
        <ele>73.2</ele>
        <time>2020-06-06T14:12:27Z</time>
      </trkpt>
      <trkpt lat="48.40677" lon="2.52012">
        <ele>73.2</ele>
        <time>2020-06-06T14:12:29Z</time>
      </trkpt>
      <trkpt lat="48.40679" lon="2.52002">
        <ele>73</ele>
        <time>2020-06-06T14:12:31Z</time>
      </trkpt>
      <trkpt lat="48.4068" lon="2.5199">
        <ele>73</ele>
        <time>2020-06-06T14:12:33Z</time>
      </trkpt>
      <trkpt lat="48.40682" lon="2.51978">
        <ele>73</ele>
        <time>2020-06-06T14:12:35Z</time>
      </trkpt>
      <trkpt lat="48.40684" lon="2.51971">
        <ele>73</ele>
        <time>2020-06-06T14:12:37Z</time>
      </trkpt>
      <trkpt lat="48.40686" lon="2.51961">
        <ele>73.3</ele>
        <time>2020-06-06T14:12:39Z</time>
      </trkpt>
      <trkpt lat="48.40687" lon="2.51954">
        <ele>73.5</ele>
        <time>2020-06-06T14:12:41Z</time>
      </trkpt>
      <trkpt lat="48.40687" lon="2.51943">
        <ele>73.8</ele>
        <time>2020-06-06T14:12:43Z</time>
      </trkpt>
      <trkpt lat="48.40687" lon="2.51935">
        <ele>74.1</ele>
        <time>2020-06-06T14:12:45Z</time>
      </trkpt>
      <trkpt lat="48.40686" lon="2.51926">
        <ele>74.4</ele>
        <time>2020-06-06T14:12:47Z</time>
      </trkpt>
      <trkpt lat="48.40687" lon="2.51919">
        <ele>74.6</ele>
        <time>2020-06-06T14:12:49Z</time>
      </trkpt>
      <trkpt lat="48.40688" lon="2.51912">
        <ele>75.1</ele>
        <time>2020-06-06T14:12:51Z</time>
      </trkpt>
      <trkpt lat="48.40688" lon="2.51904">
        <ele>75.6</ele>
        <time>2020-06-06T14:12:53Z</time>
      </trkpt>
      <trkpt lat="48.40687" lon="2.51895">
        <ele>76.1</ele>
        <time>2020-06-06T14:12:55Z</time>
      </trkpt>
      <trkpt lat="48.40686" lon="2.51887">
        <ele>76.5</ele>
        <time>2020-06-06T14:12:57Z</time>
      </trkpt>
      <trkpt lat="48.40684" lon="2.51879">
        <ele>76.6</ele>
        <time>2020-06-06T14:12:59Z</time>
      </trkpt>
      <trkpt lat="48.40679" lon="2.51875">
        <ele>76.4</ele>
        <time>2020-06-06T14:13:01Z</time>
      </trkpt>
      <trkpt lat="48.40673" lon="2.51868">
        <ele>76.2</ele>
        <time>2020-06-06T14:13:03Z</time>
      </trkpt>
      <trkpt lat="48.40667" lon="2.51858">
        <ele>76.1</ele>
        <time>2020-06-06T14:13:05Z</time>
      </trkpt>
      <trkpt lat="48.40658" lon="2.51852">
        <ele>75.7</ele>
        <time>2020-06-06T14:13:07Z</time>
      </trkpt>
      <trkpt lat="48.4065" lon="2.51848">
        <ele>75.3</ele>
        <time>2020-06-06T14:13:09Z</time>
      </trkpt>
      <trkpt lat="48.40642" lon="2.51847">
        <ele>74.7</ele>
        <time>2020-06-06T14:13:11Z</time>
      </trkpt>
      <trkpt lat="48.40634" lon="2.51849">
        <ele>74.2</ele>
        <time>2020-06-06T14:13:13Z</time>
      </trkpt>
      <trkpt lat="48.40625" lon="2.51849">
        <ele>73.7</ele>
        <time>2020-06-06T14:13:15Z</time>
      </trkpt>
      <trkpt lat="48.40618" lon="2.51844">
        <ele>73.4</ele>
        <time>2020-06-06T14:13:17Z</time>
      </trkpt>
      <trkpt lat="48.40615" lon="2.51834">
        <ele>73.3</ele>
        <time>2020-06-06T14:13:19Z</time>
      </trkpt>
      <trkpt lat="48.40619" lon="2.51826">
        <ele>73.6</ele>
        <time>2020-06-06T14:13:21Z</time>
      </trkpt>
      <trkpt lat="48.40619" lon="2.51816">
        <ele>73.6</ele>
        <time>2020-06-06T14:13:23Z</time>
      </trkpt>
      <trkpt lat="48.4062" lon="2.51808">
        <ele>73.6</ele>
        <time>2020-06-06T14:13:25Z</time>
      </trkpt>
      <trkpt lat="48.40622" lon="2.51798">
        <ele>73.7</ele>
        <time>2020-06-06T14:13:27Z</time>
      </trkpt>
      <trkpt lat="48.40622" lon="2.51789">
        <ele>73.6</ele>
        <time>2020-06-06T14:13:29Z</time>
      </trkpt>
      <trkpt lat="48.40624" lon="2.51777">
        <ele>73.4</ele>
        <time>2020-06-06T14:13:31Z</time>
      </trkpt>
      <trkpt lat="48.40625" lon="2.51767">
        <ele>73.3</ele>
        <time>2020-06-06T14:13:33Z</time>
      </trkpt>
      <trkpt lat="48.40627" lon="2.51756">
        <ele>73.2</ele>
        <time>2020-06-06T14:13:35Z</time>
      </trkpt>
      <trkpt lat="48.4063" lon="2.51747">
        <ele>73.3</ele>
        <time>2020-06-06T14:13:37Z</time>
      </trkpt>
      <trkpt lat="48.40632" lon="2.51737">
        <ele>73.2</ele>
        <time>2020-06-06T14:13:39Z</time>
      </trkpt>
      <trkpt lat="48.40635" lon="2.51728">
        <ele>73</ele>
        <time>2020-06-06T14:13:41Z</time>
      </trkpt>
      <trkpt lat="48.40638" lon="2.51718">
        <ele>73</ele>
        <time>2020-06-06T14:13:43Z</time>
      </trkpt>
      <trkpt lat="48.4064" lon="2.51708">
        <ele>73.1</ele>
        <time>2020-06-06T14:13:45Z</time>
      </trkpt>
      <trkpt lat="48.40643" lon="2.517">
        <ele>73.2</ele>
        <time>2020-06-06T14:13:47Z</time>
      </trkpt>
      <trkpt lat="48.40646" lon="2.5169">
        <ele>73.1</ele>
        <time>2020-06-06T14:13:49Z</time>
      </trkpt>
      <trkpt lat="48.40649" lon="2.51679">
        <ele>73</ele>
        <time>2020-06-06T14:13:51Z</time>
      </trkpt>
      <trkpt lat="48.40651" lon="2.51668">
        <ele>72.9</ele>
        <time>2020-06-06T14:13:53Z</time>
      </trkpt>
      <trkpt lat="48.40653" lon="2.51658">
        <ele>73.2</ele>
        <time>2020-06-06T14:13:55Z</time>
      </trkpt>
      <trkpt lat="48.40656" lon="2.51649">
        <ele>73.6</ele>
        <time>2020-06-06T14:13:57Z</time>
      </trkpt>
      <trkpt lat="48.40658" lon="2.51641">
        <ele>74</ele>
        <time>2020-06-06T14:13:59Z</time>
      </trkpt>
      <trkpt lat="48.4066" lon="2.51634">
        <ele>74.3</ele>
        <time>2020-06-06T14:14:01Z</time>
      </trkpt>
      <trkpt lat="48.40661" lon="2.51627">
        <ele>74.5</ele>
        <time>2020-06-06T14:14:03Z</time>
      </trkpt>
      <trkpt lat="48.40662" lon="2.51618">
        <ele>74.6</ele>
        <time>2020-06-06T14:14:05Z</time>
      </trkpt>
      <trkpt lat="48.40663" lon="2.51608">
        <ele>74.6</ele>
        <time>2020-06-06T14:14:09Z</time>
      </trkpt>
      <trkpt lat="48.40664" lon="2.51598">
        <ele>74.3</ele>
        <time>2020-06-06T14:14:39Z</time>
      </trkpt>
      <trkpt lat="48.40669" lon="2.51587">
        <ele>74.6</ele>
        <time>2020-06-06T14:14:43Z</time>
      </trkpt>
      <trkpt lat="48.40671" lon="2.5158">
        <ele>74.8</ele>
        <time>2020-06-06T14:14:45Z</time>
      </trkpt>
      <trkpt lat="48.40674" lon="2.51574">
        <ele>75.2</ele>
        <time>2020-06-06T14:14:47Z</time>
      </trkpt>
      <trkpt lat="48.40677" lon="2.51569">
        <ele>75.7</ele>
        <time>2020-06-06T14:14:49Z</time>
      </trkpt>
      <trkpt lat="48.4068" lon="2.51563">
        <ele>76</ele>
        <time>2020-06-06T14:14:51Z</time>
      </trkpt>
      <trkpt lat="48.40682" lon="2.51557">
        <ele>76.2</ele>
        <time>2020-06-06T14:14:59Z</time>
      </trkpt>
      <trkpt lat="48.40687" lon="2.51546">
        <ele>76.3</ele>
        <time>2020-06-06T14:15:05Z</time>
      </trkpt>
      <trkpt lat="48.40691" lon="2.51538">
        <ele>76.3</ele>
        <time>2020-06-06T14:15:07Z</time>
      </trkpt>
      <trkpt lat="48.40694" lon="2.51531">
        <ele>76.2</ele>
        <time>2020-06-06T14:15:09Z</time>
      </trkpt>
      <trkpt lat="48.40698" lon="2.51524">
        <ele>76.4</ele>
        <time>2020-06-06T14:15:11Z</time>
      </trkpt>
      <trkpt lat="48.40702" lon="2.51516">
        <ele>76.5</ele>
        <time>2020-06-06T14:15:13Z</time>
      </trkpt>
      <trkpt lat="48.40705" lon="2.5151">
        <ele>76.6</ele>
        <time>2020-06-06T14:15:15Z</time>
      </trkpt>
      <trkpt lat="48.40709" lon="2.51503">
        <ele>76.7</ele>
        <time>2020-06-06T14:15:17Z</time>
      </trkpt>
      <trkpt lat="48.40713" lon="2.51496">
        <ele>76.9</ele>
        <time>2020-06-06T14:15:19Z</time>
      </trkpt>
      <trkpt lat="48.40718" lon="2.51489">
        <ele>77.1</ele>
        <time>2020-06-06T14:15:21Z</time>
      </trkpt>
      <trkpt lat="48.40721" lon="2.51484">
        <ele>77.3</ele>
        <time>2020-06-06T14:15:23Z</time>
      </trkpt>
      <trkpt lat="48.40726" lon="2.51478">
        <ele>77.5</ele>
        <time>2020-06-06T14:15:25Z</time>
      </trkpt>
      <trkpt lat="48.4073" lon="2.51471">
        <ele>77.5</ele>
        <time>2020-06-06T14:15:27Z</time>
      </trkpt>
      <trkpt lat="48.40735" lon="2.51464">
        <ele>77.6</ele>
        <time>2020-06-06T14:15:29Z</time>
      </trkpt>
      <trkpt lat="48.40739" lon="2.51458">
        <ele>77.7</ele>
        <time>2020-06-06T14:15:31Z</time>
      </trkpt>
      <trkpt lat="48.40744" lon="2.51451">
        <ele>77.8</ele>
        <time>2020-06-06T14:15:33Z</time>
      </trkpt>
      <trkpt lat="48.40748" lon="2.51444">
        <ele>77.8</ele>
        <time>2020-06-06T14:15:35Z</time>
      </trkpt>
      <trkpt lat="48.40753" lon="2.51438">
        <ele>78</ele>
        <time>2020-06-06T14:15:37Z</time>
      </trkpt>
      <trkpt lat="48.40756" lon="2.51432">
        <ele>78</ele>
        <time>2020-06-06T14:15:39Z</time>
      </trkpt>
      <trkpt lat="48.40763" lon="2.51421">
        <ele>78.1</ele>
        <time>2020-06-06T14:15:43Z</time>
      </trkpt>
      <trkpt lat="48.40769" lon="2.51414">
        <ele>78.2</ele>
        <time>2020-06-06T14:15:45Z</time>
      </trkpt>
      <trkpt lat="48.40773" lon="2.51406">
        <ele>78</ele>
        <time>2020-06-06T14:15:47Z</time>
      </trkpt>
      <trkpt lat="48.40777" lon="2.51398">
        <ele>77.6</ele>
        <time>2020-06-06T14:15:49Z</time>
      </trkpt>
      <trkpt lat="48.40782" lon="2.51391">
        <ele>77.4</ele>
        <time>2020-06-06T14:15:51Z</time>
      </trkpt>
      <trkpt lat="48.40786" lon="2.51384">
        <ele>77.4</ele>
        <time>2020-06-06T14:15:53Z</time>
      </trkpt>
      <trkpt lat="48.4079" lon="2.51379">
        <ele>77.5</ele>
        <time>2020-06-06T14:15:55Z</time>
      </trkpt>
      <trkpt lat="48.40794" lon="2.51373">
        <ele>77.6</ele>
        <time>2020-06-06T14:15:57Z</time>
      </trkpt>
      <trkpt lat="48.40798" lon="2.51367">
        <ele>77.7</ele>
        <time>2020-06-06T14:15:59Z</time>
      </trkpt>
      <trkpt lat="48.40795" lon="2.51376">
        <ele>77.8</ele>
        <time>2020-06-06T14:16:51Z</time>
      </trkpt>
      <trkpt lat="48.40791" lon="2.51383">
        <ele>77.7</ele>
        <time>2020-06-06T14:16:53Z</time>
      </trkpt>
      <trkpt lat="48.40787" lon="2.51379">
        <ele>77.3</ele>
        <time>2020-06-06T14:16:55Z</time>
      </trkpt>
      <trkpt lat="48.40785" lon="2.51364">
        <ele>76.6</ele>
        <time>2020-06-06T14:16:59Z</time>
      </trkpt>
      <trkpt lat="48.40784" lon="2.51353">
        <ele>76.2</ele>
        <time>2020-06-06T14:17:01Z</time>
      </trkpt>
      <trkpt lat="48.40785" lon="2.5134">
        <ele>75.8</ele>
        <time>2020-06-06T14:17:03Z</time>
      </trkpt>
      <trkpt lat="48.40784" lon="2.5133">
        <ele>75.3</ele>
        <time>2020-06-06T14:17:05Z</time>
      </trkpt>
      <trkpt lat="48.40783" lon="2.51318">
        <ele>74.8</ele>
        <time>2020-06-06T14:17:07Z</time>
      </trkpt>
      <trkpt lat="48.40784" lon="2.51309">
        <ele>74.6</ele>
        <time>2020-06-06T14:17:09Z</time>
      </trkpt>
      <trkpt lat="48.40781" lon="2.51296">
        <ele>74.2</ele>
        <time>2020-06-06T14:17:11Z</time>
      </trkpt>
      <trkpt lat="48.4078" lon="2.51283">
        <ele>74.1</ele>
        <time>2020-06-06T14:17:13Z</time>
      </trkpt>
      <trkpt lat="48.40779" lon="2.51272">
        <ele>73.8</ele>
        <time>2020-06-06T14:17:15Z</time>
      </trkpt>
      <trkpt lat="48.4078" lon="2.51259">
        <ele>73.5</ele>
        <time>2020-06-06T14:17:17Z</time>
      </trkpt>
      <trkpt lat="48.40778" lon="2.51242">
        <ele>73</ele>
        <time>2020-06-06T14:17:19Z</time>
      </trkpt>
      <trkpt lat="48.40778" lon="2.5123">
        <ele>73</ele>
        <time>2020-06-06T14:17:21Z</time>
      </trkpt>
      <trkpt lat="48.40776" lon="2.51215">
        <ele>73</ele>
        <time>2020-06-06T14:17:23Z</time>
      </trkpt>
      <trkpt lat="48.40774" lon="2.51197">
        <ele>73</ele>
        <time>2020-06-06T14:17:25Z</time>
      </trkpt>
      <trkpt lat="48.40774" lon="2.51181">
        <ele>73</ele>
        <time>2020-06-06T14:17:27Z</time>
      </trkpt>
      <trkpt lat="48.40774" lon="2.51165">
        <ele>73</ele>
        <time>2020-06-06T14:17:29Z</time>
      </trkpt>
      <trkpt lat="48.40774" lon="2.51151">
        <ele>73</ele>
        <time>2020-06-06T14:17:31Z</time>
      </trkpt>
      <trkpt lat="48.40769" lon="2.51139">
        <ele>73</ele>
        <time>2020-06-06T14:17:33Z</time>
      </trkpt>
      <trkpt lat="48.40768" lon="2.51125">
        <ele>73</ele>
        <time>2020-06-06T14:17:35Z</time>
      </trkpt>
      <trkpt lat="48.40768" lon="2.51111">
        <ele>73</ele>
        <time>2020-06-06T14:17:37Z</time>
      </trkpt>
      <trkpt lat="48.40768" lon="2.51097">
        <ele>72.8</ele>
        <time>2020-06-06T14:17:39Z</time>
      </trkpt>
      <trkpt lat="48.40766" lon="2.51085">
        <ele>72.6</ele>
        <time>2020-06-06T14:17:41Z</time>
      </trkpt>
      <trkpt lat="48.40765" lon="2.51073">
        <ele>72.5</ele>
        <time>2020-06-06T14:17:43Z</time>
      </trkpt>
      <trkpt lat="48.40767" lon="2.51063">
        <ele>72.6</ele>
        <time>2020-06-06T14:17:45Z</time>
      </trkpt>
      <trkpt lat="48.40769" lon="2.51052">
        <ele>72.7</ele>
        <time>2020-06-06T14:17:47Z</time>
      </trkpt>
      <trkpt lat="48.40769" lon="2.51043">
        <ele>72.7</ele>
        <time>2020-06-06T14:17:49Z</time>
      </trkpt>
      <trkpt lat="48.40771" lon="2.51035">
        <ele>72.8</ele>
        <time>2020-06-06T14:17:51Z</time>
      </trkpt>
      <trkpt lat="48.40772" lon="2.51025">
        <ele>72.8</ele>
        <time>2020-06-06T14:17:53Z</time>
      </trkpt>
      <trkpt lat="48.40773" lon="2.51015">
        <ele>72.8</ele>
        <time>2020-06-06T14:17:55Z</time>
      </trkpt>
      <trkpt lat="48.40772" lon="2.51006">
        <ele>72.8</ele>
        <time>2020-06-06T14:17:57Z</time>
      </trkpt>
      <trkpt lat="48.4077" lon="2.50996">
        <ele>72.7</ele>
        <time>2020-06-06T14:17:59Z</time>
      </trkpt>
      <trkpt lat="48.40769" lon="2.50989">
        <ele>72.7</ele>
        <time>2020-06-06T14:18:01Z</time>
      </trkpt>
      <trkpt lat="48.40772" lon="2.50975">
        <ele>72.8</ele>
        <time>2020-06-06T14:18:05Z</time>
      </trkpt>
      <trkpt lat="48.40773" lon="2.50966">
        <ele>72.8</ele>
        <time>2020-06-06T14:18:07Z</time>
      </trkpt>
      <trkpt lat="48.40774" lon="2.50956">
        <ele>72.9</ele>
        <time>2020-06-06T14:18:09Z</time>
      </trkpt>
      <trkpt lat="48.40774" lon="2.50947">
        <ele>72.9</ele>
        <time>2020-06-06T14:18:11Z</time>
      </trkpt>
      <trkpt lat="48.40776" lon="2.50938">
        <ele>73</ele>
        <time>2020-06-06T14:18:13Z</time>
      </trkpt>
      <trkpt lat="48.40779" lon="2.5093">
        <ele>73</ele>
        <time>2020-06-06T14:18:15Z</time>
      </trkpt>
      <trkpt lat="48.40784" lon="2.50924">
        <ele>73.2</ele>
        <time>2020-06-06T14:18:17Z</time>
      </trkpt>
      <trkpt lat="48.40786" lon="2.50917">
        <ele>73.3</ele>
        <time>2020-06-06T14:18:19Z</time>
      </trkpt>
      <trkpt lat="48.40789" lon="2.50908">
        <ele>73.4</ele>
        <time>2020-06-06T14:18:21Z</time>
      </trkpt>
      <trkpt lat="48.4079" lon="2.509">
        <ele>73.4</ele>
        <time>2020-06-06T14:18:23Z</time>
      </trkpt>
      <trkpt lat="48.40794" lon="2.50893">
        <ele>73.6</ele>
        <time>2020-06-06T14:18:25Z</time>
      </trkpt>
      <trkpt lat="48.40798" lon="2.50888">
        <ele>73.7</ele>
        <time>2020-06-06T14:18:27Z</time>
      </trkpt>
      <trkpt lat="48.40803" lon="2.50883">
        <ele>73.9</ele>
        <time>2020-06-06T14:18:29Z</time>
      </trkpt>
      <trkpt lat="48.40807" lon="2.50878">
        <ele>74.1</ele>
        <time>2020-06-06T14:18:31Z</time>
      </trkpt>
      <trkpt lat="48.40808" lon="2.50868">
        <ele>74.1</ele>
        <time>2020-06-06T14:18:33Z</time>
      </trkpt>
      <trkpt lat="48.40806" lon="2.5086">
        <ele>74</ele>
        <time>2020-06-06T14:18:35Z</time>
      </trkpt>
      <trkpt lat="48.40803" lon="2.5085">
        <ele>73.9</ele>
        <time>2020-06-06T14:18:37Z</time>
      </trkpt>
      <trkpt lat="48.40801" lon="2.50838">
        <ele>73.8</ele>
        <time>2020-06-06T14:18:39Z</time>
      </trkpt>
      <trkpt lat="48.40798" lon="2.50827">
        <ele>73.7</ele>
        <time>2020-06-06T14:18:41Z</time>
      </trkpt>
      <trkpt lat="48.40796" lon="2.50816">
        <ele>73.7</ele>
        <time>2020-06-06T14:18:43Z</time>
      </trkpt>
      <trkpt lat="48.40792" lon="2.50807">
        <ele>73.5</ele>
        <time>2020-06-06T14:18:45Z</time>
      </trkpt>
      <trkpt lat="48.4079" lon="2.50797">
        <ele>73.4</ele>
        <time>2020-06-06T14:18:47Z</time>
      </trkpt>
      <trkpt lat="48.40788" lon="2.50788">
        <ele>73.4</ele>
        <time>2020-06-06T14:18:49Z</time>
      </trkpt>
      <trkpt lat="48.40784" lon="2.50779">
        <ele>73.2</ele>
        <time>2020-06-06T14:18:51Z</time>
      </trkpt>
      <trkpt lat="48.40782" lon="2.5077">
        <ele>73.4</ele>
        <time>2020-06-06T14:18:53Z</time>
      </trkpt>
      <trkpt lat="48.4078" lon="2.5076">
        <ele>73.7</ele>
        <time>2020-06-06T14:18:55Z</time>
      </trkpt>
      <trkpt lat="48.40776" lon="2.50751">
        <ele>73.9</ele>
        <time>2020-06-06T14:18:57Z</time>
      </trkpt>
      <trkpt lat="48.40774" lon="2.50741">
        <ele>73.9</ele>
        <time>2020-06-06T14:18:59Z</time>
      </trkpt>
      <trkpt lat="48.40771" lon="2.50731">
        <ele>73.8</ele>
        <time>2020-06-06T14:19:01Z</time>
      </trkpt>
      <trkpt lat="48.40768" lon="2.50721">
        <ele>73.6</ele>
        <time>2020-06-06T14:19:03Z</time>
      </trkpt>
      <trkpt lat="48.40765" lon="2.50711">
        <ele>73.5</ele>
        <time>2020-06-06T14:19:05Z</time>
      </trkpt>
      <trkpt lat="48.40765" lon="2.50702">
        <ele>73.5</ele>
        <time>2020-06-06T14:19:07Z</time>
      </trkpt>
      <trkpt lat="48.40762" lon="2.50693">
        <ele>73.4</ele>
        <time>2020-06-06T14:19:09Z</time>
      </trkpt>
      <trkpt lat="48.4076" lon="2.50686">
        <ele>73.4</ele>
        <time>2020-06-06T14:19:11Z</time>
      </trkpt>
      <trkpt lat="48.40757" lon="2.50677">
        <ele>73.3</ele>
        <time>2020-06-06T14:19:13Z</time>
      </trkpt>
      <trkpt lat="48.40754" lon="2.50668">
        <ele>73.1</ele>
        <time>2020-06-06T14:19:15Z</time>
      </trkpt>
      <trkpt lat="48.40752" lon="2.50657">
        <ele>73.1</ele>
        <time>2020-06-06T14:19:17Z</time>
      </trkpt>
      <trkpt lat="48.40748" lon="2.50648">
        <ele>73</ele>
        <time>2020-06-06T14:19:19Z</time>
      </trkpt>
      <trkpt lat="48.40746" lon="2.50637">
        <ele>73.1</ele>
        <time>2020-06-06T14:19:21Z</time>
      </trkpt>
      <trkpt lat="48.40743" lon="2.50632">
        <ele>73.2</ele>
        <time>2020-06-06T14:19:23Z</time>
      </trkpt>
      <trkpt lat="48.40741" lon="2.50623">
        <ele>73.6</ele>
        <time>2020-06-06T14:19:25Z</time>
      </trkpt>
      <trkpt lat="48.40738" lon="2.50615">
        <ele>73.9</ele>
        <time>2020-06-06T14:19:27Z</time>
      </trkpt>
      <trkpt lat="48.40732" lon="2.50606">
        <ele>74</ele>
        <time>2020-06-06T14:19:31Z</time>
      </trkpt>
      <trkpt lat="48.40725" lon="2.5061">
        <ele>74</ele>
        <time>2020-06-06T14:19:35Z</time>
      </trkpt>
      <trkpt lat="48.4072" lon="2.50614">
        <ele>73.8</ele>
        <time>2020-06-06T14:19:37Z</time>
      </trkpt>
      <trkpt lat="48.40715" lon="2.5062">
        <ele>73.5</ele>
        <time>2020-06-06T14:19:39Z</time>
      </trkpt>
      <trkpt lat="48.40711" lon="2.50624">
        <ele>73.3</ele>
        <time>2020-06-06T14:19:41Z</time>
      </trkpt>
      <trkpt lat="48.40704" lon="2.50632">
        <ele>73.1</ele>
        <time>2020-06-06T14:19:43Z</time>
      </trkpt>
      <trkpt lat="48.40698" lon="2.50636">
        <ele>73</ele>
        <time>2020-06-06T14:19:45Z</time>
      </trkpt>
      <trkpt lat="48.40695" lon="2.50643">
        <ele>73</ele>
        <time>2020-06-06T14:19:47Z</time>
      </trkpt>
      <trkpt lat="48.40689" lon="2.5065">
        <ele>73</ele>
        <time>2020-06-06T14:19:49Z</time>
      </trkpt>
      <trkpt lat="48.40682" lon="2.50659">
        <ele>73</ele>
        <time>2020-06-06T14:19:51Z</time>
      </trkpt>
      <trkpt lat="48.40673" lon="2.50667">
        <ele>73</ele>
        <time>2020-06-06T14:19:53Z</time>
      </trkpt>
      <trkpt lat="48.40665" lon="2.50678">
        <ele>72.6</ele>
        <time>2020-06-06T14:19:55Z</time>
      </trkpt>
      <trkpt lat="48.40657" lon="2.50687">
        <ele>72.3</ele>
        <time>2020-06-06T14:19:57Z</time>
      </trkpt>
      <trkpt lat="48.40649" lon="2.50696">
        <ele>72</ele>
        <time>2020-06-06T14:19:59Z</time>
      </trkpt>
      <trkpt lat="48.40642" lon="2.50706">
        <ele>72</ele>
        <time>2020-06-06T14:20:01Z</time>
      </trkpt>
      <trkpt lat="48.40635" lon="2.50713">
        <ele>72</ele>
        <time>2020-06-06T14:20:03Z</time>
      </trkpt>
      <trkpt lat="48.4063" lon="2.50723">
        <ele>72</ele>
        <time>2020-06-06T14:20:05Z</time>
      </trkpt>
      <trkpt lat="48.40623" lon="2.50731">
        <ele>72</ele>
        <time>2020-06-06T14:20:07Z</time>
      </trkpt>
      <trkpt lat="48.40618" lon="2.50737">
        <ele>72</ele>
        <time>2020-06-06T14:20:09Z</time>
      </trkpt>
      <trkpt lat="48.40612" lon="2.50742">
        <ele>72</ele>
        <time>2020-06-06T14:20:11Z</time>
      </trkpt>
      <trkpt lat="48.40606" lon="2.50743">
        <ele>72</ele>
        <time>2020-06-06T14:20:13Z</time>
      </trkpt>
      <trkpt lat="48.40602" lon="2.50754">
        <ele>72</ele>
        <time>2020-06-06T14:20:17Z</time>
      </trkpt>
      <trkpt lat="48.40593" lon="2.50762">
        <ele>72</ele>
        <time>2020-06-06T14:20:21Z</time>
      </trkpt>
      <trkpt lat="48.40586" lon="2.5077">
        <ele>72</ele>
        <time>2020-06-06T14:20:23Z</time>
      </trkpt>
      <trkpt lat="48.40579" lon="2.50777">
        <ele>72</ele>
        <time>2020-06-06T14:20:25Z</time>
      </trkpt>
      <trkpt lat="48.40572" lon="2.50787">
        <ele>72</ele>
        <time>2020-06-06T14:20:27Z</time>
      </trkpt>
      <trkpt lat="48.40567" lon="2.50797">
        <ele>72</ele>
        <time>2020-06-06T14:20:29Z</time>
      </trkpt>
      <trkpt lat="48.40561" lon="2.50804">
        <ele>72</ele>
        <time>2020-06-06T14:20:31Z</time>
      </trkpt>
      <trkpt lat="48.40556" lon="2.50809">
        <ele>72</ele>
        <time>2020-06-06T14:20:33Z</time>
      </trkpt>
      <trkpt lat="48.40551" lon="2.50813">
        <ele>71.8</ele>
        <time>2020-06-06T14:20:35Z</time>
      </trkpt>
      <trkpt lat="48.40544" lon="2.50813">
        <ele>71.6</ele>
        <time>2020-06-06T14:20:37Z</time>
      </trkpt>
      <trkpt lat="48.4054" lon="2.50809">
        <ele>71.4</ele>
        <time>2020-06-06T14:20:39Z</time>
      </trkpt>
      <trkpt lat="48.40533" lon="2.508">
        <ele>71.2</ele>
        <time>2020-06-06T14:20:43Z</time>
      </trkpt>
      <trkpt lat="48.40529" lon="2.50795">
        <ele>71</ele>
        <time>2020-06-06T14:20:45Z</time>
      </trkpt>
      <trkpt lat="48.40524" lon="2.50792">
        <ele>71</ele>
        <time>2020-06-06T14:20:47Z</time>
      </trkpt>
      <trkpt lat="48.40519" lon="2.50789">
        <ele>71</ele>
        <time>2020-06-06T14:20:49Z</time>
      </trkpt>
    </trkseg>
  </trk>
</gpx>